
Distance (Route):
Temperature : 12.0°C
Humidity : 72.9%
Pressure : 963.7hPa| Receiver | Frames | First received | Last received |
|---|---|---|---|
| BIOWL1-15 | 991 | 2026-09-05 22:46:53 | 2026-09-06 01:55:38 |
| DM0DOS-11 | 954 | 2026-09-05 22:45:37 | 2026-09-06 01:56:43 |
| DL1XH-west | 722 | 2026-09-05 23:10:19 | 2026-09-06 01:24:23 |
| HSKMA3-T | 679 | 2026-09-05 23:21:32 | 2026-09-06 01:44:08 |
| AA1-15 | 444 | 2026-09-05 23:37:26 | 2026-09-06 01:09:45 |
| DL1XH1-15 | 420 | 2026-09-05 23:11:46 | 2026-09-06 01:23:38 |
| DL1XH-15 | 348 | 2026-09-05 23:27:48 | 2026-09-06 01:12:23 |
| DD8BA-10 | 212 | 2026-09-05 22:52:50 | 2026-09-06 01:18:39 |
| DO3DL | 211 | 2026-09-05 22:45:21 | 2026-09-06 01:39:41 |
| DJ2DS-15 | 153 | 2026-09-05 22:55:55 | 2026-09-06 01:26:12 |
| DL1NUX | 144 | 2026-09-06 00:57:18 | 2026-09-06 01:46:41 |
| DL3AQ-11 | 126 | 2026-09-05 23:00:23 | 2026-09-06 01:29:58 |
| DB0UT-7 | 113 | 2026-09-05 22:48:29 | 2026-09-06 01:57:43 |
| DB0ND-19 | 101 | 2026-09-05 22:59:55 | 2026-09-06 02:04:07 |
| DO3MHA-12 | 99 | 2026-09-05 23:35:13 | 2026-09-06 01:28:20 |
| DO3MHA-11 | 98 | 2026-09-05 23:33:22 | 2026-09-06 01:29:56 |
| DF8AY | 93 | 2026-09-05 23:45:59 | 2026-09-06 01:26:02 |
| GOEST3-10 | 89 | 2026-09-05 23:35:22 | 2026-09-06 01:00:20 |
| DB0NH | 83 | 2026-09-05 23:08:33 | 2026-09-06 01:57:36 |
| DH3RM | 81 | 2026-09-05 22:48:53 | 2026-09-05 23:25:25 |
| DL1ZP-14 | 79 | 2026-09-05 23:04:50 | 2026-09-06 02:04:05 |
| HARRO8 | 75 | 2026-09-05 23:07:45 | 2026-09-06 02:03:20 |
| DJ8HS-15 | 74 | 2026-09-05 23:19:13 | 2026-09-06 01:48:47 |
| DF7PN | 74 | 2026-09-05 23:31:31 | 2026-09-06 02:01:40 |
| DO9LL-15 | 73 | 2026-09-05 22:47:01 | 2026-09-06 01:36:06 |
| BIOWL9-15 | 73 | 2026-09-05 22:48:00 | 2026-09-06 01:53:48 |
| DO2JMG | 67 | 2026-09-05 23:15:58 | 2026-09-06 01:11:03 |
| NBG1-10 | 67 | 2026-09-05 23:29:01 | 2026-09-06 01:59:37 |
| DD1CC3-15 | 66 | 2026-09-05 22:47:03 | 2026-09-06 01:46:55 |
| DD1CC8 | 66 | 2026-09-05 22:49:54 | 2026-09-06 01:46:58 |
| AU51GT2 | 66 | 2026-09-05 22:54:06 | 2026-09-06 01:31:57 |
| DJ2KF-10 | 65 | 2026-09-05 22:53:31 | 2026-09-06 01:21:11 |
| DO2KSM | 59 | 2026-09-05 22:47:06 | 2026-09-06 01:38:13 |
| DD1CC1-15 | 53 | 2026-09-05 22:47:16 | 2026-09-06 00:34:37 |
| DO1YAY-16 | 53 | 2026-09-05 22:49:54 | 2026-09-06 01:20:31 |
| WPPR-10 | 52 | 2026-09-05 22:48:46 | 2026-09-06 01:07:31 |
| BUE01 | 45 | 2026-09-05 23:15:24 | 2026-09-06 01:23:45 |
| DL4BBY-15 | 42 | 2026-09-05 23:02:37 | 2026-09-06 01:23:44 |
| DD1CC9-15 | 41 | 2026-09-05 22:46:59 | 2026-09-06 00:43:34 |
| HTAHTA | 36 | 2026-09-05 23:01:13 | 2026-09-06 01:12:48 |
| DB0DAN | 35 | 2026-09-05 23:33:40 | 2026-09-06 01:44:10 |
| SONCRA | 34 | 2026-09-05 23:22:15 | 2026-09-06 01:26:33 |
| DK9SH | 32 | 2026-09-05 22:55:32 | 2026-09-06 01:11:38 |
| BIOWL7-15 | 31 | 2026-09-05 22:49:11 | 2026-09-06 01:48:42 |
| DL1KLB | 31 | 2026-09-05 22:52:04 | 2026-09-05 23:56:57 |
| DL4XJ-10 | 30 | 2026-09-05 23:26:57 | 2026-09-06 01:08:43 |
| DC4HF-4 | 29 | 2026-09-05 23:24:21 | 2026-09-06 01:29:23 |
| EDDB2-11 | 29 | 2026-09-05 23:56:34 | 2026-09-06 01:18:19 |
| DJ3KS | 25 | 2026-09-05 22:55:45 | 2026-09-06 01:32:42 |
| SO1NDE-10 | 21 | 2026-09-06 01:07:16 | 2026-09-06 01:46:26 |
| DL3OBA | 20 | 2026-09-05 23:37:25 | 2026-09-06 01:08:56 |
| DL0LBS | 18 | 2026-09-06 01:19:09 | 2026-09-06 01:50:33 |
| AM1SDL-15 | 16 | 2026-09-05 23:33:10 | 2026-09-06 01:29:44 |
| DM7RM-13 | 15 | 2026-09-06 01:00:10 | 2026-09-06 01:41:07 |
| DF3TZ-5 | 14 | 2026-09-06 00:12:49 | 2026-09-06 01:03:01 |
| DL1CLM-18 | 13 | 2026-09-05 23:09:16 | 2026-09-06 01:26:40 |
| DL1LOL-11 | 12 | 2026-09-05 23:44:49 | 2026-09-06 01:32:40 |
| DL8OAI-8 | 12 | 2026-09-06 01:10:18 | 2026-09-06 01:38:14 |
| SONDE2-11 | 11 | 2026-09-06 00:52:31 | 2026-09-06 01:19:57 |
| WEDDY | 10 | 2026-09-05 23:23:23 | 2026-09-06 00:59:50 |
| DJTTGO | 8 | 2026-09-05 23:49:21 | 2026-09-06 01:07:39 |
| EDDB2-12 | 8 | 2026-09-06 00:57:29 | 2026-09-06 01:13:01 |
| DF5WG-10 | 7 | 2026-09-05 23:48:38 | 2026-09-05 23:52:18 |
| HEMX73-11 | 5 | 2026-09-06 00:27:26 | 2026-09-06 00:44:07 |
| SMARD9-10 | 2 | 2026-09-06 00:24:58 | 2026-09-06 00:26:47 |
| KANTATE | 2 | 2026-09-06 00:35:32 | 2026-09-06 00:43:32 |
| CB1BUN | 2 | 2026-09-06 01:11:50 | 2026-09-06 01:12:12 |
| SP3BTT-10 | 1 | 2026-09-06 00:36:49 | 2026-09-06 00:36:49 |
| HEMX73-6 | 1 | 2026-09-06 00:45:00 | 2026-09-06 00:45:00 |
| S3001 | 1 | 2026-09-06 00:58:24 | 2026-09-06 00:58:24 |
| Receiver | Date | Latitude | Longitude | Direction | Speed | Altitude | Climb | Temperature | Humidity | Pressure | Voltage | Killtimer | Uptime | BKT | XDATA |
|---|---|---|---|---|---|---|---|---|---|---|---|---|---|---|---|
| DB0ND-19 | 2026-09-06 02:04:07 | 50.46284 | 9.32281 | 179° | 11km/h | 581m | -2.6m/s | 12.0°C | 72.9% | 963.7hPa | 2.8V | 00:00:00 | 00:00:00 | 00:00:00 | |
| DL1ZP-14 | 2026-09-06 02:04:05 | 50.46306 | 9.32280 | 177° | 11km/h | 598m | -2.7m/s | 11.9°C | 73.4% | 961.6hPa | 2.8V | 00:00:00 | 00:00:00 | 00:00:00 | |
| DB0ND-19 | 2026-09-06 02:03:36 | 50.46329 | 9.32279 | 178° | 13km/h | 617m | -2.6m/s | 11.9°C | 73.0% | 959.7hPa | 2.7V | 00:00:00 | 00:00:00 | 00:00:00 | |
| DL1ZP-14 | 2026-09-06 02:03:34 | 50.46336 | 9.32279 | 176° | 13km/h | 622m | -2.5m/s | 12.0°C | 72.3% | 958.9hPa | 2.7V | 00:00:00 | 00:00:00 | 00:00:00 | |
| HARRO8 | 2026-09-06 02:03:20 | 50.46385 | 9.32275 | 176° | 13km/h | 659m | -2.7m/s | 11.7°C | 73.4% | 954.7hPa | 2.8V | 00:00:00 | 00:00:00 | 00:00:00 | |
| DB0ND-19 | 2026-09-06 02:03:05 | 50.46435 | 9.32267 | 173° | 13km/h | 699m | -2.6m/s | 11.4°C | 74.6% | 950.1hPa | 2.8V | 00:00:00 | 00:00:00 | 00:00:00 | |
| DL1ZP-14 | 2026-09-06 02:03:03 | 50.46442 | 9.32266 | 167° | 13km/h | 704m | -2.7m/s | 11.3°C | 74.8% | 949.6hPa | 2.8V | 00:00:00 | 00:00:00 | 00:00:00 | |
| HARRO8 | 2026-09-06 02:02:49 | 50.46487 | 9.32252 | 164° | 13km/h | 742m | -2.7m/s | 11.0°C | 76.5% | 945.3hPa | 2.8V | 00:00:00 | 00:00:00 | 00:00:00 | |
| DB0ND-19 | 2026-09-06 02:02:34 | 50.46536 | 9.32233 | 163° | 13km/h | 782m | -2.7m/s | 10.7°C | 78.1% | 940.7hPa | 2.8V | 00:00:00 | 00:00:00 | 00:00:00 | |
| DL1ZP-14 | 2026-09-06 02:02:32 | 50.46543 | 9.32230 | 165° | 15km/h | 787m | -2.7m/s | 10.6°C | 78.2% | 940.1hPa | 2.8V | 00:00:00 | 00:00:00 | 00:00:00 | |
| HARRO8 | 2026-09-06 02:02:18 | 50.46596 | 9.32205 | 164° | 15km/h | 825m | -2.5m/s | 10.3°C | 79.2% | 935.8hPa | 2.8V | 00:00:00 | 00:00:00 | 00:00:00 | |
| DB0ND-19 | 2026-09-06 02:02:03 | 50.46654 | 9.32168 | 155° | 16km/h | 865m | -2.7m/s | 10.0°C | 78.3% | 931.2hPa | 2.8V | 00:00:00 | 00:00:00 | 00:00:00 | |
| DL1ZP-14 | 2026-09-06 02:02:01 | 50.46662 | 9.32162 | 160° | 16km/h | 871m | -2.8m/s | 10.0°C | 77.8% | 930.6hPa | 2.8V | 00:00:00 | 00:00:00 | 00:00:00 | |
| HARRO8 | 2026-09-06 02:01:47 | 50.46724 | 9.32120 | 155° | 18km/h | 910m | -2.8m/s | 9.8°C | 77.5% | 926.2hPa | 2.7V | 00:00:00 | 00:00:00 | 00:00:00 | |
| DF7PN | 2026-09-06 02:01:40 | 50.46761 | 9.32093 | 155° | 20km/h | 932m | -2.7m/s | 9.6°C | 77.8% | 923.8hPa | 2.7V | 00:00:00 | 00:00:00 | 00:00:00 | |
| DB0ND-19 | 2026-09-06 02:01:32 | 50.46796 | 9.32068 | 154° | 22km/h | 951m | -2.8m/s | 9.4°C | 78.7% | 921.7hPa | 2.7V | 00:00:00 | 00:00:00 | 00:00:00 | |
| DL1ZP-14 | 2026-09-06 02:01:30 | 50.46812 | 9.32057 | 156° | 22km/h | 960m | -2.7m/s | 9.4°C | 78.7% | 920.9hPa | 2.7V | 00:00:00 | 00:00:00 | 00:00:00 | |
| HARRO8 | 2026-09-06 02:01:16 | 50.46883 | 9.32010 | 157° | 24km/h | 996m | -2.6m/s | 9.2°C | 78.4% | 916.8hPa | 2.8V | 00:00:00 | 00:00:00 | 00:00:00 | |
| DF7PN | 2026-09-06 02:01:08 | 50.46948 | 9.31960 | 154° | 26km/h | 1026m | -2.7m/s | 9.0°C | 77.9% | 913.5hPa | 2.8V | 00:00:00 | 00:00:00 | 00:00:00 | |
| DB0ND-19 | 2026-09-06 02:01:01 | 50.46973 | 9.31940 | 153° | 27km/h | 1037m | -2.5m/s | 9.0°C | 76.9% | 912.4hPa | 2.8V | 00:00:00 | 00:00:00 | 00:00:00 | |
| DL1ZP-14 | 2026-09-06 02:00:59 | 50.46992 | 9.31925 | 153° | 27km/h | 1045m | -2.6m/s | 8.9°C | 76.9% | 911.5hPa | 2.8V | 00:00:00 | 00:00:00 | 00:00:00 | |
| HARRO8 | 2026-09-06 02:00:45 | 50.47078 | 9.31849 | 148° | 29km/h | 1081m | -2.7m/s | 8.8°C | 74.9% | 907.4hPa | 2.8V | 00:00:00 | 00:00:00 | 00:00:00 | |
| DF7PN | 2026-09-06 02:00:37 | 50.47143 | 9.31786 | 145° | 27km/h | 1106m | -2.6m/s | 8.8°C | 72.6% | 904.7hPa | 2.8V | 00:00:00 | 00:00:00 | 00:00:00 | |
| DB0ND-19 | 2026-09-06 02:00:30 | 50.47173 | 9.31754 | 147° | 27km/h | 1119m | -2.5m/s | 8.8°C | 71.6% | 903.2hPa | 2.8V | 00:00:00 | 00:00:00 | 00:00:00 | |
| DL1ZP-14 | 2026-09-06 02:00:28 | 50.47191 | 9.31735 | 147° | 27km/h | 1127m | -2.5m/s | 8.8°C | 70.9% | 902.5hPa | 2.8V | 00:00:00 | 00:00:00 | 00:00:00 | |
| HARRO8 | 2026-09-06 02:00:14 | 50.47278 | 9.31643 | 143° | 29km/h | 1162m | -2.4m/s | 8.7°C | 69.2% | 898.7hPa | 2.8V | 00:00:00 | 00:00:00 | 00:00:00 | |
| DF7PN | 2026-09-06 02:00:06 | 50.47319 | 9.31590 | 139° | 29km/h | 1179m | -2.5m/s | 8.7°C | 68.3% | 896.9hPa | 2.8V | 00:00:00 | 00:00:00 | 00:00:00 | |
| DB0ND-19 | 2026-09-06 01:59:59 | 50.47359 | 9.31534 | 138° | 29km/h | 1196m | -2.3m/s | 8.7°C | 67.1% | 895.0hPa | 2.8V | 00:00:00 | 00:00:00 | 00:00:00 | |
| DL1ZP-14 | 2026-09-06 01:59:57 | 50.47376 | 9.31510 | 138° | 29km/h | 1203m | -2.3m/s | 8.7°C | 67.2% | 894.2hPa | 2.8V | 00:00:00 | 00:00:00 | 00:00:00 | |
| HARRO8 | 2026-09-06 01:59:43 | 50.47451 | 9.31401 | 134° | 31km/h | 1233m | -2.2m/s | 8.6°C | 66.0% | 891.0hPa | 2.7V | 00:00:00 | 00:00:00 | 00:00:00 | |
| NBG1-10 | 2026-09-06 01:59:37 | 50.47484 | 9.31346 | 134° | 33km/h | 1247m | -2.3m/s | 8.6°C | 65.3% | 889.4hPa | 2.7V | 07:13:00 | 03:41:40 | 00:00:00 | |
| DF7PN | 2026-09-06 01:59:35 | 50.47495 | 9.31327 | 134° | 31km/h | 1251m | -2.2m/s | 8.6°C | 65.2% | 889.2hPa | 2.7V | 00:00:00 | 00:00:00 | 00:00:00 | |
| DB0ND-19 | 2026-09-06 01:59:28 | 50.47534 | 9.31261 | 131° | 33km/h | 1266m | -2.1m/s | 8.5°C | 64.7% | 887.4hPa | 2.7V | 00:00:00 | 00:00:00 | 00:00:00 | |
| NBG1-10 | 2026-09-06 01:59:28 | 50.47534 | 9.31261 | 132° | 31km/h | 1266m | -2.1m/s | 8.5°C | 65.0% | 887.3hPa | 2.7V | 00:00:00 | 03:41:31 | 00:00:00 | |
| DL1ZP-14 | 2026-09-06 01:59:26 | 50.47550 | 9.31232 | 131° | 31km/h | 1272m | -2.1m/s | 8.5°C | 63.5% | 886.8hPa | 2.8V | 00:00:00 | 00:00:00 | 00:00:00 | |
| NBG1-10 | 2026-09-06 01:59:18 | 50.47587 | 9.31165 | 132° | 33km/h | 1288m | -2.2m/s | 8.5°C | 59.9% | 884.9hPa | 2.8V | 00:00:00 | 03:41:21 | 00:00:00 | |
| HARRO8 | 2026-09-06 01:59:12 | 50.47618 | 9.31107 | 130° | 31km/h | 1301m | -2.2m/s | 8.5°C | 59.0% | 883.6hPa | 2.8V | 00:00:00 | 00:00:00 | 00:00:00 | |
| DF7PN | 2026-09-06 01:59:04 | 50.47660 | 9.31029 | 131° | 31km/h | 1320m | -2.3m/s | 8.4°C | 58.3% | 881.7hPa | 2.8V | 00:00:00 | 00:00:00 | 00:00:00 | |
| DB0ND-19 | 2026-09-06 01:58:57 | 50.47697 | 9.30960 | 130° | 31km/h | 1336m | -2.2m/s | 8.3°C | 58.3% | 879.9hPa | 2.8V | 00:00:00 | 00:00:00 | 00:00:00 | |
| DL1ZP-14 | 2026-09-06 01:58:54 | 50.47713 | 9.30931 | 131° | 31km/h | 1343m | -2.3m/s | 8.2°C | 58.4% | 879.0hPa | 2.8V | 00:00:00 | 00:00:00 | 00:00:00 | |
| NBG1-10 | 2026-09-06 01:58:46 | 50.47756 | 9.30853 | 131° | 33km/h | 1361m | -2.3m/s | 8.0°C | 58.9% | 877.2hPa | 2.7V | 00:00:00 | 03:40:49 | 00:00:00 | |
| HARRO8 | 2026-09-06 01:58:41 | 50.47788 | 9.30793 | 131° | 33km/h | 1375m | -2.3m/s | 7.9°C | 58.7% | 875.8hPa | 2.7V | 00:00:00 | 00:00:00 | 00:00:00 | |
| NBG1-10 | 2026-09-06 01:58:39 | 50.47793 | 9.30783 | 130° | 33km/h | 1377m | -2.3m/s | 7.9°C | 58.9% | 875.4hPa | 2.7V | 00:00:00 | 03:40:42 | 00:00:00 | |
| DF7PN | 2026-09-06 01:58:33 | 50.47827 | 9.30725 | 133° | 33km/h | 1391m | -2.3m/s | 7.8°C | 58.8% | 874.0hPa | 2.8V | 00:00:00 | 00:00:00 | 00:00:00 | |
| NBG1-10 | 2026-09-06 01:58:32 | 50.47832 | 9.30715 | 131° | 33km/h | 1394m | -2.2m/s | 7.7°C | 59.1% | 873.7hPa | 2.8V | 00:00:00 | 03:40:35 | 00:00:00 | |
| NBG1-10 | 2026-09-06 01:58:25 | 50.47872 | 9.30646 | 131° | 35km/h | 1411m | -2.5m/s | 7.6°C | 59.6% | 872.0hPa | 2.8V | 00:00:00 | 03:40:28 | 00:00:00 | |
| DL1ZP-14 | 2026-09-06 01:58:23 | 50.47883 | 9.30626 | 131° | 33km/h | 1415m | -2.4m/s | 7.6°C | 59.2% | 871.5hPa | 2.8V | 00:00:00 | 00:00:00 | 00:00:00 | |
| NBG1-10 | 2026-09-06 01:58:18 | 50.47912 | 9.30574 | 131° | 33km/h | 1428m | -2.5m/s | 7.5°C | 58.4% | 870.0hPa | 2.7V | 00:00:00 | 03:40:21 | 00:00:00 | |
| NBG1-10 | 2026-09-06 01:58:11 | 50.47952 | 9.30506 | 134° | 29km/h | 1446m | -2.4m/s | 7.4°C | 55.0% | 868.3hPa | 2.8V | 07:14:00 | 03:40:14 | 00:00:00 | |
| DF7PN | 2026-09-06 01:58:02 | 50.47998 | 9.30429 | 129° | 27km/h | 1469m | -2.3m/s | 7.4°C | 53.0% | 865.9hPa | 2.8V | 00:00:00 | 00:00:00 | 00:00:00 | |
| DB0ND-19 | 2026-09-06 01:57:55 | 50.48032 | 9.30368 | 130° | 27km/h | 1487m | -2.5m/s | 7.3°C | 50.7% | 863.9hPa | 2.8V | 00:00:00 | 00:00:00 | 00:00:00 | |
| DL1ZP-14 | 2026-09-06 01:57:52 | 50.48047 | 9.30341 | 130° | 29km/h | 1495m | -2.6m/s | 7.3°C | 50.2% | 863.1hPa | 2.8V | 00:00:00 | 00:00:00 | 00:00:00 | |
| DB0UT-7 | 2026-09-06 01:57:43 | 50.48092 | 9.30259 | 131° | 31km/h | 1519m | -2.5m/s | 7.5°C | 46.8% | 860.6hPa | 2.7V | 00:00:00 | 03:39:46 | 00:00:00 | |
| HARRO8 | 2026-09-06 01:57:39 | 50.48117 | 9.30214 | 131° | 29km/h | 1532m | -2.7m/s | 7.7°C | 43.0% | 859.1hPa | 2.7V | 00:00:00 | 00:00:00 | 00:00:00 | |
| DB0NH | 2026-09-06 01:57:36 | 50.48127 | 9.30196 | 130° | 31km/h | 1537m | -2.8m/s | 7.6°C | 43.5% | 858.6hPa | 2.7V | 00:00:00 | 03:39:39 | 00:00:00 | |
| DB0UT-7 | 2026-09-06 01:57:33 | 50.48142 | 9.30169 | 132° | 31km/h | 1546m | -2.9m/s | 7.6°C | 44.3% | 857.7hPa | 2.7V | 00:00:00 | 00:00:00 | 00:00:00 | |
| DF7PN | 2026-09-06 01:57:31 | 50.48153 | 9.30151 | 134° | 29km/h | 1551m | -2.8m/s | 7.6°C | 44.0% | 857.2hPa | 2.7V | 00:00:00 | 00:00:00 | 00:00:00 | |
| NBG1-10 | 2026-09-06 01:57:31 | 50.48153 | 9.30151 | 135° | 31km/h | 1552m | -2.8m/s | 7.6°C | 44.2% | 857.2hPa | 2.7V | 00:00:00 | 03:39:34 | 00:00:00 | |
| DB0ND-19 | 2026-09-06 01:57:24 | 50.48190 | 9.30087 | 132° | 29km/h | 1571m | -2.7m/s | 7.5°C | 45.0% | 855.2hPa | 2.7V | 00:00:00 | 00:00:00 | 00:00:00 | |
| DB0UT-7 | 2026-09-06 01:57:23 | 50.48195 | 9.30078 | 133° | 29km/h | 1574m | -2.9m/s | 7.4°C | 45.3% | 854.9hPa | 2.7V | 07:15:00 | 03:39:26 | 00:00:00 | |
| DL1ZP-14 | 2026-09-06 01:57:21 | 50.48206 | 9.30060 | 132° | 29km/h | 1579m | -2.9m/s | 7.4°C | 44.4% | 854.4hPa | 2.8V | 00:00:00 | 00:00:00 | 00:00:00 | |
| DB0NH | 2026-09-06 01:57:21 | 50.48206 | 9.30060 | 133° | 29km/h | 1580m | -2.8m/s | 7.4°C | 44.6% | 854.3hPa | 2.7V | 07:15:00 | 03:39:24 | 00:00:00 | |
| DB0UT-7 | 2026-09-06 01:57:13 | 50.48246 | 9.29989 | 132° | 31km/h | 1602m | -2.6m/s | 7.2°C | 43.9% | 851.9hPa | 2.7V | 00:00:00 | 00:00:00 | 00:00:00 | |
| DB0NH | 2026-09-06 01:57:10 | 50.48260 | 9.29961 | 130° | 31km/h | 1610m | -2.9m/s | 7.2°C | 44.1% | 851.1hPa | 2.7V | 00:00:00 | 03:39:13 | 00:00:00 | |
| NBG1-10 | 2026-09-06 01:57:09 | 50.48265 | 9.29952 | 129° | 35km/h | 1613m | -2.7m/s | 7.1°C | 44.3% | 850.7hPa | 2.7V | 00:00:00 | 03:39:12 | 00:00:00 | |
| HARRO8 | 2026-09-06 01:57:08 | 50.48275 | 9.29932 | 128° | 29km/h | 1618m | -2.8m/s | 7.1°C | 44.3% | 850.3hPa | 2.7V | 00:00:00 | 00:00:00 | 00:00:00 | |
| DF7PN | 2026-09-06 01:57:00 | 50.48311 | 9.29863 | 130° | 33km/h | 1638m | -2.7m/s | 7.0°C | 46.5% | 848.2hPa | 2.7V | 00:00:00 | 00:00:00 | 00:00:00 | |
| DL1ZP-14 | 2026-09-06 01:56:50 | 50.48368 | 9.29754 | 127° | 37km/h | 1667m | -2.7m/s | 7.1°C | 43.1% | 845.3hPa | 2.7V | 00:00:00 | 00:00:00 | 00:00:00 | |
| DB0NH | 2026-09-06 01:56:50 | 50.48368 | 9.29753 | 128° | 38km/h | 1667m | -2.6m/s | 7.0°C | 43.3% | 845.3hPa | 2.7V | 00:00:00 | 03:38:53 | 00:00:00 | |
| NBG1-10 | 2026-09-06 01:56:46 | 50.48390 | 9.29706 | 126° | 40km/h | 1679m | -2.9m/s | 7.2°C | 41.4% | 844.0hPa | 2.7V | 00:00:00 | 03:38:49 | 00:00:00 | |
| DM0DOS-11 | 2026-09-06 01:56:43 | 50.48413 | 9.29657 | 125° | 38km/h | 1690m | -2.8m/s | 7.3°C | 41.4% | 842.9hPa | 2.7V | 07:15:57 | 03:38:45 | 00:00:00 | |
| DM0DOS-11 | 2026-09-06 01:56:43 | 50.48442 | 9.29595 | 127° | 38km/h | 1704m | -2.9m/s | 7.2°C | 41.7% | 841.4hPa | 2.7V | 07:16:02 | 03:38:40 | 00:00:00 | |
| DB0NH | 2026-09-06 01:56:40 | 50.48425 | 9.29632 | 128° | 38km/h | 1695m | -2.8m/s | 7.2°C | 41.4% | 842.2hPa | 2.7V | 00:00:00 | 03:38:43 | 00:00:00 | |
| DM0DOS-11 | 2026-09-06 01:56:38 | 50.48455 | 9.29571 | 127° | 38km/h | 1709m | -2.8m/s | 7.2°C | 41.9% | 840.8hPa | 2.7V | 07:16:04 | 03:38:38 | 00:00:00 | |
| DM0DOS-11 | 2026-09-06 01:56:38 | 50.48473 | 9.29534 | 128° | 40km/h | 1718m | -3m/s | 7.3°C | 41.6% | 840.1hPa | 2.7V | 07:16:07 | 03:38:35 | 00:00:00 | |
| HARRO8 | 2026-09-06 01:56:37 | 50.48449 | 9.29583 | 126° | 38km/h | 1707m | -2.9m/s | 7.2°C | 41.7% | 841.2hPa | 2.7V | 00:00:00 | 00:00:00 | 00:00:00 | |
| DB0NH | 2026-09-06 01:56:30 | 50.48486 | 9.29509 | 129° | 40km/h | 1724m | -2.8m/s | 7.4°C | 40.4% | 839.4hPa | 2.7V | 00:00:00 | 03:38:33 | 00:00:00 | |
| DF7PN | 2026-09-06 01:56:29 | 50.48492 | 9.29497 | 127° | 40km/h | 1726m | -3.0m/s | 7.5°C | 39.3% | 839.1hPa | 2.7V | 00:00:00 | 00:00:00 | 00:00:00 | |
| NBG1-10 | 2026-09-06 01:56:24 | 50.48523 | 9.29432 | 127° | 42km/h | 1741m | -2.9m/s | 7.9°C | 34.2% | 837.5hPa | 2.7V | 00:00:00 | 03:38:27 | 00:00:00 | |
| DB0ND-19 | 2026-09-06 01:56:22 | 50.48535 | 9.29406 | 125° | 40km/h | 1747m | -3.0m/s | 8.0°C | 34.3% | 837.1hPa | 2.7V | 00:00:00 | 00:00:00 | 00:00:00 | |
| DB0NH | 2026-09-06 01:56:20 | 50.48547 | 9.29379 | 126° | 42km/h | 1753m | -3.0m/s | 8.0°C | 33.4% | 836.4hPa | 2.7V | 00:00:00 | 03:38:23 | 00:00:00 | |
| DL1ZP-14 | 2026-09-06 01:56:19 | 50.48553 | 9.29366 | 125° | 40km/h | 1755m | -2.8m/s | 8.1°C | 32.7% | 836.1hPa | 2.7V | 00:00:00 | 00:00:00 | 00:00:00 | |
| DB0UT-7 | 2026-09-06 01:56:19 | 50.48553 | 9.29366 | 126° | 42km/h | 1755m | -2.7m/s | 8.0°C | 32.8% | 836.1hPa | 2.7V | 00:00:00 | 03:38:22 | 00:00:00 | |
| DB0NH | 2026-09-06 01:56:10 | 50.48609 | 9.29248 | 127° | 42km/h | 1782m | -2.9m/s | 8.1°C | 30.9% | 833.4hPa | 2.7V | 00:00:00 | 03:38:13 | 00:00:00 | |
| DB0UT-7 | 2026-09-06 01:56:09 | 50.48615 | 9.29234 | 126° | 42km/h | 1785m | -3.0m/s | 8.2°C | 30.3% | 833.1hPa | 2.7V | 00:00:00 | 00:00:00 | 00:00:00 | |
| DM0DOS-11 | 2026-09-06 01:56:08 | 50.48640 | 9.29180 | 125° | 42km/h | 1797m | -3m/s | 8.3°C | 28.5% | 831.9hPa | 2.7V | 07:16:34 | 03:38:08 | 00:00:00 | |
| DM0DOS-11 | 2026-09-06 01:56:08 | 50.48652 | 9.29153 | 124° | 42km/h | 1803m | -3.2m/s | 8.3°C | 27% | 831.3hPa | 2.7V | 07:16:36 | 03:38:06 | 00:00:00 | |
| HARRO8 | 2026-09-06 01:56:06 | 50.48640 | 9.29180 | 125° | 40km/h | 1797m | -3.0m/s | 8.3°C | 28.5% | 831.9hPa | 2.7V | 00:00:00 | 00:00:00 | 00:00:00 | |
| DM0DOS-11 | 2026-09-06 01:56:02 | 50.48664 | 9.29126 | 125° | 42km/h | 1809m | -3m/s | 8.4°C | 25.6% | 830.7hPa | 2.7V | 07:16:38 | 03:38:04 | 00:00:00 | |
| DM0DOS-11 | 2026-09-06 01:56:02 | 50.48677 | 9.29099 | 123° | 42km/h | 1816m | -3m/s | 8.6°C | 23.5% | 830.1hPa | 2.7V | 07:16:40 | 03:38:02 | 00:00:00 | |
| DM0DOS-11 | 2026-09-06 01:56:02 | 50.48689 | 9.29071 | 124° | 42km/h | 1822m | -3.1m/s | 8.7°C | 25.7% | 829.4hPa | 2.7V | 07:16:42 | 03:38:00 | 00:00:00 | |
| DF7PN | 2026-09-06 01:55:58 | 50.48682 | 9.29085 | 124° | 40km/h | 1818m | -3.0m/s | 8.6°C | 24.5% | 829.8hPa | 2.7V | 00:00:00 | 00:00:00 | 00:00:00 | |
| DM0DOS-11 | 2026-09-06 01:55:56 | 50.48700 | 9.29044 | 124° | 42km/h | 1828m | -2.8m/s | 8.7°C | 27.4% | 828.8hPa | 2.7V | 07:16:44 | 03:37:58 | 00:00:00 | |
| DM0DOS-11 | 2026-09-06 01:55:56 | 50.48724 | 9.28989 | 124° | 42km/h | 1840m | -3m/s | 8.7°C | 27.4% | 827.6hPa | 2.7V | 07:16:48 | 03:37:54 | 00:00:00 | |
| DM0DOS-11 | 2026-09-06 01:55:51 | 50.48736 | 9.28961 | 123° | 42km/h | 1846m | -3.1m/s | 8.7°C | 27.7% | 826.9hPa | 2.7V | 07:16:50 | 03:37:52 | 00:00:00 | |
| DM0DOS-11 | 2026-09-06 01:55:51 | 50.48748 | 9.28934 | 124° | 42km/h | 1852m | -3.1m/s | 8.6°C | 28.1% | 826.4hPa | 2.7V | 07:16:52 | 03:37:50 | 00:00:00 | |
| DB0ND-19 | 2026-09-06 01:55:51 | 50.48724 | 9.28989 | 124° | 40km/h | 1839m | -3.0m/s | 8.6°C | 27.4% | 827.6hPa | 2.7V | 00:00:00 | 00:00:00 | 00:00:00 | |
| DL1ZP-14 | 2026-09-06 01:55:48 | 50.48742 | 9.28947 | 124° | 40km/h | 1849m | -3.0m/s | 8.6°C | 27.8% | 826.8hPa | 2.7V | 00:00:00 | 00:00:00 | 00:00:00 | |
| DM0DOS-11 | 2026-09-06 01:55:46 | 50.48760 | 9.28905 | 123° | 42km/h | 1858m | -3.2m/s | 8.6°C | 28.1% | 825.8hPa | 2.7V | 07:16:54 | 03:37:48 | 00:00:00 | |
| DM0DOS-11 | 2026-09-06 01:55:46 | 50.48784 | 9.28849 | 123° | 42km/h | 1871m | -3.1m/s | 8.6°C | 27.4% | 824.5hPa | 2.7V | 07:16:58 | 03:37:44 | 00:00:00 | |
| BIOWL1-15 | 2026-09-06 01:55:38 | 50.48802 | 9.28806 | 124° | 42km/h | 1880m | -3.3m/s | 8.5°C | 31.9% | 823.5hPa | 2.7V | 07:18:48 | 03:37:41 | 00:00:00 | |
| BIOWL1-15 | 2026-09-06 01:55:37 | 50.48808 | 9.28792 | 125° | 44km/h | 1883m | -3.2m/s | 8.5°C | 31.9% | 823.3hPa | 2.7V | 07:18:48 | 03:37:40 | 00:00:00 | |
| BIOWL1-15 | 2026-09-06 01:55:29 | 50.48864 | 9.28664 | 124° | 42km/h | 1912m | -3.3m/s | 8.4°C | 32.9% | 820.4hPa | 2.7V | 07:18:48 | 03:37:31 | 00:00:00 | |
| BIOWL1-15 | 2026-09-06 01:55:29 | 50.48870 | 9.28649 | 124° | 44km/h | 1915m | -3.1m/s | 8.4°C | 32.8% | 820.2hPa | 2.7V | 07:18:48 | 03:37:30 | 00:00:00 | |
| BIOWL1-15 | 2026-09-06 01:55:24 | 50.48888 | 9.28606 | 125° | 44km/h | 1925m | -3.2m/s | 8.4°C | 33% | 819hPa | 2.7V | 07:18:48 | 03:37:27 | 00:00:00 | |
| DM0DOS-11 | 2026-09-06 01:55:23 | 50.48926 | 9.28520 | 124° | 46km/h | 1944m | -3.1m/s | 8.2°C | 29.3% | 817.3hPa | 2.7V | 07:17:21 | 03:37:21 | 00:00:00 | |
| BIOWL1-15 | 2026-09-06 01:55:23 | 50.48894 | 9.28592 | 123° | 44km/h | 1928m | -3.3m/s | 8.3°C | 32.9% | 818.8hPa | 2.7V | 07:18:48 | 03:37:26 | 00:00:00 | |
| BIOWL1-15 | 2026-09-06 01:55:21 | 50.48913 | 9.28549 | 124° | 44km/h | 1938m | -3.4m/s | 8.3°C | 33.1% | 817.9hPa | 2.7V | 07:18:48 | 03:37:23 | 00:00:00 | |
| DB0ND-19 | 2026-09-06 01:55:20 | 50.48913 | 9.28549 | 123° | 44km/h | 1938m | -3.4m/s | 8.3°C | 29.2% | 817.9hPa | 2.7V | 00:00:00 | 00:00:00 | 00:00:00 | |
| DB0NH | 2026-09-06 01:55:20 | 50.48913 | 9.28549 | 124° | 46km/h | 1938m | -3.3m/s | 8.2°C | 29.3% | 817.8hPa | 2.7V | 00:00:00 | 03:37:23 | 00:00:00 | |
| DB0UT-7 | 2026-09-06 01:55:19 | 50.48919 | 9.28534 | 125° | 46km/h | 1941m | -3.1m/s | 8.2°C | 29.3% | 817.6hPa | 2.7V | 07:17:00 | 03:37:22 | 00:00:00 | |
| DM0DOS-11 | 2026-09-06 01:55:17 | 50.48939 | 9.28490 | 124° | 46km/h | 1951m | -3.2m/s | 8.2°C | 29.2% | 816.7hPa | 2.7V | 07:17:23 | 03:37:19 | 00:00:00 | |
| DM0DOS-11 | 2026-09-06 01:55:17 | 50.48952 | 9.28460 | 124° | 46km/h | 1957m | -3.2m/s | 8.2°C | 28.9% | 815.9hPa | 2.7V | 07:17:25 | 03:37:17 | 00:00:00 | |
| DM0DOS-11 | 2026-09-06 01:55:17 | 50.48965 | 9.28431 | 125° | 46km/h | 1964m | -3.2m/s | 8.1°C | 28.7% | 815.3hPa | 2.7V | 07:17:27 | 03:37:15 | 00:00:00 | |
| BIOWL1-15 | 2026-09-06 01:55:16 | 50.48939 | 9.28490 | 125° | 46km/h | 1951m | -3.3m/s | 8.2°C | 33.1% | 816.7hPa | 2.7V | 07:18:48 | 03:37:19 | 00:00:00 | |
| BIOWL1-15 | 2026-09-06 01:55:14 | 50.48952 | 9.28460 | 125° | 46km/h | 1957m | -3.3m/s | 8.2°C | 32.7% | 816hPa | 2.7V | 07:18:48 | 03:37:17 | 00:00:00 | |
| DM0DOS-11 | 2026-09-06 01:55:11 | 50.48979 | 9.28401 | 123° | 46km/h | 1970m | -3.3m/s | 8.1°C | 28.9% | 814.7hPa | 2.7V | 07:17:29 | 03:37:13 | 00:00:00 | |
| DM0DOS-11 | 2026-09-06 01:55:11 | 50.48992 | 9.28371 | 124° | 46km/h | 1976m | -3.3m/s | 8.1°C | 29.1% | 814hPa | 2.7V | 07:17:31 | 03:37:11 | 00:00:00 | |
| DM0DOS-11 | 2026-09-06 01:55:11 | 50.49005 | 9.28342 | 124° | 46km/h | 1983m | -3.4m/s | 8°C | 29.2% | 813.3hPa | 2.7V | 07:17:33 | 03:37:09 | 00:00:00 | |
| BIOWL1-15 | 2026-09-06 01:55:11 | 50.48972 | 9.28416 | 125° | 46km/h | 1967m | -3.3m/s | 8.1°C | 32.5% | 815hPa | 2.7V | 07:18:48 | 03:37:14 | 00:00:00 | |
| DB0UT-7 | 2026-09-06 01:55:07 | 50.48998 | 9.28356 | 124° | 46km/h | 1980m | -3.2m/s | 8.0°C | 29.1% | 813.7hPa | 2.7V | 00:00:00 | 00:00:00 | 00:00:00 | |
| DM0DOS-11 | 2026-09-06 01:55:05 | 50.49017 | 9.28312 | 123° | 46km/h | 1990m | -3.2m/s | 8°C | 29.4% | 812.7hPa | 2.7V | 07:17:35 | 03:37:07 | 00:00:00 | |
| DM0DOS-11 | 2026-09-06 01:55:05 | 50.49030 | 9.28283 | 124° | 46km/h | 1996m | -3.2m/s | 7.9°C | 29.7% | 812.1hPa | 2.7V | 07:17:37 | 03:37:05 | 00:00:00 | |
| DM0DOS-11 | 2026-09-06 01:55:05 | 50.49043 | 9.28253 | 123° | 44km/h | 2003m | -3.3m/s | 7.9°C | 29.8% | 811.4hPa | 2.7V | 07:17:39 | 03:37:03 | 00:00:00 | |
| HARRO8 | 2026-09-06 01:55:03 | 50.49024 | 9.28297 | 124° | 44km/h | 1993m | -3.2m/s | 8.0°C | 29.5% | 812.4hPa | 2.7V | 00:00:00 | 00:00:00 | 00:00:00 | |
| DM0DOS-11 | 2026-09-06 01:55:00 | 50.49075 | 9.28180 | 123° | 46km/h | 2018m | -3.2m/s | 7.9°C | 29.6% | 809.8hPa | 2.7V | 07:17:44 | 03:36:58 | 00:00:00 | |
| DB0UT-7 | 2026-09-06 01:54:57 | 50.49062 | 9.28210 | 124° | 44km/h | 2012m | -3.0m/s | 7.9°C | 29.6% | 810.5hPa | 2.7V | 00:00:00 | 03:37:00 | 00:00:00 | |
| NBG1-10 | 2026-09-06 01:54:56 | 50.49068 | 9.28195 | 125° | 44km/h | 2015m | -3.2m/s | 7.9°C | 29.6% | 810.1hPa | 2.7V | 00:00:00 | 03:36:59 | 00:00:00 | |
| DM0DOS-11 | 2026-09-06 01:54:55 | 50.49107 | 9.28107 | 124° | 44km/h | 2034m | -3.1m/s | 7.9°C | 29.2% | 808.3hPa | 2.7V | 07:17:49 | 03:36:53 | 00:00:00 | |
| DM0DOS-11 | 2026-09-06 01:54:50 | 50.49139 | 9.28034 | 123° | 46km/h | 2050m | -3.2m/s | 7.9°C | 28% | 806.7hPa | 2.7V | 07:17:54 | 03:36:48 | 00:00:00 | |
| DB0ND-19 | 2026-09-06 01:54:49 | 50.49120 | 9.28078 | 124° | 44km/h | 2040m | -3.1m/s | 7.9°C | 28.2% | 807.8hPa | 2.7V | 00:00:00 | 00:00:00 | 00:00:00 | |
| DL1ZP-14 | 2026-09-06 01:54:46 | 50.49132 | 9.28049 | 125° | 44km/h | 2046m | -3.2m/s | 7.9°C | 27.9% | 807.1hPa | 2.7V | 00:00:00 | 00:00:00 | 00:00:00 | |
| DM0DOS-11 | 2026-09-06 01:54:45 | 50.49170 | 9.27962 | 123° | 44km/h | 2066m | -3.3m/s | 7.8°C | 28.1% | 805.4hPa | 2.7V | 07:17:59 | 03:36:43 | 00:00:00 | |
| BIOWL1-15 | 2026-09-06 01:54:37 | 50.49211 | 9.27861 | 123° | 44km/h | 2088m | -3m/s | 7.6°C | 32.2% | 803hPa | 2.7V | 07:18:48 | 03:36:36 | 00:00:00 | |
| DB0NH | 2026-09-06 01:54:36 | 50.49194 | 9.27904 | 123° | 42km/h | 2078m | -3.0m/s | 7.6°C | 28.3% | 804.0hPa | 2.7V | 00:00:00 | 03:36:39 | 00:00:00 | |
| DM0DOS-11 | 2026-09-06 01:54:30 | 50.49229 | 9.27818 | 123° | 44km/h | 2097m | -3.1m/s | 7.5°C | 28.5% | 802.1hPa | 2.7V | 07:18:09 | 03:36:33 | 00:00:00 | |
| DM0DOS-11 | 2026-09-06 01:54:30 | 50.49259 | 9.27747 | 122° | 42km/h | 2112m | -3.1m/s | 7.4°C | 28.9% | 800.7hPa | 2.7V | 07:18:14 | 03:36:28 | 00:00:00 | |
| NBG1-10 | 2026-09-06 01:54:25 | 50.49265 | 9.27732 | 125° | 42km/h | 2115m | -3.0m/s | 7.3°C | 29.0% | 800.2hPa | 2.7V | 00:00:00 | 03:36:27 | 00:00:00 | |
| DM0DOS-11 | 2026-09-06 01:54:21 | 50.49289 | 9.27677 | 124° | 42km/h | 2128m | -3.1m/s | 7.2°C | 30.2% | 799.2hPa | 2.7V | 07:18:19 | 03:36:23 | 00:00:00 | |
| DM0DOS-11 | 2026-09-06 01:54:21 | 50.49319 | 9.27608 | 123° | 42km/h | 2143m | -3m/s | 7.2°C | 31.1% | 797.8hPa | 2.7V | 07:18:24 | 03:36:18 | 00:00:00 | |
| BIOWL1-15 | 2026-09-06 01:54:20 | 50.49289 | 9.27677 | 125° | 42km/h | 2128m | -3.1m/s | 7.2°C | 34.3% | 799.2hPa | 2.7V | 07:18:48 | 03:36:23 | 00:00:00 | |
| DB0ND-19 | 2026-09-06 01:54:18 | 50.49307 | 9.27636 | 125° | 42km/h | 2137m | -3.0m/s | 7.2°C | 30.8% | 798.3hPa | 2.7V | 00:00:00 | 00:00:00 | 00:00:00 | |
| DB0NH | 2026-09-06 01:54:16 | 50.49313 | 9.27622 | 125° | 42km/h | 2140m | -3.0m/s | 7.1°C | 31.0% | 798.0hPa | 2.7V | 07:18:00 | 03:36:19 | 00:00:00 | |
| DM0DOS-11 | 2026-09-06 01:54:15 | 50.49349 | 9.27538 | 123° | 42km/h | 2158m | -3m/s | 7.1°C | 31.2% | 796.1hPa | 2.7V | 07:18:29 | 03:36:13 | 00:00:00 | |
| BIOWL1-15 | 2026-09-06 01:54:15 | 50.49355 | 9.27524 | 123° | 42km/h | 2161m | -3m/s | 7°C | 35.4% | 795.9hPa | 2.7V | 07:18:48 | 03:36:12 | 00:00:00 | |
| DM0DOS-11 | 2026-09-06 01:54:10 | 50.49379 | 9.27468 | 124° | 42km/h | 2173m | -3m/s | 6.9°C | 31.4% | 794.8hPa | 2.7V | 07:18:34 | 03:36:08 | 00:00:00 | |
| DB0UT-7 | 2026-09-06 01:54:08 | 50.49361 | 9.27510 | 125° | 42km/h | 2164m | -3.0m/s | 7.0°C | 31.2% | 795.6hPa | 2.7V | 00:00:00 | 00:00:00 | 00:00:00 | |
| DM0DOS-11 | 2026-09-06 01:54:05 | 50.49410 | 9.27398 | 124° | 42km/h | 2188m | -3.1m/s | 6.8°C | 31.4% | 793.3hPa | 2.7V | 07:18:39 | 03:36:03 | 00:00:00 | |
| NBG1-10 | 2026-09-06 01:54:03 | 50.49392 | 9.27440 | 124° | 42km/h | 2179m | -2.9m/s | 6.8°C | 31.3% | 794.1hPa | 2.7V | 00:00:00 | 03:36:06 | 00:00:00 | |
| HARRO8 | 2026-09-06 01:54:01 | 50.49404 | 9.27412 | 125° | 42km/h | 2185m | -3.0m/s | 6.8°C | 31.3% | 793.7hPa | 2.7V | 00:00:00 | 00:00:00 | 00:00:00 | |
| DM0DOS-11 | 2026-09-06 01:54:00 | 50.49442 | 9.27330 | 126° | 44km/h | 2203m | -3m/s | 6.7°C | 28.5% | 791.8hPa | 2.7V | 07:18:44 | 03:35:58 | 00:00:00 | |
| BIOWL1-15 | 2026-09-06 01:53:59 | 50.49416 | 9.27385 | 126° | 42km/h | 2191m | -3m/s | 6.8°C | 35.2% | 793hPa | 2.7V | 07:18:48 | 03:36:02 | 00:00:00 | |
| DF7PN | 2026-09-06 01:53:54 | 50.49455 | 9.27302 | 126° | 42km/h | 2209m | -2.9m/s | 6.7°C | 27.6% | 791.3hPa | 2.7V | 00:00:00 | 00:00:00 | 00:00:00 | |
| DM0DOS-11 | 2026-09-06 01:53:51 | 50.49474 | 9.27261 | 125° | 42km/h | 2217m | -3m/s | 6.6°C | 26.9% | 790.4hPa | 2.7V | 07:18:49 | 03:35:53 | 00:00:00 | |
| BIOWL1-15 | 2026-09-06 01:53:51 | 50.49480 | 9.27247 | 127° | 42km/h | 2220m | -3.1m/s | 6.6°C | 29.8% | 790.1hPa | 2.6V | 07:20:30 | 03:35:52 | 00:00:00 | |
| BIOWL9-15 | 2026-09-06 01:53:48 | 50.49487 | 9.27234 | 125° | 42km/h | 2223m | -3.0m/s | 6.6°C | 0% | 789.9hPa | 2.7V | 00:00:00 | 00:00:00 | 00:00:00 | |
| DB0ND-19 | 2026-09-06 01:53:47 | 50.49499 | 9.27206 | 126° | 42km/h | 2229m | -2.8m/s | 6.6°C | 25.5% | 789.4hPa | 2.7V | 00:00:00 | 00:00:00 | 00:00:00 | |
| DM0DOS-11 | 2026-09-06 01:53:45 | 50.49506 | 9.27192 | 125° | 44km/h | 2232m | -2.9m/s | 6.6°C | 25.6% | 788.9hPa | 2.7V | 07:18:54 | 03:35:48 | 00:00:00 | |
| DM0DOS-11 | 2026-09-06 01:53:45 | 50.49537 | 9.27124 | 125° | 42km/h | 2246m | -2.9m/s | 6.5°C | 25.4% | 787.6hPa | 2.7V | 07:18:59 | 03:35:43 | 00:00:00 | |
| DL1ZP-14 | 2026-09-06 01:53:44 | 50.49512 | 9.27178 | 125° | 42km/h | 2235m | -2.9m/s | 6.6°C | 25.3% | 788.8hPa | 2.7V | 00:00:00 | 00:00:00 | 00:00:00 | |
| NBG1-10 | 2026-09-06 01:53:41 | 50.49531 | 9.27137 | 126° | 44km/h | 2244m | -2.7m/s | 6.4°C | 25.4% | 787.8hPa | 2.7V | 00:00:00 | 03:35:44 | 00:00:00 | |
| DM0DOS-11 | 2026-09-06 01:53:40 | 50.49569 | 9.27055 | 125° | 44km/h | 2261m | -2.9m/s | 6.3°C | 25.5% | 786.2hPa | 2.7V | 07:19:04 | 03:35:38 | 00:00:00 | |
| BIOWL1-15 | 2026-09-06 01:53:40 | 50.49550 | 9.27096 | 125° | 44km/h | 2252m | -3m/s | 6.4°C | 28.9% | 787.1hPa | 2.7V | 07:20:30 | 03:35:41 | 00:00:00 | |
| DB0NH | 2026-09-06 01:53:36 | 50.49563 | 9.27069 | 128° | 44km/h | 2258m | -2.8m/s | 6.3°C | 25.6% | 786.4hPa | 2.7V | 00:00:00 | 03:35:39 | 00:00:00 | |
| DM0DOS-11 | 2026-09-06 01:53:35 | 50.49602 | 9.26985 | 125° | 44km/h | 2276m | -2.9m/s | 6.2°C | 25.8% | 784.9hPa | 2.7V | 07:19:09 | 03:35:33 | 00:00:00 | |
| DM0DOS-11 | 2026-09-06 01:53:30 | 50.49633 | 9.26914 | 124° | 44km/h | 2290m | -2.9m/s | 6.1°C | 25.8% | 783.5hPa | 2.7V | 07:19:14 | 03:35:28 | 00:00:00 | |
| BIOWL1-15 | 2026-09-06 01:53:27 | 50.49621 | 9.26943 | 126° | 44km/h | 2284m | -2.9m/s | 6.1°C | 29.1% | 784hPa | 2.7V | 07:20:30 | 03:35:30 | 00:00:00 | |
| DM0DOS-11 | 2026-09-06 01:53:25 | 50.49664 | 9.26842 | 123° | 46km/h | 2305m | -2.8m/s | 6°C | 25.8% | 782hPa | 2.7V | 07:19:19 | 03:35:23 | 00:00:00 | |
| DF7PN | 2026-09-06 01:53:23 | 50.49652 | 9.26871 | 124° | 42km/h | 2299m | -2.9m/s | 6.0°C | 25.8% | 782.6hPa | 2.7V | 00:00:00 | 00:00:00 | 00:00:00 | |
| DB0UT-7 | 2026-09-06 01:53:21 | 50.49658 | 9.26857 | 125° | 46km/h | 2302m | -2.7m/s | 6.0°C | 25.8% | 782.4hPa | 2.7V | 00:00:00 | 00:00:00 | 00:00:00 | |
| DM0DOS-11 | 2026-09-06 01:53:20 | 50.49695 | 9.26767 | 122° | 46km/h | 2318m | -2.6m/s | 5.9°C | 25.8% | 780.8hPa | 2.7V | 07:19:24 | 03:35:18 | 00:00:00 | |
| BIOWL1-15 | 2026-09-06 01:53:16 | 50.49689 | 9.26782 | 121° | 44km/h | 2316m | -2.7m/s | 5.9°C | 29.1% | 781.1hPa | 2.7V | 07:20:30 | 03:35:19 | 00:00:00 | |
| DB0ND-19 | 2026-09-06 01:53:16 | 50.49695 | 9.26767 | 122° | 44km/h | 2318m | -2.7m/s | 5.9°C | 25.6% | 780.9hPa | 2.6V | 00:00:00 | 00:00:00 | 00:00:00 | |
| DL1ZP-14 | 2026-09-06 01:53:13 | 50.49707 | 9.26736 | 120° | 44km/h | 2324m | -2.7m/s | 5.9°C | 25.4% | 780.3hPa | 2.6V | 00:00:00 | 00:00:00 | 00:00:00 | |
| DM0DOS-11 | 2026-09-06 01:53:11 | 50.49725 | 9.26691 | 120° | 44km/h | 2332m | -2.9m/s | 5.9°C | 25.4% | 779.4hPa | 2.7V | 07:19:29 | 03:35:13 | 00:00:00 | |
| BIOWL1-15 | 2026-09-06 01:53:06 | 50.49749 | 9.26630 | 122° | 46km/h | 2343m | -2.6m/s | 5.9°C | 28.7% | 778.4hPa | 2.7V | 07:20:30 | 03:35:09 | 00:00:00 | |
| DM0DOS-11 | 2026-09-06 01:53:05 | 50.49755 | 9.26614 | 121° | 46km/h | 2346m | -2.7m/s | 5.8°C | 25.3% | 778.2hPa | 2.7V | 07:19:34 | 03:35:08 | 00:00:00 | |
| DM0DOS-11 | 2026-09-06 01:53:05 | 50.49785 | 9.26537 | 121° | 46km/h | 2359m | -2.6m/s | 5.8°C | 27.8% | 776.9hPa | 2.7V | 07:19:39 | 03:35:03 | 00:00:00 | |
| DM0DOS-11 | 2026-09-06 01:53:00 | 50.49815 | 9.26458 | 119° | 46km/h | 2373m | -2.8m/s | 5.8°C | 27.7% | 775.7hPa | 2.6V | 07:19:44 | 03:34:58 | 00:00:00 | |
| HARRO8 | 2026-09-06 01:52:59 | 50.49791 | 9.26521 | 120° | 46km/h | 2362m | -2.6m/s | 5.8°C | 28.0% | 776.7hPa | 2.7V | 00:00:00 | 00:00:00 | 00:00:00 | |
| NBG1-10 | 2026-09-06 01:52:57 | 50.49803 | 9.26489 | 121° | 46km/h | 2367m | -2.7m/s | 5.7°C | 28.7% | 776.0hPa | 2.7V | 00:00:00 | 03:35:00 | 00:00:00 | |
| DB0UT-7 | 2026-09-06 01:52:56 | 50.49809 | 9.26473 | 121° | 46km/h | 2370m | -2.6m/s | 5.7°C | 28.2% | 775.9hPa | 2.7V | 00:00:00 | 03:34:59 | 00:00:00 | |
| DM0DOS-11 | 2026-09-06 01:52:55 | 50.49845 | 9.26379 | 121° | 47km/h | 2386m | -2.6m/s | 5.7°C | 28.5% | 774.3hPa | 2.7V | 07:19:49 | 03:34:53 | 00:00:00 | |
| BIOWL1-15 | 2026-09-06 01:52:53 | 50.49839 | 9.26395 | 121° | 46km/h | 2384m | -2.7m/s | 5.7°C | 31.7% | 774.5hPa | 2.7V | 07:20:30 | 03:34:54 | 00:00:00 | |
| DF7PN | 2026-09-06 01:52:52 | 50.49839 | 9.26395 | 121° | 44km/h | 2384m | -2.7m/s | 5.7°C | 27.8% | 774.5hPa | 2.7V | 00:00:00 | 00:00:00 | 00:00:00 | |
| DM0DOS-11 | 2026-09-06 01:52:50 | 50.49875 | 9.26300 | 120° | 46km/h | 2400m | -2.8m/s | 5.6°C | 29.3% | 773hPa | 2.7V | 07:19:54 | 03:34:48 | 00:00:00 | |
| DB0ND-19 | 2026-09-06 01:52:45 | 50.49881 | 9.26284 | 120° | 46km/h | 2402m | -2.7m/s | 5.5°C | 29.1% | 772.8hPa | 2.7V | 00:00:00 | 00:00:00 | 00:00:00 | |
| DM0DOS-11 | 2026-09-06 01:52:45 | 50.49905 | 9.26221 | 119° | 47km/h | 2413m | -2.6m/s | 5.5°C | 29.6% | 771.8hPa | 2.6V | 07:19:59 | 03:34:43 | 00:00:00 | |
| DL1ZP-14 | 2026-09-06 01:52:42 | 50.49899 | 9.26237 | 120° | 46km/h | 2411m | -2.7m/s | 5.5°C | 29.4% | 772.0hPa | 2.7V | 00:00:00 | 00:00:00 | 00:00:00 | |
| DM0DOS-11 | 2026-09-06 01:52:40 | 50.49936 | 9.26141 | 121° | 47km/h | 2427m | -2.7m/s | 5.5°C | 28.2% | 770.7hPa | 2.7V | 07:20:04 | 03:34:38 | 00:00:00 | |
| BIOWL1-15 | 2026-09-06 01:52:39 | 50.49911 | 9.26205 | 121° | 46km/h | 2416m | -2.5m/s | 5.5°C | 33.2% | 771.6hPa | 2.6V | 07:20:30 | 03:34:42 | 00:00:00 | |
| DB0NH | 2026-09-06 01:52:36 | 50.49929 | 9.26157 | 122° | 47km/h | 2424m | -2.6m/s | 5.4°C | 28.5% | 770.8hPa | 2.7V | 00:00:00 | 03:34:39 | 00:00:00 | |
| NBG1-10 | 2026-09-06 01:52:35 | 50.49935 | 9.26141 | 122° | 47km/h | 2427m | -2.6m/s | 5.5°C | 28.2% | 770.7hPa | 2.7V | 07:20:00 | 03:34:38 | 00:00:00 | |
| DM0DOS-11 | 2026-09-06 01:52:31 | 50.49966 | 9.26061 | 119° | 47km/h | 2439m | -2.5m/s | 5.5°C | 26.9% | 769.4hPa | 2.7V | 07:20:09 | 03:34:33 | 00:00:00 | |
| BIOWL1-15 | 2026-09-06 01:52:28 | 50.49978 | 9.26028 | 119° | 47km/h | 2444m | -2.4m/s | 5.4°C | 30.7% | 768.9hPa | 2.6V | 07:20:30 | 03:34:31 | 00:00:00 | |
| DM0DOS-11 | 2026-09-06 01:52:25 | 50.49996 | 9.25979 | 119° | 47km/h | 2452m | -2.5m/s | 5.4°C | 26.2% | 768.1hPa | 2.7V | 07:20:14 | 03:34:28 | 00:00:00 | |
| DM0DOS-11 | 2026-09-06 01:52:25 | 50.50025 | 9.25898 | 119° | 47km/h | 2464m | -2.6m/s | 5.3°C | 26.1% | 767hPa | 2.7V | 07:20:19 | 03:34:23 | 00:00:00 | |
| DF7PN | 2026-09-06 01:52:21 | 50.50025 | 9.25898 | 119° | 46km/h | 2464m | -2.6m/s | 5.3°C | 25.9% | 767.0hPa | 2.7V | 00:00:00 | 00:00:00 | 00:00:00 | |
| DM0DOS-11 | 2026-09-06 01:52:20 | 50.50054 | 9.25816 | 118° | 46km/h | 2477m | -2.5m/s | 5.3°C | 26.2% | 765.8hPa | 2.7V | 07:20:24 | 03:34:18 | 00:00:00 | |
| BIOWL1-15 | 2026-09-06 01:52:18 | 50.50037 | 9.25865 | 119° | 47km/h | 2469m | -2.6m/s | 5.3°C | 29.6% | 766.6hPa | 2.7V | 07:20:30 | 03:34:21 | 00:00:00 | |
| DB0NH | 2026-09-06 01:52:16 | 50.50048 | 9.25833 | 120° | 47km/h | 2474m | -2.4m/s | 5.2°C | 26.1% | 766.1hPa | 2.7V | 00:00:00 | 03:34:19 | 00:00:00 | |
| DM0DOS-11 | 2026-09-06 01:52:15 | 50.50083 | 9.25735 | 118° | 47km/h | 2489m | -2.7m/s | 5.2°C | 26.6% | 764.6hPa | 2.7V | 07:20:29 | 03:34:13 | 00:00:00 | |
| DB0ND-19 | 2026-09-06 01:52:14 | 50.50066 | 9.25784 | 119° | 46km/h | 2481m | -2.5m/s | 5.2°C | 26.3% | 765.3hPa | 2.6V | 00:00:00 | 00:00:00 | 00:00:00 | |
| NBG1-10 | 2026-09-06 01:52:13 | 50.50066 | 9.25784 | 120° | 47km/h | 2482m | -2.4m/s | 5.2°C | 26.5% | 765.3hPa | 2.6V | 00:00:00 | 03:34:16 | 00:00:00 | |
| DL1ZP-14 | 2026-09-06 01:52:11 | 50.50083 | 9.25735 | 118° | 46km/h | 2489m | -2.7m/s | 5.2°C | 26.4% | 764.6hPa | 2.7V | 00:00:00 | 00:00:00 | 00:00:00 | |
| DM0DOS-11 | 2026-09-06 01:52:10 | 50.50110 | 9.25652 | 116° | 47km/h | 2502m | -2.7m/s | 5.1°C | 26.7% | 763.4hPa | 2.7V | 07:20:34 | 03:34:08 | 00:00:00 | |
| BIOWL1-15 | 2026-09-06 01:52:07 | 50.50100 | 9.25686 | 118° | 47km/h | 2497m | -2.6m/s | 5.1°C | 30.4% | 763.9hPa | 2.7V | 07:21:21 | 03:34:10 | 00:00:00 | |
| DM0DOS-11 | 2026-09-06 01:52:05 | 50.50137 | 9.25568 | 114° | 47km/h | 2515m | -2.5m/s | 5°C | 27.2% | 762.1hPa | 2.7V | 07:20:39 | 03:34:03 | 00:00:00 | |
| DM0DOS-11 | 2026-09-06 01:52:00 | 50.50162 | 9.25484 | 116° | 47km/h | 2528m | -2.5m/s | 4.9°C | 27.8% | 761.1hPa | 2.6V | 07:20:44 | 03:33:58 | 00:00:00 | |
| BIOWL1-15 | 2026-09-06 01:51:56 | 50.50157 | 9.25500 | 116° | 46km/h | 2526m | -2.7m/s | 4.9°C | 31.5% | 761.3hPa | 2.7V | 07:21:21 | 03:33:59 | 00:00:00 | |
| DB0UT-7 | 2026-09-06 01:51:56 | 50.50157 | 9.25500 | 116° | 47km/h | 2526m | -2.6m/s | 4.9°C | 27.7% | 761.2hPa | 2.6V | 00:00:00 | 00:00:00 | 00:00:00 | |
| NBG1-10 | 2026-09-06 01:51:51 | 50.50183 | 9.25417 | 116° | 47km/h | 2538m | -2.6m/s | 4.8°C | 27.9% | 760.0hPa | 2.6V | 00:00:00 | 03:33:54 | 00:00:00 | |
| DM0DOS-11 | 2026-09-06 01:51:50 | 50.50215 | 9.25317 | 115° | 47km/h | 2553m | -2.6m/s | 4.8°C | 27.9% | 758.7hPa | 2.6V | 07:20:54 | 03:33:48 | 00:00:00 | |
| BIOWL1-15 | 2026-09-06 01:51:46 | 50.50209 | 9.25334 | 116° | 47km/h | 2551m | -2.4m/s | 4.8°C | 31.7% | 758.9hPa | 2.6V | 07:21:21 | 03:33:49 | 00:00:00 | |
| BIOWL9-15 | 2026-09-06 01:51:44 | 50.50220 | 9.25300 | 116° | 46km/h | 2556m | -2.6m/s | 4.7°C | 27.8% | 758.5hPa | 2.7V | 00:00:00 | 00:00:00 | 00:00:00 | |
| DM0DOS-11 | 2026-09-06 01:51:40 | 50.50241 | 9.25233 | 116° | 47km/h | 2566m | -2.5m/s | 4.6°C | 28.1% | 757.4hPa | 2.7V | 07:20:59 | 03:33:43 | 00:00:00 | |
| DM0DOS-11 | 2026-09-06 01:51:40 | 50.50267 | 9.25150 | 114° | 46km/h | 2580m | -2.5m/s | 4.6°C | 28.2% | 756.2hPa | 2.7V | 07:21:04 | 03:33:38 | 00:00:00 | |
| BIOWL1-15 | 2026-09-06 01:51:37 | 50.50267 | 9.25150 | 115° | 46km/h | 2580m | -2.5m/s | 4.6°C | 32.1% | 756.2hPa | 2.7V | 07:21:21 | 03:33:38 | 00:00:00 | |
| DB0NH | 2026-09-06 01:51:36 | 50.50262 | 9.25166 | 115° | 47km/h | 2577m | -2.5m/s | 4.5°C | 28.3% | 756.5hPa | 2.6V | 07:21:00 | 03:33:39 | 00:00:00 | |
| DM0DOS-11 | 2026-09-06 01:51:35 | 50.50291 | 9.25064 | 112° | 47km/h | 2592m | -2.6m/s | 4.5°C | 28.1% | 755hPa | 2.6V | 07:21:09 | 03:33:33 | 00:00:00 | |
| DM0DOS-11 | 2026-09-06 01:51:30 | 50.50314 | 9.24978 | 112° | 47km/h | 2605m | -2.6m/s | 4.3°C | 28.3% | 753.8hPa | 2.7V | 07:21:14 | 03:33:28 | 00:00:00 | |
| NBG1-10 | 2026-09-06 01:51:29 | 50.50296 | 9.25047 | 114° | 47km/h | 2595m | -2.6m/s | 4.4°C | 28.2% | 754.8hPa | 2.7V | 00:00:00 | 03:33:32 | 00:00:00 | |
| HARRO8 | 2026-09-06 01:51:26 | 50.50310 | 9.24996 | 112° | 46km/h | 2603m | -2.7m/s | 4.4°C | 28.0% | 754.1hPa | 2.7V | 00:00:00 | 00:00:00 | 00:00:00 | |
| DM0DOS-11 | 2026-09-06 01:51:25 | 50.50336 | 9.24893 | 111° | 47km/h | 2619m | -2.8m/s | 4.2°C | 28.5% | 752.7hPa | 2.7V | 07:21:19 | 03:33:23 | 00:00:00 | |
| BIOWL1-15 | 2026-09-06 01:51:24 | 50.50328 | 9.24927 | 113° | 47km/h | 2613m | -2.5m/s | 4.3°C | 32.5% | 753.2hPa | 2.7V | 07:21:21 | 03:33:25 | 00:00:00 | |
| DM0DOS-11 | 2026-09-06 01:51:20 | 50.50359 | 9.24805 | 110° | 47km/h | 2632m | -2.7m/s | 4.2°C | 28.7% | 751.4hPa | 2.7V | 07:21:24 | 03:33:18 | 00:00:00 | |
| BIOWL1-15 | 2026-09-06 01:51:13 | 50.50367 | 9.24770 | 111° | 47km/h | 2638m | -2.7m/s | 4.1°C | 32.7% | 750.9hPa | 2.7V | 07:22:12 | 03:33:16 | 00:00:00 | |
| DM0DOS-11 | 2026-09-06 01:51:11 | 50.50380 | 9.24716 | 110° | 49km/h | 2646m | -2.6m/s | 4.1°C | 28.7% | 750.1hPa | 2.7V | 07:21:29 | 03:33:13 | 00:00:00 | |
| DL1ZP-14 | 2026-09-06 01:51:09 | 50.50388 | 9.24680 | 109° | 46km/h | 2651m | -2.7m/s | 4.0°C | 28.7% | 749.6hPa | 2.6V | 00:00:00 | 00:00:00 | 00:00:00 | |
| DM0DOS-11 | 2026-09-06 01:51:05 | 50.50401 | 9.24627 | 109° | 47km/h | 2659m | -2.7m/s | 4°C | 29% | 748.9hPa | 2.7V | 07:21:34 | 03:33:08 | 00:00:00 | |
| DM0DOS-11 | 2026-09-06 01:51:05 | 50.50422 | 9.24538 | 109° | 47km/h | 2673m | -2.9m/s | 3.9°C | 29.2% | 747.6hPa | 2.7V | 07:21:39 | 03:33:03 | 00:00:00 | |
| BIOWL1-15 | 2026-09-06 01:51:02 | 50.50413 | 9.24573 | 110° | 47km/h | 2667m | -2.9m/s | 3.9°C | 33.2% | 748hPa | 2.7V | 07:22:12 | 03:33:05 | 00:00:00 | |
| BIOWL1-15 | 2026-09-06 01:50:52 | 50.50454 | 9.24397 | 111° | 47km/h | 2696m | -2.9m/s | 3.7°C | 33.6% | 745.4hPa | 2.7V | 07:22:12 | 03:32:55 | 00:00:00 | |
| DM0DOS-11 | 2026-09-06 01:50:51 | 50.50462 | 9.24362 | 109° | 47km/h | 2702m | -3m/s | 3.7°C | 29.7% | 744.9hPa | 2.7V | 07:21:49 | 03:32:53 | 00:00:00 | |
| DF7PN | 2026-09-06 01:50:47 | 50.50475 | 9.24309 | 110° | 46km/h | 2711m | -2.9m/s | 3.6°C | 29.6% | 744.1hPa | 2.7V | 00:00:00 | 00:00:00 | 00:00:00 | |
| DM0DOS-11 | 2026-09-06 01:50:45 | 50.50504 | 9.24185 | 110° | 47km/h | 2731m | -2.9m/s | 3.5°C | 30.6% | 742.3hPa | 2.7V | 07:21:59 | 03:32:43 | 00:00:00 | |
| BIOWL1-15 | 2026-09-06 01:50:41 | 50.50504 | 9.24185 | 110° | 47km/h | 2731m | -2.9m/s | 3.5°C | 34.8% | 742.3hPa | 2.7V | 07:22:12 | 03:32:43 | 00:00:00 | |
| DM0DOS-11 | 2026-09-06 01:50:40 | 50.50525 | 9.24097 | 109° | 47km/h | 2746m | -3.1m/s | 3.3°C | 30.9% | 741hPa | 2.7V | 07:22:04 | 03:32:38 | 00:00:00 | |
| DL1ZP-14 | 2026-09-06 01:50:38 | 50.50516 | 9.24132 | 110° | 46km/h | 2740m | -2.9m/s | 3.4°C | 30.5% | 741.5hPa | 2.7V | 00:00:00 | 00:00:00 | 00:00:00 | |
| DB0UT-7 | 2026-09-06 01:50:36 | 50.50520 | 9.24115 | 111° | 46km/h | 2743m | -2.9m/s | 3.3°C | 30.8% | 741.1hPa | 2.7V | 00:00:00 | 00:00:00 | 00:00:00 | |
| DL0LBS | 2026-09-06 01:50:33 | 50.50533 | 9.24062 | 112° | 47km/h | 2752m | -3.0m/s | 3.3°C | 30.7% | 740.2hPa | 2.7V | 00:00:00 | 00:00:00 | 00:00:00 | |
| DM0DOS-11 | 2026-09-06 01:50:31 | 50.50546 | 9.24010 | 112° | 47km/h | 2761m | -3m/s | 3.2°C | 31% | 739.4hPa | 2.7V | 07:22:09 | 03:32:33 | 00:00:00 | |
| BIOWL1-15 | 2026-09-06 01:50:30 | 50.50545 | 9.24010 | 112° | 47km/h | 2761m | -3m/s | 3.2°C | 35.1% | 739.4hPa | 2.7V | 07:22:12 | 03:32:33 | 00:00:00 | |
| BIOWL1-15 | 2026-09-06 01:50:19 | 50.50597 | 9.23825 | 116° | 46km/h | 2795m | -3.2m/s | 2.9°C | 35.3% | 736.4hPa | 2.6V | 07:23:03 | 03:32:22 | 00:00:00 | |
| BIOWL1-15 | 2026-09-06 01:50:11 | 50.50646 | 9.23662 | 117° | 46km/h | 2828m | -3.1m/s | 2.9°C | 35.4% | 733.3hPa | 2.6V | 07:23:03 | 03:32:12 | 00:00:00 | |
| BIOWL1-15 | 2026-09-06 01:49:59 | 50.50696 | 9.23492 | 114° | 47km/h | 2860m | -3.2m/s | 2.7°C | 33.4% | 730.6hPa | 2.7V | 07:23:03 | 03:32:02 | 00:00:00 | |
| BIOWL1-15 | 2026-09-06 01:49:50 | 50.50759 | 9.23308 | 122° | 49km/h | 2896m | -3.6m/s | 2.8°C | 26.4% | 727.2hPa | 2.6V | 07:23:03 | 03:31:51 | 00:00:00 | |
| DF7PN | 2026-09-06 01:49:45 | 50.50779 | 9.23260 | 122° | 47km/h | 2906m | -3.4m/s | 2.9°C | 21.9% | 726.3hPa | 2.7V | 00:00:00 | 00:00:00 | 00:00:00 | |
| DM0DOS-11 | 2026-09-06 01:49:40 | 50.50844 | 9.23102 | 123° | 47km/h | 2938m | -2.9m/s | 2.8°C | 21.7% | 723.5hPa | 2.7V | 07:23:04 | 03:31:38 | 00:00:00 | |
| BIOWL1-15 | 2026-09-06 01:49:38 | 50.50824 | 9.23149 | 123° | 47km/h | 2929m | -3.1m/s | 2.8°C | 24.9% | 724.4hPa | 2.7V | 07:23:03 | 03:31:41 | 00:00:00 | |
| BIOWL1-15 | 2026-09-06 01:49:27 | 50.50912 | 9.22945 | 127° | 49km/h | 2969m | -3.1m/s | 3.1°C | 18.5% | 720.7hPa | 2.7V | 07:23:54 | 03:31:28 | 00:00:00 | |
| HARRO8 | 2026-09-06 01:49:22 | 50.50934 | 9.22899 | 127° | 47km/h | 2978m | -3.1m/s | 3.2°C | 14.7% | 720.0hPa | 2.7V | 00:00:00 | 00:00:00 | 00:00:00 | |
| DM0DOS-11 | 2026-09-06 01:49:21 | 50.50977 | 9.22807 | 126° | 47km/h | 2997m | -3.1m/s | 3.2°C | 17.8% | 718.3hPa | 2.7V | 07:23:23 | 03:31:19 | 00:00:00 | |
| BIOWL1-15 | 2026-09-06 01:49:19 | 50.50969 | 9.22822 | 126° | 47km/h | 2994m | -3.2m/s | 3.2°C | 17.3% | 718.6hPa | 2.7V | 07:23:54 | 03:31:20 | 00:00:00 | |
| BIOWL1-15 | 2026-09-06 01:49:10 | 50.51041 | 9.22667 | 127° | 49km/h | 3024m | -3.1m/s | 3°C | 21.3% | 715.7hPa | 2.7V | 07:23:54 | 03:31:10 | 00:00:00 | |
| BIOWL9-15 | 2026-09-06 01:49:09 | 50.51027 | 9.22698 | 125° | 47km/h | 3018m | -3.2m/s | 3.1°C | 18.2% | 716.4hPa | 2.7V | 00:00:00 | 00:00:00 | 00:00:00 | |
| DB0ND-19 | 2026-09-06 01:49:07 | 50.51041 | 9.22667 | 126° | 47km/h | 3024m | -3.1m/s | 3.0°C | 18.7% | 715.7hPa | 2.7V | 00:00:00 | 00:00:00 | 00:00:00 | |
| DL1ZP-14 | 2026-09-06 01:49:04 | 50.51064 | 9.22620 | 127° | 49km/h | 3033m | -3.1m/s | 2.9°C | 18.5% | 714.8hPa | 2.7V | 00:00:00 | 00:00:00 | 00:00:00 | |
| DM0DOS-11 | 2026-09-06 01:49:01 | 50.51125 | 9.22495 | 126° | 49km/h | 3058m | -3.2m/s | 2.8°C | 18.4% | 712.8hPa | 2.7V | 07:23:43 | 03:30:59 | 00:00:00 | |
| BIOWL1-15 | 2026-09-06 01:48:57 | 50.51117 | 9.22511 | 127° | 49km/h | 3055m | -3.2m/s | 2.8°C | 20.9% | 713hPa | 2.7V | 07:23:54 | 03:31:00 | 00:00:00 | |
| DB0UT-7 | 2026-09-06 01:48:56 | 50.51125 | 9.22495 | 127° | 51km/h | 3058m | -3.1m/s | 2.7°C | 18.4% | 712.8hPa | 2.7V | 00:00:00 | 03:30:59 | 00:00:00 | |
| NBG1-10 | 2026-09-06 01:48:55 | 50.51132 | 9.22479 | 126° | 51km/h | 3061m | -3.1m/s | 2.7°C | 18.5% | 712.4hPa | 2.7V | 00:00:00 | 03:30:58 | 00:00:00 | |
| DM0DOS-11 | 2026-09-06 01:48:51 | 50.51196 | 9.22331 | 122° | 51km/h | 3089m | -3.2m/s | 2.7°C | 17.8% | 710.1hPa | 2.6V | 07:23:53 | 03:30:49 | 00:00:00 | |
| BIOWL1-15 | 2026-09-06 01:48:50 | 50.51196 | 9.22331 | 122° | 51km/h | 3089m | -3.2m/s | 2.7°C | 20.1% | 710.1hPa | 2.6V | 07:23:54 | 03:30:49 | 00:00:00 | |
| DB0NH | 2026-09-06 01:48:48 | 50.51182 | 9.22364 | 125° | 53km/h | 3083m | -3.2m/s | 2.6°C | 18.0% | 710.5hPa | 2.7V | 07:23:00 | 03:30:51 | 00:00:00 | |
| DJ8HS-15 | 2026-09-06 01:48:47 | 50.51189 | 9.22348 | 124° | 51km/h | 3086m | -3.0m/s | 2.6°C | 17.9% | 710.3hPa | 2.6V | 00:00:00 | 03:30:50 | 00:00:00 | |
| DL0LBS | 2026-09-06 01:48:46 | 50.51189 | 9.22348 | 124° | 51km/h | 3086m | -3.1m/s | 2.7°C | 17.7% | 710.3hPa | 2.6V | 07:23:00 | 00:00:00 | 00:00:00 | |
| DF7PN | 2026-09-06 01:48:43 | 50.51217 | 9.22279 | 121° | 49km/h | 3099m | -3.1m/s | 2.6°C | 17.7% | 709.1hPa | 2.6V | 00:00:00 | 00:00:00 | 00:00:00 | |
| BIOWL7-15 | 2026-09-06 01:48:42 | 50.51218 | 9.22279 | 123° | 51km/h | 3099m | -3.1m/s | 2.6°C | 17.7% | 709.1hPa | 2.6V | 07:24:00 | 00:00:00 | 00:00:00 | |
| DM0DOS-11 | 2026-09-06 01:48:41 | 50.51265 | 9.22157 | 121° | 51km/h | 3121m | -2.9m/s | 2.6°C | 18% | 707.2hPa | 2.6V | 07:24:03 | 03:30:39 | 00:00:00 | |
| BIOWL1-15 | 2026-09-06 01:48:38 | 50.51265 | 9.22157 | 121° | 51km/h | 3121m | -2.9m/s | 2.6°C | 20.3% | 707.2hPa | 2.6V | 07:24:45 | 03:30:39 | 00:00:00 | |
| BIOWL9-15 | 2026-09-06 01:48:38 | 50.51258 | 9.22175 | 120° | 49km/h | 3118m | -3.3m/s | 2.6°C | 17.8% | 707.5hPa | 2.7V | 00:00:00 | 00:00:00 | 00:00:00 | |
| DM0DOS-11 | 2026-09-06 01:48:36 | 50.51299 | 9.22068 | 121° | 53km/h | 3137m | -3.1m/s | 2.5°C | 17.9% | 706hPa | 2.7V | 07:24:08 | 03:30:34 | 00:00:00 | |
| NBG1-10 | 2026-09-06 01:48:33 | 50.51285 | 9.22104 | 122° | 55km/h | 3131m | -2.9m/s | 2.5°C | 17.9% | 706.4hPa | 2.7V | 00:00:00 | 03:30:36 | 00:00:00 | |
| DM0DOS-11 | 2026-09-06 01:48:31 | 50.51336 | 9.21979 | 122° | 55km/h | 3152m | -3.2m/s | 2.5°C | 15.9% | 704.6hPa | 2.7V | 07:24:13 | 03:30:29 | 00:00:00 | |
| BIOWL1-15 | 2026-09-06 01:48:28 | 50.51336 | 9.21979 | 122° | 55km/h | 3152m | -3.2m/s | 2.5°C | 17.7% | 704.6hPa | 2.7V | 07:24:45 | 03:30:29 | 00:00:00 | |
| DJ8HS-15 | 2026-09-06 01:48:27 | 50.51328 | 9.21997 | 124° | 55km/h | 3149m | -2.9m/s | 2.5°C | 16.6% | 704.9hPa | 2.7V | 00:00:00 | 03:30:30 | 00:00:00 | |
| DM0DOS-11 | 2026-09-06 01:48:26 | 50.51373 | 9.21888 | 121° | 55km/h | 3167m | -3m/s | 2.6°C | 15.1% | 703.1hPa | 2.7V | 07:24:18 | 03:30:24 | 00:00:00 | |
| DB0UT-7 | 2026-09-06 01:48:26 | 50.51336 | 9.21979 | 123° | 53km/h | 3152m | -3.2m/s | 2.5°C | 15.9% | 704.5hPa | 2.7V | 00:00:00 | 00:00:00 | 00:00:00 | |
| DM0DOS-11 | 2026-09-06 01:48:21 | 50.51408 | 9.21796 | 121° | 53km/h | 3183m | -3m/s | 2.6°C | 14.4% | 701.9hPa | 2.7V | 07:24:23 | 03:30:19 | 00:00:00 | |
| BIOWL1-15 | 2026-09-06 01:48:21 | 50.51415 | 9.21777 | 121° | 55km/h | 3186m | -3.1m/s | 2.5°C | 15.8% | 701.7hPa | 2.7V | 07:24:45 | 03:30:18 | 00:00:00 | |
| HARRO8 | 2026-09-06 01:48:20 | 50.51380 | 9.21869 | 121° | 53km/h | 3171m | -3.1m/s | 2.6°C | 14.6% | 703.0hPa | 2.7V | 00:00:00 | 00:00:00 | 00:00:00 | |
| BIOWL7-15 | 2026-09-06 01:48:19 | 50.51380 | 9.21869 | 122° | 55km/h | 3171m | -3.1m/s | 2.6°C | 14.6% | 703.0hPa | 2.7V | 07:24:00 | 00:00:00 | 00:00:00 | |
| DB0NH | 2026-09-06 01:48:18 | 50.51394 | 9.21832 | 121° | 53km/h | 3177m | -3.0m/s | 2.5°C | 14.6% | 702.4hPa | 2.7V | 00:00:00 | 03:30:21 | 00:00:00 | |
| DM0DOS-11 | 2026-09-06 01:48:16 | 50.51444 | 9.21705 | 122° | 53km/h | 3198m | -3.1m/s | 2.7°C | 10.2% | 700.6hPa | 2.7V | 07:24:28 | 03:30:14 | 00:00:00 | |
| DF7PN | 2026-09-06 01:48:12 | 50.51437 | 9.21723 | 122° | 53km/h | 3195m | -3.1m/s | 2.6°C | 10.6% | 700.9hPa | 2.7V | 00:00:00 | 00:00:00 | 00:00:00 | |
| DM0DOS-11 | 2026-09-06 01:48:10 | 50.51489 | 9.21598 | 124° | 53km/h | 3217m | -3.1m/s | 2.6°C | 9.7% | 699hPa | 2.7V | 07:24:34 | 03:30:08 | 00:00:00 | |
| BIOWL1-15 | 2026-09-06 01:48:07 | 50.51489 | 9.21598 | 124° | 53km/h | 3217m | -3.1m/s | 2.6°C | 9.7% | 699hPa | 2.7V | 07:24:45 | 03:30:08 | 00:00:00 | |
| DJ8HS-15 | 2026-09-06 01:48:07 | 50.51474 | 9.21633 | 125° | 53km/h | 3211m | -3.1m/s | 2.6°C | 8.6% | 699.4hPa | 2.7V | 00:00:00 | 03:30:10 | 00:00:00 | |
| DL0LBS | 2026-09-06 01:48:06 | 50.51481 | 9.21615 | 125° | 55km/h | 3214m | -3.1m/s | 2.7°C | 8.6% | 699.3hPa | 2.6V | 07:24:00 | 00:00:00 | 00:00:00 | |
| DM0DOS-11 | 2026-09-06 01:48:05 | 50.51527 | 9.21510 | 124° | 53km/h | 3232m | -3m/s | 2.5°C | 12.3% | 697.6hPa | 2.6V | 07:24:39 | 03:30:03 | 00:00:00 | |
| DB0ND-19 | 2026-09-06 01:48:05 | 50.51489 | 9.21598 | 124° | 53km/h | 3217m | -3.1m/s | 2.6°C | 9.6% | 699.0hPa | 2.7V | 00:00:00 | 00:00:00 | 00:00:00 | |
| DM0DOS-11 | 2026-09-06 01:48:00 | 50.51572 | 9.21407 | 124° | 53km/h | 3251m | -3m/s | 2.4°C | 12.6% | 696hPa | 2.7V | 07:24:45 | 03:29:57 | 00:00:00 | |
| BIOWL7-15 | 2026-09-06 01:47:58 | 50.51534 | 9.21493 | 126° | 53km/h | 3235m | -2.9m/s | 2.5°C | 12.2% | 697.3hPa | 2.7V | 07:24:00 | 00:00:00 | 00:00:00 | |
| DB0UT-7 | 2026-09-06 01:47:56 | 50.51557 | 9.21442 | 126° | 55km/h | 3245m | -3.1m/s | 2.4°C | 12.2% | 696.6hPa | 2.7V | 00:00:00 | 03:29:59 | 00:00:00 | |
| DM0DOS-11 | 2026-09-06 01:47:54 | 50.51611 | 9.21322 | 125° | 53km/h | 3266m | -3m/s | 2.3°C | 12.5% | 694.7hPa | 2.7V | 07:24:50 | 03:29:52 | 00:00:00 | |
| BIOWL1-15 | 2026-09-06 01:47:54 | 50.51573 | 9.21407 | 125° | 53km/h | 3251m | -3m/s | 2.4°C | 13.5% | 696hPa | 2.7V | 07:24:45 | 03:29:57 | 00:00:00 | |
| DM0DOS-11 | 2026-09-06 01:47:49 | 50.51649 | 9.21236 | 125° | 53km/h | 3281m | -3.1m/s | 2.4°C | 10.1% | 693.4hPa | 2.7V | 07:24:55 | 03:29:47 | 00:00:00 | |
| HARRO8 | 2026-09-06 01:47:49 | 50.51611 | 9.21322 | 125° | 53km/h | 3266m | -3.1m/s | 2.3°C | 12.4% | 694.7hPa | 2.7V | 00:00:00 | 00:00:00 | 00:00:00 | |
| BIOWL1-15 | 2026-09-06 01:47:44 | 50.51650 | 9.21236 | 125° | 53km/h | 3281m | -3.1m/s | 2.4°C | 10.1% | 693.4hPa | 2.7V | 07:25:36 | 03:29:47 | 00:00:00 | |
| NBG1-10 | 2026-09-06 01:47:44 | 50.51649 | 9.21236 | 126° | 57km/h | 3281m | -3.0m/s | 2.3°C | 10.1% | 693.4hPa | 2.7V | 00:00:00 | 03:29:47 | 00:00:00 | |
| DM0DOS-11 | 2026-09-06 01:47:39 | 50.51687 | 9.21147 | 122° | 53km/h | 3296m | -3.2m/s | 2.5°C | 7.7% | 692.1hPa | 2.6V | 07:25:00 | 03:29:42 | 00:00:00 | |
| DM0DOS-11 | 2026-09-06 01:47:39 | 50.51724 | 9.21055 | 121° | 55km/h | 3312m | -3.2m/s | 2.4°C | 7.4% | 690.7hPa | 2.7V | 07:25:05 | 03:29:37 | 00:00:00 | |
| BIOWL1-15 | 2026-09-06 01:47:33 | 50.51732 | 9.21037 | 123° | 55km/h | 3315m | -3.2m/s | 2.4°C | 5.3% | 690.5hPa | 2.7V | 07:25:36 | 03:29:36 | 00:00:00 | |
| DM0DOS-11 | 2026-09-06 01:47:29 | 50.51763 | 9.20962 | 124° | 57km/h | 3328m | -3.1m/s | 2.5°C | 5.9% | 689.4hPa | 2.6V | 07:25:10 | 03:29:32 | 00:00:00 | |
| DM0DOS-11 | 2026-09-06 01:47:29 | 50.51803 | 9.20869 | 124° | 57km/h | 3343m | -3m/s | 2.4°C | 6.5% | 688.1hPa | 2.7V | 07:25:15 | 03:29:27 | 00:00:00 | |
| BIOWL1-15 | 2026-09-06 01:47:22 | 50.51835 | 9.20793 | 122° | 57km/h | 3356m | -3.2m/s | 2.4°C | 5.4% | 687hPa | 2.6V | 07:25:36 | 03:29:23 | 00:00:00 | |
| DM0DOS-11 | 2026-09-06 01:47:21 | 50.51842 | 9.20774 | 122° | 57km/h | 3359m | -3.1m/s | 2.4°C | 7.1% | 686.7hPa | 2.7V | 07:25:20 | 03:29:22 | 00:00:00 | |
| DB0NH | 2026-09-06 01:47:18 | 50.51850 | 9.20755 | 123° | 58km/h | 3362m | -3.0m/s | 2.3°C | 7.7% | 686.5hPa | 2.7V | 00:00:00 | 03:29:21 | 00:00:00 | |
| DM0DOS-11 | 2026-09-06 01:47:14 | 50.51882 | 9.20677 | 122° | 58km/h | 3375m | -3.1m/s | 2.3°C | 10.4% | 685.4hPa | 2.7V | 07:25:25 | 03:29:17 | 00:00:00 | |
| DM0DOS-11 | 2026-09-06 01:47:14 | 50.51922 | 9.20580 | 122° | 58km/h | 3391m | -3.1m/s | 2.2°C | 12.3% | 684hPa | 2.7V | 07:25:30 | 03:29:12 | 00:00:00 | |
| NBG1-10 | 2026-09-06 01:47:11 | 50.51906 | 9.20619 | 122° | 58km/h | 3384m | -3.1m/s | 2.2°C | 11.7% | 684.6hPa | 2.6V | 00:00:00 | 03:29:14 | 00:00:00 | |
| DF7PN | 2026-09-06 01:47:10 | 50.51914 | 9.20600 | 122° | 57km/h | 3388m | -3.2m/s | 2.3°C | 12.1% | 684.3hPa | 2.6V | 00:00:00 | 00:00:00 | 00:00:00 | |
| DM0DOS-11 | 2026-09-06 01:47:09 | 50.51962 | 9.20483 | 123° | 58km/h | 3406m | -3.2m/s | 2.2°C | 11.2% | 682.7hPa | 2.6V | 07:25:35 | 03:29:07 | 00:00:00 | |
| BIOWL1-15 | 2026-09-06 01:47:08 | 50.51930 | 9.20561 | 122° | 58km/h | 3394m | -3.2m/s | 2.2°C | 13.1% | 683.8hPa | 2.7V | 07:25:36 | 03:29:11 | 00:00:00 | |
| BIOWL1-15 | 2026-09-06 01:47:00 | 50.52009 | 9.20364 | 122° | 58km/h | 3426m | -3.2m/s | 2.1°C | 10.8% | 681.1hPa | 2.7V | 07:26:27 | 03:29:01 | 00:00:00 | |
| DM0DOS-11 | 2026-09-06 01:46:59 | 50.52002 | 9.20384 | 121° | 58km/h | 3423m | -3.3m/s | 2.1°C | 10.5% | 681.4hPa | 2.7V | 07:25:40 | 03:29:02 | 00:00:00 | |
| DM0DOS-11 | 2026-09-06 01:46:59 | 50.52040 | 9.20285 | 121° | 58km/h | 3438m | -3.2m/s | 2°C | 10.7% | 680hPa | 2.7V | 07:25:45 | 03:28:57 | 00:00:00 | |
| DD1CC8 | 2026-09-06 01:46:58 | 50.52017 | 9.20344 | 120° | 58km/h | 3429m | -3.1m/s | 2.1°C | 10.5% | 680.8hPa | 2.6V | 00:00:00 | 00:00:00 | 00:00:00 | |
| DB0UT-7 | 2026-09-06 01:46:56 | 50.52025 | 9.20324 | 122° | 57km/h | 3432m | -3.2m/s | 2.0°C | 10.7% | 680.6hPa | 2.6V | 00:00:00 | 03:28:59 | 00:00:00 | |
| DD1CC3-15 | 2026-09-06 01:46:55 | 50.52025 | 9.20324 | 123° | 58km/h | 3432m | -3.2m/s | 2.1°C | 10.6% | 680.6hPa | 2.7V | 07:26:00 | 00:00:00 | 00:00:00 | |
| DM0DOS-11 | 2026-09-06 01:46:49 | 50.52080 | 9.20186 | 121° | 58km/h | 3454m | -3.1m/s | 1.9°C | 10.6% | 678.7hPa | 2.7V | 07:25:50 | 03:28:52 | 00:00:00 | |
| DM0DOS-11 | 2026-09-06 01:46:49 | 50.52119 | 9.20086 | 121° | 58km/h | 3470m | -3.2m/s | 1.8°C | 12.7% | 677.3hPa | 2.7V | 07:25:55 | 03:28:47 | 00:00:00 | |
| BIOWL1-15 | 2026-09-06 01:46:49 | 50.52095 | 9.20146 | 122° | 58km/h | 3461m | -3.3m/s | 1.9°C | 12% | 678.2hPa | 2.6V | 07:26:27 | 03:28:50 | 00:00:00 | |
| HARRO8 | 2026-09-06 01:46:47 | 50.52095 | 9.20146 | 122° | 58km/h | 3461m | -3.3m/s | 1.9°C | 11.3% | 678.2hPa | 2.6V | 00:00:00 | 00:00:00 | 00:00:00 | |
| DM0DOS-11 | 2026-09-06 01:46:44 | 50.52156 | 9.19987 | 121° | 58km/h | 3487m | -3.2m/s | 1.8°C | 9.6% | 676hPa | 2.6V | 07:26:00 | 03:28:42 | 00:00:00 | |
| DL1NUX | 2026-09-06 01:46:41 | 50.52179 | 9.19927 | 121° | 58km/h | 3496m | -3.2m/s | 1.7°C | 13% | 675.1hPa | 2.7V | 07:26:03 | 03:28:39 | 00:00:00 | |
| DM0DOS-11 | 2026-09-06 01:46:39 | 50.52195 | 9.19887 | 120° | 58km/h | 3502m | -3.1m/s | 1.6°C | 12.8% | 674.6hPa | 2.7V | 07:26:05 | 03:28:37 | 00:00:00 | |
| BIOWL1-15 | 2026-09-06 01:46:36 | 50.52179 | 9.19927 | 122° | 58km/h | 3496m | -3.2m/s | 1.7°C | 14.1% | 675.1hPa | 2.7V | 07:26:27 | 03:28:39 | 00:00:00 | |
| DM0DOS-11 | 2026-09-06 01:46:34 | 50.52234 | 9.19789 | 121° | 58km/h | 3518m | -3.2m/s | 1.6°C | 7.2% | 673.3hPa | 2.7V | 07:26:10 | 03:28:32 | 00:00:00 | |
| DL1NUX | 2026-09-06 01:46:31 | 50.52218 | 9.19828 | 121° | 58km/h | 3512m | -3m/s | 1.6°C | 9.7% | 673.9hPa | 2.6V | 07:26:08 | 03:28:34 | 00:00:00 | |
| DL1NUX | 2026-09-06 01:46:31 | 50.52258 | 9.19730 | 121° | 58km/h | 3527m | -3.2m/s | 1.6°C | 6.1% | 672.5hPa | 2.7V | 07:26:13 | 03:28:29 | 00:00:00 | |
| DM0DOS-11 | 2026-09-06 01:46:29 | 50.52273 | 9.19691 | 122° | 58km/h | 3534m | -3.2m/s | 1.6°C | 5.5% | 672hPa | 2.7V | 07:26:15 | 03:28:27 | 00:00:00 | |
| DD1CC8 | 2026-09-06 01:46:27 | 50.52257 | 9.19730 | 121° | 58km/h | 3527m | -3.2m/s | 1.6°C | 6.1% | 672.6hPa | 2.6V | 00:00:00 | 00:00:00 | 00:00:00 | |
| DL1NUX | 2026-09-06 01:46:26 | 50.52296 | 9.19631 | 121° | 58km/h | 3543m | -3.2m/s | 1.6°C | 9% | 671.2hPa | 2.6V | 07:26:18 | 03:28:24 | 00:00:00 | |
| BIOWL1-15 | 2026-09-06 01:46:26 | 50.52257 | 9.19730 | 122° | 58km/h | 3527m | -3.2m/s | 1.6°C | 4.6% | 672.6hPa | 2.7V | 07:26:27 | 03:28:29 | 00:00:00 | |
| SO1NDE-10 | 2026-09-06 01:46:26 | 50.52257 | 9.19730 | 122° | 58km/h | 3527m | -3.2m/s | 1.6°C | 6.1% | 672.5hPa | 2.7V | 07:26:00 | 03:28:29 | 00:00:00 | |
| DL0LBS | 2026-09-06 01:46:24 | 50.52265 | 9.19710 | 123° | 58km/h | 3531m | -3.2m/s | 1.6°C | 5.4% | 672.2hPa | 2.7V | 07:26:00 | 00:00:00 | 00:00:00 | |
| DL1NUX | 2026-09-06 01:46:21 | 50.52335 | 9.19532 | 122° | 58km/h | 3560m | -3.3m/s | 1.6°C | 8% | 669.8hPa | 2.7V | 07:26:23 | 03:28:19 | 00:00:00 | |
| DM0DOS-11 | 2026-09-06 01:46:19 | 50.52312 | 9.19592 | 121° | 58km/h | 3550m | -3.3m/s | 1.7°C | 7.4% | 670.6hPa | 2.7V | 07:26:20 | 03:28:22 | 00:00:00 | |
| DM0DOS-11 | 2026-09-06 01:46:19 | 50.52351 | 9.19493 | 122° | 58km/h | 3566m | -3.4m/s | 1.6°C | 6.7% | 669.3hPa | 2.6V | 07:26:25 | 03:28:17 | 00:00:00 | |
| DB0NH | 2026-09-06 01:46:18 | 50.52319 | 9.19572 | 122° | 58km/h | 3553m | -3.2m/s | 1.6°C | 8.2% | 670.3hPa | 2.7V | 00:00:00 | 03:28:21 | 00:00:00 | |
| DL1NUX | 2026-09-06 01:46:16 | 50.52375 | 9.19435 | 122° | 58km/h | 3576m | -3.3m/s | 1.6°C | 9.5% | 668.5hPa | 2.7V | 07:26:28 | 03:28:14 | 00:00:00 | |
| BIOWL1-15 | 2026-09-06 01:46:15 | 50.52343 | 9.19513 | 123° | 58km/h | 3563m | -3.2m/s | 1.6°C | 7.7% | 669.5hPa | 2.7V | 07:26:27 | 03:28:18 | 00:00:00 | |
| DJ8HS-15 | 2026-09-06 01:46:15 | 50.52343 | 9.19513 | 123° | 58km/h | 3563m | -3.1m/s | 1.6°C | 8.3% | 669.5hPa | 2.6V | 00:00:00 | 03:28:18 | 00:00:00 | |
| DD1CC3-15 | 2026-09-06 01:46:13 | 50.52351 | 9.19493 | 123° | 58km/h | 3566m | -3.4m/s | 1.6°C | 6.6% | 669.3hPa | 2.6V | 07:26:00 | 00:00:00 | 00:00:00 | |
| DL1NUX | 2026-09-06 01:46:11 | 50.52415 | 9.19339 | 122° | 57km/h | 3592m | -3.3m/s | 1.5°C | 10.3% | 667hPa | 2.6V | 07:26:33 | 03:28:09 | 00:00:00 | |
| DM0DOS-11 | 2026-09-06 01:46:09 | 50.52391 | 9.19396 | 122° | 58km/h | 3582m | -3.3m/s | 1.6°C | 10.9% | 668hPa | 2.7V | 07:26:30 | 03:28:12 | 00:00:00 | |
| DM0DOS-11 | 2026-09-06 01:46:09 | 50.52431 | 9.19301 | 122° | 57km/h | 3599m | -3.3m/s | 1.4°C | 9.4% | 666.6hPa | 2.7V | 07:26:35 | 03:28:07 | 00:00:00 | |
| BIOWL1-15 | 2026-09-06 01:46:05 | 50.52423 | 9.19320 | 123° | 57km/h | 3595m | -3.3m/s | 1.5°C | 10.3% | 666.9hPa | 2.6V | 07:27:18 | 03:28:08 | 00:00:00 | |
| NBG1-10 | 2026-09-06 01:46:05 | 50.52423 | 9.19320 | 123° | 58km/h | 3595m | -3.2m/s | 1.4°C | 10.1% | 666.8hPa | 2.6V | 07:26:00 | 03:28:08 | 00:00:00 | |
| DM0DOS-11 | 2026-09-06 01:46:04 | 50.52469 | 9.19205 | 123° | 57km/h | 3615m | -3.2m/s | 1.4°C | 5.7% | 665.2hPa | 2.7V | 07:26:40 | 03:28:02 | 00:00:00 | |
| DL0LBS | 2026-09-06 01:46:03 | 50.52431 | 9.19301 | 123° | 57km/h | 3599m | -3.3m/s | 1.4°C | 9.3% | 666.6hPa | 2.7V | 07:27:00 | 00:00:00 | 00:00:00 | |
| DL1NUX | 2026-09-06 01:46:01 | 50.52454 | 9.19243 | 122° | 57km/h | 3608m | -3.2m/s | 1.4°C | 6.9% | 665.7hPa | 2.7V | 07:26:38 | 03:28:04 | 00:00:00 | |
| DL1NUX | 2026-09-06 01:46:01 | 50.52493 | 9.19148 | 124° | 57km/h | 3625m | -3.3m/s | 1.4°C | 4.6% | 664.4hPa | 2.7V | 07:26:43 | 03:27:59 | 00:00:00 | |
| DM0DOS-11 | 2026-09-06 01:45:59 | 50.52510 | 9.19111 | 124° | 57km/h | 3631m | -3.2m/s | 1.4°C | 4.8% | 664hPa | 2.7V | 07:26:45 | 03:27:57 | 00:00:00 | |
| BIOWL1-15 | 2026-09-06 01:45:55 | 50.52501 | 9.19130 | 124° | 57km/h | 3628m | -3.3m/s | 1.4°C | 1.9% | 664.1hPa | 2.7V | 07:27:18 | 03:27:58 | 00:00:00 | |
| DJ8HS-15 | 2026-09-06 01:45:55 | 50.52501 | 9.19130 | 124° | 58km/h | 3628m | -3.2m/s | 1.4°C | 4.4% | 664.0hPa | 2.7V | 00:00:00 | 03:27:58 | 00:00:00 | |
| DM0DOS-11 | 2026-09-06 01:45:54 | 50.52550 | 9.19017 | 122° | 57km/h | 3647m | -3.2m/s | 1.4°C | 3.3% | 662.6hPa | 2.6V | 07:26:50 | 03:27:52 | 00:00:00 | |
| DL1NUX | 2026-09-06 01:45:51 | 50.52534 | 9.19054 | 123° | 57km/h | 3641m | -3.2m/s | 1.4°C | 3.8% | 663.1hPa | 2.7V | 07:26:48 | 03:27:54 | 00:00:00 | |
| DL1NUX | 2026-09-06 01:45:51 | 50.52573 | 9.18960 | 122° | 57km/h | 3657m | -3.3m/s | 1.3°C | 3.8% | 661.7hPa | 2.7V | 07:26:53 | 03:27:49 | 00:00:00 | |
| DM0DOS-11 | 2026-09-06 01:45:49 | 50.52589 | 9.18921 | 122° | 58km/h | 3664m | -3.4m/s | 1.3°C | 5% | 661.2hPa | 2.7V | 07:26:55 | 03:27:47 | 00:00:00 | |
| DB0NH | 2026-09-06 01:45:48 | 50.52557 | 9.18998 | 124° | 60km/h | 3651m | -3.3m/s | 1.3°C | 3.4% | 662.3hPa | 2.7V | 00:00:00 | 03:27:51 | 00:00:00 | |
| DL1NUX | 2026-09-06 01:45:46 | 50.52612 | 9.18863 | 121° | 58km/h | 3674m | -3.3m/s | 1.2°C | 5.8% | 660.4hPa | 2.6V | 07:26:58 | 03:27:44 | 00:00:00 | |
| BIOWL1-15 | 2026-09-06 01:45:43 | 50.52597 | 9.18902 | 123° | 57km/h | 3667m | -3.4m/s | 1.3°C | 4.5% | 660.9hPa | 2.7V | 07:27:18 | 03:27:46 | 00:00:00 | |
| DL1NUX | 2026-09-06 01:45:41 | 50.52652 | 9.18763 | 120° | 60km/h | 3691m | -3.3m/s | 1.3°C | 2.8% | 659hPa | 2.7V | 07:27:03 | 03:27:39 | 00:00:00 | |
| DM0DOS-11 | 2026-09-06 01:45:39 | 50.52628 | 9.18824 | 121° | 60km/h | 3681m | -3.3m/s | 1.2°C | 4% | 659.8hPa | 2.7V | 07:27:00 | 03:27:42 | 00:00:00 | |
| DM0DOS-11 | 2026-09-06 01:45:39 | 50.52668 | 9.18723 | 121° | 60km/h | 3698m | -3.3m/s | 1.3°C | 2.7% | 658.5hPa | 2.6V | 07:27:05 | 03:27:37 | 00:00:00 | |
| DF7PN | 2026-09-06 01:45:37 | 50.52644 | 9.18784 | 121° | 58km/h | 3687m | -3.2m/s | 1.2°C | 3.0% | 659.4hPa | 2.7V | 00:00:00 | 00:00:00 | 00:00:00 | |
| DL1NUX | 2026-09-06 01:45:36 | 50.52692 | 9.18662 | 121° | 60km/h | 3708m | -3.4m/s | 1.3°C | 2.5% | 657.7hPa | 2.7V | 07:27:08 | 03:27:34 | 00:00:00 | |
| DJ8HS-15 | 2026-09-06 01:45:35 | 50.52660 | 9.18743 | 122° | 62km/h | 3694m | -3.4m/s | 1.2°C | 2.8% | 658.7hPa | 2.6V | 00:00:00 | 03:27:38 | 00:00:00 | |
| NBG1-10 | 2026-09-06 01:45:32 | 50.52684 | 9.18682 | 123° | 64km/h | 3704m | -3.3m/s | 1.2°C | 2.5% | 657.8hPa | 2.6V | 00:00:00 | 03:27:35 | 00:00:00 | |
| DL1NUX | 2026-09-06 01:45:31 | 50.52732 | 9.18559 | 122° | 62km/h | 3724m | -3.2m/s | 1.3°C | 2.5% | 656.3hPa | 2.6V | 07:27:13 | 03:27:29 | 00:00:00 | |
| BIOWL1-15 | 2026-09-06 01:45:30 | 50.52700 | 9.18641 | 122° | 60km/h | 3711m | -3.4m/s | 1.3°C | 0% | 657.4hPa | 2.7V | 07:27:18 | 03:27:33 | 00:00:00 | |
| DM0DOS-11 | 2026-09-06 01:45:29 | 50.52708 | 9.18621 | 121° | 60km/h | 3714m | -3.2m/s | 1.3°C | 2.8% | 657.1hPa | 2.7V | 07:27:10 | 03:27:32 | 00:00:00 | |
| DM0DOS-11 | 2026-09-06 01:45:29 | 50.52748 | 9.18518 | 122° | 62km/h | 3730m | -3.1m/s | 1.2°C | 2.5% | 655.7hPa | 2.7V | 07:27:15 | 03:27:27 | 00:00:00 | |
| DL1ZP-14 | 2026-09-06 01:45:27 | 50.52724 | 9.18580 | 121° | 60km/h | 3721m | -3.2m/s | 1.3°C | 2.5% | 656.6hPa | 2.7V | 00:00:00 | 00:00:00 | 00:00:00 | |
| DL1NUX | 2026-09-06 01:45:26 | 50.52774 | 9.18455 | 122° | 62km/h | 3740m | -3.4m/s | 1.1°C | 2.4% | 655hPa | 2.7V | 07:27:18 | 03:27:24 | 00:00:00 | |
| DD1CC8 | 2026-09-06 01:45:25 | 50.52749 | 9.18518 | 122° | 60km/h | 3730m | -3.1m/s | 1.2°C | 2.5% | 655.8hPa | 2.7V | 00:00:00 | 00:00:00 | 00:00:00 | |
| DM0DOS-11 | 2026-09-06 01:45:24 | 50.52790 | 9.18413 | 122° | 64km/h | 3747m | -3.4m/s | 1.1°C | 2.4% | 654.5hPa | 2.7V | 07:27:20 | 03:27:22 | 00:00:00 | |
| DL0LBS | 2026-09-06 01:45:22 | 50.52757 | 9.18497 | 123° | 62km/h | 3733m | -3.3m/s | 1.2°C | 2.5% | 655.4hPa | 2.7V | 07:27:00 | 00:00:00 | 00:00:00 | |
| DL1NUX | 2026-09-06 01:45:21 | 50.52825 | 9.18327 | 121° | 66km/h | 3760m | -3.2m/s | 1.1°C | 2.4% | 653.3hPa | 2.7V | 07:27:24 | 03:27:18 | 00:00:00 | |
| BIOWL1-15 | 2026-09-06 01:45:20 | 50.52799 | 9.18392 | 122° | 64km/h | 3750m | -3.2m/s | 1.1°C | 0% | 654.1hPa | 2.6V | 07:28:09 | 03:27:21 | 00:00:00 | |
| DM0DOS-11 | 2026-09-06 01:45:19 | 50.52833 | 9.18305 | 121° | 64km/h | 3763m | -3.3m/s | 1°C | 2.3% | 653.1hPa | 2.7V | 07:27:25 | 03:27:17 | 00:00:00 | |
| DB0NH | 2026-09-06 01:45:18 | 50.52799 | 9.18392 | 123° | 64km/h | 3750m | -3.1m/s | 1.1°C | 2.4% | 654.1hPa | 2.6V | 00:00:00 | 03:27:21 | 00:00:00 | |
| DL1NUX | 2026-09-06 01:45:16 | 50.52868 | 9.18218 | 122° | 66km/h | 3776m | -3.2m/s | 0.9°C | 2.4% | 652hPa | 2.6V | 07:27:29 | 03:27:13 | 00:00:00 | |
| SO1NDE-10 | 2026-09-06 01:45:16 | 50.52816 | 9.18348 | 123° | 64km/h | 3757m | -3.3m/s | 1.0°C | 2.4% | 653.6hPa | 2.6V | 00:00:00 | 03:27:19 | 00:00:00 | |
| DJ8HS-15 | 2026-09-06 01:45:15 | 50.52825 | 9.18327 | 122° | 64km/h | 3760m | -3.2m/s | 1.0°C | 2.4% | 653.2hPa | 2.6V | 00:00:00 | 03:27:18 | 00:00:00 | |
| DM0DOS-11 | 2026-09-06 01:45:14 | 50.52877 | 9.18196 | 121° | 64km/h | 3780m | -3.4m/s | 0.9°C | 2.4% | 651.7hPa | 2.6V | 07:27:30 | 03:27:12 | 00:00:00 | |
| HARRO8 | 2026-09-06 01:45:14 | 50.52842 | 9.18283 | 122° | 64km/h | 3766m | -3.3m/s | 1.0°C | 2.4% | 652.8hPa | 2.7V | 00:00:00 | 00:00:00 | 00:00:00 | |
| DD1CC3-15 | 2026-09-06 01:45:10 | 50.52859 | 9.18239 | 123° | 64km/h | 3773m | -3.3m/s | 1.0°C | 2.4% | 652.2hPa | 2.7V | 07:28:00 | 00:00:00 | 00:00:00 | |
| DM0DOS-11 | 2026-09-06 01:45:09 | 50.52921 | 9.18087 | 122° | 66km/h | 3796m | -3.4m/s | 0.9°C | 2.3% | 650.3hPa | 2.7V | 07:27:35 | 03:27:07 | 00:00:00 | |
| BIOWL1-15 | 2026-09-06 01:45:07 | 50.52895 | 9.18152 | 122° | 66km/h | 3786m | -3.4m/s | 0.9°C | 0% | 651.2hPa | 2.7V | 07:28:09 | 03:27:10 | 00:00:00 | |
| DF7PN | 2026-09-06 01:45:06 | 50.52903 | 9.18130 | 122° | 64km/h | 3790m | -3.3m/s | 0.9°C | 2.3% | 650.8hPa | 2.7V | 00:00:00 | 00:00:00 | 00:00:00 | |
| DL1NUX | 2026-09-06 01:45:05 | 50.52957 | 9.18001 | 122° | 64km/h | 3810m | -3.4m/s | 0.9°C | 2.4% | 649.3hPa | 2.7V | 07:27:39 | 03:27:03 | 00:00:00 | |
| DM0DOS-11 | 2026-09-06 01:45:04 | 50.52966 | 9.17980 | 122° | 64km/h | 3813m | -3.3m/s | 0.9°C | 2.5% | 648.9hPa | 2.7V | 07:27:40 | 03:27:02 | 00:00:00 | |
| DB0ND-19 | 2026-09-06 01:44:59 | 50.52965 | 9.17980 | 122° | 64km/h | 3813m | -3.3m/s | 0.9°C | 2.5% | 649.0hPa | 2.7V | 00:00:00 | 00:00:00 | 00:00:00 | |
| DL1ZP-14 | 2026-09-06 01:44:56 | 50.52992 | 9.17916 | 122° | 64km/h | 3823m | -3.4m/s | 0.9°C | 2.6% | 648.2hPa | 2.7V | 00:00:00 | 00:00:00 | 00:00:00 | |
| DL1NUX | 2026-09-06 01:44:55 | 50.53001 | 9.17894 | 122° | 64km/h | 3827m | -3.3m/s | 0.9°C | 2.6% | 648hPa | 2.6V | 07:27:44 | 03:26:58 | 00:00:00 | |
| DL1NUX | 2026-09-06 01:44:55 | 50.53045 | 9.17787 | 122° | 64km/h | 3844m | -3.1m/s | 0.9°C | 2.5% | 646.6hPa | 2.7V | 07:27:49 | 03:26:53 | 00:00:00 | |
| BIOWL1-15 | 2026-09-06 01:44:50 | 50.53045 | 9.17787 | 123° | 64km/h | 3844m | -3.2m/s | 0.9°C | 0% | 646.6hPa | 2.7V | 07:28:09 | 03:26:53 | 00:00:00 | |
| DL1NUX | 2026-09-06 01:44:50 | 50.53088 | 9.17681 | 122° | 64km/h | 3860m | -3.2m/s | 0.8°C | 2.5% | 645.2hPa | 2.7V | 07:27:54 | 03:26:48 | 00:00:00 | |
| DM0DOS-11 | 2026-09-06 01:44:49 | 50.53054 | 9.17766 | 123° | 64km/h | 3847m | -3.3m/s | 0.9°C | 2.5% | 646.3hPa | 2.7V | 07:27:50 | 03:26:52 | 00:00:00 | |
| DB0NH | 2026-09-06 01:44:48 | 50.53062 | 9.17745 | 123° | 62km/h | 3850m | -3.2m/s | 0.8°C | 2.5% | 646.0hPa | 2.6V | 07:27:00 | 03:26:51 | 00:00:00 | |
| SO1NDE-10 | 2026-09-06 01:44:46 | 50.53080 | 9.17703 | 123° | 62km/h | 3857m | -3.5m/s | 0.8°C | 2.6% | 645.5hPa | 2.6V | 00:00:00 | 03:26:49 | 00:00:00 | |
| DL1NUX | 2026-09-06 01:44:45 | 50.53130 | 9.17577 | 122° | 62km/h | 3876m | -3.4m/s | 0.7°C | 2.6% | 644hPa | 2.7V | 07:27:59 | 03:26:43 | 00:00:00 | |
| DM0DOS-11 | 2026-09-06 01:44:44 | 50.53139 | 9.17556 | 122° | 60km/h | 3880m | -3.3m/s | 0.7°C | 2.6% | 643.7hPa | 2.6V | 07:28:00 | 03:26:42 | 00:00:00 | |
| BIOWL1-15 | 2026-09-06 01:44:41 | 50.53139 | 9.17556 | 122° | 60km/h | 3880m | -3.3m/s | 0.7°C | 0% | 643.7hPa | 2.6V | 07:28:09 | 03:26:42 | 00:00:00 | |
| DL1NUX | 2026-09-06 01:44:40 | 50.53172 | 9.17475 | 123° | 62km/h | 3893m | -3.4m/s | 0.6°C | 2.4% | 642.6hPa | 2.7V | 07:28:04 | 03:26:38 | 00:00:00 | |
| DM0DOS-11 | 2026-09-06 01:44:39 | 50.53181 | 9.17454 | 122° | 60km/h | 3896m | -3.3m/s | 0.6°C | 2.5% | 642.2hPa | 2.7V | 07:28:05 | 03:26:37 | 00:00:00 | |
| DL1NUX | 2026-09-06 01:44:35 | 50.53214 | 9.17372 | 122° | 62km/h | 3910m | -3.4m/s | 0.7°C | 2.8% | 641.3hPa | 2.7V | 07:28:09 | 03:26:33 | 00:00:00 | |
| DJ8HS-15 | 2026-09-06 01:44:35 | 50.53172 | 9.17475 | 124° | 60km/h | 3893m | -3.4m/s | 0.6°C | 2.4% | 642.5hPa | 2.7V | 00:00:00 | 03:26:38 | 00:00:00 | |
| DM0DOS-11 | 2026-09-06 01:44:34 | 50.53222 | 9.17352 | 121° | 62km/h | 3913m | -3.4m/s | 0.6°C | 2.7% | 641hPa | 2.7V | 07:28:10 | 03:26:32 | 00:00:00 | |
| BIOWL9-15 | 2026-09-06 01:44:30 | 50.53222 | 9.17352 | 121° | 60km/h | 3913m | -3.4m/s | 0.6°C | 2.7% | 641.0hPa | 2.6V | 00:00:00 | 00:00:00 | 00:00:00 | |
| DL1NUX | 2026-09-06 01:44:29 | 50.53264 | 9.17249 | 122° | 62km/h | 3930m | -3.5m/s | 0.6°C | 2.5% | 639.6hPa | 2.6V | 07:28:15 | 03:26:27 | 00:00:00 | |
| BIOWL1-15 | 2026-09-06 01:44:29 | 50.53222 | 9.17352 | 122° | 62km/h | 3913m | -3.4m/s | 0.6°C | 0% | 641hPa | 2.7V | 07:29:00 | 03:26:32 | 00:00:00 | |
| DB0ND-19 | 2026-09-06 01:44:28 | 50.53230 | 9.17331 | 122° | 60km/h | 3917m | -3.5m/s | 0.6°C | 2.7% | 640.6hPa | 2.7V | 00:00:00 | 00:00:00 | 00:00:00 | |
| DD1CC3-15 | 2026-09-06 01:44:27 | 50.53230 | 9.17331 | 124° | 60km/h | 3917m | -3.5m/s | 0.6°C | 2.7% | 640.7hPa | 2.7V | 07:29:00 | 00:00:00 | 00:00:00 | |
| NBG1-10 | 2026-09-06 01:44:26 | 50.53247 | 9.17290 | 123° | 60km/h | 3923m | -3.3m/s | 0.6°C | 2.6% | 640.0hPa | 2.7V | 00:00:00 | 03:26:29 | 00:00:00 | |
| DL1ZP-14 | 2026-09-06 01:44:25 | 50.53255 | 9.17270 | 123° | 60km/h | 3927m | -3.4m/s | 0.6°C | 2.5% | 639.9hPa | 2.7V | 00:00:00 | 00:00:00 | 00:00:00 | |
| DM0DOS-11 | 2026-09-06 01:44:19 | 50.53307 | 9.17148 | 124° | 62km/h | 3947m | -3.5m/s | 0.5°C | 2.1% | 638.2hPa | 2.7V | 07:28:20 | 03:26:22 | 00:00:00 | |
| DL1NUX | 2026-09-06 01:44:19 | 50.53350 | 9.17048 | 123° | 62km/h | 3964m | -3.4m/s | 0.4°C | 2% | 636.9hPa | 2.7V | 07:28:25 | 03:26:17 | 00:00:00 | |
| BIOWL1-15 | 2026-09-06 01:44:18 | 50.53324 | 9.17108 | 124° | 62km/h | 3954m | -3.3m/s | 0.5°C | 0% | 637.7hPa | 2.6V | 07:29:00 | 03:26:20 | 00:00:00 | |
| DB0NH | 2026-09-06 01:44:18 | 50.53315 | 9.17128 | 125° | 60km/h | 3951m | -3.3m/s | 0.4°C | 2.1% | 637.9hPa | 2.7V | 00:00:00 | 03:26:21 | 00:00:00 | |
| DJ8HS-15 | 2026-09-06 01:44:15 | 50.53342 | 9.17068 | 125° | 60km/h | 3961m | -3.4m/s | 0.4°C | 2.0% | 637.2hPa | 2.7V | 00:00:00 | 03:26:18 | 00:00:00 | |
| DB0DAN | 2026-09-06 01:44:10 | 50.53384 | 9.16967 | 122° | 57km/h | 3978m | -3.5m/s | 0.3°C | 2% | 635.93hPa | 2.7V | 00:00:00 | 00:00:00 | 00:00:00 | |
| DM0DOS-11 | 2026-09-06 01:44:09 | 50.53392 | 9.16947 | 122° | 60km/h | 3981m | -3.5m/s | 0.3°C | 2% | 635.6hPa | 2.6V | 07:28:30 | 03:26:12 | 00:00:00 | |
| HSKMA3-T | 2026-09-06 01:44:08 | 50.53400 | 9.16926 | 121° | 60km/h | 3984m | -3.4m/s | 0.3°C | 0% | 635.2hPa | 2.6V | 07:30:42 | 03:26:11 | 00:00:00 | |
| BIOWL1-15 | 2026-09-06 01:44:08 | 50.53424 | 9.16865 | 121° | 60km/h | 3994m | -3.5m/s | 0.2°C | 0% | 634.5hPa | 2.7V | 07:29:00 | 03:26:08 | 00:00:00 | |
| DL1NUX | 2026-09-06 01:44:05 | 50.53432 | 9.16844 | 121° | 60km/h | 3998m | -3.5m/s | 0.2°C | 2.1% | 634.2hPa | 2.7V | 07:28:35 | 03:26:07 | 00:00:00 | |
| DL1NUX | 2026-09-06 01:44:05 | 50.53471 | 9.16742 | 121° | 60km/h | 4015m | -3.4m/s | 0.2°C | 2.1% | 632.8hPa | 2.7V | 07:28:40 | 03:26:02 | 00:00:00 | |
| BIOWL1-15 | 2026-09-06 01:43:58 | 50.53495 | 9.16681 | 122° | 60km/h | 4025m | -3.5m/s | 0.1°C | 0% | 632hPa | 2.7V | 07:29:00 | 03:25:59 | 00:00:00 | |
| HSKMA3-T | 2026-09-06 01:43:57 | 50.53487 | 9.16701 | 121° | 60km/h | 4022m | -3.4m/s | 0.2°C | 0% | 632.3hPa | 2.7V | 07:30:42 | 03:26:00 | 00:00:00 | |
| DL1NUX | 2026-09-06 01:43:54 | 50.53511 | 9.16640 | 121° | 60km/h | 4032m | -3.5m/s | 0.1°C | 2.2% | 631.6hPa | 2.6V | 07:28:45 | 03:25:57 | 00:00:00 | |
| DL1NUX | 2026-09-06 01:43:54 | 50.53549 | 9.16537 | 120° | 60km/h | 4049m | -3.5m/s | 0°C | 2.2% | 630.1hPa | 2.7V | 07:28:50 | 03:25:52 | 00:00:00 | |
| DL1ZP-14 | 2026-09-06 01:43:54 | 50.53519 | 9.16619 | 120° | 60km/h | 4036m | -3.5m/s | 0.1°C | 2.2% | 631.2hPa | 2.6V | 00:00:00 | 00:00:00 | 00:00:00 | |
| DD1CC8 | 2026-09-06 01:43:52 | 50.53534 | 9.16578 | 120° | 60km/h | 4042m | -3.4m/s | 0.0°C | 2.2% | 630.7hPa | 2.7V | 00:00:00 | 00:00:00 | 00:00:00 | |
| DL1NUX | 2026-09-06 01:43:49 | 50.53588 | 9.16433 | 120° | 60km/h | 4067m | -3.5m/s | -0.1°C | 2.2% | 628.8hPa | 2.7V | 07:28:55 | 03:25:47 | 00:00:00 | |
| BIOWL1-15 | 2026-09-06 01:43:45 | 50.53580 | 9.16454 | 120° | 60km/h | 4064m | -3.6m/s | -0.1°C | 0% | 629hPa | 2.7V | 07:29:00 | 03:25:48 | 00:00:00 | |
| DM0DOS-11 | 2026-09-06 01:43:39 | 50.53628 | 9.16329 | 122° | 60km/h | 4085m | -3.4m/s | -0.1°C | 2.1% | 627.4hPa | 2.6V | 07:29:00 | 03:25:42 | 00:00:00 | |
| DL1NUX | 2026-09-06 01:43:39 | 50.53669 | 9.16227 | 122° | 60km/h | 4102m | -3.5m/s | -0.2°C | 2% | 626hPa | 2.7V | 07:29:05 | 03:25:37 | 00:00:00 | |
| BIOWL1-15 | 2026-09-06 01:43:35 | 50.53661 | 9.16248 | 122° | 60km/h | 4099m | -3.5m/s | -0.2°C | 0% | 626.3hPa | 2.7V | 07:29:51 | 03:25:38 | 00:00:00 | |
| DJ8HS-15 | 2026-09-06 01:43:35 | 50.53661 | 9.16247 | 123° | 60km/h | 4099m | -3.5m/s | -0.1°C | 2.0% | 626.2hPa | 2.7V | 00:00:00 | 03:25:38 | 00:00:00 | |
| DF7PN | 2026-09-06 01:43:33 | 50.53686 | 9.16186 | 121° | 60km/h | 4109m | -3.4m/s | -0.2°C | 2.1% | 625.6hPa | 2.7V | 00:00:00 | 00:00:00 | 00:00:00 | |
| DM0DOS-11 | 2026-09-06 01:43:29 | 50.53709 | 9.16124 | 121° | 60km/h | 4119m | -3.5m/s | -0.2°C | 2% | 624.8hPa | 2.7V | 07:29:10 | 03:25:32 | 00:00:00 | |
| DL1NUX | 2026-09-06 01:43:29 | 50.53749 | 9.16021 | 122° | 60km/h | 4137m | -3.4m/s | -0.3°C | 2.2% | 623.4hPa | 2.6V | 07:29:15 | 03:25:27 | 00:00:00 | |
| BIOWL1-15 | 2026-09-06 01:43:26 | 50.53758 | 9.16001 | 122° | 62km/h | 4140m | -3.4m/s | -0.3°C | 0% | 623.1hPa | 2.7V | 07:29:51 | 03:25:26 | 00:00:00 | |
| DB0ND-19 | 2026-09-06 01:43:26 | 50.53733 | 9.16062 | 121° | 60km/h | 4130m | -3.5m/s | -0.3°C | 2.0% | 623.8hPa | 2.7V | 00:00:00 | 00:00:00 | 00:00:00 | |
| DD1CC3-15 | 2026-09-06 01:43:25 | 50.53733 | 9.16062 | 123° | 60km/h | 4130m | -3.5m/s | -0.3°C | 2.0% | 623.8hPa | 2.7V | 07:29:00 | 00:00:00 | 00:00:00 | |
| DL1ZP-14 | 2026-09-06 01:43:23 | 50.53766 | 9.15980 | 122° | 60km/h | 4143m | -3.4m/s | -0.4°C | 2.4% | 622.9hPa | 2.7V | 00:00:00 | 00:00:00 | 00:00:00 | |
| DL1NUX | 2026-09-06 01:43:19 | 50.53791 | 9.15919 | 122° | 60km/h | 4154m | -3.6m/s | -0.4°C | 2.7% | 622hPa | 2.7V | 07:29:20 | 03:25:22 | 00:00:00 | |
| DL1NUX | 2026-09-06 01:43:19 | 50.53832 | 9.15816 | 122° | 62km/h | 4172m | -3.5m/s | -0.4°C | 3.3% | 620.6hPa | 2.7V | 07:29:25 | 03:25:17 | 00:00:00 | |
| HSKMA3-T | 2026-09-06 01:43:15 | 50.53824 | 9.15836 | 122° | 62km/h | 4168m | -3.6m/s | -0.4°C | 0% | 620.9hPa | 2.7V | 07:30:42 | 03:25:18 | 00:00:00 | |
| BIOWL1-15 | 2026-09-06 01:43:15 | 50.53840 | 9.15795 | 122° | 62km/h | 4176m | -3.5m/s | -0.5°C | 1.4% | 620.3hPa | 2.7V | 07:29:51 | 03:25:16 | 00:00:00 | |
| DJ8HS-15 | 2026-09-06 01:43:15 | 50.53824 | 9.15836 | 122° | 62km/h | 4169m | -3.6m/s | -0.4°C | 2.9% | 620.8hPa | 2.7V | 00:00:00 | 03:25:18 | 00:00:00 | |
| DL1NUX | 2026-09-06 01:43:14 | 50.53873 | 9.15712 | 122° | 62km/h | 4190m | -3.6m/s | -0.6°C | 4.2% | 619.3hPa | 2.7V | 07:29:30 | 03:25:12 | 00:00:00 | |
| DL1NUX | 2026-09-06 01:43:09 | 50.53915 | 9.15608 | 122° | 62km/h | 4207m | -3.5m/s | -0.6°C | 4% | 617.8hPa | 2.6V | 07:29:35 | 03:25:07 | 00:00:00 | |
| BIOWL1-15 | 2026-09-06 01:43:02 | 50.53941 | 9.15546 | 123° | 62km/h | 4218m | -3.5m/s | -0.7°C | 1.4% | 617.1hPa | 2.7V | 07:29:51 | 03:25:04 | 00:00:00 | |
| DF7PN | 2026-09-06 01:43:02 | 50.53941 | 9.15546 | 122° | 62km/h | 4218m | -3.5m/s | -0.7°C | 3.9% | 617.1hPa | 2.7V | 00:00:00 | 00:00:00 | 00:00:00 | |
| DM0DOS-11 | 2026-09-06 01:42:59 | 50.53958 | 9.15504 | 122° | 62km/h | 4225m | -3.5m/s | -0.7°C | 3.1% | 616.5hPa | 2.7V | 07:29:40 | 03:25:02 | 00:00:00 | |
| DL1NUX | 2026-09-06 01:42:59 | 50.53999 | 9.15399 | 122° | 62km/h | 4243m | -3.5m/s | -0.8°C | 4.2% | 615.1hPa | 2.7V | 07:29:45 | 03:24:57 | 00:00:00 | |
| DB0ND-19 | 2026-09-06 01:42:55 | 50.53991 | 9.15420 | 121° | 62km/h | 4239m | -3.6m/s | -0.7°C | 4.0% | 615.4hPa | 2.7V | 00:00:00 | 00:00:00 | 00:00:00 | |
| DL1ZP-14 | 2026-09-06 01:42:52 | 50.54025 | 9.15336 | 122° | 62km/h | 4253m | -3.5m/s | -0.8°C | 4.3% | 614.3hPa | 2.7V | 00:00:00 | 00:00:00 | 00:00:00 | |
| DM0DOS-11 | 2026-09-06 01:42:49 | 50.54042 | 9.15293 | 122° | 62km/h | 4260m | -3.5m/s | -0.9°C | 4.2% | 613.8hPa | 2.6V | 07:29:50 | 03:24:52 | 00:00:00 | |
| DL1NUX | 2026-09-06 01:42:49 | 50.54084 | 9.15187 | 122° | 62km/h | 4278m | -3.5m/s | -1°C | 3.6% | 612.4hPa | 2.7V | 07:29:55 | 03:24:47 | 00:00:00 | |
| BIOWL1-15 | 2026-09-06 01:42:49 | 50.54059 | 9.15251 | 122° | 62km/h | 4268m | -3.6m/s | -0.9°C | 2% | 613.3hPa | 2.7V | 07:30:42 | 03:24:50 | 00:00:00 | |
| HSKMA3-T | 2026-09-06 01:42:45 | 50.54076 | 9.15208 | 121° | 62km/h | 4275m | -3.6m/s | -1°C | 1.5% | 612.7hPa | 2.7V | 07:30:42 | 03:24:48 | 00:00:00 | |
| DD1CC3-15 | 2026-09-06 01:42:43 | 50.54084 | 9.15187 | 123° | 62km/h | 4278m | -3.6m/s | -1.0°C | 3.5% | 612.4hPa | 2.7V | 07:30:00 | 00:00:00 | 00:00:00 | |
| DL1NUX | 2026-09-06 01:42:39 | 50.54126 | 9.15080 | 121° | 62km/h | 4296m | -3.5m/s | -1.1°C | 3.7% | 611hPa | 2.7V | 07:30:00 | 03:24:42 | 00:00:00 | |
| DL1NUX | 2026-09-06 01:42:39 | 50.54167 | 9.14971 | 120° | 64km/h | 4313m | -3.5m/s | -1.2°C | 3.8% | 609.7hPa | 2.7V | 07:30:05 | 03:24:37 | 00:00:00 | |
| BIOWL1-15 | 2026-09-06 01:42:36 | 50.54150 | 9.15015 | 121° | 64km/h | 4306m | -3.5m/s | -1.2°C | 1.2% | 610.2hPa | 2.6V | 07:30:42 | 03:24:39 | 00:00:00 | |
| DJ8HS-15 | 2026-09-06 01:42:35 | 50.54158 | 9.14993 | 120° | 64km/h | 4310m | -3.4m/s | -1.1°C | 3.8% | 609.8hPa | 2.7V | 00:00:00 | 03:24:38 | 00:00:00 | |
| DF7PN | 2026-09-06 01:42:31 | 50.54199 | 9.14882 | 119° | 64km/h | 4327m | -3.5m/s | -1.3°C | 3.9% | 608.6hPa | 2.7V | 00:00:00 | 00:00:00 | 00:00:00 | |
| DL1NUX | 2026-09-06 01:42:29 | 50.54248 | 9.14748 | 119° | 64km/h | 4349m | -3.6m/s | -1.5°C | 4.8% | 607hPa | 2.7V | 07:30:15 | 03:24:27 | 00:00:00 | |
| BIOWL1-15 | 2026-09-06 01:42:25 | 50.54240 | 9.14771 | 119° | 66km/h | 4345m | -3.6m/s | -1.5°C | 2.4% | 607.3hPa | 2.7V | 07:30:42 | 03:24:28 | 00:00:00 | |
| DB0ND-19 | 2026-09-06 01:42:24 | 50.54248 | 9.14748 | 119° | 64km/h | 4349m | -3.6m/s | -1.5°C | 4.7% | 607.0hPa | 2.7V | 00:00:00 | 00:00:00 | 00:00:00 | |
| DD1CC3-15 | 2026-09-06 01:42:23 | 50.54248 | 9.14748 | 121° | 64km/h | 4349m | -3.6m/s | -1.5°C | 4.7% | 607.0hPa | 2.7V | 07:30:00 | 00:00:00 | 00:00:00 | |
| DM0DOS-11 | 2026-09-06 01:42:19 | 50.54289 | 9.14636 | 120° | 64km/h | 4366m | -3.6m/s | -1.6°C | 5.2% | 605.6hPa | 2.7V | 07:30:20 | 03:24:22 | 00:00:00 | |
| DL1NUX | 2026-09-06 01:42:19 | 50.54330 | 9.14525 | 121° | 64km/h | 4384m | -3.6m/s | -1.7°C | 4.3% | 604.2hPa | 2.6V | 07:30:25 | 03:24:17 | 00:00:00 | |
| HSKMA3-T | 2026-09-06 01:42:17 | 50.54305 | 9.14592 | 120° | 64km/h | 4374m | -3.7m/s | -1.7°C | 3.1% | 605.2hPa | 2.7V | 07:30:42 | 03:24:20 | 00:00:00 | |
| BIOWL1-15 | 2026-09-06 01:42:16 | 50.54330 | 9.14525 | 121° | 64km/h | 4385m | -3.6m/s | -1.7°C | 2.1% | 604.2hPa | 2.6V | 07:30:42 | 03:24:17 | 00:00:00 | |
| SO1NDE-10 | 2026-09-06 01:42:16 | 50.54314 | 9.14569 | 121° | 66km/h | 4377m | -3.5m/s | -1.6°C | 4.6% | 604.8hPa | 2.7V | 00:00:00 | 03:24:19 | 00:00:00 | |
| DJ8HS-15 | 2026-09-06 01:42:15 | 50.54322 | 9.14547 | 121° | 66km/h | 4381m | -3.7m/s | -1.7°C | 4.4% | 604.6hPa | 2.7V | 07:30:00 | 03:24:18 | 00:00:00 | |
| NBG1-10 | 2026-09-06 01:42:14 | 50.54330 | 9.14525 | 122° | 66km/h | 4385m | -3.5m/s | -1.7°C | 4.3% | 604.2hPa | 2.7V | 00:00:00 | 03:24:17 | 00:00:00 | |
| DM0DOS-11 | 2026-09-06 01:42:09 | 50.54373 | 9.14414 | 121° | 64km/h | 4402m | -3.4m/s | -1.8°C | 3.9% | 603hPa | 2.7V | 07:30:30 | 03:24:12 | 00:00:00 | |
| BIOWL1-15 | 2026-09-06 01:42:05 | 50.54424 | 9.14282 | 121° | 66km/h | 4424m | -3.7m/s | -1.9°C | 0.8% | 601.3hPa | 2.7V | 07:30:42 | 03:24:06 | 00:00:00 | |
| DL1NUX | 2026-09-06 01:42:04 | 50.54416 | 9.14304 | 121° | 64km/h | 4420m | -3.6m/s | -1.9°C | 3.6% | 601.7hPa | 2.7V | 07:30:35 | 03:24:07 | 00:00:00 | |
| DL1NUX | 2026-09-06 01:42:04 | 50.54459 | 9.14194 | 121° | 66km/h | 4438m | -3.6m/s | -2°C | 3.8% | 600.2hPa | 2.7V | 07:30:40 | 03:24:02 | 00:00:00 | |
| HSKMA3-T | 2026-09-06 01:41:57 | 50.54476 | 9.14149 | 122° | 66km/h | 4446m | -3.7m/s | -2.1°C | 1.8% | 599.6hPa | 2.7V | 07:30:42 | 03:24:00 | 00:00:00 | |
| DL0LBS | 2026-09-06 01:41:56 | 50.54476 | 9.14149 | 123° | 66km/h | 4446m | -3.7m/s | -2.1°C | 4.0% | 599.6hPa | 2.6V | 07:30:00 | 00:00:00 | 00:00:00 | |
| DL1NUX | 2026-09-06 01:41:54 | 50.54502 | 9.14083 | 122° | 64km/h | 4457m | -3.5m/s | -2.2°C | 4.2% | 598.8hPa | 2.6V | 07:30:45 | 03:23:57 | 00:00:00 | |
| DL1NUX | 2026-09-06 01:41:54 | 50.54547 | 9.13975 | 124° | 66km/h | 4475m | -3.7m/s | -2.3°C | 4.3% | 597.4hPa | 2.7V | 07:30:50 | 03:23:52 | 00:00:00 | |
| BIOWL1-15 | 2026-09-06 01:41:52 | 50.54520 | 9.14040 | 123° | 64km/h | 4464m | -3.6m/s | -2.2°C | 2.1% | 598.2hPa | 2.7V | 07:31:33 | 03:23:55 | 00:00:00 | |
| DL1ZP-14 | 2026-09-06 01:41:50 | 50.54547 | 9.13975 | 124° | 66km/h | 4475m | -3.7m/s | -2.3°C | 4.2% | 597.4hPa | 2.7V | 00:00:00 | 00:00:00 | 00:00:00 | |
| DL1NUX | 2026-09-06 01:41:49 | 50.54594 | 9.13865 | 123° | 68km/h | 4493m | -3.6m/s | -2.5°C | 4.3% | 596hPa | 2.7V | 07:30:55 | 03:23:47 | 00:00:00 | |
| HSKMA3-T | 2026-09-06 01:41:46 | 50.54575 | 9.13909 | 124° | 68km/h | 4486m | -3.6m/s | -2.4°C | 2.2% | 596.7hPa | 2.7V | 07:32:24 | 03:23:49 | 00:00:00 | |
| BIOWL1-15 | 2026-09-06 01:41:41 | 50.54622 | 9.13798 | 123° | 68km/h | 4504m | -3.9m/s | -2.5°C | 1.3% | 595.2hPa | 2.6V | 07:31:33 | 03:23:44 | 00:00:00 | |
| DB0DAN | 2026-09-06 01:41:40 | 50.54631 | 9.13776 | 123° | 64km/h | 4508m | -3.7m/s | -2.6°C | 3.7% | 595.05hPa | 2.6V | 00:00:00 | 00:00:00 | 00:00:00 | |
| DM0DOS-11 | 2026-09-06 01:41:39 | 50.54641 | 9.13754 | 123° | 68km/h | 4511m | -3.5m/s | -2.6°C | 3.7% | 594.7hPa | 2.7V | 07:31:00 | 03:23:42 | 00:00:00 | |
| DL1NUX | 2026-09-06 01:41:39 | 50.54688 | 9.13641 | 124° | 68km/h | 4529m | -3.6m/s | -2.7°C | 3.3% | 593.3hPa | 2.6V | 07:31:05 | 03:23:37 | 00:00:00 | |
| HSKMA3-T | 2026-09-06 01:41:36 | 50.54669 | 9.13686 | 123° | 68km/h | 4522m | -3.7m/s | -2.6°C | 0.5% | 593.9hPa | 2.7V | 07:32:24 | 03:23:39 | 00:00:00 | |
| BIOWL1-15 | 2026-09-06 01:41:32 | 50.54727 | 9.13551 | 125° | 68km/h | 4544m | -3.7m/s | -2.7°C | 0.3% | 592.2hPa | 2.7V | 07:31:33 | 03:23:33 | 00:00:00 | |
| DM0DOS-11 | 2026-09-06 01:41:29 | 50.54737 | 9.13529 | 124° | 69km/h | 4547m | -3.7m/s | -2.7°C | 3.2% | 591.9hPa | 2.7V | 07:31:10 | 03:23:32 | 00:00:00 | |
| DF7PN | 2026-09-06 01:41:28 | 50.54747 | 9.13506 | 124° | 68km/h | 4551m | -3.7m/s | -2.7°C | 3.0% | 591.7hPa | 2.7V | 00:00:00 | 00:00:00 | 00:00:00 | |
| DB0DAN | 2026-09-06 01:41:25 | 50.54776 | 9.13439 | 125° | 66km/h | 4562m | -3.5m/s | -2.7°C | 2.9% | 590.82hPa | 2.7V | 00:00:00 | 00:00:00 | 00:00:00 | |
| DL1NUX | 2026-09-06 01:41:24 | 50.54834 | 9.13303 | 122° | 69km/h | 4584m | -3.7m/s | -2.6°C | 3.9% | 589.2hPa | 2.7V | 07:31:20 | 03:23:22 | 00:00:00 | |
| HSKMA3-T | 2026-09-06 01:41:20 | 50.54825 | 9.13326 | 123° | 68km/h | 4580m | -3.7m/s | -2.6°C | 0.9% | 589.5hPa | 2.6V | 07:32:24 | 03:23:23 | 00:00:00 | |
| DB0NH | 2026-09-06 01:41:18 | 50.54843 | 9.13280 | 123° | 69km/h | 4588m | -3.6m/s | -2.6°C | 4.2% | 589.0hPa | 2.7V | 00:00:00 | 03:23:21 | 00:00:00 | |
| SO1NDE-10 | 2026-09-06 01:41:16 | 50.54862 | 9.13234 | 122° | 69km/h | 4595m | -3.6m/s | -2.6°C | 4.5% | 588.4hPa | 2.6V | 00:00:00 | 03:23:19 | 00:00:00 | |
| DJ8HS-15 | 2026-09-06 01:41:15 | 50.54871 | 9.13211 | 123° | 69km/h | 4599m | -3.8m/s | -2.6°C | 4.8% | 588.1hPa | 2.6V | 00:00:00 | 03:23:18 | 00:00:00 | |
| DL1NUX | 2026-09-06 01:41:14 | 50.54926 | 9.13071 | 121° | 69km/h | 4620m | -3.5m/s | -2.8°C | 6.5% | 586.6hPa | 2.6V | 07:31:30 | 03:23:12 | 00:00:00 | |
| DB0DAN | 2026-09-06 01:41:10 | 50.54917 | 9.13094 | 122° | 66km/h | 4617m | -3.7m/s | -2.8°C | 6.3% | 586.86hPa | 2.7V | 00:00:00 | 00:00:00 | 00:00:00 | |
| HSKMA3-T | 2026-09-06 01:41:09 | 50.54926 | 9.13071 | 122° | 69km/h | 4620m | -3.5m/s | -2.8°C | 5.6% | 586.6hPa | 2.6V | 07:32:24 | 03:23:12 | 00:00:00 | |
| DL1NUX | 2026-09-06 01:41:09 | 50.54973 | 9.12955 | 121° | 69km/h | 4638m | -3.7m/s | -2.9°C | 6.4% | 585.1hPa | 2.7V | 07:31:35 | 03:23:07 | 00:00:00 | |
| NBG1-10 | 2026-09-06 01:41:08 | 50.54936 | 9.13048 | 122° | 71km/h | 4624m | -3.7m/s | -2.7°C | 6.9% | 586.2hPa | 2.6V | 00:00:00 | 03:23:11 | 00:00:00 | |
| DM7RM-13 | 2026-09-06 01:41:07 | 50.54935 | 9.13048 | 123° | 69km/h | 4624m | -3.8m/s | -2.8°C | 6.7% | 586.2hPa | 2.7V | 00:00:00 | 00:00:00 | 00:00:00 | |
| HARRO8 | 2026-09-06 01:41:05 | 50.54964 | 9.12978 | 122° | 68km/h | 4635m | -3.6m/s | -2.9°C | 6.2% | 585.6hPa | 2.7V | 00:00:00 | 00:00:00 | 00:00:00 | |
| DM0DOS-11 | 2026-09-06 01:40:59 | 50.55021 | 9.12838 | 123° | 71km/h | 4657m | -3.8m/s | -3°C | 6.2% | 583.9hPa | 2.7V | 07:31:40 | 03:23:02 | 00:00:00 | |
| BIOWL1-15 | 2026-09-06 01:40:59 | 50.55021 | 9.12838 | 123° | 71km/h | 4657m | -3.8m/s | -3°C | 5.1% | 583.9hPa | 2.7V | 07:32:24 | 03:23:02 | 00:00:00 | |
| DF7PN | 2026-09-06 01:40:57 | 50.55041 | 9.12791 | 123° | 69km/h | 4664m | -3.7m/s | -3.0°C | 5.5% | 583.3hPa | 2.6V | 00:00:00 | 00:00:00 | 00:00:00 | |
| DB0DAN | 2026-09-06 01:40:55 | 50.55061 | 9.12744 | 124° | 68km/h | 4671m | -3.8m/s | -3.1°C | 5.6% | 582.79hPa | 2.6V | 00:00:00 | 00:00:00 | 00:00:00 | |
| HSKMA3-T | 2026-09-06 01:40:50 | 50.55111 | 9.12626 | 124° | 73km/h | 4690m | -3.7m/s | -3.2°C | 5% | 581.5hPa | 2.6V | 07:32:24 | 03:22:53 | 00:00:00 | |
| BIOWL1-15 | 2026-09-06 01:40:48 | 50.55181 | 9.12457 | 122° | 73km/h | 4715m | -3.7m/s | -3.3°C | 7% | 579.5hPa | 2.6V | 07:32:24 | 03:22:46 | 00:00:00 | |
| DL1ZP-14 | 2026-09-06 01:40:47 | 50.55142 | 9.12555 | 122° | 71km/h | 4701m | -3.6m/s | -3.2°C | 6.6% | 580.6hPa | 2.7V | 00:00:00 | 00:00:00 | 00:00:00 | |
| DD1CC8 | 2026-09-06 01:40:45 | 50.55161 | 9.12506 | 122° | 71km/h | 4708m | -3.7m/s | -3.2°C | 6.9% | 580.1hPa | 2.6V | 00:00:00 | 00:00:00 | 00:00:00 | |
| DB0DAN | 2026-09-06 01:40:40 | 50.55210 | 9.12383 | 122° | 69km/h | 4726m | -3.7m/s | -3.3°C | 7% | 578.8hPa | 2.6V | 00:00:00 | 00:00:00 | 00:00:00 | |
| DL1NUX | 2026-09-06 01:40:39 | 50.55220 | 9.12358 | 121° | 73km/h | 4730m | -3.8m/s | -3.3°C | 7.2% | 578.5hPa | 2.6V | 07:32:00 | 03:22:42 | 00:00:00 | |
| DL1NUX | 2026-09-06 01:40:39 | 50.55268 | 9.12234 | 120° | 73km/h | 4748m | -3.9m/s | -3.3°C | 6.7% | 577.1hPa | 2.7V | 07:32:05 | 03:22:37 | 00:00:00 | |
| HSKMA3-T | 2026-09-06 01:40:39 | 50.55220 | 9.12358 | 121° | 73km/h | 4730m | -3.8m/s | -3.3°C | 6.6% | 578.5hPa | 2.6V | 07:32:24 | 03:22:42 | 00:00:00 | |
| BIOWL1-15 | 2026-09-06 01:40:34 | 50.55268 | 9.12234 | 121° | 73km/h | 4748m | -3.9m/s | -3.3°C | 5.9% | 577.1hPa | 2.7V | 07:32:24 | 03:22:37 | 00:00:00 | |
| DL0LBS | 2026-09-06 01:40:32 | 50.55277 | 9.12209 | 122° | 73km/h | 4752m | -3.7m/s | -3.3°C | 6.5% | 576.9hPa | 2.6V | 07:32:00 | 00:00:00 | 00:00:00 | |
| DL1NUX | 2026-09-06 01:40:29 | 50.55316 | 9.12108 | 120° | 73km/h | 4767m | -3.8m/s | -3.3°C | 6.7% | 575.8hPa | 2.6V | 07:32:10 | 03:22:32 | 00:00:00 | |
| DL1NUX | 2026-09-06 01:40:29 | 50.55363 | 9.11983 | 120° | 73km/h | 4785m | -3.6m/s | -3.4°C | 6.7% | 574.4hPa | 2.6V | 07:32:15 | 03:22:27 | 00:00:00 | |
| HSKMA3-T | 2026-09-06 01:40:29 | 50.55316 | 9.12108 | 121° | 73km/h | 4767m | -3.8m/s | -3.3°C | 6% | 575.8hPa | 2.6V | 07:32:24 | 03:22:32 | 00:00:00 | |
| DB0DAN | 2026-09-06 01:40:25 | 50.55354 | 9.12008 | 120° | 69km/h | 4782m | -3.6m/s | -3.4°C | 6.5% | 574.7hPa | 2.6V | 00:00:00 | 00:00:00 | 00:00:00 | |
| BIOWL1-15 | 2026-09-06 01:40:23 | 50.55373 | 9.11958 | 121° | 73km/h | 4789m | -3.8m/s | -3.4°C | 5.9% | 574.1hPa | 2.6V | 07:32:24 | 03:22:26 | 00:00:00 | |
| DB0UT-7 | 2026-09-06 01:40:23 | 50.55373 | 9.11958 | 121° | 73km/h | 4789m | -3.8m/s | -3.4°C | 6.7% | 574.0hPa | 2.6V | 00:00:00 | 00:00:00 | 00:00:00 | |
| DM0DOS-11 | 2026-09-06 01:40:21 | 50.55410 | 9.11859 | 121° | 73km/h | 4804m | -3.8m/s | -3.5°C | 6.9% | 573hPa | 2.6V | 07:32:20 | 03:22:22 | 00:00:00 | |
| HSKMA3-T | 2026-09-06 01:40:17 | 50.55430 | 9.11809 | 121° | 73km/h | 4811m | -3.8m/s | -3.5°C | 6.2% | 572.4hPa | 2.6V | 07:32:24 | 03:22:20 | 00:00:00 | |
| DM0DOS-11 | 2026-09-06 01:40:14 | 50.55459 | 9.11735 | 122° | 73km/h | 4823m | -3.8m/s | -3.6°C | 7.1% | 571.6hPa | 2.6V | 07:32:25 | 03:22:17 | 00:00:00 | |
| BIOWL1-15 | 2026-09-06 01:40:14 | 50.55469 | 9.11710 | 122° | 73km/h | 4827m | -3.9m/s | -3.6°C | 6.5% | 571.3hPa | 2.6V | 07:33:15 | 03:22:16 | 00:00:00 | |
| DL0LBS | 2026-09-06 01:40:11 | 50.55479 | 9.11686 | 123° | 73km/h | 4830m | -3.9m/s | -3.6°C | 6.9% | 571.1hPa | 2.6V | 07:33:00 | 00:00:00 | 00:00:00 | |
| DL1NUX | 2026-09-06 01:40:09 | 50.55508 | 9.11612 | 123° | 73km/h | 4841m | -3.7m/s | -3.6°C | 10.6% | 570.2hPa | 2.6V | 07:32:30 | 03:22:12 | 00:00:00 | |
| DL1NUX | 2026-09-06 01:40:09 | 50.55559 | 9.11490 | 123° | 73km/h | 4861m | -3.7m/s | -3.8°C | 12.4% | 568.9hPa | 2.6V | 07:32:35 | 03:22:07 | 00:00:00 | |
| BIOWL1-15 | 2026-09-06 01:40:07 | 50.55569 | 9.11465 | 123° | 75km/h | 4864m | -4m/s | -3.8°C | 14.2% | 568.6hPa | 2.6V | 07:33:15 | 03:22:06 | 00:00:00 | |
| HSKMA3-T | 2026-09-06 01:40:06 | 50.55538 | 9.11538 | 123° | 73km/h | 4853m | -3.9m/s | -3.7°C | 13.2% | 569.5hPa | 2.6V | 07:33:15 | 03:22:09 | 00:00:00 | |
| HARRO8 | 2026-09-06 01:40:03 | 50.55569 | 9.11465 | 123° | 73km/h | 4864m | -4.0m/s | -3.8°C | 12.3% | 568.6hPa | 2.6V | 00:00:00 | 00:00:00 | 00:00:00 | |
| NBG1-10 | 2026-09-06 01:40:02 | 50.55579 | 9.11440 | 124° | 77km/h | 4868m | -3.7m/s | -3.8°C | 12.6% | 568.2hPa | 2.6V | 00:00:00 | 03:22:05 | 00:00:00 | |
| DL1NUX | 2026-09-06 01:39:59 | 50.55667 | 9.11244 | 126° | 77km/h | 4900m | -4.1m/s | -4.1°C | 19.9% | 566.1hPa | 2.6V | 07:32:45 | 03:21:57 | 00:00:00 | |
| HSKMA3-T | 2026-09-06 01:39:55 | 50.55656 | 9.11269 | 126° | 75km/h | 4896m | -3.6m/s | -4°C | 19.9% | 566.5hPa | 2.6V | 07:33:15 | 03:21:58 | 00:00:00 | |
| BIOWL1-15 | 2026-09-06 01:39:52 | 50.55690 | 9.11195 | 127° | 77km/h | 4908m | -3.7m/s | -4.2°C | 26.3% | 565.5hPa | 2.6V | 07:33:15 | 03:21:55 | 00:00:00 | |
| BIOWL9-15 | 2026-09-06 01:39:50 | 50.55713 | 9.11147 | 127° | 75km/h | 4915m | -3.8m/s | -4.2°C | 25.0% | 565.0hPa | 2.6V | 00:00:00 | 00:00:00 | 00:00:00 | |
| DB0ND-19 | 2026-09-06 01:39:49 | 50.55725 | 9.11122 | 126° | 77km/h | 4919m | -4.0m/s | -4.2°C | 25.9% | 564.7hPa | 2.6V | 00:00:00 | 00:00:00 | 00:00:00 | |
| DL1NUX | 2026-09-06 01:39:49 | 50.55785 | 9.11001 | 127° | 78km/h | 4939m | -4m/s | -4.4°C | 32.2% | 563.2hPa | 2.6V | 07:32:55 | 03:21:47 | 00:00:00 | |
| DL1ZP-14 | 2026-09-06 01:39:45 | 50.55773 | 9.11025 | 128° | 77km/h | 4935m | -3.5m/s | -4.4°C | 30.3% | 563.5hPa | 2.6V | 00:00:00 | 00:00:00 | 00:00:00 | |
| HSKMA3-T | 2026-09-06 01:39:44 | 50.55785 | 9.11001 | 128° | 78km/h | 4939m | -4m/s | -4.4°C | 36.2% | 563.2hPa | 2.6V | 07:33:15 | 03:21:47 | 00:00:00 | |
| BIOWL1-15 | 2026-09-06 01:39:42 | 50.55810 | 9.10952 | 129° | 78km/h | 4947m | -4.2m/s | -4.4°C | 38.6% | 562.7hPa | 2.6V | 07:33:15 | 03:21:45 | 00:00:00 | |
| DO3DL | 2026-09-06 01:39:41 | 50.55810 | 9.10952 | 130° | 78km/h | 4947m | -4.2m/s | -4.4°C | 33.8% | 562.7hPa | 2.6V | 00:00:00 | 00:00:00 | 00:00:00 | |
| DL1NUX | 2026-09-06 01:39:39 | 50.55910 | 9.10762 | 129° | 78km/h | 4979m | -4m/s | -4.5°C | 39.7% | 560.5hPa | 2.6V | 07:33:05 | 03:21:37 | 00:00:00 | |
| HSKMA3-T | 2026-09-06 01:39:34 | 50.55910 | 9.10762 | 130° | 78km/h | 4979m | -4m/s | -4.6°C | 43.7% | 560.5hPa | 2.6V | 07:33:15 | 03:21:37 | 00:00:00 | |
| BIOWL1-15 | 2026-09-06 01:39:31 | 50.55949 | 9.10689 | 131° | 80km/h | 4991m | -4.3m/s | -4.6°C | 47.1% | 559.5hPa | 2.6V | 07:33:15 | 03:21:34 | 00:00:00 | |
| DL0LBS | 2026-09-06 01:39:30 | 50.55949 | 9.10689 | 132° | 80km/h | 4991m | -4.3m/s | -4.6°C | 42.2% | 559.5hPa | 2.6V | 07:33:00 | 00:00:00 | 00:00:00 | |
| NBG1-10 | 2026-09-06 01:39:29 | 50.55976 | 9.10640 | 131° | 80km/h | 4999m | -4.2m/s | -4.6°C | 43.5% | 559.0hPa | 2.6V | 00:00:00 | 03:21:32 | 00:00:00 | |
| DL1NUX | 2026-09-06 01:39:28 | 50.56060 | 9.10490 | 131° | 84km/h | 5023m | -3.9m/s | -4.6°C | 52.1% | 557.3hPa | 2.5V | 07:33:16 | 03:21:26 | 00:00:00 | |
| HSKMA3-T | 2026-09-06 01:39:24 | 50.56046 | 9.10515 | 131° | 84km/h | 5019m | -4.2m/s | -4.6°C | 55.7% | 557.6hPa | 2.6V | 07:33:15 | 03:21:27 | 00:00:00 | |
| DM0DOS-11 | 2026-09-06 01:39:21 | 50.56100 | 9.10416 | 130° | 82km/h | 5036m | -4.3m/s | -4.6°C | 52.8% | 556.4hPa | 2.6V | 07:33:19 | 03:21:23 | 00:00:00 | |
| BIOWL1-15 | 2026-09-06 01:39:21 | 50.56087 | 9.10441 | 131° | 82km/h | 5032m | -4.1m/s | -4.6°C | 56.1% | 556.7hPa | 2.6V | 07:34:06 | 03:21:24 | 00:00:00 | |
| BIOWL9-15 | 2026-09-06 01:39:19 | 50.56114 | 9.10391 | 130° | 80km/h | 5040m | -4.0m/s | -4.6°C | 52.0% | 556.0hPa | 2.6V | 00:00:00 | 00:00:00 | 00:00:00 | |
| DL1NUX | 2026-09-06 01:39:18 | 50.56193 | 9.10245 | 130° | 80km/h | 5065m | -4m/s | -4.4°C | 50.3% | 554.3hPa | 2.6V | 07:33:26 | 03:21:16 | 00:00:00 | |
| DB0NH | 2026-09-06 01:39:18 | 50.56127 | 9.10367 | 131° | 78km/h | 5044m | -4.1m/s | -4.5°C | 52.6% | 555.8hPa | 2.6V | 00:00:00 | 03:21:21 | 00:00:00 | |
| DB0UT-7 | 2026-09-06 01:39:17 | 50.56140 | 9.10342 | 131° | 78km/h | 5048m | -4.1m/s | -4.4°C | 52.3% | 555.4hPa | 2.6V | 00:00:00 | 00:00:00 | 00:00:00 | |
| SO1NDE-10 | 2026-09-06 01:39:16 | 50.56153 | 9.10318 | 131° | 78km/h | 5052m | -4.4m/s | -4.4°C | 51.9% | 555.2hPa | 2.6V | 00:00:00 | 03:21:19 | 00:00:00 | |
| DJ8HS-15 | 2026-09-06 01:39:15 | 50.56167 | 9.10293 | 130° | 80km/h | 5057m | -4.2m/s | -4.4°C | 51.2% | 554.9hPa | 2.6V | 00:00:00 | 03:21:18 | 00:00:00 | |
| DL1ZP-14 | 2026-09-06 01:39:14 | 50.56180 | 9.10269 | 130° | 80km/h | 5061m | -4.2m/s | -4.4°C | 49.6% | 554.6hPa | 2.6V | 00:00:00 | 00:00:00 | 00:00:00 | |
| HSKMA3-T | 2026-09-06 01:39:14 | 50.56180 | 9.10269 | 131° | 80km/h | 5061m | -4.2m/s | -4.4°C | 54.5% | 554.6hPa | 2.6V | 07:34:06 | 03:21:17 | 00:00:00 | |
| DM0DOS-11 | 2026-09-06 01:39:11 | 50.56233 | 9.10171 | 129° | 82km/h | 5077m | -4m/s | -4.3°C | 49% | 553.5hPa | 2.5V | 07:33:29 | 03:21:13 | 00:00:00 | |
| DO3DL | 2026-09-06 01:39:11 | 50.56220 | 9.10196 | 132° | 82km/h | 5073m | -4.4m/s | -4.3°C | 48.5% | 553.8hPa | 2.6V | 07:34:00 | 00:00:00 | 00:00:00 | |
| BIOWL1-15 | 2026-09-06 01:39:11 | 50.56220 | 9.10196 | 131° | 82km/h | 5073m | -4.4m/s | -4.4°C | 53.7% | 553.8hPa | 2.5V | 07:34:06 | 03:21:14 | 00:00:00 | |
| DL0LBS | 2026-09-06 01:39:10 | 50.56220 | 9.10196 | 132° | 82km/h | 5073m | -4.4m/s | -4.3°C | 48.5% | 553.8hPa | 2.6V | 07:34:00 | 00:00:00 | 00:00:00 | |
| DL1NUX | 2026-09-06 01:39:08 | 50.56326 | 9.10000 | 129° | 80km/h | 5106m | -4.3m/s | -4.1°C | 46.8% | 551.3hPa | 2.6V | 07:33:36 | 03:21:06 | 00:00:00 | |
| HSKMA3-T | 2026-09-06 01:39:03 | 50.56326 | 9.10000 | 130° | 80km/h | 5106m | -4.3m/s | -4.2°C | 51.7% | 551.3hPa | 2.6V | 07:34:06 | 03:21:06 | 00:00:00 | |
| BIOWL1-15 | 2026-09-06 01:39:02 | 50.56365 | 9.09928 | 130° | 78km/h | 5119m | -4.3m/s | -4.2°C | 53.1% | 550.6hPa | 2.6V | 07:34:06 | 03:21:03 | 00:00:00 | |
| DM0DOS-11 | 2026-09-06 01:39:01 | 50.56365 | 9.09928 | 130° | 78km/h | 5119m | -4.3m/s | -4.2°C | 48% | 550.6hPa | 2.6V | 07:33:39 | 03:21:03 | 00:00:00 | |
| BIOWL7-15 | 2026-09-06 01:39:00 | 50.56352 | 9.09952 | 131° | 78km/h | 5114m | -4.2m/s | -4.2°C | 46.8% | 550.8hPa | 2.5V | 00:00:00 | 00:00:00 | 00:00:00 | |
| DL1NUX | 2026-09-06 01:38:58 | 50.56456 | 9.09766 | 131° | 77km/h | 5148m | -4.3m/s | -4.4°C | 49% | 548.5hPa | 2.5V | 07:33:46 | 03:20:56 | 00:00:00 | |
| HSKMA3-T | 2026-09-06 01:38:53 | 50.56456 | 9.09766 | 132° | 77km/h | 5148m | -4.3m/s | -4.4°C | 54% | 548.5hPa | 2.5V | 07:34:06 | 03:20:56 | 00:00:00 | |
| DM0DOS-11 | 2026-09-06 01:38:51 | 50.56495 | 9.09698 | 132° | 77km/h | 5162m | -4.3m/s | -4.5°C | 49.6% | 547.6hPa | 2.6V | 07:33:49 | 03:20:53 | 00:00:00 | |
| BIOWL1-15 | 2026-09-06 01:38:50 | 50.56495 | 9.09698 | 133° | 77km/h | 5162m | -4.3m/s | -4.5°C | 54.6% | 547.6hPa | 2.6V | 07:34:06 | 03:20:53 | 00:00:00 | |
| BIOWL9-15 | 2026-09-06 01:38:48 | 50.56522 | 9.09653 | 132° | 75km/h | 5170m | -4.3m/s | -4.6°C | 49.4% | 547.1hPa | 2.5V | 00:00:00 | 00:00:00 | 00:00:00 | |
| DB0ND-19 | 2026-09-06 01:38:47 | 50.56548 | 9.09608 | 132° | 75km/h | 5179m | -4.2m/s | -4.6°C | 49.7% | 546.4hPa | 2.5V | 00:00:00 | 00:00:00 | 00:00:00 | |
| HSKMA3-T | 2026-09-06 01:38:42 | 50.56600 | 9.09519 | 133° | 77km/h | 5196m | -4.3m/s | -4.7°C | 56.8% | 545.2hPa | 2.5V | 07:34:06 | 03:20:45 | 00:00:00 | |
| DM0DOS-11 | 2026-09-06 01:38:41 | 50.56627 | 9.09475 | 133° | 77km/h | 5204m | -4.4m/s | -4.8°C | 52.4% | 544.7hPa | 2.6V | 07:33:59 | 03:20:43 | 00:00:00 | |
| BIOWL1-15 | 2026-09-06 01:38:39 | 50.56640 | 9.09453 | 133° | 77km/h | 5208m | -4.2m/s | -4.8°C | 57.3% | 544.4hPa | 2.6V | 07:34:06 | 03:20:42 | 00:00:00 | |
| DD1CC3-15 | 2026-09-06 01:38:37 | 50.56653 | 9.09431 | 134° | 77km/h | 5213m | -4.4m/s | -4.8°C | 51.6% | 544.1hPa | 2.5V | 07:34:00 | 00:00:00 | 00:00:00 | |
| DO3DL | 2026-09-06 01:38:36 | 50.56667 | 9.09408 | 134° | 77km/h | 5217m | -4.4m/s | -4.8°C | 51.7% | 543.7hPa | 2.5V | 07:34:00 | 00:00:00 | 00:00:00 | |
| DJ8HS-15 | 2026-09-06 01:38:35 | 50.56693 | 9.09365 | 135° | 77km/h | 5226m | -4.4m/s | -4.8°C | 53.1% | 543.1hPa | 2.5V | 00:00:00 | 03:20:38 | 00:00:00 | |
| DM0DOS-11 | 2026-09-06 01:38:31 | 50.56761 | 9.09257 | 135° | 77km/h | 5248m | -4.5m/s | -5.1°C | 54.2% | 541.6hPa | 2.5V | 07:34:09 | 03:20:33 | 00:00:00 | |
| HSKMA3-T | 2026-09-06 01:38:31 | 50.56748 | 9.09278 | 135° | 77km/h | 5243m | -4.5m/s | -5°C | 58.9% | 541.9hPa | 2.6V | 07:35:48 | 03:20:34 | 00:00:00 | |
| BIOWL1-15 | 2026-09-06 01:38:30 | 50.56789 | 9.09215 | 136° | 77km/h | 5257m | -4.6m/s | -5.2°C | 59% | 541hPa | 2.6V | 07:35:48 | 03:20:31 | 00:00:00 | |
| DL0LBS | 2026-09-06 01:38:29 | 50.56761 | 9.09257 | 136° | 77km/h | 5248m | -4.5m/s | -5.1°C | 53.1% | 541.6hPa | 2.6V | 07:34:00 | 00:00:00 | 00:00:00 | |
| DO3DL | 2026-09-06 01:38:28 | 50.56775 | 9.09236 | 136° | 75km/h | 5253m | -4.5m/s | -5.1°C | 53.3% | 541.3hPa | 2.6V | 07:34:00 | 00:00:00 | 00:00:00 | |
| NBG1-10 | 2026-09-06 01:38:23 | 50.56857 | 9.09110 | 136° | 78km/h | 5279m | -4.6m/s | -5.3°C | 55.8% | 539.5hPa | 2.6V | 00:00:00 | 03:20:26 | 00:00:00 | |
| DM0DOS-11 | 2026-09-06 01:38:21 | 50.56898 | 9.09048 | 136° | 75km/h | 5293m | -4.2m/s | -5.5°C | 56.3% | 538.6hPa | 2.6V | 07:34:19 | 03:20:23 | 00:00:00 | |
| HSKMA3-T | 2026-09-06 01:38:20 | 50.56898 | 9.09048 | 136° | 75km/h | 5293m | -4.2m/s | -5.5°C | 60.4% | 538.6hPa | 2.6V | 07:35:48 | 03:20:23 | 00:00:00 | |
| BIOWL1-15 | 2026-09-06 01:38:18 | 50.56925 | 9.09007 | 137° | 77km/h | 5302m | -4.6m/s | -5.6°C | 60.6% | 538hPa | 2.5V | 07:35:48 | 03:20:21 | 00:00:00 | |
| DB0NH | 2026-09-06 01:38:18 | 50.56925 | 9.09007 | 137° | 80km/h | 5302m | -4.6m/s | -5.5°C | 56.7% | 538.0hPa | 2.5V | 00:00:00 | 03:20:21 | 00:00:00 | |
| DB0UT-7 | 2026-09-06 01:38:17 | 50.56940 | 9.08986 | 138° | 80km/h | 5306m | -4.4m/s | -5.5°C | 57.5% | 537.6hPa | 2.6V | 00:00:00 | 00:00:00 | 00:00:00 | |
| DB0ND-19 | 2026-09-06 01:38:16 | 50.56968 | 9.08944 | 136° | 77km/h | 5315m | -4.6m/s | -5.7°C | 57.0% | 537.1hPa | 2.6V | 00:00:00 | 00:00:00 | 00:00:00 | |
| DJ8HS-15 | 2026-09-06 01:38:15 | 50.56968 | 9.08944 | 137° | 80km/h | 5315m | -4.6m/s | -5.6°C | 58.2% | 537.1hPa | 2.6V | 00:00:00 | 03:20:18 | 00:00:00 | |
| DL8OAI-8 | 2026-09-06 01:38:14 | 50.56968 | 9.08944 | 138° | 77km/h | 5315m | -4.6m/s | -5.6°C | 57.0% | 537.1hPa | 2.6V | 00:00:00 | 00:00:00 | 00:00:00 | |
| DO2KSM | 2026-09-06 01:38:13 | 50.56983 | 9.08923 | 138° | 78km/h | 5320m | -4.5m/s | -5.7°C | 57.3% | 536.8hPa | 2.6V | 07:34:00 | 00:00:00 | 00:00:00 | |
| DM0DOS-11 | 2026-09-06 01:38:11 | 50.57041 | 9.08836 | 136° | 78km/h | 5337m | -4.4m/s | -5.7°C | 58.7% | 535.5hPa | 2.6V | 07:34:29 | 03:20:13 | 00:00:00 | |
| BIOWL1-15 | 2026-09-06 01:38:10 | 50.57070 | 9.08792 | 136° | 80km/h | 5346m | -4.7m/s | -5.8°C | 61.4% | 534.9hPa | 2.5V | 07:35:48 | 03:20:11 | 00:00:00 | |
| HSKMA3-T | 2026-09-06 01:38:09 | 50.57056 | 9.08814 | 137° | 80km/h | 5342m | -4.3m/s | -5.8°C | 62% | 535.3hPa | 2.6V | 07:35:48 | 03:20:12 | 00:00:00 | |
| DL1NUX | 2026-09-06 01:38:08 | 50.57144 | 9.08683 | 136° | 80km/h | 5368m | -4.5m/s | -5.9°C | 56.1% | 533.4hPa | 2.6V | 07:34:36 | 03:20:06 | 00:00:00 | |
| DO3DL | 2026-09-06 01:38:07 | 50.57070 | 9.08792 | 137° | 80km/h | 5346m | -4.7m/s | -5.8°C | 56.3% | 534.9hPa | 2.6V | 07:34:00 | 00:00:00 | 00:00:00 | |
| DM0DOS-11 | 2026-09-06 01:38:04 | 50.57188 | 9.08618 | 137° | 80km/h | 5382m | -4.4m/s | -5.9°C | 53.1% | 532.5hPa | 2.6V | 07:34:39 | 03:20:03 | 00:00:00 | |
| HARRO8 | 2026-09-06 01:37:59 | 50.57203 | 9.08596 | 136° | 80km/h | 5386m | -4.5m/s | -5.9°C | 51.1% | 532.2hPa | 2.6V | 00:00:00 | 00:00:00 | 00:00:00 | |
| DL1NUX | 2026-09-06 01:37:58 | 50.57293 | 9.08463 | 136° | 80km/h | 5413m | -4.4m/s | -5.7°C | 45% | 530.4hPa | 2.6V | 07:34:46 | 03:19:56 | 00:00:00 | |
| HSKMA3-T | 2026-09-06 01:37:58 | 50.57218 | 9.08574 | 137° | 80km/h | 5390m | -4.6m/s | -5.9°C | 55.8% | 531.9hPa | 2.6V | 07:35:48 | 03:20:01 | 00:00:00 | |
| BIOWL1-15 | 2026-09-06 01:37:57 | 50.57233 | 9.08552 | 137° | 82km/h | 5395m | -4.4m/s | -5.9°C | 54.8% | 531.6hPa | 2.5V | 07:35:48 | 03:20:00 | 00:00:00 | |
| DF7PN | 2026-09-06 01:37:51 | 50.57324 | 9.08419 | 136° | 80km/h | 5421m | -4.5m/s | -5.8°C | 43.7% | 529.7hPa | 2.5V | 00:00:00 | 00:00:00 | 00:00:00 | |
| DM0DOS-11 | 2026-09-06 01:37:50 | 50.57339 | 9.08397 | 137° | 82km/h | 5426m | -4.5m/s | -5.8°C | 44.5% | 529.5hPa | 2.5V | 07:34:49 | 03:19:53 | 00:00:00 | |
| BIOWL1-15 | 2026-09-06 01:37:50 | 50.57399 | 9.08308 | 137° | 80km/h | 5444m | -4.6m/s | -5.9°C | 49% | 528.3hPa | 2.5V | 07:35:48 | 03:19:49 | 00:00:00 | |
| NBG1-10 | 2026-09-06 01:37:50 | 50.57339 | 9.08397 | 138° | 82km/h | 5426m | -4.4m/s | -5.8°C | 44.5% | 529.4hPa | 2.5V | 00:00:00 | 03:19:53 | 00:00:00 | |
| DL1NUX | 2026-09-06 01:37:48 | 50.57444 | 9.08241 | 136° | 82km/h | 5457m | -4.8m/s | -6°C | 44.4% | 527.4hPa | 2.6V | 07:34:56 | 03:19:46 | 00:00:00 | |
| HSKMA3-T | 2026-09-06 01:37:47 | 50.57384 | 9.08330 | 137° | 82km/h | 5439m | -4.7m/s | -5.9°C | 49.1% | 528.5hPa | 2.6V | 07:35:48 | 03:19:50 | 00:00:00 | |
| DB0UT-7 | 2026-09-06 01:37:47 | 50.57384 | 9.08330 | 137° | 82km/h | 5439m | -4.6m/s | -5.9°C | 44.3% | 528.5hPa | 2.6V | 00:00:00 | 03:19:50 | 00:00:00 | |
| SO1NDE-10 | 2026-09-06 01:37:46 | 50.57399 | 9.08308 | 137° | 82km/h | 5444m | -4.5m/s | -5.9°C | 44.1% | 528.2hPa | 2.6V | 00:00:00 | 03:19:49 | 00:00:00 | |
| DB0ND-19 | 2026-09-06 01:37:45 | 50.57429 | 9.08263 | 135° | 80km/h | 5453m | -4.4m/s | -6.0°C | 43.3% | 527.6hPa | 2.6V | 00:00:00 | 00:00:00 | 00:00:00 | |
| DL1ZP-14 | 2026-09-06 01:37:41 | 50.57474 | 9.08196 | 136° | 80km/h | 5466m | -4.7m/s | -6.1°C | 43.7% | 526.8hPa | 2.6V | 00:00:00 | 00:00:00 | 00:00:00 | |
| DM7RM-13 | 2026-09-06 01:37:40 | 50.57474 | 9.08195 | 137° | 82km/h | 5466m | -4.7m/s | -6.1°C | 43.7% | 526.7hPa | 2.6V | 07:35:00 | 00:00:00 | 00:00:00 | |
| DD1CC8 | 2026-09-06 01:37:39 | 50.57504 | 9.08150 | 135° | 80km/h | 5475m | -4.6m/s | -6.2°C | 44.0% | 526.2hPa | 2.6V | 00:00:00 | 00:00:00 | 00:00:00 | |
| DL1NUX | 2026-09-06 01:37:38 | 50.57594 | 9.08010 | 134° | 84km/h | 5502m | -4.4m/s | -6.4°C | 45.1% | 524.4hPa | 2.6V | 07:35:06 | 03:19:36 | 00:00:00 | |
| DD1CC3-15 | 2026-09-06 01:37:36 | 50.57534 | 9.08103 | 136° | 82km/h | 5484m | -4.4m/s | -6.2°C | 44.0% | 525.5hPa | 2.6V | 07:35:00 | 00:00:00 | 00:00:00 | |
| BIOWL1-15 | 2026-09-06 01:37:36 | 50.57549 | 9.08080 | 135° | 84km/h | 5489m | -4.6m/s | -6.3°C | 49.8% | 525.2hPa | 2.6V | 07:35:48 | 03:19:39 | 00:00:00 | |
| DJ8HS-15 | 2026-09-06 01:37:35 | 50.57564 | 9.08057 | 135° | 84km/h | 5493m | -4.3m/s | -6.3°C | 44.9% | 524.8hPa | 2.6V | 00:00:00 | 03:19:38 | 00:00:00 | |
| DL8OAI-8 | 2026-09-06 01:37:33 | 50.57579 | 9.08034 | 136° | 84km/h | 5498m | -4.7m/s | -6.3°C | 43.9% | 524.7hPa | 2.6V | 00:00:00 | 00:00:00 | 00:00:00 | |
| DO3DL | 2026-09-06 01:37:32 | 50.57593 | 9.08010 | 136° | 84km/h | 5502m | -4.4m/s | -6.4°C | 44.1% | 524.4hPa | 2.6V | 07:35:00 | 00:00:00 | 00:00:00 | |
| DO2KSM | 2026-09-06 01:37:29 | 50.57637 | 9.07939 | 135° | 84km/h | 5516m | -4.3m/s | -6.5°C | 44.5% | 523.6hPa | 2.6V | 07:35:00 | 00:00:00 | 00:00:00 | |
| DL1NUX | 2026-09-06 01:37:28 | 50.57740 | 9.07774 | 133° | 84km/h | 5547m | -4.4m/s | -6.7°C | 46.8% | 521.4hPa | 2.6V | 07:35:16 | 03:19:26 | 00:00:00 | |
| DL0LBS | 2026-09-06 01:37:27 | 50.57667 | 9.07892 | 135° | 84km/h | 5524m | -4.5m/s | -6.6°C | 44.8% | 522.8hPa | 2.6V | 00:00:00 | 00:00:00 | 00:00:00 | |
| DB0DAN | 2026-09-06 01:37:25 | 50.57711 | 9.07821 | 134° | 78km/h | 5538m | -4.5m/s | -6.7°C | 45.4% | 521.96hPa | 2.6V | 00:00:00 | 00:00:00 | 00:00:00 | |
| HSKMA3-T | 2026-09-06 01:37:25 | 50.57711 | 9.07821 | 134° | 82km/h | 5538m | -4.5m/s | -6.7°C | 51.3% | 522hPa | 2.6V | 07:35:48 | 03:19:28 | 00:00:00 | |
| DF7PN | 2026-09-06 01:37:20 | 50.57784 | 9.07703 | 133° | 82km/h | 5560m | -4.5m/s | -6.8°C | 46.2% | 520.5hPa | 2.6V | 00:00:00 | 00:00:00 | 00:00:00 | |
| DM7RM-13 | 2026-09-06 01:37:19 | 50.57784 | 9.07703 | 135° | 82km/h | 5560m | -4.5m/s | -6.8°C | 46.2% | 520.5hPa | 2.6V | 07:35:00 | 00:00:00 | 00:00:00 | |
| DL1NUX | 2026-09-06 01:37:18 | 50.57887 | 9.07536 | 133° | 82km/h | 5591m | -4.2m/s | -7°C | 49.7% | 518.4hPa | 2.6V | 07:35:26 | 03:19:16 | 00:00:00 | |
| BIOWL1-15 | 2026-09-06 01:37:17 | 50.57858 | 9.07584 | 134° | 82km/h | 5582m | -4.4m/s | -7°C | 53.6% | 519hPa | 2.6V | 07:35:48 | 03:19:18 | 00:00:00 | |
| HSKMA3-T | 2026-09-06 01:37:14 | 50.57872 | 9.07560 | 134° | 84km/h | 5587m | -4.4m/s | -7°C | 54.1% | 518.7hPa | 2.6V | 07:35:48 | 03:19:17 | 00:00:00 | |
| DB0ND-19 | 2026-09-06 01:37:14 | 50.57887 | 9.07536 | 133° | 82km/h | 5591m | -4.2m/s | -7.0°C | 48.6% | 518.4hPa | 2.5V | 00:00:00 | 00:00:00 | 00:00:00 | |
| DB0DAN | 2026-09-06 01:37:10 | 50.57930 | 9.07465 | 133° | 78km/h | 5604m | -4.6m/s | -7.1°C | 49% | 517.42hPa | 2.5V | 00:00:00 | 00:00:00 | 00:00:00 | |
| DL1ZP-14 | 2026-09-06 01:37:10 | 50.57930 | 9.07465 | 133° | 82km/h | 5604m | -4.6m/s | -7.1°C | 49.0% | 517.4hPa | 2.5V | 00:00:00 | 00:00:00 | 00:00:00 | |
| DL1NUX | 2026-09-06 01:37:08 | 50.58030 | 9.07296 | 132° | 82km/h | 5635m | -4.6m/s | -7.4°C | 51.1% | 515.4hPa | 2.5V | 07:35:36 | 03:19:06 | 00:00:00 | |
| BIOWL1-15 | 2026-09-06 01:37:05 | 50.58002 | 9.07345 | 133° | 82km/h | 5626m | -4.6m/s | -7.3°C | 55.6% | 516.1hPa | 2.6V | 07:35:48 | 03:19:08 | 00:00:00 | |
| HSKMA3-T | 2026-09-06 01:37:04 | 50.58016 | 9.07321 | 133° | 84km/h | 5631m | -4.6m/s | -7.4°C | 55.8% | 515.7hPa | 2.5V | 07:35:48 | 03:19:07 | 00:00:00 | |
| DO3DL | 2026-09-06 01:37:03 | 50.58016 | 9.07321 | 134° | 84km/h | 5631m | -4.6m/s | -7.4°C | 49.8% | 515.7hPa | 2.6V | 07:35:00 | 00:00:00 | 00:00:00 | |
| DM0DOS-11 | 2026-09-06 01:37:00 | 50.58073 | 9.07223 | 132° | 84km/h | 5649m | -4.7m/s | -7.5°C | 51.6% | 514.5hPa | 2.6V | 07:35:39 | 03:19:03 | 00:00:00 | |
| DM7RM-13 | 2026-09-06 01:36:59 | 50.58073 | 9.07223 | 134° | 84km/h | 5649m | -4.7m/s | -7.5°C | 50.4% | 514.6hPa | 2.6V | 07:35:00 | 00:00:00 | 00:00:00 | |
| DL1NUX | 2026-09-06 01:36:58 | 50.58173 | 9.07051 | 133° | 84km/h | 5681m | -4.5m/s | -7.8°C | 52.3% | 512.4hPa | 2.6V | 07:35:46 | 03:18:56 | 00:00:00 | |
| HARRO8 | 2026-09-06 01:36:57 | 50.58116 | 9.07150 | 132° | 82km/h | 5662m | -4.6m/s | -7.7°C | 50.6% | 513.6hPa | 2.5V | 00:00:00 | 00:00:00 | 00:00:00 | |
| DM0DOS-11 | 2026-09-06 01:36:55 | 50.58216 | 9.06978 | 132° | 84km/h | 5695m | -4.6m/s | -7.9°C | 52.7% | 511.6hPa | 2.5V | 07:35:49 | 03:18:53 | 00:00:00 | |
| BIOWL1-15 | 2026-09-06 01:36:55 | 50.58144 | 9.07101 | 133° | 84km/h | 5671m | -4.6m/s | -7.7°C | 56.5% | 513hPa | 2.6V | 07:35:48 | 03:18:58 | 00:00:00 | |
| HSKMA3-T | 2026-09-06 01:36:53 | 50.58173 | 9.07051 | 133° | 84km/h | 5681m | -4.5m/s | -7.8°C | 56.8% | 512.5hPa | 2.6V | 07:35:48 | 03:18:56 | 00:00:00 | |
| DF7PN | 2026-09-06 01:36:49 | 50.58230 | 9.06953 | 132° | 84km/h | 5699m | -4.7m/s | -8.0°C | 51.5% | 511.2hPa | 2.5V | 00:00:00 | 00:00:00 | 00:00:00 | |
| DL1NUX | 2026-09-06 01:36:48 | 50.58318 | 9.06804 | 133° | 86km/h | 5727m | -4.5m/s | -8.2°C | 53.6% | 509.4hPa | 2.5V | 07:35:56 | 03:18:46 | 00:00:00 | |
| BIOWL1-15 | 2026-09-06 01:36:46 | 50.58303 | 9.06829 | 133° | 84km/h | 5722m | -4.6m/s | -8.2°C | 57.8% | 509.7hPa | 2.5V | 07:36:39 | 03:18:47 | 00:00:00 | |
| SO1NDE-10 | 2026-09-06 01:36:46 | 50.58274 | 9.06878 | 133° | 86km/h | 5713m | -4.5m/s | -8.1°C | 53.2% | 510.2hPa | 2.6V | 00:00:00 | 03:18:49 | 00:00:00 | |
| DM0DOS-11 | 2026-09-06 01:36:45 | 50.58362 | 9.06730 | 133° | 86km/h | 5740m | -4.8m/s | -8.3°C | 53.9% | 508.5hPa | 2.6V | 07:35:59 | 03:18:43 | 00:00:00 | |
| HSKMA3-T | 2026-09-06 01:36:43 | 50.58318 | 9.06804 | 133° | 86km/h | 5727m | -4.5m/s | -8.2°C | 57.9% | 509.4hPa | 2.5V | 07:36:39 | 03:18:46 | 00:00:00 | |
| DB0ND-19 | 2026-09-06 01:36:43 | 50.58333 | 9.06779 | 133° | 84km/h | 5731m | -4.5m/s | -8.3°C | 52.4% | 509.2hPa | 2.5V | 00:00:00 | 00:00:00 | 00:00:00 | |
| DL1ZP-14 | 2026-09-06 01:36:39 | 50.58392 | 9.06680 | 133° | 86km/h | 5749m | -4.6m/s | -8.4°C | 52.9% | 508.0hPa | 2.5V | 00:00:00 | 00:00:00 | 00:00:00 | |
| DL1NUX | 2026-09-06 01:36:38 | 50.58467 | 9.06558 | 133° | 86km/h | 5771m | -4.3m/s | -8.6°C | 55% | 506.4hPa | 2.6V | 07:36:06 | 03:18:36 | 00:00:00 | |
| BIOWL1-15 | 2026-09-06 01:36:35 | 50.58468 | 9.06558 | 134° | 86km/h | 5772m | -4.3m/s | -8.6°C | 59.1% | 506.4hPa | 2.6V | 07:36:39 | 03:18:36 | 00:00:00 | |
| HSKMA3-T | 2026-09-06 01:36:32 | 50.58483 | 9.06533 | 134° | 84km/h | 5776m | -4.4m/s | -8.7°C | 59.3% | 506.3hPa | 2.6V | 07:36:39 | 03:18:35 | 00:00:00 | |
| DM0DOS-11 | 2026-09-06 01:36:30 | 50.58513 | 9.06485 | 134° | 86km/h | 5784m | -4.5m/s | -8.7°C | 55.3% | 505.6hPa | 2.5V | 07:36:09 | 03:18:33 | 00:00:00 | |
| DL1NUX | 2026-09-06 01:36:28 | 50.58621 | 9.06314 | 134° | 88km/h | 5816m | -4.8m/s | -9°C | 55.9% | 503.5hPa | 2.6V | 07:36:16 | 03:18:26 | 00:00:00 | |
| DL8OAI-8 | 2026-09-06 01:36:26 | 50.58558 | 9.06412 | 136° | 86km/h | 5798m | -4.7m/s | -8.8°C | 54.4% | 504.7hPa | 2.5V | 00:00:00 | 00:00:00 | 00:00:00 | |
| DM0DOS-11 | 2026-09-06 01:36:25 | 50.58669 | 9.06239 | 135° | 89km/h | 5830m | -4.5m/s | -9.1°C | 56.2% | 502.7hPa | 2.5V | 07:36:19 | 03:18:23 | 00:00:00 | |
| BIOWL1-15 | 2026-09-06 01:36:22 | 50.58637 | 9.06289 | 136° | 89km/h | 5821m | -4.4m/s | -9°C | 60.2% | 503.2hPa | 2.6V | 07:36:39 | 03:18:25 | 00:00:00 | |
| HSKMA3-T | 2026-09-06 01:36:21 | 50.58653 | 9.06264 | 135° | 89km/h | 5826m | -4.6m/s | -9°C | 60.2% | 503hPa | 2.6V | 07:36:39 | 03:18:24 | 00:00:00 | |
| DL1NUX | 2026-09-06 01:36:18 | 50.58782 | 9.06062 | 134° | 91km/h | 5862m | -4.5m/s | -9.3°C | 56.7% | 500.6hPa | 2.5V | 07:36:26 | 03:18:16 | 00:00:00 | |
| DB0NH | 2026-09-06 01:36:18 | 50.58701 | 9.06189 | 135° | 93km/h | 5839m | -4.5m/s | -9.1°C | 56.2% | 502.0hPa | 2.6V | 00:00:00 | 03:18:21 | 00:00:00 | |
| DB0UT-7 | 2026-09-06 01:36:17 | 50.58717 | 9.06163 | 136° | 95km/h | 5844m | -4.4m/s | -9.1°C | 56.3% | 501.8hPa | 2.6V | 00:00:00 | 00:00:00 | 00:00:00 | |
| DM0DOS-11 | 2026-09-06 01:36:15 | 50.58831 | 9.05985 | 135° | 91km/h | 5875m | -4.5m/s | -9.4°C | 56.1% | 499.7hPa | 2.6V | 07:36:29 | 03:18:13 | 00:00:00 | |
| BIOWL1-15 | 2026-09-06 01:36:11 | 50.58814 | 9.06010 | 135° | 91km/h | 5871m | -4.7m/s | -9.4°C | 60.6% | 500.1hPa | 2.6V | 07:36:39 | 03:18:14 | 00:00:00 | |
| HSKMA3-T | 2026-09-06 01:36:10 | 50.58831 | 9.05985 | 135° | 91km/h | 5875m | -4.5m/s | -9.4°C | 60.2% | 499.7hPa | 2.6V | 07:36:39 | 03:18:13 | 00:00:00 | |
| DL1NUX | 2026-09-06 01:36:08 | 50.58947 | 9.05800 | 134° | 95km/h | 5907m | -4.5m/s | -9.5°C | 53.7% | 497.8hPa | 2.5V | 07:36:36 | 03:18:06 | 00:00:00 | |
| DL1ZP-14 | 2026-09-06 01:36:08 | 50.58880 | 9.05906 | 134° | 93km/h | 5889m | -4.5m/s | -9.4°C | 52.5% | 499.0hPa | 2.5V | 00:00:00 | 00:00:00 | 00:00:00 | |
| DO9LL-15 | 2026-09-06 01:36:06 | 50.58897 | 9.05880 | 135° | 97km/h | 5893m | -4.6m/s | -9.4°C | 53.8% | 498.6hPa | 2.6V | 00:00:00 | 03:18:09 | 00:00:00 | |
| DM0DOS-11 | 2026-09-06 01:36:05 | 50.58997 | 9.05719 | 134° | 95km/h | 5920m | -4.5m/s | -9.6°C | 54% | 496.9hPa | 2.6V | 07:36:39 | 03:18:03 | 00:00:00 | |
| BIOWL1-15 | 2026-09-06 01:36:01 | 50.58980 | 9.05746 | 134° | 93km/h | 5916m | -4.6m/s | -9.6°C | 58% | 497.2hPa | 2.6V | 07:36:39 | 03:18:04 | 00:00:00 | |
| HSKMA3-T | 2026-09-06 01:35:59 | 50.59013 | 9.05692 | 134° | 95km/h | 5925m | -4.8m/s | -9.6°C | 58.3% | 496.6hPa | 2.6V | 07:37:30 | 03:18:02 | 00:00:00 | |
| DM7RM-13 | 2026-09-06 01:35:57 | 50.59030 | 9.05665 | 135° | 95km/h | 5929m | -4.4m/s | -9.7°C | 52.9% | 496.3hPa | 2.6V | 07:37:00 | 00:00:00 | 00:00:00 | |
| DJ8HS-15 | 2026-09-06 01:35:55 | 50.59080 | 9.05584 | 134° | 99km/h | 5943m | -4.6m/s | -9.7°C | 54.8% | 495.4hPa | 2.6V | 00:00:00 | 03:17:58 | 00:00:00 | |
| DD1CC3-15 | 2026-09-06 01:35:54 | 50.59080 | 9.05584 | 135° | 95km/h | 5943m | -4.6m/s | -9.8°C | 53.4% | 495.4hPa | 2.6V | 07:37:00 | 00:00:00 | 00:00:00 | |
| DM0DOS-11 | 2026-09-06 01:35:50 | 50.59165 | 9.05446 | 133° | 99km/h | 5965m | -4.5m/s | -9.8°C | 55.7% | 494hPa | 2.6V | 07:36:49 | 03:17:53 | 00:00:00 | |
| BIOWL1-15 | 2026-09-06 01:35:50 | 50.59165 | 9.05446 | 133° | 99km/h | 5965m | -4.5m/s | -9.9°C | 59.5% | 494.1hPa | 2.6V | 07:37:30 | 03:17:53 | 00:00:00 | |
| HSKMA3-T | 2026-09-06 01:35:49 | 50.59182 | 9.05417 | 134° | 97km/h | 5970m | -4.6m/s | -9.9°C | 59.7% | 493.7hPa | 2.6V | 07:37:30 | 03:17:52 | 00:00:00 | |
| DB0NH | 2026-09-06 01:35:48 | 50.59199 | 9.05389 | 134° | 99km/h | 5974m | -4.2m/s | -9.9°C | 56.1% | 493.4hPa | 2.6V | 00:00:00 | 03:17:51 | 00:00:00 | |
| DB0UT-7 | 2026-09-06 01:35:47 | 50.59216 | 9.05360 | 133° | 99km/h | 5978m | -4.7m/s | -9.9°C | 56.2% | 493.0hPa | 2.6V | 00:00:00 | 03:17:50 | 00:00:00 | |
| SO1NDE-10 | 2026-09-06 01:35:46 | 50.59233 | 9.05332 | 134° | 99km/h | 5983m | -4.5m/s | -10.0°C | 56.3% | 492.8hPa | 2.6V | 00:00:00 | 03:17:49 | 00:00:00 | |
| DM0DOS-11 | 2026-09-06 01:35:45 | 50.59334 | 9.05159 | 132° | 99km/h | 6010m | -4.6m/s | -10.2°C | 57.3% | 491.1hPa | 2.6V | 07:36:59 | 03:17:43 | 00:00:00 | |
| BIOWL1-15 | 2026-09-06 01:35:41 | 50.59351 | 9.05131 | 133° | 99km/h | 6015m | -4.6m/s | -10.3°C | 61.4% | 490.8hPa | 2.6V | 07:37:30 | 03:17:42 | 00:00:00 | |
| HSKMA3-T | 2026-09-06 01:35:38 | 50.59368 | 9.05102 | 132° | 99km/h | 6019m | -4.7m/s | -10.3°C | 61.5% | 490.6hPa | 2.5V | 07:37:30 | 03:17:41 | 00:00:00 | |
| DL1NUX | 2026-09-06 01:35:38 | 50.59451 | 9.04956 | 131° | 99km/h | 6042m | -4.6m/s | -10.5°C | 58.6% | 489.1hPa | 2.5V | 07:37:06 | 03:17:36 | 00:00:00 | |
| NBG1-10 | 2026-09-06 01:35:38 | 50.59368 | 9.05101 | 132° | 99km/h | 6019m | -4.7m/s | -10.3°C | 57.7% | 490.5hPa | 2.6V | 00:00:00 | 03:17:41 | 00:00:00 | |
| DL1ZP-14 | 2026-09-06 01:35:37 | 50.59401 | 9.05044 | 131° | 97km/h | 6029m | -4.5m/s | -10.4°C | 56.6% | 489.9hPa | 2.6V | 00:00:00 | 00:00:00 | 00:00:00 | |
| DO9LL-15 | 2026-09-06 01:35:36 | 50.59401 | 9.05043 | 132° | 99km/h | 6029m | -4.5m/s | -10.3°C | 58.1% | 489.8hPa | 2.6V | 00:00:00 | 03:17:39 | 00:00:00 | |
| DM0DOS-11 | 2026-09-06 01:35:35 | 50.59501 | 9.04868 | 132° | 99km/h | 6056m | -4.7m/s | -10.6°C | 59.1% | 488.1hPa | 2.6V | 07:37:09 | 03:17:33 | 00:00:00 | |
| DD1CC8 | 2026-09-06 01:35:35 | 50.59434 | 9.04985 | 132° | 99km/h | 6037m | -4.7m/s | -10.4°C | 56.9% | 489.4hPa | 2.5V | 00:00:00 | 00:00:00 | 00:00:00 | |
| DD1CC3-15 | 2026-09-06 01:35:33 | 50.59434 | 9.04985 | 133° | 99km/h | 6038m | -4.7m/s | -10.4°C | 56.9% | 489.4hPa | 2.5V | 07:37:00 | 00:00:00 | 00:00:00 | |
| DL1NUX | 2026-09-06 01:35:28 | 50.59618 | 9.04663 | 131° | 97km/h | 6087m | -4.4m/s | -10.8°C | 60.2% | 486.2hPa | 2.5V | 07:37:16 | 03:17:26 | 00:00:00 | |
| BIOWL1-15 | 2026-09-06 01:35:28 | 50.59535 | 9.04809 | 132° | 99km/h | 6065m | -4.6m/s | -10.6°C | 62.9% | 487.7hPa | 2.5V | 07:37:30 | 03:17:31 | 00:00:00 | |
| HSKMA3-T | 2026-09-06 01:35:27 | 50.59552 | 9.04780 | 132° | 99km/h | 6069m | -4.6m/s | -10.7°C | 63% | 487.3hPa | 2.5V | 07:37:30 | 03:17:30 | 00:00:00 | |
| DO3DL | 2026-09-06 01:35:26 | 50.59551 | 9.04780 | 133° | 99km/h | 6069m | -4.6m/s | -10.7°C | 57.9% | 487.3hPa | 2.6V | 00:00:00 | 00:00:00 | 00:00:00 | |
| DM0DOS-11 | 2026-09-06 01:35:25 | 50.59666 | 9.04575 | 131° | 97km/h | 6101m | -4.8m/s | -10.9°C | 60.8% | 485.4hPa | 2.6V | 07:37:19 | 03:17:23 | 00:00:00 | |
| HARRO8 | 2026-09-06 01:35:24 | 50.59601 | 9.04692 | 131° | 97km/h | 6083m | -4.5m/s | -10.8°C | 58.5% | 486.5hPa | 2.5V | 00:00:00 | 00:00:00 | 00:00:00 | |
| DL8OAI-8 | 2026-09-06 01:35:22 | 50.59618 | 9.04662 | 132° | 97km/h | 6087m | -4.4m/s | -10.8°C | 58.6% | 486.2hPa | 2.5V | 07:37:00 | 00:00:00 | 00:00:00 | |
| DL1NUX | 2026-09-06 01:35:18 | 50.59779 | 9.04371 | 130° | 97km/h | 6133m | -4.7m/s | -11.2°C | 62.1% | 483.3hPa | 2.5V | 07:37:26 | 03:17:16 | 00:00:00 | |
| HSKMA3-T | 2026-09-06 01:35:17 | 50.59715 | 9.04488 | 131° | 97km/h | 6115m | -4.7m/s | -11.1°C | 64.5% | 484.5hPa | 2.5V | 07:37:30 | 03:17:20 | 00:00:00 | |
| BIOWL1-15 | 2026-09-06 01:35:10 | 50.59890 | 9.04165 | 131° | 97km/h | 6165m | -4.7m/s | -11.5°C | 65.7% | 481.3hPa | 2.6V | 07:38:21 | 03:17:09 | 00:00:00 | |
| BIOWL7-15 | 2026-09-06 01:35:09 | 50.59826 | 9.04282 | 131° | 99km/h | 6147m | -4.8m/s | -11.4°C | 60.9% | 482.5hPa | 2.5V | 07:37:00 | 00:00:00 | 00:00:00 | |
| DL1NUX | 2026-09-06 01:35:08 | 50.59939 | 9.04077 | 131° | 99km/h | 6179m | -4.8m/s | -11.6°C | 63.3% | 480.5hPa | 2.5V | 07:37:36 | 03:17:06 | 00:00:00 | |
| HSKMA3-T | 2026-09-06 01:35:04 | 50.59923 | 9.04106 | 131° | 97km/h | 6175m | -4.5m/s | -11.6°C | 65.7% | 480.8hPa | 2.6V | 07:38:21 | 03:17:07 | 00:00:00 | |
| DD1CC8 | 2026-09-06 01:35:04 | 50.59939 | 9.04077 | 131° | 97km/h | 6179m | -4.8m/s | -11.6°C | 61.6% | 480.5hPa | 2.6V | 00:00:00 | 00:00:00 | 00:00:00 | |
| DM0DOS-11 | 2026-09-06 01:35:03 | 50.59988 | 9.03990 | 131° | 97km/h | 6193m | -4.7m/s | -11.6°C | 61.7% | 479.6hPa | 2.6V | 07:37:39 | 03:17:03 | 00:00:00 | |
| DO2KSM | 2026-09-06 01:35:01 | 50.59955 | 9.04048 | 132° | 97km/h | 6184m | -4.6m/s | -11.6°C | 61.5% | 480.2hPa | 2.6V | 07:38:00 | 00:00:00 | 00:00:00 | |
| DO3DL | 2026-09-06 01:34:59 | 50.59988 | 9.03990 | 132° | 99km/h | 6193m | -4.7m/s | -11.6°C | 60.0% | 479.6hPa | 2.6V | 07:38:00 | 00:00:00 | 00:00:00 | |
| DL1NUX | 2026-09-06 01:34:58 | 50.60101 | 9.03782 | 128° | 99km/h | 6225m | -4.4m/s | -11.7°C | 59.4% | 477.7hPa | 2.6V | 07:37:46 | 03:16:56 | 00:00:00 | |
| DB0DAN | 2026-09-06 01:34:55 | 50.60069 | 9.03843 | 130° | 93km/h | 6216m | -4.6m/s | -11.7°C | 57.6% | 478.17hPa | 2.5V | 00:00:00 | 00:00:00 | 00:00:00 | |
| BIOWL1-15 | 2026-09-06 01:34:55 | 50.60069 | 9.03843 | 130° | 99km/h | 6216m | -4.6m/s | -11.7°C | 62% | 478.2hPa | 2.5V | 07:38:21 | 03:16:58 | 00:00:00 | |
| HSKMA3-T | 2026-09-06 01:34:53 | 50.60101 | 9.03782 | 129° | 99km/h | 6225m | -4.4m/s | -11.7°C | 62% | 477.7hPa | 2.6V | 07:38:21 | 03:16:56 | 00:00:00 | |
| HARRO8 | 2026-09-06 01:34:53 | 50.60101 | 9.03782 | 128° | 97km/h | 6225m | -4.4m/s | -11.7°C | 57.7% | 477.7hPa | 2.5V | 00:00:00 | 00:00:00 | 00:00:00 | |
| DD1CC3-15 | 2026-09-06 01:34:52 | 50.60101 | 9.03782 | 130° | 99km/h | 6225m | -4.4m/s | -11.7°C | 57.7% | 477.7hPa | 2.5V | 07:38:00 | 00:00:00 | 00:00:00 | |
| DM0DOS-11 | 2026-09-06 01:34:51 | 50.60147 | 9.03691 | 128° | 97km/h | 6238m | -4.8m/s | -11.8°C | 59.6% | 476.7hPa | 2.5V | 07:37:49 | 03:16:53 | 00:00:00 | |
| BIOWL7-15 | 2026-09-06 01:34:49 | 50.60147 | 9.03691 | 129° | 97km/h | 6239m | -4.8m/s | -11.8°C | 57.9% | 476.7hPa | 2.5V | 07:38:00 | 00:00:00 | 00:00:00 | |
| DL1NUX | 2026-09-06 01:34:48 | 50.60254 | 9.03477 | 127° | 97km/h | 6270m | -4.5m/s | -11.8°C | 56.9% | 474.8hPa | 2.5V | 07:37:56 | 03:16:46 | 00:00:00 | |
| BIOWL1-15 | 2026-09-06 01:34:44 | 50.60239 | 9.03508 | 128° | 99km/h | 6265m | -4.5m/s | -11.8°C | 60.1% | 475.1hPa | 2.5V | 07:38:21 | 03:16:47 | 00:00:00 | |
| HSKMA3-T | 2026-09-06 01:34:43 | 50.60254 | 9.03477 | 127° | 97km/h | 6270m | -4.5m/s | -11.9°C | 59.9% | 474.8hPa | 2.5V | 07:38:21 | 03:16:46 | 00:00:00 | |
| DM0DOS-11 | 2026-09-06 01:34:41 | 50.60300 | 9.03384 | 127° | 97km/h | 6283m | -4.7m/s | -11.9°C | 56.6% | 473.9hPa | 2.6V | 07:37:59 | 03:16:43 | 00:00:00 | |
| BIOWL9-15 | 2026-09-06 01:34:40 | 50.60315 | 9.03353 | 126° | 99km/h | 6288m | -4.6m/s | 0°C | -1.0% | -1.0hPa | 2.5V | 00:00:00 | 00:00:00 | 00:00:00 | |
| DL1NUX | 2026-09-06 01:34:38 | 50.60403 | 9.03163 | 125° | 99km/h | 6315m | -4.8m/s | -11.9°C | 53.6% | 471.9hPa | 2.5V | 07:38:06 | 03:16:36 | 00:00:00 | |
| BIOWL1-15 | 2026-09-06 01:34:33 | 50.60403 | 9.03163 | 126° | 99km/h | 6315m | -4.8m/s | -11.9°C | 57.4% | 471.9hPa | 2.5V | 07:38:21 | 03:16:36 | 00:00:00 | |
| HSKMA3-T | 2026-09-06 01:34:32 | 50.60418 | 9.03132 | 126° | 99km/h | 6320m | -4.5m/s | -11.9°C | 57.2% | 471.7hPa | 2.5V | 07:38:21 | 03:16:35 | 00:00:00 | |
| DM0DOS-11 | 2026-09-06 01:34:30 | 50.60447 | 9.03068 | 125° | 99km/h | 6329m | -4.5m/s | -12°C | 52.8% | 471.1hPa | 2.6V | 07:38:09 | 03:16:33 | 00:00:00 | |
| DL1NUX | 2026-09-06 01:34:28 | 50.60546 | 9.02846 | 124° | 97km/h | 6360m | -4.3m/s | -12.2°C | 52.9% | 469.2hPa | 2.6V | 07:38:16 | 03:16:26 | 00:00:00 | |
| DM0DOS-11 | 2026-09-06 01:34:25 | 50.60587 | 9.02751 | 124° | 97km/h | 6374m | -4.4m/s | -12.3°C | 53.1% | 468.4hPa | 2.6V | 07:38:19 | 03:16:23 | 00:00:00 | |
| BIOWL1-15 | 2026-09-06 01:34:22 | 50.60560 | 9.02814 | 124° | 97km/h | 6365m | -4.4m/s | -12.3°C | 56.9% | 468.9hPa | 2.6V | 07:38:21 | 03:16:25 | 00:00:00 | |
| DL8OAI-8 | 2026-09-06 01:34:21 | 50.60559 | 9.02814 | 125° | 97km/h | 6365m | -4.4m/s | -12.3°C | 51.4% | 468.9hPa | 2.6V | 00:00:00 | 00:00:00 | 00:00:00 | |
| DO2KSM | 2026-09-06 01:34:20 | 50.60573 | 9.02782 | 126° | 97km/h | 6369m | -4.5m/s | -12.3°C | 51.5% | 468.6hPa | 2.6V | 07:38:00 | 00:00:00 | 00:00:00 | |
| DL1NUX | 2026-09-06 01:34:18 | 50.60684 | 9.02529 | 124° | 97km/h | 6404m | -4.4m/s | -12.5°C | 52.9% | 466.5hPa | 2.6V | 07:38:26 | 03:16:16 | 00:00:00 | |
| DB0NH | 2026-09-06 01:34:18 | 50.60615 | 9.02687 | 125° | 95km/h | 6383m | -4.5m/s | -12.3°C | 53.1% | 467.8hPa | 2.6V | 00:00:00 | 03:16:21 | 00:00:00 | |
| DB0UT-7 | 2026-09-06 01:34:17 | 50.60629 | 9.02656 | 125° | 95km/h | 6387m | -4.4m/s | -12.3°C | 52.9% | 467.5hPa | 2.6V | 00:00:00 | 00:00:00 | 00:00:00 | |
| SO1NDE-10 | 2026-09-06 01:34:16 | 50.60642 | 9.02624 | 125° | 95km/h | 6391m | -4.5m/s | -12.4°C | 52.8% | 467.3hPa | 2.6V | 00:00:00 | 03:16:19 | 00:00:00 | |
| DM0DOS-11 | 2026-09-06 01:34:15 | 50.60725 | 9.02434 | 123° | 97km/h | 6417m | -4.5m/s | -12.6°C | 52.8% | 465.6hPa | 2.5V | 07:38:29 | 03:16:13 | 00:00:00 | |
| HSKMA3-T | 2026-09-06 01:34:11 | 50.60711 | 9.02466 | 125° | 97km/h | 6413m | -4.7m/s | -12.6°C | 56.7% | 465.9hPa | 2.5V | 07:39:12 | 03:16:14 | 00:00:00 | |
| DD1CC3-15 | 2026-09-06 01:34:10 | 50.60711 | 9.02466 | 126° | 97km/h | 6413m | -4.7m/s | -12.6°C | 51.1% | 465.9hPa | 2.5V | 07:39:00 | 00:00:00 | 00:00:00 | |
| DL1NUX | 2026-09-06 01:34:08 | 50.60820 | 9.02213 | 123° | 95km/h | 6449m | -4.3m/s | -12.9°C | 53.5% | 463.7hPa | 2.5V | 07:38:36 | 03:16:06 | 00:00:00 | |
| BIOWL7-15 | 2026-09-06 01:34:07 | 50.60752 | 9.02371 | 125° | 97km/h | 6427m | -4.6m/s | -12.7°C | 51.4% | 465.1hPa | 2.6V | 00:00:00 | 00:00:00 | 00:00:00 | |
| DO9LL-15 | 2026-09-06 01:34:06 | 50.60780 | 9.02308 | 125° | 93km/h | 6436m | -4.5m/s | -12.7°C | 53.3% | 464.5hPa | 2.6V | 00:00:00 | 03:16:09 | 00:00:00 | |
| DM0DOS-11 | 2026-09-06 01:34:05 | 50.60860 | 9.02119 | 123° | 95km/h | 6462m | -4.7m/s | -13°C | 53.7% | 462.9hPa | 2.6V | 07:38:39 | 03:16:03 | 00:00:00 | |
| HSKMA3-T | 2026-09-06 01:34:01 | 50.60847 | 9.02151 | 124° | 95km/h | 6458m | -4.6m/s | -12.9°C | 57.4% | 463.2hPa | 2.6V | 07:39:12 | 03:16:04 | 00:00:00 | |
| BIOWL1-15 | 2026-09-06 01:34:00 | 50.60861 | 9.02119 | 124° | 95km/h | 6462m | -4.7m/s | -13°C | 57.6% | 462.9hPa | 2.6V | 07:40:03 | 03:16:03 | 00:00:00 | |
| DO2KSM | 2026-09-06 01:33:59 | 50.60860 | 9.02119 | 125° | 95km/h | 6463m | -4.7m/s | -13.0°C | 52.0% | 462.9hPa | 2.6V | 07:39:00 | 00:00:00 | 00:00:00 | |
| DL1NUX | 2026-09-06 01:33:58 | 50.60954 | 9.01900 | 123° | 95km/h | 6494m | -4.6m/s | -13.3°C | 54.6% | 461hPa | 2.6V | 07:38:46 | 03:15:56 | 00:00:00 | |
| HSKMA3-T | 2026-09-06 01:33:50 | 50.60993 | 9.01806 | 124° | 93km/h | 6507m | -4.5m/s | -13.4°C | 58.6% | 460.2hPa | 2.5V | 07:39:12 | 03:15:53 | 00:00:00 | |
| DM0DOS-11 | 2026-09-06 01:33:50 | 50.60994 | 9.01806 | 123° | 93km/h | 6507m | -4.5m/s | -13.4°C | 54.9% | 460.2hPa | 2.5V | 07:38:49 | 03:15:53 | 00:00:00 | |
| BIOWL1-15 | 2026-09-06 01:33:49 | 50.61007 | 9.01775 | 123° | 95km/h | 6511m | -4.5m/s | -13.4°C | 58.7% | 459.9hPa | 2.5V | 07:40:03 | 03:15:52 | 00:00:00 | |
| DB0NH | 2026-09-06 01:33:48 | 50.61019 | 9.01743 | 124° | 93km/h | 6516m | -4.6m/s | -13.4°C | 55.1% | 459.6hPa | 2.6V | 00:00:00 | 03:15:51 | 00:00:00 | |
| DB0UT-7 | 2026-09-06 01:33:47 | 50.61033 | 9.01712 | 124° | 93km/h | 6521m | -4.7m/s | -13.5°C | 55.2% | 459.3hPa | 2.6V | 00:00:00 | 03:15:50 | 00:00:00 | |
| SO1NDE-10 | 2026-09-06 01:33:46 | 50.61046 | 9.01681 | 124° | 93km/h | 6525m | -4.5m/s | -13.5°C | 55.4% | 459.1hPa | 2.6V | 00:00:00 | 03:15:49 | 00:00:00 | |
| DM0DOS-11 | 2026-09-06 01:33:45 | 50.61126 | 9.01496 | 124° | 95km/h | 6552m | -4.7m/s | -13.8°C | 56.7% | 457.6hPa | 2.6V | 07:38:59 | 03:15:43 | 00:00:00 | |
| HSKMA3-T | 2026-09-06 01:33:40 | 50.61125 | 9.01496 | 125° | 95km/h | 6552m | -4.7m/s | -13.8°C | 60.2% | 457.6hPa | 2.6V | 07:39:12 | 03:15:43 | 00:00:00 | |
| BIOWL1-15 | 2026-09-06 01:33:39 | 50.61139 | 9.01465 | 124° | 93km/h | 6556m | -4.5m/s | -13.9°C | 60.5% | 457.2hPa | 2.6V | 07:40:03 | 03:15:42 | 00:00:00 | |
| DL1NUX | 2026-09-06 01:33:38 | 50.61218 | 9.01280 | 124° | 93km/h | 6583m | -4.8m/s | -14.1°C | 57.4% | 455.7hPa | 2.6V | 07:39:06 | 03:15:36 | 00:00:00 | |
| DB0ND-19 | 2026-09-06 01:33:36 | 50.61179 | 9.01372 | 124° | 91km/h | 6569m | -4.3m/s | -14.0°C | 55.6% | 456.4hPa | 2.5V | 00:00:00 | 00:00:00 | 00:00:00 | |
| DM0DOS-11 | 2026-09-06 01:33:35 | 50.61258 | 9.01187 | 123° | 93km/h | 6596m | -4.5m/s | -14.2°C | 57.6% | 454.9hPa | 2.5V | 07:39:09 | 03:15:33 | 00:00:00 | |
| HSKMA3-T | 2026-09-06 01:33:30 | 50.61258 | 9.01187 | 124° | 93km/h | 6596m | -4.5m/s | -14.2°C | 60.8% | 454.9hPa | 2.5V | 07:39:12 | 03:15:33 | 00:00:00 | |
| DL1NUX | 2026-09-06 01:33:28 | 50.61351 | 9.00971 | 124° | 95km/h | 6627m | -4.7m/s | -14.5°C | 58.4% | 453hPa | 2.5V | 07:39:16 | 03:15:26 | 00:00:00 | |
| BIOWL1-15 | 2026-09-06 01:33:28 | 50.61284 | 9.01126 | 124° | 95km/h | 6605m | -4.5m/s | -14.3°C | 61% | 454.2hPa | 2.5V | 07:40:03 | 03:15:31 | 00:00:00 | |
| NBG1-10 | 2026-09-06 01:33:26 | 50.61310 | 9.01064 | 125° | 95km/h | 6614m | -4.4m/s | -14.3°C | 58.0% | 453.8hPa | 2.6V | 00:00:00 | 03:15:29 | 00:00:00 | |
| DO9LL-15 | 2026-09-06 01:33:25 | 50.61324 | 9.01033 | 125° | 95km/h | 6618m | -4.6m/s | -14.4°C | 58.1% | 453.5hPa | 2.6V | 07:39:00 | 03:15:28 | 00:00:00 | |
| DM0DOS-11 | 2026-09-06 01:33:23 | 50.61391 | 9.00879 | 125° | 95km/h | 6640m | -4.6m/s | -14.6°C | 58.7% | 452.2hPa | 2.6V | 07:39:19 | 03:15:23 | 00:00:00 | |
| HSKMA3-T | 2026-09-06 01:33:20 | 50.61392 | 9.00879 | 125° | 95km/h | 6640m | -4.6m/s | -14.6°C | 61.7% | 452.2hPa | 2.6V | 07:40:03 | 03:15:23 | 00:00:00 | |
| BIOWL1-15 | 2026-09-06 01:33:17 | 50.61433 | 9.00787 | 125° | 93km/h | 6653m | -4.5m/s | -14.7°C | 61.6% | 451.4hPa | 2.5V | 07:40:03 | 03:15:20 | 00:00:00 | |
| HSKMA3-T | 2026-09-06 01:33:09 | 50.61543 | 9.00544 | 125° | 95km/h | 6689m | -4.4m/s | -15°C | 59.5% | 449.3hPa | 2.6V | 07:40:03 | 03:15:12 | 00:00:00 | |
| BIOWL1-15 | 2026-09-06 01:33:06 | 50.61584 | 9.00452 | 125° | 93km/h | 6703m | -4.5m/s | -15.1°C | 58.6% | 448.5hPa | 2.5V | 07:40:03 | 03:15:09 | 00:00:00 | |
| HSKMA3-T | 2026-09-06 01:32:58 | 50.61693 | 9.00206 | 125° | 95km/h | 6737m | -4.5m/s | -15.4°C | 60.7% | 446.4hPa | 2.6V | 07:40:03 | 03:15:01 | 00:00:00 | |
| DM0DOS-11 | 2026-09-06 01:32:55 | 50.61801 | 8.99959 | 124° | 95km/h | 6773m | -4.5m/s | -15.7°C | 58.2% | 444.2hPa | 2.6V | 07:39:49 | 03:14:53 | 00:00:00 | |
| BIOWL1-15 | 2026-09-06 01:32:55 | 50.61734 | 9.00114 | 124° | 95km/h | 6750m | -4.4m/s | -15.5°C | 61.6% | 445.6hPa | 2.6V | 07:40:03 | 03:14:58 | 00:00:00 | |
| HSKMA3-T | 2026-09-06 01:32:48 | 50.61828 | 8.99896 | 124° | 95km/h | 6781m | -4.3m/s | -15.8°C | 60.6% | 443.8hPa | 2.5V | 07:40:03 | 03:14:51 | 00:00:00 | |
| DL1NUX | 2026-09-06 01:32:48 | 50.61895 | 8.99739 | 123° | 95km/h | 6803m | -4.6m/s | -16°C | 56.1% | 442.5hPa | 2.5V | 07:39:56 | 03:14:46 | 00:00:00 | |
| BIOWL1-15 | 2026-09-06 01:32:45 | 50.61868 | 8.99802 | 123° | 95km/h | 6794m | -4.5m/s | -15.9°C | 59.2% | 443.1hPa | 2.6V | 07:40:03 | 03:14:48 | 00:00:00 | |
| DJ3KS | 2026-09-06 01:32:42 | 50.61895 | 8.99738 | 124° | 95km/h | 6803m | -4.6m/s | -16.0°C | 54.1% | 442.5hPa | 2.6V | 00:00:00 | 00:00:00 | 00:00:00 | |
| DL0LBS | 2026-09-06 01:32:41 | 50.61908 | 8.99707 | 125° | 95km/h | 6808m | -4.4m/s | -16.0°C | 54.0% | 442.2hPa | 2.6V | 07:40:00 | 00:00:00 | 00:00:00 | |
| DL1LOL-11 | 2026-09-06 01:32:40 | 50.61922 | 8.99676 | 125° | 95km/h | 6812m | -4.4m/s | -16.0°C | 54.0% | 442.0hPa | 2.6V | 00:00:00 | 00:00:00 | 00:00:00 | |
| DL1NUX | 2026-09-06 01:32:38 | 50.62028 | 8.99424 | 123° | 95km/h | 6847m | -4.4m/s | -16.3°C | 57.1% | 440hPa | 2.6V | 07:40:06 | 03:14:36 | 00:00:00 | |
| HSKMA3-T | 2026-09-06 01:32:38 | 50.61961 | 8.99582 | 123° | 95km/h | 6825m | -4.3m/s | -16.2°C | 59% | 441.2hPa | 2.6V | 07:40:03 | 03:14:41 | 00:00:00 | |
| BIOWL1-15 | 2026-09-06 01:32:34 | 50.62133 | 8.99172 | 123° | 93km/h | 6882m | -4.5m/s | -16.6°C | 60.7% | 437.9hPa | 2.5V | 07:40:54 | 03:14:28 | 00:00:00 | |
| DM7RM-13 | 2026-09-06 01:32:32 | 50.62028 | 8.99424 | 124° | 95km/h | 6847m | -4.4m/s | -16.3°C | 55.1% | 440.0hPa | 2.5V | 07:40:00 | 00:00:00 | 00:00:00 | |
| DM0DOS-11 | 2026-09-06 01:32:30 | 50.62068 | 8.99330 | 123° | 95km/h | 6860m | -4.3m/s | -16.4°C | 57.8% | 439.1hPa | 2.5V | 07:40:09 | 03:14:33 | 00:00:00 | |
| DO3DL | 2026-09-06 01:32:29 | 50.62068 | 8.99330 | 124° | 95km/h | 6860m | -4.3m/s | -16.4°C | 55.7% | 439.1hPa | 2.6V | 07:40:00 | 00:00:00 | 00:00:00 | |
| DL1NUX | 2026-09-06 01:32:28 | 50.62159 | 8.99109 | 122° | 93km/h | 6891m | -4.6m/s | -16.7°C | 58.7% | 437.4hPa | 2.6V | 07:40:16 | 03:14:26 | 00:00:00 | |
| HSKMA3-T | 2026-09-06 01:32:27 | 50.62107 | 8.99235 | 124° | 95km/h | 6873m | -4.4m/s | -16.6°C | 60.5% | 438.5hPa | 2.6V | 07:40:54 | 03:14:30 | 00:00:00 | |
| BIOWL1-15 | 2026-09-06 01:32:23 | 50.62185 | 8.99045 | 122° | 93km/h | 6899m | -4.2m/s | -16.8°C | 61.1% | 436.9hPa | 2.5V | 07:40:54 | 03:14:24 | 00:00:00 | |
| DO3DL | 2026-09-06 01:32:22 | 50.62159 | 8.99108 | 123° | 93km/h | 6891m | -4.6m/s | -16.7°C | 56.6% | 437.4hPa | 2.6V | 07:40:00 | 00:00:00 | 00:00:00 | |
| DL0LBS | 2026-09-06 01:32:21 | 50.62171 | 8.99077 | 124° | 95km/h | 6895m | -4.6m/s | -16.8°C | 56.8% | 437.2hPa | 2.6V | 07:40:00 | 00:00:00 | 00:00:00 | |
| NBG1-10 | 2026-09-06 01:32:20 | 50.62197 | 8.99014 | 123° | 91km/h | 6904m | -4.3m/s | -16.8°C | 59.2% | 436.6hPa | 2.6V | 00:00:00 | 03:14:23 | 00:00:00 | |
| BIOWL7-15 | 2026-09-06 01:32:19 | 50.62197 | 8.99014 | 124° | 95km/h | 6904m | -4.4m/s | -16.8°C | 57.1% | 436.7hPa | 2.6V | 00:00:00 | 00:00:00 | 00:00:00 | |
| DL1NUX | 2026-09-06 01:32:18 | 50.62287 | 8.98795 | 122° | 93km/h | 6934m | -4.4m/s | -17.1°C | 59.2% | 434.9hPa | 2.6V | 07:40:26 | 03:14:16 | 00:00:00 | |
| HSKMA3-T | 2026-09-06 01:32:16 | 50.62249 | 8.98888 | 123° | 93km/h | 6921m | -4.5m/s | -17°C | 61.2% | 435.6hPa | 2.6V | 07:40:54 | 03:14:19 | 00:00:00 | |
| SO1NDE-10 | 2026-09-06 01:32:16 | 50.62249 | 8.98888 | 123° | 91km/h | 6921m | -4.5m/s | -16.9°C | 59.2% | 435.6hPa | 2.5V | 00:00:00 | 03:14:19 | 00:00:00 | |
| DM0DOS-11 | 2026-09-06 01:32:15 | 50.62325 | 8.98702 | 122° | 91km/h | 6947m | -4.3m/s | -17.2°C | 59.7% | 434.2hPa | 2.5V | 07:40:29 | 03:14:13 | 00:00:00 | |
| BIOWL1-15 | 2026-09-06 01:32:10 | 50.62325 | 8.98702 | 123° | 91km/h | 6947m | -4.3m/s | -17.2°C | 61.6% | 434.2hPa | 2.5V | 07:40:54 | 03:14:13 | 00:00:00 | |
| HSKMA3-T | 2026-09-06 01:32:05 | 50.62388 | 8.98548 | 123° | 93km/h | 6968m | -4.4m/s | -17.4°C | 62.1% | 433hPa | 2.6V | 07:40:54 | 03:14:08 | 00:00:00 | |
| BIOWL1-15 | 2026-09-06 01:32:01 | 50.62464 | 8.98364 | 123° | 91km/h | 6994m | -4.3m/s | -17.6°C | 61.3% | 431.5hPa | 2.5V | 07:40:54 | 03:14:02 | 00:00:00 | |
| DL1ZP-14 | 2026-09-06 01:31:59 | 50.62464 | 8.98364 | 122° | 89km/h | 6994m | -4.3m/s | -17.6°C | 57.6% | 431.5hPa | 2.5V | 00:00:00 | 00:00:00 | 00:00:00 | |
| AU51GT2 | 2026-09-06 01:31:57 | 50.62502 | 8.98273 | 124° | 89km/h | 7007m | -4.3m/s | -17.6°C | 56.7% | 430.8hPa | 2.6V | 00:00:00 | 00:00:00 | 00:00:00 | |
| DM0DOS-11 | 2026-09-06 01:31:55 | 50.62527 | 8.98213 | 123° | 89km/h | 7015m | -4.3m/s | -17.6°C | 59% | 430.2hPa | 2.6V | 07:40:45 | 03:13:57 | 00:00:00 | |
| HSKMA3-T | 2026-09-06 01:31:54 | 50.62527 | 8.98213 | 124° | 89km/h | 7015m | -4.3m/s | -17.6°C | 60.9% | 430.2hPa | 2.6V | 07:40:54 | 03:13:57 | 00:00:00 | |
| BIOWL1-15 | 2026-09-06 01:31:52 | 50.62604 | 8.98033 | 124° | 91km/h | 7041m | -4.4m/s | -17.8°C | 61.7% | 428.8hPa | 2.5V | 07:40:54 | 03:13:51 | 00:00:00 | |
| DM7RM-13 | 2026-09-06 01:31:51 | 50.62553 | 8.98153 | 125° | 89km/h | 7024m | -4.4m/s | -17.7°C | 57.0% | 429.8hPa | 2.5V | 07:40:00 | 00:00:00 | 00:00:00 | |
| DL1NUX | 2026-09-06 01:31:48 | 50.62668 | 8.97884 | 124° | 91km/h | 7063m | -4.2m/s | -18°C | 58.3% | 427.5hPa | 2.5V | 07:40:56 | 03:13:46 | 00:00:00 | |
| HARRO8 | 2026-09-06 01:31:47 | 50.62630 | 8.97973 | 124° | 89km/h | 7050m | -4.4m/s | -17.9°C | 57.8% | 428.3hPa | 2.5V | 00:00:00 | 00:00:00 | 00:00:00 | |
| DM0DOS-11 | 2026-09-06 01:31:45 | 50.62655 | 8.97913 | 124° | 89km/h | 7059m | -4.3m/s | -17.9°C | 59.1% | 427.8hPa | 2.5V | 07:40:55 | 03:13:47 | 00:00:00 | |
| HSKMA3-T | 2026-09-06 01:31:43 | 50.62668 | 8.97884 | 124° | 91km/h | 7063m | -4.2m/s | -18°C | 60.2% | 427.5hPa | 2.5V | 07:41:45 | 03:13:46 | 00:00:00 | |
| BIOWL1-15 | 2026-09-06 01:31:40 | 50.62733 | 8.97735 | 125° | 91km/h | 7084m | -4.3m/s | -18.1°C | 60.7% | 426.2hPa | 2.5V | 07:41:45 | 03:13:41 | 00:00:00 | |
| DM0DOS-11 | 2026-09-06 01:31:39 | 50.62785 | 8.97617 | 125° | 89km/h | 7102m | -4.2m/s | -18.3°C | 60.6% | 425.2hPa | 2.6V | 07:41:05 | 03:13:37 | 00:00:00 | |
| DL1NUX | 2026-09-06 01:31:38 | 50.62799 | 8.97588 | 124° | 89km/h | 7106m | -4.5m/s | -18.3°C | 60.9% | 425.1hPa | 2.5V | 07:41:06 | 03:13:36 | 00:00:00 | |
| HSKMA3-T | 2026-09-06 01:31:33 | 50.62799 | 8.97588 | 125° | 89km/h | 7106m | -4.5m/s | -18.3°C | 62.3% | 425.1hPa | 2.5V | 07:41:45 | 03:13:36 | 00:00:00 | |
| DB0ND-19 | 2026-09-06 01:31:32 | 50.62811 | 8.97559 | 125° | 88km/h | 7110m | -4.2m/s | -18.4°C | 58.7% | 424.8hPa | 2.6V | 00:00:00 | 00:00:00 | 00:00:00 | |
| DJ3KS | 2026-09-06 01:31:30 | 50.62825 | 8.97530 | 126° | 91km/h | 7115m | -4.6m/s | -18.4°C | 58.7% | 424.5hPa | 2.6V | 00:00:00 | 00:00:00 | 00:00:00 | |
| DM0DOS-11 | 2026-09-06 01:31:29 | 50.62918 | 8.97324 | 125° | 91km/h | 7145m | -4.1m/s | -18.6°C | 61.6% | 422.8hPa | 2.6V | 07:41:15 | 03:13:27 | 00:00:00 | |
| DL1NUX | 2026-09-06 01:31:28 | 50.62931 | 8.97295 | 125° | 89km/h | 7149m | -4.2m/s | -18.7°C | 61.7% | 422.6hPa | 2.6V | 07:41:16 | 03:13:26 | 00:00:00 | |
| BIOWL1-15 | 2026-09-06 01:31:27 | 50.62877 | 8.97412 | 126° | 89km/h | 7132m | -4.5m/s | -18.5°C | 62.7% | 423.6hPa | 2.5V | 07:41:45 | 03:13:30 | 00:00:00 | |
| HSKMA3-T | 2026-09-06 01:31:23 | 50.62931 | 8.97295 | 126° | 89km/h | 7149m | -4.2m/s | -18.7°C | 62.7% | 422.6hPa | 2.6V | 07:41:45 | 03:13:26 | 00:00:00 | |
| DM0DOS-11 | 2026-09-06 01:31:20 | 50.63050 | 8.97036 | 126° | 89km/h | 7187m | -4.3m/s | -19°C | 62.5% | 420.5hPa | 2.5V | 07:41:25 | 03:13:17 | 00:00:00 | |
| BIOWL1-15 | 2026-09-06 01:31:19 | 50.63011 | 8.97123 | 126° | 88km/h | 7173m | -4.1m/s | -18.9°C | 63.4% | 421.2hPa | 2.6V | 07:41:45 | 03:13:20 | 00:00:00 | |
| DL1NUX | 2026-09-06 01:31:18 | 50.63064 | 8.97008 | 126° | 89km/h | 7191m | -4.5m/s | -19.1°C | 62.1% | 420.2hPa | 2.5V | 07:41:26 | 03:13:16 | 00:00:00 | |
| HSKMA3-T | 2026-09-06 01:31:13 | 50.63064 | 8.97008 | 127° | 89km/h | 7191m | -4.5m/s | -19.1°C | 63% | 420.3hPa | 2.5V | 07:41:45 | 03:13:16 | 00:00:00 | |
| DM7RM-13 | 2026-09-06 01:31:10 | 50.63091 | 8.96951 | 128° | 89km/h | 7199m | -4.4m/s | -19.1°C | 58.9% | 419.8hPa | 2.5V | 00:00:00 | 00:00:00 | 00:00:00 | |
| DM0DOS-11 | 2026-09-06 01:31:09 | 50.63187 | 8.96753 | 128° | 89km/h | 7230m | -4.1m/s | -19.4°C | 62.5% | 418.1hPa | 2.5V | 07:41:35 | 03:13:07 | 00:00:00 | |
| BIOWL1-15 | 2026-09-06 01:31:09 | 50.63145 | 8.96837 | 127° | 89km/h | 7217m | -4.4m/s | -19.3°C | 62.2% | 418.8hPa | 2.5V | 07:41:45 | 03:13:10 | 00:00:00 | |
| DL1NUX | 2026-09-06 01:31:08 | 50.63200 | 8.96725 | 127° | 89km/h | 7234m | -4.2m/s | -19.4°C | 62.6% | 417.9hPa | 2.5V | 07:41:36 | 03:13:06 | 00:00:00 | |
| HSKMA3-T | 2026-09-06 01:31:02 | 50.63214 | 8.96696 | 128° | 89km/h | 7238m | -4.2m/s | -19.5°C | 63.5% | 417.7hPa | 2.6V | 07:41:45 | 03:13:05 | 00:00:00 | |
| DB0ND-19 | 2026-09-06 01:31:01 | 50.63228 | 8.96668 | 128° | 89km/h | 7242m | -4.3m/s | -19.5°C | 60.5% | 417.4hPa | 2.5V | 00:00:00 | 00:00:00 | 00:00:00 | |
| DO3DL | 2026-09-06 01:31:00 | 50.63228 | 8.96668 | 129° | 91km/h | 7242m | -4.3m/s | -19.5°C | 60.5% | 417.4hPa | 2.5V | 07:41:00 | 00:00:00 | 00:00:00 | |
| DL1NUX | 2026-09-06 01:30:58 | 50.63339 | 8.96443 | 127° | 89km/h | 7275m | -4.4m/s | -19.8°C | 64.2% | 415.5hPa | 2.5V | 07:41:46 | 03:12:56 | 00:00:00 | |
| BIOWL1-15 | 2026-09-06 01:30:56 | 50.63298 | 8.96528 | 128° | 89km/h | 7262m | -4.4m/s | -19.7°C | 64.3% | 416.2hPa | 2.6V | 07:41:45 | 03:12:59 | 00:00:00 | |
| HSKMA3-T | 2026-09-06 01:30:51 | 50.63367 | 8.96387 | 127° | 89km/h | 7284m | -4.2m/s | -19.9°C | 64.8% | 415.1hPa | 2.5V | 07:42:36 | 03:12:54 | 00:00:00 | |
| BIOWL7-15 | 2026-09-06 01:30:50 | 50.63367 | 8.96386 | 128° | 89km/h | 7284m | -4.2m/s | -19.9°C | 61.9% | 415.1hPa | 2.5V | 00:00:00 | 00:00:00 | 00:00:00 | |
| DL1NUX | 2026-09-06 01:30:48 | 50.63477 | 8.96161 | 126° | 88km/h | 7317m | -4.3m/s | -20.2°C | 66.6% | 413.2hPa | 2.5V | 07:41:56 | 03:12:46 | 00:00:00 | |
| BIOWL1-15 | 2026-09-06 01:30:45 | 50.63449 | 8.96217 | 127° | 89km/h | 7308m | -4.5m/s | -20.1°C | 66.2% | 413.6hPa | 2.6V | 07:42:36 | 03:12:48 | 00:00:00 | |
| HSKMA3-T | 2026-09-06 01:30:41 | 50.63504 | 8.96105 | 127° | 89km/h | 7325m | -4.1m/s | -20.3°C | 66.5% | 412.7hPa | 2.6V | 07:42:36 | 03:12:44 | 00:00:00 | |
| DL1LOL-11 | 2026-09-06 01:30:38 | 50.63531 | 8.96049 | 128° | 89km/h | 7333m | -4.0m/s | -20.4°C | 63.7% | 412.3hPa | 2.6V | 07:42:00 | 00:00:00 | 00:00:00 | |
| DM0DOS-11 | 2026-09-06 01:30:36 | 50.63610 | 8.95879 | 125° | 88km/h | 7358m | -4.2m/s | -20.6°C | 65.7% | 410.9hPa | 2.6V | 07:42:06 | 03:12:36 | 00:00:00 | |
| BIOWL1-15 | 2026-09-06 01:30:35 | 50.63583 | 8.95935 | 126° | 88km/h | 7350m | -4.1m/s | -20.5°C | 65.8% | 411.3hPa | 2.6V | 07:42:36 | 03:12:38 | 00:00:00 | |
| HSKMA3-T | 2026-09-06 01:30:30 | 50.63648 | 8.95794 | 125° | 88km/h | 7371m | -4.4m/s | -20.7°C | 66.3% | 410.1hPa | 2.5V | 07:42:36 | 03:12:33 | 00:00:00 | |
| DL1NUX | 2026-09-06 01:30:28 | 50.63738 | 8.95597 | 125° | 86km/h | 7400m | -4.5m/s | -20.9°C | 65.5% | 408.6hPa | 2.6V | 07:42:16 | 03:12:26 | 00:00:00 | |
| BIOWL1-15 | 2026-09-06 01:30:27 | 50.63712 | 8.95653 | 126° | 88km/h | 7391m | -4.4m/s | -20.8°C | 65.7% | 409.1hPa | 2.5V | 07:42:36 | 03:12:28 | 00:00:00 | |
| HSKMA3-T | 2026-09-06 01:30:20 | 50.63777 | 8.95512 | 126° | 86km/h | 7413m | -4.4m/s | -21°C | 65.9% | 407.9hPa | 2.5V | 07:42:36 | 03:12:23 | 00:00:00 | |
| BIOWL1-15 | 2026-09-06 01:30:14 | 50.63852 | 8.95344 | 125° | 86km/h | 7438m | -4.3m/s | -21.2°C | 65.5% | 406.5hPa | 2.6V | 07:42:36 | 03:12:17 | 00:00:00 | |
| HSKMA3-T | 2026-09-06 01:30:09 | 50.63913 | 8.95205 | 124° | 86km/h | 7459m | -4.2m/s | -21.4°C | 64.2% | 405.2hPa | 2.6V | 07:42:36 | 03:12:12 | 00:00:00 | |
| BIOWL1-15 | 2026-09-06 01:30:04 | 50.63974 | 8.95066 | 124° | 84km/h | 7480m | -4.6m/s | -21.5°C | 61.9% | 404.2hPa | 2.6V | 07:42:36 | 03:12:07 | 00:00:00 | |
| HSKMA3-T | 2026-09-06 01:29:58 | 50.64045 | 8.94900 | 124° | 84km/h | 7506m | -4.1m/s | -21.7°C | 61.8% | 402.8hPa | 2.6V | 07:43:27 | 03:12:01 | 00:00:00 | |
| DL3AQ-11 | 2026-09-06 01:29:58 | 50.64128 | 8.94707 | 123° | 82km/h | 7535m | -3.9m/s | -21.9°C | 57.8% | 401.2hPa | 2.6V | 00:00:00 | 00:00:00 | 00:00:00 | |
| DM7RM-13 | 2026-09-06 01:29:57 | 50.64045 | 8.94900 | 125° | 84km/h | 7507m | -4.1m/s | -21.7°C | 58.4% | 402.8hPa | 2.6V | 07:43:00 | 00:00:00 | 00:00:00 | |
| DO3MHA-11 | 2026-09-06 01:29:56 | 50.64069 | 8.94845 | 124° | 84km/h | 7515m | -4.0m/s | -21.6°C | 61.1% | 402.3hPa | 2.6V | 00:00:00 | 03:11:59 | 00:00:00 | |
| DM0DOS-11 | 2026-09-06 01:29:55 | 50.64105 | 8.94762 | 124° | 82km/h | 7527m | -4.2m/s | -21.8°C | 60.6% | 401.7hPa | 2.5V | 07:42:46 | 03:11:56 | 00:00:00 | |
| BIOWL1-15 | 2026-09-06 01:29:55 | 50.64105 | 8.94762 | 124° | 82km/h | 7527m | -4.2m/s | -21.8°C | 61.5% | 401.7hPa | 2.5V | 07:43:27 | 03:11:56 | 00:00:00 | |
| HSKMA3-T | 2026-09-06 01:29:48 | 50.64164 | 8.94625 | 124° | 82km/h | 7547m | -4.5m/s | -22°C | 61.1% | 400.5hPa | 2.5V | 07:43:27 | 03:11:51 | 00:00:00 | |
| BIOWL1-15 | 2026-09-06 01:29:47 | 50.64223 | 8.94487 | 124° | 84km/h | 7569m | -4.7m/s | -22.1°C | 59.9% | 399.3hPa | 2.5V | 07:43:27 | 03:11:46 | 00:00:00 | |
| DB0UT-7 | 2026-09-06 01:29:47 | 50.64175 | 8.94597 | 125° | 84km/h | 7552m | -4.1m/s | -21.9°C | 60.2% | 400.2hPa | 2.5V | 00:00:00 | 03:11:50 | 00:00:00 | |
| DO3MHA-11 | 2026-09-06 01:29:46 | 50.64187 | 8.94569 | 125° | 84km/h | 7556m | -4.1m/s | -22.0°C | 60.1% | 400.0hPa | 2.5V | 07:42:00 | 03:11:49 | 00:00:00 | |
| DM0DOS-11 | 2026-09-06 01:29:45 | 50.64223 | 8.94487 | 123° | 82km/h | 7569m | -4.7m/s | -22.1°C | 58.6% | 399.3hPa | 2.5V | 07:42:56 | 03:11:46 | 00:00:00 | |
| AM1SDL-15 | 2026-09-06 01:29:44 | 50.64211 | 8.94514 | 124° | 84km/h | 7565m | -4.6m/s | -22.0°C | 59.1% | 399.5hPa | 2.6V | 00:00:00 | 03:11:47 | 00:00:00 | |
| DO3DL | 2026-09-06 01:29:43 | 50.64211 | 8.94514 | 125° | 84km/h | 7565m | -4.6m/s | -22.1°C | 56.5% | 399.5hPa | 2.6V | 07:43:00 | 00:00:00 | 00:00:00 | |
| HARRO8 | 2026-09-06 01:29:42 | 50.64235 | 8.94459 | 124° | 84km/h | 7574m | -4.4m/s | -22.2°C | 56.1% | 399.2hPa | 2.6V | 00:00:00 | 00:00:00 | 00:00:00 | |
| DL1NUX | 2026-09-06 01:29:38 | 50.64339 | 8.94205 | 122° | 84km/h | 7612m | -4.6m/s | -22.5°C | 58.7% | 397.1hPa | 2.6V | 07:43:06 | 03:11:36 | 00:00:00 | |
| HSKMA3-T | 2026-09-06 01:29:37 | 50.64293 | 8.94319 | 123° | 84km/h | 7595m | -4.2m/s | -22.4°C | 60.4% | 398.1hPa | 2.5V | 07:43:27 | 03:11:40 | 00:00:00 | |
| BIOWL1-15 | 2026-09-06 01:29:33 | 50.64339 | 8.94205 | 123° | 84km/h | 7612m | -4.6m/s | -22.5°C | 60% | 397.1hPa | 2.6V | 07:43:27 | 03:11:36 | 00:00:00 | |
| HSKMA3-T | 2026-09-06 01:29:26 | 50.64421 | 8.94005 | 122° | 84km/h | 7642m | -4.1m/s | -22.8°C | 59.8% | 395.5hPa | 2.6V | 07:43:27 | 03:11:29 | 00:00:00 | |
| DB0DAN | 2026-09-06 01:29:25 | 50.64432 | 8.93977 | 123° | 82km/h | 7646m | -3.8m/s | -22.8°C | 55.9% | 395.3hPa | 2.5V | 00:00:00 | 00:00:00 | 00:00:00 | |
| DM0DOS-11 | 2026-09-06 01:29:25 | 50.64455 | 8.93919 | 122° | 84km/h | 7654m | -4m/s | -22.9°C | 58.4% | 394.8hPa | 2.5V | 07:43:16 | 03:11:26 | 00:00:00 | |
| BIOWL1-15 | 2026-09-06 01:29:24 | 50.64467 | 8.93891 | 122° | 86km/h | 7658m | -4.2m/s | -22.9°C | 59.6% | 394.6hPa | 2.6V | 07:43:27 | 03:11:25 | 00:00:00 | |
| DC4HF-4 | 2026-09-06 01:29:23 | 50.64467 | 8.93891 | 122° | 84km/h | 7658m | -4.2m/s | -22.9°C | 55.7% | 394.6hPa | 2.5V | 00:00:00 | 00:00:00 | 00:00:00 | |
| AU51GT2 | 2026-09-06 01:29:22 | 50.64479 | 8.93862 | 122° | 84km/h | 7662m | -4.1m/s | -23.0°C | 55.6% | 394.4hPa | 2.5V | 00:00:00 | 00:00:00 | 00:00:00 | |
| AM1SDL-15 | 2026-09-06 01:29:20 | 50.64490 | 8.93833 | 124° | 86km/h | 7667m | -3.9m/s | -22.9°C | 58.1% | 394.1hPa | 2.5V | 07:43:00 | 03:11:23 | 00:00:00 | |
| DL1NUX | 2026-09-06 01:29:18 | 50.64574 | 8.93634 | 123° | 86km/h | 7694m | -4.2m/s | -23.2°C | 52.3% | 392.7hPa | 2.5V | 07:43:26 | 03:11:16 | 00:00:00 | |
| HSKMA3-T | 2026-09-06 01:29:15 | 50.64550 | 8.93691 | 124° | 86km/h | 7686m | -4.2m/s | -23.1°C | 54.4% | 393.1hPa | 2.6V | 07:43:27 | 03:11:18 | 00:00:00 | |
| BIOWL1-15 | 2026-09-06 01:29:12 | 50.64586 | 8.93605 | 124° | 86km/h | 7699m | -4.3m/s | -23.2°C | 54% | 392.4hPa | 2.5V | 07:43:27 | 03:11:15 | 00:00:00 | |
| DB0DAN | 2026-09-06 01:29:10 | 50.64610 | 8.93548 | 124° | 82km/h | 7707m | -4.1m/s | -23.3°C | 49.6% | 391.96hPa | 2.6V | 00:00:00 | 00:00:00 | 00:00:00 | |
| AM1SDL-15 | 2026-09-06 01:29:08 | 50.64634 | 8.93491 | 124° | 88km/h | 7715m | -3.8m/s | -23.3°C | 52.3% | 391.4hPa | 2.6V | 00:00:00 | 03:11:11 | 00:00:00 | |
| DM0DOS-11 | 2026-09-06 01:29:05 | 50.64695 | 8.93345 | 122° | 89km/h | 7736m | -4.2m/s | -23.5°C | 52.3% | 390.4hPa | 2.6V | 07:43:36 | 03:11:06 | 00:00:00 | |
| HSKMA3-T | 2026-09-06 01:29:04 | 50.64683 | 8.93375 | 123° | 88km/h | 7731m | -4.3m/s | -23.5°C | 53.8% | 390.6hPa | 2.6V | 07:44:18 | 03:11:07 | 00:00:00 | |
| BIOWL1-15 | 2026-09-06 01:29:03 | 50.64707 | 8.93315 | 122° | 89km/h | 7740m | -4.4m/s | -23.6°C | 54.1% | 390.2hPa | 2.6V | 07:44:18 | 03:11:05 | 00:00:00 | |
| DF7PN | 2026-09-06 01:29:03 | 50.64695 | 8.93345 | 122° | 88km/h | 7736m | -4.2m/s | -23.5°C | 49.8% | 390.4hPa | 2.5V | 00:00:00 | 00:00:00 | 00:00:00 | |
| NBG1-10 | 2026-09-06 01:29:02 | 50.64707 | 8.93315 | 123° | 88km/h | 7740m | -4.4m/s | -23.5°C | 52.5% | 390.1hPa | 2.5V | 00:00:00 | 03:11:05 | 00:00:00 | |
| DL1NUX | 2026-09-06 01:28:58 | 50.64816 | 8.93048 | 122° | 88km/h | 7778m | -4.1m/s | -23.9°C | 52.4% | 388.2hPa | 2.5V | 07:43:46 | 03:10:56 | 00:00:00 | |
| HSKMA3-T | 2026-09-06 01:28:53 | 50.64816 | 8.93048 | 123° | 89km/h | 7778m | -4.1m/s | -23.9°C | 54% | 388.2hPa | 2.5V | 07:44:18 | 03:10:56 | 00:00:00 | |
| BIOWL1-15 | 2026-09-06 01:28:51 | 50.64840 | 8.92989 | 123° | 88km/h | 7786m | -3.9m/s | -24°C | 53.6% | 387.7hPa | 2.5V | 07:44:18 | 03:10:54 | 00:00:00 | |
| AU51GT2 | 2026-09-06 01:28:50 | 50.64852 | 8.92959 | 122° | 88km/h | 7790m | -4.2m/s | -24.0°C | 49.2% | 387.5hPa | 2.4V | 00:00:00 | 00:00:00 | 00:00:00 | |
| DC4HF-4 | 2026-09-06 01:28:47 | 50.64902 | 8.92840 | 124° | 88km/h | 7806m | -4.2m/s | -24.0°C | 45.3% | 386.6hPa | 2.4V | 00:00:00 | 00:00:00 | 00:00:00 | |
| SO1NDE-10 | 2026-09-06 01:28:46 | 50.64902 | 8.92840 | 125° | 89km/h | 7806m | -4.2m/s | -24.0°C | 47.6% | 386.5hPa | 2.4V | 00:00:00 | 03:10:49 | 00:00:00 | |
| DM0DOS-11 | 2026-09-06 01:28:45 | 50.64940 | 8.92752 | 124° | 89km/h | 7819m | -4.2m/s | -24.1°C | 46.3% | 385.9hPa | 2.4V | 07:43:56 | 03:10:46 | 00:00:00 | |
| HSKMA3-T | 2026-09-06 01:28:43 | 50.64940 | 8.92752 | 124° | 89km/h | 7819m | -4.2m/s | -24.1°C | 48.2% | 385.9hPa | 2.4V | 07:44:18 | 03:10:46 | 00:00:00 | |
| BIOWL1-15 | 2026-09-06 01:28:40 | 50.65016 | 8.92577 | 125° | 88km/h | 7845m | -4m/s | -24.3°C | 47.9% | 384.6hPa | 2.4V | 07:44:18 | 03:10:40 | 00:00:00 | |
| BIOWL7-15 | 2026-09-06 01:28:39 | 50.64978 | 8.92664 | 125° | 89km/h | 7832m | -4.4m/s | -24.2°C | 43.2% | 385.3hPa | 2.5V | 00:00:00 | 00:00:00 | 00:00:00 | |
| DL1NUX | 2026-09-06 01:28:38 | 50.65066 | 8.92462 | 124° | 88km/h | 7862m | -4.2m/s | -24.4°C | 47% | 383.7hPa | 2.5V | 07:44:06 | 03:10:36 | 00:00:00 | |
| HSKMA3-T | 2026-09-06 01:28:32 | 50.65079 | 8.92434 | 125° | 88km/h | 7866m | -4.2m/s | -24.4°C | 48.9% | 383.6hPa | 2.5V | 07:44:18 | 03:10:35 | 00:00:00 | |
| BIOWL1-15 | 2026-09-06 01:28:32 | 50.65104 | 8.92376 | 125° | 89km/h | 7875m | -4.1m/s | -24.5°C | 48.9% | 383.1hPa | 2.4V | 07:44:18 | 03:10:33 | 00:00:00 | |
| DL8OAI-8 | 2026-09-06 01:28:31 | 50.65079 | 8.92434 | 125° | 88km/h | 7866m | -4.2m/s | -24.4°C | 44.7% | 383.6hPa | 2.5V | 07:44:00 | 00:00:00 | 00:00:00 | |
| DO3DL | 2026-09-06 01:28:30 | 50.65091 | 8.92405 | 126° | 88km/h | 7871m | -4.1m/s | -24.4°C | 44.8% | 383.3hPa | 2.5V | 07:44:00 | 00:00:00 | 00:00:00 | |
| NBG1-10 | 2026-09-06 01:28:29 | 50.65117 | 8.92347 | 126° | 93km/h | 7879m | -3.9m/s | -24.4°C | 46.7% | 382.8hPa | 2.5V | 07:44:00 | 03:10:32 | 00:00:00 | |
| DO2KSM | 2026-09-06 01:28:28 | 50.65117 | 8.92347 | 127° | 89km/h | 7879m | -4.0m/s | -24.5°C | 44.3% | 382.9hPa | 2.5V | 07:44:00 | 00:00:00 | 00:00:00 | |
| BIOWL9-15 | 2026-09-06 01:28:27 | 50.65144 | 8.92289 | 125° | 88km/h | 7886m | -4.0m/s | -24.5°C | 40.8% | 382.4hPa | 2.5V | 00:00:00 | 00:00:00 | 00:00:00 | |
| DB0ND-19 | 2026-09-06 01:28:26 | 50.65157 | 8.92260 | 126° | 89km/h | 7891m | -4.0m/s | -24.4°C | 38.8% | 382.2hPa | 2.5V | 00:00:00 | 00:00:00 | 00:00:00 | |
| DM0DOS-11 | 2026-09-06 01:28:25 | 50.65199 | 8.92173 | 126° | 91km/h | 7903m | -4.2m/s | -24.5°C | 41.6% | 381.5hPa | 2.5V | 07:44:16 | 03:10:26 | 00:00:00 | |
| HSKMA3-T | 2026-09-06 01:28:22 | 50.65212 | 8.92144 | 127° | 91km/h | 7907m | -4.3m/s | -24.5°C | 44.3% | 381.3hPa | 2.5V | 07:44:18 | 03:10:25 | 00:00:00 | |
| BIOWL1-15 | 2026-09-06 01:28:20 | 50.65240 | 8.92085 | 127° | 91km/h | 7915m | -4.4m/s | -24.6°C | 44.3% | 380.9hPa | 2.5V | 07:45:09 | 03:10:23 | 00:00:00 | |
| DO3MHA-12 | 2026-09-06 01:28:20 | 50.65240 | 8.92085 | 127° | 93km/h | 7915m | -4.4m/s | -24.6°C | 42.0% | 380.8hPa | 2.4V | 00:00:00 | 03:10:23 | 00:00:00 | |
| DL1NUX | 2026-09-06 01:28:18 | 50.65339 | 8.91880 | 127° | 93km/h | 7945m | -4.4m/s | -24.7°C | 34.2% | 379.3hPa | 2.4V | 07:44:26 | 03:10:16 | 00:00:00 | |
| HSKMA3-T | 2026-09-06 01:28:11 | 50.65368 | 8.91821 | 128° | 95km/h | 7953m | -4.1m/s | -24.7°C | 34.5% | 378.9hPa | 2.5V | 07:45:09 | 03:10:14 | 00:00:00 | |
| BIOWL1-15 | 2026-09-06 01:28:09 | 50.65398 | 8.91762 | 129° | 95km/h | 7962m | -4.5m/s | -24.7°C | 32% | 378.4hPa | 2.4V | 07:45:09 | 03:10:12 | 00:00:00 | |
| BIOWL1-15 | 2026-09-06 01:28:01 | 50.65550 | 8.91464 | 130° | 97km/h | 8004m | -4.2m/s | -24.9°C | 30.9% | 376.2hPa | 2.4V | 07:45:09 | 03:10:02 | 00:00:00 | |
| HSKMA3-T | 2026-09-06 01:28:00 | 50.65534 | 8.91494 | 130° | 97km/h | 8000m | -4.2m/s | -24.9°C | 31.1% | 376.4hPa | 2.4V | 07:45:09 | 03:10:03 | 00:00:00 | |
| HSKMA3-T | 2026-09-06 01:27:49 | 50.65706 | 8.91167 | 129° | 97km/h | 8046m | -4.2m/s | -25.2°C | 29.6% | 374.1hPa | 2.4V | 07:45:09 | 03:09:52 | 00:00:00 | |
| BIOWL1-15 | 2026-09-06 01:27:48 | 50.65721 | 8.91137 | 129° | 95km/h | 8050m | -4.4m/s | -25.2°C | 29.5% | 373.9hPa | 2.4V | 07:45:09 | 03:09:51 | 00:00:00 | |
| BIOWL1-15 | 2026-09-06 01:27:39 | 50.65892 | 8.90808 | 129° | 97km/h | 8099m | -4.3m/s | -25.3°C | 26.1% | 371.4hPa | 2.4V | 07:45:09 | 03:09:40 | 00:00:00 | |
| HSKMA3-T | 2026-09-06 01:27:38 | 50.65877 | 8.90838 | 129° | 97km/h | 8094m | -4.5m/s | -25.3°C | 26.5% | 371.7hPa | 2.4V | 07:45:09 | 03:09:41 | 00:00:00 | |
| DM7RM-13 | 2026-09-06 01:27:37 | 50.65877 | 8.90838 | 130° | 97km/h | 8094m | -4.5m/s | -25.3°C | 22.1% | 371.7hPa | 2.4V | 07:45:00 | 00:00:00 | 00:00:00 | |
| DO3MHA-12 | 2026-09-06 01:27:36 | 50.65907 | 8.90777 | 129° | 97km/h | 8103m | -4.1m/s | -25.2°C | 22.9% | 371.1hPa | 2.4V | 00:00:00 | 03:09:39 | 00:00:00 | |
| DM0DOS-11 | 2026-09-06 01:27:35 | 50.65952 | 8.90687 | 127° | 95km/h | 8116m | -4.3m/s | -25.4°C | 23.1% | 370.5hPa | 2.4V | 07:45:06 | 03:09:36 | 00:00:00 | |
| HSKMA3-T | 2026-09-06 01:27:28 | 50.66026 | 8.90536 | 128° | 95km/h | 8138m | -4.4m/s | -25.4°C | 26.2% | 369.4hPa | 2.4V | 07:46:00 | 03:09:31 | 00:00:00 | |
| BIOWL1-15 | 2026-09-06 01:27:26 | 50.66056 | 8.90475 | 127° | 97km/h | 8146m | -4.4m/s | -25.4°C | 26.4% | 368.9hPa | 2.5V | 07:46:00 | 03:09:29 | 00:00:00 | |
| DM0DOS-11 | 2026-09-06 01:27:25 | 50.66101 | 8.90383 | 127° | 97km/h | 8159m | -4.3m/s | -25.5°C | 23.9% | 368.3hPa | 2.4V | 07:45:16 | 03:09:26 | 00:00:00 | |
| HSKMA3-T | 2026-09-06 01:27:17 | 50.66191 | 8.90198 | 127° | 99km/h | 8186m | -4.7m/s | -25.7°C | 26.9% | 366.9hPa | 2.4V | 07:46:00 | 03:09:20 | 00:00:00 | |
| DB0UT-7 | 2026-09-06 01:27:17 | 50.66191 | 8.90198 | 127° | 100km/h | 8186m | -4.7m/s | -25.7°C | 24.0% | 366.9hPa | 2.4V | 00:00:00 | 00:00:00 | 00:00:00 | |
| SO1NDE-10 | 2026-09-06 01:27:16 | 50.66206 | 8.90166 | 127° | 100km/h | 8190m | -4.5m/s | -25.7°C | 24.1% | 366.6hPa | 2.4V | 00:00:00 | 03:09:19 | 00:00:00 | |
| DM0DOS-11 | 2026-09-06 01:27:15 | 50.66250 | 8.90071 | 126° | 100km/h | 8203m | -4.5m/s | -25.8°C | 23.6% | 366hPa | 2.4V | 07:45:26 | 03:09:16 | 00:00:00 | |
| BIOWL1-15 | 2026-09-06 01:27:15 | 50.66220 | 8.90135 | 126° | 99km/h | 8195m | -4.5m/s | -25.8°C | 26.9% | 366.5hPa | 2.5V | 07:46:00 | 03:09:18 | 00:00:00 | |
| HSKMA3-T | 2026-09-06 01:27:07 | 50.66339 | 8.89876 | 126° | 100km/h | 8231m | -4.8m/s | -26°C | 24.1% | 364.7hPa | 2.4V | 07:46:00 | 03:09:10 | 00:00:00 | |
| BIOWL1-15 | 2026-09-06 01:27:07 | 50.66370 | 8.89812 | 127° | 102km/h | 8241m | -4.6m/s | -26°C | 24.5% | 364.2hPa | 2.5V | 07:46:00 | 03:09:08 | 00:00:00 | |
| DM0DOS-11 | 2026-09-06 01:27:05 | 50.66400 | 8.89748 | 127° | 100km/h | 8250m | -4.4m/s | -26.1°C | 22.2% | 363.7hPa | 2.4V | 07:45:36 | 03:09:06 | 00:00:00 | |
| HSKMA3-T | 2026-09-06 01:26:56 | 50.66508 | 8.89524 | 128° | 100km/h | 8281m | -4.8m/s | -26.2°C | 27.7% | 362.2hPa | 2.5V | 07:46:00 | 03:08:59 | 00:00:00 | |
| DB0DAN | 2026-09-06 01:26:55 | 50.66524 | 8.89492 | 127° | 97km/h | 8286m | -4.5m/s | -26.3°C | 23.2% | 361.93hPa | 2.5V | 00:00:00 | 00:00:00 | 00:00:00 | |
| DM0DOS-11 | 2026-09-06 01:26:55 | 50.66555 | 8.89428 | 127° | 102km/h | 8295m | -4.8m/s | -26.3°C | 25% | 361.4hPa | 2.4V | 07:45:46 | 03:08:56 | 00:00:00 | |
| BIOWL1-15 | 2026-09-06 01:26:55 | 50.66524 | 8.89492 | 127° | 102km/h | 8285m | -4.5m/s | -26.3°C | 27.9% | 361.9hPa | 2.5V | 07:46:00 | 03:08:58 | 00:00:00 | |
| HSKMA3-T | 2026-09-06 01:26:45 | 50.66679 | 8.89167 | 126° | 102km/h | 8333m | -4.7m/s | -26.6°C | 27.7% | 359.6hPa | 2.5V | 07:46:00 | 03:08:48 | 00:00:00 | |
| DM0DOS-11 | 2026-09-06 01:26:45 | 50.66710 | 8.89101 | 126° | 102km/h | 8342m | -4.6m/s | -26.6°C | 24% | 359.1hPa | 2.4V | 07:45:56 | 03:08:46 | 00:00:00 | |
| BIOWL1-15 | 2026-09-06 01:26:44 | 50.66695 | 8.89134 | 127° | 102km/h | 8337m | -4.8m/s | -26.6°C | 27.4% | 359.3hPa | 2.5V | 07:46:00 | 03:08:47 | 00:00:00 | |
| DO3MHA-12 | 2026-09-06 01:26:44 | 50.66695 | 8.89134 | 127° | 102km/h | 8337m | -4.7m/s | -26.6°C | 24.2% | 359.3hPa | 2.5V | 00:00:00 | 03:08:47 | 00:00:00 | |
| AU51GT2 | 2026-09-06 01:26:41 | 50.66741 | 8.89036 | 126° | 102km/h | 8351m | -4.7m/s | -26.7°C | 21.6% | 358.6hPa | 2.5V | 00:00:00 | 00:00:00 | 00:00:00 | |
| DL1CLM-18 | 2026-09-06 01:26:40 | 50.66741 | 8.89036 | 128° | 102km/h | 8352m | -4.7m/s | -26.7°C | 21.6% | 358.6hPa | 2.5V | 07:46:00 | 00:00:00 | 00:00:00 | |
| DO3DL | 2026-09-06 01:26:39 | 50.66756 | 8.89003 | 127° | 102km/h | 8356m | -4.8m/s | -26.7°C | 21.2% | 358.4hPa | 2.5V | 07:46:00 | 00:00:00 | 00:00:00 | |
| DL3AQ-11 | 2026-09-06 01:26:38 | 50.66802 | 8.88905 | 126° | 100km/h | 8370m | -4.8m/s | -26.8°C | 21.4% | 357.7hPa | 2.5V | 00:00:00 | 00:00:00 | 00:00:00 | |
| HARRO8 | 2026-09-06 01:26:36 | 50.66818 | 8.88872 | 126° | 102km/h | 8375m | -4.8m/s | -26.8°C | 21.5% | 357.5hPa | 2.5V | 00:00:00 | 00:00:00 | 00:00:00 | |
| DM0DOS-11 | 2026-09-06 01:26:34 | 50.66865 | 8.88773 | 125° | 104km/h | 8389m | -5.1m/s | -27°C | 23.4% | 356.7hPa | 2.5V | 07:46:06 | 03:08:36 | 00:00:00 | |
| BIOWL1-15 | 2026-09-06 01:26:34 | 50.66849 | 8.88806 | 127° | 104km/h | 8384m | -4.7m/s | -26.9°C | 26.5% | 357hPa | 2.5V | 07:46:51 | 03:08:37 | 00:00:00 | |
| DO3MHA-12 | 2026-09-06 01:26:34 | 50.66849 | 8.88806 | 128° | 104km/h | 8384m | -4.6m/s | -26.9°C | 23.3% | 357.0hPa | 2.5V | 00:00:00 | 03:08:37 | 00:00:00 | |
| SONCRA | 2026-09-06 01:26:33 | 50.66865 | 8.88773 | 125° | 102km/h | 8389m | -5.1m/s | -27.0°C | 21.6% | 356.7hPa | 2.5V | 00:00:00 | 00:00:00 | 00:00:00 | |
| DL0LBS | 2026-09-06 01:26:29 | 50.66911 | 8.88673 | 127° | 102km/h | 8404m | -5.0m/s | -27.1°C | 21.8% | 356.1hPa | 2.5V | 07:46:00 | 00:00:00 | 00:00:00 | |
| DF7PN | 2026-09-06 01:26:28 | 50.66957 | 8.88572 | 125° | 102km/h | 8419m | -4.9m/s | -27.2°C | 21.6% | 355.3hPa | 2.5V | 00:00:00 | 00:00:00 | 00:00:00 | |
| DO3DL | 2026-09-06 01:26:26 | 50.66957 | 8.88571 | 126° | 104km/h | 8419m | -4.9m/s | -27.2°C | 21.6% | 355.3hPa | 2.5V | 07:46:00 | 00:00:00 | 00:00:00 | |
| DM0DOS-11 | 2026-09-06 01:26:24 | 50.67017 | 8.88437 | 125° | 102km/h | 8438m | -4.9m/s | -27.3°C | 23.1% | 354.4hPa | 2.5V | 07:46:16 | 03:08:26 | 00:00:00 | |
| HSKMA3-T | 2026-09-06 01:26:23 | 50.67017 | 8.88437 | 125° | 102km/h | 8438m | -4.9m/s | -27.3°C | 26.2% | 354.4hPa | 2.5V | 07:46:51 | 03:08:26 | 00:00:00 | |
| BIOWL9-15 | 2026-09-06 01:26:23 | 50.67017 | 8.88437 | 125° | 102km/h | 8438m | -4.9m/s | -27.3°C | 21.3% | 354.4hPa | 2.5V | 00:00:00 | 00:00:00 | 00:00:00 | |
| DB0ND-19 | 2026-09-06 01:26:22 | 50.67032 | 8.88403 | 125° | 102km/h | 8443m | -4.9m/s | -27.3°C | 21.4% | 354.1hPa | 2.5V | 00:00:00 | 00:00:00 | 00:00:00 | |
| DO3DL | 2026-09-06 01:26:20 | 50.67047 | 8.88370 | 126° | 104km/h | 8448m | -4.8m/s | -27.4°C | 21.4% | 353.9hPa | 2.5V | 07:46:00 | 00:00:00 | 00:00:00 | |
| DL1ZP-14 | 2026-09-06 01:26:18 | 50.67109 | 8.88236 | 125° | 104km/h | 8466m | -4.7m/s | -27.5°C | 21.6% | 353.0hPa | 2.5V | 00:00:00 | 00:00:00 | 00:00:00 | |
| NBG1-10 | 2026-09-06 01:26:17 | 50.67109 | 8.88236 | 126° | 104km/h | 8467m | -4.7m/s | -27.5°C | 23.5% | 352.9hPa | 2.5V | 00:00:00 | 03:08:20 | 00:00:00 | |
| SO1NDE-10 | 2026-09-06 01:26:16 | 50.67124 | 8.88202 | 126° | 104km/h | 8471m | -4.7m/s | -27.5°C | 23.6% | 352.7hPa | 2.4V | 00:00:00 | 03:08:19 | 00:00:00 | |
| DM0DOS-11 | 2026-09-06 01:26:14 | 50.67170 | 8.88101 | 125° | 104km/h | 8485m | -4.6m/s | -27.7°C | 23.5% | 352hPa | 2.4V | 07:46:26 | 03:08:16 | 00:00:00 | |
| BIOWL1-15 | 2026-09-06 01:26:13 | 50.67170 | 8.88101 | 126° | 104km/h | 8485m | -4.6m/s | -27.7°C | 26.6% | 352hPa | 2.4V | 07:46:51 | 03:08:16 | 00:00:00 | |
| HSKMA3-T | 2026-09-06 01:26:12 | 50.67185 | 8.88068 | 126° | 104km/h | 8490m | -4.7m/s | -27.7°C | 26.5% | 351.8hPa | 2.5V | 07:46:51 | 03:08:15 | 00:00:00 | |
| DJ2DS-15 | 2026-09-06 01:26:12 | 50.67200 | 8.88034 | 125° | 102km/h | 8494m | -4.8m/s | -27.8°C | 21.4% | 351.5hPa | 2.4V | 00:00:00 | 00:00:00 | 00:00:00 | |
| AU51GT2 | 2026-09-06 01:26:10 | 50.67216 | 8.88000 | 125° | 104km/h | 8499m | -5.0m/s | -27.8°C | 21.1% | 351.3hPa | 2.4V | 00:00:00 | 00:00:00 | 00:00:00 | |
| DL8OAI-8 | 2026-09-06 01:26:09 | 50.67216 | 8.88000 | 127° | 104km/h | 8499m | -5.0m/s | -27.8°C | 21.1% | 351.3hPa | 2.4V | 07:46:00 | 00:00:00 | 00:00:00 | |
| DL1CLM-18 | 2026-09-06 01:26:08 | 50.67231 | 8.87966 | 126° | 104km/h | 8504m | -5.1m/s | -27.8°C | 20.8% | 351.1hPa | 2.4V | 00:00:00 | 00:00:00 | 00:00:00 | |
| DO3DL | 2026-09-06 01:26:07 | 50.67246 | 8.87932 | 126° | 104km/h | 8509m | -5.0m/s | -27.9°C | 20.7% | 350.8hPa | 2.4V | 07:46:00 | 00:00:00 | 00:00:00 | |
| DM0DOS-11 | 2026-09-06 01:26:05 | 50.67322 | 8.87761 | 125° | 106km/h | 8534m | -4.9m/s | -28.1°C | 22% | 349.6hPa | 2.4V | 07:46:36 | 03:08:06 | 00:00:00 | |
| DF8AY | 2026-09-06 01:26:02 | 50.67338 | 8.87726 | 124° | 106km/h | 8539m | -5.1m/s | 0°C | 0% | 0hPa | 2.4V | 18:12:15 | 03:08:05 | 00:00:00 | |
| HSKMA3-T | 2026-09-06 01:26:01 | 50.67353 | 8.87692 | 125° | 106km/h | 8544m | -4.9m/s | -28.2°C | 24.7% | 349.1hPa | 2.5V | 07:46:51 | 03:08:04 | 00:00:00 | |
| BIOWL1-15 | 2026-09-06 01:25:56 | 50.67487 | 8.87381 | 123° | 104km/h | 8589m | -4.9m/s | -28.5°C | 22.2% | 347hPa | 2.4V | 07:46:51 | 03:07:55 | 00:00:00 | |
| DM0DOS-11 | 2026-09-06 01:25:54 | 50.67472 | 8.87415 | 123° | 104km/h | 8584m | -5m/s | -28.4°C | 19.4% | 347.2hPa | 2.4V | 07:46:46 | 03:07:56 | 00:00:00 | |
| HSKMA3-T | 2026-09-06 01:25:51 | 50.67502 | 8.87346 | 124° | 104km/h | 8594m | -5m/s | -28.5°C | 22% | 346.7hPa | 2.4V | 07:46:51 | 03:07:54 | 00:00:00 | |
| DF8AY | 2026-09-06 01:25:49 | 50.67532 | 8.87278 | 124° | 104km/h | 8603m | -5m/s | 0°C | 0% | 0hPa | 2.5V | 18:12:15 | 03:07:52 | 00:00:00 | |
| DC4HF-4 | 2026-09-06 01:25:46 | 50.67576 | 8.87175 | 124° | 104km/h | 8618m | -5.1m/s | -28.7°C | 17.6% | 345.5hPa | 2.5V | 00:00:00 | 00:00:00 | 00:00:00 | |
| DD1CC8 | 2026-09-06 01:25:45 | 50.67591 | 8.87140 | 124° | 104km/h | 8623m | -5.0m/s | -28.8°C | 17.7% | 345.3hPa | 2.5V | 00:00:00 | 00:00:00 | 00:00:00 | |
| DM0DOS-11 | 2026-09-06 01:25:44 | 50.67621 | 8.87072 | 124° | 106km/h | 8633m | -5.4m/s | -28.8°C | 19.6% | 344.8hPa | 2.5V | 07:46:56 | 03:07:46 | 00:00:00 | |
| HSKMA3-T | 2026-09-06 01:25:41 | 50.67651 | 8.87003 | 124° | 106km/h | 8644m | -4.9m/s | -28.9°C | 22.7% | 344.3hPa | 2.4V | 07:47:42 | 03:07:44 | 00:00:00 | |
| DF8AY | 2026-09-06 01:25:35 | 50.67739 | 8.86797 | 124° | 102km/h | 8673m | -4.9m/s | 0°C | 0% | 0hPa | 2.4V | 18:12:15 | 03:07:38 | 00:00:00 | |
| DM0DOS-11 | 2026-09-06 01:25:34 | 50.67768 | 8.86729 | 123° | 104km/h | 8683m | -5.1m/s | -29.2°C | 20.5% | 342.4hPa | 2.4V | 07:47:06 | 03:07:36 | 00:00:00 | |
| BIOWL1-15 | 2026-09-06 01:25:32 | 50.67812 | 8.86626 | 124° | 102km/h | 8698m | -5.5m/s | -29.4°C | 23.4% | 341.7hPa | 2.5V | 07:47:42 | 03:07:33 | 00:00:00 | |
| HSKMA3-T | 2026-09-06 01:25:31 | 50.67798 | 8.86660 | 124° | 104km/h | 8693m | -5.1m/s | -29.3°C | 23.3% | 341.9hPa | 2.5V | 07:47:42 | 03:07:34 | 00:00:00 | |
| DM0DOS-11 | 2026-09-06 01:25:24 | 50.67912 | 8.86386 | 122° | 102km/h | 8734m | -5.1m/s | -29.7°C | 20.8% | 340hPa | 2.5V | 07:47:16 | 03:07:26 | 00:00:00 | |
| DF8AY | 2026-09-06 01:25:24 | 50.67898 | 8.86420 | 123° | 104km/h | 8729m | -4.9m/s | 0°C | 0% | 0hPa | 2.5V | 18:12:15 | 03:07:27 | 00:00:00 | |
| BIOWL1-15 | 2026-09-06 01:25:23 | 50.68054 | 8.86044 | 123° | 102km/h | 8784m | -5.1m/s | -30.1°C | 23.5% | 337.6hPa | 2.5V | 07:47:42 | 03:07:16 | 00:00:00 | |
| HSKMA3-T | 2026-09-06 01:25:20 | 50.67955 | 8.86284 | 124° | 102km/h | 8749m | -5.1m/s | -29.8°C | 23.8% | 339.3hPa | 2.4V | 07:47:42 | 03:07:23 | 00:00:00 | |
| DB0NH | 2026-09-06 01:25:18 | 50.67983 | 8.86215 | 124° | 102km/h | 8759m | -5.1m/s | -29.8°C | 20.7% | 338.8hPa | 2.4V | 00:00:00 | 03:07:21 | 00:00:00 | |
| DB0UT-7 | 2026-09-06 01:25:17 | 50.67998 | 8.86181 | 124° | 102km/h | 8764m | -5.4m/s | -29.9°C | 20.6% | 338.5hPa | 2.4V | 00:00:00 | 00:00:00 | 00:00:00 | |
| SO1NDE-10 | 2026-09-06 01:25:16 | 50.68012 | 8.86147 | 124° | 102km/h | 8769m | -5.2m/s | -29.9°C | 20.5% | 338.3hPa | 2.4V | 00:00:00 | 03:07:19 | 00:00:00 | |
| DM0DOS-11 | 2026-09-06 01:25:14 | 50.68055 | 8.86044 | 122° | 102km/h | 8784m | -5.1m/s | -30.1°C | 20.5% | 337.6hPa | 2.5V | 07:47:26 | 03:07:16 | 00:00:00 | |
| DF8AY | 2026-09-06 01:25:12 | 50.68068 | 8.86010 | 123° | 102km/h | 8789m | -5.3m/s | 0°C | 0% | 0hPa | 2.5V | 18:12:15 | 03:07:15 | 00:00:00 | |
| BIOWL1-15 | 2026-09-06 01:25:11 | 50.68110 | 8.85907 | 122° | 102km/h | 8805m | -5.3m/s | -30.3°C | 23.4% | 336.6hPa | 2.4V | 07:47:42 | 03:07:12 | 00:00:00 | |
| HSKMA3-T | 2026-09-06 01:25:10 | 50.68096 | 8.85941 | 122° | 102km/h | 8800m | -5.4m/s | -30.2°C | 23.5% | 336.8hPa | 2.4V | 07:47:42 | 03:07:13 | 00:00:00 | |
| DF8AY | 2026-09-06 01:25:02 | 50.68205 | 8.85667 | 122° | 102km/h | 8841m | -5m/s | 0°C | 0% | 0hPa | 2.4V | 18:12:15 | 03:07:05 | 00:00:00 | |
| BIOWL1-15 | 2026-09-06 01:24:59 | 50.68245 | 8.85564 | 122° | 100km/h | 8856m | -5m/s | -30.6°C | 21.2% | 334.2hPa | 2.5V | 07:47:42 | 03:07:02 | 00:00:00 | |
| BIOWL1-15 | 2026-09-06 01:24:49 | 50.68377 | 8.85219 | 121° | 100km/h | 8907m | -5.2m/s | -31°C | 21.3% | 331.8hPa | 2.4V | 07:48:33 | 03:06:52 | 00:00:00 | |
| HSKMA3-T | 2026-09-06 01:24:48 | 50.68390 | 8.85185 | 120° | 100km/h | 8912m | -5m/s | -31°C | 21.4% | 331.6hPa | 2.4V | 07:48:33 | 03:06:51 | 00:00:00 | |
| BIOWL1-15 | 2026-09-06 01:24:40 | 50.68520 | 8.84838 | 120° | 100km/h | 8964m | -5.3m/s | -31.5°C | 22.2% | 329.2hPa | 2.5V | 07:48:33 | 03:06:41 | 00:00:00 | |
| HSKMA3-T | 2026-09-06 01:24:37 | 50.68533 | 8.84803 | 121° | 102km/h | 8969m | -5m/s | -31.6°C | 22.3% | 328.9hPa | 2.5V | 07:48:33 | 03:06:40 | 00:00:00 | |
| DD1CC3-15 | 2026-09-06 01:24:36 | 50.68533 | 8.84803 | 121° | 102km/h | 8969m | -5.0m/s | -31.5°C | 17.6% | 328.9hPa | 2.4V | 07:48:00 | 00:00:00 | 00:00:00 | |
| DM0DOS-11 | 2026-09-06 01:24:34 | 50.68585 | 8.84665 | 120° | 100km/h | 8989m | -5.4m/s | -31.7°C | 20% | 328hPa | 2.4V | 07:48:06 | 03:06:36 | 00:00:00 | |
| BIOWL1-15 | 2026-09-06 01:24:28 | 50.68651 | 8.84491 | 121° | 100km/h | 9016m | -5.1m/s | -32°C | 23.5% | 326.8hPa | 2.4V | 07:48:33 | 03:06:31 | 00:00:00 | |
| HSKMA3-T | 2026-09-06 01:24:27 | 50.68664 | 8.84457 | 121° | 100km/h | 9021m | -5.5m/s | -32°C | 23.9% | 326.5hPa | 2.4V | 07:48:33 | 03:06:30 | 00:00:00 | |
| DO3DL | 2026-09-06 01:24:25 | 50.68677 | 8.84423 | 122° | 100km/h | 9026m | -5.1m/s | -32.1°C | 19.2% | 326.3hPa | 2.5V | 07:48:00 | 00:00:00 | 00:00:00 | |
| DM0DOS-11 | 2026-09-06 01:24:24 | 50.68716 | 8.84320 | 121° | 100km/h | 9041m | -5m/s | -32.2°C | 21.7% | 325.6hPa | 2.5V | 07:48:16 | 03:06:26 | 00:00:00 | |
| DL1XH-west | 2026-09-06 01:24:23 | 50.68716 | 8.84320 | 121° | 100km/h | 9041m | -5m/s | -32.2°C | 24.5% | 325.6hPa | 2.5V | 07:48:33 | 03:06:26 | 00:00:00 | |
| HSKMA3-T | 2026-09-06 01:24:17 | 50.68796 | 8.84116 | 122° | 100km/h | 9071m | -5.4m/s | -32.5°C | 25.2% | 324.2hPa | 2.5V | 07:48:33 | 03:06:20 | 00:00:00 | |
| DB0UT-7 | 2026-09-06 01:24:17 | 50.68796 | 8.84116 | 122° | 102km/h | 9071m | -5.4m/s | -32.5°C | 22.4% | 324.1hPa | 2.4V | 00:00:00 | 00:00:00 | 00:00:00 | |
| SO1NDE-10 | 2026-09-06 01:24:16 | 50.68810 | 8.84082 | 123° | 102km/h | 9077m | -5.3m/s | -32.5°C | 22.4% | 323.9hPa | 2.4V | 00:00:00 | 03:06:19 | 00:00:00 | |
| DD1CC3-15 | 2026-09-06 01:24:15 | 50.68810 | 8.84082 | 124° | 102km/h | 9077m | -5.3m/s | -32.6°C | 20.3% | 324.0hPa | 2.4V | 07:48:00 | 00:00:00 | 00:00:00 | |
| DM0DOS-11 | 2026-09-06 01:24:14 | 50.68851 | 8.83979 | 122° | 102km/h | 9092m | -5.5m/s | -32.7°C | 22.9% | 323.2hPa | 2.4V | 07:48:26 | 03:06:16 | 00:00:00 | |
| DL1XH-west | 2026-09-06 01:24:11 | 50.68878 | 8.83911 | 122° | 102km/h | 9103m | -5.3m/s | -32.8°C | 25.7% | 322.8hPa | 2.5V | 07:48:33 | 03:06:14 | 00:00:00 | |
| HSKMA3-T | 2026-09-06 01:24:07 | 50.68931 | 8.83773 | 121° | 100km/h | 9124m | -5.2m/s | -32.9°C | 25.5% | 321.9hPa | 2.4V | 07:48:33 | 03:06:10 | 00:00:00 | |
| BIOWL7-15 | 2026-09-06 01:24:05 | 50.68945 | 8.83738 | 122° | 102km/h | 9129m | -5.1m/s | -33.0°C | 20.2% | 321.6hPa | 2.5V | 07:48:00 | 00:00:00 | 00:00:00 | |
| DM0DOS-11 | 2026-09-06 01:24:04 | 50.68984 | 8.83635 | 121° | 100km/h | 9145m | -4.9m/s | -33.1°C | 22.1% | 320.9hPa | 2.5V | 07:48:36 | 03:06:06 | 00:00:00 | |
| DL1XH-west | 2026-09-06 01:24:00 | 50.69025 | 8.83533 | 123° | 100km/h | 9159m | -4.9m/s | -33.1°C | 23.8% | 320.2hPa | 2.4V | 07:49:24 | 03:06:03 | 00:00:00 | |
| BIOWL1-15 | 2026-09-06 01:23:57 | 50.69066 | 8.83430 | 123° | 102km/h | 9175m | -5.6m/s | -33.1°C | 24.6% | 319.4hPa | 2.4V | 07:49:24 | 03:06:00 | 00:00:00 | |
| HSKMA3-T | 2026-09-06 01:23:56 | 50.69080 | 8.83396 | 122° | 102km/h | 9181m | -5.3m/s | -33.2°C | 25.1% | 319.2hPa | 2.4V | 07:49:24 | 03:05:59 | 00:00:00 | |
| DM0DOS-11 | 2026-09-06 01:23:54 | 50.69121 | 8.83293 | 122° | 100km/h | 9196m | -5.1m/s | -33.3°C | 23.3% | 318.5hPa | 2.5V | 07:48:46 | 03:05:56 | 00:00:00 | |
| DL1XH-west | 2026-09-06 01:23:50 | 50.69162 | 8.83191 | 123° | 102km/h | 9212m | -5.4m/s | -33.4°C | 26.9% | 317.8hPa | 2.4V | 07:49:24 | 03:05:53 | 00:00:00 | |
| BIOWL1-15 | 2026-09-06 01:23:47 | 50.69203 | 8.83088 | 122° | 102km/h | 9227m | -5.2m/s | -33.6°C | 26.4% | 317.1hPa | 2.5V | 07:49:24 | 03:05:50 | 00:00:00 | |
| HSKMA3-T | 2026-09-06 01:23:46 | 50.69217 | 8.83054 | 123° | 102km/h | 9232m | -5m/s | -33.6°C | 26.2% | 316.8hPa | 2.5V | 07:49:24 | 03:05:49 | 00:00:00 | |
| BUE01 | 2026-09-06 01:23:45 | 50.69231 | 8.83019 | 122° | 102km/h | 9237m | -5.5m/s | -33.6°C | 20.7% | 316.6hPa | 2.4V | 00:00:00 | 00:00:00 | 00:00:00 | |
| DM0DOS-11 | 2026-09-06 01:23:44 | 50.69259 | 8.82950 | 122° | 102km/h | 9248m | -5.3m/s | -33.7°C | 22.2% | 316.2hPa | 2.4V | 07:48:56 | 03:05:46 | 00:00:00 | |
| DL4BBY-15 | 2026-09-06 01:23:44 | 50.69245 | 8.82984 | 122° | 104km/h | 9243m | -5.5m/s | -36.2°C | 0% | 0hPa | 2.5V | 00:00:00 | 00:00:00 | 00:00:00 | |
| DO3MHA-12 | 2026-09-06 01:23:43 | 50.69259 | 8.82950 | 123° | 102km/h | 9248m | -5.3m/s | -33.6°C | 22.2% | 316.1hPa | 2.5V | 00:00:00 | 03:05:46 | 00:00:00 | |
| DB0DAN | 2026-09-06 01:23:40 | 50.69300 | 8.82846 | 122° | 99km/h | 9264m | -5.4m/s | -33.8°C | 19.3% | 315.44hPa | 2.5V | 00:00:00 | 00:00:00 | 00:00:00 | |
| BIOWL1-15 | 2026-09-06 01:23:39 | 50.69341 | 8.82742 | 121° | 102km/h | 9280m | -5m/s | -33.9°C | 24.4% | 314.7hPa | 2.4V | 07:49:24 | 03:05:40 | 00:00:00 | |
| DL1XH1-15 | 2026-09-06 01:23:38 | 50.69368 | 8.82672 | 120° | 102km/h | 9290m | -5.2m/s | -34°C | 21.7% | 314.2hPa | 2.5V | 07:49:04 | 03:05:38 | 00:00:00 | |
| HSKMA3-T | 2026-09-06 01:23:36 | 50.69354 | 8.82707 | 122° | 102km/h | 9285m | -5.2m/s | -34°C | 24.5% | 314.5hPa | 2.4V | 07:49:24 | 03:05:39 | 00:00:00 | |
| DM0DOS-11 | 2026-09-06 01:23:34 | 50.69395 | 8.82602 | 121° | 102km/h | 9299m | -5.4m/s | -34.1°C | 22% | 313.8hPa | 2.4V | 07:49:06 | 03:05:36 | 00:00:00 | |
| DL1XH-west | 2026-09-06 01:23:33 | 50.69395 | 8.82602 | 122° | 102km/h | 9300m | -5.4m/s | -34.1°C | 24.9% | 313.8hPa | 2.4V | 07:49:24 | 03:05:36 | 00:00:00 | |
| BIOWL1-15 | 2026-09-06 01:23:28 | 50.69489 | 8.82358 | 121° | 104km/h | 9336m | -5.3m/s | -34.4°C | 25.7% | 312.1hPa | 2.4V | 07:49:24 | 03:05:29 | 00:00:00 | |
| DM0DOS-11 | 2026-09-06 01:23:27 | 50.69530 | 8.82253 | 121° | 104km/h | 9352m | -5.4m/s | -34.6°C | 23.1% | 311.5hPa | 2.4V | 07:49:16 | 03:05:26 | 00:00:00 | |
| HSKMA3-T | 2026-09-06 01:23:25 | 50.69503 | 8.82323 | 122° | 102km/h | 9342m | -5.3m/s | -34.5°C | 25.8% | 311.9hPa | 2.5V | 07:49:24 | 03:05:28 | 00:00:00 | |
| DL1XH-west | 2026-09-06 01:23:22 | 50.69544 | 8.82217 | 122° | 104km/h | 9357m | -5.4m/s | -34.6°C | 26% | 311.2hPa | 2.4V | 07:49:24 | 03:05:25 | 00:00:00 | |
| DF7PN | 2026-09-06 01:23:21 | 50.69558 | 8.82182 | 121° | 104km/h | 9363m | -5.3m/s | -34.6°C | 20.6% | 311.0hPa | 2.5V | 00:00:00 | 00:00:00 | 00:00:00 | |
| DO2KSM | 2026-09-06 01:23:19 | 50.69571 | 8.82146 | 123° | 104km/h | 9368m | -5.3m/s | -34.7°C | 20.6% | 310.8hPa | 2.5V | 07:49:00 | 00:00:00 | 00:00:00 | |
| DL1XH1-15 | 2026-09-06 01:23:18 | 50.69641 | 8.81969 | 122° | 104km/h | 9394m | -5.4m/s | -34.9°C | 22.5% | 309.6hPa | 2.5V | 07:49:24 | 03:05:18 | 00:00:00 | |
| DB0NH | 2026-09-06 01:23:18 | 50.69599 | 8.82075 | 122° | 108km/h | 9378m | -5.3m/s | -34.7°C | 22.9% | 310.2hPa | 2.4V | 00:00:00 | 03:05:21 | 00:00:00 | |
| DM0DOS-11 | 2026-09-06 01:23:17 | 50.69669 | 8.81898 | 122° | 104km/h | 9404m | -5.2m/s | -35°C | 22% | 309.1hPa | 2.4V | 07:49:26 | 03:05:16 | 00:00:00 | |
| HSKMA3-T | 2026-09-06 01:23:15 | 50.69641 | 8.81969 | 123° | 104km/h | 9394m | -5.4m/s | -34.9°C | 25.4% | 309.6hPa | 2.5V | 07:49:24 | 03:05:18 | 00:00:00 | |
| DL1XH-west | 2026-09-06 01:23:11 | 50.69698 | 8.81828 | 122° | 104km/h | 9415m | -5.3m/s | -35°C | 24.1% | 308.6hPa | 2.4V | 07:50:15 | 03:05:14 | 00:00:00 | |
| DB0DAN | 2026-09-06 01:23:10 | 50.69712 | 8.81793 | 123° | 99km/h | 9420m | -5m/s | -35.1°C | 18.8% | 308.45hPa | 2.5V | 00:00:00 | 00:00:00 | 00:00:00 | |
| DF8AY | 2026-09-06 01:23:10 | 50.69712 | 8.81793 | 123° | 104km/h | 9420m | -5m/s | -35.1°C | 23.8% | 0hPa | 2.5V | 07:50:15 | 03:05:13 | 00:00:00 | |
| DD1CC8 | 2026-09-06 01:23:10 | 50.69726 | 8.81758 | 122° | 104km/h | 9425m | -5.2m/s | -35.1°C | 18.6% | 308.2hPa | 2.4V | 00:00:00 | 00:00:00 | 00:00:00 | |
| DM0DOS-11 | 2026-09-06 01:23:07 | 50.69813 | 8.81545 | 122° | 108km/h | 9456m | -5.6m/s | -35.3°C | 21.7% | 306.8hPa | 2.4V | 07:49:36 | 03:05:06 | 00:00:00 | |
| BIOWL1-15 | 2026-09-06 01:23:05 | 50.69784 | 8.81617 | 123° | 108km/h | 9445m | -5.4m/s | -35.2°C | 23.9% | 307.2hPa | 2.5V | 07:50:15 | 03:05:08 | 00:00:00 | |
| DL1XH-west | 2026-09-06 01:23:01 | 50.69842 | 8.81473 | 123° | 108km/h | 9467m | -5.6m/s | -35.4°C | 25% | 306.4hPa | 2.4V | 07:50:15 | 03:05:04 | 00:00:00 | |
| DF8AY | 2026-09-06 01:22:59 | 50.69871 | 8.81400 | 122° | 108km/h | 9478m | -5.6m/s | -35.5°C | 25.5% | 0hPa | 2.5V | 07:50:15 | 03:05:02 | 00:00:00 | |
| NBG1-10 | 2026-09-06 01:22:59 | 50.69871 | 8.81400 | 123° | 111km/h | 9478m | -5.6m/s | -35.4°C | 22.7% | 305.8hPa | 2.5V | 00:00:00 | 03:05:02 | 00:00:00 | |
| DO3DL | 2026-09-06 01:22:58 | 50.69871 | 8.81400 | 123° | 108km/h | 9478m | -5.6m/s | -35.5°C | 20.3% | 305.9hPa | 2.4V | 07:50:00 | 00:00:00 | 00:00:00 | |
| DM0DOS-11 | 2026-09-06 01:22:57 | 50.69959 | 8.81180 | 122° | 110km/h | 9509m | -5.4m/s | -35.7°C | 23.1% | 304.4hPa | 2.4V | 07:49:46 | 03:04:56 | 00:00:00 | |
| BIOWL1-15 | 2026-09-06 01:22:54 | 50.69944 | 8.81217 | 122° | 110km/h | 9504m | -5.6m/s | -35.7°C | 26% | 304.7hPa | 2.5V | 07:50:15 | 03:04:57 | 00:00:00 | |
| DL1XH-west | 2026-09-06 01:22:50 | 50.70003 | 8.81068 | 121° | 110km/h | 9525m | -5.8m/s | -35.8°C | 25.2% | 303.8hPa | 2.5V | 07:50:15 | 03:04:53 | 00:00:00 | |
| DB0NH | 2026-09-06 01:22:48 | 50.70032 | 8.80993 | 122° | 113km/h | 9536m | -5.4m/s | -35.8°C | 22.1% | 303.2hPa | 2.4V | 00:00:00 | 03:04:51 | 00:00:00 | |
| DM0DOS-11 | 2026-09-06 01:22:47 | 50.70105 | 8.80803 | 120° | 111km/h | 9563m | -5.6m/s | -36°C | 21.1% | 302.2hPa | 2.4V | 07:49:56 | 03:04:46 | 00:00:00 | |
| BIOWL9-15 | 2026-09-06 01:22:46 | 50.70076 | 8.80879 | 120° | 110km/h | 9552m | -5.8m/s | -36.0°C | 19.2% | 302.6hPa | 2.5V | 00:00:00 | 00:00:00 | 00:00:00 | |
| DF8AY | 2026-09-06 01:22:44 | 50.70090 | 8.80841 | 121° | 111km/h | 9558m | -5.5m/s | -36°C | 24% | 0hPa | 2.5V | 07:50:15 | 03:04:47 | 00:00:00 | |
| BIOWL1-15 | 2026-09-06 01:22:43 | 50.70104 | 8.80803 | 121° | 111km/h | 9563m | -5.6m/s | -36.1°C | 23.7% | 302.2hPa | 2.4V | 07:50:15 | 03:04:46 | 00:00:00 | |
| DL1XH-west | 2026-09-06 01:22:40 | 50.70148 | 8.80689 | 121° | 111km/h | 9579m | -5.5m/s | -36.2°C | 23.2% | 301.5hPa | 2.5V | 07:50:15 | 03:04:43 | 00:00:00 | |
| DF8AY | 2026-09-06 01:22:33 | 50.70304 | 8.80261 | 119° | 115km/h | 9638m | -5.7m/s | -36.7°C | 23.3% | 0hPa | 2.5V | 07:50:15 | 03:04:32 | 00:00:00 | |
| BIOWL1-15 | 2026-09-06 01:22:32 | 50.70261 | 8.80379 | 120° | 113km/h | 9622m | -5.6m/s | -36.5°C | 23% | 299.6hPa | 2.4V | 07:50:15 | 03:04:35 | 00:00:00 | |
| DL1XH-west | 2026-09-06 01:22:30 | 50.70290 | 8.80301 | 120° | 113km/h | 9633m | -5.5m/s | -36.6°C | 23.2% | 299.1hPa | 2.5V | 07:50:15 | 03:04:33 | 00:00:00 | |
| HARRO8 | 2026-09-06 01:22:28 | 50.70318 | 8.80222 | 119° | 113km/h | 9644m | -5.8m/s | -36.7°C | 18.5% | 298.7hPa | 2.5V | 00:00:00 | 00:00:00 | 00:00:00 | |
| DM0DOS-11 | 2026-09-06 01:22:27 | 50.70388 | 8.80023 | 119° | 113km/h | 9671m | -5.6m/s | -36.9°C | 21.5% | 297.5hPa | 2.5V | 07:50:16 | 03:04:26 | 00:00:00 | |
| BIOWL1-15 | 2026-09-06 01:22:21 | 50.70417 | 8.79944 | 120° | 113km/h | 9683m | -5.9m/s | -37°C | 24.1% | 297hPa | 2.4V | 07:51:06 | 03:04:24 | 00:00:00 | |
| DL1XH-west | 2026-09-06 01:22:20 | 50.70431 | 8.79905 | 120° | 115km/h | 9688m | -5.6m/s | -37°C | 24.2% | 296.8hPa | 2.4V | 07:51:06 | 03:04:23 | 00:00:00 | |
| DF8AY | 2026-09-06 01:22:18 | 50.70461 | 8.79826 | 121° | 115km/h | 9699m | -5.6m/s | -37.1°C | 24.2% | 0hPa | 2.4V | 07:51:06 | 03:04:21 | 00:00:00 | |
| DB0NH | 2026-09-06 01:22:18 | 50.70461 | 8.79826 | 122° | 113km/h | 9700m | -5.6m/s | -37.0°C | 21.7% | 296.3hPa | 2.4V | 00:00:00 | 03:04:21 | 00:00:00 | |
| DM0DOS-11 | 2026-09-06 01:22:17 | 50.70536 | 8.79632 | 121° | 115km/h | 9727m | -5.6m/s | -37.2°C | 21.6% | 295.2hPa | 2.4V | 07:50:26 | 03:04:16 | 00:00:00 | |
| BIOWL1-15 | 2026-09-06 01:22:14 | 50.70581 | 8.79516 | 122° | 113km/h | 9743m | -5.4m/s | -37.3°C | 24.2% | 294.5hPa | 2.4V | 07:51:06 | 03:04:13 | 00:00:00 | |
| HSKMA3-T | 2026-09-06 01:22:11 | 50.70566 | 8.79554 | 122° | 113km/h | 9738m | -5.5m/s | -37.3°C | 24.2% | 294.7hPa | 2.5V | 07:51:06 | 03:04:14 | 00:00:00 | |
| DL1XH-west | 2026-09-06 01:22:09 | 50.70596 | 8.79477 | 122° | 113km/h | 9749m | -5.3m/s | -37.4°C | 24.2% | 294.3hPa | 2.4V | 07:51:06 | 03:04:12 | 00:00:00 | |
| DM0DOS-11 | 2026-09-06 01:22:07 | 50.70689 | 8.79248 | 122° | 113km/h | 9780m | -5.2m/s | -37.5°C | 21.1% | 292.9hPa | 2.4V | 07:50:36 | 03:04:06 | 00:00:00 | |
| DF8AY | 2026-09-06 01:22:02 | 50.70704 | 8.79210 | 123° | 113km/h | 9785m | -5.1m/s | -37.5°C | 23.6% | 0hPa | 2.4V | 07:51:06 | 03:04:05 | 00:00:00 | |
| HSKMA3-T | 2026-09-06 01:22:00 | 50.70736 | 8.79134 | 123° | 113km/h | 9795m | -5.5m/s | -37.6°C | 23.6% | 292.2hPa | 2.5V | 07:51:06 | 03:04:03 | 00:00:00 | |
| DL1XH-west | 2026-09-06 01:21:59 | 50.70751 | 8.79096 | 123° | 115km/h | 9800m | -5.5m/s | -37.7°C | 23.6% | 292hPa | 2.5V | 07:51:06 | 03:04:02 | 00:00:00 | |
| HSKMA3-T | 2026-09-06 01:21:50 | 50.70894 | 8.78754 | 123° | 115km/h | 9849m | -5.3m/s | -38.1°C | 23.6% | 290hPa | 2.4V | 07:51:06 | 03:03:53 | 00:00:00 | |
| DL1XH-west | 2026-09-06 01:21:49 | 50.70909 | 8.78716 | 123° | 115km/h | 9854m | -5.4m/s | -38.1°C | 23.7% | 289.7hPa | 2.4V | 07:51:06 | 03:03:52 | 00:00:00 | |
| DL1XH1-15 | 2026-09-06 01:21:48 | 50.70972 | 8.78563 | 122° | 113km/h | 9876m | -5.2m/s | -38.3°C | 21.5% | 288.9hPa | 2.4V | 07:50:54 | 03:03:48 | 00:00:00 | |
| DB0NH | 2026-09-06 01:21:48 | 50.70925 | 8.78677 | 123° | 113km/h | 9860m | -5.4m/s | -38.1°C | 21.3% | 289.5hPa | 2.5V | 00:00:00 | 03:03:51 | 00:00:00 | |
| DM0DOS-11 | 2026-09-06 01:21:47 | 50.71003 | 8.78487 | 122° | 113km/h | 9886m | -5.6m/s | -38.4°C | 21.7% | 288.4hPa | 2.4V | 07:50:56 | 03:03:46 | 00:00:00 | |
| DF8AY | 2026-09-06 01:21:47 | 50.70941 | 8.78639 | 123° | 115km/h | 9865m | -5.3m/s | -38.2°C | 23.9% | 0hPa | 2.5V | 07:51:06 | 03:03:50 | 00:00:00 | |
| HSKMA3-T | 2026-09-06 01:21:40 | 50.71048 | 8.78373 | 122° | 113km/h | 9902m | -5.4m/s | -38.6°C | 24.5% | 287.7hPa | 2.5V | 07:51:06 | 03:03:43 | 00:00:00 | |
| DL1XH1-15 | 2026-09-06 01:21:38 | 50.71124 | 8.78183 | 122° | 113km/h | 9929m | -5.4m/s | -38.8°C | 22.6% | 286.6hPa | 2.5V | 07:51:04 | 03:03:38 | 00:00:00 | |
| BIOWL1-15 | 2026-09-06 01:21:38 | 50.71079 | 8.78297 | 122° | 113km/h | 9913m | -5.4m/s | -38.7°C | 24.6% | 287.3hPa | 2.4V | 07:51:06 | 03:03:41 | 00:00:00 | |
| DF8AY | 2026-09-06 01:21:31 | 50.71185 | 8.78032 | 123° | 113km/h | 9951m | -5.5m/s | -39°C | 25.4% | 0hPa | 2.4V | 18:12:15 | 03:03:34 | 00:00:00 | |
| HSKMA3-T | 2026-09-06 01:21:29 | 50.71216 | 8.77957 | 123° | 113km/h | 9962m | -5.7m/s | -39.1°C | 25.4% | 285.2hPa | 2.4V | 07:51:57 | 03:03:32 | 00:00:00 | |
| DL1XH1-15 | 2026-09-06 01:21:28 | 50.71278 | 8.77806 | 122° | 111km/h | 9984m | -5.3m/s | -39.3°C | 22.6% | 284.3hPa | 2.4V | 07:51:14 | 03:03:28 | 00:00:00 | |
| DM0DOS-11 | 2026-09-06 01:21:27 | 50.71308 | 8.77732 | 121° | 111km/h | 9995m | -5.5m/s | -39.4°C | 22.4% | 283.9hPa | 2.4V | 07:51:16 | 03:03:26 | 00:00:00 | |
| BIOWL1-15 | 2026-09-06 01:21:27 | 50.71247 | 8.77882 | 123° | 111km/h | 9973m | -5.7m/s | -39.2°C | 25.2% | 284.8hPa | 2.5V | 07:51:57 | 03:03:30 | 00:00:00 | |
| HARRO8 | 2026-09-06 01:21:26 | 50.71262 | 8.77844 | 122° | 111km/h | 9979m | -5.5m/s | -39.2°C | 19.9% | 284.6hPa | 2.4V | 00:00:00 | 00:00:00 | 00:00:00 | |
| DO3MHA-12 | 2026-09-06 01:21:23 | 50.71308 | 8.77732 | 122° | 111km/h | 9995m | -5.4m/s | -39.3°C | 22.4% | 283.9hPa | 2.4V | 00:00:00 | 03:03:26 | 00:00:00 | |
| DO9LL-15 | 2026-09-06 01:21:21 | 50.71338 | 8.77656 | 123° | 110km/h | 10006m | -5.4m/s | -39.4°C | 22.0% | 283.4hPa | 2.5V | 00:00:00 | 03:03:24 | 00:00:00 | |
| NBG1-10 | 2026-09-06 01:21:20 | 50.71353 | 8.77619 | 123° | 110km/h | 10011m | -5.2m/s | -39.4°C | 21.9% | 283.2hPa | 2.5V | 00:00:00 | 03:03:23 | 00:00:00 | |
| DL1XH1-15 | 2026-09-06 01:21:18 | 50.71428 | 8.77431 | 122° | 110km/h | 10038m | -5.3m/s | -39.6°C | 21.1% | 282.2hPa | 2.4V | 07:51:24 | 03:03:18 | 00:00:00 | |
| HSKMA3-T | 2026-09-06 01:21:18 | 50.71383 | 8.77544 | 122° | 111km/h | 10022m | -5.2m/s | -39.5°C | 23.8% | 282.9hPa | 2.4V | 07:51:57 | 03:03:21 | 00:00:00 | |
| DL3AQ-11 | 2026-09-06 01:21:18 | 50.71398 | 8.77506 | 122° | 111km/h | 10027m | -5.4m/s | -39.6°C | 18.7% | 282.6hPa | 2.5V | 00:00:00 | 00:00:00 | 00:00:00 | |
| DM0DOS-11 | 2026-09-06 01:21:17 | 50.71458 | 8.77356 | 122° | 110km/h | 10048m | -5.2m/s | -39.7°C | 21.2% | 281.7hPa | 2.5V | 07:51:26 | 03:03:16 | 00:00:00 | |
| DL1XH-west | 2026-09-06 01:21:17 | 50.71398 | 8.77506 | 122° | 111km/h | 10027m | -5.4m/s | -39.6°C | 23.6% | 282.6hPa | 2.4V | 07:51:57 | 03:03:20 | 00:00:00 | |
| BIOWL1-15 | 2026-09-06 01:21:16 | 50.71413 | 8.77468 | 122° | 111km/h | 10032m | -5.4m/s | -39.6°C | 23.4% | 282.4hPa | 2.4V | 07:51:57 | 03:03:19 | 00:00:00 | |
| DF8AY | 2026-09-06 01:21:14 | 50.71443 | 8.77393 | 122° | 111km/h | 10043m | -5.3m/s | -39.7°C | 23.4% | 0hPa | 2.5V | 18:12:15 | 03:03:17 | 00:00:00 | |
| DJ2DS-15 | 2026-09-06 01:21:14 | 50.71443 | 8.77393 | 123° | 110km/h | 10043m | -5.2m/s | -39.6°C | 21.2% | 281.9hPa | 2.4V | 00:00:00 | 03:03:17 | 00:00:00 | |
| DO3MHA-12 | 2026-09-06 01:21:13 | 50.71458 | 8.77356 | 123° | 110km/h | 10048m | -5.2m/s | -39.6°C | 21.2% | 281.6hPa | 2.4V | 00:00:00 | 03:03:16 | 00:00:00 | |
| DB0ND-19 | 2026-09-06 01:21:12 | 50.71487 | 8.77283 | 122° | 108km/h | 10059m | -5.5m/s | -39.8°C | 18.7% | 281.3hPa | 2.4V | 00:00:00 | 00:00:00 | 00:00:00 | |
| DJ2KF-10 | 2026-09-06 01:21:11 | 50.71487 | 8.77282 | 123° | 110km/h | 10059m | -5.4m/s | -39.7°C | 21.4% | 281.2hPa | 2.4V | 00:00:00 | 03:03:14 | 00:00:00 | |
| DD1CC3-15 | 2026-09-06 01:21:10 | 50.71487 | 8.77282 | 123° | 110km/h | 10059m | -5.5m/s | -39.8°C | 18.7% | 281.3hPa | 2.4V | 07:51:00 | 00:00:00 | 00:00:00 | |
| DL1XH1-15 | 2026-09-06 01:21:08 | 50.71576 | 8.77063 | 122° | 110km/h | 10090m | -5.4m/s | -40°C | 21.6% | 279.9hPa | 2.4V | 07:51:34 | 03:03:08 | 00:00:00 | |
| DM0DOS-11 | 2026-09-06 01:21:07 | 50.71606 | 8.76989 | 122° | 110km/h | 10101m | -5.5m/s | -40.1°C | 21.5% | 279.5hPa | 2.4V | 07:51:36 | 03:03:06 | 00:00:00 | |
| HSKMA3-T | 2026-09-06 01:21:07 | 50.71547 | 8.77136 | 122° | 110km/h | 10080m | -5.3m/s | -40°C | 23.8% | 280.4hPa | 2.5V | 07:51:57 | 03:03:10 | 00:00:00 | |
| BIOWL1-15 | 2026-09-06 01:21:06 | 50.71562 | 8.77100 | 122° | 108km/h | 10085m | -5.3m/s | -40°C | 23.8% | 280.2hPa | 2.5V | 07:51:57 | 03:03:09 | 00:00:00 | |
| DF8AY | 2026-09-06 01:21:04 | 50.71591 | 8.77026 | 122° | 110km/h | 10095m | -5.6m/s | -40.1°C | 23.8% | 0hPa | 2.4V | 18:12:15 | 03:03:07 | 00:00:00 | |
| DO3MHA-12 | 2026-09-06 01:21:03 | 50.71606 | 8.76989 | 123° | 110km/h | 10101m | -5.4m/s | -40.1°C | 21.5% | 279.5hPa | 2.5V | 00:00:00 | 03:03:06 | 00:00:00 | |
| AU51GT2 | 2026-09-06 01:21:00 | 50.71650 | 8.76879 | 121° | 108km/h | 10118m | -5.5m/s | -40.2°C | 18.6% | 278.9hPa | 2.5V | 00:00:00 | 00:00:00 | 00:00:00 | |
| DL1XH1-15 | 2026-09-06 01:20:58 | 50.71723 | 8.76695 | 122° | 110km/h | 10145m | -5.5m/s | -40.4°C | 21.4% | 277.8hPa | 2.5V | 07:51:44 | 03:02:58 | 00:00:00 | |
| HSKMA3-T | 2026-09-06 01:20:57 | 50.71694 | 8.76768 | 122° | 108km/h | 10134m | -5.4m/s | -40.4°C | 23.6% | 278.2hPa | 2.4V | 07:51:57 | 03:03:00 | 00:00:00 | |
| DM0DOS-11 | 2026-09-06 01:20:56 | 50.71753 | 8.76622 | 122° | 110km/h | 10156m | -5.4m/s | -40.5°C | 21.2% | 277.3hPa | 2.4V | 07:51:46 | 03:02:56 | 00:00:00 | |
| DL1XH-west | 2026-09-06 01:20:55 | 50.71723 | 8.76695 | 122° | 110km/h | 10145m | -5.5m/s | -40.4°C | 23.5% | 277.8hPa | 2.5V | 07:51:57 | 03:02:58 | 00:00:00 | |
| DF8AY | 2026-09-06 01:20:54 | 50.71738 | 8.76659 | 123° | 108km/h | 10150m | -5.3m/s | -40.5°C | 23.4% | 0hPa | 2.4V | 18:12:15 | 03:02:57 | 00:00:00 | |
| DL3AQ-11 | 2026-09-06 01:20:53 | 50.71753 | 8.76622 | 122° | 108km/h | 10156m | -5.4m/s | -40.5°C | 18.4% | 277.3hPa | 2.5V | 00:00:00 | 00:00:00 | 00:00:00 | |
| SONCRA | 2026-09-06 01:20:52 | 50.71783 | 8.76549 | 123° | 108km/h | 10166m | -5.5m/s | -40.6°C | 18.3% | 276.9hPa | 2.5V | 00:00:00 | 00:00:00 | 00:00:00 | |
| DO9LL-15 | 2026-09-06 01:20:51 | 50.71783 | 8.76549 | 124° | 110km/h | 10166m | -5.4m/s | -40.5°C | 21.1% | 276.8hPa | 2.5V | 00:00:00 | 03:02:54 | 00:00:00 | |
| DD1CC3-15 | 2026-09-06 01:20:49 | 50.71797 | 8.76513 | 124° | 110km/h | 10172m | -5.4m/s | -40.6°C | 18.2% | 276.7hPa | 2.5V | 07:51:00 | 00:00:00 | 00:00:00 | |
| DL1XH1-15 | 2026-09-06 01:20:48 | 50.71873 | 8.76331 | 123° | 108km/h | 10200m | -5.5m/s | -40.8°C | 20.9% | 275.6hPa | 2.5V | 07:51:54 | 03:02:48 | 00:00:00 | |
| DB0NH | 2026-09-06 01:20:48 | 50.71828 | 8.76440 | 123° | 110km/h | 10183m | -5.5m/s | -40.6°C | 21.0% | 276.2hPa | 2.4V | 07:51:00 | 03:02:51 | 00:00:00 | |
| NBG1-10 | 2026-09-06 01:20:47 | 50.71843 | 8.76404 | 124° | 111km/h | 10189m | -5.5m/s | -40.6°C | 21.0% | 276.0hPa | 2.4V | 00:00:00 | 03:02:50 | 00:00:00 | |
| DM0DOS-11 | 2026-09-06 01:20:46 | 50.71904 | 8.76258 | 123° | 110km/h | 10210m | -5.5m/s | -40.8°C | 21% | 275.2hPa | 2.4V | 07:51:56 | 03:02:46 | 00:00:00 | |
| HSKMA3-T | 2026-09-06 01:20:46 | 50.71858 | 8.76367 | 123° | 110km/h | 10194m | -5.6m/s | -40.7°C | 23.1% | 275.8hPa | 2.5V | 07:51:57 | 03:02:49 | 00:00:00 | |
| DL1XH-west | 2026-09-06 01:20:45 | 50.71873 | 8.76331 | 123° | 108km/h | 10200m | -5.5m/s | -40.8°C | 23.1% | 275.6hPa | 2.5V | 07:51:57 | 03:02:48 | 00:00:00 | |
| BIOWL1-15 | 2026-09-06 01:20:44 | 50.71889 | 8.76295 | 124° | 110km/h | 10205m | -5.5m/s | -40.8°C | 23.1% | 275.4hPa | 2.4V | 07:51:57 | 03:02:47 | 00:00:00 | |
| DL4BBY-15 | 2026-09-06 01:20:44 | 50.71889 | 8.76294 | 124° | 111km/h | 10205m | -5.4m/s | -43.3°C | 0% | 0hPa | 2.5V | 00:00:00 | 00:00:00 | 00:00:00 | |
| DO3MHA-12 | 2026-09-06 01:20:43 | 50.71904 | 8.76258 | 124° | 110km/h | 10210m | -5.5m/s | -40.8°C | 21.0% | 275.1hPa | 2.5V | 00:00:00 | 03:02:46 | 00:00:00 | |
| DO3DL | 2026-09-06 01:20:42 | 50.71903 | 8.76258 | 124° | 110km/h | 10210m | -5.6m/s | -40.8°C | 18.1% | 275.2hPa | 2.5V | 00:00:00 | 00:00:00 | 00:00:00 | |
| DB0ND-19 | 2026-09-06 01:20:41 | 50.71949 | 8.76150 | 123° | 108km/h | 10227m | -5.3m/s | -41.0°C | 18.1% | 274.5hPa | 2.5V | 00:00:00 | 00:00:00 | 00:00:00 | |
| BUE01 | 2026-09-06 01:20:39 | 50.71980 | 8.76077 | 123° | 108km/h | 10237m | -5.5m/s | -41.0°C | 18.0% | 274.1hPa | 2.5V | 00:00:00 | 00:00:00 | 00:00:00 | |
| DL1XH1-15 | 2026-09-06 01:20:38 | 50.72027 | 8.75969 | 124° | 110km/h | 10253m | -5.6m/s | -41.1°C | 20.7% | 273.4hPa | 2.5V | 07:52:04 | 03:02:38 | 00:00:00 | |
| DL3AQ-11 | 2026-09-06 01:20:37 | 50.71996 | 8.76041 | 124° | 108km/h | 10242m | -5.3m/s | -41.0°C | 18.0% | 273.8hPa | 2.4V | 00:00:00 | 00:00:00 | 00:00:00 | |
| DM0DOS-11 | 2026-09-06 01:20:36 | 50.72058 | 8.75896 | 124° | 110km/h | 10264m | -5.4m/s | -41.1°C | 20.7% | 273hPa | 2.4V | 07:52:06 | 03:02:36 | 00:00:00 | |
| HSKMA3-T | 2026-09-06 01:20:35 | 50.72027 | 8.75969 | 124° | 110km/h | 10253m | -5.6m/s | -41.1°C | 22.9% | 273.4hPa | 2.5V | 07:52:48 | 03:02:38 | 00:00:00 | |
| DL1XH-west | 2026-09-06 01:20:34 | 50.72042 | 8.75932 | 124° | 110km/h | 10259m | -5.4m/s | -41.1°C | 22.8% | 273.2hPa | 2.5V | 07:52:48 | 03:02:37 | 00:00:00 | |
| BIOWL1-15 | 2026-09-06 01:20:33 | 50.72058 | 8.75896 | 124° | 110km/h | 10264m | -5.4m/s | -41.1°C | 22.9% | 273hPa | 2.4V | 07:52:48 | 03:02:36 | 00:00:00 | |
| DO3MHA-12 | 2026-09-06 01:20:33 | 50.72058 | 8.75895 | 125° | 110km/h | 10264m | -5.3m/s | -41.1°C | 20.7% | 273.0hPa | 2.4V | 00:00:00 | 03:02:36 | 00:00:00 | |
| DL0LBS | 2026-09-06 01:20:32 | 50.72058 | 8.75895 | 125° | 110km/h | 10264m | -5.4m/s | -41.1°C | 17.9% | 273.0hPa | 2.4V | 07:52:00 | 00:00:00 | 00:00:00 | |
| DO1YAY-16 | 2026-09-06 01:20:31 | 50.72120 | 8.75750 | 123° | 110km/h | 10286m | -5.0m/s | -41.3°C | 17.8% | 272.1hPa | 2.4V | 00:00:00 | 00:00:00 | 00:00:00 | |
| AU51GT2 | 2026-09-06 01:20:29 | 50.72120 | 8.75750 | 123° | 110km/h | 10286m | -5.0m/s | -41.3°C | 17.8% | 272.1hPa | 2.4V | 00:00:00 | 00:00:00 | 00:00:00 | |
| DL1XH1-15 | 2026-09-06 01:20:28 | 50.72183 | 8.75604 | 124° | 111km/h | 10307m | -5.3m/s | -41.5°C | 20.6% | 271.2hPa | 2.4V | 07:52:14 | 03:02:28 | 00:00:00 | |
| BIOWL7-15 | 2026-09-06 01:20:27 | 50.72136 | 8.75713 | 125° | 110km/h | 10291m | -5.2m/s | -41.3°C | 17.8% | 271.9hPa | 2.5V | 07:52:00 | 00:00:00 | 00:00:00 | |
| DM0DOS-11 | 2026-09-06 01:20:26 | 50.72215 | 8.75531 | 124° | 111km/h | 10317m | -5.5m/s | -41.6°C | 20.4% | 270.8hPa | 2.5V | 07:52:16 | 03:02:26 | 00:00:00 | |
| HSKMA3-T | 2026-09-06 01:20:24 | 50.72199 | 8.75568 | 124° | 111km/h | 10312m | -5.4m/s | -41.5°C | 22.8% | 271hPa | 2.5V | 07:52:48 | 03:02:27 | 00:00:00 | |
| DL1XH-west | 2026-09-06 01:20:23 | 50.72215 | 8.75531 | 124° | 111km/h | 10317m | -5.5m/s | -41.6°C | 22.7% | 270.8hPa | 2.5V | 07:52:48 | 03:02:26 | 00:00:00 | |
| DO3MHA-12 | 2026-09-06 01:20:23 | 50.72215 | 8.75531 | 125° | 113km/h | 10317m | -5.4m/s | -41.5°C | 20.4% | 270.8hPa | 2.5V | 07:52:00 | 03:02:26 | 00:00:00 | |
| DC4HF-4 | 2026-09-06 01:20:22 | 50.72231 | 8.75494 | 123° | 111km/h | 10323m | -5.6m/s | -41.6°C | 17.5% | 270.6hPa | 2.4V | 00:00:00 | 00:00:00 | 00:00:00 | |
| DO9LL-15 | 2026-09-06 01:20:21 | 50.72247 | 8.75456 | 125° | 117km/h | 10328m | -5.5m/s | -41.6°C | 20.2% | 270.3hPa | 2.4V | 00:00:00 | 03:02:24 | 00:00:00 | |
| DO3DL | 2026-09-06 01:20:20 | 50.72247 | 8.75456 | 125° | 113km/h | 10328m | -5.6m/s | -41.7°C | 17.4% | 270.3hPa | 2.4V | 07:52:00 | 00:00:00 | 00:00:00 | |
| DL1XH1-15 | 2026-09-06 01:20:18 | 50.72345 | 8.75230 | 124° | 115km/h | 10360m | -5.7m/s | -42°C | 19.6% | 269.1hPa | 2.4V | 07:52:24 | 03:02:18 | 00:00:00 | |
| BIOWL1-15 | 2026-09-06 01:20:16 | 50.72394 | 8.75117 | 124° | 115km/h | 10377m | -5.7m/s | -42.1°C | 21% | 268.4hPa | 2.5V | 07:52:48 | 03:02:15 | 00:00:00 | |
| DM0DOS-11 | 2026-09-06 01:20:16 | 50.72377 | 8.75155 | 123° | 115km/h | 10371m | -5.7m/s | -42°C | 19.1% | 268.6hPa | 2.5V | 07:52:26 | 03:02:16 | 00:00:00 | |
| HSKMA3-T | 2026-09-06 01:20:14 | 50.72361 | 8.75192 | 125° | 115km/h | 10366m | -5.4m/s | -42°C | 21.5% | 268.9hPa | 2.4V | 07:52:48 | 03:02:17 | 00:00:00 | |
| DL1XH-west | 2026-09-06 01:20:13 | 50.72377 | 8.75155 | 124° | 115km/h | 10371m | -5.7m/s | -42°C | 21.2% | 268.6hPa | 2.5V | 07:52:48 | 03:02:16 | 00:00:00 | |
| DJ2KF-10 | 2026-09-06 01:20:11 | 50.72410 | 8.75079 | 125° | 117km/h | 10383m | -5.5m/s | -42.1°C | 18.7% | 268.1hPa | 2.4V | 00:00:00 | 03:02:14 | 00:00:00 | |
| BIOWL9-15 | 2026-09-06 01:20:10 | 50.72426 | 8.75041 | 123° | 113km/h | 10388m | -5.4m/s | -42.2°C | 15.7% | 268.0hPa | 2.4V | 00:00:00 | 00:00:00 | 00:00:00 | |
| DB0ND-19 | 2026-09-06 01:20:09 | 50.72443 | 8.75003 | 124° | 115km/h | 10393m | -5.7m/s | -42.2°C | 15.3% | 267.7hPa | 2.4V | 00:00:00 | 00:00:00 | 00:00:00 | |
| DL1XH1-15 | 2026-09-06 01:20:08 | 50.72509 | 8.74849 | 123° | 117km/h | 10415m | -5.5m/s | -42.4°C | 16.5% | 266.8hPa | 2.4V | 07:52:34 | 03:02:08 | 00:00:00 | |
| BUE01 | 2026-09-06 01:20:08 | 50.72476 | 8.74926 | 124° | 115km/h | 10404m | -5.8m/s | -42.3°C | 14.6% | 267.3hPa | 2.4V | 00:00:00 | 00:00:00 | 00:00:00 | |
| DM0DOS-11 | 2026-09-06 01:20:07 | 50.72542 | 8.74771 | 123° | 117km/h | 10426m | -5.3m/s | -42.4°C | 15.9% | 266.4hPa | 2.4V | 07:52:36 | 03:02:06 | 00:00:00 | |
| HSKMA3-T | 2026-09-06 01:20:04 | 50.72525 | 8.74810 | 124° | 117km/h | 10421m | -5.4m/s | -42.4°C | 18% | 266.7hPa | 2.4V | 07:52:48 | 03:02:07 | 00:00:00 | |
| BIOWL1-15 | 2026-09-06 01:20:02 | 50.72558 | 8.74732 | 124° | 117km/h | 10431m | -5.3m/s | -42.4°C | 17.2% | 266.3hPa | 2.5V | 07:52:48 | 03:02:05 | 00:00:00 | |
| DO1YAY-16 | 2026-09-06 01:20:00 | 50.72624 | 8.74578 | 123° | 115km/h | 10453m | -5.9m/s | -42.6°C | 12.7% | 265.4hPa | 2.4V | 00:00:00 | 00:00:00 | 00:00:00 | |
| AU51GT2 | 2026-09-06 01:19:58 | 50.72624 | 8.74578 | 123° | 115km/h | 10453m | -5.9m/s | -42.6°C | 12.7% | 265.4hPa | 2.4V | 00:00:00 | 00:00:00 | 00:00:00 | |
| DM0DOS-11 | 2026-09-06 01:19:57 | 50.72705 | 8.74383 | 123° | 117km/h | 10480m | -6.1m/s | -42.8°C | 15.5% | 264.2hPa | 2.4V | 07:52:46 | 03:01:56 | 00:00:00 | |
| SONDE2-11 | 2026-09-06 01:19:57 | 50.72787 | 8.74187 | 123° | 117km/h | 10509m | -5.9m/s | -43.0°C | 13.2% | 263.2hPa | 2.5V | 00:00:00 | 00:00:00 | 00:00:00 | |
| DB0DAN | 2026-09-06 01:19:55 | 50.72673 | 8.74462 | 124° | 111km/h | 10469m | -5.6m/s | -42.7°C | 12.9% | 264.7hPa | 2.5V | 00:00:00 | 00:00:00 | 00:00:00 | |
| HSKMA3-T | 2026-09-06 01:19:54 | 50.72689 | 8.74422 | 123° | 119km/h | 10474m | -6m/s | -42.8°C | 17.3% | 264.5hPa | 2.4V | 07:52:48 | 03:01:57 | 00:00:00 | |
| DL1XH-west | 2026-09-06 01:19:51 | 50.72738 | 8.74305 | 123° | 117km/h | 10492m | -5.9m/s | -42.9°C | 17.4% | 263.9hPa | 2.5V | 07:52:48 | 03:01:54 | 00:00:00 | |
| SONCRA | 2026-09-06 01:19:50 | 50.72771 | 8.74226 | 122° | 117km/h | 10503m | -5.7m/s | -43.0°C | 13.1% | 263.4hPa | 2.4V | 00:00:00 | 00:00:00 | 00:00:00 | |
| DB0NH | 2026-09-06 01:19:48 | 50.72787 | 8.74186 | 124° | 117km/h | 10509m | -5.8m/s | -43.0°C | 15.8% | 263.2hPa | 2.4V | 00:00:00 | 03:01:51 | 00:00:00 | |
| DM0DOS-11 | 2026-09-06 01:19:47 | 50.72868 | 8.73989 | 122° | 119km/h | 10536m | -5.5m/s | -43.3°C | 16.1% | 262.1hPa | 2.4V | 07:52:56 | 03:01:46 | 00:00:00 | |
| DC4HF-4 | 2026-09-06 01:19:46 | 50.72820 | 8.74108 | 123° | 117km/h | 10520m | -5.4m/s | -43.1°C | 13.2% | 262.8hPa | 2.4V | 00:00:00 | 00:00:00 | 00:00:00 | |
| HSKMA3-T | 2026-09-06 01:19:43 | 50.72868 | 8.73989 | 123° | 119km/h | 10536m | -5.5m/s | -43.3°C | 18% | 262.2hPa | 2.4V | 07:53:39 | 03:01:46 | 00:00:00 | |
| DL1XH-west | 2026-09-06 01:19:40 | 50.72917 | 8.73871 | 123° | 117km/h | 10552m | -5.6m/s | -43.4°C | 18.2% | 261.5hPa | 2.4V | 07:53:39 | 03:01:43 | 00:00:00 | |
| BIOWL9-15 | 2026-09-06 01:19:39 | 50.72933 | 8.73832 | 122° | 115km/h | 10558m | -5.6m/s | -43.5°C | 13.7% | 261.3hPa | 2.4V | 00:00:00 | 00:00:00 | 00:00:00 | |
| DL1XH1-15 | 2026-09-06 01:19:38 | 50.72997 | 8.73675 | 122° | 119km/h | 10580m | -5.6m/s | -43.7°C | 16.7% | 260.4hPa | 2.4V | 07:53:04 | 03:01:38 | 00:00:00 | |
| DM0DOS-11 | 2026-09-06 01:19:37 | 50.73029 | 8.73596 | 122° | 119km/h | 10591m | -5.5m/s | -43.8°C | 16.8% | 260hPa | 2.5V | 07:53:06 | 03:01:36 | 00:00:00 | |
| HSKMA3-T | 2026-09-06 01:19:32 | 50.73045 | 8.73557 | 123° | 117km/h | 10596m | -5.8m/s | -43.8°C | 18.8% | 259.8hPa | 2.4V | 07:53:39 | 03:01:35 | 00:00:00 | |
| DL1XH-west | 2026-09-06 01:19:30 | 50.73077 | 8.73479 | 123° | 117km/h | 10608m | -5.7m/s | -43.9°C | 19% | 259.4hPa | 2.4V | 07:53:39 | 03:01:33 | 00:00:00 | |
| DO1YAY-16 | 2026-09-06 01:19:29 | 50.73109 | 8.73400 | 122° | 117km/h | 10619m | -5.3m/s | -44.0°C | 14.3% | 258.9hPa | 2.4V | 00:00:00 | 00:00:00 | 00:00:00 | |
| DD1CC3-15 | 2026-09-06 01:19:27 | 50.73109 | 8.73400 | 124° | 117km/h | 10619m | -5.3m/s | -44.0°C | 14.3% | 258.9hPa | 2.4V | 07:53:00 | 00:00:00 | 00:00:00 | |
| DB0DAN | 2026-09-06 01:19:25 | 50.73157 | 8.73283 | 122° | 110km/h | 10635m | -5.8m/s | -44.2°C | 14.5% | 258.3hPa | 2.4V | 00:00:00 | 00:00:00 | 00:00:00 | |
| HSKMA3-T | 2026-09-06 01:19:21 | 50.73221 | 8.73126 | 122° | 117km/h | 10658m | -5.7m/s | -44.4°C | 19.8% | 257.4hPa | 2.5V | 07:53:39 | 03:01:24 | 00:00:00 | |
| DL1XH-west | 2026-09-06 01:19:19 | 50.73252 | 8.73047 | 122° | 119km/h | 10670m | -5.6m/s | -44.5°C | 20% | 257.1hPa | 2.4V | 07:53:39 | 03:01:22 | 00:00:00 | |
| HSKMA3-T | 2026-09-06 01:19:10 | 50.73392 | 8.72685 | 121° | 119km/h | 10719m | -5.4m/s | -44.9°C | 20% | 255.1hPa | 2.5V | 07:53:39 | 03:01:13 | 00:00:00 | |
| DL0LBS | 2026-09-06 01:19:09 | 50.73392 | 8.72685 | 122° | 119km/h | 10719m | -5.4m/s | -44.9°C | 15.0% | 255.1hPa | 2.5V | 07:53:00 | 00:00:00 | 00:00:00 | |
| DL1XH1-15 | 2026-09-06 01:19:08 | 50.73470 | 8.72485 | 121° | 119km/h | 10746m | -5.4m/s | -45.1°C | 17.9% | 254hPa | 2.5V | 07:53:34 | 03:01:08 | 00:00:00 | |
| DL1XH-west | 2026-09-06 01:19:08 | 50.73423 | 8.72605 | 122° | 117km/h | 10730m | -5.8m/s | -45°C | 19.9% | 254.7hPa | 2.4V | 07:53:39 | 03:01:11 | 00:00:00 | |
| HSKMA3-T | 2026-09-06 01:19:00 | 50.73547 | 8.72285 | 121° | 119km/h | 10774m | -5.8m/s | -45.3°C | 20% | 253hPa | 2.4V | 07:53:39 | 03:01:03 | 00:00:00 | |
| DJ2DS-15 | 2026-09-06 01:18:59 | 50.73562 | 8.72245 | 121° | 117km/h | 10780m | -5.7m/s | -45.4°C | 15.0% | 252.8hPa | 2.4V | 00:00:00 | 00:00:00 | 00:00:00 | |
| DL1XH1-15 | 2026-09-06 01:18:58 | 50.73624 | 8.72085 | 121° | 117km/h | 10803m | -5.8m/s | -45.5°C | 18.2% | 251.9hPa | 2.4V | 07:53:44 | 03:00:58 | 00:00:00 | |
| DL1XH-west | 2026-09-06 01:18:58 | 50.73578 | 8.72205 | 121° | 119km/h | 10785m | -5.8m/s | -45.4°C | 20% | 252.6hPa | 2.5V | 07:54:30 | 03:01:01 | 00:00:00 | |
| BIOWL1-15 | 2026-09-06 01:18:57 | 50.73593 | 8.72164 | 121° | 117km/h | 10791m | -5.8m/s | -45.5°C | 20.1% | 252.4hPa | 2.4V | 07:54:30 | 03:01:00 | 00:00:00 | |
| HSKMA3-T | 2026-09-06 01:18:49 | 50.73717 | 8.71846 | 123° | 117km/h | 10836m | -5.6m/s | -45.8°C | 20.4% | 250.7hPa | 2.4V | 07:54:30 | 03:00:52 | 00:00:00 | |
| DL1XH1-15 | 2026-09-06 01:18:48 | 50.73781 | 8.71687 | 121° | 117km/h | 10859m | -5.6m/s | -45.9°C | 18.5% | 249.8hPa | 2.4V | 07:53:54 | 03:00:48 | 00:00:00 | |
| DL1XH-west | 2026-09-06 01:18:48 | 50.73733 | 8.71806 | 122° | 119km/h | 10842m | -6m/s | -45.8°C | 20.4% | 250.4hPa | 2.5V | 07:54:30 | 03:00:51 | 00:00:00 | |
| BIOWL1-15 | 2026-09-06 01:18:47 | 50.73749 | 8.71767 | 122° | 117km/h | 10847m | -5.7m/s | -45.9°C | 20.5% | 250.2hPa | 2.5V | 07:54:30 | 03:00:50 | 00:00:00 | |
| DF8AY | 2026-09-06 01:18:44 | 50.73796 | 8.71647 | 122° | 117km/h | 10865m | -5.8m/s | 0°C | 0% | 0hPa | 2.4V | 18:12:15 | 03:00:47 | 00:00:00 | |
| HSKMA3-T | 2026-09-06 01:18:39 | 50.73874 | 8.71450 | 122° | 117km/h | 10893m | -5.7m/s | -46.3°C | 20.9% | 248.6hPa | 2.4V | 07:54:30 | 03:00:42 | 00:00:00 | |
| DD8BA-10 | 2026-09-06 01:18:39 | 50.73874 | 8.71450 | 123° | 117km/h | 10893m | -5.7m/s | -46.2°C | 18.8% | 248.5hPa | 2.5V | 00:00:00 | 00:00:00 | 00:00:00 | |
| DL1XH1-15 | 2026-09-06 01:18:38 | 50.73937 | 8.71293 | 122° | 117km/h | 10916m | -5.8m/s | -46.5°C | 19% | 247.7hPa | 2.5V | 07:54:04 | 03:00:38 | 00:00:00 | |
| DM0DOS-11 | 2026-09-06 01:18:37 | 50.73985 | 8.71175 | 121° | 117km/h | 10933m | -5.5m/s | -46.6°C | 19% | 247.1hPa | 2.4V | 07:54:07 | 03:00:35 | 00:00:00 | |
| BIOWL1-15 | 2026-09-06 01:18:37 | 50.73906 | 8.71371 | 123° | 117km/h | 10904m | -6m/s | -46.4°C | 20.9% | 248.1hPa | 2.4V | 07:54:30 | 03:00:40 | 00:00:00 | |
| DF8AY | 2026-09-06 01:18:34 | 50.73953 | 8.71253 | 122° | 117km/h | 10922m | -5.5m/s | 0°C | 0% | 0hPa | 2.4V | 18:12:15 | 03:00:37 | 00:00:00 | |
| HSKMA3-T | 2026-09-06 01:18:29 | 50.74031 | 8.71056 | 121° | 117km/h | 10949m | -5.6m/s | -46.7°C | 21.1% | 246.5hPa | 2.5V | 07:54:30 | 03:00:32 | 00:00:00 | |
| DD8BA-10 | 2026-09-06 01:18:29 | 50.74031 | 8.71056 | 122° | 117km/h | 10949m | -5.6m/s | -46.6°C | 19.1% | 246.4hPa | 2.5V | 00:00:00 | 00:00:00 | 00:00:00 | |
| DL1XH1-15 | 2026-09-06 01:18:28 | 50.74092 | 8.70897 | 121° | 117km/h | 10972m | -5.8m/s | -46.8°C | 19.2% | 245.6hPa | 2.5V | 07:54:14 | 03:00:28 | 00:00:00 | |
| DL1XH-west | 2026-09-06 01:18:27 | 50.74062 | 8.70977 | 121° | 117km/h | 10960m | -5.7m/s | -46.8°C | 21.2% | 246.1hPa | 2.4V | 07:54:30 | 03:00:30 | 00:00:00 | |
| BIOWL1-15 | 2026-09-06 01:18:26 | 50.74077 | 8.70937 | 121° | 117km/h | 10966m | -5.9m/s | -46.8°C | 21.1% | 245.8hPa | 2.4V | 07:54:30 | 03:00:29 | 00:00:00 | |
| AU51GT2 | 2026-09-06 01:18:25 | 50.74092 | 8.70897 | 121° | 117km/h | 10972m | -5.9m/s | -46.8°C | 15.8% | 245.6hPa | 2.4V | 00:00:00 | 00:00:00 | 00:00:00 | |
| DO3DL | 2026-09-06 01:18:24 | 50.74092 | 8.70897 | 122° | 117km/h | 10972m | -5.9m/s | -46.8°C | 15.8% | 245.6hPa | 2.4V | 07:54:00 | 00:00:00 | 00:00:00 | |
| DO3MHA-12 | 2026-09-06 01:18:23 | 50.74123 | 8.70817 | 122° | 117km/h | 10983m | -5.5m/s | -46.9°C | 19.2% | 245.2hPa | 2.4V | 00:00:00 | 03:00:26 | 00:00:00 | |
| DO9LL-15 | 2026-09-06 01:18:20 | 50.74169 | 8.70698 | 122° | 119km/h | 11000m | -5.8m/s | -47.0°C | 19.5% | 244.5hPa | 2.4V | 00:00:00 | 03:00:23 | 00:00:00 | |
| EDDB2-11 | 2026-09-06 01:18:19 | 50.74200 | 8.70619 | 121° | 117km/h | 11011m | -5.7m/s | -47.2°C | 16.2% | 244.2hPa | 2.4V | 00:00:00 | 00:00:00 | 00:00:00 | |
| DL1XH1-15 | 2026-09-06 01:18:18 | 50.74245 | 8.70499 | 120° | 117km/h | 11028m | -5.8m/s | -47.2°C | 19.6% | 243.5hPa | 2.4V | 07:54:24 | 03:00:18 | 00:00:00 | |
| HSKMA3-T | 2026-09-06 01:18:18 | 50.74200 | 8.70619 | 121° | 117km/h | 11011m | -5.7m/s | -47.2°C | 21.7% | 244.2hPa | 2.5V | 07:54:30 | 03:00:21 | 00:00:00 | |
| DL1XH-west | 2026-09-06 01:18:16 | 50.74230 | 8.70539 | 121° | 117km/h | 11022m | -5.6m/s | -47.2°C | 21.7% | 243.8hPa | 2.4V | 07:54:30 | 03:00:19 | 00:00:00 | |
| BIOWL1-15 | 2026-09-06 01:18:15 | 50.74246 | 8.70499 | 120° | 117km/h | 11028m | -5.8m/s | -47.3°C | 21.7% | 243.5hPa | 2.4V | 07:54:30 | 03:00:18 | 00:00:00 | |
| DJ8HS-15 | 2026-09-06 01:18:15 | 50.74245 | 8.70499 | 121° | 117km/h | 11028m | -5.7m/s | -47.2°C | 19.6% | 243.5hPa | 2.4V | 07:54:00 | 03:00:18 | 00:00:00 | |
| DL3AQ-11 | 2026-09-06 01:18:14 | 50.74276 | 8.70418 | 120° | 117km/h | 11040m | -5.8m/s | -47.3°C | 16.1% | 243.1hPa | 2.4V | 00:00:00 | 00:00:00 | 00:00:00 | |
| DO3MHA-11 | 2026-09-06 01:18:13 | 50.74276 | 8.70418 | 121° | 119km/h | 11040m | -5.8m/s | -47.3°C | 19.6% | 243.1hPa | 2.4V | 00:00:00 | 03:00:16 | 00:00:00 | |
| DL8OAI-8 | 2026-09-06 01:18:12 | 50.74291 | 8.70378 | 121° | 117km/h | 11045m | -5.7m/s | -47.4°C | 16.2% | 243.0hPa | 2.4V | 07:54:00 | 00:00:00 | 00:00:00 | |
| DJ2KF-10 | 2026-09-06 01:18:11 | 50.74306 | 8.70338 | 121° | 119km/h | 11051m | -5.9m/s | -47.3°C | 19.7% | 242.7hPa | 2.4V | 07:54:00 | 03:00:14 | 00:00:00 | |
| DO3DL | 2026-09-06 01:18:10 | 50.74306 | 8.70338 | 122° | 119km/h | 11051m | -5.9m/s | -47.4°C | 16.2% | 242.7hPa | 2.4V | 07:54:00 | 00:00:00 | 00:00:00 | |
| DL1XH1-15 | 2026-09-06 01:18:08 | 50.74398 | 8.70095 | 120° | 117km/h | 11085m | -5.4m/s | -47.6°C | 20% | 241.5hPa | 2.4V | 07:54:34 | 03:00:08 | 00:00:00 | |
| HSKMA3-T | 2026-09-06 01:18:07 | 50.74367 | 8.70176 | 121° | 117km/h | 11074m | -6.1m/s | -47.6°C | 22.2% | 241.9hPa | 2.5V | 07:55:21 | 03:00:10 | 00:00:00 | |
| BIOWL1-15 | 2026-09-06 01:18:07 | 50.74398 | 8.70095 | 121° | 117km/h | 11085m | -5.4m/s | -47.7°C | 22.3% | 241.5hPa | 2.4V | 07:55:21 | 03:00:08 | 00:00:00 | |
| DL1XH-west | 2026-09-06 01:18:06 | 50.74382 | 8.70135 | 121° | 119km/h | 11079m | -5.9m/s | -47.6°C | 22.3% | 241.7hPa | 2.5V | 07:55:21 | 03:00:09 | 00:00:00 | |
| DD1CC3-15 | 2026-09-06 01:18:05 | 50.74382 | 8.70135 | 122° | 119km/h | 11080m | -5.9m/s | -47.6°C | 16.5% | 241.7hPa | 2.4V | 07:55:00 | 00:00:00 | 00:00:00 | |
| DO3DL | 2026-09-06 01:18:04 | 50.74397 | 8.70095 | 122° | 117km/h | 11085m | -5.4m/s | -47.7°C | 16.5% | 241.5hPa | 2.4V | 07:55:00 | 00:00:00 | 00:00:00 | |
| DO3MHA-11 | 2026-09-06 01:18:03 | 50.74428 | 8.70014 | 121° | 119km/h | 11097m | -5.6m/s | -47.7°C | 20.2% | 241.0hPa | 2.4V | 00:00:00 | 03:00:06 | 00:00:00 | |
| DL1ZP-14 | 2026-09-06 01:18:01 | 50.74473 | 8.69893 | 120° | 117km/h | 11113m | -5.9m/s | -47.9°C | 16.9% | 240.4hPa | 2.5V | 00:00:00 | 00:00:00 | 00:00:00 | |
| DD1CC8 | 2026-09-06 01:17:59 | 50.74488 | 8.69853 | 120° | 117km/h | 11118m | -5.7m/s | -48.0°C | 17.0% | 240.2hPa | 2.5V | 00:00:00 | 00:00:00 | 00:00:00 | |
| DL1XH1-15 | 2026-09-06 01:17:58 | 50.74548 | 8.69690 | 120° | 119km/h | 11141m | -5.8m/s | -48.2°C | 21.1% | 239.4hPa | 2.5V | 07:54:44 | 02:59:58 | 00:00:00 | |
| HSKMA3-T | 2026-09-06 01:17:57 | 50.74518 | 8.69772 | 121° | 119km/h | 11130m | -6m/s | -48.1°C | 23.2% | 239.8hPa | 2.4V | 07:55:21 | 03:00:00 | 00:00:00 | |
| BIOWL1-15 | 2026-09-06 01:17:56 | 50.74564 | 8.69649 | 120° | 120km/h | 11147m | -5.9m/s | -48.2°C | 23.6% | 239.2hPa | 2.5V | 07:55:21 | 02:59:57 | 00:00:00 | |
| DO1YAY-16 | 2026-09-06 01:17:56 | 50.74548 | 8.69690 | 120° | 117km/h | 11141m | -5.8m/s | -48.2°C | 17.4% | 239.4hPa | 2.4V | 00:00:00 | 00:00:00 | 00:00:00 | |
| DL1XH-west | 2026-09-06 01:17:56 | 50.74533 | 8.69731 | 120° | 119km/h | 11136m | -5.8m/s | -48.1°C | 23.3% | 239.6hPa | 2.4V | 07:55:21 | 02:59:59 | 00:00:00 | |
| AU51GT2 | 2026-09-06 01:17:54 | 50.74564 | 8.69649 | 120° | 119km/h | 11147m | -5.9m/s | -48.2°C | 17.6% | 239.2hPa | 2.4V | 00:00:00 | 00:00:00 | 00:00:00 | |
| SONDE2-11 | 2026-09-06 01:17:53 | 50.74594 | 8.69567 | 120° | 119km/h | 11158m | -5.9m/s | -48.3°C | 17.8% | 238.8hPa | 2.4V | 00:00:00 | 00:00:00 | 00:00:00 | |
| HARRO8 | 2026-09-06 01:17:49 | 50.74656 | 8.69402 | 120° | 119km/h | 11182m | -5.6m/s | -48.5°C | 18.4% | 237.9hPa | 2.4V | 00:00:00 | 00:00:00 | 00:00:00 | |
| DL1XH1-15 | 2026-09-06 01:17:48 | 50.74703 | 8.69278 | 120° | 120km/h | 11198m | -5.9m/s | -48.7°C | 22.8% | 237.3hPa | 2.4V | 07:54:54 | 02:59:48 | 00:00:00 | |
| HSKMA3-T | 2026-09-06 01:17:47 | 50.74672 | 8.69361 | 120° | 122km/h | 11187m | -5.5m/s | -48.6°C | 24.8% | 237.8hPa | 2.4V | 07:55:21 | 02:59:50 | 00:00:00 | |
| DL1XH-west | 2026-09-06 01:17:45 | 50.74703 | 8.69278 | 121° | 120km/h | 11198m | -5.9m/s | -48.7°C | 25.3% | 237.3hPa | 2.4V | 07:55:21 | 02:59:48 | 00:00:00 | |
| BIOWL1-15 | 2026-09-06 01:17:44 | 50.74719 | 8.69236 | 121° | 120km/h | 11204m | -5.8m/s | -48.7°C | 25.5% | 237.1hPa | 2.4V | 07:55:21 | 02:59:47 | 00:00:00 | |
| DL4BBY-15 | 2026-09-06 01:17:44 | 50.74719 | 8.69236 | 121° | 122km/h | 11204m | -5.8m/s | -51.1°C | 0% | 0hPa | 2.4V | 00:00:00 | 00:00:00 | 00:00:00 | |
| DO3MHA-12 | 2026-09-06 01:17:43 | 50.74734 | 8.69195 | 121° | 120km/h | 11210m | -5.6m/s | -48.7°C | 23.1% | 236.9hPa | 2.4V | 07:54:00 | 02:59:46 | 00:00:00 | |
| DB0DAN | 2026-09-06 01:17:40 | 50.74781 | 8.69070 | 121° | 117km/h | 11227m | -6.3m/s | -48.9°C | 19.8% | 236.31hPa | 2.4V | 00:00:00 | 00:00:00 | 00:00:00 | |
| DF7PN | 2026-09-06 01:17:40 | 50.74781 | 8.69070 | 120° | 122km/h | 11227m | -6.3m/s | -48.9°C | 19.8% | 236.3hPa | 2.4V | 00:00:00 | 00:00:00 | 00:00:00 | |
| DM7RM-13 | 2026-09-06 01:17:39 | 50.74781 | 8.69070 | 122° | 122km/h | 11227m | -6.3m/s | -48.9°C | 19.8% | 236.3hPa | 2.4V | 07:55:00 | 00:00:00 | 00:00:00 | |
| DL1XH1-15 | 2026-09-06 01:17:38 | 50.74859 | 8.68861 | 120° | 120km/h | 11256m | -5.9m/s | -49.2°C | 24.8% | 235.3hPa | 2.4V | 07:55:04 | 02:59:38 | 00:00:00 | |
| DD8BA-10 | 2026-09-06 01:17:38 | 50.74812 | 8.68986 | 121° | 120km/h | 11239m | -5.8m/s | -49.0°C | 24.2% | 235.8hPa | 2.4V | 00:00:00 | 00:00:00 | 00:00:00 | |
| DM0DOS-11 | 2026-09-06 01:17:37 | 50.74907 | 8.68738 | 121° | 120km/h | 11274m | -6.1m/s | -49.4°C | 25.2% | 234.6hPa | 2.4V | 07:55:07 | 02:59:35 | 00:00:00 | |
| HSKMA3-T | 2026-09-06 01:17:37 | 50.74828 | 8.68944 | 120° | 120km/h | 11244m | -6m/s | -49.1°C | 27% | 235.7hPa | 2.5V | 07:55:21 | 02:59:40 | 00:00:00 | |
| DL1XH-west | 2026-09-06 01:17:34 | 50.74875 | 8.68820 | 121° | 120km/h | 11262m | -5.9m/s | -49.3°C | 27.6% | 235.1hPa | 2.4V | 07:55:21 | 02:59:37 | 00:00:00 | |
| DJ2DS-15 | 2026-09-06 01:17:34 | 50.74875 | 8.68820 | 122° | 122km/h | 11262m | -5.8m/s | -49.2°C | 25.0% | 235.0hPa | 2.4V | 00:00:00 | 02:59:37 | 00:00:00 | |
| DO3MHA-11 | 2026-09-06 01:17:33 | 50.74891 | 8.68779 | 122° | 120km/h | 11268m | -6.0m/s | -49.3°C | 25.1% | 234.8hPa | 2.4V | 00:00:00 | 02:59:36 | 00:00:00 | |
| BUE01 | 2026-09-06 01:17:32 | 50.74907 | 8.68737 | 121° | 120km/h | 11274m | -6.1m/s | -49.4°C | 21.1% | 234.6hPa | 2.5V | 00:00:00 | 00:00:00 | 00:00:00 | |
| DO3DL | 2026-09-06 01:17:31 | 50.74923 | 8.68696 | 122° | 122km/h | 11280m | -6.0m/s | -49.4°C | 21.1% | 234.4hPa | 2.5V | 07:55:00 | 00:00:00 | 00:00:00 | |
| DL8OAI-8 | 2026-09-06 01:17:30 | 50.74923 | 8.68696 | 122° | 122km/h | 11280m | -6.0m/s | -49.4°C | 21.2% | 234.4hPa | 2.5V | 07:55:00 | 00:00:00 | 00:00:00 | |
| NBG1-10 | 2026-09-06 01:17:29 | 50.74954 | 8.68613 | 122° | 122km/h | 11292m | -6.0m/s | -49.5°C | 25.5% | 234.0hPa | 2.5V | 00:00:00 | 02:59:32 | 00:00:00 | |
| DL1XH1-15 | 2026-09-06 01:17:28 | 50.75017 | 8.68448 | 121° | 120km/h | 11315m | -5.7m/s | -49.8°C | 25.7% | 233.2hPa | 2.5V | 07:55:14 | 02:59:28 | 00:00:00 | |
| DD8BA-10 | 2026-09-06 01:17:28 | 50.74970 | 8.68572 | 121° | 122km/h | 11298m | -6.0m/s | -49.5°C | 25.6% | 233.8hPa | 2.4V | 00:00:00 | 00:00:00 | 00:00:00 | |
| DM0DOS-11 | 2026-09-06 01:17:27 | 50.75065 | 8.68325 | 122° | 122km/h | 11332m | -5.9m/s | -49.9°C | 25.9% | 232.6hPa | 2.4V | 07:55:17 | 02:59:25 | 00:00:00 | |
| HSKMA3-T | 2026-09-06 01:17:27 | 50.74985 | 8.68531 | 121° | 120km/h | 11304m | -5.7m/s | -49.6°C | 28.2% | 233.6hPa | 2.4V | 07:55:21 | 02:59:30 | 00:00:00 | |
| DB0DAN | 2026-09-06 01:17:25 | 50.75017 | 8.68448 | 121° | 115km/h | 11315m | -5.7m/s | -49.8°C | 21.4% | 233.19hPa | 2.5V | 00:00:00 | 00:00:00 | 00:00:00 | |
| BIOWL1-15 | 2026-09-06 01:17:24 | 50.75033 | 8.68408 | 122° | 120km/h | 11320m | -5.9m/s | -49.8°C | 28.4% | 233hPa | 2.5V | 07:55:21 | 02:59:27 | 00:00:00 | |
| DL1XH-west | 2026-09-06 01:17:23 | 50.75049 | 8.68366 | 121° | 120km/h | 11326m | -5.7m/s | -49.9°C | 28.5% | 232.8hPa | 2.4V | 07:55:21 | 02:59:26 | 00:00:00 | |
| DO3MHA-11 | 2026-09-06 01:17:23 | 50.75049 | 8.68366 | 122° | 122km/h | 11326m | -5.7m/s | -49.8°C | 25.9% | 232.7hPa | 2.4V | 07:55:00 | 02:59:26 | 00:00:00 | |
| SONDE2-11 | 2026-09-06 01:17:22 | 50.75082 | 8.68284 | 121° | 122km/h | 11338m | -6.2m/s | -50.0°C | 21.6% | 232.3hPa | 2.4V | 00:00:00 | 00:00:00 | 00:00:00 | |
| DC4HF-4 | 2026-09-06 01:17:21 | 50.75082 | 8.68284 | 121° | 122km/h | 11338m | -6.2m/s | -50.0°C | 21.6% | 232.3hPa | 2.4V | 00:00:00 | 00:00:00 | 00:00:00 | |
| DO9LL-15 | 2026-09-06 01:17:20 | 50.75098 | 8.68242 | 122° | 124km/h | 11344m | -6.1m/s | -50.0°C | 26.0% | 232.1hPa | 2.4V | 00:00:00 | 02:59:23 | 00:00:00 | |
| DM7RM-13 | 2026-09-06 01:17:19 | 50.75097 | 8.68242 | 123° | 122km/h | 11344m | -6.1m/s | -50.0°C | 21.7% | 232.2hPa | 2.4V | 07:55:00 | 00:00:00 | 00:00:00 | |
| DL1XH1-15 | 2026-09-06 01:17:18 | 50.75196 | 8.67993 | 121° | 124km/h | 11378m | -5.6m/s | -50.4°C | 25.9% | 230.9hPa | 2.4V | 07:55:25 | 02:59:17 | 00:00:00 | |
| HARRO8 | 2026-09-06 01:17:18 | 50.75147 | 8.68118 | 122° | 122km/h | 11361m | -5.8m/s | -50.2°C | 21.7% | 231.6hPa | 2.5V | 00:00:00 | 00:00:00 | 00:00:00 | |
| DM0DOS-11 | 2026-09-06 01:17:17 | 50.75229 | 8.67910 | 122° | 124km/h | 11389m | -5.8m/s | -50.5°C | 25.6% | 230.5hPa | 2.5V | 07:55:27 | 02:59:15 | 00:00:00 | |
| HSKMA3-T | 2026-09-06 01:17:16 | 50.75163 | 8.68076 | 121° | 122km/h | 11367m | -5.7m/s | -50.3°C | 28.4% | 231.4hPa | 2.4V | 07:56:12 | 02:59:19 | 00:00:00 | |
| BIOWL1-15 | 2026-09-06 01:17:14 | 50.75196 | 8.67993 | 122° | 124km/h | 11378m | -5.6m/s | -50.4°C | 28.3% | 231hPa | 2.4V | 07:56:12 | 02:59:17 | 00:00:00 | |
| DL1XH-west | 2026-09-06 01:17:13 | 50.75212 | 8.67951 | 122° | 122km/h | 11384m | -5.7m/s | -50.4°C | 28.2% | 230.7hPa | 2.5V | 07:56:12 | 02:59:16 | 00:00:00 | |
| DO3MHA-12 | 2026-09-06 01:17:13 | 50.75212 | 8.67951 | 122° | 124km/h | 11384m | -5.6m/s | -50.4°C | 25.8% | 230.7hPa | 2.4V | 00:00:00 | 02:59:16 | 00:00:00 | |
| DB0DAN | 2026-09-06 01:17:10 | 50.75262 | 8.67826 | 122° | 117km/h | 11400m | -5.6m/s | -50.6°C | 20.9% | 230.15hPa | 2.4V | 00:00:00 | 00:00:00 | 00:00:00 | |
| DF7PN | 2026-09-06 01:17:09 | 50.75296 | 8.67743 | 122° | 122km/h | 11412m | -5.9m/s | -50.7°C | 20.8% | 229.8hPa | 2.4V | 00:00:00 | 00:00:00 | 00:00:00 | |
| DL1XH1-15 | 2026-09-06 01:17:08 | 50.75363 | 8.67576 | 122° | 124km/h | 11435m | -6.1m/s | -50.8°C | 25.1% | 228.9hPa | 2.4V | 07:55:35 | 02:59:07 | 00:00:00 | |
| DD8BA-10 | 2026-09-06 01:17:08 | 50.75295 | 8.67742 | 123° | 124km/h | 11412m | -5.8m/s | -50.6°C | 25.1% | 229.7hPa | 2.4V | 00:00:00 | 00:00:00 | 00:00:00 | |
| DM0DOS-11 | 2026-09-06 01:17:07 | 50.75397 | 8.67493 | 122° | 124km/h | 11446m | -5.8m/s | -50.9°C | 25.4% | 228.5hPa | 2.4V | 07:55:37 | 02:59:05 | 00:00:00 | |
| HSKMA3-T | 2026-09-06 01:17:05 | 50.75346 | 8.67617 | 123° | 124km/h | 11429m | -6.2m/s | -50.8°C | 27.4% | 229.1hPa | 2.4V | 07:56:12 | 02:59:08 | 00:00:00 | |
| BIOWL1-15 | 2026-09-06 01:17:05 | 50.75380 | 8.67534 | 123° | 124km/h | 11441m | -5.6m/s | -50.9°C | 27.8% | 228.7hPa | 2.4V | 07:56:12 | 02:59:06 | 00:00:00 | |
| DL1XH-west | 2026-09-06 01:17:02 | 50.75397 | 8.67493 | 123° | 124km/h | 11446m | -5.8m/s | -50.9°C | 27.9% | 228.5hPa | 2.4V | 07:56:12 | 02:59:05 | 00:00:00 | |
| BUE01 | 2026-09-06 01:17:01 | 50.75414 | 8.67451 | 123° | 122km/h | 11452m | -5.8m/s | -51.0°C | 21.2% | 228.3hPa | 2.5V | 00:00:00 | 00:00:00 | 00:00:00 | |
| DL1XH1-15 | 2026-09-06 01:16:58 | 50.75536 | 8.67162 | 124° | 122km/h | 11492m | -5.6m/s | -51.3°C | 27.2% | 226.9hPa | 2.5V | 07:55:45 | 02:58:57 | 00:00:00 | |
| DD8BA-10 | 2026-09-06 01:16:58 | 50.75467 | 8.67327 | 124° | 124km/h | 11470m | -6.0m/s | -51.1°C | 26.3% | 227.7hPa | 2.4V | 00:00:00 | 00:00:00 | 00:00:00 | |
| DM0DOS-11 | 2026-09-06 01:16:57 | 50.75570 | 8.67080 | 123° | 122km/h | 11504m | -5.8m/s | -51.4°C | 27.7% | 226.5hPa | 2.4V | 07:55:47 | 02:58:55 | 00:00:00 | |
| DB0DAN | 2026-09-06 01:16:55 | 50.75518 | 8.67203 | 123° | 119km/h | 11487m | -5.7m/s | -51.3°C | 22.3% | 227.12hPa | 2.5V | 00:00:00 | 00:00:00 | 00:00:00 | |
| HSKMA3-T | 2026-09-06 01:16:55 | 50.75518 | 8.67203 | 123° | 124km/h | 11487m | -5.7m/s | -51.3°C | 29.3% | 227.1hPa | 2.5V | 07:56:12 | 02:58:58 | 00:00:00 | |
| BIOWL1-15 | 2026-09-06 01:16:53 | 50.75553 | 8.67121 | 124° | 124km/h | 11498m | -6.1m/s | -51.3°C | 29.9% | 226.7hPa | 2.4V | 07:56:12 | 02:58:56 | 00:00:00 | |
| DL1XH-west | 2026-09-06 01:16:51 | 50.75587 | 8.67039 | 124° | 122km/h | 11510m | -5.7m/s | -51.4°C | 30.5% | 226.3hPa | 2.4V | 07:56:12 | 02:58:54 | 00:00:00 | |
| SONDE2-11 | 2026-09-06 01:16:51 | 50.75691 | 8.66794 | 123° | 122km/h | 11544m | -6.2m/s | -51.7°C | 23.9% | 225.1hPa | 2.4V | 00:00:00 | 00:00:00 | 00:00:00 | |
| BIOWL7-15 | 2026-09-06 01:16:50 | 50.75605 | 8.66998 | 125° | 124km/h | 11515m | -5.8m/s | -51.5°C | 23.4% | 226.1hPa | 2.4V | 00:00:00 | 00:00:00 | 00:00:00 | |
| DL8OAI-8 | 2026-09-06 01:16:49 | 50.75605 | 8.66998 | 125° | 124km/h | 11515m | -5.8m/s | -51.5°C | 23.4% | 226.1hPa | 2.4V | 07:56:00 | 00:00:00 | 00:00:00 | |
| DL1XH1-15 | 2026-09-06 01:16:48 | 50.75708 | 8.66753 | 123° | 124km/h | 11550m | -5.8m/s | -51.8°C | 28.8% | 224.9hPa | 2.4V | 07:55:55 | 02:58:47 | 00:00:00 | |
| DB0NH | 2026-09-06 01:16:48 | 50.75639 | 8.66917 | 124° | 122km/h | 11527m | -5.5m/s | -51.5°C | 28.4% | 225.6hPa | 2.5V | 07:55:00 | 02:58:51 | 00:00:00 | |
| DM0DOS-11 | 2026-09-06 01:16:47 | 50.75743 | 8.66672 | 124° | 122km/h | 11561m | -5.8m/s | -51.9°C | 29% | 224.5hPa | 2.5V | 07:55:57 | 02:58:45 | 00:00:00 | |
| HSKMA3-T | 2026-09-06 01:16:45 | 50.75691 | 8.66794 | 124° | 122km/h | 11544m | -6.2m/s | -51.7°C | 31.3% | 225.1hPa | 2.4V | 07:56:12 | 02:58:48 | 00:00:00 | |
| BIOWL1-15 | 2026-09-06 01:16:44 | 50.75743 | 8.66672 | 124° | 122km/h | 11561m | -5.8m/s | -51.9°C | 31.6% | 224.5hPa | 2.5V | 07:56:12 | 02:58:45 | 00:00:00 | |
| DL1XH-west | 2026-09-06 01:16:40 | 50.75778 | 8.66591 | 124° | 122km/h | 11573m | -5.6m/s | -51.9°C | 31.8% | 224.1hPa | 2.4V | 07:56:12 | 02:58:43 | 00:00:00 | |
| DL3AQ-11 | 2026-09-06 01:16:38 | 50.75829 | 8.66469 | 124° | 122km/h | 11590m | -6.2m/s | -52.1°C | 24.7% | 223.5hPa | 2.4V | 00:00:00 | 00:00:00 | 00:00:00 | |
| DM0DOS-11 | 2026-09-06 01:16:37 | 50.75915 | 8.66265 | 123° | 122km/h | 11619m | -6.1m/s | -52.3°C | 30.3% | 222.5hPa | 2.4V | 07:56:07 | 02:58:35 | 00:00:00 | |
| HSKMA3-T | 2026-09-06 01:16:34 | 50.75881 | 8.66347 | 124° | 124km/h | 11608m | -6m/s | -52.2°C | 32.7% | 222.9hPa | 2.4V | 07:56:12 | 02:58:37 | 00:00:00 | |
| BIOWL1-15 | 2026-09-06 01:16:31 | 50.75932 | 8.66225 | 123° | 120km/h | 11625m | -6.3m/s | -52.4°C | 33.2% | 222.3hPa | 2.5V | 07:56:12 | 02:58:34 | 00:00:00 | |
| DL1XH-west | 2026-09-06 01:16:30 | 50.75949 | 8.66184 | 124° | 122km/h | 11631m | -6.1m/s | -52.5°C | 33.4% | 222.1hPa | 2.5V | 07:56:12 | 02:58:33 | 00:00:00 | |
| DD8BA-10 | 2026-09-06 01:16:28 | 50.75983 | 8.66103 | 124° | 122km/h | 11643m | -5.6m/s | -52.5°C | 30.9% | 221.7hPa | 2.4V | 07:56:00 | 00:00:00 | 00:00:00 | |
| DM0DOS-11 | 2026-09-06 01:16:27 | 50.76085 | 8.65858 | 122° | 122km/h | 11678m | -6.2m/s | -52.9°C | 31.6% | 220.5hPa | 2.4V | 07:56:17 | 02:58:25 | 00:00:00 | |
| DF8AY | 2026-09-06 01:16:26 | 50.76017 | 8.66022 | 123° | 122km/h | 11655m | -5.7m/s | 0°C | 0% | 0hPa | 2.4V | 18:12:15 | 02:58:29 | 00:00:00 | |
| HSKMA3-T | 2026-09-06 01:16:23 | 50.76068 | 8.65899 | 123° | 122km/h | 11672m | -6.2m/s | -52.8°C | 34.2% | 220.7hPa | 2.4V | 07:57:03 | 02:58:26 | 00:00:00 | |
| BIOWL1-15 | 2026-09-06 01:16:22 | 50.76118 | 8.65776 | 123° | 124km/h | 11690m | -5.9m/s | -53°C | 34.5% | 220.1hPa | 2.4V | 07:57:03 | 02:58:23 | 00:00:00 | |
| DL1XH-west | 2026-09-06 01:16:19 | 50.76135 | 8.65735 | 123° | 122km/h | 11696m | -5.9m/s | -53°C | 34.6% | 219.9hPa | 2.5V | 07:57:03 | 02:58:22 | 00:00:00 | |
| DB0NH | 2026-09-06 01:16:18 | 50.76152 | 8.65694 | 124° | 122km/h | 11702m | -5.7m/s | -53.0°C | 32.1% | 219.6hPa | 2.5V | 00:00:00 | 02:58:21 | 00:00:00 | |
| DM0DOS-11 | 2026-09-06 01:16:17 | 50.76253 | 8.65449 | 122° | 120km/h | 11736m | -5.9m/s | -53.4°C | 32.9% | 218.5hPa | 2.5V | 07:56:27 | 02:58:15 | 00:00:00 | |
| DF8AY | 2026-09-06 01:16:15 | 50.76202 | 8.65571 | 123° | 122km/h | 11719m | -5.8m/s | 0°C | 0% | 0hPa | 2.4V | 18:12:15 | 02:58:18 | 00:00:00 | |
| HSKMA3-T | 2026-09-06 01:16:13 | 50.76236 | 8.65490 | 123° | 122km/h | 11730m | -5.9m/s | -53.3°C | 35.3% | 218.7hPa | 2.4V | 07:57:03 | 02:58:16 | 00:00:00 | |
| BIOWL1-15 | 2026-09-06 01:16:10 | 50.76286 | 8.65368 | 123° | 122km/h | 11748m | -5.9m/s | -53.5°C | 35.6% | 218.1hPa | 2.4V | 07:57:03 | 02:58:13 | 00:00:00 | |
| DL1XH-west | 2026-09-06 01:16:09 | 50.76303 | 8.65327 | 123° | 120km/h | 11754m | -6.1m/s | -53.6°C | 35.6% | 217.9hPa | 2.4V | 07:57:03 | 02:58:12 | 00:00:00 | |
| DD8BA-10 | 2026-09-06 01:16:08 | 50.76320 | 8.65286 | 123° | 122km/h | 11760m | -6.0m/s | -53.6°C | 33.1% | 217.7hPa | 2.4V | 00:00:00 | 00:00:00 | 00:00:00 | |
| DM0DOS-11 | 2026-09-06 01:16:07 | 50.76420 | 8.65043 | 123° | 120km/h | 11795m | -5.3m/s | -53.9°C | 33.7% | 216.5hPa | 2.4V | 07:56:37 | 02:58:05 | 00:00:00 | |
| DF8AY | 2026-09-06 01:16:04 | 50.76387 | 8.65124 | 123° | 122km/h | 11784m | -5.9m/s | 0°C | 0% | 0hPa | 2.4V | 18:12:15 | 02:58:07 | 00:00:00 | |
| HSKMA3-T | 2026-09-06 01:16:03 | 50.76403 | 8.65083 | 123° | 122km/h | 11789m | -5.8m/s | -53.9°C | 36.1% | 216.7hPa | 2.4V | 07:57:03 | 02:58:06 | 00:00:00 | |
| BIOWL1-15 | 2026-09-06 01:16:00 | 50.76454 | 8.64962 | 123° | 120km/h | 11806m | -6m/s | -54°C | 36.4% | 216.1hPa | 2.5V | 07:57:03 | 02:58:03 | 00:00:00 | |
| DL1XH-west | 2026-09-06 01:15:59 | 50.76470 | 8.64921 | 124° | 122km/h | 11812m | -6.3m/s | -54.1°C | 36.5% | 215.9hPa | 2.5V | 07:57:03 | 02:58:02 | 00:00:00 | |
| DF8AY | 2026-09-06 01:15:54 | 50.76554 | 8.64719 | 123° | 122km/h | 11841m | -6.3m/s | 0°C | 0% | 0hPa | 2.5V | 18:12:15 | 02:57:57 | 00:00:00 | |
| HSKMA3-T | 2026-09-06 01:15:53 | 50.76571 | 8.64678 | 123° | 120km/h | 11848m | -6m/s | -54.4°C | 37.2% | 214.7hPa | 2.5V | 07:57:03 | 02:57:56 | 00:00:00 | |
| BIOWL1-15 | 2026-09-06 01:15:51 | 50.76638 | 8.64516 | 124° | 122km/h | 11871m | -6.2m/s | -54.6°C | 37.7% | 213.9hPa | 2.4V | 07:57:03 | 02:57:52 | 00:00:00 | |
| AU51GT2 | 2026-09-06 01:15:50 | 50.76638 | 8.64516 | 123° | 120km/h | 11871m | -6.2m/s | -54.6°C | 29.5% | 213.9hPa | 2.4V | 00:00:00 | 00:00:00 | 00:00:00 | |
| SONDE2-11 | 2026-09-06 01:15:49 | 50.76654 | 8.64476 | 123° | 119km/h | 11877m | -6.1m/s | -54.7°C | 29.6% | 213.8hPa | 2.4V | 00:00:00 | 00:00:00 | 00:00:00 | |
| DL1XH1-15 | 2026-09-06 01:15:48 | 50.76721 | 8.64314 | 122° | 120km/h | 11900m | -6m/s | -54.9°C | 35.9% | 213hPa | 2.4V | 07:56:55 | 02:57:47 | 00:00:00 | |
| DL1XH-west | 2026-09-06 01:15:48 | 50.76654 | 8.64476 | 123° | 120km/h | 11877m | -6.1m/s | -54.7°C | 37.8% | 213.8hPa | 2.5V | 07:57:03 | 02:57:51 | 00:00:00 | |
| DB0NH | 2026-09-06 01:15:48 | 50.76654 | 8.64476 | 124° | 122km/h | 11877m | -6.1m/s | -54.6°C | 35.5% | 213.7hPa | 2.5V | 00:00:00 | 02:57:51 | 00:00:00 | |
| DM0DOS-11 | 2026-09-06 01:15:47 | 50.76755 | 8.64234 | 122° | 122km/h | 11912m | -6.6m/s | -55°C | 36.1% | 212.6hPa | 2.5V | 07:56:57 | 02:57:45 | 00:00:00 | |
| HSKMA3-T | 2026-09-06 01:15:42 | 50.76755 | 8.64234 | 123° | 122km/h | 11912m | -6.6m/s | -55°C | 38.4% | 212.6hPa | 2.5V | 07:57:03 | 02:57:45 | 00:00:00 | |
| BIOWL1-15 | 2026-09-06 01:15:39 | 50.76805 | 8.64112 | 122° | 120km/h | 11930m | -6m/s | -55.2°C | 38.7% | 212hPa | 2.4V | 07:57:03 | 02:57:42 | 00:00:00 | |
| DL1XH1-15 | 2026-09-06 01:15:38 | 50.76886 | 8.63909 | 122° | 119km/h | 11959m | -6m/s | -55.4°C | 36.9% | 211hPa | 2.5V | 07:57:05 | 02:57:37 | 00:00:00 | |
| DM0DOS-11 | 2026-09-06 01:15:37 | 50.76919 | 8.63828 | 122° | 120km/h | 11971m | -5.8m/s | -55.5°C | 37.2% | 210.6hPa | 2.4V | 07:57:07 | 02:57:35 | 00:00:00 | |
| DL1XH-west | 2026-09-06 01:15:37 | 50.76837 | 8.64031 | 122° | 120km/h | 11942m | -5.8m/s | -55.3°C | 38.9% | 211.6hPa | 2.4V | 07:57:03 | 02:57:40 | 00:00:00 | |
| HSKMA3-T | 2026-09-06 01:15:31 | 50.76936 | 8.63788 | 123° | 122km/h | 11977m | -6.3m/s | -55.6°C | 39.3% | 210.5hPa | 2.4V | 07:57:54 | 02:57:34 | 00:00:00 | |
| BIOWL1-15 | 2026-09-06 01:15:30 | 50.76986 | 8.63666 | 123° | 122km/h | 11995m | -6.1m/s | -55.7°C | 39.5% | 209.9hPa | 2.5V | 07:57:54 | 02:57:31 | 00:00:00 | |
| DO3MHA-12 | 2026-09-06 01:15:30 | 50.76953 | 8.63747 | 123° | 122km/h | 11983m | -6.1m/s | -55.6°C | 37.3% | 210.2hPa | 2.5V | 00:00:00 | 02:57:33 | 00:00:00 | |
| BIOWL7-15 | 2026-09-06 01:15:29 | 50.76953 | 8.63747 | 124° | 120km/h | 11983m | -6.1m/s | -55.6°C | 31.1% | 210.2hPa | 2.5V | 00:00:00 | 00:00:00 | 00:00:00 | |
| BUE01 | 2026-09-06 01:15:28 | 50.76986 | 8.63666 | 122° | 122km/h | 11995m | -6.1m/s | -55.7°C | 31.1% | 209.9hPa | 2.5V | 00:00:00 | 00:00:00 | 00:00:00 | |
| DM0DOS-11 | 2026-09-06 01:15:27 | 50.77088 | 8.63419 | 122° | 122km/h | 12030m | -5.7m/s | -56°C | 37.9% | 208.7hPa | 2.5V | 07:57:17 | 02:57:25 | 00:00:00 | |
| DL1XH-west | 2026-09-06 01:15:26 | 50.77020 | 8.63584 | 123° | 122km/h | 12007m | -6.1m/s | -55.8°C | 39.6% | 209.5hPa | 2.4V | 07:57:54 | 02:57:29 | 00:00:00 | |
| HSKMA3-T | 2026-09-06 01:15:20 | 50.77121 | 8.63336 | 123° | 122km/h | 12042m | -5.9m/s | -56.1°C | 40.1% | 208.3hPa | 2.4V | 07:57:54 | 02:57:23 | 00:00:00 | |
| BIOWL1-15 | 2026-09-06 01:15:20 | 50.77155 | 8.63254 | 123° | 122km/h | 12053m | -6.4m/s | -56.2°C | 40.4% | 207.9hPa | 2.4V | 07:57:54 | 02:57:21 | 00:00:00 | |
| DO9LL-15 | 2026-09-06 01:15:20 | 50.77121 | 8.63336 | 124° | 122km/h | 12042m | -5.8m/s | -56.0°C | 38.1% | 208.2hPa | 2.4V | 00:00:00 | 02:57:23 | 00:00:00 | |
| AU51GT2 | 2026-09-06 01:15:19 | 50.77155 | 8.63254 | 123° | 120km/h | 12053m | -6.4m/s | -56.2°C | 31.9% | 207.9hPa | 2.4V | 00:00:00 | 00:00:00 | 00:00:00 | |
| DL1XH1-15 | 2026-09-06 01:15:18 | 50.77223 | 8.63090 | 122° | 124km/h | 12077m | -5.9m/s | -56.3°C | 39.3% | 207.1hPa | 2.4V | 07:57:25 | 02:57:17 | 00:00:00 | |
| DB0NH | 2026-09-06 01:15:18 | 50.77155 | 8.63254 | 124° | 122km/h | 12053m | -6.4m/s | -56.1°C | 38.4% | 207.9hPa | 2.4V | 00:00:00 | 02:57:21 | 00:00:00 | |
| DM0DOS-11 | 2026-09-06 01:15:17 | 50.77257 | 8.63008 | 122° | 124km/h | 12089m | -6.3m/s | -56.4°C | 40% | 206.7hPa | 2.4V | 07:57:27 | 02:57:15 | 00:00:00 | |
| DB0UT-7 | 2026-09-06 01:15:17 | 50.77172 | 8.63213 | 124° | 122km/h | 12059m | -6.2m/s | -56.2°C | 38.6% | 207.7hPa | 2.5V | 00:00:00 | 00:00:00 | 00:00:00 | |
| DO3DL | 2026-09-06 01:15:16 | 50.77172 | 8.63213 | 125° | 122km/h | 12059m | -6.2m/s | -56.2°C | 32.1% | 207.7hPa | 2.5V | 07:57:00 | 00:00:00 | 00:00:00 | |
| DL1XH-west | 2026-09-06 01:15:16 | 50.77189 | 8.63172 | 123° | 124km/h | 12066m | -6.4m/s | -56.3°C | 40.8% | 207.5hPa | 2.5V | 07:57:54 | 02:57:19 | 00:00:00 | |
| DJ8HS-15 | 2026-09-06 01:15:15 | 50.77206 | 8.63131 | 124° | 122km/h | 12072m | -5.9m/s | -56.3°C | 39.0% | 207.3hPa | 2.5V | 00:00:00 | 02:57:18 | 00:00:00 | |
| DJ2DS-15 | 2026-09-06 01:15:14 | 50.77223 | 8.63090 | 123° | 122km/h | 12078m | -5.9m/s | -56.3°C | 39.3% | 207.1hPa | 2.5V | 07:57:00 | 02:57:17 | 00:00:00 | |
| HARRO8 | 2026-09-06 01:15:13 | 50.77240 | 8.63049 | 123° | 120km/h | 12083m | -5.9m/s | -56.4°C | 33.0% | 206.9hPa | 2.5V | 00:00:00 | 00:00:00 | 00:00:00 | |
| DB0DAN | 2026-09-06 01:15:10 | 50.77291 | 8.62926 | 123° | 117km/h | 12102m | -6.2m/s | -56.5°C | 33.7% | 206.36hPa | 2.5V | 00:00:00 | 00:00:00 | 00:00:00 | |
| BIOWL1-15 | 2026-09-06 01:15:10 | 50.77325 | 8.62845 | 123° | 120km/h | 12114m | -5.8m/s | -56.6°C | 42.9% | 205.9hPa | 2.4V | 07:57:54 | 02:57:11 | 00:00:00 | |
| HSKMA3-T | 2026-09-06 01:15:09 | 50.77308 | 8.62885 | 123° | 122km/h | 12108m | -6.2m/s | -56.6°C | 42.6% | 206.2hPa | 2.4V | 07:57:54 | 02:57:12 | 00:00:00 | |
| DL1XH1-15 | 2026-09-06 01:15:08 | 50.77392 | 8.62681 | 122° | 122km/h | 12138m | -6.3m/s | -56.8°C | 42.1% | 205.2hPa | 2.5V | 07:57:35 | 02:57:07 | 00:00:00 | |
| DL1XH-west | 2026-09-06 01:15:06 | 50.77358 | 8.62763 | 123° | 120km/h | 12126m | -6.1m/s | -56.7°C | 43.5% | 205.6hPa | 2.4V | 07:57:54 | 02:57:09 | 00:00:00 | |
| DF7PN | 2026-09-06 01:15:05 | 50.77392 | 8.62682 | 122° | 120km/h | 12138m | -6.3m/s | -56.8°C | 35.2% | 205.2hPa | 2.4V | 00:00:00 | 00:00:00 | 00:00:00 | |
| DO3DL | 2026-09-06 01:15:03 | 50.77392 | 8.62681 | 124° | 122km/h | 12138m | -6.3m/s | -56.8°C | 35.2% | 205.2hPa | 2.4V | 07:57:00 | 00:00:00 | 00:00:00 | |
| BIOWL9-15 | 2026-09-06 01:15:00 | 50.77458 | 8.62518 | 122° | 120km/h | 12162m | -6.3m/s | -57.0°C | 35.9% | 204.4hPa | 2.4V | 00:00:00 | 00:00:00 | 00:00:00 | |
| DB0ND-19 | 2026-09-06 01:14:59 | 50.77475 | 8.62478 | 122° | 120km/h | 12168m | -6.1m/s | -57.1°C | 36.0% | 204.2hPa | 2.4V | 00:00:00 | 00:00:00 | 00:00:00 | |
| DL1XH1-15 | 2026-09-06 01:14:58 | 50.77556 | 8.62274 | 121° | 120km/h | 12197m | -6.2m/s | -57.3°C | 43.8% | 203.2hPa | 2.4V | 07:57:45 | 02:56:57 | 00:00:00 | |
| BIOWL1-15 | 2026-09-06 01:14:58 | 50.77491 | 8.62437 | 122° | 120km/h | 12174m | -5.8m/s | -57.1°C | 45.1% | 204hPa | 2.5V | 07:57:54 | 02:57:01 | 00:00:00 | |
| DL1XH-west | 2026-09-06 01:14:56 | 50.77524 | 8.62355 | 123° | 120km/h | 12185m | -6.2m/s | -57.2°C | 45.4% | 203.6hPa | 2.4V | 07:57:54 | 02:56:59 | 00:00:00 | |
| DB0DAN | 2026-09-06 01:14:55 | 50.77540 | 8.62314 | 122° | 115km/h | 12191m | -6.1m/s | -57.3°C | 36.4% | 203.44hPa | 2.4V | 00:00:00 | 00:00:00 | 00:00:00 | |
| DL3AQ-11 | 2026-09-06 01:14:54 | 50.77572 | 8.62233 | 121° | 119km/h | 12203m | -6.1m/s | -57.4°C | 36.8% | 203.0hPa | 2.4V | 00:00:00 | 00:00:00 | 00:00:00 | |
| DD1CC8 | 2026-09-06 01:14:53 | 50.77588 | 8.62192 | 121° | 119km/h | 12209m | -6.3m/s | -57.4°C | 36.9% | 202.9hPa | 2.4V | 00:00:00 | 00:00:00 | 00:00:00 | |
| DJ2DS-15 | 2026-09-06 01:14:52 | 50.77588 | 8.62192 | 122° | 120km/h | 12209m | -6.3m/s | -57.3°C | 44.0% | 202.8hPa | 2.4V | 00:00:00 | 02:56:55 | 00:00:00 | |
| DO3MHA-11 | 2026-09-06 01:14:51 | 50.77604 | 8.62151 | 122° | 120km/h | 12215m | -6.0m/s | -57.4°C | 44.3% | 202.6hPa | 2.4V | 00:00:00 | 02:56:54 | 00:00:00 | |
| DO3MHA-12 | 2026-09-06 01:14:50 | 50.77620 | 8.62111 | 122° | 120km/h | 12222m | -5.8m/s | -57.5°C | 44.5% | 202.4hPa | 2.4V | 00:00:00 | 02:56:53 | 00:00:00 | |
| AM1SDL-15 | 2026-09-06 01:14:49 | 50.77636 | 8.62070 | 123° | 120km/h | 12227m | -6.3m/s | -57.5°C | 44.6% | 202.3hPa | 2.4V | 00:00:00 | 02:56:52 | 00:00:00 | |
| DL1XH1-15 | 2026-09-06 01:14:48 | 50.77716 | 8.61866 | 122° | 122km/h | 12257m | -6.2m/s | -57.8°C | 45.7% | 201.3hPa | 2.4V | 07:57:55 | 02:56:47 | 00:00:00 | |
| DB0NH | 2026-09-06 01:14:48 | 50.77651 | 8.62029 | 122° | 120km/h | 12233m | -5.9m/s | -57.6°C | 44.9% | 202.1hPa | 2.4V | 00:00:00 | 02:56:51 | 00:00:00 | |
| DM0DOS-11 | 2026-09-06 01:14:47 | 50.77748 | 8.61784 | 121° | 120km/h | 12268m | -6.2m/s | -57.9°C | 46% | 201hPa | 2.4V | 07:57:57 | 02:56:45 | 00:00:00 | |
| HSKMA3-T | 2026-09-06 01:14:47 | 50.77668 | 8.61989 | 123° | 120km/h | 12239m | -5.8m/s | -57.7°C | 46.8% | 201.9hPa | 2.4V | 07:57:54 | 02:56:50 | 00:00:00 | |
| DL1XH-west | 2026-09-06 01:14:45 | 50.77700 | 8.61907 | 121° | 120km/h | 12251m | -5.8m/s | -57.8°C | 47.1% | 201.5hPa | 2.5V | 07:57:54 | 02:56:48 | 00:00:00 | |
| DL4BBY-15 | 2026-09-06 01:14:44 | 50.77716 | 8.61866 | 123° | 120km/h | 12258m | -6.1m/s | -60.2°C | 0% | 0hPa | 2.4V | 00:00:00 | 00:00:00 | 00:00:00 | |
| EDDB2-11 | 2026-09-06 01:14:42 | 50.77764 | 8.61743 | 121° | 120km/h | 12274m | -6.3m/s | -58.0°C | 38.7% | 200.8hPa | 2.4V | 00:00:00 | 00:00:00 | 00:00:00 | |
| DO3MHA-11 | 2026-09-06 01:14:41 | 50.77764 | 8.61743 | 122° | 120km/h | 12274m | -6.2m/s | -57.9°C | 46.1% | 200.7hPa | 2.4V | 07:57:00 | 02:56:44 | 00:00:00 | |
| DO3MHA-12 | 2026-09-06 01:14:40 | 50.77780 | 8.61703 | 123° | 120km/h | 12280m | -5.9m/s | -58.0°C | 46.2% | 200.5hPa | 2.4V | 00:00:00 | 02:56:43 | 00:00:00 | |
| DD8BA-10 | 2026-09-06 01:14:39 | 50.77797 | 8.61662 | 122° | 120km/h | 12286m | -6.6m/s | -58.0°C | 46.5% | 200.3hPa | 2.4V | 00:00:00 | 00:00:00 | 00:00:00 | |
| DL1XH1-15 | 2026-09-06 01:14:38 | 50.77879 | 8.61458 | 122° | 122km/h | 12316m | -6.3m/s | -58.3°C | 47.6% | 199.4hPa | 2.4V | 07:58:05 | 02:56:37 | 00:00:00 | |
| DM0DOS-11 | 2026-09-06 01:14:37 | 50.77912 | 8.61377 | 122° | 120km/h | 12328m | -6.1m/s | -58.4°C | 47.9% | 199hPa | 2.5V | 07:58:07 | 02:56:35 | 00:00:00 | |
| BIOWL1-15 | 2026-09-06 01:14:37 | 50.77829 | 8.61580 | 123° | 122km/h | 12298m | -6.3m/s | -58.2°C | 48.4% | 200hPa | 2.4V | 07:58:45 | 02:56:40 | 00:00:00 | |
| HSKMA3-T | 2026-09-06 01:14:36 | 50.77846 | 8.61540 | 122° | 120km/h | 12304m | -5.9m/s | -58.2°C | 48.6% | 199.8hPa | 2.4V | 07:58:45 | 02:56:39 | 00:00:00 | |
| DL1XH-west | 2026-09-06 01:14:34 | 50.77879 | 8.61458 | 122° | 122km/h | 12316m | -6.3m/s | -58.3°C | 49% | 199.4hPa | 2.4V | 07:58:45 | 02:56:37 | 00:00:00 | |
| DF7PN | 2026-09-06 01:14:34 | 50.77895 | 8.61417 | 123° | 120km/h | 12322m | -6.0m/s | -58.4°C | 40.1% | 199.2hPa | 2.5V | 00:00:00 | 00:00:00 | 00:00:00 | |
| DJ2DS-15 | 2026-09-06 01:14:32 | 50.77912 | 8.61377 | 123° | 119km/h | 12328m | -6.0m/s | -58.4°C | 47.9% | 199.0hPa | 2.5V | 00:00:00 | 02:56:35 | 00:00:00 | |
| DO3MHA-11 | 2026-09-06 01:14:31 | 50.77928 | 8.61336 | 123° | 120km/h | 12334m | -6.4m/s | -58.4°C | 48.2% | 198.8hPa | 2.4V | 00:00:00 | 02:56:34 | 00:00:00 | |
| DO3MHA-12 | 2026-09-06 01:14:30 | 50.77945 | 8.61295 | 123° | 120km/h | 12340m | -6.1m/s | -58.5°C | 48.4% | 198.6hPa | 2.4V | 00:00:00 | 02:56:33 | 00:00:00 | |
| BIOWL9-15 | 2026-09-06 01:14:29 | 50.77961 | 8.61255 | 123° | 120km/h | 12346m | -6.1m/s | -58.6°C | 40.9% | 198.5hPa | 2.4V | 00:00:00 | 00:00:00 | 00:00:00 | |
| DL1XH1-15 | 2026-09-06 01:14:28 | 50.78043 | 8.61053 | 123° | 119km/h | 12376m | -5.8m/s | -58.9°C | 49.9% | 197.5hPa | 2.4V | 07:58:15 | 02:56:27 | 00:00:00 | |
| DM0DOS-11 | 2026-09-06 01:14:27 | 50.78076 | 8.60972 | 122° | 119km/h | 12387m | -6.2m/s | -59°C | 50.4% | 197.2hPa | 2.4V | 07:58:17 | 02:56:25 | 00:00:00 | |
| BIOWL1-15 | 2026-09-06 01:14:26 | 50.78010 | 8.61133 | 122° | 120km/h | 12363m | -6.4m/s | -58.8°C | 50.5% | 197.9hPa | 2.5V | 07:58:45 | 02:56:29 | 00:00:00 | |
| HSKMA3-T | 2026-09-06 01:14:25 | 50.78027 | 8.61093 | 123° | 120km/h | 12369m | -6.4m/s | -58.8°C | 50.8% | 197.7hPa | 2.4V | 07:58:45 | 02:56:28 | 00:00:00 | |
| DL1XH-west | 2026-09-06 01:14:23 | 50.78060 | 8.61013 | 123° | 119km/h | 12381m | -6m/s | -58.9°C | 51.2% | 197.3hPa | 2.4V | 07:58:45 | 02:56:26 | 00:00:00 | |
| DD1CC8 | 2026-09-06 01:14:22 | 50.78092 | 8.60932 | 122° | 119km/h | 12393m | -6.1m/s | -59.0°C | 42.5% | 197.0hPa | 2.5V | 00:00:00 | 00:00:00 | 00:00:00 | |
| DO3MHA-11 | 2026-09-06 01:14:21 | 50.78092 | 8.60932 | 123° | 119km/h | 12393m | -6.1m/s | -59.0°C | 50.6% | 196.9hPa | 2.5V | 00:00:00 | 02:56:24 | 00:00:00 | |
| DO3MHA-12 | 2026-09-06 01:14:20 | 50.78109 | 8.60892 | 123° | 119km/h | 12399m | -6.3m/s | -59.0°C | 50.7% | 196.7hPa | 2.5V | 00:00:00 | 02:56:23 | 00:00:00 | |
| DO3DL | 2026-09-06 01:14:19 | 50.78125 | 8.60852 | 125° | 119km/h | 12405m | -5.9m/s | -59.1°C | 42.8% | 196.6hPa | 2.5V | 07:58:00 | 00:00:00 | 00:00:00 | |
| DL1XH1-15 | 2026-09-06 01:14:18 | 50.78205 | 8.60655 | 122° | 119km/h | 12434m | -6.1m/s | -59.3°C | 51.6% | 195.7hPa | 2.5V | 07:58:25 | 02:56:17 | 00:00:00 | |
| DM0DOS-11 | 2026-09-06 01:14:17 | 50.78238 | 8.60576 | 123° | 117km/h | 12446m | -6.7m/s | -59.4°C | 51.9% | 195.2hPa | 2.4V | 07:58:27 | 02:56:15 | 00:00:00 | |
| BIOWL1-15 | 2026-09-06 01:14:17 | 50.78190 | 8.60694 | 122° | 119km/h | 12428m | -6m/s | -59.3°C | 52.3% | 195.8hPa | 2.5V | 07:58:45 | 02:56:18 | 00:00:00 | |
| HSKMA3-T | 2026-09-06 01:14:14 | 50.78206 | 8.60655 | 123° | 119km/h | 12434m | -6.1m/s | -59.4°C | 52.5% | 195.7hPa | 2.5V | 07:58:45 | 02:56:17 | 00:00:00 | |
| DL1XH-west | 2026-09-06 01:14:12 | 50.78238 | 8.60576 | 123° | 117km/h | 12446m | -6.7m/s | -59.4°C | 52.8% | 195.2hPa | 2.4V | 07:58:45 | 02:56:15 | 00:00:00 | |
| DO3DL | 2026-09-06 01:14:12 | 50.78238 | 8.60576 | 124° | 117km/h | 12447m | -6.7m/s | -59.4°C | 43.6% | 195.2hPa | 2.4V | 07:58:00 | 00:00:00 | 00:00:00 | |
| EDDB2-11 | 2026-09-06 01:14:11 | 50.78270 | 8.60497 | 123° | 117km/h | 12459m | -6.1m/s | -59.5°C | 44.0% | 194.9hPa | 2.4V | 00:00:00 | 00:00:00 | 00:00:00 | |
| DO3MHA-12 | 2026-09-06 01:14:10 | 50.78270 | 8.60497 | 124° | 117km/h | 12459m | -6.1m/s | -59.5°C | 52.3% | 194.8hPa | 2.4V | 00:00:00 | 02:56:13 | 00:00:00 | |
| DD8BA-10 | 2026-09-06 01:14:09 | 50.78286 | 8.60458 | 125° | 117km/h | 12465m | -6.3m/s | -59.5°C | 52.5% | 194.6hPa | 2.4V | 00:00:00 | 00:00:00 | 00:00:00 | |
| DL1XH1-15 | 2026-09-06 01:14:08 | 50.78368 | 8.60263 | 123° | 117km/h | 12496m | -6.7m/s | -59.8°C | 53% | 193.7hPa | 2.4V | 07:58:35 | 02:56:07 | 00:00:00 | |
| DM0DOS-11 | 2026-09-06 01:14:07 | 50.78400 | 8.60186 | 123° | 117km/h | 12508m | -6.2m/s | -59.8°C | 53.4% | 193.4hPa | 2.5V | 07:58:37 | 02:56:05 | 00:00:00 | |
| BIOWL1-15 | 2026-09-06 01:14:04 | 50.78368 | 8.60263 | 123° | 117km/h | 12496m | -6.7m/s | -59.8°C | 53.8% | 193.7hPa | 2.4V | 07:58:45 | 02:56:07 | 00:00:00 | |
| HSKMA3-T | 2026-09-06 01:14:03 | 50.78384 | 8.60224 | 124° | 117km/h | 12503m | -6.2m/s | -59.8°C | 54% | 193.6hPa | 2.4V | 07:58:45 | 02:56:06 | 00:00:00 | |
| DL1XH-west | 2026-09-06 01:14:01 | 50.78417 | 8.60147 | 123° | 115km/h | 12514m | -6.7m/s | -59.9°C | 54.3% | 193.2hPa | 2.5V | 07:58:45 | 02:56:04 | 00:00:00 | |
| DO3MHA-11 | 2026-09-06 01:14:01 | 50.78417 | 8.60147 | 124° | 117km/h | 12514m | -6.6m/s | -59.8°C | 53.5% | 193.1hPa | 2.5V | 00:00:00 | 02:56:04 | 00:00:00 | |
| DO3MHA-12 | 2026-09-06 01:14:00 | 50.78433 | 8.60108 | 124° | 117km/h | 12521m | -6.5m/s | -59.9°C | 53.8% | 192.9hPa | 2.4V | 00:00:00 | 02:56:03 | 00:00:00 | |
| DD8BA-10 | 2026-09-06 01:13:59 | 50.78449 | 8.60069 | 124° | 117km/h | 12527m | -6.4m/s | -60.0°C | 53.9% | 192.8hPa | 2.4V | 00:00:00 | 00:00:00 | 00:00:00 | |
| DL1XH1-15 | 2026-09-06 01:13:58 | 50.78529 | 8.59874 | 121° | 117km/h | 12558m | -6.1m/s | -60.3°C | 54.5% | 191.9hPa | 2.4V | 07:58:45 | 02:55:57 | 00:00:00 | |
| BIOWL9-15 | 2026-09-06 01:13:58 | 50.78465 | 8.60031 | 123° | 115km/h | 12533m | -6.4m/s | -60.1°C | 45.3% | 192.6hPa | 2.4V | 00:00:00 | 00:00:00 | 00:00:00 | |
| DM0DOS-11 | 2026-09-06 01:13:57 | 50.78560 | 8.59795 | 121° | 117km/h | 12570m | -6.7m/s | -60.4°C | 54.7% | 191.5hPa | 2.4V | 07:58:47 | 02:55:55 | 00:00:00 | |
| BIOWL1-15 | 2026-09-06 01:13:54 | 50.78529 | 8.59874 | 122° | 117km/h | 12558m | -6.1m/s | -60.3°C | 55% | 191.9hPa | 2.4V | 07:58:45 | 02:55:57 | 00:00:00 | |
| HSKMA3-T | 2026-09-06 01:13:53 | 50.78545 | 8.59834 | 122° | 117km/h | 12564m | -6.3m/s | -60.3°C | 55% | 191.7hPa | 2.4V | 07:59:36 | 02:55:56 | 00:00:00 | |
| DL1XH-west | 2026-09-06 01:13:51 | 50.78576 | 8.59755 | 123° | 115km/h | 12577m | -6.6m/s | -60.4°C | 55.2% | 191.3hPa | 2.4V | 07:59:36 | 02:55:54 | 00:00:00 | |
| DF8AY | 2026-09-06 01:13:50 | 50.78592 | 8.59717 | 122° | 115km/h | 12583m | -6.5m/s | -60.5°C | 55.3% | 0hPa | 2.5V | 08:00:27 | 02:55:53 | 00:00:00 | |
| DO1YAY-16 | 2026-09-06 01:13:48 | 50.78639 | 8.59601 | 122° | 113km/h | 12602m | -6.3m/s | -60.6°C | 46.4% | 190.6hPa | 2.4V | 00:00:00 | 00:00:00 | 00:00:00 | |
| DM0DOS-11 | 2026-09-06 01:13:47 | 50.78718 | 8.59407 | 121° | 115km/h | 12632m | -6.1m/s | -60.9°C | 55.8% | 189.6hPa | 2.4V | 07:58:57 | 02:55:45 | 00:00:00 | |
| AU51GT2 | 2026-09-06 01:13:46 | 50.78671 | 8.59524 | 123° | 115km/h | 12614m | -6.2m/s | -60.7°C | 46.6% | 190.2hPa | 2.5V | 00:00:00 | 00:00:00 | 00:00:00 | |
| BIOWL1-15 | 2026-09-06 01:13:45 | 50.78702 | 8.59447 | 122° | 117km/h | 12626m | -6.1m/s | -60.8°C | 55.9% | 189.8hPa | 2.5V | 07:59:36 | 02:55:46 | 00:00:00 | |
| HSKMA3-T | 2026-09-06 01:13:42 | 50.78718 | 8.59407 | 121° | 115km/h | 12632m | -6.1m/s | -60.9°C | 56% | 189.6hPa | 2.4V | 07:59:36 | 02:55:45 | 00:00:00 | |
| DL1XH-west | 2026-09-06 01:13:40 | 50.78748 | 8.59328 | 121° | 113km/h | 12644m | -6.7m/s | -61°C | 56.2% | 189.2hPa | 2.4V | 07:59:36 | 02:55:43 | 00:00:00 | |
| EDDB2-11 | 2026-09-06 01:13:40 | 50.78763 | 8.59289 | 121° | 113km/h | 12651m | -6.7m/s | -61.0°C | 47.1% | 189.0hPa | 2.4V | 00:00:00 | 00:00:00 | 00:00:00 | |
| DD8BA-10 | 2026-09-06 01:13:39 | 50.78763 | 8.59289 | 122° | 115km/h | 12651m | -6.7m/s | -61.0°C | 56.2% | 189.0hPa | 2.4V | 07:59:00 | 00:00:00 | 00:00:00 | |
| DL1XH1-15 | 2026-09-06 01:13:38 | 50.78839 | 8.59094 | 120° | 117km/h | 12683m | -6.3m/s | -61.3°C | 57% | 188hPa | 2.4V | 07:59:05 | 02:55:37 | 00:00:00 | |
| NBG1-10 | 2026-09-06 01:13:38 | 50.78778 | 8.59250 | 121° | 117km/h | 12657m | -6.3m/s | -61.0°C | 56.3% | 188.8hPa | 2.4V | 00:00:00 | 02:55:41 | 00:00:00 | |
| DM0DOS-11 | 2026-09-06 01:13:37 | 50.78869 | 8.59015 | 121° | 115km/h | 12695m | -6.2m/s | -61.4°C | 57.2% | 187.7hPa | 2.4V | 07:59:07 | 02:55:35 | 00:00:00 | |
| BIOWL1-15 | 2026-09-06 01:13:33 | 50.78854 | 8.59054 | 121° | 115km/h | 12689m | -6.1m/s | -61.3°C | 56.9% | 187.9hPa | 2.4V | 07:59:36 | 02:55:36 | 00:00:00 | |
| HSKMA3-T | 2026-09-06 01:13:31 | 50.78884 | 8.58976 | 122° | 115km/h | 12701m | -6.8m/s | -61.5°C | 57% | 187.5hPa | 2.5V | 07:59:36 | 02:55:34 | 00:00:00 | |
| DL1XH-west | 2026-09-06 01:13:29 | 50.78914 | 8.58897 | 121° | 115km/h | 12714m | -6.5m/s | -61.5°C | 57.2% | 187.1hPa | 2.4V | 07:59:36 | 02:55:32 | 00:00:00 | |
| DM0DOS-11 | 2026-09-06 01:13:27 | 50.79022 | 8.58622 | 120° | 119km/h | 12758m | -6.4m/s | -61.8°C | 57.3% | 185.8hPa | 2.4V | 07:59:17 | 02:55:25 | 00:00:00 | |
| BIOWL1-15 | 2026-09-06 01:13:22 | 50.79022 | 8.58622 | 121° | 119km/h | 12758m | -6.4m/s | -61.8°C | 57.2% | 185.8hPa | 2.4V | 07:59:36 | 02:55:25 | 00:00:00 | |
| HSKMA3-T | 2026-09-06 01:13:20 | 50.79054 | 8.58543 | 122° | 117km/h | 12771m | -6.4m/s | -61.9°C | 57.3% | 185.4hPa | 2.4V | 07:59:36 | 02:55:23 | 00:00:00 | |
| DD1CC8 | 2026-09-06 01:13:20 | 50.79069 | 8.58503 | 121° | 117km/h | 12777m | -6.5m/s | -62.0°C | 48.2% | 185.2hPa | 2.4V | 00:00:00 | 00:00:00 | 00:00:00 | |
| DO3DL | 2026-09-06 01:13:19 | 50.79069 | 8.58503 | 122° | 119km/h | 12777m | -6.5m/s | -62.0°C | 48.2% | 185.3hPa | 2.4V | 07:59:00 | 00:00:00 | 00:00:00 | |
| DL1XH1-15 | 2026-09-06 01:13:18 | 50.79146 | 8.58303 | 121° | 115km/h | 12807m | -6m/s | -62.3°C | 58.1% | 184.3hPa | 2.4V | 07:59:25 | 02:55:17 | 00:00:00 | |
| DL1XH-west | 2026-09-06 01:13:18 | 50.79085 | 8.58463 | 121° | 117km/h | 12783m | -6.5m/s | -62.1°C | 57.4% | 185.1hPa | 2.5V | 07:59:36 | 02:55:21 | 00:00:00 | |
| BIOWL1-15 | 2026-09-06 01:13:13 | 50.79193 | 8.58184 | 122° | 117km/h | 12827m | -6.4m/s | -62.4°C | 57.6% | 183.7hPa | 2.4V | 07:59:36 | 02:55:14 | 00:00:00 | |
| DO3DL | 2026-09-06 01:13:12 | 50.79162 | 8.58263 | 123° | 119km/h | 12814m | -6.6m/s | -62.3°C | 48.6% | 184.1hPa | 2.4V | 07:59:00 | 00:00:00 | 00:00:00 | |
| DB0DAN | 2026-09-06 01:13:10 | 50.79208 | 8.58144 | 121° | 111km/h | 12833m | -7m/s | -62.5°C | 48.8% | 183.53hPa | 2.4V | 00:00:00 | 00:00:00 | 00:00:00 | |
| HSKMA3-T | 2026-09-06 01:13:09 | 50.79224 | 8.58104 | 122° | 117km/h | 12840m | -6.7m/s | -62.5°C | 57.6% | 183.3hPa | 2.4V | 07:59:36 | 02:55:12 | 00:00:00 | |
| DL1XH1-15 | 2026-09-06 01:13:08 | 50.79302 | 8.57904 | 121° | 120km/h | 12872m | -6.7m/s | -62.8°C | 58.8% | 182.4hPa | 2.4V | 07:59:35 | 02:55:07 | 00:00:00 | |
| DL1XH-west | 2026-09-06 01:13:08 | 50.79240 | 8.58065 | 122° | 117km/h | 12847m | -6.2m/s | -62.6°C | 57.7% | 183.1hPa | 2.4V | 07:59:36 | 02:55:11 | 00:00:00 | |
| BIOWL1-15 | 2026-09-06 01:13:03 | 50.79348 | 8.57783 | 121° | 119km/h | 12891m | -6.6m/s | -63°C | 58% | 181.8hPa | 2.4V | 08:00:27 | 02:55:04 | 00:00:00 | |
| EDDB2-12 | 2026-09-06 01:13:01 | 50.79363 | 8.57742 | 119° | 117km/h | 12897m | -6.7m/s | -63.0°C | 49.2% | 181.7hPa | 2.5V | 00:00:00 | 00:00:00 | 00:00:00 | |
| DF7PN | 2026-09-06 01:13:00 | 50.79363 | 8.57742 | 119° | 117km/h | 12897m | -6.7m/s | -63.0°C | 49.2% | 181.7hPa | 2.5V | 00:00:00 | 00:00:00 | 00:00:00 | |
| DO3MHA-11 | 2026-09-06 01:12:59 | 50.79378 | 8.57701 | 120° | 119km/h | 12904m | -6.4m/s | -63.0°C | 59.2% | 181.4hPa | 2.5V | 00:00:00 | 02:55:02 | 00:00:00 | |
| DL1XH1-15 | 2026-09-06 01:12:58 | 50.79452 | 8.57497 | 119° | 117km/h | 12936m | -6.9m/s | -63.3°C | 59.7% | 180.4hPa | 2.5V | 07:59:45 | 02:54:57 | 00:00:00 | |
| HSKMA3-T | 2026-09-06 01:12:58 | 50.79393 | 8.57661 | 121° | 115km/h | 12910m | -6.4m/s | -63.1°C | 58% | 181.2hPa | 2.4V | 08:00:27 | 02:55:01 | 00:00:00 | |
| DL1XH-west | 2026-09-06 01:12:57 | 50.79408 | 8.57620 | 120° | 119km/h | 12916m | -6.9m/s | -63.2°C | 58.1% | 181.1hPa | 2.4V | 08:00:27 | 02:55:00 | 00:00:00 | |
| BIOWL1-15 | 2026-09-06 01:12:50 | 50.79512 | 8.57330 | 120° | 122km/h | 12963m | -6.5m/s | -63.5°C | 58.4% | 179.7hPa | 2.4V | 08:00:27 | 02:54:53 | 00:00:00 | |
| DL1ZP-14 | 2026-09-06 01:12:50 | 50.79512 | 8.57330 | 119° | 122km/h | 12963m | -6.5m/s | -63.5°C | 49.8% | 179.7hPa | 2.4V | 00:00:00 | 00:00:00 | 00:00:00 | |
| DD1CC8 | 2026-09-06 01:12:49 | 50.79542 | 8.57246 | 120° | 119km/h | 12976m | -6.3m/s | -63.6°C | 50.0% | 179.4hPa | 2.5V | 00:00:00 | 00:00:00 | 00:00:00 | |
| HTAHTA | 2026-09-06 01:12:48 | 50.79542 | 8.57246 | 120° | 119km/h | 12976m | -6.3m/s | 0°C | -1.0% | -1.0hPa | 2.5V | 00:00:00 | 00:00:00 | 00:00:00 | |
| DM0DOS-11 | 2026-09-06 01:12:47 | 50.79631 | 8.56990 | 117° | 122km/h | 13015m | -6.6m/s | -63.8°C | 60.2% | 178.2hPa | 2.5V | 07:59:57 | 02:54:45 | 00:00:00 | |
| HSKMA3-T | 2026-09-06 01:12:47 | 50.79557 | 8.57204 | 118° | 122km/h | 12983m | -6.4m/s | -63.6°C | 58.6% | 179.2hPa | 2.5V | 08:00:27 | 02:54:50 | 00:00:00 | |
| DL1XH-west | 2026-09-06 01:12:46 | 50.79572 | 8.57161 | 119° | 120km/h | 12989m | -6.5m/s | -63.6°C | 58.6% | 179hPa | 2.4V | 08:00:27 | 02:54:49 | 00:00:00 | |
| DO1YAY-16 | 2026-09-06 01:12:46 | 50.79587 | 8.57119 | 119° | 122km/h | 12995m | -6.4m/s | -63.7°C | 49.9% | 178.8hPa | 2.4V | 00:00:00 | 00:00:00 | 00:00:00 | |
| BIOWL1-15 | 2026-09-06 01:12:40 | 50.79660 | 8.56905 | 117° | 124km/h | 13028m | -6.3m/s | -63.9°C | 58.4% | 177.9hPa | 2.4V | 08:00:27 | 02:54:43 | 00:00:00 | |
| DF8AY | 2026-09-06 01:12:37 | 50.79703 | 8.56776 | 119° | 119km/h | 13046m | -6m/s | -64°C | 58.5% | 0hPa | 2.4V | 08:00:27 | 02:54:40 | 00:00:00 | |
| DL1XH-west | 2026-09-06 01:12:36 | 50.79718 | 8.56734 | 117° | 122km/h | 13052m | -6.7m/s | -64.1°C | 58.5% | 177.1hPa | 2.5V | 08:00:27 | 02:54:39 | 00:00:00 | |
| DJ8HS-15 | 2026-09-06 01:12:35 | 50.79732 | 8.56691 | 119° | 120km/h | 13059m | -6.8m/s | -64.1°C | 60.5% | 176.9hPa | 2.4V | 00:00:00 | 02:54:38 | 00:00:00 | |
| DM7RM-13 | 2026-09-06 01:12:34 | 50.79732 | 8.56691 | 120° | 119km/h | 13059m | -6.8m/s | -64.1°C | 50.1% | 176.9hPa | 2.4V | 08:00:00 | 00:00:00 | 00:00:00 | |
| DM0DOS-11 | 2026-09-06 01:12:33 | 50.79776 | 8.56563 | 118° | 120km/h | 13079m | -6.6m/s | -64.2°C | 60.5% | 176.4hPa | 2.4V | 08:00:07 | 02:54:35 | 00:00:00 | |
| DJ2DS-15 | 2026-09-06 01:12:32 | 50.79775 | 8.56563 | 119° | 120km/h | 13079m | -6.5m/s | -64.2°C | 60.5% | 176.3hPa | 2.4V | 00:00:00 | 02:54:35 | 00:00:00 | |
| BIOWL7-15 | 2026-09-06 01:12:31 | 50.79775 | 8.56563 | 119° | 120km/h | 13079m | -6.6m/s | -64.2°C | 50.1% | 176.4hPa | 2.5V | 00:00:00 | 00:00:00 | 00:00:00 | |
| EDDB2-12 | 2026-09-06 01:12:30 | 50.79819 | 8.56433 | 117° | 124km/h | 13098m | -6.6m/s | -64.4°C | 50.0% | 175.8hPa | 2.5V | 00:00:00 | 00:00:00 | 00:00:00 | |
| DL1XH1-15 | 2026-09-06 01:12:29 | 50.79892 | 8.56219 | 118° | 120km/h | 13131m | -7m/s | -64.7°C | 61% | 174.9hPa | 2.5V | 08:00:15 | 02:54:27 | 00:00:00 | |
| BIOWL1-15 | 2026-09-06 01:12:29 | 50.79819 | 8.56433 | 118° | 124km/h | 13098m | -6.6m/s | -64.4°C | 58.4% | 175.8hPa | 2.5V | 08:00:27 | 02:54:32 | 00:00:00 | |
| DO3MHA-11 | 2026-09-06 01:12:28 | 50.79834 | 8.56390 | 119° | 120km/h | 13105m | -6.5m/s | -64.4°C | 60.7% | 175.6hPa | 2.4V | 00:00:00 | 02:54:31 | 00:00:00 | |
| DM0DOS-11 | 2026-09-06 01:12:27 | 50.79920 | 8.56134 | 117° | 119km/h | 13145m | -6.7m/s | -64.8°C | 60.7% | 174.5hPa | 2.4V | 08:00:17 | 02:54:25 | 00:00:00 | |
| DL1XH-west | 2026-09-06 01:12:26 | 50.79863 | 8.56304 | 119° | 120km/h | 13118m | -7m/s | -64.6°C | 58.4% | 175.2hPa | 2.4V | 08:00:27 | 02:54:29 | 00:00:00 | |
| DF8AY | 2026-09-06 01:12:24 | 50.79891 | 8.56219 | 118° | 120km/h | 13131m | -7m/s | -64.7°C | 58.3% | 0hPa | 2.5V | 08:00:27 | 02:54:27 | 00:00:00 | |
| DL1XH-15 | 2026-09-06 01:12:23 | 50.79976 | 8.55965 | 117° | 120km/h | 13172m | -6.9m/s | -65°C | 60.6% | 173.7hPa | 2.5V | 08:00:21 | 02:54:21 | 00:00:00 | |
| DL8OAI-8 | 2026-09-06 01:12:22 | 50.79906 | 8.56176 | 118° | 120km/h | 13139m | -6.8m/s | -64.7°C | 50.2% | 174.7hPa | 2.4V | 08:00:00 | 00:00:00 | 00:00:00 | |
| DL1XH1-15 | 2026-09-06 01:12:19 | 50.80033 | 8.55795 | 117° | 122km/h | 13198m | -6.7m/s | -65.1°C | 60.4% | 173hPa | 2.4V | 08:00:25 | 02:54:17 | 00:00:00 | |
| BIOWL1-15 | 2026-09-06 01:12:19 | 50.79962 | 8.56007 | 118° | 119km/h | 13165m | -6.5m/s | -64.9°C | 57.9% | 173.9hPa | 2.4V | 08:00:27 | 02:54:22 | 00:00:00 | |
| HSKMA3-T | 2026-09-06 01:12:16 | 50.80004 | 8.55880 | 119° | 119km/h | 13185m | -6.4m/s | -65.1°C | 57.8% | 173.3hPa | 2.4V | 08:00:27 | 02:54:19 | 00:00:00 | |
| DL1XH-west | 2026-09-06 01:12:15 | 50.80019 | 8.55838 | 118° | 122km/h | 13192m | -6.8m/s | -65.1°C | 57.6% | 173.1hPa | 2.4V | 08:00:27 | 02:54:18 | 00:00:00 | |
| DF8AY | 2026-09-06 01:12:13 | 50.80047 | 8.55752 | 118° | 122km/h | 13205m | -7.1m/s | 0°C | 0% | 0hPa | 2.4V | 08:00:27 | 02:54:16 | 00:00:00 | |
| AU51GT2 | 2026-09-06 01:12:13 | 50.80061 | 8.55708 | 117° | 120km/h | 13212m | -6.9m/s | -65.3°C | 49.6% | 172.6hPa | 2.5V | 00:00:00 | 00:00:00 | 00:00:00 | |
| CB1BUN | 2026-09-06 01:12:12 | 50.80061 | 8.55708 | 118° | 122km/h | 13212m | -6.9m/s | 0°C | 0% | 0hPa | 2.5V | 08:00:00 | 00:00:00 | 00:00:00 | |
| DJ2KF-10 | 2026-09-06 01:12:11 | 50.80075 | 8.55664 | 118° | 122km/h | 13219m | -7.0m/s | -65.2°C | 60.4% | 172.4hPa | 2.5V | 08:00:00 | 02:54:14 | 00:00:00 | |
| AM1SDL-15 | 2026-09-06 01:12:10 | 50.80090 | 8.55621 | 117° | 120km/h | 13226m | -6.9m/s | -65.3°C | 60.4% | 172.2hPa | 2.4V | 08:00:00 | 02:54:13 | 00:00:00 | |
| DL1XH1-15 | 2026-09-06 01:12:09 | 50.80169 | 8.55357 | 114° | 119km/h | 13268m | -7m/s | -65.6°C | 60.5% | 171.1hPa | 2.4V | 08:00:35 | 02:54:07 | 00:00:00 | |
| BIOWL1-15 | 2026-09-06 01:12:08 | 50.80117 | 8.55532 | 115° | 124km/h | 13241m | -6.9m/s | -65.4°C | 56.8% | 171.8hPa | 2.4V | 08:01:18 | 02:54:11 | 00:00:00 | |
| HSKMA3-T | 2026-09-06 01:12:05 | 50.80156 | 8.55400 | 115° | 119km/h | 13261m | -7m/s | -65.6°C | 56.3% | 171.3hPa | 2.5V | 08:01:18 | 02:54:08 | 00:00:00 | |
| DL1XH-west | 2026-09-06 01:12:04 | 50.80169 | 8.55357 | 115° | 119km/h | 13268m | -7m/s | -65.6°C | 56.1% | 171.1hPa | 2.4V | 08:01:18 | 02:54:07 | 00:00:00 | |
| DF8AY | 2026-09-06 01:12:02 | 50.80195 | 8.55272 | 117° | 117km/h | 13282m | -6.8m/s | 0°C | 0% | 0hPa | 2.4V | 18:12:15 | 02:54:05 | 00:00:00 | |
| EDDB2-12 | 2026-09-06 01:11:59 | 50.80252 | 8.55103 | 119° | 124km/h | 13308m | -6.5m/s | -65.9°C | 47.2% | 170.0hPa | 2.4V | 00:00:00 | 00:00:00 | 00:00:00 | |
| DL1XH1-15 | 2026-09-06 01:11:59 | 50.80317 | 8.54922 | 117° | 135km/h | 13333m | -6.4m/s | -65.9°C | 56.5% | 169.3hPa | 2.5V | 08:00:45 | 02:53:57 | 00:00:00 | |
| DF7PN | 2026-09-06 01:11:58 | 50.80252 | 8.55103 | 119° | 124km/h | 13308m | -6.5m/s | -65.9°C | 47.2% | 170.0hPa | 2.4V | 00:00:00 | 00:00:00 | 00:00:00 | |
| DM0DOS-11 | 2026-09-06 01:11:57 | 50.80347 | 8.54824 | 113° | 135km/h | 13346m | -6.3m/s | -65.9°C | 57.1% | 168.9hPa | 2.4V | 08:00:47 | 02:53:55 | 00:00:00 | |
| BIOWL1-15 | 2026-09-06 01:11:57 | 50.80268 | 8.55060 | 121° | 128km/h | 13314m | -6.4m/s | -65.9°C | 54.5% | 169.8hPa | 2.4V | 08:01:18 | 02:54:00 | 00:00:00 | |
| HSKMA3-T | 2026-09-06 01:11:55 | 50.80301 | 8.54969 | 119° | 133km/h | 13326m | -5.8m/s | -65.9°C | 53.9% | 169.5hPa | 2.4V | 08:01:18 | 02:53:58 | 00:00:00 | |
| DL1XH-west | 2026-09-06 01:11:53 | 50.80333 | 8.54873 | 116° | 137km/h | 13339m | -6.6m/s | -65.9°C | 53.6% | 169.1hPa | 2.5V | 08:01:18 | 02:53:56 | 00:00:00 | |
| BUE01 | 2026-09-06 01:11:51 | 50.80372 | 8.54725 | 109° | 130km/h | 13357m | -5.0m/s | -65.8°C | 45.6% | 168.6hPa | 2.4V | 00:00:00 | 00:00:00 | 00:00:00 | |
| CB1BUN | 2026-09-06 01:11:50 | 50.80360 | 8.54774 | 113° | 133km/h | 13352m | -4.9m/s | 0°C | 0% | 0hPa | 2.4V | 00:00:00 | 00:00:00 | 00:00:00 | |
| DL1XH1-15 | 2026-09-06 01:11:49 | 50.80432 | 8.54468 | 116° | 104km/h | 13390m | -6.3m/s | -65.9°C | 54.4% | 167.6hPa | 2.4V | 08:00:55 | 02:53:47 | 00:00:00 | |
| BIOWL1-15 | 2026-09-06 01:11:47 | 50.80401 | 8.54588 | 109° | 113km/h | 13373m | -5.5m/s | -65.8°C | 52.5% | 168.1hPa | 2.5V | 08:01:18 | 02:53:50 | 00:00:00 | |
| DJ2DS-15 | 2026-09-06 01:11:47 | 50.80411 | 8.54546 | 110° | 108km/h | 13379m | -5.5m/s | -65.8°C | 44.3% | 167.9hPa | 2.4V | 00:00:00 | 00:00:00 | 00:00:00 | |
| HSKMA3-T | 2026-09-06 01:11:44 | 50.80432 | 8.54468 | 116° | 106km/h | 13390m | -6.3m/s | -65.9°C | 51.9% | 167.6hPa | 2.4V | 08:01:18 | 02:53:47 | 00:00:00 | |
| DL1XH-west | 2026-09-06 01:11:43 | 50.80444 | 8.54431 | 119° | 106km/h | 13396m | -4.8m/s | -65.9°C | 51.7% | 167.4hPa | 2.4V | 08:01:18 | 02:53:46 | 00:00:00 | |
| DM0DOS-11 | 2026-09-06 01:11:42 | 50.80458 | 8.54394 | 121° | 108km/h | 13401m | -4.7m/s | -65.9°C | 54% | 167.3hPa | 2.5V | 08:00:57 | 02:53:45 | 00:00:00 | |
| BIOWL1-15 | 2026-09-06 01:11:40 | 50.80557 | 8.54142 | 118° | 135km/h | 13433m | -6.4m/s | -66.2°C | 50.3% | 166.4hPa | 2.5V | 08:01:18 | 02:53:39 | 00:00:00 | |
| DL1XH1-15 | 2026-09-06 01:11:39 | 50.80587 | 8.54044 | 113° | 135km/h | 13444m | -5.1m/s | -66.3°C | 52.6% | 166.1hPa | 2.4V | 08:01:05 | 02:53:37 | 00:00:00 | |
| DK9SH | 2026-09-06 01:11:38 | 50.80523 | 8.54234 | 123° | 130km/h | 13422m | -5.2m/s | -66.1°C | 42.8% | 166.7hPa | 2.4V | 00:00:00 | 00:00:00 | 00:00:00 | |
| DM0DOS-11 | 2026-09-06 01:11:37 | 50.80611 | 8.53946 | 109° | 130km/h | 13456m | -5m/s | -66.4°C | 52.3% | 165.8hPa | 2.4V | 08:01:07 | 02:53:35 | 00:00:00 | |
| HSKMA3-T | 2026-09-06 01:11:34 | 50.80587 | 8.54044 | 114° | 135km/h | 13444m | -5.1m/s | -66.3°C | 49.8% | 166.1hPa | 2.4V | 08:01:18 | 02:53:37 | 00:00:00 | |
| DL1XH-west | 2026-09-06 01:11:33 | 50.80600 | 8.53995 | 111° | 133km/h | 13450m | -6.5m/s | -66.4°C | 49.6% | 166hPa | 2.4V | 08:01:18 | 02:53:36 | 00:00:00 | |
| DO3DL | 2026-09-06 01:11:33 | 50.80599 | 8.53995 | 112° | 133km/h | 13450m | -6.5m/s | -66.4°C | 42.2% | 166.0hPa | 2.4V | 08:01:00 | 00:00:00 | 00:00:00 | |
| DJ2DS-15 | 2026-09-06 01:11:32 | 50.80611 | 8.53945 | 110° | 124km/h | 13456m | -5.0m/s | -66.3°C | 52.3% | 165.7hPa | 2.4V | 08:01:00 | 02:53:35 | 00:00:00 | |
| DO3MHA-11 | 2026-09-06 01:11:31 | 50.80622 | 8.53897 | 109° | 113km/h | 13461m | -5.3m/s | -66.4°C | 52.0% | 165.6hPa | 2.5V | 00:00:00 | 02:53:34 | 00:00:00 | |
| DL1XH1-15 | 2026-09-06 01:11:29 | 50.80690 | 8.53604 | 117° | 108km/h | 13500m | -5.1m/s | -66.8°C | 50.3% | 164.6hPa | 2.5V | 08:01:15 | 02:53:27 | 00:00:00 | |
| EDDB2-12 | 2026-09-06 01:11:28 | 50.80658 | 8.53721 | 109° | 108km/h | 13484m | -5.1m/s | -66.6°C | 40.6% | 165.0hPa | 2.5V | 00:00:00 | 00:00:00 | 00:00:00 | |
| DL1XH-15 | 2026-09-06 01:11:27 | 50.80703 | 8.53565 | 119° | 111km/h | 13505m | -5m/s | -66.9°C | 49.8% | 164.5hPa | 2.5V | 08:01:16 | 02:53:26 | 00:00:00 | |
| DM0DOS-11 | 2026-09-06 01:11:27 | 50.80717 | 8.53526 | 121° | 117km/h | 13510m | -4.9m/s | -67°C | 49% | 164.3hPa | 2.4V | 08:01:17 | 02:53:25 | 00:00:00 | |
| BIOWL1-15 | 2026-09-06 01:11:26 | 50.80667 | 8.53681 | 112° | 106km/h | 13489m | -5.2m/s | -66.7°C | 47.6% | 164.9hPa | 2.4V | 08:01:18 | 02:53:29 | 00:00:00 | |
| DB0DAN | 2026-09-06 01:11:25 | 50.80678 | 8.53642 | 115° | 100km/h | 13494m | -5.4m/s | -66.7°C | 40.2% | 164.72hPa | 2.4V | 00:00:00 | 00:00:00 | 00:00:00 | |
| HSKMA3-T | 2026-09-06 01:11:24 | 50.80690 | 8.53604 | 117° | 108km/h | 13500m | -5.1m/s | -66.8°C | 47% | 164.6hPa | 2.5V | 08:01:18 | 02:53:27 | 00:00:00 | |
| DL1XH-west | 2026-09-06 01:11:23 | 50.80703 | 8.53565 | 120° | 111km/h | 13505m | -5m/s | -66.9°C | 46.6% | 164.5hPa | 2.5V | 08:01:18 | 02:53:26 | 00:00:00 | |
| BIOWL9-15 | 2026-09-06 01:11:23 | 50.80717 | 8.53526 | 121° | 115km/h | 13510m | -4.9m/s | -67.0°C | 38.7% | 164.3hPa | 2.4V | 00:00:00 | 00:00:00 | 00:00:00 | |
| DB0ND-19 | 2026-09-06 01:11:22 | 50.80717 | 8.53526 | 121° | 115km/h | 13510m | -4.9m/s | -67.0°C | 38.7% | 164.3hPa | 2.4V | 00:00:00 | 00:00:00 | 00:00:00 | |
| DO3MHA-11 | 2026-09-06 01:11:21 | 50.80733 | 8.53486 | 122° | 122km/h | 13515m | -5.9m/s | -67.0°C | 48.9% | 164.2hPa | 2.4V | 00:00:00 | 02:53:24 | 00:00:00 | |
| BUE01 | 2026-09-06 01:11:20 | 50.80765 | 8.53398 | 119° | 131km/h | 13526m | -5.4m/s | -67.1°C | 38.0% | 163.9hPa | 2.4V | 00:00:00 | 00:00:00 | 00:00:00 | |
| DL1XH1-15 | 2026-09-06 01:11:19 | 50.80838 | 8.53151 | 110° | 137km/h | 13556m | -5.6m/s | -67.1°C | 47% | 163.1hPa | 2.4V | 08:01:25 | 02:53:17 | 00:00:00 | |
| DO3DL | 2026-09-06 01:11:19 | 50.80766 | 8.53398 | 120° | 131km/h | 13526m | -5.4m/s | -67.1°C | 38.0% | 163.9hPa | 2.4V | 08:02:00 | 00:00:00 | 00:00:00 | |
| DL3AQ-11 | 2026-09-06 01:11:18 | 50.80797 | 8.53303 | 115° | 137km/h | 13538m | -6.5m/s | -67.1°C | 37.6% | 163.6hPa | 2.4V | 00:00:00 | 00:00:00 | 00:00:00 | |
| DL1XH-15 | 2026-09-06 01:11:17 | 50.80849 | 8.53100 | 108° | 133km/h | 13562m | -6.5m/s | -67.1°C | 47% | 162.9hPa | 2.4V | 08:01:26 | 02:53:16 | 00:00:00 | |
| DM0DOS-11 | 2026-09-06 01:11:17 | 50.80860 | 8.53050 | 106° | 131km/h | 13568m | -5.3m/s | -67.1°C | 46.7% | 162.8hPa | 2.5V | 08:01:27 | 02:53:15 | 00:00:00 | |
| BIOWL1-15 | 2026-09-06 01:11:15 | 50.80826 | 8.53203 | 112° | 139km/h | 13550m | -6.1m/s | -67.1°C | 43.6% | 163.3hPa | 2.4V | 08:02:09 | 02:53:18 | 00:00:00 | |
| HSKMA3-T | 2026-09-06 01:11:14 | 50.80838 | 8.53151 | 110° | 137km/h | 13556m | -5.6m/s | -67.1°C | 43.2% | 163.1hPa | 2.4V | 08:02:09 | 02:53:17 | 00:00:00 | |
| DL1XH-west | 2026-09-06 01:11:12 | 50.80860 | 8.53050 | 107° | 131km/h | 13568m | -5.3m/s | -67.1°C | 42.4% | 162.8hPa | 2.5V | 08:02:09 | 02:53:15 | 00:00:00 | |
| DJ2DS-15 | 2026-09-06 01:11:11 | 50.80877 | 8.52953 | 105° | 119km/h | 13579m | -5.4m/s | -67.2°C | 36.1% | 162.5hPa | 2.4V | 00:00:00 | 00:00:00 | 00:00:00 | |
| DL1XH1-15 | 2026-09-06 01:11:09 | 50.80939 | 8.52702 | 118° | 115km/h | 13613m | -6.9m/s | -67.3°C | 44.1% | 161.6hPa | 2.4V | 08:01:35 | 02:53:07 | 00:00:00 | |
| DO3MHA-11 | 2026-09-06 01:11:08 | 50.80894 | 8.52864 | 109° | 120km/h | 13590m | -5.5m/s | -67.2°C | 45.9% | 162.1hPa | 2.4V | 08:01:00 | 02:53:11 | 00:00:00 | |
| DM0DOS-11 | 2026-09-06 01:11:07 | 50.80969 | 8.52621 | 121° | 122km/h | 13625m | -5.5m/s | -67.3°C | 43.2% | 161.2hPa | 2.4V | 08:01:37 | 02:53:05 | 00:00:00 | |
| DL1XH-15 | 2026-09-06 01:11:07 | 50.80953 | 8.52662 | 120° | 117km/h | 13620m | -5.6m/s | -67.3°C | 43.7% | 161.4hPa | 2.4V | 08:01:36 | 02:53:06 | 00:00:00 | |
| BIOWL1-15 | 2026-09-06 01:11:04 | 50.80939 | 8.52702 | 119° | 115km/h | 13613m | -6.9m/s | -67.4°C | 39.3% | 161.6hPa | 2.4V | 08:02:09 | 02:53:07 | 00:00:00 | |
| DO2JMG | 2026-09-06 01:11:03 | 50.80953 | 8.52662 | 120° | 119km/h | 13620m | -5.6m/s | 0°C | 0% | 0hPa | 2.4V | 18:12:15 | 02:53:06 | 00:00:00 | |
| DL1XH-west | 2026-09-06 01:11:02 | 50.80969 | 8.52621 | 121° | 122km/h | 13625m | -5.5m/s | -67.3°C | 38.4% | 161.2hPa | 2.4V | 08:02:09 | 02:53:05 | 00:00:00 | |
| SONCRA | 2026-09-06 01:11:02 | 50.80985 | 8.52578 | 120° | 128km/h | 13631m | -6.9m/s | -67.3°C | 33.0% | 161.0hPa | 2.5V | 00:00:00 | 00:00:00 | 00:00:00 | |
| DL1XH1-15 | 2026-09-06 01:10:59 | 50.81094 | 8.52232 | 110° | 137km/h | 13674m | -5m/s | -67.3°C | 41.9% | 159.9hPa | 2.5V | 08:01:45 | 02:52:57 | 00:00:00 | |
| DO3MHA-11 | 2026-09-06 01:10:58 | 50.81036 | 8.52437 | 118° | 130km/h | 13650m | -6.0m/s | -67.2°C | 42.5% | 160.5hPa | 2.5V | 00:00:00 | 02:53:01 | 00:00:00 | |
| DL1XH-15 | 2026-09-06 01:10:57 | 50.81105 | 8.52182 | 109° | 130km/h | 13679m | -6.4m/s | -67.3°C | 41.3% | 159.8hPa | 2.5V | 08:01:46 | 02:52:56 | 00:00:00 | |
| DM0DOS-11 | 2026-09-06 01:10:57 | 50.81116 | 8.52133 | 108° | 126km/h | 13685m | -5.1m/s | -67.4°C | 40.9% | 159.6hPa | 2.4V | 08:01:47 | 02:52:55 | 00:00:00 | |
| BIOWL1-15 | 2026-09-06 01:10:54 | 50.81094 | 8.52232 | 110° | 137km/h | 13674m | -5m/s | -67.3°C | 35.5% | 159.9hPa | 2.5V | 08:02:09 | 02:52:57 | 00:00:00 | |
| HSKMA3-T | 2026-09-06 01:10:53 | 50.81105 | 8.52182 | 109° | 130km/h | 13679m | -6.4m/s | -67.3°C | 35.1% | 159.8hPa | 2.5V | 08:02:09 | 02:52:56 | 00:00:00 | |
| DL1XH-west | 2026-09-06 01:10:51 | 50.81126 | 8.52087 | 109° | 119km/h | 13690m | -5.3m/s | -67.4°C | 34.2% | 159.5hPa | 2.4V | 08:02:09 | 02:52:54 | 00:00:00 | |
| BUE01 | 2026-09-06 01:10:49 | 50.81157 | 8.51961 | 114° | 110km/h | 13709m | -6.6m/s | -67.2°C | 29.0% | 159.0hPa | 2.5V | 00:00:00 | 00:00:00 | 00:00:00 | |
| DO9LL-15 | 2026-09-06 01:10:48 | 50.81157 | 8.51960 | 115° | 117km/h | 13709m | -6.6m/s | -67.1°C | 38.6% | 159.0hPa | 2.5V | 00:00:00 | 02:52:51 | 00:00:00 | |
| DL1XH-15 | 2026-09-06 01:10:47 | 50.81229 | 8.51766 | 125° | 120km/h | 13740m | -5.5m/s | -66.6°C | 35.5% | 158.1hPa | 2.5V | 08:01:56 | 02:52:46 | 00:00:00 | |
| DM0DOS-11 | 2026-09-06 01:10:47 | 50.81247 | 8.51726 | 125° | 126km/h | 13746m | -6m/s | -66.3°C | 34.6% | 158hPa | 2.5V | 08:01:57 | 02:52:45 | 00:00:00 | |
| DL1ZP-14 | 2026-09-06 01:10:46 | 50.81197 | 8.51844 | 121° | 113km/h | 13728m | -6.8m/s | -66.9°C | 27.4% | 158.5hPa | 2.4V | 00:00:00 | 00:00:00 | 00:00:00 | |
| DL1XH1-15 | 2026-09-06 01:10:45 | 50.81212 | 8.51805 | 123° | 115km/h | 13735m | -5.8m/s | -66.9°C | 36.4% | 158.3hPa | 2.4V | 08:01:55 | 02:52:47 | 00:00:00 | |
| HSKMA3-T | 2026-09-06 01:10:43 | 50.81229 | 8.51766 | 125° | 120km/h | 13740m | -5.5m/s | -66.6°C | 30.7% | 158.1hPa | 2.5V | 08:02:09 | 02:52:46 | 00:00:00 | |
| DL1XH-west | 2026-09-06 01:10:41 | 50.81265 | 8.51685 | 125° | 130km/h | 13752m | -5.3m/s | -66.1°C | 29.9% | 157.9hPa | 2.4V | 08:02:09 | 02:52:44 | 00:00:00 | |
| DJ2KF-10 | 2026-09-06 01:10:41 | 50.81265 | 8.51685 | 126° | 119km/h | 13752m | -5.2m/s | -66.0°C | 33.9% | 157.8hPa | 2.4V | 00:00:00 | 02:52:44 | 00:00:00 | |
| AU51GT2 | 2026-09-06 01:10:40 | 50.81302 | 8.51596 | 121° | 135km/h | 13763m | -5.3m/s | -65.9°C | 24.0% | 157.6hPa | 2.4V | 00:00:00 | 00:00:00 | 00:00:00 | |
| DL1NUX | 2026-09-06 01:10:38 | 50.81384 | 8.51320 | 112° | 113km/h | 13796m | -6.4m/s | -66°C | 31% | 156.7hPa | 2.4V | 08:02:06 | 02:52:36 | 00:00:00 | |
| DO3MHA-11 | 2026-09-06 01:10:38 | 50.81319 | 8.51549 | 119° | 117km/h | 13768m | -5.1m/s | -65.9°C | 32.0% | 157.4hPa | 2.4V | 00:00:00 | 02:52:41 | 00:00:00 | |
| DD8BA-10 | 2026-09-06 01:10:37 | 50.81335 | 8.51501 | 116° | 113km/h | 13774m | -5.6m/s | -65.9°C | 31.6% | 157.3hPa | 2.4V | 00:00:00 | 00:00:00 | 00:00:00 | |
| DM0DOS-11 | 2026-09-06 01:10:35 | 50.81395 | 8.51278 | 113° | 110km/h | 13802m | -5.9m/s | -66°C | 30.5% | 156.6hPa | 2.4V | 08:02:07 | 02:52:35 | 00:00:00 | |
| DL1XH1-15 | 2026-09-06 01:10:34 | 50.81373 | 8.51363 | 111° | 119km/h | 13790m | -5.5m/s | -66.1°C | 31% | 156.9hPa | 2.4V | 08:02:05 | 02:52:37 | 00:00:00 | |
| BIOWL1-15 | 2026-09-06 01:10:33 | 50.81384 | 8.51319 | 112° | 113km/h | 13796m | -6.4m/s | -66.1°C | 27.4% | 156.7hPa | 2.4V | 08:02:09 | 02:52:36 | 00:00:00 | |
| DO3MHA-12 | 2026-09-06 01:10:33 | 50.81384 | 8.51319 | 113° | 104km/h | 13796m | -6.3m/s | -66.0°C | 31.0% | 156.7hPa | 2.4V | 00:00:00 | 02:52:36 | 00:00:00 | |
| DJ2DS-15 | 2026-09-06 01:10:32 | 50.81395 | 8.51278 | 114° | 115km/h | 13803m | -5.8m/s | -65.9°C | 30.5% | 156.5hPa | 2.4V | 00:00:00 | 02:52:35 | 00:00:00 | |
| DL1XH-15 | 2026-09-06 01:10:31 | 50.81430 | 8.51167 | 119° | 99km/h | 13821m | -7m/s | -65.7°C | 28.3% | 156.1hPa | 2.4V | 08:02:10 | 02:52:32 | 00:00:00 | |
| DL1XH-west | 2026-09-06 01:10:31 | 50.81406 | 8.51239 | 115° | 104km/h | 13808m | -6.5m/s | -65.9°C | 26.7% | 156.4hPa | 2.5V | 08:02:09 | 02:52:34 | 00:00:00 | |
| SONCRA | 2026-09-06 01:10:31 | 50.81418 | 8.51203 | 116° | 100km/h | 13815m | -5.8m/s | -65.8°C | 21.1% | 156.2hPa | 2.4V | 00:00:00 | 00:00:00 | 00:00:00 | |
| DL1NUX | 2026-09-06 01:10:28 | 50.81522 | 8.50971 | 129° | 113km/h | 13860m | -5.6m/s | -65.7°C | 27.6% | 155hPa | 2.4V | 08:02:16 | 02:52:26 | 00:00:00 | |
| DO3MHA-11 | 2026-09-06 01:10:28 | 50.81442 | 8.51134 | 123° | 111km/h | 13828m | -6.2m/s | -65.6°C | 27.8% | 155.8hPa | 2.5V | 00:00:00 | 02:52:31 | 00:00:00 | |
| DD8BA-10 | 2026-09-06 01:10:27 | 50.81456 | 8.51101 | 125° | 115km/h | 13835m | -6.5m/s | -65.6°C | 27.5% | 155.7hPa | 2.5V | 00:00:00 | 00:00:00 | 00:00:00 | |
| EDDB2-12 | 2026-09-06 01:10:26 | 50.81487 | 8.51037 | 129° | 102km/h | 13847m | -6.4m/s | -65.7°C | 19.9% | 155.4hPa | 2.5V | 00:00:00 | 00:00:00 | 00:00:00 | |
| DL3AQ-11 | 2026-09-06 01:10:25 | 50.81504 | 8.51005 | 129° | 108km/h | 13854m | -7.0m/s | -65.7°C | 19.9% | 155.2hPa | 2.5V | 00:00:00 | 00:00:00 | 00:00:00 | |
| DL1XH-15 | 2026-09-06 01:10:24 | 50.81596 | 8.50813 | 122° | 130km/h | 13883m | -5.6m/s | -65.6°C | 26.2% | 154.5hPa | 2.5V | 08:02:20 | 02:52:22 | 00:00:00 | |
| DL1XH1-15 | 2026-09-06 01:10:24 | 50.81504 | 8.51005 | 129° | 108km/h | 13854m | -7m/s | -65.7°C | 27.5% | 155.2hPa | 2.5V | 08:02:15 | 02:52:27 | 00:00:00 | |
| DM0DOS-11 | 2026-09-06 01:10:23 | 50.81540 | 8.50935 | 129° | 119km/h | 13866m | -5.2m/s | -65.6°C | 27.3% | 154.9hPa | 2.4V | 08:02:17 | 02:52:25 | 00:00:00 | |
| HSKMA3-T | 2026-09-06 01:10:23 | 50.81521 | 8.50971 | 130° | 113km/h | 13860m | -5.6m/s | -65.7°C | 24.7% | 155.1hPa | 2.4V | 08:03:00 | 02:52:26 | 00:00:00 | |
| BIOWL1-15 | 2026-09-06 01:10:22 | 50.81540 | 8.50935 | 129° | 119km/h | 13866m | -5.3m/s | -65.6°C | 24.5% | 154.9hPa | 2.4V | 08:03:00 | 02:52:25 | 00:00:00 | |
| DL1XH-west | 2026-09-06 01:10:21 | 50.81559 | 8.50897 | 127° | 124km/h | 13872m | -6.4m/s | -65.6°C | 24.3% | 154.8hPa | 2.4V | 08:03:00 | 02:52:24 | 00:00:00 | |
| BIOWL9-15 | 2026-09-06 01:10:21 | 50.81578 | 8.50856 | 124° | 126km/h | 13878m | -5.3m/s | -65.6°C | 19.1% | 154.6hPa | 2.5V | 00:00:00 | 00:00:00 | 00:00:00 | |
| NBG1-10 | 2026-09-06 01:10:20 | 50.81577 | 8.50856 | 125° | 115km/h | 13878m | -5.2m/s | -65.5°C | 26.6% | 154.6hPa | 2.5V | 00:00:00 | 02:52:23 | 00:00:00 | |
| DO3DL | 2026-09-06 01:10:19 | 50.81578 | 8.50856 | 126° | 128km/h | 13878m | -5.3m/s | -65.6°C | 19.1% | 154.6hPa | 2.5V | 08:03:00 | 00:00:00 | 00:00:00 | |
| DL1NUX | 2026-09-06 01:10:18 | 50.81682 | 8.50546 | 112° | 115km/h | 13923m | -7.3m/s | -65.6°C | 24.7% | 153.5hPa | 2.5V | 08:02:26 | 02:52:16 | 00:00:00 | |
| DL8OAI-8 | 2026-09-06 01:10:18 | 50.81613 | 8.50769 | 121° | 130km/h | 13889m | -6.5m/s | -65.5°C | 18.4% | 154.3hPa | 2.4V | 08:03:00 | 00:00:00 | 00:00:00 | |
| DD8BA-10 | 2026-09-06 01:10:17 | 50.81629 | 8.50724 | 119° | 111km/h | 13896m | -6.7m/s | -65.4°C | 25.2% | 154.2hPa | 2.4V | 00:00:00 | 00:00:00 | 00:00:00 | |
| SO1NDE-10 | 2026-09-06 01:10:16 | 50.81643 | 8.50679 | 117° | 111km/h | 13903m | -7.0m/s | -65.4°C | 25.0% | 154.0hPa | 2.5V | 00:00:00 | 02:52:19 | 00:00:00 | |
| DJ8HS-15 | 2026-09-06 01:10:15 | 50.81657 | 8.50634 | 116° | 115km/h | 13910m | -6.1m/s | -65.5°C | 24.9% | 153.8hPa | 2.5V | 00:00:00 | 02:52:18 | 00:00:00 | |
| DM0DOS-11 | 2026-09-06 01:10:13 | 50.81693 | 8.50504 | 111° | 111km/h | 13930m | -5.9m/s | -65.6°C | 24.6% | 153.3hPa | 2.5V | 08:02:27 | 02:52:15 | 00:00:00 | |
| BIOWL1-15 | 2026-09-06 01:10:13 | 50.81703 | 8.50464 | 112° | 106km/h | 13935m | -5.8m/s | -65.5°C | 21.8% | 153.1hPa | 2.4V | 08:03:00 | 02:52:14 | 00:00:00 | |
| HSKMA3-T | 2026-09-06 01:10:12 | 50.81693 | 8.50505 | 112° | 111km/h | 13930m | -5.9m/s | -65.6°C | 22% | 153.3hPa | 2.5V | 08:03:00 | 02:52:15 | 00:00:00 | |
| DL1XH-15 | 2026-09-06 01:10:11 | 50.81723 | 8.50390 | 114° | 97km/h | 13948m | -6m/s | -65.4°C | 24% | 152.8hPa | 2.4V | 08:02:30 | 02:52:12 | 00:00:00 | |
| DL1XH-west | 2026-09-06 01:10:10 | 50.81713 | 8.50426 | 113° | 100km/h | 13942m | -6.7m/s | -65.4°C | 21.6% | 153hPa | 2.4V | 08:03:00 | 02:52:13 | 00:00:00 | |
| DL1XH1-15 | 2026-09-06 01:10:09 | 50.81791 | 8.50221 | 127° | 111km/h | 13978m | -5.7m/s | -65.6°C | 23.3% | 152.1hPa | 2.4V | 08:02:35 | 02:52:07 | 00:00:00 | |
| DC4HF-4 | 2026-09-06 01:10:09 | 50.81733 | 8.50355 | 117° | 95km/h | 13954m | -5.6m/s | -65.5°C | 16.7% | 152.7hPa | 2.5V | 00:00:00 | 00:00:00 | 00:00:00 | |
| DO3MHA-11 | 2026-09-06 01:10:08 | 50.81733 | 8.50355 | 118° | 115km/h | 13954m | -5.5m/s | -65.4°C | 23.9% | 152.6hPa | 2.5V | 00:00:00 | 02:52:11 | 00:00:00 | |
| DD8BA-10 | 2026-09-06 01:10:07 | 50.81745 | 8.50322 | 122° | 119km/h | 13960m | -6.2m/s | -65.5°C | 23.8% | 152.5hPa | 2.4V | 00:00:00 | 00:00:00 | 00:00:00 | |
| DO3DL | 2026-09-06 01:10:06 | 50.81759 | 8.50289 | 126° | 100km/h | 13966m | -5.6m/s | -65.5°C | 16.3% | 152.4hPa | 2.4V | 08:03:00 | 00:00:00 | 00:00:00 | |
| DL1XH-15 | 2026-09-06 01:10:04 | 50.81877 | 8.50014 | 117° | 131km/h | 14009m | -6.8m/s | -65.3°C | 22% | 151.3hPa | 2.4V | 08:02:40 | 02:52:02 | 00:00:00 | |
| DM0DOS-11 | 2026-09-06 01:10:02 | 50.81826 | 8.50145 | 124° | 124km/h | 13990m | -6.8m/s | -65.6°C | 22.9% | 151.8hPa | 2.5V | 08:02:37 | 02:52:05 | 00:00:00 | |
| HSKMA3-T | 2026-09-06 01:10:02 | 50.81826 | 8.50145 | 125° | 124km/h | 13990m | -6.9m/s | -65.6°C | 19.6% | 151.8hPa | 2.5V | 08:03:00 | 02:52:05 | 00:00:00 | |
| BIOWL1-15 | 2026-09-06 01:10:02 | 50.81861 | 8.50059 | 120° | 131km/h | 14002m | -6m/s | -65.3°C | 19.1% | 151.5hPa | 2.4V | 08:03:00 | 02:52:03 | 00:00:00 | |
| DL1XH-west | 2026-09-06 01:09:59 | 50.81877 | 8.50014 | 118° | 131km/h | 14009m | -6.8m/s | -65.3°C | 18.8% | 151.4hPa | 2.4V | 08:03:00 | 02:52:02 | 00:00:00 | |
| DL1NUX | 2026-09-06 01:09:58 | 50.81947 | 8.49744 | 110° | 108km/h | 14044m | -5.6m/s | -65.4°C | 21% | 150.5hPa | 2.4V | 08:02:46 | 02:51:56 | 00:00:00 | |
| HSKMA3-T | 2026-09-06 01:09:52 | 50.81956 | 8.49704 | 112° | 102km/h | 14050m | -6.1m/s | -65.4°C | 17% | 150.3hPa | 2.4V | 08:03:00 | 02:51:55 | 00:00:00 | |
| BIOWL1-15 | 2026-09-06 01:09:50 | 50.81976 | 8.49631 | 116° | 97km/h | 14062m | -5.7m/s | -65.1°C | 16.5% | 150hPa | 2.5V | 08:03:00 | 02:51:53 | 00:00:00 | |
| DL1XH1-15 | 2026-09-06 01:09:49 | 50.82059 | 8.49433 | 128° | 110km/h | 14099m | -6.3m/s | -64.6°C | 17.3% | 149.1hPa | 2.5V | 08:02:55 | 02:51:47 | 00:00:00 | |
| DL1XH-west | 2026-09-06 01:09:48 | 50.82000 | 8.49564 | 121° | 97km/h | 14074m | -6.5m/s | -64.8°C | 15.9% | 149.8hPa | 2.4V | 08:03:00 | 02:51:51 | 00:00:00 | |
| AA1-15 | 2026-09-06 01:09:45 | 50.82043 | 8.49466 | 128° | 104km/h | 14093m | -6.2m/s | -64.6°C | 15.2% | 149.3hPa | 2.4V | 08:03:00 | 02:51:48 | 00:00:00 | |
| DL3AQ-11 | 2026-09-06 01:09:45 | 50.82060 | 8.49433 | 128° | 108km/h | 14099m | -6.4m/s | -64.6°C | 11.3% | 149.1hPa | 2.5V | 00:00:00 | 00:00:00 | 00:00:00 | |
| DL1XH-15 | 2026-09-06 01:09:44 | 50.82153 | 8.49246 | 125° | 130km/h | 14131m | -6.1m/s | -64.4°C | 16.6% | 148.3hPa | 2.5V | 08:03:00 | 02:51:42 | 00:00:00 | |
| HSKMA3-T | 2026-09-06 01:09:41 | 50.82115 | 8.49326 | 129° | 122km/h | 14118m | -6.3m/s | -64.6°C | 14.3% | 148.6hPa | 2.4V | 08:03:00 | 02:51:44 | 00:00:00 | |
| DJ2KF-10 | 2026-09-06 01:09:41 | 50.82115 | 8.49325 | 129° | 120km/h | 14118m | -6.3m/s | -64.5°C | 17.0% | 148.6hPa | 2.4V | 00:00:00 | 02:51:44 | 00:00:00 | |
| DO3DL | 2026-09-06 01:09:40 | 50.82115 | 8.49325 | 130° | 122km/h | 14118m | -6.3m/s | -64.5°C | 11.0% | 148.6hPa | 2.4V | 08:03:00 | 00:00:00 | 00:00:00 | |
| DL1XH1-15 | 2026-09-06 01:09:39 | 50.82236 | 8.49024 | 115° | 122km/h | 14161m | -6.3m/s | -64.4°C | 15.8% | 147.6hPa | 2.4V | 08:03:05 | 02:51:37 | 00:00:00 | |
| BIOWL1-15 | 2026-09-06 01:09:39 | 50.82153 | 8.49246 | 126° | 130km/h | 14131m | -6.1m/s | -64.4°C | 13.9% | 148.3hPa | 2.5V | 08:03:00 | 02:51:42 | 00:00:00 | |
| AU51GT2 | 2026-09-06 01:09:38 | 50.82190 | 8.49159 | 121° | 131km/h | 14143m | -5.9m/s | -64.4°C | 10.5% | 148.0hPa | 2.4V | 00:00:00 | 00:00:00 | 00:00:00 | |
| DM0DOS-11 | 2026-09-06 01:09:37 | 50.82273 | 8.48902 | 117° | 104km/h | 14178m | -5.7m/s | -64.4°C | 15.5% | 147.2hPa | 2.4V | 08:03:08 | 02:51:34 | 00:00:00 | |
| DL1XH-west | 2026-09-06 01:09:37 | 50.82190 | 8.49159 | 121° | 131km/h | 14143m | -5.9m/s | -64.4°C | 13.6% | 148hPa | 2.4V | 08:03:51 | 02:51:40 | 00:00:00 | |
| AA1-15 | 2026-09-06 01:09:34 | 50.82236 | 8.49024 | 116° | 122km/h | 14161m | -6.3m/s | -64.4°C | 13% | 147.6hPa | 2.4V | 08:03:51 | 02:51:37 | 00:00:00 | |
| HSKMA3-T | 2026-09-06 01:09:30 | 50.82285 | 8.48866 | 120° | 100km/h | 14184m | -5.6m/s | -64.4°C | 12.3% | 147.1hPa | 2.4V | 08:03:51 | 02:51:33 | 00:00:00 | |
| DL1XH1-15 | 2026-09-06 01:09:29 | 50.82381 | 8.48672 | 132° | 113km/h | 14220m | -6.5m/s | -64.3°C | 14.8% | 146.1hPa | 2.4V | 08:03:15 | 02:51:27 | 00:00:00 | |
| SONCRA | 2026-09-06 01:09:29 | 50.82313 | 8.48800 | 125° | 99km/h | 14196m | -5.9m/s | -64.4°C | 9.3% | 146.8hPa | 2.4V | 00:00:00 | 00:00:00 | 00:00:00 | |
| DL1NUX | 2026-09-06 01:09:28 | 50.82401 | 8.48637 | 132° | 119km/h | 14227m | -6m/s | -64.3°C | 14.7% | 146hPa | 2.4V | 08:03:16 | 02:51:26 | 00:00:00 | |
| BIOWL1-15 | 2026-09-06 01:09:28 | 50.82313 | 8.48800 | 126° | 99km/h | 14196m | -5.9m/s | -64.4°C | 11.9% | 146.8hPa | 2.4V | 08:03:51 | 02:51:31 | 00:00:00 | |
| DL1XH-west | 2026-09-06 01:09:27 | 50.82328 | 8.48768 | 128° | 100km/h | 14202m | -6.2m/s | -64.4°C | 11.9% | 146.6hPa | 2.5V | 08:03:51 | 02:51:30 | 00:00:00 | |
| AA1-15 | 2026-09-06 01:09:23 | 50.82401 | 8.48637 | 132° | 119km/h | 14227m | -6m/s | -64.3°C | 11.2% | 146hPa | 2.4V | 08:03:51 | 02:51:26 | 00:00:00 | |
| DM0DOS-11 | 2026-09-06 01:09:21 | 50.82443 | 8.48562 | 129° | 130km/h | 14238m | -6.2m/s | -64.1°C | 14.5% | 145.7hPa | 2.5V | 08:03:18 | 02:51:24 | 00:00:00 | |
| HSKMA3-T | 2026-09-06 01:09:20 | 50.82463 | 8.48521 | 127° | 133km/h | 14244m | -5.7m/s | -64°C | 10.8% | 145.6hPa | 2.5V | 08:03:51 | 02:51:23 | 00:00:00 | |
| DL1NUX | 2026-09-06 01:09:18 | 50.82582 | 8.48210 | 115° | 120km/h | 14288m | -6m/s | -63.8°C | 13.4% | 144.5hPa | 2.4V | 08:03:26 | 02:51:16 | 00:00:00 | |
| BIOWL1-15 | 2026-09-06 01:09:18 | 50.82503 | 8.48433 | 124° | 135km/h | 14257m | -5.7m/s | -64°C | 10.6% | 145.3hPa | 2.4V | 08:03:51 | 02:51:21 | 00:00:00 | |
| DO9LL-15 | 2026-09-06 01:09:18 | 50.82503 | 8.48433 | 124° | 115km/h | 14257m | -5.7m/s | -63.9°C | 14.0% | 145.2hPa | 2.4V | 00:00:00 | 02:51:21 | 00:00:00 | |
| DL1XH-15 | 2026-09-06 01:09:17 | 50.82553 | 8.48298 | 117° | 128km/h | 14275m | -7m/s | -63.9°C | 13.6% | 144.8hPa | 2.5V | 08:03:24 | 02:51:18 | 00:00:00 | |
| DM0DOS-11 | 2026-09-06 01:09:16 | 50.82607 | 8.48126 | 114° | 111km/h | 14301m | -7.5m/s | -63.5°C | 12.8% | 144.2hPa | 2.4V | 08:03:28 | 02:51:14 | 00:00:00 | |
| DL1XH-west | 2026-09-06 01:09:16 | 50.82538 | 8.48343 | 119° | 131km/h | 14268m | -6.3m/s | -64°C | 10.5% | 145hPa | 2.5V | 08:03:51 | 02:51:19 | 00:00:00 | |
| AA1-15 | 2026-09-06 01:09:12 | 50.82594 | 8.48167 | 115° | 115km/h | 14294m | -6.9m/s | -63.7°C | 10% | 144.4hPa | 2.4V | 08:03:51 | 02:51:15 | 00:00:00 | |
| HSKMA3-T | 2026-09-06 01:09:10 | 50.82618 | 8.48087 | 115° | 108km/h | 14309m | -7m/s | -63.5°C | 9.7% | 144hPa | 2.5V | 08:03:51 | 02:51:13 | 00:00:00 | |
| DJ2DS-15 | 2026-09-06 01:09:10 | 50.82618 | 8.48087 | 116° | 111km/h | 14309m | -7.0m/s | -63.4°C | 12.7% | 144.0hPa | 2.5V | 00:00:00 | 02:51:13 | 00:00:00 | |
| DL1XH1-15 | 2026-09-06 01:09:09 | 50.82697 | 8.47884 | 129° | 100km/h | 14347m | -6.2m/s | -63.6°C | 12.8% | 143.2hPa | 2.5V | 08:03:35 | 02:51:07 | 00:00:00 | |
| BIOWL1-15 | 2026-09-06 01:09:09 | 50.82654 | 8.47979 | 121° | 97km/h | 14328m | -6.1m/s | -63.6°C | 9.5% | 143.6hPa | 2.4V | 08:03:51 | 02:51:10 | 00:00:00 | |
| DO3MHA-11 | 2026-09-06 01:09:08 | 50.82642 | 8.48013 | 119° | 108km/h | 14322m | -6.4m/s | -63.5°C | 12.7% | 143.7hPa | 2.4V | 00:00:00 | 02:51:11 | 00:00:00 | |
| DD8BA-10 | 2026-09-06 01:09:07 | 50.82654 | 8.47979 | 121° | 110km/h | 14328m | -6.1m/s | -63.5°C | 12.7% | 143.5hPa | 2.4V | 00:00:00 | 00:00:00 | 00:00:00 | |
| AU51GT2 | 2026-09-06 01:09:06 | 50.82667 | 8.47946 | 124° | 95km/h | 14335m | -7.2m/s | -63.6°C | 7.5% | 143.4hPa | 2.4V | 00:00:00 | 00:00:00 | 00:00:00 | |
| DM0DOS-11 | 2026-09-06 01:09:05 | 50.82751 | 8.47785 | 130° | 119km/h | 14366m | -6.1m/s | -63.7°C | 12.8% | 142.7hPa | 2.4V | 08:03:38 | 02:51:04 | 00:00:00 | |
| DL1XH-west | 2026-09-06 01:09:05 | 50.82681 | 8.47915 | 127° | 97km/h | 14341m | -5.8m/s | -63.6°C | 9.4% | 143.2hPa | 2.4V | 08:03:51 | 02:51:08 | 00:00:00 | |
| AA1-15 | 2026-09-06 01:09:01 | 50.82751 | 8.47785 | 130° | 119km/h | 14366m | -6.1m/s | -63.7°C | 8.9% | 142.7hPa | 2.4V | 08:03:51 | 02:51:04 | 00:00:00 | |
| HSKMA3-T | 2026-09-06 01:08:59 | 50.82790 | 8.47709 | 127° | 126km/h | 14379m | -6.4m/s | -63.4°C | 8.6% | 142.4hPa | 2.4V | 08:03:51 | 02:51:02 | 00:00:00 | |
| DO3MHA-11 | 2026-09-06 01:08:58 | 50.82808 | 8.47668 | 124° | 115km/h | 14386m | -7.4m/s | -63.1°C | 12.0% | 142.2hPa | 2.4V | 00:00:00 | 02:51:01 | 00:00:00 | |
| DL1XH-15 | 2026-09-06 01:08:57 | 50.82856 | 8.47536 | 115° | 122km/h | 14405m | -6.6m/s | -62.9°C | 11.4% | 141.8hPa | 2.4V | 08:03:44 | 02:50:58 | 00:00:00 | |
| BIOWL1-15 | 2026-09-06 01:08:57 | 50.82826 | 8.47625 | 122° | 128km/h | 14393m | -5.9m/s | -63°C | 8.2% | 142.1hPa | 2.5V | 08:03:51 | 02:51:00 | 00:00:00 | |
| DL3OBA | 2026-09-06 01:08:56 | 50.82826 | 8.47625 | 123° | 128km/h | 14393m | -5.9m/s | -63.0°C | 6.6% | 142.1hPa | 2.4V | 08:03:00 | 00:00:00 | 00:00:00 | |
| DM0DOS-11 | 2026-09-06 01:08:55 | 50.82901 | 8.47368 | 111° | 104km/h | 14430m | -6.6m/s | -62.6°C | 10.7% | 141.3hPa | 2.4V | 08:03:48 | 02:50:54 | 00:00:00 | |
| DL1XH-west | 2026-09-06 01:08:54 | 50.82869 | 8.47493 | 114° | 119km/h | 14411m | -5.6m/s | -62.8°C | 7.8% | 141.7hPa | 2.4V | 08:03:51 | 02:50:57 | 00:00:00 | |
| AA1-15 | 2026-09-06 01:08:50 | 50.82911 | 8.47330 | 113° | 99km/h | 14437m | -7.5m/s | -62.6°C | 7.3% | 141.1hPa | 2.4V | 08:03:51 | 02:50:53 | 00:00:00 | |
| DJ2DS-15 | 2026-09-06 01:08:50 | 50.82911 | 8.47330 | 113° | 104km/h | 14437m | -7.4m/s | -62.6°C | 10.7% | 141.1hPa | 2.4V | 00:00:00 | 02:50:53 | 00:00:00 | |
| DL1XH1-15 | 2026-09-06 01:08:49 | 50.82983 | 8.47141 | 130° | 97km/h | 14474m | -6m/s | -62.3°C | 10.1% | 140.2hPa | 2.4V | 08:03:55 | 02:50:47 | 00:00:00 | |
| BIOWL1-15 | 2026-09-06 01:08:49 | 50.82942 | 8.47230 | 121° | 89km/h | 14456m | -6.8m/s | -62.4°C | 6.8% | 140.6hPa | 2.5V | 08:04:42 | 02:50:50 | 00:00:00 | |
| DL1NUX | 2026-09-06 01:08:48 | 50.83000 | 8.47111 | 131° | 104km/h | 14480m | -5.8m/s | -62.3°C | 10% | 140.1hPa | 2.4V | 08:03:56 | 02:50:46 | 00:00:00 | |
| HSKMA3-T | 2026-09-06 01:08:48 | 50.82931 | 8.47261 | 117° | 91km/h | 14450m | -5.9m/s | -62.5°C | 7% | 140.8hPa | 2.4V | 08:03:51 | 02:50:51 | 00:00:00 | |
| DO3MHA-11 | 2026-09-06 01:08:48 | 50.82931 | 8.47261 | 117° | 102km/h | 14450m | -5.8m/s | -62.4°C | 10.4% | 140.7hPa | 2.4V | 00:00:00 | 02:50:51 | 00:00:00 | |
| DL1XH-15 | 2026-09-06 01:08:47 | 50.82968 | 8.47171 | 128° | 93km/h | 14468m | -6.1m/s | -62.3°C | 10% | 140.3hPa | 2.4V | 08:03:54 | 02:50:48 | 00:00:00 | |
| DB0ND-19 | 2026-09-06 01:08:47 | 50.82954 | 8.47200 | 124° | 89km/h | 14462m | -5.9m/s | -62.3°C | 5.4% | 140.5hPa | 2.4V | 00:00:00 | 00:00:00 | 00:00:00 | |
| DJ2DS-15 | 2026-09-06 01:08:46 | 50.82954 | 8.47200 | 124° | 89km/h | 14462m | -5.9m/s | -62.3°C | 5.4% | 140.5hPa | 2.4V | 00:00:00 | 00:00:00 | 00:00:00 | |
| DL1XH-west | 2026-09-06 01:08:43 | 50.83000 | 8.47111 | 132° | 104km/h | 14480m | -5.8m/s | -62.3°C | 6.5% | 140.1hPa | 2.4V | 08:04:42 | 02:50:46 | 00:00:00 | |
| DL4XJ-10 | 2026-09-06 01:08:43 | 50.83000 | 8.47111 | 132° | 100km/h | 14480m | -5.8m/s | -64.7°C | 0% | 0hPa | 2.4V | 00:00:00 | 00:00:00 | 00:00:00 | |
| DJ2KF-10 | 2026-09-06 01:08:41 | 50.83036 | 8.47045 | 130° | 102km/h | 14493m | -5.9m/s | -62.2°C | 9.9% | 139.8hPa | 2.4V | 00:00:00 | 02:50:44 | 00:00:00 | |
| DD1CC8 | 2026-09-06 01:08:40 | 50.83054 | 8.47009 | 127° | 117km/h | 14498m | -5.6m/s | -62.2°C | 5.2% | 139.7hPa | 2.4V | 00:00:00 | 00:00:00 | 00:00:00 | |
| DL1XH1-15 | 2026-09-06 01:08:39 | 50.83138 | 8.46761 | 110° | 110km/h | 14535m | -6.5m/s | -61.4°C | 8.9% | 138.9hPa | 2.4V | 08:04:05 | 02:50:37 | 00:00:00 | |
| AA1-15 | 2026-09-06 01:08:39 | 50.83072 | 8.46971 | 124° | 120km/h | 14504m | -6.1m/s | -62.1°C | 6.1% | 139.6hPa | 2.4V | 08:05:33 | 02:50:42 | 00:00:00 | |
| BIOWL1-15 | 2026-09-06 01:08:39 | 50.83103 | 8.46887 | 118° | 120km/h | 14516m | -5.8m/s | -62°C | 6% | 139.3hPa | 2.4V | 08:04:42 | 02:50:40 | 00:00:00 | |
| DL1NUX | 2026-09-06 01:08:38 | 50.83147 | 8.46721 | 109° | 104km/h | 14541m | -5.7m/s | -61.2°C | 8.7% | 138.8hPa | 2.4V | 08:04:06 | 02:50:36 | 00:00:00 | |
| HSKMA3-T | 2026-09-06 01:08:38 | 50.83088 | 8.46930 | 121° | 122km/h | 14510m | -6m/s | -62.1°C | 6.1% | 139.4hPa | 2.4V | 08:04:42 | 02:50:41 | 00:00:00 | |
| DO3MHA-11 | 2026-09-06 01:08:38 | 50.83088 | 8.46930 | 121° | 106km/h | 14511m | -5.9m/s | -62.0°C | 9.6% | 139.4hPa | 2.4V | 00:00:00 | 02:50:41 | 00:00:00 | |
| DO1YAY-16 | 2026-09-06 01:08:37 | 50.83103 | 8.46887 | 117° | 120km/h | 14516m | -5.8m/s | -62.0°C | 5.0% | 139.3hPa | 2.4V | 00:00:00 | 00:00:00 | 00:00:00 | |
| DD8BA-10 | 2026-09-06 01:08:36 | 50.83116 | 8.46845 | 115° | 97km/h | 14523m | -6.5m/s | -61.9°C | 9.4% | 139.1hPa | 2.4V | 00:00:00 | 00:00:00 | 00:00:00 | |
| DJ8HS-15 | 2026-09-06 01:08:35 | 50.83128 | 8.46802 | 113° | 95km/h | 14529m | -5.8m/s | -61.6°C | 9.2% | 139.0hPa | 2.4V | 00:00:00 | 02:50:38 | 00:00:00 | |
| SONDE2-11 | 2026-09-06 01:08:34 | 50.83147 | 8.46721 | 109° | 102km/h | 14541m | -5.7m/s | -61.2°C | 4.5% | 138.8hPa | 2.4V | 00:00:00 | 00:00:00 | 00:00:00 | |
| DO3MHA-12 | 2026-09-06 01:08:33 | 50.83147 | 8.46721 | 110° | 88km/h | 14541m | -5.6m/s | -61.1°C | 8.7% | 138.7hPa | 2.4V | 00:00:00 | 02:50:36 | 00:00:00 | |
| DL1XH-west | 2026-09-06 01:08:33 | 50.83147 | 8.46721 | 109° | 104km/h | 14541m | -5.7m/s | -61.2°C | 5.5% | 138.8hPa | 2.4V | 08:04:42 | 02:50:36 | 00:00:00 | |
| BIOWL7-15 | 2026-09-06 01:08:31 | 50.83156 | 8.46683 | 110° | 99km/h | 14547m | -6.5m/s | -61.2°C | 4.5% | 138.6hPa | 2.5V | 00:00:00 | 00:00:00 | 00:00:00 | |
| DJ2DS-15 | 2026-09-06 01:08:30 | 50.83171 | 8.46612 | 111° | 95km/h | 14559m | -6.0m/s | -61.2°C | 8.7% | 138.3hPa | 2.5V | 08:04:00 | 02:50:33 | 00:00:00 | |
| DL1XH1-15 | 2026-09-06 01:08:29 | 50.83233 | 8.46440 | 128° | 84km/h | 14595m | -6.2m/s | -61.4°C | 8.6% | 137.5hPa | 2.5V | 08:04:15 | 02:50:27 | 00:00:00 | |
| DL1NUX | 2026-09-06 01:08:28 | 50.83247 | 8.46414 | 130° | 88km/h | 14601m | -6.9m/s | -61.3°C | 8.6% | 137.4hPa | 2.5V | 08:04:16 | 02:50:26 | 00:00:00 | |
| BIOWL1-15 | 2026-09-06 01:08:28 | 50.83209 | 8.46493 | 123° | 80km/h | 14583m | -5.8m/s | -61.3°C | 5.2% | 137.8hPa | 2.4V | 08:04:42 | 02:50:29 | 00:00:00 | |
| DL1XH-15 | 2026-09-06 01:08:27 | 50.83209 | 8.46494 | 122° | 80km/h | 14583m | -5.8m/s | -61.3°C | 8.6% | 137.8hPa | 2.4V | 08:04:13 | 02:50:29 | 00:00:00 | |
| HSKMA3-T | 2026-09-06 01:08:27 | 50.83198 | 8.46521 | 120° | 80km/h | 14577m | -6.4m/s | -61.3°C | 5.2% | 137.9hPa | 2.4V | 08:04:42 | 02:50:30 | 00:00:00 | |
| DD8BA-10 | 2026-09-06 01:08:26 | 50.83209 | 8.46493 | 123° | 91km/h | 14583m | -5.7m/s | -61.3°C | 8.6% | 137.8hPa | 2.4V | 00:00:00 | 00:00:00 | 00:00:00 | |
| DM0DOS-11 | 2026-09-06 01:08:25 | 50.83293 | 8.46329 | 129° | 100km/h | 14621m | -6.1m/s | -61.3°C | 8.6% | 137hPa | 2.4V | 08:04:19 | 02:50:23 | 00:00:00 | |
| DL1XH-west | 2026-09-06 01:08:22 | 50.83261 | 8.46387 | 131° | 91km/h | 14608m | -6.5m/s | -61.3°C | 5.1% | 137.2hPa | 2.4V | 08:04:42 | 02:50:25 | 00:00:00 | |
| EDDB2-12 | 2026-09-06 01:08:21 | 50.83277 | 8.46359 | 130° | 95km/h | 14615m | -7.1m/s | -61.3°C | 4.3% | 137.1hPa | 2.4V | 00:00:00 | 00:00:00 | 00:00:00 | |
| DO3DL | 2026-09-06 01:08:20 | 50.83277 | 8.46359 | 132° | 95km/h | 14615m | -7.1m/s | -61.3°C | 4.3% | 137.1hPa | 2.4V | 08:04:00 | 00:00:00 | 00:00:00 | |
| DL1XH1-15 | 2026-09-06 01:08:19 | 50.83379 | 8.46108 | 112° | 108km/h | 14655m | -6.2m/s | -61.4°C | 8.6% | 136.2hPa | 2.4V | 08:04:25 | 02:50:17 | 00:00:00 | |
| DL1NUX | 2026-09-06 01:08:18 | 50.83389 | 8.46069 | 110° | 104km/h | 14662m | -6.7m/s | -61.2°C | 8.5% | 136.1hPa | 2.5V | 08:04:26 | 02:50:16 | 00:00:00 | |
| DL1XH-15 | 2026-09-06 01:08:17 | 50.83355 | 8.46187 | 118° | 113km/h | 14644m | -5.6m/s | -61.4°C | 8.6% | 136.4hPa | 2.4V | 08:04:23 | 02:50:19 | 00:00:00 | |
| HSKMA3-T | 2026-09-06 01:08:16 | 50.83355 | 8.46187 | 119° | 113km/h | 14644m | -5.6m/s | -61.4°C | 5% | 136.4hPa | 2.4V | 08:04:42 | 02:50:19 | 00:00:00 | |
| SO1NDE-10 | 2026-09-06 01:08:16 | 50.83355 | 8.46187 | 119° | 91km/h | 14644m | -5.5m/s | -61.4°C | 8.6% | 136.4hPa | 2.4V | 00:00:00 | 02:50:19 | 00:00:00 | |
| DM0DOS-11 | 2026-09-06 01:08:15 | 50.83414 | 8.45961 | 110° | 88km/h | 14681m | -6.1m/s | -61°C | 8.2% | 135.6hPa | 2.4V | 08:04:29 | 02:50:13 | 00:00:00 | |
| BIOWL1-15 | 2026-09-06 01:08:15 | 50.83379 | 8.46108 | 113° | 108km/h | 14655m | -6.2m/s | -61.4°C | 4.9% | 136.2hPa | 2.4V | 08:04:42 | 02:50:17 | 00:00:00 | |
| DL1XH-west | 2026-09-06 01:08:12 | 50.83398 | 8.46031 | 110° | 99km/h | 14669m | -6.6m/s | -61°C | 4.9% | 135.9hPa | 2.5V | 08:04:42 | 02:50:15 | 00:00:00 | |
| DJ2KF-10 | 2026-09-06 01:08:11 | 50.83406 | 8.45995 | 110° | 86km/h | 14675m | -6.2m/s | -60.9°C | 8.3% | 135.7hPa | 2.4V | 00:00:00 | 02:50:14 | 00:00:00 | |
| DJ2DS-15 | 2026-09-06 01:08:10 | 50.83414 | 8.45961 | 111° | 91km/h | 14681m | -6.1m/s | -60.9°C | 8.2% | 135.6hPa | 2.4V | 00:00:00 | 02:50:13 | 00:00:00 | |
| DL1XH1-15 | 2026-09-06 01:08:09 | 50.83472 | 8.45802 | 131° | 78km/h | 14718m | -6.4m/s | -60.5°C | 7.7% | 134.8hPa | 2.4V | 08:04:35 | 02:50:07 | 00:00:00 | |
| DD1CC8 | 2026-09-06 01:08:09 | 50.83421 | 8.45929 | 111° | 80km/h | 14687m | -5.6m/s | -60.9°C | 4.0% | 135.5hPa | 2.4V | 00:00:00 | 00:00:00 | 00:00:00 | |
| DL1NUX | 2026-09-06 01:08:08 | 50.83486 | 8.45779 | 133° | 82km/h | 14725m | -6.9m/s | -60.4°C | 7.6% | 134.6hPa | 2.4V | 08:04:36 | 02:50:06 | 00:00:00 | |
| HSKMA3-T | 2026-09-06 01:08:06 | 50.83448 | 8.45849 | 125° | 73km/h | 14705m | -6.1m/s | -60.6°C | 4.5% | 135.1hPa | 2.5V | 08:04:42 | 02:50:09 | 00:00:00 | |
| BIOWL1-15 | 2026-09-06 01:08:04 | 50.83472 | 8.45802 | 132° | 78km/h | 14718m | -6.4m/s | -60.5°C | 4.4% | 134.8hPa | 2.4V | 08:04:42 | 02:50:07 | 00:00:00 | |
| DL1XH-west | 2026-09-06 01:08:02 | 50.83501 | 8.45755 | 135° | 86km/h | 14731m | -6.5m/s | -60.4°C | 4.3% | 134.5hPa | 2.5V | 08:04:42 | 02:50:05 | 00:00:00 | |
| HARRO8 | 2026-09-06 01:07:59 | 50.83550 | 8.45674 | 132° | 100km/h | 14751m | -5.9m/s | -60.4°C | 3.6% | 134.1hPa | 2.4V | 00:00:00 | 00:00:00 | 00:00:00 | |
| DL1XH1-15 | 2026-09-06 01:07:59 | 50.83627 | 8.45503 | 117° | 104km/h | 14781m | -5.7m/s | -60.4°C | 7.4% | 133.5hPa | 2.4V | 08:04:45 | 02:49:57 | 00:00:00 | |
| DL1NUX | 2026-09-06 01:07:58 | 50.83639 | 8.45466 | 115° | 99km/h | 14787m | -5.9m/s | -60.4°C | 7.3% | 133.3hPa | 2.4V | 08:04:46 | 02:49:56 | 00:00:00 | |
| DL3AQ-11 | 2026-09-06 01:07:58 | 50.83584 | 8.45610 | 127° | 106km/h | 14763m | -6.2m/s | -60.4°C | 3.7% | 133.8hPa | 2.5V | 00:00:00 | 00:00:00 | 00:00:00 | |
| DL1XH-15 | 2026-09-06 01:07:57 | 50.83600 | 8.45575 | 124° | 108km/h | 14769m | -5.9m/s | -60.5°C | 7.6% | 133.7hPa | 2.5V | 08:04:43 | 02:49:59 | 00:00:00 | |
| HSKMA3-T | 2026-09-06 01:07:56 | 50.83600 | 8.45575 | 124° | 108km/h | 14769m | -5.9m/s | -60.5°C | 4.2% | 133.7hPa | 2.5V | 08:05:33 | 02:49:59 | 00:00:00 | |
| DD8BA-10 | 2026-09-06 01:07:56 | 50.83600 | 8.45575 | 125° | 91km/h | 14769m | -5.9m/s | -60.4°C | 7.6% | 133.7hPa | 2.5V | 00:00:00 | 00:00:00 | 00:00:00 | |
| DM0DOS-11 | 2026-09-06 01:07:55 | 50.83667 | 8.45366 | 112° | 84km/h | 14806m | -6.1m/s | -60.4°C | 7.4% | 132.9hPa | 2.5V | 08:04:49 | 02:49:53 | 00:00:00 | |
| BIOWL1-15 | 2026-09-06 01:07:55 | 50.83639 | 8.45466 | 115° | 99km/h | 14787m | -5.9m/s | -60.4°C | 4% | 133.3hPa | 2.4V | 08:05:33 | 02:49:56 | 00:00:00 | |
| DL1XH-west | 2026-09-06 01:07:51 | 50.83658 | 8.45398 | 113° | 89km/h | 14800m | -6.1m/s | -60.5°C | 4.1% | 133.1hPa | 2.4V | 08:05:33 | 02:49:54 | 00:00:00 | |
| AA1-15 | 2026-09-06 01:07:50 | 50.83667 | 8.45366 | 113° | 84km/h | 14806m | -6.1m/s | -60.4°C | 4.1% | 133hPa | 2.5V | 08:05:33 | 02:49:53 | 00:00:00 | |
| DF7PN | 2026-09-06 01:07:50 | 50.83675 | 8.45336 | 113° | 78km/h | 14812m | -6.8m/s | -60.4°C | 3.5% | 132.8hPa | 2.4V | 00:00:00 | 00:00:00 | 00:00:00 | |
| DO2KSM | 2026-09-06 01:07:49 | 50.83667 | 8.45366 | 114° | 84km/h | 14806m | -6.1m/s | -60.4°C | 3.6% | 133.0hPa | 2.4V | 08:05:00 | 00:00:00 | 00:00:00 | |
| DL1NUX | 2026-09-06 01:07:48 | 50.83733 | 8.45198 | 136° | 71km/h | 14850m | -6.3m/s | -60.1°C | 7% | 132hPa | 2.4V | 08:04:56 | 02:49:46 | 00:00:00 | |
| DB0UT-7 | 2026-09-06 01:07:47 | 50.83691 | 8.45283 | 120° | 80km/h | 14825m | -6.8m/s | -60.1°C | 7.2% | 132.5hPa | 2.4V | 00:00:00 | 02:49:50 | 00:00:00 | |
| SO1NDE-10 | 2026-09-06 01:07:46 | 50.83717 | 8.45260 | 123° | 80km/h | 14832m | -5.9m/s | -60.1°C | 7.2% | 132.3hPa | 2.4V | 00:00:00 | 02:49:49 | 00:00:00 | |
| DM0DOS-11 | 2026-09-06 01:07:45 | 50.83777 | 8.45137 | 140° | 84km/h | 14870m | -6.3m/s | -60.2°C | 7.1% | 131.6hPa | 2.4V | 08:04:59 | 02:49:43 | 00:00:00 | |
| HSKMA3-T | 2026-09-06 01:07:45 | 50.83710 | 8.45238 | 128° | 66km/h | 14837m | -5.8m/s | -60.1°C | 3.8% | 132.3hPa | 2.5V | 08:05:33 | 02:49:48 | 00:00:00 | |
| BIOWL1-15 | 2026-09-06 01:07:42 | 50.83747 | 8.45178 | 139° | 75km/h | 14857m | -6.2m/s | -60.1°C | 3.9% | 131.8hPa | 2.4V | 08:05:33 | 02:49:45 | 00:00:00 | |
| DB0DAN | 2026-09-06 01:07:40 | 50.83777 | 8.45137 | 140° | 80km/h | 14870m | -6.3m/s | -60.2°C | 3.4% | 131.55hPa | 2.4V | 00:00:00 | 00:00:00 | 00:00:00 | |
| AA1-15 | 2026-09-06 01:07:40 | 50.83777 | 8.45137 | 140° | 84km/h | 14870m | -6.3m/s | -60.2°C | 3.9% | 131.6hPa | 2.4V | 08:05:33 | 02:49:43 | 00:00:00 | |
| DJTTGO | 2026-09-06 01:07:39 | 50.83794 | 8.45114 | 139° | 89km/h | 14876m | -6.7m/s | -60.3°C | 3.3% | 131.4hPa | 2.5V | 00:00:00 | 00:00:00 | 00:00:00 | |
| DL1NUX | 2026-09-06 01:07:38 | 50.83887 | 8.44933 | 118° | 97km/h | 14912m | -6.9m/s | -60.6°C | 7.2% | 130.7hPa | 2.5V | 08:05:06 | 02:49:36 | 00:00:00 | |
| DO3MHA-11 | 2026-09-06 01:07:38 | 50.83811 | 8.45089 | 137° | 93km/h | 14882m | -5.7m/s | -60.3°C | 7.1% | 131.3hPa | 2.5V | 00:00:00 | 02:49:41 | 00:00:00 | |
| DM0DOS-11 | 2026-09-06 01:07:35 | 50.83916 | 8.44834 | 112° | 86km/h | 14931m | -6.3m/s | -60.7°C | 7.2% | 130.3hPa | 2.4V | 08:05:09 | 02:49:33 | 00:00:00 | |
| HSKMA3-T | 2026-09-06 01:07:34 | 50.83874 | 8.44967 | 122° | 100km/h | 14906m | -5.5m/s | -60.6°C | 3.8% | 130.8hPa | 2.4V | 08:05:33 | 02:49:37 | 00:00:00 | |
| BIOWL1-15 | 2026-09-06 01:07:31 | 50.83908 | 8.44866 | 114° | 89km/h | 14925m | -6.6m/s | -60.7°C | 3.8% | 130.4hPa | 2.4V | 08:05:33 | 02:49:34 | 00:00:00 | |
| WPPR-10 | 2026-09-06 01:07:31 | 50.83917 | 8.44834 | 112° | 84km/h | 14931m | -6.3m/s | -60.7°C | 3.4% | 130.3hPa | 2.4V | 00:00:00 | 00:00:00 | 00:00:00 | |
| DJ2DS-15 | 2026-09-06 01:07:30 | 50.83917 | 8.44834 | 113° | 82km/h | 14931m | -6.2m/s | -60.7°C | 7.2% | 130.2hPa | 2.4V | 00:00:00 | 02:49:33 | 00:00:00 | |
| DL1XH1-15 | 2026-09-06 01:07:29 | 50.83961 | 8.44684 | 126° | 60km/h | 14968m | -5.5m/s | -60.9°C | 7.3% | 129.5hPa | 2.4V | 08:05:15 | 02:49:27 | 00:00:00 | |
| AA1-15 | 2026-09-06 01:07:29 | 50.83925 | 8.44804 | 112° | 78km/h | 14937m | -6.3m/s | -60.8°C | 3.8% | 130.2hPa | 2.4V | 08:05:33 | 02:49:32 | 00:00:00 | |
| DO3MHA-11 | 2026-09-06 01:07:28 | 50.83932 | 8.44776 | 112° | 69km/h | 14944m | -6.8m/s | -60.8°C | 7.3% | 130.0hPa | 2.4V | 00:00:00 | 02:49:31 | 00:00:00 | |
| EDDB2-11 | 2026-09-06 01:07:27 | 50.83939 | 8.44750 | 112° | 68km/h | 14950m | -5.6m/s | -60.8°C | 3.4% | 129.8hPa | 2.4V | 00:00:00 | 00:00:00 | 00:00:00 | |
| DM0DOS-11 | 2026-09-06 01:07:25 | 50.84010 | 8.44605 | 136° | 80km/h | 14991m | -5.7m/s | -61°C | 7.3% | 129.1hPa | 2.4V | 08:05:19 | 02:49:23 | 00:00:00 | |
| HSKMA3-T | 2026-09-06 01:07:23 | 50.83971 | 8.44665 | 132° | 64km/h | 14973m | -6.2m/s | -60.9°C | 3.8% | 129.4hPa | 2.4V | 08:05:33 | 02:49:26 | 00:00:00 | |
| DF8AY | 2026-09-06 01:07:22 | 50.83983 | 8.44646 | 135° | 68km/h | 14979m | -5.5m/s | 0°C | 0% | 0hPa | 2.5V | 18:12:15 | 02:49:25 | 00:00:00 | |
| BIOWL1-15 | 2026-09-06 01:07:22 | 50.84009 | 8.44605 | 136° | 80km/h | 14991m | -5.7m/s | -61.1°C | 3.8% | 129.1hPa | 2.4V | 08:05:33 | 02:49:23 | 00:00:00 | |
| DL1XH-15 | 2026-09-06 01:07:21 | 50.84024 | 8.44582 | 135° | 84km/h | 14996m | -5.3m/s | -61°C | 7.3% | 128.9hPa | 2.4V | 08:05:20 | 02:49:22 | 00:00:00 | |
| DL4XJ-10 | 2026-09-06 01:07:21 | 50.83995 | 8.44626 | 137° | 77km/h | 14985m | -5.8m/s | -63.4°C | 0% | 0hPa | 2.4V | 00:00:00 | 00:00:00 | 00:00:00 | |
| DL1XH1-15 | 2026-09-06 01:07:19 | 50.84101 | 8.44438 | 124° | 100km/h | 15027m | -6.2m/s | -61.1°C | 7.2% | 128.3hPa | 2.4V | 08:05:25 | 02:49:17 | 00:00:00 | |
| DL1XH-west | 2026-09-06 01:07:19 | 50.84024 | 8.44582 | 135° | 84km/h | 14996m | -5.4m/s | -61.1°C | 3.8% | 128.9hPa | 2.4V | 08:05:33 | 02:49:22 | 00:00:00 | |
| DO3MHA-11 | 2026-09-06 01:07:18 | 50.84040 | 8.44557 | 134° | 97km/h | 15002m | -5.9m/s | -61.0°C | 7.2% | 128.7hPa | 2.5V | 00:00:00 | 02:49:21 | 00:00:00 | |
| DB0NH | 2026-09-06 01:07:17 | 50.84056 | 8.44530 | 132° | 89km/h | 15008m | -6.3m/s | -61.0°C | 7.2% | 128.6hPa | 2.5V | 00:00:00 | 02:49:20 | 00:00:00 | |
| SO1NDE-10 | 2026-09-06 01:07:16 | 50.84071 | 8.44501 | 130° | 91km/h | 15015m | -6.1m/s | -61.0°C | 7.2% | 128.5hPa | 2.5V | 00:00:00 | 02:49:19 | 00:00:00 | |
| DM0DOS-11 | 2026-09-06 01:07:15 | 50.84149 | 8.44299 | 112° | 97km/h | 15052m | -5.8m/s | -61.2°C | 7.2% | 127.8hPa | 2.5V | 08:05:29 | 02:49:13 | 00:00:00 | |
| DJ8HS-15 | 2026-09-06 01:07:15 | 50.84086 | 8.44471 | 127° | 84km/h | 15021m | -6.2m/s | -61.1°C | 7.2% | 128.4hPa | 2.4V | 00:00:00 | 02:49:18 | 00:00:00 | |
| DL1XH-15 | 2026-09-06 01:07:14 | 50.84158 | 8.44264 | 109° | 93km/h | 15058m | -6.1m/s | -61.2°C | 7.1% | 127.6hPa | 2.4V | 08:05:30 | 02:49:12 | 00:00:00 | |
| HSKMA3-T | 2026-09-06 01:07:13 | 50.84115 | 8.44405 | 121° | 100km/h | 15033m | -6.5m/s | -61.2°C | 3.6% | 128.2hPa | 2.4V | 08:05:33 | 02:49:16 | 00:00:00 | |
| BIOWL1-15 | 2026-09-06 01:07:10 | 50.84149 | 8.44299 | 113° | 97km/h | 15052m | -5.8m/s | -61.2°C | 3.6% | 127.8hPa | 2.5V | 08:05:33 | 02:49:13 | 00:00:00 | |
| DJ2DS-15 | 2026-09-06 01:07:10 | 50.84149 | 8.44299 | 113° | 84km/h | 15052m | -5.7m/s | -61.1°C | 7.2% | 127.7hPa | 2.5V | 00:00:00 | 02:49:13 | 00:00:00 | |
| DL1XH1-15 | 2026-09-06 01:07:09 | 50.84188 | 8.44110 | 109° | 68km/h | 15089m | -6m/s | -61.3°C | 7.3% | 127hPa | 2.5V | 08:05:35 | 02:49:07 | 00:00:00 | |
| DL1XH-west | 2026-09-06 01:07:08 | 50.84165 | 8.44230 | 108° | 89km/h | 15064m | -6.2m/s | -61.2°C | 3.6% | 127.5hPa | 2.4V | 08:05:33 | 02:49:11 | 00:00:00 | |
| DO3MHA-11 | 2026-09-06 01:07:08 | 50.84165 | 8.44230 | 108° | 73km/h | 15064m | -6.2m/s | -61.2°C | 7.2% | 127.5hPa | 2.4V | 00:00:00 | 02:49:11 | 00:00:00 | |
| DO2KSM | 2026-09-06 01:07:07 | 50.84165 | 8.44230 | 108° | 89km/h | 15064m | -6.2m/s | -61.2°C | 3.3% | 127.5hPa | 2.5V | 08:05:00 | 00:00:00 | 00:00:00 | |
| DD1CC3-15 | 2026-09-06 01:07:06 | 50.84171 | 8.44197 | 107° | 84km/h | 15071m | -6.9m/s | -61.2°C | 3.3% | 127.4hPa | 2.5V | 08:05:00 | 00:00:00 | 00:00:00 | |
| DL3AQ-11 | 2026-09-06 01:07:05 | 50.84188 | 8.44110 | 109° | 68km/h | 15090m | -6.0m/s | -61.3°C | 3.3% | 127.0hPa | 2.5V | 00:00:00 | 00:00:00 | 00:00:00 | |
| DM0DOS-11 | 2026-09-06 01:07:04 | 50.84219 | 8.44018 | 126° | 71km/h | 15113m | -5.6m/s | -61.3°C | 7.2% | 126.5hPa | 2.5V | 08:05:39 | 02:49:03 | 00:00:00 | |
| HSKMA3-T | 2026-09-06 01:07:03 | 50.84194 | 8.44086 | 114° | 66km/h | 15096m | -6.2m/s | -61.3°C | 3.6% | 126.9hPa | 2.4V | 08:06:24 | 02:49:06 | 00:00:00 | |
| BIOWL1-15 | 2026-09-06 01:07:00 | 50.84220 | 8.44018 | 127° | 71km/h | 15113m | -5.6m/s | -61.3°C | 3.4% | 126.5hPa | 2.5V | 08:06:24 | 02:49:03 | 00:00:00 | |
| DL4XJ-10 | 2026-09-06 01:06:59 | 50.84231 | 8.43995 | 130° | 64km/h | 15119m | -5.5m/s | -63.7°C | 0% | 0hPa | 2.5V | 00:00:00 | 00:00:00 | 00:00:00 | |
| DL1NUX | 2026-09-06 01:06:58 | 50.84316 | 8.43822 | 124° | 102km/h | 15155m | -6.7m/s | -61.2°C | 6.9% | 125.6hPa | 2.5V | 08:05:46 | 02:48:56 | 00:00:00 | |
| DL1XH-west | 2026-09-06 01:06:58 | 50.84244 | 8.43970 | 130° | 82km/h | 15124m | -6m/s | -61.4°C | 3.5% | 126.3hPa | 2.4V | 08:06:24 | 02:49:01 | 00:00:00 | |
| HARRO8 | 2026-09-06 01:06:57 | 50.84257 | 8.43944 | 129° | 86km/h | 15130m | -5.7m/s | -61.3°C | 3.2% | 126.2hPa | 2.4V | 00:00:00 | 00:00:00 | 00:00:00 | |
| EDDB2-11 | 2026-09-06 01:06:56 | 50.84272 | 8.43917 | 128° | 91km/h | 15135m | -5.9m/s | -61.2°C | 3.1% | 126.0hPa | 2.4V | 00:00:00 | 00:00:00 | 00:00:00 | |
| DJ8HS-15 | 2026-09-06 01:06:55 | 50.84286 | 8.43887 | 128° | 91km/h | 15142m | -6.7m/s | -61.2°C | 7.0% | 125.9hPa | 2.4V | 00:00:00 | 02:48:58 | 00:00:00 | |
| DM0DOS-11 | 2026-09-06 01:06:54 | 50.84357 | 8.43714 | 117° | 108km/h | 15175m | -6.7m/s | -61.3°C | 6.9% | 125.2hPa | 2.4V | 08:05:49 | 02:48:53 | 00:00:00 | |
| HSKMA3-T | 2026-09-06 01:06:52 | 50.84330 | 8.43788 | 123° | 106km/h | 15161m | -6.9m/s | -61.3°C | 3.2% | 125.5hPa | 2.4V | 08:06:24 | 02:48:55 | 00:00:00 | |
| BIOWL1-15 | 2026-09-06 01:06:52 | 50.84357 | 8.43714 | 117° | 108km/h | 15175m | -6.7m/s | -61.3°C | 3.2% | 125.2hPa | 2.4V | 08:06:24 | 02:48:53 | 00:00:00 | |
| DJ2DS-15 | 2026-09-06 01:06:50 | 50.84357 | 8.43714 | 118° | 91km/h | 15175m | -6.7m/s | -61.2°C | 6.9% | 125.2hPa | 2.4V | 00:00:00 | 02:48:53 | 00:00:00 | |
| DL1XH1-15 | 2026-09-06 01:06:49 | 50.84410 | 8.43485 | 105° | 89km/h | 15214m | -5.8m/s | -61.6°C | 7.2% | 124.5hPa | 2.4V | 08:05:55 | 02:48:47 | 00:00:00 | |
| AA1-15 | 2026-09-06 01:06:48 | 50.84380 | 8.43636 | 112° | 106km/h | 15189m | -6.5m/s | -61.4°C | 3.3% | 124.9hPa | 2.5V | 08:06:24 | 02:48:51 | 00:00:00 | |
| DL1XH-west | 2026-09-06 01:06:47 | 50.84389 | 8.43597 | 109° | 104km/h | 15195m | -6.7m/s | -61.4°C | 3.3% | 124.8hPa | 2.4V | 08:06:24 | 02:48:50 | 00:00:00 | |
| BIOWL1-15 | 2026-09-06 01:06:43 | 50.84446 | 8.43341 | 122° | 75km/h | 15245m | -7.1m/s | -61.5°C | 3.1% | 123.8hPa | 2.4V | 08:06:24 | 02:48:42 | 00:00:00 | |
| HSKMA3-T | 2026-09-06 01:06:42 | 50.84422 | 8.43422 | 109° | 78km/h | 15226m | -6.2m/s | -61.6°C | 3.1% | 124.2hPa | 2.5V | 08:06:24 | 02:48:45 | 00:00:00 | |
| DJ2KF-10 | 2026-09-06 01:06:41 | 50.84429 | 8.43393 | 114° | 88km/h | 15233m | -6.6m/s | -61.6°C | 7.1% | 124.1hPa | 2.4V | 00:00:00 | 02:48:44 | 00:00:00 | |
| BUE01 | 2026-09-06 01:06:40 | 50.84437 | 8.43367 | 117° | 73km/h | 15239m | -6.1m/s | -61.6°C | 3.0% | 124.0hPa | 2.4V | 00:00:00 | 00:00:00 | 00:00:00 | |
| DL1XH1-15 | 2026-09-06 01:06:39 | 50.84512 | 8.43213 | 132° | 95km/h | 15280m | -6.8m/s | -61.4°C | 7% | 123.1hPa | 2.4V | 08:06:05 | 02:48:37 | 00:00:00 | |
| AA1-15 | 2026-09-06 01:06:37 | 50.84469 | 8.43291 | 128° | 80km/h | 15259m | -7m/s | -61.5°C | 3% | 123.6hPa | 2.5V | 08:06:24 | 02:48:40 | 00:00:00 | |
| DL1XH-west | 2026-09-06 01:06:36 | 50.84482 | 8.43266 | 131° | 84km/h | 15266m | -6.7m/s | -61.5°C | 3.1% | 123.4hPa | 2.4V | 08:06:24 | 02:48:39 | 00:00:00 | |
| HSKMA3-T | 2026-09-06 01:06:32 | 50.84546 | 8.43153 | 130° | 104km/h | 15294m | -6.7m/s | -61.4°C | 3.1% | 122.9hPa | 2.5V | 08:06:24 | 02:48:35 | 00:00:00 | |
| AU51GT2 | 2026-09-06 01:06:31 | 50.84563 | 8.43120 | 127° | 108km/h | 15301m | -6.8m/s | -61.3°C | 3.0% | 122.7hPa | 2.4V | 00:00:00 | 00:00:00 | 00:00:00 | |
| SONDE2-11 | 2026-09-06 01:06:30 | 50.84594 | 8.43047 | 120° | 111km/h | 15313m | -6.0m/s | -61.3°C | 3.0% | 122.5hPa | 2.4V | 00:00:00 | 00:00:00 | 00:00:00 | |
| DL1XH1-15 | 2026-09-06 01:06:29 | 50.84647 | 8.42861 | 110° | 86km/h | 15345m | -6.5m/s | -61.2°C | 6.9% | 121.9hPa | 2.4V | 08:06:15 | 02:48:27 | 00:00:00 | |
| BIOWL1-15 | 2026-09-06 01:06:28 | 50.84608 | 8.43008 | 117° | 111km/h | 15319m | -5.9m/s | -61.2°C | 3% | 122.4hPa | 2.4V | 08:06:24 | 02:48:31 | 00:00:00 | |
| AA1-15 | 2026-09-06 01:06:26 | 50.84630 | 8.42931 | 112° | 100km/h | 15332m | -6m/s | -61.2°C | 2.8% | 122.2hPa | 2.5V | 08:06:24 | 02:48:29 | 00:00:00 | |
| DM0DOS-11 | 2026-09-06 01:06:25 | 50.84680 | 8.42753 | 124° | 69km/h | 15374m | -8.2m/s | -61°C | 6.7% | 121.3hPa | 2.5V | 08:06:19 | 02:48:23 | 00:00:00 | |
| DL1XH-west | 2026-09-06 01:06:25 | 50.84639 | 8.42895 | 111° | 93km/h | 15338m | -6.6m/s | -61.3°C | 2.9% | 122hPa | 2.4V | 08:06:24 | 02:48:28 | 00:00:00 | |
| HSKMA3-T | 2026-09-06 01:06:21 | 50.84671 | 8.42776 | 119° | 71km/h | 15366m | -6.7m/s | -61°C | 2.7% | 121.5hPa | 2.5V | 08:06:24 | 02:48:24 | 00:00:00 | |
| DK9SH | 2026-09-06 01:06:20 | 50.84671 | 8.42776 | 120° | 71km/h | 15366m | -6.7m/s | -61.0°C | 2.7% | 121.5hPa | 2.4V | 08:06:00 | 00:00:00 | 00:00:00 | |
| DL1XH1-15 | 2026-09-06 01:06:19 | 50.84762 | 8.42623 | 137° | 91km/h | 15416m | -6.2m/s | -60.6°C | 6.6% | 120.5hPa | 2.4V | 08:06:25 | 02:48:17 | 00:00:00 | |
| BIOWL1-15 | 2026-09-06 01:06:18 | 50.84702 | 8.42710 | 133° | 69km/h | 15388m | -6.6m/s | -60.9°C | 2.7% | 121hPa | 2.4V | 08:06:24 | 02:48:21 | 00:00:00 | |
| DL1XH-15 | 2026-09-06 01:06:17 | 50.84729 | 8.42669 | 138° | 80km/h | 15402m | -7.1m/s | -60.7°C | 6.6% | 120.7hPa | 2.5V | 08:06:23 | 02:48:19 | 00:00:00 | |
| DB0NH | 2026-09-06 01:06:17 | 50.84715 | 8.42690 | 137° | 84km/h | 15395m | -7.8m/s | -60.8°C | 6.6% | 120.9hPa | 2.5V | 00:00:00 | 02:48:20 | 00:00:00 | |
| DF7PN | 2026-09-06 01:06:16 | 50.84730 | 8.42669 | 138° | 78km/h | 15402m | -7.1m/s | -60.7°C | 2.7% | 120.7hPa | 2.5V | 00:00:00 | 00:00:00 | 00:00:00 | |
| DM0DOS-11 | 2026-09-06 01:06:15 | 50.84827 | 8.42502 | 122° | 102km/h | 15442m | -6.5m/s | -60.5°C | 6.4% | 120hPa | 2.5V | 08:06:29 | 02:48:13 | 00:00:00 | |
| DL1XH-west | 2026-09-06 01:06:15 | 50.84745 | 8.42647 | 139° | 86km/h | 15409m | -6.8m/s | -60.7°C | 2.7% | 120.6hPa | 2.5V | 08:06:24 | 02:48:18 | 00:00:00 | |
| HSKMA3-T | 2026-09-06 01:06:11 | 50.84812 | 8.42535 | 127° | 102km/h | 15436m | -6.3m/s | -60.6°C | 2.6% | 120.1hPa | 2.4V | 08:07:15 | 02:48:14 | 00:00:00 | |
| BIOWL1-15 | 2026-09-06 01:06:09 | 50.84861 | 8.42399 | 114° | 88km/h | 15464m | -7.4m/s | -60.5°C | 2.5% | 119.6hPa | 2.4V | 08:07:15 | 02:48:10 | 00:00:00 | |
| DL1XH1-15 | 2026-09-06 01:06:09 | 50.84884 | 8.42312 | 113° | 68km/h | 15484m | -7.5m/s | -60.5°C | 6.3% | 119.2hPa | 2.5V | 08:06:35 | 02:48:07 | 00:00:00 | |
| DL1XH-15 | 2026-09-06 01:06:07 | 50.84870 | 8.42368 | 112° | 82km/h | 15471m | -6.4m/s | -60.5°C | 6.4% | 119.5hPa | 2.4V | 08:06:33 | 02:48:09 | 00:00:00 | |
| AA1-15 | 2026-09-06 01:06:04 | 50.84884 | 8.42312 | 113° | 68km/h | 15484m | -7.5m/s | -60.5°C | 2.4% | 119.2hPa | 2.5V | 08:07:15 | 02:48:07 | 00:00:00 | |
| DO3MHA-12 | 2026-09-06 01:06:03 | 50.84891 | 8.42289 | 116° | 69km/h | 15491m | -6.4m/s | -60.4°C | 6.3% | 119.0hPa | 2.4V | 00:00:00 | 02:48:06 | 00:00:00 | |
| DM0DOS-11 | 2026-09-06 01:06:02 | 50.84915 | 8.42230 | 131° | 58km/h | 15512m | -7.3m/s | -60.3°C | 6.3% | 118.7hPa | 2.4V | 08:06:39 | 02:48:03 | 00:00:00 | |
| HSKMA3-T | 2026-09-06 01:06:00 | 50.84915 | 8.42230 | 132° | 58km/h | 15512m | -7.3m/s | -60.3°C | 2.4% | 118.7hPa | 2.4V | 08:07:15 | 02:48:03 | 00:00:00 | |
| DL3AQ-11 | 2026-09-06 01:05:58 | 50.84952 | 8.42177 | 140° | 73km/h | 15533m | -6.6m/s | -60.1°C | 2.5% | 118.2hPa | 2.4V | 00:00:00 | 00:00:00 | 00:00:00 | |
| DL1XH-15 | 2026-09-06 01:05:57 | 50.84967 | 8.42157 | 139° | 80km/h | 15540m | -7.3m/s | -60.1°C | 6.2% | 118.1hPa | 2.4V | 08:06:43 | 02:47:59 | 00:00:00 | |
| BIOWL1-15 | 2026-09-06 01:05:56 | 50.84966 | 8.42157 | 140° | 80km/h | 15540m | -7.3m/s | -60.1°C | 2.4% | 118.2hPa | 2.4V | 08:07:15 | 02:47:59 | 00:00:00 | |
| NBG1-10 | 2026-09-06 01:05:56 | 50.84966 | 8.42157 | 140° | 73km/h | 15540m | -7.2m/s | -60.0°C | 6.2% | 118.1hPa | 2.4V | 00:00:00 | 02:47:59 | 00:00:00 | |
| DM0DOS-11 | 2026-09-06 01:05:55 | 50.85055 | 8.41990 | 118° | 93km/h | 15579m | -7.4m/s | -59.9°C | 6.1% | 117.4hPa | 2.4V | 08:06:49 | 02:47:53 | 00:00:00 | |
| DL1XH-west | 2026-09-06 01:05:53 | 50.85014 | 8.42083 | 130° | 95km/h | 15559m | -7.5m/s | -60°C | 2.4% | 117.8hPa | 2.5V | 08:07:15 | 02:47:56 | 00:00:00 | |
| HSKMA3-T | 2026-09-06 01:05:50 | 50.85055 | 8.41990 | 119° | 93km/h | 15579m | -7.4m/s | -60°C | 2.3% | 117.4hPa | 2.4V | 08:07:15 | 02:47:53 | 00:00:00 | |
| DJ2DS-15 | 2026-09-06 01:05:46 | 50.85088 | 8.41864 | 107° | 73km/h | 15608m | -7.0m/s | -59.9°C | 2.4% | 116.8hPa | 2.4V | 00:00:00 | 00:00:00 | 00:00:00 | |
| BIOWL1-15 | 2026-09-06 01:05:45 | 50.85098 | 8.41812 | 107° | 64km/h | 15623m | -7.1m/s | -60°C | 2.2% | 116.6hPa | 2.4V | 08:07:15 | 02:47:47 | 00:00:00 | |
| DM0DOS-11 | 2026-09-06 01:05:45 | 50.85121 | 8.41733 | 127° | 51km/h | 15650m | -6.8m/s | -60°C | 6.1% | 116hPa | 2.4V | 08:06:59 | 02:47:43 | 00:00:00 | |
| DL1XH-west | 2026-09-06 01:05:42 | 50.85108 | 8.41768 | 114° | 53km/h | 15637m | -7m/s | -60°C | 2.2% | 116.3hPa | 2.5V | 08:07:15 | 02:47:45 | 00:00:00 | |
| HSKMA3-T | 2026-09-06 01:05:39 | 50.85129 | 8.41717 | 134° | 53km/h | 15657m | -6.5m/s | -60.1°C | 2.2% | 115.9hPa | 2.4V | 08:07:15 | 02:47:42 | 00:00:00 | |
| DO3MHA-11 | 2026-09-06 01:05:38 | 50.85140 | 8.41702 | 139° | 78km/h | 15664m | -6.3m/s | -60.0°C | 6.1% | 115.8hPa | 2.4V | 00:00:00 | 02:47:41 | 00:00:00 | |
| DL1XH-15 | 2026-09-06 01:05:37 | 50.85193 | 8.41632 | 138° | 78km/h | 15692m | -7.6m/s | -60°C | 6.1% | 115.3hPa | 2.4V | 08:07:05 | 02:47:37 | 00:00:00 | |
| DM0DOS-11 | 2026-09-06 01:05:35 | 50.85251 | 8.41533 | 126° | 89km/h | 15720m | -6.4m/s | -59.9°C | 6.1% | 114.8hPa | 2.4V | 08:07:09 | 02:47:33 | 00:00:00 | |
| BIOWL1-15 | 2026-09-06 01:05:35 | 50.85208 | 8.41611 | 136° | 82km/h | 15700m | -7.3m/s | -60°C | 2.2% | 115.1hPa | 2.4V | 08:07:15 | 02:47:36 | 00:00:00 | |
| DL1XH-west | 2026-09-06 01:05:32 | 50.85223 | 8.41587 | 133° | 86km/h | 15707m | -7m/s | -60°C | 2.2% | 115hPa | 2.5V | 08:07:15 | 02:47:35 | 00:00:00 | |
| AA1-15 | 2026-09-06 01:05:31 | 50.85237 | 8.41561 | 130° | 88km/h | 15714m | -6.4m/s | -60°C | 2.2% | 114.9hPa | 2.5V | 08:07:15 | 02:47:34 | 00:00:00 | |
| HSKMA3-T | 2026-09-06 01:05:29 | 50.85264 | 8.41503 | 122° | 89km/h | 15727m | -7m/s | -59.9°C | 2.2% | 114.7hPa | 2.4V | 08:07:15 | 02:47:32 | 00:00:00 | |
| BIOWL1-15 | 2026-09-06 01:05:23 | 50.85314 | 8.41324 | 108° | 69km/h | 15768m | -7.1m/s | -59.8°C | 2.1% | 113.9hPa | 2.4V | 08:08:06 | 02:47:26 | 00:00:00 | |
| DO3MHA-12 | 2026-09-06 01:05:23 | 50.85314 | 8.41323 | 108° | 58km/h | 15768m | -7.0m/s | -59.8°C | 6.0% | 113.9hPa | 2.5V | 00:00:00 | 02:47:26 | 00:00:00 | |
| DO3DL | 2026-09-06 01:05:22 | 50.85314 | 8.41323 | 109° | 69km/h | 15768m | -7.1m/s | -59.8°C | 2.3% | 113.9hPa | 2.5V | 08:08:00 | 00:00:00 | 00:00:00 | |
| DL1XH-15 | 2026-09-06 01:05:21 | 50.85330 | 8.41254 | 114° | 53km/h | 15789m | -6.2m/s | -59.7°C | 5.9% | 113.5hPa | 2.5V | 08:07:19 | 02:47:23 | 00:00:00 | |
| DL1XH-west | 2026-09-06 01:05:21 | 50.85324 | 8.41275 | 111° | 58km/h | 15782m | -7.5m/s | -59.7°C | 2.1% | 113.6hPa | 2.5V | 08:08:06 | 02:47:24 | 00:00:00 | |
| AA1-15 | 2026-09-06 01:05:20 | 50.85330 | 8.41254 | 114° | 53km/h | 15789m | -6.2m/s | -59.7°C | 2.1% | 113.5hPa | 2.5V | 08:08:06 | 02:47:23 | 00:00:00 | |
| HSKMA3-T | 2026-09-06 01:05:18 | 50.85343 | 8.41220 | 130° | 49km/h | 15802m | -6.2m/s | -59.6°C | 2.1% | 113.3hPa | 2.4V | 08:08:06 | 02:47:21 | 00:00:00 | |
| BIOWL1-15 | 2026-09-06 01:05:12 | 50.85432 | 8.41096 | 132° | 86km/h | 15849m | -6.1m/s | -59.5°C | 2% | 112.5hPa | 2.4V | 08:08:06 | 02:47:14 | 00:00:00 | |
| DL1XH-west | 2026-09-06 01:05:10 | 50.85446 | 8.41070 | 127° | 88km/h | 15855m | -6.1m/s | -59.5°C | 2% | 112.3hPa | 2.4V | 08:08:06 | 02:47:13 | 00:00:00 | |
| DM0DOS-11 | 2026-09-06 01:05:10 | 50.85446 | 8.41070 | 127° | 88km/h | 15855m | -6m/s | -59.5°C | 5.9% | 112.3hPa | 2.4V | 08:07:29 | 02:47:13 | 00:00:00 | |
| AA1-15 | 2026-09-06 01:05:09 | 50.85459 | 8.41040 | 123° | 91km/h | 15861m | -6m/s | -59.5°C | 2% | 112.2hPa | 2.4V | 08:08:06 | 02:47:12 | 00:00:00 | |
| HSKMA3-T | 2026-09-06 01:05:08 | 50.85471 | 8.41009 | 119° | 91km/h | 15867m | -6.7m/s | -59.4°C | 2% | 112.1hPa | 2.4V | 08:08:06 | 02:47:11 | 00:00:00 | |
| BIOWL1-15 | 2026-09-06 01:05:02 | 50.85525 | 8.40771 | 108° | 58km/h | 15920m | -6.2m/s | -59.2°C | 2% | 111.2hPa | 2.4V | 08:08:06 | 02:47:03 | 00:00:00 | |
| DL1XH-15 | 2026-09-06 01:05:02 | 50.85525 | 8.40771 | 107° | 58km/h | 15920m | -6.2m/s | -59.1°C | 5.9% | 111.2hPa | 2.4V | 08:07:39 | 02:47:03 | 00:00:00 | |
| DL1XH-west | 2026-09-06 01:04:59 | 50.85530 | 8.40749 | 111° | 55km/h | 15926m | -6m/s | -59.2°C | 2% | 111.1hPa | 2.4V | 08:08:06 | 02:47:02 | 00:00:00 | |
| DL1XH1-15 | 2026-09-06 01:04:59 | 50.85562 | 8.40665 | 130° | 49km/h | 15958m | -6.8m/s | -59.2°C | 5.8% | 110.5hPa | 2.4V | 08:07:45 | 02:46:57 | 00:00:00 | |
| AA1-15 | 2026-09-06 01:04:58 | 50.85535 | 8.40730 | 115° | 51km/h | 15932m | -6.1m/s | -59.2°C | 2% | 111hPa | 2.4V | 08:08:06 | 02:47:01 | 00:00:00 | |
| HSKMA3-T | 2026-09-06 01:04:57 | 50.85541 | 8.40712 | 119° | 49km/h | 15939m | -6.3m/s | -59.2°C | 2% | 110.8hPa | 2.4V | 08:08:06 | 02:47:00 | 00:00:00 | |
| WPPR-10 | 2026-09-06 01:04:56 | 50.85554 | 8.40680 | 127° | 47km/h | 15951m | -6.9m/s | -59.3°C | 2.3% | 110.6hPa | 2.5V | 00:00:00 | 00:00:00 | 00:00:00 | |
| DM0DOS-11 | 2026-09-06 01:04:55 | 50.85603 | 8.40605 | 141° | 62km/h | 15986m | -6.8m/s | -59.1°C | 5.8% | 110hPa | 2.5V | 08:07:49 | 02:46:53 | 00:00:00 | |
| BIOWL1-15 | 2026-09-06 01:04:52 | 50.85603 | 8.40605 | 141° | 62km/h | 15986m | -6.8m/s | -59.1°C | 2% | 110hPa | 2.5V | 08:08:06 | 02:46:53 | 00:00:00 | |
| DL1XH-west | 2026-09-06 01:04:49 | 50.85615 | 8.40589 | 142° | 68km/h | 15993m | -6.8m/s | -59.1°C | 2% | 109.9hPa | 2.4V | 08:08:06 | 02:46:52 | 00:00:00 | |
| AA1-15 | 2026-09-06 01:04:48 | 50.85629 | 8.40571 | 141° | 73km/h | 16000m | -6.8m/s | -59.1°C | 1.9% | 109.8hPa | 2.4V | 08:08:06 | 02:46:51 | 00:00:00 | |
| HSKMA3-T | 2026-09-06 01:04:47 | 50.85644 | 8.40552 | 140° | 77km/h | 16007m | -6.6m/s | -59°C | 2% | 109.6hPa | 2.4V | 08:08:06 | 02:46:50 | 00:00:00 | |
| DL4XJ-10 | 2026-09-06 01:04:47 | 50.85643 | 8.40552 | 140° | 69km/h | 16007m | -6.6m/s | -61.4°C | 0% | 0hPa | 2.5V | 00:00:00 | 00:00:00 | 00:00:00 | |
| DL4BBY-15 | 2026-09-06 01:04:44 | 50.85688 | 8.40484 | 132° | 73km/h | 16026m | -6.5m/s | -61.3°C | 0% | 0hPa | 2.5V | 00:00:00 | 00:00:00 | 00:00:00 | |
| DO3MHA-12 | 2026-09-06 01:04:43 | 50.85703 | 8.40457 | 129° | 82km/h | 16033m | -6.6m/s | -58.8°C | 5.8% | 109.1hPa | 2.5V | 00:00:00 | 02:46:46 | 00:00:00 | |
| DO2KSM | 2026-09-06 01:04:42 | 50.85703 | 8.40457 | 130° | 89km/h | 16033m | -6.7m/s | -58.9°C | 2.2% | 109.2hPa | 2.5V | 08:08:00 | 00:00:00 | 00:00:00 | |
| DL1XH-15 | 2026-09-06 01:04:41 | 50.85741 | 8.40368 | 119° | 88km/h | 16053m | -7m/s | -58.5°C | 5.6% | 108.8hPa | 2.5V | 08:07:59 | 02:46:43 | 00:00:00 | |
| BIOWL1-15 | 2026-09-06 01:04:40 | 50.85741 | 8.40368 | 119° | 88km/h | 16053m | -7m/s | -58.5°C | 1.9% | 108.8hPa | 2.5V | 08:08:06 | 02:46:43 | 00:00:00 | |
| DL1XH-west | 2026-09-06 01:04:38 | 50.85760 | 8.40306 | 113° | 84km/h | 16068m | -7.6m/s | -58.3°C | 1.8% | 108.6hPa | 2.4V | 08:08:06 | 02:46:41 | 00:00:00 | |
| AA1-15 | 2026-09-06 01:04:37 | 50.85768 | 8.40276 | 111° | 80km/h | 16075m | -7.1m/s | -58.2°C | 1.8% | 108.5hPa | 2.4V | 08:08:06 | 02:46:40 | 00:00:00 | |
| HSKMA3-T | 2026-09-06 01:04:36 | 50.85774 | 8.40247 | 108° | 75km/h | 16082m | -7.3m/s | -58.1°C | 1.8% | 108.3hPa | 2.4V | 08:08:06 | 02:46:39 | 00:00:00 | |
| DJ8HS-15 | 2026-09-06 01:04:35 | 50.85779 | 8.40219 | 106° | 68km/h | 16089m | -6.9m/s | -58.0°C | 5.3% | 108.2hPa | 2.5V | 00:00:00 | 02:46:38 | 00:00:00 | |
| DL1XH-15 | 2026-09-06 01:04:34 | 50.85806 | 8.40096 | 125° | 46km/h | 16131m | -6.8m/s | -58.1°C | 5.2% | 107.5hPa | 2.5V | 08:08:10 | 02:46:32 | 00:00:00 | |
| DO3MHA-12 | 2026-09-06 01:04:33 | 50.85787 | 8.40169 | 105° | 55km/h | 16103m | -6.7m/s | -58.0°C | 5.1% | 107.9hPa | 2.5V | 00:00:00 | 02:46:36 | 00:00:00 | |
| DD1CC8 | 2026-09-06 01:04:32 | 50.85795 | 8.40129 | 111° | 47km/h | 16117m | -6.9m/s | -58.1°C | 2.0% | 107.7hPa | 2.4V | 00:00:00 | 00:00:00 | 00:00:00 | |
| DJTTGO | 2026-09-06 01:04:31 | 50.85795 | 8.40129 | 113° | 47km/h | 16117m | -6.9m/s | -58.1°C | 2.0% | 107.7hPa | 2.4V | 08:08:00 | 00:00:00 | 00:00:00 | |
| DJ2DS-15 | 2026-09-06 01:04:30 | 50.85800 | 8.40111 | 119° | 71km/h | 16124m | -7.2m/s | -58.1°C | 5.2% | 107.5hPa | 2.4V | 00:00:00 | 02:46:33 | 00:00:00 | |
| DL1XH1-15 | 2026-09-06 01:04:29 | 50.85858 | 8.40017 | 137° | 73km/h | 16166m | -7.2m/s | -58.4°C | 5.4% | 106.9hPa | 2.4V | 08:08:15 | 02:46:27 | 00:00:00 | |
| BIOWL1-15 | 2026-09-06 01:04:29 | 50.85806 | 8.40096 | 125° | 46km/h | 16131m | -6.8m/s | -58.2°C | 1.7% | 107.5hPa | 2.5V | 08:08:57 | 02:46:32 | 00:00:00 | |
| AA1-15 | 2026-09-06 01:04:27 | 50.85823 | 8.40067 | 137° | 53km/h | 16145m | -7m/s | -58.2°C | 1.7% | 107.2hPa | 2.4V | 08:08:57 | 02:46:30 | 00:00:00 | |
| HSKMA3-T | 2026-09-06 01:04:26 | 50.85833 | 8.40052 | 139° | 58km/h | 16152m | -7m/s | -58.3°C | 1.7% | 107.1hPa | 2.4V | 08:08:57 | 02:46:29 | 00:00:00 | |
| SONDE2-11 | 2026-09-06 01:04:25 | 50.85845 | 8.40035 | 139° | 64km/h | 16159m | -6.7m/s | -58.4°C | 2.0% | 107.0hPa | 2.4V | 00:00:00 | 00:00:00 | 00:00:00 | |
| DL3AQ-11 | 2026-09-06 01:04:24 | 50.85858 | 8.40017 | 137° | 71km/h | 16166m | -7.2m/s | -58.4°C | 2.0% | 106.9hPa | 2.4V | 00:00:00 | 00:00:00 | 00:00:00 | |
| DM0DOS-11 | 2026-09-06 01:04:23 | 50.85912 | 8.39920 | 123° | 86km/h | 16194m | -6.9m/s | -58.6°C | 5.6% | 106.5hPa | 2.4V | 08:08:19 | 02:46:23 | 00:00:00 | |
| BIOWL1-15 | 2026-09-06 01:04:23 | 50.85923 | 8.39891 | 119° | 86km/h | 16200m | -6.7m/s | -58.7°C | 1.9% | 106.3hPa | 2.4V | 08:08:57 | 02:46:22 | 00:00:00 | |
| DO3MHA-12 | 2026-09-06 01:04:23 | 50.85872 | 8.39996 | 136° | 80km/h | 16173m | -6.6m/s | -58.4°C | 5.4% | 106.7hPa | 2.4V | 00:00:00 | 02:46:26 | 00:00:00 | |
| HARRO8 | 2026-09-06 01:04:22 | 50.85899 | 8.39947 | 127° | 84km/h | 16187m | -7.1m/s | -58.6°C | 2.1% | 106.5hPa | 2.4V | 00:00:00 | 00:00:00 | 00:00:00 | |
| DD8BA-10 | 2026-09-06 01:04:21 | 50.85899 | 8.39947 | 128° | 77km/h | 16187m | -7.0m/s | -58.5°C | 5.5% | 106.5hPa | 2.4V | 00:00:00 | 00:00:00 | 00:00:00 | |
| EDDB2-11 | 2026-09-06 01:04:20 | 50.85912 | 8.39920 | 123° | 86km/h | 16194m | -6.9m/s | -58.6°C | 2.1% | 106.5hPa | 2.4V | 00:00:00 | 00:00:00 | 00:00:00 | |
| DL1XH1-15 | 2026-09-06 01:04:19 | 50.85957 | 8.39741 | 101° | 69km/h | 16234m | -7.5m/s | -58.7°C | 5.5% | 105.8hPa | 2.4V | 08:08:25 | 02:46:17 | 00:00:00 | |
| AA1-15 | 2026-09-06 01:04:17 | 50.85941 | 8.39829 | 111° | 82km/h | 16214m | -6.6m/s | -58.7°C | 1.8% | 106.1hPa | 2.5V | 08:08:57 | 02:46:20 | 00:00:00 | |
| HSKMA3-T | 2026-09-06 01:04:15 | 50.85953 | 8.39769 | 104° | 75km/h | 16227m | -6.8m/s | -58.7°C | 1.8% | 105.9hPa | 2.4V | 08:08:57 | 02:46:18 | 00:00:00 | |
| DJ8HS-15 | 2026-09-06 01:04:15 | 50.85953 | 8.39769 | 104° | 60km/h | 16227m | -6.7m/s | -58.6°C | 5.5% | 105.8hPa | 2.4V | 00:00:00 | 02:46:18 | 00:00:00 | |
| DL4BBY-15 | 2026-09-06 01:04:14 | 50.85957 | 8.39741 | 102° | 62km/h | 16234m | -7.4m/s | -61.1°C | 0% | 0hPa | 2.4V | 00:00:00 | 00:00:00 | 00:00:00 | |
| DO3MHA-12 | 2026-09-06 01:04:13 | 50.85960 | 8.39715 | 100° | 49km/h | 16241m | -7.0m/s | -58.6°C | 5.5% | 105.6hPa | 2.4V | 00:00:00 | 02:46:16 | 00:00:00 | |
| DF7PN | 2026-09-06 01:04:12 | 50.85962 | 8.39691 | 99° | 58km/h | 16248m | -6.7m/s | -58.6°C | 2.1% | 105.5hPa | 2.4V | 00:00:00 | 00:00:00 | 00:00:00 | |
| DJ2KF-10 | 2026-09-06 01:04:11 | 50.85965 | 8.39669 | 101° | 60km/h | 16255m | -6.8m/s | -58.6°C | 5.5% | 105.3hPa | 2.4V | 00:00:00 | 02:46:14 | 00:00:00 | |
| DL1XH1-15 | 2026-09-06 01:04:09 | 50.86003 | 8.39565 | 139° | 49km/h | 16303m | -7.4m/s | -58.7°C | 5.4% | 104.6hPa | 2.4V | 08:08:35 | 02:46:07 | 00:00:00 | |
| BIOWL1-15 | 2026-09-06 01:04:08 | 50.85975 | 8.39617 | 118° | 40km/h | 16275m | -7.3m/s | -58.6°C | 1.8% | 105hPa | 2.4V | 08:08:57 | 02:46:11 | 00:00:00 | |
| AA1-15 | 2026-09-06 01:04:07 | 50.85980 | 8.39603 | 124° | 40km/h | 16282m | -6.8m/s | -58.6°C | 1.7% | 104.9hPa | 2.5V | 08:08:57 | 02:46:10 | 00:00:00 | |
| DL1XH-west | 2026-09-06 01:04:06 | 50.85987 | 8.39590 | 132° | 42km/h | 16289m | -7.2m/s | -58.7°C | 1.7% | 104.8hPa | 2.5V | 08:08:57 | 02:46:09 | 00:00:00 | |
| DM0DOS-11 | 2026-09-06 01:04:05 | 50.86051 | 8.39503 | 139° | 71km/h | 16332m | -7.7m/s | -58.7°C | 5.4% | 104.1hPa | 2.4V | 08:08:39 | 02:46:03 | 00:00:00 | |
| HSKMA3-T | 2026-09-06 01:04:04 | 50.86003 | 8.39565 | 139° | 49km/h | 16303m | -7.4m/s | -58.7°C | 1.7% | 104.6hPa | 2.4V | 08:08:57 | 02:46:07 | 00:00:00 | |
| DO3MHA-12 | 2026-09-06 01:04:03 | 50.86014 | 8.39551 | 142° | 75km/h | 16310m | -6.9m/s | -58.6°C | 5.3% | 104.4hPa | 2.4V | 00:00:00 | 02:46:06 | 00:00:00 | |
| DL1ZP-14 | 2026-09-06 01:04:02 | 50.86025 | 8.39537 | 141° | 60km/h | 16317m | -7.4m/s | -58.7°C | 2.0% | 104.3hPa | 2.5V | 00:00:00 | 00:00:00 | 00:00:00 | |
| DD1CC8 | 2026-09-06 01:04:00 | 50.86051 | 8.39503 | 139° | 71km/h | 16332m | -7.7m/s | -58.7°C | 2.0% | 104.1hPa | 2.4V | 00:00:00 | 00:00:00 | 00:00:00 | |
| DL1XH1-15 | 2026-09-06 01:03:59 | 50.86130 | 8.39356 | 118° | 84km/h | 16377m | -7.4m/s | -58.7°C | 5.4% | 103.4hPa | 2.4V | 08:08:45 | 02:45:57 | 00:00:00 | |
| BIOWL1-15 | 2026-09-06 01:03:58 | 50.86080 | 8.39462 | 135° | 80km/h | 16347m | -7.5m/s | -58.7°C | 1.7% | 103.9hPa | 2.4V | 08:08:57 | 02:46:01 | 00:00:00 | |
| AA1-15 | 2026-09-06 01:03:56 | 50.86107 | 8.39412 | 127° | 84km/h | 16362m | -7.7m/s | -58.7°C | 1.7% | 103.6hPa | 2.5V | 08:08:57 | 02:45:59 | 00:00:00 | |
| DL1XH-west | 2026-09-06 01:03:55 | 50.86119 | 8.39385 | 123° | 84km/h | 16369m | -7.3m/s | -58.7°C | 1.7% | 103.5hPa | 2.5V | 08:08:57 | 02:45:58 | 00:00:00 | |
| HSKMA3-T | 2026-09-06 01:03:54 | 50.86130 | 8.39356 | 119° | 84km/h | 16377m | -7.4m/s | -58.7°C | 1.7% | 103.4hPa | 2.4V | 08:08:57 | 02:45:57 | 00:00:00 | |
| HARRO8 | 2026-09-06 01:03:51 | 50.86159 | 8.39243 | 106° | 66km/h | 16405m | -7.5m/s | -59.0°C | 2.0% | 102.9hPa | 2.4V | 00:00:00 | 00:00:00 | 00:00:00 | |
| DL1XH1-15 | 2026-09-06 01:03:49 | 50.86191 | 8.39132 | 134° | 46km/h | 16448m | -7.5m/s | -59°C | 5.5% | 102.2hPa | 2.4V | 08:08:55 | 02:45:47 | 00:00:00 | |
| AA1-15 | 2026-09-06 01:03:46 | 50.86177 | 8.39160 | 120° | 46km/h | 16433m | -7.3m/s | -59°C | 1.7% | 102.5hPa | 2.5V | 08:08:57 | 02:45:49 | 00:00:00 | |
| DL1XH-west | 2026-09-06 01:03:44 | 50.86191 | 8.39132 | 135° | 46km/h | 16448m | -7.5m/s | -59°C | 1.7% | 102.2hPa | 2.4V | 08:08:57 | 02:45:47 | 00:00:00 | |
| HSKMA3-T | 2026-09-06 01:03:43 | 50.86199 | 8.39120 | 141° | 47km/h | 16455m | -7.2m/s | -59°C | 1.8% | 102.1hPa | 2.4V | 08:08:57 | 02:45:46 | 00:00:00 | |
| DO3MHA-12 | 2026-09-06 01:03:43 | 50.86199 | 8.39120 | 141° | 71km/h | 16455m | -7.2m/s | -59.0°C | 5.5% | 102.0hPa | 2.5V | 00:00:00 | 02:45:46 | 00:00:00 | |
| EDDB2-12 | 2026-09-06 01:03:42 | 50.86209 | 8.39108 | 144° | 51km/h | 16462m | -7.6m/s | -59.1°C | 2.0% | 102.0hPa | 2.5V | 00:00:00 | 00:00:00 | 00:00:00 | |
| DL1XH-15 | 2026-09-06 01:03:41 | 50.86247 | 8.39067 | 144° | 69km/h | 16484m | -7m/s | -59.2°C | 5.7% | 101.6hPa | 2.5V | 08:09:00 | 02:45:42 | 00:00:00 | |
| DD8BA-10 | 2026-09-06 01:03:41 | 50.86221 | 8.39095 | 147° | 78km/h | 16470m | -7.2m/s | -59.1°C | 5.6% | 101.8hPa | 2.4V | 08:08:00 | 00:00:00 | 00:00:00 | |
| DJTTGO | 2026-09-06 01:03:40 | 50.86221 | 8.39095 | 147° | 58km/h | 16470m | -7.3m/s | -59.1°C | 2.1% | 101.9hPa | 2.5V | 08:09:00 | 00:00:00 | 00:00:00 | |
| DL1XH1-15 | 2026-09-06 01:03:39 | 50.86321 | 8.38954 | 127° | 88km/h | 16520m | -7.7m/s | -59.2°C | 5.7% | 101.1hPa | 2.5V | 08:09:05 | 02:45:37 | 00:00:00 | |
| DO3MHA-11 | 2026-09-06 01:03:38 | 50.86262 | 8.39049 | 142° | 84km/h | 16492m | -7.1m/s | -59.2°C | 5.7% | 101.4hPa | 2.4V | 08:09:00 | 02:45:41 | 00:00:00 | |
| BIOWL9-15 | 2026-09-06 01:03:37 | 50.86277 | 8.39029 | 138° | 80km/h | 16498m | -6.8m/s | -59.3°C | 2.1% | 101.4hPa | 2.5V | 00:00:00 | 00:00:00 | 00:00:00 | |
| DB0ND-19 | 2026-09-06 01:03:36 | 50.86292 | 8.39006 | 134° | 84km/h | 16506m | -7.5m/s | -59.3°C | 2.1% | 101.3hPa | 2.5V | 00:00:00 | 00:00:00 | 00:00:00 | |
| DM0DOS-11 | 2026-09-06 01:03:35 | 50.86365 | 8.38835 | 113° | 82km/h | 16550m | -7.7m/s | -59.1°C | 5.6% | 100.6hPa | 2.5V | 08:09:09 | 02:45:33 | 00:00:00 | |
| AA1-15 | 2026-09-06 01:03:35 | 50.86307 | 8.38981 | 131° | 88km/h | 16513m | -7.1m/s | -59.3°C | 1.7% | 101.2hPa | 2.5V | 08:13:12 | 02:45:38 | 00:00:00 | |
| DL1XH-west | 2026-09-06 01:03:34 | 50.86321 | 8.38954 | 127° | 88km/h | 16520m | -7.7m/s | -59.2°C | 1.8% | 101.1hPa | 2.5V | 08:09:48 | 02:45:37 | 00:00:00 | |
| HSKMA3-T | 2026-09-06 01:03:32 | 50.86346 | 8.38896 | 121° | 88km/h | 16535m | -7.7m/s | -59.1°C | 1.7% | 100.8hPa | 2.4V | 08:09:48 | 02:45:35 | 00:00:00 | |
| DL1ZP-14 | 2026-09-06 01:03:31 | 50.86365 | 8.38835 | 113° | 82km/h | 16550m | -7.7m/s | -59.1°C | 2.0% | 100.6hPa | 2.5V | 00:00:00 | 00:00:00 | 00:00:00 | |
| DL1XH1-15 | 2026-09-06 01:03:29 | 50.86395 | 8.38675 | 104° | 53km/h | 16594m | -7.2m/s | -59.2°C | 5.6% | 99.8hPa | 2.5V | 08:09:15 | 02:45:27 | 00:00:00 | |
| DJ2DS-15 | 2026-09-06 01:03:29 | 50.86373 | 8.38805 | 110° | 64km/h | 16558m | -7.3m/s | -59.1°C | 5.6% | 100.4hPa | 2.5V | 00:00:00 | 02:45:32 | 00:00:00 | |
| DO3MHA-11 | 2026-09-06 01:03:28 | 50.86379 | 8.38775 | 107° | 55km/h | 16565m | -7.4m/s | -59.1°C | 5.6% | 100.2hPa | 2.4V | 00:00:00 | 02:45:31 | 00:00:00 | |
| DO1YAY-16 | 2026-09-06 01:03:27 | 50.86388 | 8.38721 | 103° | 64km/h | 16580m | -7.4m/s | -59.2°C | 2.1% | 100.0hPa | 2.4V | 00:00:00 | 00:00:00 | 00:00:00 | |
| DM0DOS-11 | 2026-09-06 01:03:25 | 50.86414 | 8.38608 | 128° | 44km/h | 16623m | -7.2m/s | -59.1°C | 5.6% | 99.4hPa | 2.4V | 08:09:19 | 02:45:23 | 00:00:00 | |
| AA1-15 | 2026-09-06 01:03:25 | 50.86392 | 8.38697 | 103° | 60km/h | 16587m | -7m/s | -59.2°C | 1.8% | 99.9hPa | 2.4V | 08:13:12 | 02:45:28 | 00:00:00 | |
| DL1XH-15 | 2026-09-06 01:03:24 | 50.86422 | 8.38595 | 133° | 46km/h | 16630m | -7.3m/s | -59.1°C | 5.5% | 99.3hPa | 2.4V | 08:09:20 | 02:45:22 | 00:00:00 | |
| DL1XH-west | 2026-09-06 01:03:23 | 50.86399 | 8.38656 | 108° | 49km/h | 16601m | -6.7m/s | -59.2°C | 1.7% | 99.7hPa | 2.5V | 08:09:48 | 02:45:26 | 00:00:00 | |
| HSKMA3-T | 2026-09-06 01:03:22 | 50.86403 | 8.38638 | 114° | 46km/h | 16608m | -7.2m/s | -59.2°C | 1.8% | 99.6hPa | 2.4V | 08:09:48 | 02:45:25 | 00:00:00 | |
| DD1CC3-15 | 2026-09-06 01:03:22 | 50.86408 | 8.38622 | 122° | 44km/h | 16616m | -7.2m/s | -59.1°C | 2.1% | 99.5hPa | 2.4V | 08:09:00 | 00:00:00 | 00:00:00 | |
| DD8BA-10 | 2026-09-06 01:03:21 | 50.86408 | 8.38622 | 121° | 58km/h | 16616m | -7.2m/s | -59.1°C | 5.6% | 99.5hPa | 2.4V | 00:00:00 | 00:00:00 | 00:00:00 | |
| HARRO8 | 2026-09-06 01:03:20 | 50.86422 | 8.38595 | 133° | 46km/h | 16630m | -7.3m/s | -59.1°C | 2.0% | 99.3hPa | 2.4V | 00:00:00 | 00:00:00 | 00:00:00 | |
| DL1XH1-15 | 2026-09-06 01:03:19 | 50.86477 | 8.38523 | 140° | 71km/h | 16670m | -7.6m/s | -58.9°C | 5.4% | 98.6hPa | 2.4V | 08:09:25 | 02:45:17 | 00:00:00 | |
| DO3MHA-11 | 2026-09-06 01:03:18 | 50.86430 | 8.38582 | 139° | 71km/h | 16638m | -7.8m/s | -59.0°C | 5.5% | 99.1hPa | 2.6V | 00:00:00 | 02:45:21 | 00:00:00 | |
| DB0NH | 2026-09-06 01:03:17 | 50.86440 | 8.38568 | 142° | 62km/h | 16646m | -8.2m/s | -58.9°C | 5.4% | 99.0hPa | 2.6V | 00:00:00 | 02:45:20 | 00:00:00 | |
| DM0DOS-11 | 2026-09-06 01:03:15 | 50.86534 | 8.38431 | 128° | 88km/h | 16700m | -7.2m/s | -58.9°C | 5.5% | 98.2hPa | 2.6V | 08:09:29 | 02:45:13 | 00:00:00 | |
| AA1-15 | 2026-09-06 01:03:14 | 50.86477 | 8.38523 | 141° | 71km/h | 16670m | -7.6m/s | -58.9°C | 1.6% | 98.6hPa | 2.4V | 08:13:12 | 02:45:17 | 00:00:00 | |
| DL1XH-west | 2026-09-06 01:03:13 | 50.86491 | 8.38504 | 138° | 77km/h | 16677m | -7.4m/s | -58.9°C | 1.6% | 98.5hPa | 2.4V | 08:09:48 | 02:45:16 | 00:00:00 | |
| DO3MHA-12 | 2026-09-06 01:03:13 | 50.86491 | 8.38503 | 139° | 80km/h | 16677m | -7.4m/s | -58.8°C | 5.4% | 98.5hPa | 2.5V | 00:00:00 | 02:45:16 | 00:00:00 | |
| DL1LOL-11 | 2026-09-06 01:03:12 | 50.86491 | 8.38503 | 139° | 77km/h | 16677m | -7.4m/s | -58.9°C | 1.9% | 98.5hPa | 2.5V | 08:09:00 | 00:00:00 | 00:00:00 | |
| DL1XH-15 | 2026-09-06 01:03:11 | 50.86547 | 8.38403 | 124° | 88km/h | 16707m | -7m/s | -58.9°C | 5.5% | 98.1hPa | 2.5V | 08:09:30 | 02:45:12 | 00:00:00 | |
| HSKMA3-T | 2026-09-06 01:03:11 | 50.86520 | 8.38458 | 131° | 86km/h | 16692m | -8.1m/s | -58.9°C | 1.7% | 98.3hPa | 2.5V | 08:09:48 | 02:45:14 | 00:00:00 | |
| DB0DAN | 2026-09-06 01:03:10 | 50.86534 | 8.38432 | 128° | 82km/h | 16700m | -7.2m/s | -58.9°C | 0% | 0hPa | 2.6V | 00:00:00 | 00:00:00 | 00:00:00 | |
| DL1XH1-15 | 2026-09-06 01:03:09 | 50.86590 | 8.38262 | 107° | 68km/h | 16742m | -7.3m/s | -58.8°C | 5.4% | 97.5hPa | 2.4V | 08:09:35 | 02:45:07 | 00:00:00 | |
| DJ2DS-15 | 2026-09-06 01:03:09 | 50.86547 | 8.38403 | 125° | 57km/h | 16707m | -6.9m/s | -58.8°C | 5.5% | 98.0hPa | 2.5V | 00:00:00 | 02:45:12 | 00:00:00 | |
| DO3MHA-11 | 2026-09-06 01:03:08 | 50.86559 | 8.38374 | 121° | 66km/h | 16714m | -7.0m/s | -58.8°C | 5.5% | 97.9hPa | 2.5V | 00:00:00 | 02:45:11 | 00:00:00 | |
| DL3AQ-11 | 2026-09-06 01:03:05 | 50.86590 | 8.38262 | 107° | 68km/h | 16742m | -7.3m/s | -58.8°C | 1.9% | 97.5hPa | 2.4V | 00:00:00 | 00:00:00 | 00:00:00 | |
| DL1XH-15 | 2026-09-06 01:03:04 | 50.86610 | 8.38154 | 110° | 44km/h | 16781m | -8m/s | -58.8°C | 5.3% | 96.9hPa | 2.4V | 08:09:40 | 02:45:02 | 00:00:00 | |
| BIOWL1-15 | 2026-09-06 01:03:02 | 50.86607 | 8.38172 | 107° | 49km/h | 16773m | -7.5m/s | -58.7°C | 1.6% | 97.1hPa | 2.4V | 08:09:48 | 02:45:03 | 00:00:00 | |
| DL1XH-west | 2026-09-06 01:03:02 | 50.86599 | 8.38213 | 106° | 58km/h | 16758m | -7.5m/s | -58.7°C | 1.6% | 97.3hPa | 2.5V | 08:09:48 | 02:45:05 | 00:00:00 | |
| HSKMA3-T | 2026-09-06 01:03:01 | 50.86603 | 8.38191 | 106° | 55km/h | 16766m | -7.8m/s | -58.7°C | 1.6% | 97.2hPa | 2.4V | 08:09:48 | 02:45:04 | 00:00:00 | |
| DF3TZ-5 | 2026-09-06 01:03:01 | 50.86607 | 8.38172 | 106° | 49km/h | 16773m | -7.5m/s | -58.7°C | 1.9% | 97.1hPa | 2.4V | 00:00:00 | 00:00:00 | 00:00:00 | |
| DL1ZP-14 | 2026-09-06 01:03:00 | 50.86611 | 8.38154 | 110° | 44km/h | 16781m | -8.0m/s | -58.8°C | 1.9% | 97.0hPa | 2.4V | 00:00:00 | 00:00:00 | 00:00:00 | |
| DL1XH1-15 | 2026-09-06 01:02:59 | 50.86637 | 8.38092 | 141° | 38km/h | 16819m | -7.3m/s | -58.7°C | 5.3% | 96.3hPa | 2.4V | 08:09:45 | 02:44:57 | 00:00:00 | |
| DO2JMG | 2026-09-06 01:02:56 | 50.86624 | 8.38113 | 128° | 35km/h | 16805m | -7.4m/s | -58.8°C | 1.5% | 96.5hPa | 2.5V | 08:09:48 | 02:44:59 | 00:00:00 | |
| DL1XH-west | 2026-09-06 01:02:52 | 50.86656 | 8.38073 | 148° | 49km/h | 16834m | -7.3m/s | -58.7°C | 1.6% | 96.1hPa | 2.4V | 08:09:48 | 02:44:55 | 00:00:00 | |
| DL1XH-15 | 2026-09-06 01:02:51 | 50.86692 | 8.38033 | 140° | 66km/h | 16856m | -7.3m/s | -58.9°C | 5.3% | 95.8hPa | 2.6V | 08:09:50 | 02:44:52 | 00:00:00 | |
| HSKMA3-T | 2026-09-06 01:02:50 | 50.86679 | 8.38049 | 144° | 60km/h | 16849m | -7m/s | -58.8°C | 1.5% | 95.9hPa | 2.5V | 08:10:39 | 02:44:53 | 00:00:00 | |
| DL1XH1-15 | 2026-09-06 01:02:49 | 50.86749 | 8.37923 | 118° | 75km/h | 16894m | -8.1m/s | -59.1°C | 5.4% | 95.2hPa | 2.4V | 08:09:55 | 02:44:47 | 00:00:00 | |
| HARRO8 | 2026-09-06 01:02:48 | 50.86704 | 8.38016 | 136° | 68km/h | 16863m | -7.1m/s | -59.0°C | 1.9% | 95.7hPa | 2.4V | 00:00:00 | 00:00:00 | 00:00:00 | |
| EDDB2-11 | 2026-09-06 01:02:47 | 50.86717 | 8.37995 | 132° | 71km/h | 16871m | -7.7m/s | -59.1°C | 1.9% | 95.6hPa | 2.4V | 00:00:00 | 00:00:00 | 00:00:00 | |
| DJ2DS-15 | 2026-09-06 01:02:46 | 50.86739 | 8.37949 | 122° | 75km/h | 16886m | -7.8m/s | -59.1°C | 1.9% | 95.3hPa | 2.4V | 00:00:00 | 00:00:00 | 00:00:00 | |
| DM0DOS-11 | 2026-09-06 01:02:45 | 50.86774 | 8.37814 | 101° | 68km/h | 16926m | -7.4m/s | -59.1°C | 5.5% | 94.7hPa | 2.4V | 08:09:59 | 02:44:43 | 00:00:00 | |
| DO2JMG | 2026-09-06 01:02:45 | 50.86739 | 8.37949 | 123° | 75km/h | 16886m | -7.8m/s | -59.1°C | 1.6% | 95.3hPa | 2.4V | 08:10:39 | 02:44:48 | 00:00:00 | |
| DL1XH-west | 2026-09-06 01:02:42 | 50.86764 | 8.37868 | 109° | 73km/h | 16910m | -8.5m/s | -59.2°C | 1.5% | 94.9hPa | 2.5V | 08:10:39 | 02:44:45 | 00:00:00 | |
| HSKMA3-T | 2026-09-06 01:02:40 | 50.86774 | 8.37814 | 101° | 68km/h | 16926m | -7.4m/s | -59.1°C | 1.6% | 94.7hPa | 2.4V | 08:10:39 | 02:44:43 | 00:00:00 | |
| DO2JMG | 2026-09-06 01:02:35 | 50.86781 | 8.37704 | 97° | 42km/h | 16964m | -7.5m/s | -59.1°C | 1.6% | 94.2hPa | 2.4V | 08:10:39 | 02:44:38 | 00:00:00 | |
| DJ8HS-15 | 2026-09-06 01:02:35 | 50.86781 | 8.37704 | 97° | 64km/h | 16964m | -7.4m/s | -59.0°C | 5.7% | 94.1hPa | 2.4V | 00:00:00 | 02:44:38 | 00:00:00 | |
| DM0DOS-11 | 2026-09-06 01:02:34 | 50.86804 | 8.37631 | 132° | 49km/h | 17001m | -7.7m/s | -59.1°C | 5.8% | 93.6hPa | 2.4V | 08:10:09 | 02:44:33 | 00:00:00 | |
| DL1XH-west | 2026-09-06 01:02:32 | 50.86790 | 8.37659 | 120° | 40km/h | 16986m | -7m/s | -59.2°C | 1.7% | 93.8hPa | 2.5V | 08:10:39 | 02:44:35 | 00:00:00 | |
| HSKMA3-T | 2026-09-06 01:02:30 | 50.86804 | 8.37631 | 133° | 49km/h | 17001m | -7.7m/s | -59.1°C | 1.8% | 93.6hPa | 2.4V | 08:10:39 | 02:44:33 | 00:00:00 | |
| DL1XH1-15 | 2026-09-06 01:02:29 | 50.86870 | 8.37535 | 137° | 69km/h | 17050m | -8.5m/s | -58.6°C | 5.5% | 92.9hPa | 2.4V | 08:10:15 | 02:44:27 | 00:00:00 | |
| AA1-15 | 2026-09-06 01:02:28 | 50.86823 | 8.37602 | 137° | 55km/h | 17016m | -7.6m/s | -58.8°C | 1.6% | 93.4hPa | 2.4V | 08:13:12 | 02:44:31 | 00:00:00 | |
| DO3MHA-11 | 2026-09-06 01:02:28 | 50.86823 | 8.37602 | 138° | 71km/h | 17016m | -7.6m/s | -58.8°C | 5.6% | 93.3hPa | 2.4V | 00:00:00 | 02:44:31 | 00:00:00 | |
| DD1CC8 | 2026-09-06 01:02:27 | 50.86833 | 8.37587 | 138° | 58km/h | 17024m | -7.6m/s | -58.7°C | 1.9% | 93.3hPa | 2.4V | 00:00:00 | 00:00:00 | 00:00:00 | |
| DL1XH-15 | 2026-09-06 01:02:24 | 50.86938 | 8.37420 | 127° | 88km/h | 17091m | -8.1m/s | -58.3°C | 5.5% | 92.2hPa | 2.4V | 08:10:20 | 02:44:22 | 00:00:00 | |
| DM0DOS-11 | 2026-09-06 01:02:24 | 50.86925 | 8.37446 | 130° | 86km/h | 17083m | -8.2m/s | -58.5°C | 5.5% | 92.3hPa | 2.5V | 08:10:19 | 02:44:23 | 00:00:00 | |
| DO2JMG | 2026-09-06 01:02:24 | 50.86870 | 8.37535 | 138° | 69km/h | 17050m | -8.5m/s | -58.6°C | 1.6% | 92.9hPa | 2.4V | 08:10:39 | 02:44:27 | 00:00:00 | |
| DL1XH-west | 2026-09-06 01:02:22 | 50.86897 | 8.37494 | 135° | 78km/h | 17067m | -8.2m/s | -58.6°C | 1.5% | 92.6hPa | 2.4V | 08:10:39 | 02:44:25 | 00:00:00 | |
| BIOWL1-15 | 2026-09-06 01:02:21 | 50.86911 | 8.37471 | 133° | 82km/h | 17075m | -8.3m/s | -58.5°C | 1.5% | 92.5hPa | 2.5V | 08:10:39 | 02:44:24 | 00:00:00 | |
| HSKMA3-T | 2026-09-06 01:02:19 | 50.86938 | 8.37420 | 127° | 88km/h | 17092m | -8.1m/s | -58.4°C | 1.5% | 92.2hPa | 2.4V | 08:10:39 | 02:44:22 | 00:00:00 | |
| AA1-15 | 2026-09-06 01:02:17 | 50.86963 | 8.37361 | 119° | 88km/h | 17107m | -7.9m/s | -58.2°C | 1.5% | 92hPa | 2.4V | 08:13:12 | 02:44:20 | 00:00:00 | |
| DB0NH | 2026-09-06 01:02:17 | 50.86963 | 8.37361 | 120° | 64km/h | 17107m | -7.8m/s | -58.2°C | 5.4% | 92.0hPa | 2.4V | 00:00:00 | 02:44:20 | 00:00:00 | |
| DO9LL-15 | 2026-09-06 01:02:16 | 50.86973 | 8.37330 | 116° | 62km/h | 17115m | -7.3m/s | -58.2°C | 5.4% | 91.9hPa | 2.4V | 00:00:00 | 02:44:19 | 00:00:00 | |
| DJ8HS-15 | 2026-09-06 01:02:15 | 50.86981 | 8.37300 | 112° | 58km/h | 17122m | -7.5m/s | -58.2°C | 5.4% | 91.8hPa | 2.4V | 00:00:00 | 02:44:18 | 00:00:00 | |
| DM0DOS-11 | 2026-09-06 01:02:14 | 50.87006 | 8.37169 | 103° | 55km/h | 17164m | -8.8m/s | -57.5°C | 5.1% | 91.2hPa | 2.4V | 08:10:29 | 02:44:13 | 00:00:00 | |
| DO2JMG | 2026-09-06 01:02:14 | 50.86988 | 8.37270 | 109° | 77km/h | 17130m | -8.1m/s | -58.2°C | 1.4% | 91.7hPa | 2.5V | 08:10:39 | 02:44:17 | 00:00:00 | |
| DL1XH-west | 2026-09-06 01:02:11 | 50.87002 | 8.37191 | 104° | 60km/h | 17155m | -8.3m/s | -57.7°C | 1.4% | 91.3hPa | 2.4V | 08:10:39 | 02:44:14 | 00:00:00 | |
| DB0DAN | 2026-09-06 01:02:10 | 50.87006 | 8.37169 | 104° | 51km/h | 17164m | -8.8m/s | -57.5°C | 0% | 0hPa | 2.4V | 00:00:00 | 00:00:00 | 00:00:00 | |
| BIOWL1-15 | 2026-09-06 01:02:10 | 50.87006 | 8.37169 | 104° | 55km/h | 17164m | -8.8m/s | -57.5°C | 1.4% | 91.2hPa | 2.4V | 08:10:39 | 02:44:13 | 00:00:00 | |
| DL1XH-15 | 2026-09-06 01:02:10 | 50.87009 | 8.37149 | 105° | 47km/h | 17172m | -8.8m/s | -57.4°C | 5.1% | 91.1hPa | 2.4V | 08:10:30 | 02:44:12 | 00:00:00 | |
| DL1XH1-15 | 2026-09-06 01:02:09 | 50.87034 | 8.37081 | 140° | 40km/h | 17217m | -8.6m/s | -57°C | 5.1% | 90.4hPa | 2.4V | 08:10:35 | 02:44:07 | 00:00:00 | |
| HSKMA3-T | 2026-09-06 01:02:08 | 50.87013 | 8.37131 | 109° | 44km/h | 17182m | -9.2m/s | -57.3°C | 1.3% | 90.9hPa | 2.4V | 08:10:39 | 02:44:11 | 00:00:00 | |
| AA1-15 | 2026-09-06 01:02:06 | 50.87021 | 8.37103 | 124° | 37km/h | 17200m | -8.8m/s | -57.2°C | 1.4% | 90.7hPa | 2.5V | 08:13:12 | 02:44:09 | 00:00:00 | |
| DM0DOS-11 | 2026-09-06 01:02:04 | 50.87076 | 8.37031 | 139° | 66km/h | 17250m | -8.1m/s | -57°C | 5.1% | 90hPa | 2.6V | 08:10:39 | 02:44:03 | 00:00:00 | |
| DL1XH-15 | 2026-09-06 01:02:04 | 50.87089 | 8.37012 | 134° | 71km/h | 17257m | -7.9m/s | -57.1°C | 5% | 89.9hPa | 2.5V | 08:10:40 | 02:44:02 | 00:00:00 | |
| DO2JMG | 2026-09-06 01:02:03 | 50.87042 | 8.37070 | 145° | 46km/h | 17225m | -8m/s | 0°C | 0% | 90.3hPa | 2.4V | 08:10:39 | 02:44:06 | 00:00:00 | |
| BIOWL1-15 | 2026-09-06 01:02:01 | 50.87089 | 8.37012 | 134° | 71km/h | 17257m | -7.9m/s | -57.1°C | 1.3% | 89.9hPa | 2.5V | 08:11:30 | 02:44:02 | 00:00:00 | |
| DL1XH-west | 2026-09-06 01:02:01 | 50.87064 | 8.37046 | 143° | 58km/h | 17241m | -8.4m/s | -57°C | 1.3% | 90.1hPa | 2.4V | 08:10:39 | 02:44:04 | 00:00:00 | |
| BUE01 | 2026-09-06 01:02:01 | 50.87076 | 8.37031 | 139° | 64km/h | 17250m | -8.1m/s | -57.0°C | 1.7% | 90.0hPa | 2.5V | 00:00:00 | 00:00:00 | 00:00:00 | |
| DL1XH1-15 | 2026-09-06 01:01:59 | 50.87140 | 8.36881 | 109° | 80km/h | 17301m | -8.8m/s | -56.8°C | 5% | 89.2hPa | 2.5V | 08:10:45 | 02:43:57 | 00:00:00 | |
| HSKMA3-T | 2026-09-06 01:01:57 | 50.87113 | 8.36966 | 124° | 77km/h | 17274m | -8.5m/s | -57°C | 1.3% | 89.6hPa | 2.4V | 08:11:30 | 02:44:00 | 00:00:00 | |
| DD1CC8 | 2026-09-06 01:01:56 | 50.87123 | 8.36940 | 119° | 78km/h | 17283m | -8.7m/s | -57.0°C | 1.7% | 89.5hPa | 2.5V | 00:00:00 | 00:00:00 | 00:00:00 | |
| DB0DAN | 2026-09-06 01:01:55 | 50.87132 | 8.36911 | 114° | 77km/h | 17292m | -9.2m/s | -57°C | 0% | 0hPa | 2.5V | 00:00:00 | 00:00:00 | 00:00:00 | |
| DJ8HS-15 | 2026-09-06 01:01:55 | 50.87132 | 8.36911 | 114° | 62km/h | 17292m | -9.2m/s | -56.9°C | 5.0% | 89.4hPa | 2.5V | 00:00:00 | 02:43:58 | 00:00:00 | |
| DM0DOS-11 | 2026-09-06 01:01:54 | 50.87152 | 8.36764 | 89° | 68km/h | 17336m | -8.7m/s | -56.6°C | 4.8% | 88.8hPa | 2.5V | 08:10:49 | 02:43:53 | 00:00:00 | |
| DO2JMG | 2026-09-06 01:01:53 | 50.87145 | 8.36851 | 105° | 78km/h | 17310m | -9m/s | 0°C | 0% | 89.1hPa | 2.4V | 18:12:15 | 02:43:56 | 00:00:00 | |
| AU51GT2 | 2026-09-06 01:01:52 | 50.87150 | 8.36821 | 99° | 75km/h | 17319m | -8.5m/s | -56.7°C | 1.6% | 89.0hPa | 2.6V | 00:00:00 | 00:00:00 | 00:00:00 | |
| HTAHTA | 2026-09-06 01:01:51 | 50.87152 | 8.36792 | 94° | 71km/h | 17328m | -9.0m/s | -56.6°C | 1.6% | 88.9hPa | 2.6V | 00:00:00 | 00:00:00 | 00:00:00 | |
| DL1XH-15 | 2026-09-06 01:01:50 | 50.87152 | 8.36738 | 85° | 64km/h | 17346m | -9.8m/s | -56.6°C | 4.8% | 88.6hPa | 2.6V | 08:10:50 | 02:43:52 | 00:00:00 | |
| DL1XH-west | 2026-09-06 01:01:50 | 50.87152 | 8.36764 | 89° | 68km/h | 17336m | -8.7m/s | -56.7°C | 1.2% | 88.8hPa | 2.5V | 08:11:30 | 02:43:53 | 00:00:00 | |
| AA1-15 | 2026-09-06 01:01:48 | 50.87150 | 8.36713 | 83° | 58km/h | 17355m | -9.8m/s | -56.7°C | 1.2% | 88.5hPa | 2.5V | 08:13:12 | 02:43:51 | 00:00:00 | |
| HSKMA3-T | 2026-09-06 01:01:47 | 50.87148 | 8.36691 | 80° | 53km/h | 17365m | -9.5m/s | -56.6°C | 1.2% | 88.4hPa | 2.5V | 08:11:30 | 02:43:50 | 00:00:00 | |
| DB0UT-7 | 2026-09-06 01:01:47 | 50.87148 | 8.36691 | 80° | 62km/h | 17365m | -9.5m/s | -56.5°C | 4.8% | 88.3hPa | 2.6V | 00:00:00 | 02:43:50 | 00:00:00 | |
| DO9LL-15 | 2026-09-06 01:01:46 | 50.87146 | 8.36672 | 80° | 62km/h | 17375m | -9.2m/s | -56.4°C | 4.8% | 88.2hPa | 2.6V | 00:00:00 | 02:43:49 | 00:00:00 | |
| DL3AQ-11 | 2026-09-06 01:01:45 | 50.87144 | 8.36639 | 92° | 35km/h | 17393m | -9.0m/s | -56.3°C | 1.6% | 88.0hPa | 2.6V | 00:00:00 | 00:00:00 | 00:00:00 | |
| DM0DOS-11 | 2026-09-06 01:01:44 | 50.87160 | 8.36574 | 119° | 58km/h | 17428m | -8.4m/s | -56.3°C | 4.6% | 87.5hPa | 2.6V | 08:10:59 | 02:43:43 | 00:00:00 | |
| DL4BBY-15 | 2026-09-06 01:01:44 | 50.87144 | 8.36639 | 93° | 66km/h | 17393m | -9.0m/s | -58.7°C | 0% | 0hPa | 2.5V | 00:00:00 | 00:00:00 | 00:00:00 | |
| DL1XH-15 | 2026-09-06 01:01:43 | 50.87168 | 8.36552 | 117° | 68km/h | 17437m | -8.8m/s | -56.3°C | 4.6% | 87.3hPa | 2.5V | 08:11:00 | 02:43:42 | 00:00:00 | |
| DO2JMG | 2026-09-06 01:01:42 | 50.87148 | 8.36610 | 115° | 42km/h | 17410m | -8.6m/s | 0°C | 0% | 0hPa | 2.5V | 18:12:15 | 02:43:45 | 00:00:00 | |
| DL1XH-west | 2026-09-06 01:01:40 | 50.87160 | 8.36574 | 119° | 58km/h | 17428m | -8.4m/s | -56.3°C | 1.1% | 87.5hPa | 2.6V | 08:11:30 | 02:43:43 | 00:00:00 | |
| DL1NUX | 2026-09-06 01:01:38 | 50.87198 | 8.36359 | 90° | 91km/h | 17494m | -9.8m/s | -56.5°C | 4.9% | 86.5hPa | 2.5V | 08:11:06 | 02:43:36 | 00:00:00 | |
| BIOWL1-15 | 2026-09-06 01:01:37 | 50.87183 | 8.36497 | 109° | 80km/h | 17456m | -9m/s | -56.4°C | 1.1% | 87.1hPa | 2.4V | 08:11:30 | 02:43:40 | 00:00:00 | |
| DJ8HS-15 | 2026-09-06 01:01:35 | 50.87193 | 8.36431 | 101° | 68km/h | 17476m | -9.3m/s | -56.3°C | 4.7% | 86.8hPa | 2.4V | 00:00:00 | 02:43:38 | 00:00:00 | |
| DM0DOS-11 | 2026-09-06 01:01:34 | 50.87192 | 8.36258 | 78° | 77km/h | 17521m | -9m/s | -56.7°C | 5% | 86.2hPa | 2.4V | 08:11:09 | 02:43:33 | 00:00:00 | |
| DL3AQ-11 | 2026-09-06 01:01:34 | 50.87198 | 8.36359 | 90° | 89km/h | 17494m | -9.8m/s | -56.5°C | 1.6% | 86.5hPa | 2.5V | 00:00:00 | 00:00:00 | 00:00:00 | |
| DO3MHA-12 | 2026-09-06 01:01:33 | 50.87198 | 8.36359 | 91° | 66km/h | 17495m | -9.7m/s | -56.4°C | 4.9% | 86.5hPa | 2.5V | 00:00:00 | 02:43:36 | 00:00:00 | |
| DB0ND-19 | 2026-09-06 01:01:32 | 50.87198 | 8.36324 | 86° | 88km/h | 17503m | -8.6m/s | -56.5°C | 1.6% | 86.4hPa | 2.5V | 00:00:00 | 00:00:00 | 00:00:00 | |
| DL1XH-15 | 2026-09-06 01:01:30 | 50.87188 | 8.36229 | 75° | 69km/h | 17530m | -8.5m/s | -56.7°C | 5% | 86.1hPa | 2.5V | 08:11:10 | 02:43:32 | 00:00:00 | |
| DL1XH-west | 2026-09-06 01:01:29 | 50.87188 | 8.36229 | 76° | 69km/h | 17530m | -8.5m/s | -56.7°C | 1.3% | 86.1hPa | 2.5V | 08:11:30 | 02:43:32 | 00:00:00 | |
| DJ2DS-15 | 2026-09-06 01:01:29 | 50.87188 | 8.36229 | 76° | 68km/h | 17530m | -8.5m/s | -56.6°C | 5.0% | 86.0hPa | 2.5V | 00:00:00 | 02:43:32 | 00:00:00 | |
| DO3MHA-11 | 2026-09-06 01:01:28 | 50.87184 | 8.36203 | 75° | 51km/h | 17539m | -9.9m/s | -56.6°C | 5.0% | 85.9hPa | 2.5V | 00:00:00 | 02:43:31 | 00:00:00 | |
| DO3DL | 2026-09-06 01:01:27 | 50.87184 | 8.36203 | 76° | 60km/h | 17539m | -9.9m/s | -56.6°C | 1.7% | 85.9hPa | 2.5V | 08:11:00 | 00:00:00 | 00:00:00 | |
| DL1XH1-15 | 2026-09-06 01:01:26 | 50.87178 | 8.36127 | 100° | 40km/h | 17575m | -8.9m/s | -56.3°C | 4.8% | 85.5hPa | 2.5V | 08:11:15 | 02:43:27 | 00:00:00 | |
| HSKMA3-T | 2026-09-06 01:01:26 | 50.87178 | 8.36161 | 81° | 47km/h | 17557m | -8.7m/s | -56.4°C | 1.2% | 85.7hPa | 2.4V | 08:11:30 | 02:43:29 | 00:00:00 | |
| DD1CC8 | 2026-09-06 01:01:25 | 50.87177 | 8.36143 | 90° | 42km/h | 17566m | -9.4m/s | -56.4°C | 1.6% | 85.6hPa | 2.4V | 00:00:00 | 00:00:00 | 00:00:00 | |
| DL1XH-15 | 2026-09-06 01:01:24 | 50.87210 | 8.36040 | 126° | 66km/h | 17622m | -9.1m/s | -56°C | 4.6% | 84.8hPa | 2.4V | 08:11:20 | 02:43:22 | 00:00:00 | |
| DO3MHA-12 | 2026-09-06 01:01:23 | 50.87181 | 8.36111 | 112° | 68km/h | 17585m | -9.8m/s | -56.2°C | 4.7% | 85.3hPa | 2.5V | 00:00:00 | 02:43:26 | 00:00:00 | |
| DO1YAY-16 | 2026-09-06 01:01:22 | 50.87186 | 8.36095 | 118° | 46km/h | 17594m | -9.1m/s | -56.3°C | 1.6% | 85.2hPa | 2.5V | 00:00:00 | 00:00:00 | 00:00:00 | |
| DD8BA-10 | 2026-09-06 01:01:21 | 50.87192 | 8.36078 | 125° | 77km/h | 17603m | -9.0m/s | -56.2°C | 4.7% | 85.0hPa | 2.5V | 00:00:00 | 00:00:00 | 00:00:00 | |
| DM0DOS-11 | 2026-09-06 01:01:19 | 50.87252 | 8.35935 | 116° | 88km/h | 17660m | -9.4m/s | -55.9°C | 4.5% | 84.3hPa | 2.5V | 08:11:24 | 02:43:18 | 00:00:00 | |
| DL1XH1-15 | 2026-09-06 01:01:19 | 50.87262 | 8.35903 | 112° | 91km/h | 17669m | -8.4m/s | -55.9°C | 4.6% | 84.2hPa | 2.4V | 08:11:25 | 02:43:17 | 00:00:00 | |
| DL1XH-west | 2026-09-06 01:01:19 | 50.87210 | 8.36040 | 127° | 66km/h | 17622m | -9.1m/s | -56°C | 1.1% | 84.8hPa | 2.4V | 08:11:30 | 02:43:22 | 00:00:00 | |
| HSKMA3-T | 2026-09-06 01:01:16 | 50.87242 | 8.35966 | 121° | 84km/h | 17650m | -9.8m/s | -56°C | 1.1% | 84.4hPa | 2.6V | 08:11:30 | 02:43:19 | 00:00:00 | |
| BIOWL1-15 | 2026-09-06 01:01:15 | 50.87281 | 8.35768 | 94° | 78km/h | 17704m | -8.5m/s | -56.2°C | 1.2% | 83.7hPa | 2.6V | 08:11:30 | 02:43:13 | 00:00:00 | |
| DJ8HS-15 | 2026-09-06 01:01:15 | 50.87252 | 8.35935 | 117° | 68km/h | 17660m | -9.4m/s | -55.8°C | 4.5% | 84.2hPa | 2.6V | 00:00:00 | 02:43:18 | 00:00:00 | |
| DL4BBY-15 | 2026-09-06 01:01:14 | 50.87261 | 8.35903 | 113° | 66km/h | 17669m | -8.4m/s | -58.3°C | 0% | 0hPa | 2.6V | 00:00:00 | 00:00:00 | 00:00:00 | |
| DO3MHA-12 | 2026-09-06 01:01:13 | 50.87269 | 8.35869 | 108° | 66km/h | 17677m | -8.6m/s | -55.9°C | 4.6% | 84.0hPa | 2.6V | 00:00:00 | 02:43:16 | 00:00:00 | |
| DL1XH-15 | 2026-09-06 01:01:10 | 50.87282 | 8.35739 | 91° | 69km/h | 17713m | -10m/s | -56.2°C | 4.7% | 83.6hPa | 2.6V | 08:11:30 | 02:43:12 | 00:00:00 | |
| DL1XH1-15 | 2026-09-06 01:01:09 | 50.87290 | 8.35636 | 118° | 40km/h | 17758m | -9.2m/s | -55.9°C | 4.6% | 83hPa | 2.5V | 08:11:35 | 02:43:07 | 00:00:00 | |
| DJ2DS-15 | 2026-09-06 01:01:09 | 50.87282 | 8.35738 | 92° | 68km/h | 17714m | -9.9m/s | -56.1°C | 4.7% | 83.6hPa | 2.6V | 00:00:00 | 02:43:12 | 00:00:00 | |
| DL1NUX | 2026-09-06 01:01:08 | 50.87296 | 8.35622 | 125° | 42km/h | 17768m | -9.7m/s | -55.9°C | 4.5% | 82.9hPa | 2.6V | 08:11:36 | 02:43:06 | 00:00:00 | |
| DL1XH-west | 2026-09-06 01:01:08 | 50.87282 | 8.35712 | 91° | 64km/h | 17723m | -8.6m/s | -56.2°C | 1.2% | 83.5hPa | 2.5V | 08:12:21 | 02:43:11 | 00:00:00 | |
| HSKMA3-T | 2026-09-06 01:01:06 | 50.87284 | 8.35668 | 99° | 47km/h | 17740m | -9.5m/s | -56.1°C | 1.2% | 83.3hPa | 2.4V | 08:12:21 | 02:43:09 | 00:00:00 | |
| DF7PN | 2026-09-06 01:01:06 | 50.87286 | 8.35651 | 106° | 42km/h | 17749m | -9.0m/s | -56.0°C | 1.5% | 83.2hPa | 2.5V | 00:00:00 | 00:00:00 | 00:00:00 | |
| DL3AQ-11 | 2026-09-06 01:01:05 | 50.87290 | 8.35636 | 118° | 40km/h | 17759m | -9.2m/s | -55.9°C | 1.5% | 83.1hPa | 2.5V | 00:00:00 | 00:00:00 | 00:00:00 | |
| DL1XH-15 | 2026-09-06 01:01:04 | 50.87335 | 8.35561 | 137° | 69km/h | 17807m | -9.1m/s | -55.8°C | 4.4% | 82.4hPa | 2.5V | 08:11:40 | 02:43:02 | 00:00:00 | |
| BIOWL1-15 | 2026-09-06 01:01:01 | 50.87312 | 8.35594 | 138° | 55km/h | 17788m | -10.1m/s | -55.8°C | 1% | 82.6hPa | 2.4V | 08:12:21 | 02:43:04 | 00:00:00 | |
| DD8BA-10 | 2026-09-06 01:01:01 | 50.87312 | 8.35594 | 138° | 80km/h | 17788m | -10.0m/s | -55.7°C | 4.5% | 82.6hPa | 2.4V | 00:00:00 | 00:00:00 | 00:00:00 | |
| DL1LOL-11 | 2026-09-06 01:01:00 | 50.87312 | 8.35594 | 139° | 55km/h | 17788m | -10.1m/s | -55.8°C | 1.5% | 82.6hPa | 2.4V | 00:00:00 | 00:00:00 | 00:00:00 | |
| DM0DOS-11 | 2026-09-06 01:00:59 | 50.87387 | 8.35463 | 120° | 88km/h | 17842m | -9.9m/s | -56.1°C | 4.6% | 81.9hPa | 2.4V | 08:11:44 | 02:42:58 | 00:00:00 | |
| DL1NUX | 2026-09-06 01:00:58 | 50.87407 | 8.35400 | 110° | 88km/h | 17860m | -8.5m/s | -56.2°C | 4.6% | 81.7hPa | 2.5V | 08:11:46 | 02:42:56 | 00:00:00 | |
| DL1XH-west | 2026-09-06 01:00:58 | 50.87348 | 8.35541 | 134° | 77km/h | 17816m | -9.3m/s | -55.9°C | 1% | 82.3hPa | 2.6V | 08:12:21 | 02:43:01 | 00:00:00 | |
| HSKMA3-T | 2026-09-06 01:00:55 | 50.87387 | 8.35463 | 121° | 88km/h | 17842m | -9.9m/s | -56.1°C | 1.1% | 81.9hPa | 2.4V | 08:12:21 | 02:42:58 | 00:00:00 | |
| BIOWL1-15 | 2026-09-06 01:00:52 | 50.87422 | 8.35308 | 98° | 69km/h | 17888m | -9.4m/s | -56.3°C | 1.1% | 81.3hPa | 2.5V | 08:12:21 | 02:42:53 | 00:00:00 | |
| DO1YAY-16 | 2026-09-06 01:00:51 | 50.87419 | 8.35337 | 102° | 77km/h | 17879m | -9.2m/s | -56.2°C | 1.5% | 81.5hPa | 2.6V | 00:00:00 | 00:00:00 | 00:00:00 | |
| AU51GT2 | 2026-09-06 01:00:50 | 50.87424 | 8.35282 | 95° | 62km/h | 17897m | -8.9m/s | -56.3°C | 1.5% | 81.2hPa | 2.6V | 00:00:00 | 00:00:00 | 00:00:00 | |
| DM0DOS-11 | 2026-09-06 01:00:49 | 50.87432 | 8.35209 | 114° | 35km/h | 17933m | -8.3m/s | -56.4°C | 4.6% | 80.8hPa | 2.6V | 08:11:54 | 02:42:48 | 00:00:00 | |
| DL1NUX | 2026-09-06 01:00:48 | 50.87443 | 8.35186 | 137° | 40km/h | 17951m | -9.1m/s | -56.4°C | 4.6% | 80.6hPa | 2.4V | 08:11:56 | 02:42:46 | 00:00:00 | |
| DL1XH-west | 2026-09-06 01:00:47 | 50.87427 | 8.35239 | 98° | 44km/h | 17915m | -9.9m/s | -56.4°C | 1.1% | 81hPa | 2.5V | 08:12:21 | 02:42:50 | 00:00:00 | |
| HSKMA3-T | 2026-09-06 01:00:45 | 50.87432 | 8.35209 | 115° | 35km/h | 17933m | -8.3m/s | -56.4°C | 1.1% | 80.8hPa | 2.6V | 08:12:21 | 02:42:48 | 00:00:00 | |
| DL4BBY-15 | 2026-09-06 01:00:44 | 50.87436 | 8.35197 | 130° | 60km/h | 17942m | -9.5m/s | -58.8°C | 0% | 0hPa | 2.5V | 00:00:00 | 00:00:00 | 00:00:00 | |
| EDDB2-11 | 2026-09-06 01:00:43 | 50.87443 | 8.35186 | 137° | 38km/h | 17952m | -9.1m/s | -56.4°C | 1.5% | 80.6hPa | 2.5V | 00:00:00 | 00:00:00 | 00:00:00 | |
| BIOWL7-15 | 2026-09-06 01:00:42 | 50.87443 | 8.35186 | 138° | 40km/h | 17952m | -9.1m/s | -56.4°C | 1.5% | 80.6hPa | 2.5V | 00:00:00 | 00:00:00 | 00:00:00 | |
| DD8BA-10 | 2026-09-06 01:00:41 | 50.87462 | 8.35164 | 145° | 75km/h | 17969m | -9.3m/s | -56.3°C | 4.6% | 80.3hPa | 2.5V | 08:11:00 | 00:00:00 | 00:00:00 | |
| DO3DL | 2026-09-06 01:00:40 | 50.87461 | 8.35164 | 145° | 55km/h | 17969m | -9.4m/s | -56.4°C | 1.5% | 80.3hPa | 2.6V | 08:12:00 | 00:00:00 | 00:00:00 | |
| DL1XH1-15 | 2026-09-06 01:00:39 | 50.87549 | 8.35011 | 115° | 86km/h | 18032m | -8.2m/s | -56.6°C | 4.7% | 79.5hPa | 2.6V | 08:12:05 | 02:42:37 | 00:00:00 | |
| BIOWL1-15 | 2026-09-06 01:00:39 | 50.87486 | 8.35134 | 141° | 69km/h | 17987m | -8.9m/s | -56.4°C | 1.1% | 80.1hPa | 2.6V | 08:12:21 | 02:42:42 | 00:00:00 | |
| DM0DOS-11 | 2026-09-06 01:00:38 | 50.87539 | 8.35040 | 121° | 84km/h | 18024m | -8.6m/s | -56.6°C | 4.7% | 79.6hPa | 2.5V | 08:12:04 | 02:42:38 | 00:00:00 | |
| DL1NUX | 2026-09-06 01:00:38 | 50.87557 | 8.34980 | 109° | 82km/h | 18041m | -9.5m/s | -56.7°C | 4.7% | 79.4hPa | 2.6V | 08:12:06 | 02:42:36 | 00:00:00 | |
| DL1XH-west | 2026-09-06 01:00:36 | 50.87527 | 8.35068 | 126° | 82km/h | 18015m | -9.6m/s | -56.6°C | 1.2% | 79.8hPa | 2.5V | 08:12:21 | 02:42:39 | 00:00:00 | |
| HSKMA3-T | 2026-09-06 01:00:34 | 50.87549 | 8.35011 | 116° | 86km/h | 18032m | -8.2m/s | -56.6°C | 1.1% | 79.5hPa | 2.6V | 08:12:21 | 02:42:37 | 00:00:00 | |
| DO3DL | 2026-09-06 01:00:33 | 50.87549 | 8.35010 | 117° | 86km/h | 18033m | -8.2m/s | -56.6°C | 1.5% | 79.5hPa | 2.4V | 08:12:00 | 00:00:00 | 00:00:00 | |
| DM7RM-13 | 2026-09-06 01:00:31 | 50.87563 | 8.34948 | 106° | 80km/h | 18051m | -8.9m/s | -56.8°C | 1.6% | 79.3hPa | 2.4V | 08:12:00 | 00:00:00 | 00:00:00 | |
| DL1XH-15 | 2026-09-06 01:00:30 | 50.87570 | 8.34861 | 91° | 66km/h | 18076m | -9m/s | -56.9°C | 4.9% | 79hPa | 2.4V | 08:12:10 | 02:42:32 | 00:00:00 | |
| DL1XH1-15 | 2026-09-06 01:00:29 | 50.87571 | 8.34765 | 103° | 33km/h | 18121m | -8.4m/s | -57.1°C | 5% | 78.4hPa | 2.5V | 08:12:15 | 02:42:27 | 00:00:00 | |
| BIOWL1-15 | 2026-09-06 01:00:29 | 50.87570 | 8.34861 | 92° | 66km/h | 18076m | -9m/s | -56.9°C | 1.2% | 79hPa | 2.4V | 08:12:21 | 02:42:32 | 00:00:00 | |
| DM0DOS-11 | 2026-09-06 01:00:28 | 50.87570 | 8.34779 | 95° | 37km/h | 18112m | -9m/s | -57.1°C | 5% | 78.5hPa | 2.4V | 08:12:14 | 02:42:28 | 00:00:00 | |
| DL1NUX | 2026-09-06 01:00:28 | 50.87574 | 8.34753 | 117° | 31km/h | 18130m | -8.5m/s | -57.2°C | 5% | 78.3hPa | 2.5V | 08:12:16 | 02:42:26 | 00:00:00 | |
| DL1XH-west | 2026-09-06 01:00:26 | 50.87570 | 8.34795 | 90° | 44km/h | 18103m | -8.9m/s | -57°C | 1.2% | 78.6hPa | 2.6V | 08:12:21 | 02:42:29 | 00:00:00 | |
| DL3AQ-11 | 2026-09-06 01:00:25 | 50.87571 | 8.34765 | 103° | 31km/h | 18121m | -8.4m/s | -57.1°C | 1.6% | 78.4hPa | 2.5V | 00:00:00 | 00:00:00 | 00:00:00 | |
| DL1XH-15 | 2026-09-06 01:00:24 | 50.87603 | 8.34708 | 140° | 55km/h | 18164m | -9m/s | -57.1°C | 5.1% | 77.9hPa | 2.5V | 08:12:20 | 02:42:22 | 00:00:00 | |
| HSKMA3-T | 2026-09-06 01:00:24 | 50.87571 | 8.34765 | 103° | 33km/h | 18121m | -8.4m/s | -57.1°C | 1.2% | 78.4hPa | 2.5V | 08:12:21 | 02:42:27 | 00:00:00 | |
| DD1CC8 | 2026-09-06 01:00:23 | 50.87574 | 8.34753 | 117° | 29km/h | 18130m | -8.5m/s | -57.2°C | 1.6% | 78.3hPa | 2.4V | 00:00:00 | 00:00:00 | 00:00:00 | |
| DD8BA-10 | 2026-09-06 01:00:21 | 50.87585 | 8.34732 | 137° | 66km/h | 18147m | -8.4m/s | -57.1°C | 5.1% | 78.0hPa | 2.4V | 00:00:00 | 00:00:00 | 00:00:00 | |
| GOEST3-10 | 2026-09-06 01:00:20 | 50.87593 | 8.34721 | 141° | 55km/h | 18156m | -8.3m/s | -57.1°C | 5.0% | 77.9hPa | 2.4V | 08:12:00 | 00:00:00 | 00:00:00 | |
| AU51GT2 | 2026-09-06 01:00:19 | 50.87614 | 8.34693 | 138° | 60km/h | 18173m | -8.4m/s | -57.1°C | 1.7% | 77.8hPa | 2.6V | 00:00:00 | 00:00:00 | 00:00:00 | |
| DM0DOS-11 | 2026-09-06 01:00:18 | 50.87649 | 8.34631 | 125° | 77km/h | 18199m | -8.5m/s | -56.8°C | 5.1% | 77.5hPa | 2.6V | 08:12:24 | 02:42:18 | 00:00:00 | |
| DL1NUX | 2026-09-06 01:00:18 | 50.87669 | 8.34577 | 115° | 80km/h | 18216m | -8.2m/s | -56.5°C | 5% | 77.2hPa | 2.4V | 08:12:26 | 02:42:16 | 00:00:00 | |
| DL1XH-west | 2026-09-06 01:00:16 | 50.87638 | 8.34654 | 131° | 73km/h | 18190m | -8.8m/s | -56.9°C | 1.3% | 77.5hPa | 2.6V | 08:13:12 | 02:42:19 | 00:00:00 | |
| HSKMA3-T | 2026-09-06 01:00:13 | 50.87669 | 8.34576 | 116° | 80km/h | 18216m | -8.2m/s | -56.5°C | 1.3% | 77.2hPa | 2.4V | 08:13:12 | 02:42:16 | 00:00:00 | |
| DJ8HS-15 | 2026-09-06 01:00:13 | 50.87669 | 8.34576 | 116° | 55km/h | 18217m | -8.2m/s | -56.5°C | 5.0% | 77.2hPa | 2.5V | 00:00:00 | 02:42:16 | 00:00:00 | |
| EDDB2-11 | 2026-09-06 01:00:12 | 50.87677 | 8.34547 | 110° | 78km/h | 18225m | -8.3m/s | -56.4°C | 1.6% | 77.2hPa | 2.5V | 00:00:00 | 00:00:00 | 00:00:00 | |
| DJ2KF-10 | 2026-09-06 01:00:11 | 50.87683 | 8.34517 | 106° | 57km/h | 18233m | -7.5m/s | -56.2°C | 4.9% | 77.0hPa | 2.5V | 00:00:00 | 02:42:14 | 00:00:00 | |
| DM7RM-13 | 2026-09-06 01:00:10 | 50.87683 | 8.34517 | 106° | 78km/h | 18233m | -7.5m/s | -56.3°C | 1.6% | 77.0hPa | 2.5V | 08:13:00 | 00:00:00 | 00:00:00 | |
| DM0DOS-11 | 2026-09-06 01:00:09 | 50.87693 | 8.34364 | 90° | 47km/h | 18281m | -8m/s | -56°C | 4.8% | 76.5hPa | 2.5V | 08:12:34 | 02:42:08 | 00:00:00 | |
| GOEST3-10 | 2026-09-06 01:00:09 | 50.87690 | 8.34458 | 97° | 62km/h | 18249m | -8.2m/s | -55.9°C | 4.7% | 76.8hPa | 2.6V | 00:00:00 | 00:00:00 | 00:00:00 | |
| DL1NUX | 2026-09-06 01:00:08 | 50.87694 | 8.34331 | 98° | 35km/h | 18298m | -8.8m/s | -56°C | 4.8% | 76.3hPa | 2.6V | 08:12:36 | 02:42:06 | 00:00:00 | |
| BIOWL1-15 | 2026-09-06 01:00:06 | 50.87693 | 8.34384 | 90° | 55km/h | 18273m | -8m/s | -56°C | 1.1% | 76.6hPa | 2.5V | 08:13:12 | 02:42:09 | 00:00:00 | |
| DL1XH-west | 2026-09-06 01:00:05 | 50.87693 | 8.34364 | 90° | 47km/h | 18281m | -8m/s | -56.1°C | 1.2% | 76.5hPa | 2.5V | 08:13:12 | 02:42:08 | 00:00:00 | |
| HSKMA3-T | 2026-09-06 01:00:03 | 50.87694 | 8.34331 | 99° | 35km/h | 18298m | -8.8m/s | -56°C | 1.2% | 76.3hPa | 2.6V | 08:13:12 | 02:42:06 | 00:00:00 | |
| AA1-15 | 2026-09-06 00:59:59 | 50.87710 | 8.34287 | 141° | 38km/h | 18333m | -8.6m/s | -55.6°C | 1.1% | 75.9hPa | 2.6V | 08:13:12 | 02:42:02 | 00:00:00 | |
| DL1NUX | 2026-09-06 00:59:58 | 50.87779 | 8.34207 | 135° | 73km/h | 18382m | -8m/s | -55.1°C | 4.5% | 75.3hPa | 2.6V | 08:12:46 | 02:41:56 | 00:00:00 | |
| DL3AQ-11 | 2026-09-06 00:59:57 | 50.87729 | 8.34267 | 147° | 49km/h | 18349m | -8.7m/s | -55.2°C | 1.4% | 75.6hPa | 2.5V | 00:00:00 | 00:00:00 | 00:00:00 | |
| DM0DOS-11 | 2026-09-06 00:59:56 | 50.87753 | 8.34242 | 144° | 64km/h | 18366m | -8.2m/s | -55.1°C | 4.4% | 75.5hPa | 2.5V | 08:12:44 | 02:41:58 | 00:00:00 | |
| BIOWL1-15 | 2026-09-06 00:59:55 | 50.87753 | 8.34242 | 144° | 64km/h | 18366m | -8.2m/s | -55.1°C | 1% | 75.5hPa | 2.5V | 08:13:12 | 02:41:58 | 00:00:00 | |
| DL1XH-west | 2026-09-06 00:59:54 | 50.87766 | 8.34226 | 141° | 69km/h | 18374m | -8.1m/s | -55.1°C | 1% | 75.3hPa | 2.5V | 08:13:12 | 02:41:57 | 00:00:00 | |
| HSKMA3-T | 2026-09-06 00:59:52 | 50.87792 | 8.34186 | 131° | 75km/h | 18390m | -7.9m/s | -55°C | 1% | 75.2hPa | 2.6V | 08:13:12 | 02:41:55 | 00:00:00 | |
| DD8BA-10 | 2026-09-06 00:59:51 | 50.87803 | 8.34162 | 126° | 57km/h | 18398m | -7.8m/s | -55.0°C | 4.4% | 75.1hPa | 2.6V | 00:00:00 | 00:00:00 | 00:00:00 | |
| WEDDY | 2026-09-06 00:59:50 | 50.87814 | 8.34137 | 121° | 77km/h | 18406m | -7.7m/s | -55.0°C | 1.4% | 75.0hPa | 2.6V | 08:13:00 | 00:00:00 | 00:00:00 | |
| DM0DOS-11 | 2026-09-06 00:59:49 | 50.87841 | 8.34008 | 97° | 57km/h | 18445m | -8.1m/s | -55.1°C | 4.4% | 74.5hPa | 2.6V | 08:12:54 | 02:41:48 | 00:00:00 | |
| AA1-15 | 2026-09-06 00:59:49 | 50.87823 | 8.34110 | 115° | 75km/h | 18413m | -7.9m/s | -55°C | 0.9% | 74.9hPa | 2.4V | 08:13:12 | 02:41:52 | 00:00:00 | |
| GOEST3-10 | 2026-09-06 00:59:49 | 50.87823 | 8.34110 | 115° | 66km/h | 18414m | -7.8m/s | -54.9°C | 4.4% | 74.9hPa | 2.4V | 00:00:00 | 00:00:00 | 00:00:00 | |
| DL1NUX | 2026-09-06 00:59:48 | 50.87844 | 8.33968 | 93° | 44km/h | 18461m | -7.9m/s | -55°C | 4.3% | 74.3hPa | 2.5V | 08:12:56 | 02:41:46 | 00:00:00 | |
| DO3MHA-12 | 2026-09-06 00:59:48 | 50.87830 | 8.34083 | 110° | 42km/h | 18422m | -7.9m/s | -55.0°C | 4.4% | 74.8hPa | 2.5V | 00:00:00 | 02:41:51 | 00:00:00 | |
| DB0UT-7 | 2026-09-06 00:59:47 | 50.87835 | 8.34057 | 106° | 51km/h | 18429m | -7.9m/s | -55.0°C | 4.4% | 74.7hPa | 2.5V | 00:00:00 | 02:41:50 | 00:00:00 | |
| DO3DL | 2026-09-06 00:59:46 | 50.87839 | 8.34032 | 102° | 62km/h | 18437m | -7.9m/s | -55.1°C | 1.4% | 74.6hPa | 2.5V | 08:13:00 | 00:00:00 | 00:00:00 | |
| DL3AQ-11 | 2026-09-06 00:59:45 | 50.87843 | 8.33987 | 95° | 49km/h | 18453m | -7.9m/s | -55.1°C | 1.4% | 74.4hPa | 2.5V | 00:00:00 | 00:00:00 | 00:00:00 | |
| DL1XH-15 | 2026-09-06 00:59:44 | 50.87849 | 8.33919 | 120° | 22km/h | 18493m | -8.3m/s | -55°C | 4.3% | 74hPa | 2.5V | 08:13:00 | 02:41:42 | 00:00:00 | |
| DL1XH-west | 2026-09-06 00:59:44 | 50.87843 | 8.33987 | 95° | 51km/h | 18453m | -7.9m/s | -55.1°C | 0.9% | 74.4hPa | 2.5V | 08:13:12 | 02:41:47 | 00:00:00 | |
| HSKMA3-T | 2026-09-06 00:59:42 | 50.87845 | 8.33952 | 94° | 37km/h | 18469m | -8.1m/s | -54.9°C | 0.9% | 74.2hPa | 2.5V | 08:13:12 | 02:41:45 | 00:00:00 | |
| DJ2KF-10 | 2026-09-06 00:59:41 | 50.87845 | 8.33939 | 98° | 46km/h | 18477m | -7.9m/s | -54.9°C | 4.3% | 74.1hPa | 2.6V | 00:00:00 | 02:41:44 | 00:00:00 | |
| DD8BA-10 | 2026-09-06 00:59:40 | 50.87847 | 8.33928 | 106° | 37km/h | 18485m | -7.9m/s | -54.9°C | 4.3% | 74.0hPa | 2.6V | 00:00:00 | 00:00:00 | 00:00:00 | |
| DL1XH1-15 | 2026-09-06 00:59:39 | 50.87881 | 8.33893 | 162° | 42km/h | 18534m | -8.1m/s | -55.1°C | 4.4% | 73.5hPa | 2.4V | 08:13:05 | 02:41:37 | 00:00:00 | |
| AA1-15 | 2026-09-06 00:59:39 | 50.87849 | 8.33919 | 121° | 22km/h | 18493m | -8.3m/s | -55°C | 0.9% | 74hPa | 2.5V | 08:13:12 | 02:41:42 | 00:00:00 | |
| DO3DL | 2026-09-06 00:59:39 | 50.87849 | 8.33919 | 122° | 22km/h | 18493m | -8.3m/s | -55.0°C | 1.4% | 74.0hPa | 2.6V | 08:13:00 | 00:00:00 | 00:00:00 | |
| GOEST3-10 | 2026-09-06 00:59:38 | 50.87853 | 8.33912 | 137° | 37km/h | 18501m | -7.9m/s | -55.0°C | 4.3% | 73.8hPa | 2.6V | 00:00:00 | 00:00:00 | 00:00:00 | |
| DM0DOS-11 | 2026-09-06 00:59:37 | 50.87872 | 8.33898 | 162° | 37km/h | 18526m | -8.4m/s | -55°C | 4.4% | 73.6hPa | 2.6V | 08:13:04 | 02:41:38 | 00:00:00 | |
| DL1XH-west | 2026-09-06 00:59:34 | 50.87881 | 8.33893 | 162° | 42km/h | 18534m | -8.1m/s | -55.1°C | 1% | 73.5hPa | 2.4V | 08:13:12 | 02:41:37 | 00:00:00 | |
| BIOWL1-15 | 2026-09-06 00:59:33 | 50.87892 | 8.33888 | 160° | 47km/h | 18542m | -8.2m/s | -55.1°C | 1% | 73.4hPa | 2.5V | 08:13:12 | 02:41:36 | 00:00:00 | |
| HSKMA3-T | 2026-09-06 00:59:32 | 50.87904 | 8.33880 | 157° | 53km/h | 18550m | -7.7m/s | -55.2°C | 1% | 73.3hPa | 2.5V | 08:13:12 | 02:41:35 | 00:00:00 | |
| NBG1-10 | 2026-09-06 00:59:32 | 50.87904 | 8.33880 | 157° | 47km/h | 18550m | -7.6m/s | -55.1°C | 4.5% | 73.3hPa | 2.6V | 00:00:00 | 02:41:35 | 00:00:00 | |
| DO3DL | 2026-09-06 00:59:31 | 50.87904 | 8.33880 | 158° | 53km/h | 18550m | -7.7m/s | -55.2°C | 1.4% | 73.3hPa | 2.6V | 08:13:00 | 00:00:00 | 00:00:00 | |
| DL1XH-15 | 2026-09-06 00:59:30 | 50.87943 | 8.33844 | 142° | 64km/h | 18573m | -7.8m/s | -55.5°C | 4.6% | 73.1hPa | 2.6V | 08:13:10 | 02:41:32 | 00:00:00 | |
| AA1-15 | 2026-09-06 00:59:29 | 50.87943 | 8.33844 | 143° | 64km/h | 18573m | -7.9m/s | -55.5°C | 1% | 73.1hPa | 2.6V | 08:13:12 | 02:41:32 | 00:00:00 | |
| DJ2DS-15 | 2026-09-06 00:59:28 | 50.87956 | 8.33828 | 139° | 46km/h | 18582m | -7.8m/s | -55.5°C | 4.7% | 72.9hPa | 2.5V | 08:13:00 | 02:41:31 | 00:00:00 | |
| DO3MHA-12 | 2026-09-06 00:59:27 | 50.87968 | 8.33810 | 134° | 62km/h | 18589m | -8.2m/s | -55.5°C | 4.7% | 72.8hPa | 2.5V | 00:00:00 | 02:41:30 | 00:00:00 | |
| DL1XH1-15 | 2026-09-06 00:59:27 | 50.87998 | 8.33746 | 120° | 66km/h | 18614m | -8m/s | -55.5°C | 4.7% | 72.6hPa | 2.5V | 08:13:15 | 02:41:27 | 00:00:00 | |
| DO3DL | 2026-09-06 00:59:26 | 50.87979 | 8.33790 | 130° | 68km/h | 18598m | -7.9m/s | -55.5°C | 1.5% | 72.8hPa | 2.5V | 08:14:00 | 00:00:00 | 00:00:00 | |
| BUE01 | 2026-09-06 00:59:25 | 50.87989 | 8.33769 | 124° | 66km/h | 18606m | -8.4m/s | -55.5°C | 1.5% | 72.7hPa | 2.5V | 00:00:00 | 00:00:00 | 00:00:00 | |
| DL1XH-15 | 2026-09-06 00:59:24 | 50.88022 | 8.33631 | 95° | 55km/h | 18656m | -8.4m/s | -55.1°C | 4.4% | 72.1hPa | 2.5V | 08:13:20 | 02:41:22 | 00:00:00 | |
| DL1XH-west | 2026-09-06 00:59:23 | 50.88005 | 8.33723 | 115° | 64km/h | 18622m | -8.2m/s | -55.5°C | 1.1% | 72.5hPa | 2.6V | 08:14:03 | 02:41:26 | 00:00:00 | |
| DL1ZP-14 | 2026-09-06 00:59:22 | 50.88012 | 8.33700 | 109° | 62km/h | 18631m | -8.3m/s | -55.5°C | 1.5% | 72.4hPa | 2.6V | 00:00:00 | 00:00:00 | 00:00:00 | |
| GOEST3-10 | 2026-09-06 00:59:21 | 50.88016 | 8.33676 | 106° | 53km/h | 18639m | -8.6m/s | -55.4°C | 4.6% | 72.3hPa | 2.5V | 00:00:00 | 02:41:24 | 00:00:00 | |
| HSKMA3-T | 2026-09-06 00:59:21 | 50.88016 | 8.33676 | 106° | 60km/h | 18639m | -8.6m/s | -55.4°C | 1.1% | 72.3hPa | 2.4V | 08:14:03 | 02:41:24 | 00:00:00 | |
| DC4HF-4 | 2026-09-06 00:59:20 | 50.88022 | 8.33631 | 95° | 53km/h | 18656m | -8.4m/s | -55.1°C | 1.4% | 72.1hPa | 2.5V | 00:00:00 | 00:00:00 | 00:00:00 | |
| DL1XH1-15 | 2026-09-06 00:59:19 | 50.88017 | 8.33549 | 75° | 27km/h | 18697m | -8m/s | -54.8°C | 4.3% | 71.6hPa | 2.5V | 08:13:25 | 02:41:17 | 00:00:00 | |
| AA1-15 | 2026-09-06 00:59:18 | 50.88023 | 8.33610 | 91° | 49km/h | 18664m | -8m/s | -54.9°C | 0.9% | 72hPa | 2.6V | 08:14:03 | 02:41:21 | 00:00:00 | |
| DL1NUX | 2026-09-06 00:59:18 | 50.88016 | 8.33540 | 77° | 22km/h | 18706m | -8.6m/s | -54.8°C | 4.3% | 71.5hPa | 2.6V | 08:13:26 | 02:41:16 | 00:00:00 | |
| DL3AQ-11 | 2026-09-06 00:59:18 | 50.88022 | 8.33592 | 84° | 44km/h | 18672m | -8.1m/s | -54.8°C | 1.4% | 71.9hPa | 2.5V | 00:00:00 | 00:00:00 | 00:00:00 | |
| DO3MHA-12 | 2026-09-06 00:59:17 | 50.88022 | 8.33592 | 85° | 26km/h | 18672m | -8.1m/s | -54.7°C | 4.3% | 71.9hPa | 2.5V | 00:00:00 | 02:41:20 | 00:00:00 | |
| DO9LL-15 | 2026-09-06 00:59:16 | 50.88021 | 8.33575 | 81° | 42km/h | 18681m | -8.6m/s | -54.7°C | 4.3% | 71.8hPa | 2.5V | 00:00:00 | 02:41:19 | 00:00:00 | |
| DL1LOL-11 | 2026-09-06 00:59:15 | 50.88019 | 8.33561 | 78° | 33km/h | 18689m | -8.3m/s | -54.8°C | 1.3% | 71.7hPa | 2.5V | 00:00:00 | 00:00:00 | 00:00:00 | |
| DL1XH-15 | 2026-09-06 00:59:14 | 50.88021 | 8.33518 | 148° | 20km/h | 18738m | -8.1m/s | -54.9°C | 4.3% | 71.2hPa | 2.5V | 08:13:30 | 02:41:12 | 00:00:00 | |
| DL1XH-west | 2026-09-06 00:59:12 | 50.88015 | 8.33532 | 85° | 16km/h | 18714m | -8.1m/s | -54.8°C | 0.9% | 71.5hPa | 2.6V | 08:14:03 | 02:41:15 | 00:00:00 | |
| HSKMA3-T | 2026-09-06 00:59:10 | 50.88018 | 8.33522 | 138° | 15km/h | 18730m | -8.1m/s | -54.9°C | 0.9% | 71.3hPa | 2.5V | 08:14:03 | 02:41:13 | 00:00:00 | |
| DL1XH1-15 | 2026-09-06 00:59:09 | 50.88058 | 8.33483 | 142° | 49km/h | 18778m | -7.8m/s | -55.1°C | 4.5% | 70.7hPa | 2.5V | 08:13:35 | 02:41:07 | 00:00:00 | |
| AA1-15 | 2026-09-06 00:59:08 | 50.88026 | 8.33513 | 153° | 26km/h | 18746m | -7.9m/s | -54.9°C | 0.8% | 71.1hPa | 2.6V | 08:14:03 | 02:41:11 | 00:00:00 | |
| DL1NUX | 2026-09-06 00:59:08 | 50.88068 | 8.33470 | 136° | 53km/h | 18786m | -8.5m/s | -55.1°C | 4.5% | 70.6hPa | 2.5V | 08:13:36 | 02:41:06 | 00:00:00 | |
| DL1XH-west | 2026-09-06 00:59:02 | 50.88078 | 8.33454 | 132° | 57km/h | 18795m | -8.6m/s | -55.2°C | 1% | 70.5hPa | 2.6V | 08:14:03 | 02:41:05 | 00:00:00 | |
| BIOWL1-15 | 2026-09-06 00:59:01 | 50.88087 | 8.33436 | 126° | 60km/h | 18803m | -8.4m/s | -55.2°C | 1.1% | 70.5hPa | 2.6V | 08:14:03 | 02:41:04 | 00:00:00 | |
| HSKMA3-T | 2026-09-06 00:59:00 | 50.88095 | 8.33416 | 120° | 62km/h | 18812m | -8.6m/s | -55.3°C | 1.1% | 70.4hPa | 2.5V | 08:14:03 | 02:41:03 | 00:00:00 | |
| DD8BA-10 | 2026-09-06 00:59:00 | 50.88095 | 8.33416 | 120° | 58km/h | 18812m | -8.6m/s | -55.2°C | 4.7% | 70.3hPa | 2.5V | 00:00:00 | 00:00:00 | 00:00:00 | |
| DL1XH-15 | 2026-09-06 00:58:58 | 50.88112 | 8.33347 | 102° | 62km/h | 18837m | -8.2m/s | -55.5°C | 4.8% | 70.1hPa | 2.5V | 08:13:42 | 02:41:00 | 00:00:00 | |
| DL1NUX | 2026-09-06 00:58:58 | 50.88113 | 8.33252 | 81° | 57km/h | 18870m | -8.8m/s | -55.4°C | 4.8% | 69.7hPa | 2.4V | 08:13:46 | 02:40:56 | 00:00:00 | |
| AA1-15 | 2026-09-06 00:58:57 | 50.88112 | 8.33347 | 103° | 62km/h | 18837m | -8.2m/s | -55.5°C | 1.1% | 70.1hPa | 2.5V | 08:14:03 | 02:41:00 | 00:00:00 | |
| DB0ND-19 | 2026-09-06 00:58:57 | 50.88112 | 8.33347 | 102° | 60km/h | 18837m | -8.2m/s | -55.5°C | 1.5% | 70.1hPa | 2.4V | 00:00:00 | 00:00:00 | 00:00:00 | |
| DL3AQ-11 | 2026-09-06 00:58:54 | 50.88113 | 8.33252 | 81° | 55km/h | 18871m | -8.8m/s | -55.4°C | 1.5% | 69.7hPa | 2.4V | 00:00:00 | 00:00:00 | 00:00:00 | |
| DJ8HS-15 | 2026-09-06 00:58:53 | 50.88113 | 8.33252 | 82° | 40km/h | 18871m | -8.7m/s | -55.3°C | 4.8% | 69.7hPa | 2.4V | 00:00:00 | 02:40:56 | 00:00:00 | |
| DL1XH-15 | 2026-09-06 00:58:52 | 50.88092 | 8.33154 | 61° | 26km/h | 18924m | -8.2m/s | -54.4°C | 4.4% | 69.1hPa | 2.5V | 08:13:52 | 02:40:50 | 00:00:00 | |
| DL1XH-west | 2026-09-06 00:58:51 | 50.88108 | 8.33211 | 73° | 49km/h | 18889m | -9m/s | -54.9°C | 1% | 69.5hPa | 2.5V | 08:14:03 | 02:40:54 | 00:00:00 | |
| HSKMA3-T | 2026-09-06 00:58:50 | 50.88104 | 8.33193 | 70° | 46km/h | 18898m | -8.9m/s | -54.6°C | 0.9% | 69.4hPa | 2.6V | 08:14:03 | 02:40:53 | 00:00:00 | |
| DD8BA-10 | 2026-09-06 00:58:50 | 50.88104 | 8.33193 | 70° | 26km/h | 18898m | -8.8m/s | -54.5°C | 4.4% | 69.4hPa | 2.5V | 00:00:00 | 00:00:00 | 00:00:00 | |
| DL1NUX | 2026-09-06 00:58:48 | 50.88090 | 8.33128 | 125° | 16km/h | 18958m | -8.8m/s | -53.8°C | 4.1% | 68.8hPa | 2.5V | 08:13:56 | 02:40:46 | 00:00:00 | |
| DJ2DS-15 | 2026-09-06 00:58:48 | 50.88096 | 8.33164 | 64° | 46km/h | 18916m | -8.7m/s | -54.4°C | 4.4% | 69.2hPa | 2.6V | 00:00:00 | 02:40:51 | 00:00:00 | |
| DM0DOS-11 | 2026-09-06 00:58:47 | 50.88088 | 8.33139 | 75° | 16km/h | 18941m | -8.4m/s | -54.1°C | 4.3% | 69hPa | 2.6V | 08:13:54 | 02:40:48 | 00:00:00 | |
| AA1-15 | 2026-09-06 00:58:46 | 50.88090 | 8.33146 | 67° | 20km/h | 18932m | -9m/s | -54.3°C | 0.9% | 69hPa | 2.5V | 08:14:03 | 02:40:49 | 00:00:00 | |
| DL1XH-west | 2026-09-06 00:58:40 | 50.88103 | 8.33107 | 136° | 35km/h | 18985m | -9.1m/s | -53.9°C | 0.8% | 68.5hPa | 2.6V | 08:14:03 | 02:40:43 | 00:00:00 | |
| HSKMA3-T | 2026-09-06 00:58:39 | 50.88110 | 8.33096 | 133° | 42km/h | 18994m | -8.5m/s | -53.9°C | 0.9% | 68.4hPa | 2.6V | 08:14:03 | 02:40:42 | 00:00:00 | |
| DL1XH-15 | 2026-09-06 00:58:38 | 50.88124 | 8.33065 | 123° | 55km/h | 19012m | -8.9m/s | -54°C | 4.4% | 68.2hPa | 2.5V | 08:14:02 | 02:40:40 | 00:00:00 | |
| DL3OBA | 2026-09-06 00:58:38 | 50.88117 | 8.33082 | 129° | 49km/h | 19003m | -9.1m/s | -54.0°C | 1.3% | 68.3hPa | 2.5V | 08:14:00 | 00:00:00 | 00:00:00 | |
| DM0DOS-11 | 2026-09-06 00:58:37 | 50.88139 | 8.33023 | 112° | 64km/h | 19030m | -9.6m/s | -54.1°C | 4.4% | 68hPa | 2.5V | 08:14:04 | 02:40:38 | 00:00:00 | |
| AA1-15 | 2026-09-06 00:58:35 | 50.88139 | 8.33023 | 112° | 66km/h | 19030m | -9.6m/s | -54.1°C | 1% | 68hPa | 2.5V | 08:14:54 | 02:40:38 | 00:00:00 | |
| GOEST3-10 | 2026-09-06 00:58:35 | 50.88138 | 8.33023 | 113° | 69km/h | 19030m | -9.6m/s | -54.1°C | 4.4% | 68.0hPa | 2.6V | 00:00:00 | 00:00:00 | 00:00:00 | |
| DJ2DS-15 | 2026-09-06 00:58:33 | 50.88149 | 8.32971 | 102° | 69km/h | 19048m | -9.4m/s | -54.0°C | 1.4% | 67.8hPa | 2.6V | 00:00:00 | 00:00:00 | 00:00:00 | |
| DL1XH-15 | 2026-09-06 00:58:32 | 50.88142 | 8.32808 | 68° | 64km/h | 19105m | -10.2m/s | -54.1°C | 4.5% | 67.2hPa | 2.6V | 08:14:12 | 02:40:30 | 00:00:00 | |
| HSKMA3-T | 2026-09-06 00:58:29 | 50.88151 | 8.32859 | 80° | 69km/h | 19086m | -10m/s | -54.2°C | 0.9% | 67.4hPa | 2.5V | 08:14:54 | 02:40:32 | 00:00:00 | |
| DJ2DS-15 | 2026-09-06 00:58:28 | 50.88147 | 8.32833 | 75° | 42km/h | 19096m | -9.4m/s | -54.1°C | 4.5% | 67.3hPa | 2.5V | 00:00:00 | 02:40:31 | 00:00:00 | |
| DM0DOS-11 | 2026-09-06 00:58:27 | 50.88129 | 8.32766 | 57° | 51km/h | 19125m | -10.2m/s | -53.3°C | 4.2% | 67hPa | 2.5V | 08:14:14 | 02:40:28 | 00:00:00 | |
| AA1-15 | 2026-09-06 00:58:25 | 50.88129 | 8.32766 | 57° | 51km/h | 19126m | -10.3m/s | -53.3°C | 0.9% | 67hPa | 2.5V | 08:14:54 | 02:40:28 | 00:00:00 | |
| DL3AQ-11 | 2026-09-06 00:58:25 | 50.88122 | 8.32751 | 52° | 44km/h | 19136m | -10.2m/s | -52.9°C | 1.2% | 66.9hPa | 2.6V | 00:00:00 | 00:00:00 | 00:00:00 | |
| S3001 | 2026-09-06 00:58:24 | 50.88110 | 8.32730 | 46° | 24km/h | 19156m | -10.8m/s | -52.8°C | 1.2% | 66.7hPa | 2.6V | 00:00:00 | 00:00:00 | 00:00:00 | |
| DL1XH-15 | 2026-09-06 00:58:22 | 50.88113 | 8.32706 | 146° | 26km/h | 19209m | -10.5m/s | -52.8°C | 3.9% | 66.1hPa | 2.6V | 08:14:22 | 02:40:20 | 00:00:00 | |
| DL1XH-west | 2026-09-06 00:58:19 | 50.88105 | 8.32715 | 123° | 11km/h | 19188m | -10.1m/s | -52.7°C | 0.7% | 66.3hPa | 2.5V | 08:14:54 | 02:40:22 | 00:00:00 | |
| BIOWL1-15 | 2026-09-06 00:58:18 | 50.88108 | 8.32711 | 143° | 18km/h | 19198m | -10.6m/s | -52.7°C | 0.6% | 66.2hPa | 2.5V | 08:14:54 | 02:40:21 | 00:00:00 | |
| DL1NUX | 2026-09-06 00:58:18 | 50.88143 | 8.32660 | 127° | 55km/h | 19251m | -9.8m/s | -53.1°C | 4% | 65.7hPa | 2.5V | 08:14:26 | 02:40:16 | 00:00:00 | |
| DM0DOS-11 | 2026-09-06 00:58:17 | 50.88126 | 8.32689 | 137° | 44km/h | 19230m | -11.3m/s | -52.9°C | 3.9% | 65.9hPa | 2.5V | 08:14:24 | 02:40:18 | 00:00:00 | |
| AA1-15 | 2026-09-06 00:58:15 | 50.88126 | 8.32689 | 138° | 44km/h | 19230m | -11.3m/s | -53°C | 0.7% | 65.9hPa | 2.5V | 08:14:54 | 02:40:18 | 00:00:00 | |
| DL1XH-west | 2026-09-06 00:58:09 | 50.88165 | 8.32572 | 97° | 62km/h | 19292m | -11m/s | -53.4°C | 0.8% | 65.3hPa | 2.5V | 08:14:54 | 02:40:12 | 00:00:00 | |
| HSKMA3-T | 2026-09-06 00:58:08 | 50.88166 | 8.32548 | 90° | 58km/h | 19303m | -10.8m/s | -53.3°C | 0.8% | 65.2hPa | 2.5V | 08:14:54 | 02:40:11 | 00:00:00 | |
| BIOWL1-15 | 2026-09-06 00:58:07 | 50.88159 | 8.32487 | 69° | 42km/h | 19334m | -10.2m/s | -53.4°C | 0.8% | 64.9hPa | 2.5V | 08:14:54 | 02:40:08 | 00:00:00 | |
| DL1XH-15 | 2026-09-06 00:58:07 | 50.88165 | 8.32525 | 82° | 57km/h | 19314m | -10.2m/s | -53.3°C | 4% | 65.1hPa | 2.6V | 08:14:32 | 02:40:10 | 00:00:00 | |
| DL1XH1-15 | 2026-09-06 00:58:07 | 50.88155 | 8.32473 | 62° | 35km/h | 19344m | -10.6m/s | -53.4°C | 4.1% | 64.8hPa | 2.5V | 08:14:35 | 02:40:07 | 00:00:00 | |
| DM0DOS-11 | 2026-09-06 00:58:06 | 50.88160 | 8.32487 | 69° | 42km/h | 19334m | -10.2m/s | -53.4°C | 4.1% | 64.9hPa | 2.5V | 08:14:34 | 02:40:08 | 00:00:00 | |
| AA1-15 | 2026-09-06 00:58:04 | 50.88155 | 8.32473 | 62° | 35km/h | 19345m | -10.6m/s | -53.5°C | 0.8% | 64.8hPa | 2.5V | 08:14:54 | 02:40:07 | 00:00:00 | |
| DL1XH-west | 2026-09-06 00:57:59 | 50.88148 | 8.32448 | 181° | 11km/h | 19396m | -11m/s | -53.5°C | 0.8% | 64.3hPa | 2.5V | 08:14:54 | 02:40:02 | 00:00:00 | |
| DL1NUX | 2026-09-06 00:57:58 | 50.88193 | 8.32433 | 150° | 49km/h | 19459m | -11m/s | -53.5°C | 0% | 63.6hPa | 2.5V | 08:14:46 | 02:39:56 | 00:00:00 | |
| HSKMA3-T | 2026-09-06 00:57:57 | 50.88157 | 8.32449 | 180° | 26km/h | 19417m | -10.5m/s | -53.5°C | 0.8% | 64hPa | 2.5V | 08:14:54 | 02:40:00 | 00:00:00 | |
| DM0DOS-11 | 2026-09-06 00:57:56 | 50.88173 | 8.32445 | 167° | 38km/h | 19438m | -10.4m/s | -53.5°C | 4.1% | 63.8hPa | 2.6V | 08:14:44 | 02:39:58 | 00:00:00 | |
| BIOWL1-15 | 2026-09-06 00:57:56 | 50.88164 | 8.32448 | 172° | 33km/h | 19428m | -11.4m/s | -53.5°C | 0.8% | 63.9hPa | 2.6V | 08:14:54 | 02:39:59 | 00:00:00 | |
| DL1XH1-15 | 2026-09-06 00:57:55 | 50.88182 | 8.32441 | 159° | 44km/h | 19449m | -10.2m/s | -53.5°C | 4.1% | 63.7hPa | 2.6V | 08:14:45 | 02:39:57 | 00:00:00 | |
| AA1-15 | 2026-09-06 00:57:53 | 50.88193 | 8.32433 | 151° | 49km/h | 19459m | -11m/s | -53.5°C | 0.9% | 63.6hPa | 2.5V | 08:14:54 | 02:39:56 | 00:00:00 | |
| WEDDY | 2026-09-06 00:57:53 | 50.88193 | 8.32433 | 152° | 49km/h | 19460m | -11.0m/s | -53.5°C | 1.3% | 63.6hPa | 2.5V | 00:00:00 | 00:00:00 | 00:00:00 | |
| DO3DL | 2026-09-06 00:57:52 | 50.88193 | 8.32433 | 152° | 49km/h | 19460m | -11.0m/s | -53.5°C | 1.3% | 63.6hPa | 2.5V | 08:14:00 | 00:00:00 | 00:00:00 | |
| DM0DOS-11 | 2026-09-06 00:57:50 | 50.88234 | 8.32292 | 76° | 44km/h | 19543m | -11.4m/s | -53.6°C | 4.2% | 62.8hPa | 2.5V | 08:14:54 | 02:39:48 | 00:00:00 | |
| DD8BA-10 | 2026-09-06 00:57:50 | 50.88222 | 8.32390 | 124° | 42km/h | 19490m | -10.4m/s | -53.3°C | 4.1% | 63.3hPa | 2.6V | 00:00:00 | 00:00:00 | 00:00:00 | |
| DL1XH1-15 | 2026-09-06 00:57:49 | 50.88231 | 8.32277 | 68° | 38km/h | 19554m | -10.3m/s | -53.6°C | 4.2% | 62.7hPa | 2.6V | 08:14:55 | 02:39:47 | 00:00:00 | |
| DL1NUX | 2026-09-06 00:57:48 | 50.88227 | 8.32264 | 57° | 31km/h | 19565m | -10.5m/s | 0°C | 0% | 0hPa | 2.6V | 00:00:00 | 02:39:46 | 00:00:00 | |
| DL1XH-west | 2026-09-06 00:57:48 | 50.88233 | 8.32351 | 104° | 53km/h | 19511m | -10.5m/s | -53.5°C | 0.8% | 63.1hPa | 2.6V | 08:14:54 | 02:39:51 | 00:00:00 | |
| HSKMA3-T | 2026-09-06 00:57:47 | 50.88236 | 8.32330 | 96° | 51km/h | 19522m | -10.6m/s | -53.5°C | 0.8% | 63hPa | 2.5V | 08:14:54 | 02:39:50 | 00:00:00 | |
| BIOWL1-15 | 2026-09-06 00:57:45 | 50.88227 | 8.32264 | 57° | 31km/h | 19565m | -10.5m/s | -53.6°C | 0.8% | 62.5hPa | 2.6V | 08:15:45 | 02:39:46 | 00:00:00 | |
| AA1-15 | 2026-09-06 00:57:42 | 50.88223 | 8.32255 | 46° | 24km/h | 19575m | -10.4m/s | -53.6°C | 0.8% | 62.5hPa | 2.5V | 08:15:45 | 02:39:45 | 00:00:00 | |
| SONDE2-11 | 2026-09-06 00:57:42 | 50.88219 | 8.32250 | 32° | 15km/h | 19585m | -10.0m/s | -53.6°C | 1.3% | 62.4hPa | 2.5V | 00:00:00 | 00:00:00 | 00:00:00 | |
| DJ2KF-10 | 2026-09-06 00:57:41 | 50.88219 | 8.32250 | 33° | 31km/h | 19586m | -9.9m/s | -53.6°C | 4.2% | 62.3hPa | 2.5V | 00:00:00 | 02:39:44 | 00:00:00 | |
| DO3DL | 2026-09-06 00:57:40 | 50.88216 | 8.32248 | 9° | 7km/h | 19596m | -10.6m/s | -53.7°C | 1.3% | 62.3hPa | 2.5V | 08:15:00 | 00:00:00 | 00:00:00 | |
| DM0DOS-11 | 2026-09-06 00:57:38 | 50.88231 | 8.32256 | 179° | 31km/h | 19648m | -10.8m/s | -53.7°C | 4.2% | 61.8hPa | 2.5V | 08:15:04 | 02:39:38 | 00:00:00 | |
| DL1NUX | 2026-09-06 00:57:38 | 50.88249 | 8.32251 | 161° | 40km/h | 19671m | -11.6m/s | 0°C | 0% | 0hPa | 2.6V | 00:00:00 | 02:39:36 | 00:00:00 | |
| GOEST3-10 | 2026-09-06 00:57:38 | 50.88216 | 8.32251 | 220° | 24km/h | 19616m | -10.3m/s | -53.7°C | 4.2% | 62.0hPa | 2.6V | 00:00:00 | 00:00:00 | 00:00:00 | |
| DL1XH1-15 | 2026-09-06 00:57:37 | 50.88240 | 8.32255 | 169° | 37km/h | 19659m | -11.5m/s | -53.6°C | 4.2% | 61.7hPa | 2.6V | 08:15:05 | 02:39:37 | 00:00:00 | |
| DL1XH-west | 2026-09-06 00:57:37 | 50.88219 | 8.32253 | 201° | 16km/h | 19627m | -10.4m/s | -53.7°C | 0.9% | 62hPa | 2.5V | 08:15:45 | 02:39:40 | 00:00:00 | |
| HSKMA3-T | 2026-09-06 00:57:36 | 50.88224 | 8.32255 | 189° | 24km/h | 19637m | -10.8m/s | -53.7°C | 0.9% | 61.9hPa | 2.5V | 08:15:45 | 02:39:39 | 00:00:00 | |
| BIOWL1-15 | 2026-09-06 00:57:35 | 50.88231 | 8.32256 | 180° | 31km/h | 19648m | -10.8m/s | -53.7°C | 0.8% | 61.8hPa | 2.5V | 08:15:45 | 02:39:38 | 00:00:00 | |
| DL3AQ-11 | 2026-09-06 00:57:34 | 50.88249 | 8.32251 | 161° | 40km/h | 19671m | -11.6m/s | -53.5°C | 1.3% | 61.5hPa | 2.5V | 00:00:00 | 00:00:00 | 00:00:00 | |
| DJ8HS-15 | 2026-09-06 00:57:33 | 50.88249 | 8.32251 | 162° | 35km/h | 19671m | -11.5m/s | -53.5°C | 4.2% | 61.5hPa | 2.5V | 00:00:00 | 02:39:36 | 00:00:00 | |
| DL1XH-15 | 2026-09-06 00:57:32 | 50.88297 | 8.32164 | 104° | 53km/h | 19735m | -9.9m/s | -53.4°C | 4% | 60.9hPa | 2.5V | 08:15:12 | 02:39:30 | 00:00:00 | |
| AA1-15 | 2026-09-06 00:57:32 | 50.88259 | 8.32244 | 152° | 46km/h | 19683m | -11.6m/s | -53.4°C | 0.8% | 61.5hPa | 2.5V | 08:15:45 | 02:39:35 | 00:00:00 | |
| DC4HF-4 | 2026-09-06 00:57:31 | 50.88269 | 8.32234 | 141° | 49km/h | 19694m | -11.0m/s | -53.4°C | 1.3% | 61.3hPa | 2.6V | 00:00:00 | 00:00:00 | 00:00:00 | |
| DD8BA-10 | 2026-09-06 00:57:30 | 50.88278 | 8.32220 | 133° | 46km/h | 19705m | -10.1m/s | -53.3°C | 4.0% | 61.2hPa | 2.6V | 00:00:00 | 00:00:00 | 00:00:00 | |
| EDDB2-12 | 2026-09-06 00:57:29 | 50.88287 | 8.32203 | 122° | 53km/h | 19714m | -9.7m/s | -53.3°C | 1.3% | 61.1hPa | 2.6V | 00:00:00 | 00:00:00 | 00:00:00 | |
| DL1NUX | 2026-09-06 00:57:28 | 50.88296 | 8.32089 | 69° | 40km/h | 19778m | -10.6m/s | 0°C | 0% | 0hPa | 2.6V | 00:00:00 | 02:39:26 | 00:00:00 | |
| DJ2DS-15 | 2026-09-06 00:57:28 | 50.88293 | 8.32184 | 112° | 33km/h | 19725m | -10.9m/s | -53.3°C | 4.1% | 61.0hPa | 2.6V | 00:00:00 | 02:39:31 | 00:00:00 | |
| DK9SH | 2026-09-06 00:57:27 | 50.88293 | 8.32184 | 113° | 55km/h | 19725m | -10.9m/s | -53.4°C | 1.3% | 61.0hPa | 2.5V | 08:15:00 | 00:00:00 | 00:00:00 | |
| DM0DOS-11 | 2026-09-06 00:57:26 | 50.88300 | 8.32123 | 86° | 47km/h | 19756m | -11.6m/s | -53.5°C | 4% | 60.8hPa | 2.5V | 08:15:14 | 02:39:28 | 00:00:00 | |
| HSKMA3-T | 2026-09-06 00:57:26 | 50.88300 | 8.32143 | 96° | 51km/h | 19745m | -10.4m/s | -53.5°C | 0.8% | 60.8hPa | 2.5V | 08:15:45 | 02:39:29 | 00:00:00 | |
| DL1XH1-15 | 2026-09-06 00:57:25 | 50.88299 | 8.32105 | 79° | 44km/h | 19767m | -11m/s | -53.4°C | 4% | 60.6hPa | 2.6V | 08:15:15 | 02:39:27 | 00:00:00 | |
| BIOWL1-15 | 2026-09-06 00:57:24 | 50.88292 | 8.32075 | 60° | 35km/h | 19789m | -10.9m/s | -53.4°C | 0.8% | 60.4hPa | 2.5V | 08:15:45 | 02:39:25 | 00:00:00 | |
| DJTTGO | 2026-09-06 00:57:23 | 50.88296 | 8.32088 | 70° | 40km/h | 19779m | -10.6m/s | -53.4°C | 1.2% | 60.5hPa | 2.5V | 00:00:00 | 00:00:00 | 00:00:00 | |
| DL1XH-15 | 2026-09-06 00:57:22 | 50.88276 | 8.32055 | 254° | 4km/h | 19842m | -10.7m/s | -53.5°C | 4% | 59.9hPa | 2.5V | 08:15:22 | 02:39:20 | 00:00:00 | |
| AA1-15 | 2026-09-06 00:57:21 | 50.88287 | 8.32065 | 49° | 27km/h | 19800m | -10.2m/s | -53.4°C | 0.7% | 60.3hPa | 2.5V | 08:15:45 | 02:39:24 | 00:00:00 | |
| DJ2DS-15 | 2026-09-06 00:57:21 | 50.88287 | 8.32065 | 49° | 27km/h | 19800m | -10.2m/s | -53.4°C | 1.2% | 60.3hPa | 2.6V | 00:00:00 | 00:00:00 | 00:00:00 | |
| DD8BA-10 | 2026-09-06 00:57:20 | 50.88283 | 8.32059 | 35° | 22km/h | 19811m | -11.1m/s | -53.3°C | 4.0% | 60.2hPa | 2.6V | 00:00:00 | 00:00:00 | 00:00:00 | |
| DL1XH1-15 | 2026-09-06 00:57:19 | 50.88286 | 8.32058 | 174° | 27km/h | 19874m | -11.8m/s | -53.6°C | 4% | 59.6hPa | 2.6V | 08:15:25 | 02:39:17 | 00:00:00 | |
| NBG1-10 | 2026-09-06 00:57:19 | 50.88279 | 8.32055 | 24° | 15km/h | 19821m | -10.4m/s | -53.3°C | 4.0% | 60.0hPa | 2.6V | 00:00:00 | 02:39:22 | 00:00:00 | |
| DL1NUX | 2026-09-06 00:57:18 | 50.88293 | 8.32056 | 165° | 31km/h | 19885m | -11m/s | 0°C | 0% | 0hPa | 2.6V | 00:00:00 | 02:39:16 | 00:00:00 | |
| DL1XH-west | 2026-09-06 00:57:16 | 50.88277 | 8.32057 | 208° | 11km/h | 19853m | -10.1m/s | -53.5°C | 0.7% | 59.8hPa | 2.5V | 08:15:45 | 02:39:19 | 00:00:00 | |
| HSKMA3-T | 2026-09-06 00:57:15 | 50.88280 | 8.32058 | 190° | 18km/h | 19863m | -10m/s | -53.5°C | 0.8% | 59.7hPa | 2.5V | 08:15:45 | 02:39:18 | 00:00:00 | |
| DO1YAY-16 | 2026-09-06 00:57:14 | 50.88293 | 8.32056 | 165° | 31km/h | 19885m | -11.0m/s | -53.7°C | 1.2% | 59.5hPa | 2.5V | 00:00:00 | 00:00:00 | 00:00:00 | |
| AU51GT2 | 2026-09-06 00:57:13 | 50.88301 | 8.32051 | 156° | 38km/h | 19896m | -10.2m/s | -53.8°C | 1.3% | 59.4hPa | 2.5V | 00:00:00 | 00:00:00 | 00:00:00 | |
| DL1XH-15 | 2026-09-06 00:57:12 | 50.88342 | 8.31976 | 109° | 60km/h | 19948m | -10.3m/s | -54.1°C | 4.1% | 58.9hPa | 2.5V | 08:15:32 | 02:39:10 | 00:00:00 | |
| AA1-15 | 2026-09-06 00:57:11 | 50.88311 | 8.32043 | 145° | 44km/h | 19907m | -11.1m/s | -53.8°C | 0.8% | 59.3hPa | 2.5V | 08:15:45 | 02:39:14 | 00:00:00 | |
| DL1XH-west | 2026-09-06 00:57:05 | 50.88347 | 8.31928 | 94° | 62km/h | 19969m | -10.5m/s | -54.2°C | 0.8% | 58.8hPa | 2.5V | 08:15:45 | 02:39:08 | 00:00:00 | |
| HSKMA3-T | 2026-09-06 00:57:04 | 50.88347 | 8.31904 | 86° | 60km/h | 19980m | -10.9m/s | -54.3°C | 0.9% | 58.6hPa | 2.6V | 08:15:45 | 02:39:07 | 00:00:00 | |
| BIOWL1-15 | 2026-09-06 00:57:00 | 50.88331 | 8.31824 | 56° | 42km/h | 20022m | -10.4m/s | -54.7°C | 0.9% | 58.3hPa | 2.5V | 08:15:45 | 02:39:03 | 00:00:00 | |
| DL1XH-west | 2026-09-06 00:56:55 | 50.88314 | 8.31794 | 144° | 2km/h | 20074m | -11.2m/s | -55°C | 0.9% | 57.8hPa | 2.5V | 08:15:45 | 02:38:58 | 00:00:00 | |
| HSKMA3-T | 2026-09-06 00:56:53 | 50.88319 | 8.31793 | 173° | 20km/h | 20097m | -11.5m/s | -55.1°C | 1% | 57.6hPa | 2.6V | 08:16:36 | 02:38:56 | 00:00:00 | |
| DJ8HS-15 | 2026-09-06 00:56:53 | 50.88319 | 8.31793 | 174° | 40km/h | 20097m | -11.5m/s | -55.0°C | 4.4% | 57.5hPa | 2.6V | 08:15:00 | 02:38:56 | 00:00:00 | |
| DL1XH-15 | 2026-09-06 00:56:52 | 50.88371 | 8.31745 | 126° | 55km/h | 20159m | -11m/s | -54.8°C | 4.3% | 57hPa | 2.5V | 08:15:52 | 02:38:50 | 00:00:00 | |
| BIOWL1-15 | 2026-09-06 00:56:51 | 50.88352 | 8.31773 | 146° | 47km/h | 20139m | -10m/s | -54.7°C | 0.9% | 57.2hPa | 2.6V | 08:16:36 | 02:38:52 | 00:00:00 | |
| DM0DOS-11 | 2026-09-06 00:56:50 | 50.88383 | 8.31706 | 108° | 57km/h | 20180m | -9.7m/s | -55°C | 4.3% | 56.9hPa | 2.5V | 08:15:54 | 02:38:48 | 00:00:00 | |
| AA1-15 | 2026-09-06 00:56:50 | 50.88342 | 8.31783 | 154° | 44km/h | 20128m | -11m/s | -54.8°C | 0.9% | 57.3hPa | 2.5V | 08:16:36 | 02:38:53 | 00:00:00 | |
| DL1XH-west | 2026-09-06 00:56:45 | 50.88384 | 8.31706 | 108° | 57km/h | 20180m | -9.7m/s | -55°C | 0.9% | 56.9hPa | 2.5V | 08:16:36 | 02:38:48 | 00:00:00 | |
| DL4BBY-15 | 2026-09-06 00:56:44 | 50.88386 | 8.31685 | 98° | 37km/h | 20190m | -10.8m/s | -57.4°C | 0% | 0hPa | 2.5V | 00:00:00 | 00:00:00 | 00:00:00 | |
| DL1XH-15 | 2026-09-06 00:56:42 | 50.88354 | 8.31572 | 15° | 24km/h | 20274m | -11m/s | -55.6°C | 4.4% | 56hPa | 2.5V | 08:16:03 | 02:38:39 | 00:00:00 | |
| HSKMA3-T | 2026-09-06 00:56:42 | 50.88386 | 8.31644 | 79° | 49km/h | 20210m | -9.7m/s | -55.1°C | 0.9% | 56.6hPa | 2.5V | 08:16:36 | 02:38:45 | 00:00:00 | |
| AU51GT2 | 2026-09-06 00:56:42 | 50.88383 | 8.31625 | 70° | 46km/h | 20221m | -10.6m/s | -55.2°C | 1.3% | 56.5hPa | 2.5V | 00:00:00 | 00:00:00 | 00:00:00 | |
| DJ2KF-10 | 2026-09-06 00:56:41 | 50.88383 | 8.31625 | 71° | 33km/h | 20221m | -10.6m/s | -55.1°C | 4.3% | 56.4hPa | 2.5V | 00:00:00 | 02:38:44 | 00:00:00 | |
| DM0DOS-11 | 2026-09-06 00:56:40 | 50.88349 | 8.31571 | 2° | 18km/h | 20285m | -10m/s | -55.6°C | 4.4% | 55.9hPa | 2.5V | 08:16:04 | 02:38:38 | 00:00:00 | |
| AA1-15 | 2026-09-06 00:56:40 | 50.88379 | 8.31609 | 61° | 44km/h | 20231m | -10.6m/s | -55.3°C | 0.9% | 56.4hPa | 2.5V | 08:16:36 | 02:38:43 | 00:00:00 | |
| SONDE2-11 | 2026-09-06 00:56:40 | 50.88373 | 8.31595 | 50° | 38km/h | 20242m | -10.6m/s | -55.4°C | 1.3% | 56.3hPa | 2.6V | 00:00:00 | 00:00:00 | 00:00:00 | |
| DL1XH1-15 | 2026-09-06 00:56:39 | 50.88345 | 8.31572 | 336° | 13km/h | 20295m | -9.9m/s | -55.7°C | 4.4% | 55.8hPa | 2.6V | 08:16:05 | 02:38:37 | 00:00:00 | |
| BIOWL1-15 | 2026-09-06 00:56:39 | 50.88373 | 8.31595 | 51° | 40km/h | 20242m | -10.6m/s | -55.4°C | 0.9% | 56.3hPa | 2.6V | 08:16:36 | 02:38:42 | 00:00:00 | |
| DL1XH-west | 2026-09-06 00:56:34 | 50.88345 | 8.31572 | 336° | 13km/h | 20295m | -9.9m/s | -55.7°C | 0.9% | 55.8hPa | 2.6V | 08:16:36 | 02:38:37 | 00:00:00 | |
| DL3OBA | 2026-09-06 00:56:34 | 50.88345 | 8.31572 | 337° | 13km/h | 20295m | -9.9m/s | -55.7°C | 1.3% | 55.8hPa | 2.5V | 08:16:00 | 00:00:00 | 00:00:00 | |
| DJ8HS-15 | 2026-09-06 00:56:33 | 50.88343 | 8.31574 | 283° | 37km/h | 20305m | -10.5m/s | -55.8°C | 4.4% | 55.7hPa | 2.5V | 00:00:00 | 02:38:36 | 00:00:00 | |
| DL1XH-15 | 2026-09-06 00:56:31 | 50.88382 | 8.31575 | 149° | 42km/h | 20378m | -10.1m/s | -56°C | 4.5% | 55.1hPa | 2.5V | 08:16:13 | 02:38:29 | 00:00:00 | |
| HSKMA3-T | 2026-09-06 00:56:31 | 50.88346 | 8.31582 | 215° | 16km/h | 20325m | -9.3m/s | -55.9°C | 1% | 55.6hPa | 2.5V | 08:16:36 | 02:38:34 | 00:00:00 | |
| AA1-15 | 2026-09-06 00:56:29 | 50.88357 | 8.31586 | 183° | 27km/h | 20346m | -10.7m/s | -55.9°C | 1% | 55.4hPa | 2.6V | 08:16:36 | 02:38:32 | 00:00:00 | |
| BIOWL1-15 | 2026-09-06 00:56:28 | 50.88365 | 8.31586 | 172° | 33km/h | 20357m | -10m/s | -55.9°C | 1% | 55.3hPa | 2.6V | 08:16:36 | 02:38:31 | 00:00:00 | |
| DJ2DS-15 | 2026-09-06 00:56:28 | 50.88365 | 8.31586 | 173° | 33km/h | 20357m | -10.0m/s | -55.8°C | 4.4% | 55.2hPa | 2.6V | 08:16:00 | 02:38:31 | 00:00:00 | |
| DO3DL | 2026-09-06 00:56:27 | 50.88373 | 8.31582 | 160° | 38km/h | 20368m | -10.8m/s | -55.9°C | 1.4% | 55.2hPa | 2.6V | 08:16:00 | 00:00:00 | 00:00:00 | |
| DD1CC3-15 | 2026-09-06 00:56:26 | 50.88373 | 8.31582 | 160° | 38km/h | 20368m | -10.8m/s | -55.9°C | 1.4% | 55.2hPa | 2.6V | 08:16:00 | 00:00:00 | 00:00:00 | |
| DL1XH1-15 | 2026-09-06 00:56:24 | 50.88400 | 8.31551 | 128° | 49km/h | 20398m | -9.8m/s | -56.2°C | 4.5% | 54.9hPa | 2.6V | 08:16:15 | 02:38:27 | 00:00:00 | |
| DL1XH-west | 2026-09-06 00:56:23 | 50.88406 | 8.31534 | 118° | 51km/h | 20408m | -9.5m/s | -56.3°C | 1.1% | 54.8hPa | 2.6V | 08:16:36 | 02:38:26 | 00:00:00 | |
| HSKMA3-T | 2026-09-06 00:56:21 | 50.88414 | 8.31495 | 98° | 51km/h | 20429m | -10.3m/s | -56.5°C | 1% | 54.7hPa | 2.5V | 08:16:36 | 02:38:24 | 00:00:00 | |
| DM0DOS-11 | 2026-09-06 00:56:20 | 50.88395 | 8.31402 | 38° | 27km/h | 20489m | -9.5m/s | -56.8°C | 5% | 54.1hPa | 2.5V | 08:16:24 | 02:38:18 | 00:00:00 | |
| BIOWL1-15 | 2026-09-06 00:56:18 | 50.88410 | 8.31437 | 70° | 46km/h | 20459m | -9.8m/s | -56.6°C | 1.1% | 54.4hPa | 2.6V | 08:16:36 | 02:38:21 | 00:00:00 | |
| DL1XH-west | 2026-09-06 00:56:12 | 50.88384 | 8.31396 | 311° | 7km/h | 20519m | -10.1m/s | -57.1°C | 1.4% | 53.9hPa | 2.5V | 08:16:36 | 02:38:15 | 00:00:00 | |
| DL1XH-15 | 2026-09-06 00:56:11 | 50.88415 | 8.31413 | 175° | 42km/h | 20579m | -10.4m/s | -57.3°C | 5.4% | 53.4hPa | 2.5V | 08:16:33 | 02:38:09 | 00:00:00 | |
| BIOWL1-15 | 2026-09-06 00:56:11 | 50.88405 | 8.31413 | 186° | 37km/h | 20569m | -10.3m/s | -57.3°C | 1.4% | 53.5hPa | 2.5V | 08:16:36 | 02:38:10 | 00:00:00 | |
| HSKMA3-T | 2026-09-06 00:56:10 | 50.88386 | 8.31403 | 220° | 16km/h | 20538m | -10.1m/s | -57.1°C | 1.3% | 53.7hPa | 2.5V | 08:16:36 | 02:38:13 | 00:00:00 | |
| AA1-15 | 2026-09-06 00:56:08 | 50.88397 | 8.31410 | 193° | 31km/h | 20559m | -10.6m/s | -57.2°C | 1.3% | 53.6hPa | 2.6V | 08:16:36 | 02:38:11 | 00:00:00 | |
| DJ2DS-15 | 2026-09-06 00:56:08 | 50.88397 | 8.31410 | 194° | 44km/h | 20559m | -10.5m/s | -57.2°C | 5.2% | 53.5hPa | 2.6V | 00:00:00 | 02:38:11 | 00:00:00 | |
| DO9LL-15 | 2026-09-06 00:56:07 | 50.88405 | 8.31412 | 186° | 37km/h | 20569m | -10.2m/s | -57.3°C | 5.3% | 53.4hPa | 2.6V | 00:00:00 | 02:38:10 | 00:00:00 | |
| DL4XJ-10 | 2026-09-06 00:56:06 | 50.88415 | 8.31412 | 176° | 37km/h | 20580m | -10.4m/s | -59.7°C | 0% | 0hPa | 2.6V | 00:00:00 | 00:00:00 | 00:00:00 | |
| DK9SH | 2026-09-06 00:56:05 | 50.88426 | 8.31410 | 167° | 47km/h | 20590m | -10.6m/s | -57.4°C | 1.7% | 53.3hPa | 2.6V | 08:16:00 | 00:00:00 | 00:00:00 | |
| EDDB2-11 | 2026-09-06 00:56:04 | 50.88450 | 8.31394 | 148° | 53km/h | 20610m | -9.7m/s | -57.1°C | 1.7% | 53.1hPa | 2.6V | 00:00:00 | 00:00:00 | 00:00:00 | |
| GOEST3-10 | 2026-09-06 00:56:03 | 50.88449 | 8.31394 | 149° | 57km/h | 20610m | -9.7m/s | -57.1°C | 5.5% | 53.0hPa | 2.6V | 00:00:00 | 00:00:00 | 00:00:00 | |
| DL1XH-15 | 2026-09-06 00:56:01 | 50.88488 | 8.31264 | 80° | 47km/h | 20679m | -10m/s | -55.4°C | 4.6% | 52.5hPa | 2.5V | 08:16:43 | 02:37:59 | 00:00:00 | |
| DL1XH-west | 2026-09-06 00:56:01 | 50.88471 | 8.31364 | 129° | 57km/h | 20629m | -9.5m/s | -56.6°C | 1.4% | 53hPa | 2.5V | 08:17:27 | 02:38:04 | 00:00:00 | |
| DD8BA-10 | 2026-09-06 00:56:00 | 50.88478 | 8.31345 | 119° | 44km/h | 20640m | -10.1m/s | -56.4°C | 5.2% | 52.8hPa | 2.6V | 00:00:00 | 00:00:00 | 00:00:00 | |
| DL1XH1-15 | 2026-09-06 00:55:59 | 50.88480 | 8.31231 | 59° | 40km/h | 20699m | -9.8m/s | -55.2°C | 4.5% | 52.4hPa | 2.6V | 08:16:45 | 02:37:57 | 00:00:00 | |
| HSKMA3-T | 2026-09-06 00:55:59 | 50.88484 | 8.31325 | 110° | 55km/h | 20649m | -9.5m/s | -56.3°C | 1.3% | 52.8hPa | 2.6V | 08:17:27 | 02:38:02 | 00:00:00 | |
| AA1-15 | 2026-09-06 00:55:57 | 50.88489 | 8.31284 | 91° | 51km/h | 20669m | -10.1m/s | -55.6°C | 1.1% | 52.6hPa | 2.5V | 08:17:27 | 02:38:00 | 00:00:00 | |
| BIOWL1-15 | 2026-09-06 00:55:56 | 50.88481 | 8.31231 | 60° | 40km/h | 20699m | -9.8m/s | -55.2°C | 1% | 52.4hPa | 2.6V | 08:17:27 | 02:37:57 | 00:00:00 | |
| DF7PN | 2026-09-06 00:55:55 | 50.88485 | 8.31247 | 70° | 44km/h | 20689m | -10.1m/s | -55.3°C | 1.4% | 52.5hPa | 2.6V | 00:00:00 | 00:00:00 | 00:00:00 | |
| DB0DAN | 2026-09-06 00:55:55 | 50.88485 | 8.31247 | 70° | 42km/h | 20689m | -10.1m/s | -55.3°C | 0% | 0hPa | 2.5V | 00:00:00 | 00:00:00 | 00:00:00 | |
| DJ8HS-15 | 2026-09-06 00:55:54 | 50.88475 | 8.31219 | 48° | 33km/h | 20710m | -10.3m/s | -55.0°C | 4.5% | 52.2hPa | 2.6V | 00:00:00 | 02:37:56 | 00:00:00 | |
| DL3OBA | 2026-09-06 00:55:52 | 50.88475 | 8.31219 | 49° | 37km/h | 20710m | -10.4m/s | -55.1°C | 1.4% | 52.3hPa | 2.5V | 08:17:00 | 00:00:00 | 00:00:00 | |
| DL1XH-15 | 2026-09-06 00:55:51 | 50.88443 | 8.31202 | 245° | 4km/h | 20779m | -9.2m/s | -54.9°C | 4.6% | 51.7hPa | 2.5V | 08:16:53 | 02:37:49 | 00:00:00 | |
| DL1XH-west | 2026-09-06 00:55:50 | 50.88455 | 8.31200 | 14° | 24km/h | 20739m | -10.1m/s | -55°C | 1% | 52hPa | 2.5V | 08:17:27 | 02:37:53 | 00:00:00 | |
| DM0DOS-11 | 2026-09-06 00:55:49 | 50.88444 | 8.31203 | 184° | 9km/h | 20788m | -9.3m/s | -54.9°C | 4.7% | 51.7hPa | 2.5V | 08:16:54 | 02:37:48 | 00:00:00 | |
| HSKMA3-T | 2026-09-06 00:55:49 | 50.88450 | 8.31198 | 2° | 20km/h | 20749m | -10m/s | -54.9°C | 1% | 52hPa | 2.6V | 08:17:27 | 02:37:52 | 00:00:00 | |
| BIOWL1-15 | 2026-09-06 00:55:47 | 50.88444 | 8.31203 | 185° | 9km/h | 20788m | -9.4m/s | -54.9°C | 1.2% | 51.7hPa | 2.5V | 08:17:27 | 02:37:48 | 00:00:00 | |
| AA1-15 | 2026-09-06 00:55:46 | 50.88443 | 8.31202 | 245° | 4km/h | 20779m | -9.2m/s | -54.9°C | 1.1% | 51.7hPa | 2.5V | 08:17:27 | 02:37:49 | 00:00:00 | |
| DL1XH-west | 2026-09-06 00:55:40 | 50.88472 | 8.31174 | 130° | 42km/h | 20837m | -10.3m/s | -54.9°C | 1.2% | 51.3hPa | 2.5V | 08:17:27 | 02:37:43 | 00:00:00 | |
| AU51GT2 | 2026-09-06 00:55:40 | 50.88479 | 8.31160 | 122° | 44km/h | 20847m | -9.8m/s | -54.9°C | 1.5% | 51.2hPa | 2.6V | 00:00:00 | 00:00:00 | 00:00:00 | |
| DL1XH1-15 | 2026-09-06 00:55:39 | 50.88498 | 8.31057 | 93° | 60km/h | 20893m | -9.4m/s | -54.7°C | 4.8% | 50.8hPa | 2.6V | 08:17:05 | 02:37:37 | 00:00:00 | |
| DM0DOS-11 | 2026-09-06 00:55:39 | 50.88496 | 8.31081 | 98° | 58km/h | 20884m | -9.4m/s | -54.8°C | 4.9% | 50.9hPa | 2.5V | 08:17:04 | 02:37:38 | 00:00:00 | |
| DL1XH-15 | 2026-09-06 00:55:38 | 50.88493 | 8.31103 | 103° | 57km/h | 20875m | -9.1m/s | -54.9°C | 4.8% | 51hPa | 2.5V | 08:17:03 | 02:37:39 | 00:00:00 | |
| HSKMA3-T | 2026-09-06 00:55:38 | 50.88484 | 8.31143 | 115° | 49km/h | 20856m | -9.6m/s | -54.9°C | 1.3% | 51.1hPa | 2.6V | 08:17:27 | 02:37:41 | 00:00:00 | |
| BIOWL1-15 | 2026-09-06 00:55:35 | 50.88496 | 8.31081 | 99° | 58km/h | 20884m | -9.4m/s | -54.8°C | 1.2% | 50.9hPa | 2.5V | 08:17:27 | 02:37:38 | 00:00:00 | |
| DO3DL | 2026-09-06 00:55:34 | 50.88497 | 8.31057 | 95° | 60km/h | 20894m | -9.4m/s | -54.7°C | 1.4% | 50.8hPa | 2.5V | 08:17:00 | 00:00:00 | 00:00:00 | |
| EDDB2-11 | 2026-09-06 00:55:33 | 50.88497 | 8.31008 | 83° | 60km/h | 20913m | -10.0m/s | -54.4°C | 1.4% | 50.6hPa | 2.5V | 00:00:00 | 00:00:00 | 00:00:00 | |
| DL3OBA | 2026-09-06 00:55:32 | 50.88497 | 8.31008 | 85° | 62km/h | 20913m | -10.0m/s | -54.4°C | 1.4% | 50.7hPa | 2.5V | 08:17:00 | 00:00:00 | 00:00:00 | |
| DO3MHA-12 | 2026-09-06 00:55:30 | 50.88491 | 8.30961 | 75° | 51km/h | 20933m | -9.8m/s | -54.0°C | 4.6% | 50.4hPa | 2.5V | 00:00:00 | 02:37:33 | 00:00:00 | |
| DM0DOS-11 | 2026-09-06 00:55:29 | 50.88460 | 8.30868 | 49° | 44km/h | 20982m | -9.6m/s | -52.9°C | 4.2% | 50.1hPa | 2.5V | 08:17:14 | 02:37:28 | 00:00:00 | |
| DL1XH-west | 2026-09-06 00:55:29 | 50.88486 | 8.30939 | 69° | 57km/h | 20943m | -9.6m/s | -53.9°C | 1% | 50.4hPa | 2.6V | 08:17:27 | 02:37:32 | 00:00:00 | |
| DL1XH1-15 | 2026-09-06 00:55:28 | 50.88453 | 8.30856 | 45° | 38km/h | 20991m | -9.9m/s | -52.9°C | 4.2% | 50.1hPa | 2.6V | 08:17:15 | 02:37:27 | 00:00:00 | |
| DL1XH-15 | 2026-09-06 00:55:27 | 50.88467 | 8.30883 | 54° | 49km/h | 20972m | -9.8m/s | -52.9°C | 4.3% | 50.2hPa | 2.5V | 08:17:13 | 02:37:29 | 00:00:00 | |
| HSKMA3-T | 2026-09-06 00:55:27 | 50.88474 | 8.30900 | 59° | 53km/h | 20962m | -9.7m/s | -53.1°C | 1% | 50.2hPa | 2.5V | 08:17:27 | 02:37:30 | 00:00:00 | |
| AA1-15 | 2026-09-06 00:55:24 | 50.88453 | 8.30856 | 45° | 38km/h | 20991m | -10m/s | -52.9°C | 0.9% | 50.1hPa | 2.6V | 08:17:27 | 02:37:27 | 00:00:00 | |
| DL1XH-west | 2026-09-06 00:55:18 | 50.88429 | 8.30825 | 98° | 2km/h | 21051m | -10.4m/s | -52°C | 0.7% | 49.6hPa | 2.6V | 08:17:27 | 02:37:21 | 00:00:00 | |
| DL1XH1-15 | 2026-09-06 00:55:18 | 50.88441 | 8.30820 | 163° | 26km/h | 21092m | -10.2m/s | -52.2°C | 3.9% | 49.3hPa | 2.6V | 08:17:25 | 02:37:17 | 00:00:00 | |
| DM0DOS-11 | 2026-09-06 00:55:18 | 50.88436 | 8.30823 | 168° | 20km/h | 21082m | -10.3m/s | -52.1°C | 3.9% | 49.3hPa | 2.5V | 08:17:24 | 02:37:18 | 00:00:00 | |
| DL1XH-15 | 2026-09-06 00:55:17 | 50.88432 | 8.30824 | 170° | 13km/h | 21072m | -10.6m/s | -52.1°C | 3.9% | 49.4hPa | 2.5V | 08:17:23 | 02:37:19 | 00:00:00 | |
| DO2JMG | 2026-09-06 00:55:17 | 50.88430 | 8.30824 | 173° | 7km/h | 21061m | -10.3m/s | -52°C | 0.7% | 49.5hPa | 2.5V | 08:19:09 | 02:37:20 | 00:00:00 | |
| HSKMA3-T | 2026-09-06 00:55:16 | 50.88432 | 8.30824 | 170° | 13km/h | 21072m | -10.6m/s | -52.1°C | 0.7% | 49.4hPa | 2.5V | 08:17:27 | 02:37:19 | 00:00:00 | |
| AA1-15 | 2026-09-06 00:55:14 | 50.88442 | 8.30820 | 164° | 26km/h | 21092m | -10.2m/s | -52.2°C | 0.7% | 49.3hPa | 2.6V | 08:17:27 | 02:37:17 | 00:00:00 | |
| BIOWL1-15 | 2026-09-06 00:55:12 | 50.88457 | 8.30811 | 153° | 38km/h | 21113m | -9.7m/s | -52.3°C | 0.7% | 49.1hPa | 2.5V | 08:17:27 | 02:37:15 | 00:00:00 | |
| DJ2KF-10 | 2026-09-06 00:55:11 | 50.88466 | 8.30802 | 148° | 37km/h | 21123m | -9.7m/s | -52.2°C | 3.9% | 49.0hPa | 2.6V | 00:00:00 | 02:37:14 | 00:00:00 | |
| DO3MHA-12 | 2026-09-06 00:55:10 | 50.88476 | 8.30791 | 142° | 55km/h | 21132m | -9.8m/s | -52.2°C | 3.9% | 48.9hPa | 2.6V | 00:00:00 | 02:37:13 | 00:00:00 | |
| DL1XH1-15 | 2026-09-06 00:55:09 | 50.88522 | 8.30681 | 105° | 58km/h | 21191m | -9.9m/s | -52°C | 3.9% | 48.5hPa | 2.6V | 08:17:35 | 02:37:07 | 00:00:00 | |
| AU51GT2 | 2026-09-06 00:55:09 | 50.88495 | 8.30762 | 129° | 55km/h | 21152m | -9.9m/s | -52.2°C | 1.2% | 48.8hPa | 2.5V | 00:00:00 | 00:00:00 | 00:00:00 | |
| DJ2DS-15 | 2026-09-06 00:55:08 | 50.88495 | 8.30762 | 130° | 35km/h | 21152m | -9.9m/s | -52.2°C | 3.9% | 48.8hPa | 2.5V | 00:00:00 | 02:37:11 | 00:00:00 | |
| DM0DOS-11 | 2026-09-06 00:55:07 | 50.88517 | 8.30702 | 111° | 58km/h | 21181m | -9.8m/s | -52°C | 3.9% | 48.6hPa | 2.5V | 08:17:34 | 02:37:08 | 00:00:00 | |
| DL1XH-15 | 2026-09-06 00:55:07 | 50.88511 | 8.30724 | 117° | 58km/h | 21171m | -10m/s | -52.1°C | 3.9% | 48.7hPa | 2.5V | 08:17:33 | 02:37:09 | 00:00:00 | |
| DL1XH-west | 2026-09-06 00:55:07 | 50.88503 | 8.30744 | 124° | 58km/h | 21162m | -9.8m/s | -52.2°C | 0.7% | 48.7hPa | 2.5V | 08:18:18 | 02:37:10 | 00:00:00 | |
| HSKMA3-T | 2026-09-06 00:55:05 | 50.88517 | 8.30703 | 112° | 58km/h | 21181m | -9.8m/s | -52°C | 0.7% | 48.6hPa | 2.5V | 08:18:18 | 02:37:08 | 00:00:00 | |
| AA1-15 | 2026-09-06 00:55:03 | 50.88525 | 8.30658 | 100° | 57km/h | 21201m | -9.7m/s | -52°C | 0.7% | 48.4hPa | 2.6V | 08:18:18 | 02:37:06 | 00:00:00 | |
| BIOWL1-15 | 2026-09-06 00:55:02 | 50.88527 | 8.30637 | 94° | 53km/h | 21211m | -10.1m/s | -52°C | 0.7% | 48.4hPa | 2.5V | 08:18:18 | 02:37:05 | 00:00:00 | |
| EDDB2-11 | 2026-09-06 00:55:02 | 50.88527 | 8.30616 | 88° | 47km/h | 21221m | -9.8m/s | -52.1°C | 1.2% | 48.3hPa | 2.6V | 00:00:00 | 00:00:00 | 00:00:00 | |
| DO3DL | 2026-09-06 00:55:01 | 50.88527 | 8.30637 | 95° | 53km/h | 21212m | -10.1m/s | -52.0°C | 1.2% | 48.4hPa | 2.6V | 08:18:00 | 00:00:00 | 00:00:00 | |
| WEDDY | 2026-09-06 00:55:00 | 50.88526 | 8.30598 | 85° | 44km/h | 21231m | -9.7m/s | -52.2°C | 1.2% | 48.2hPa | 2.6V | 00:00:00 | 00:00:00 | 00:00:00 | |
| GOEST3-10 | 2026-09-06 00:54:59 | 50.88525 | 8.30581 | 80° | 26km/h | 21241m | -9.5m/s | -52.1°C | 3.9% | 48.1hPa | 2.6V | 00:00:00 | 02:37:02 | 00:00:00 | |
| DL1XH-15 | 2026-09-06 00:54:57 | 50.88519 | 8.30548 | 69° | 20km/h | 21270m | -9.6m/s | -52.4°C | 3.9% | 48hPa | 2.5V | 08:17:43 | 02:36:59 | 00:00:00 | |
| DL1XH-west | 2026-09-06 00:54:57 | 50.88521 | 8.30556 | 73° | 26km/h | 21260m | -9.9m/s | -52.3°C | 0.7% | 48hPa | 2.5V | 08:18:18 | 02:37:00 | 00:00:00 | |
| HSKMA3-T | 2026-09-06 00:54:54 | 50.88517 | 8.30536 | 69° | 9km/h | 21289m | -9.6m/s | -52.5°C | 0.7% | 47.8hPa | 2.6V | 08:18:18 | 02:36:57 | 00:00:00 | |
| AA1-15 | 2026-09-06 00:54:53 | 50.88516 | 8.30534 | 83° | 4km/h | 21299m | -9.8m/s | -52.5°C | 0.7% | 47.7hPa | 2.6V | 08:18:18 | 02:36:56 | 00:00:00 | |
| BIOWL1-15 | 2026-09-06 00:54:52 | 50.88516 | 8.30533 | 191° | 4km/h | 21309m | -9.9m/s | -52.5°C | 0.8% | 47.6hPa | 2.5V | 08:18:18 | 02:36:55 | 00:00:00 | |
| DB0ND-19 | 2026-09-06 00:54:49 | 50.88528 | 8.30546 | 210° | 26km/h | 21350m | -10.8m/s | -52.5°C | 1.2% | 47.3hPa | 2.5V | 00:00:00 | 00:00:00 | 00:00:00 | |
| DJ2DS-15 | 2026-09-06 00:54:48 | 50.88528 | 8.30546 | 211° | 46km/h | 21350m | -10.7m/s | -52.4°C | 3.9% | 47.3hPa | 2.5V | 00:00:00 | 02:36:51 | 00:00:00 | |
| DB0UT-7 | 2026-09-06 00:54:47 | 50.88534 | 8.30551 | 207° | 38km/h | 21361m | -10.3m/s | -52.5°C | 3.9% | 47.2hPa | 2.5V | 08:17:00 | 02:36:50 | 00:00:00 | |
| DM0DOS-11 | 2026-09-06 00:54:46 | 50.88562 | 8.30565 | 188° | 46km/h | 21391m | -9.9m/s | -52.5°C | 3.9% | 47hPa | 2.6V | 08:17:55 | 02:36:47 | 00:00:00 | |
| DL1XH-west | 2026-09-06 00:54:46 | 50.88542 | 8.30557 | 200° | 37km/h | 21371m | -10.1m/s | -52.6°C | 0.8% | 47.2hPa | 2.5V | 08:18:18 | 02:36:49 | 00:00:00 | |
| HSKMA3-T | 2026-09-06 00:54:44 | 50.88563 | 8.30565 | 188° | 46km/h | 21391m | -10m/s | -52.5°C | 0.7% | 47hPa | 2.6V | 08:18:18 | 02:36:47 | 00:00:00 | |
| AA1-15 | 2026-09-06 00:54:42 | 50.88588 | 8.30566 | 176° | 53km/h | 21410m | -9.8m/s | -52.4°C | 0.8% | 46.9hPa | 2.5V | 08:18:18 | 02:36:45 | 00:00:00 | |
| BIOWL1-15 | 2026-09-06 00:54:41 | 50.88627 | 8.30551 | 157° | 55km/h | 21440m | -9.6m/s | -52.4°C | 0.7% | 46.7hPa | 2.6V | 08:18:18 | 02:36:42 | 00:00:00 | |
| DL1XH-west | 2026-09-06 00:54:36 | 50.88660 | 8.30516 | 135° | 51km/h | 21469m | -9.9m/s | -52.4°C | 0.7% | 46.5hPa | 2.5V | 08:18:18 | 02:36:39 | 00:00:00 | |
| DM0DOS-11 | 2026-09-06 00:54:35 | 50.88676 | 8.30485 | 120° | 49km/h | 21489m | -9.9m/s | -52.5°C | 3.9% | 46.3hPa | 2.6V | 08:18:05 | 02:36:37 | 00:00:00 | |
| HSKMA3-T | 2026-09-06 00:54:34 | 50.88676 | 8.30485 | 121° | 49km/h | 21489m | -9.9m/s | -52.5°C | 0.7% | 46.3hPa | 2.6V | 08:18:18 | 02:36:37 | 00:00:00 | |
| DJ8HS-15 | 2026-09-06 00:54:33 | 50.88681 | 8.30468 | 113° | 29km/h | 21500m | -10.3m/s | -52.5°C | 3.9% | 46.2hPa | 2.5V | 00:00:00 | 02:36:36 | 00:00:00 | |
| HARRO8 | 2026-09-06 00:54:32 | 50.88687 | 8.30434 | 96° | 42km/h | 21520m | -10.3m/s | -52.5°C | 0% | 46.1hPa | 2.5V | 00:00:00 | 00:00:00 | 00:00:00 | |
| DL1XH-15 | 2026-09-06 00:54:31 | 50.88675 | 8.30369 | 44° | 27km/h | 21571m | -9.9m/s | -52.6°C | 3.9% | 45.8hPa | 2.5V | 08:18:13 | 02:36:29 | 00:00:00 | |
| AA1-15 | 2026-09-06 00:54:31 | 50.88687 | 8.30434 | 97° | 42km/h | 21520m | -10.3m/s | -52.5°C | 0.8% | 46.1hPa | 2.5V | 08:18:18 | 02:36:34 | 00:00:00 | |
| BIOWL1-15 | 2026-09-06 00:54:28 | 50.88684 | 8.30389 | 69° | 35km/h | 21551m | -10m/s | -52.6°C | 0.7% | 45.9hPa | 2.6V | 08:18:18 | 02:36:31 | 00:00:00 | |
| DL1XH-west | 2026-09-06 00:54:25 | 50.88670 | 8.30363 | 30° | 24km/h | 21581m | -9.8m/s | -52.7°C | 0.7% | 45.7hPa | 2.5V | 08:18:18 | 02:36:28 | 00:00:00 | |
| DM0DOS-11 | 2026-09-06 00:54:24 | 50.88665 | 8.30359 | 12° | 20km/h | 21591m | -9.9m/s | -52.7°C | 3.9% | 45.6hPa | 2.6V | 08:18:15 | 02:36:27 | 00:00:00 | |
| HSKMA3-T | 2026-09-06 00:54:24 | 50.88665 | 8.30359 | 13° | 22km/h | 21591m | -9.9m/s | -52.7°C | 0.7% | 45.6hPa | 2.6V | 08:18:18 | 02:36:27 | 00:00:00 | |
| AA1-15 | 2026-09-06 00:54:21 | 50.88652 | 8.30365 | 311° | 16km/h | 21620m | -10.1m/s | -52.9°C | 0.7% | 45.4hPa | 2.5V | 08:18:18 | 02:36:24 | 00:00:00 | |
| DJ2DS-15 | 2026-09-06 00:54:21 | 50.88650 | 8.30371 | 289° | 16km/h | 21630m | -10.0m/s | -52.9°C | 1.2% | 45.3hPa | 2.5V | 00:00:00 | 00:00:00 | 00:00:00 | |
| DO3MHA-12 | 2026-09-06 00:54:20 | 50.88650 | 8.30371 | 290° | 27km/h | 21631m | -10.0m/s | -52.9°C | 3.9% | 45.2hPa | 2.5V | 08:18:00 | 02:36:23 | 00:00:00 | |
| DM0DOS-11 | 2026-09-06 00:54:19 | 50.88673 | 8.30410 | 191° | 35km/h | 21690m | -9.9m/s | -53.3°C | 4.1% | 44.9hPa | 2.6V | 08:18:25 | 02:36:17 | 00:00:00 | |
| DO2JMG | 2026-09-06 00:54:18 | 50.88651 | 8.30385 | 246° | 22km/h | 21650m | -9.9m/s | -53°C | 0.8% | 45.2hPa | 2.6V | 08:19:09 | 02:36:21 | 00:00:00 | |
| BIOWL1-15 | 2026-09-06 00:54:18 | 50.88659 | 8.30400 | 215° | 27km/h | 21670m | -9.7m/s | -53.2°C | 0.8% | 45hPa | 2.5V | 08:19:09 | 02:36:19 | 00:00:00 | |
| DB0NH | 2026-09-06 00:54:17 | 50.88654 | 8.30393 | 230° | 33km/h | 21660m | -9.8m/s | -53.1°C | 4.0% | 45.1hPa | 2.5V | 00:00:00 | 02:36:20 | 00:00:00 | |
| DO3MHA-11 | 2026-09-06 00:54:16 | 50.88659 | 8.30400 | 215° | 29km/h | 21670m | -9.7m/s | -53.1°C | 4.0% | 45.0hPa | 2.5V | 00:00:00 | 02:36:19 | 00:00:00 | |
| DL1XH-15 | 2026-09-06 00:54:15 | 50.88710 | 8.30400 | 152° | 40km/h | 21729m | -10.3m/s | -53.4°C | 4.2% | 44.6hPa | 2.5V | 08:18:29 | 02:36:13 | 00:00:00 | |
| DL1XH-west | 2026-09-06 00:54:15 | 50.88665 | 8.30406 | 203° | 31km/h | 21680m | -9.9m/s | -53.2°C | 0.8% | 45hPa | 2.5V | 08:19:09 | 02:36:18 | 00:00:00 | |
| HSKMA3-T | 2026-09-06 00:54:14 | 50.88673 | 8.30409 | 192° | 35km/h | 21690m | -9.9m/s | -53.3°C | 0.8% | 44.9hPa | 2.6V | 08:19:09 | 02:36:17 | 00:00:00 | |
| AA1-15 | 2026-09-06 00:54:10 | 50.88711 | 8.30400 | 153° | 40km/h | 21729m | -10.3m/s | -53.4°C | 0.9% | 44.6hPa | 2.5V | 08:19:09 | 02:36:13 | 00:00:00 | |
| DL1XH-west | 2026-09-06 00:54:04 | 50.88743 | 8.30329 | 96° | 35km/h | 21790m | -10m/s | -53.5°C | 0.9% | 44.2hPa | 2.5V | 08:19:09 | 02:36:07 | 00:00:00 | |
| HSKMA3-T | 2026-09-06 00:54:03 | 50.88743 | 8.30316 | 85° | 33km/h | 21799m | -9.7m/s | -53.5°C | 0.9% | 44.2hPa | 2.6V | 08:19:09 | 02:36:06 | 00:00:00 | |
| DL1XH-15 | 2026-09-06 00:54:02 | 50.88734 | 8.30283 | 46° | 29km/h | 21829m | -10m/s | -53.2°C | 4.1% | 43.9hPa | 2.5V | 08:18:39 | 02:36:03 | 00:00:00 | |
| AA1-15 | 2026-09-06 00:54:00 | 50.88734 | 8.30283 | 47° | 29km/h | 21829m | -10m/s | -53.3°C | 0.8% | 43.9hPa | 2.5V | 08:19:09 | 02:36:03 | 00:00:00 | |
| DO2JMG | 2026-09-06 00:53:57 | 50.88715 | 8.30268 | 8° | 29km/h | 21860m | -10.2m/s | -53.2°C | 0.8% | 43.7hPa | 2.6V | 08:19:09 | 02:36:00 | 00:00:00 | |
| DL1XH-west | 2026-09-06 00:53:54 | 50.88693 | 8.30275 | 331° | 33km/h | 21890m | -10.1m/s | -53.2°C | 0.7% | 43.5hPa | 2.5V | 08:19:09 | 02:35:57 | 00:00:00 | |
| HSKMA3-T | 2026-09-06 00:53:52 | 50.88680 | 8.30292 | 309° | 35km/h | 21911m | -10.3m/s | -53.3°C | 0.7% | 43.4hPa | 2.6V | 08:19:09 | 02:35:55 | 00:00:00 | |
| AA1-15 | 2026-09-06 00:53:49 | 50.88670 | 8.30329 | 274° | 33km/h | 21942m | -10.5m/s | -53.4°C | 0.8% | 43.2hPa | 2.5V | 08:19:09 | 02:35:52 | 00:00:00 | |
| DO3MHA-12 | 2026-09-06 00:53:48 | 50.88671 | 8.30342 | 262° | 29km/h | 21953m | -10.2m/s | -53.4°C | 4.0% | 43.1hPa | 2.5V | 00:00:00 | 02:35:51 | 00:00:00 | |
| DM0DOS-11 | 2026-09-06 00:53:47 | 50.88688 | 8.30378 | 205° | 27km/h | 21994m | -10.3m/s | -53.7°C | 4.2% | 42.8hPa | 2.5V | 08:18:55 | 02:35:47 | 00:00:00 | |
| BIOWL1-15 | 2026-09-06 00:53:46 | 50.88676 | 8.30364 | 233° | 29km/h | 21973m | -10.1m/s | -53.5°C | 0.8% | 43hPa | 2.6V | 08:19:09 | 02:35:49 | 00:00:00 | |
| DL1XH-west | 2026-09-06 00:53:43 | 50.88694 | 8.30382 | 190° | 27km/h | 22004m | -10m/s | -53.8°C | 0.9% | 42.8hPa | 2.5V | 08:19:09 | 02:35:46 | 00:00:00 | |
| HSKMA3-T | 2026-09-06 00:53:42 | 50.88701 | 8.30382 | 174° | 27km/h | 22014m | -10.3m/s | -53.9°C | 0.9% | 42.7hPa | 2.6V | 08:19:09 | 02:35:45 | 00:00:00 | |
| AA1-15 | 2026-09-06 00:53:39 | 50.88719 | 8.30366 | 131° | 31km/h | 22045m | -10.3m/s | -54.1°C | 0.9% | 42.5hPa | 2.5V | 08:19:09 | 02:35:42 | 00:00:00 | |
| DO3MHA-12 | 2026-09-06 00:53:38 | 50.88724 | 8.30355 | 119° | 42km/h | 22056m | -10.6m/s | -54.1°C | 4.3% | 42.4hPa | 2.6V | 00:00:00 | 02:35:41 | 00:00:00 | |
| DM0DOS-11 | 2026-09-06 00:53:37 | 50.88728 | 8.30295 | 75° | 42km/h | 22098m | -10.5m/s | -54.2°C | 4.3% | 42.1hPa | 2.6V | 08:19:05 | 02:35:37 | 00:00:00 | |
| BIOWL1-15 | 2026-09-06 00:53:35 | 50.88730 | 8.30312 | 87° | 40km/h | 22088m | -10.6m/s | -54.2°C | 1% | 42.2hPa | 2.6V | 08:19:09 | 02:35:38 | 00:00:00 | |
| DL1XH-west | 2026-09-06 00:53:32 | 50.88718 | 8.30264 | 54° | 46km/h | 22119m | -10.1m/s | -54.2°C | 1% | 42hPa | 2.5V | 08:19:09 | 02:35:35 | 00:00:00 | |
| HSKMA3-T | 2026-09-06 00:53:31 | 50.88711 | 8.30251 | 43° | 46km/h | 22129m | -10.2m/s | -54.2°C | 1% | 41.9hPa | 2.5V | 08:19:09 | 02:35:34 | 00:00:00 | |
| AA1-15 | 2026-09-06 00:53:28 | 50.88683 | 8.30226 | 13° | 40km/h | 22160m | -10.3m/s | -54.1°C | 1% | 41.7hPa | 2.5V | 08:20:00 | 02:35:31 | 00:00:00 | |
| DO3MHA-12 | 2026-09-06 00:53:28 | 50.88682 | 8.30226 | 13° | 24km/h | 22160m | -10.3m/s | -54.0°C | 4.4% | 41.7hPa | 2.6V | 00:00:00 | 02:35:31 | 00:00:00 | |
| DM0DOS-11 | 2026-09-06 00:53:27 | 50.88652 | 8.30233 | 325° | 24km/h | 22201m | -10.2m/s | -54.1°C | 4.3% | 41.5hPa | 2.6V | 08:19:15 | 02:35:27 | 00:00:00 | |
| BIOWL1-15 | 2026-09-06 00:53:24 | 50.88652 | 8.30233 | 325° | 24km/h | 22201m | -10.2m/s | -54.1°C | 0.9% | 41.5hPa | 2.6V | 08:20:00 | 02:35:27 | 00:00:00 | |
| DO2JMG | 2026-09-06 00:53:23 | 50.88648 | 8.30239 | 309° | 18km/h | 22211m | -10.5m/s | -54.1°C | 1% | 41.4hPa | 2.5V | 08:21:42 | 02:35:26 | 00:00:00 | |
| DL1XH-west | 2026-09-06 00:53:21 | 50.88646 | 8.30249 | 251° | 11km/h | 22232m | -10.7m/s | -54.1°C | 0.9% | 41.3hPa | 2.5V | 08:20:00 | 02:35:24 | 00:00:00 | |
| AA1-15 | 2026-09-06 00:53:17 | 50.88661 | 8.30250 | 152° | 26km/h | 22274m | -10.6m/s | -54.1°C | 0.9% | 41hPa | 2.5V | 08:20:00 | 02:35:20 | 00:00:00 | |
| BIOWL1-15 | 2026-09-06 00:53:14 | 50.88679 | 8.30222 | 125° | 42km/h | 22306m | -10.5m/s | -54°C | 0.9% | 40.8hPa | 2.6V | 08:20:00 | 02:35:17 | 00:00:00 | |
| DO2JMG | 2026-09-06 00:53:13 | 50.88684 | 8.30207 | 117° | 46km/h | 22316m | -10.8m/s | -53.9°C | 0.9% | 0hPa | 2.6V | 08:21:42 | 02:35:16 | 00:00:00 | |
| HSKMA3-T | 2026-09-06 00:53:11 | 50.88693 | 8.30169 | 102° | 55km/h | 22338m | -10.8m/s | -53.8°C | 0.9% | 40.6hPa | 2.5V | 08:20:00 | 02:35:14 | 00:00:00 | |
| DL1XH-west | 2026-09-06 00:53:10 | 50.88695 | 8.30147 | 96° | 58km/h | 22349m | -10.7m/s | -53.8°C | 0.9% | 40.5hPa | 2.5V | 08:20:00 | 02:35:13 | 00:00:00 | |
| DL1ZP-14 | 2026-09-06 00:53:09 | 50.88696 | 8.30123 | 89° | 60km/h | 22359m | -10.7m/s | -53.8°C | 1.3% | 40.4hPa | 2.5V | 00:00:00 | 00:00:00 | 00:00:00 | |
| DO3MHA-12 | 2026-09-06 00:53:08 | 50.88695 | 8.30098 | 84° | 60km/h | 22370m | -10.6m/s | -53.8°C | 4.3% | 40.3hPa | 2.5V | 00:00:00 | 02:35:11 | 00:00:00 | |
| DM0DOS-11 | 2026-09-06 00:53:06 | 50.88675 | 8.30004 | 59° | 58km/h | 22411m | -10.2m/s | -53.8°C | 4.4% | 40.1hPa | 2.5V | 08:19:35 | 02:35:07 | 00:00:00 | |
| AA1-15 | 2026-09-06 00:53:06 | 50.88688 | 8.30049 | 71° | 64km/h | 22391m | -10.5m/s | -53.9°C | 1% | 40.2hPa | 2.5V | 08:20:00 | 02:35:09 | 00:00:00 | |
| BIOWL1-15 | 2026-09-06 00:53:04 | 50.88675 | 8.30004 | 59° | 58km/h | 22411m | -10.2m/s | -53.9°C | 1% | 40.1hPa | 2.5V | 08:20:00 | 02:35:07 | 00:00:00 | |
| DO2JMG | 2026-09-06 00:53:03 | 50.88667 | 8.29986 | 53° | 55km/h | 22421m | -10.2m/s | -53.9°C | 1% | 0hPa | 2.5V | 08:21:42 | 02:35:06 | 00:00:00 | |
| HSKMA3-T | 2026-09-06 00:53:00 | 50.88641 | 8.29944 | 37° | 44km/h | 22452m | -10.5m/s | -53.8°C | 0.9% | 39.9hPa | 2.6V | 08:20:00 | 02:35:03 | 00:00:00 | |
| DL1XH-west | 2026-09-06 00:52:59 | 50.88632 | 8.29935 | 31° | 38km/h | 22463m | -11m/s | -53.7°C | 1% | 39.8hPa | 2.5V | 08:20:00 | 02:35:02 | 00:00:00 | |
| AA1-15 | 2026-09-06 00:52:56 | 50.88611 | 8.29920 | 14° | 22km/h | 22495m | -10.4m/s | -53.4°C | 0.9% | 39.6hPa | 2.6V | 08:20:00 | 02:34:59 | 00:00:00 | |
| DL1XH1-15 | 2026-09-06 00:52:54 | 50.88604 | 8.29919 | 349° | 9km/h | 22516m | -10.5m/s | -53.4°C | 4.3% | 39.5hPa | 2.5V | 08:19:45 | 02:34:57 | 00:00:00 | |
| BIOWL1-15 | 2026-09-06 00:52:54 | 50.88604 | 8.29919 | 349° | 9km/h | 22516m | -10.5m/s | -53.4°C | 1% | 39.5hPa | 2.5V | 08:20:00 | 02:34:57 | 00:00:00 | |
| DO2JMG | 2026-09-06 00:52:52 | 50.88603 | 8.29921 | 219° | 7km/h | 22538m | -10.7m/s | -53.4°C | 0.9% | 0hPa | 2.5V | 08:21:42 | 02:34:55 | 00:00:00 | |
| HSKMA3-T | 2026-09-06 00:52:50 | 50.88610 | 8.29925 | 191° | 20km/h | 22559m | -11.1m/s | -53.4°C | 0.9% | 39.2hPa | 2.6V | 08:20:00 | 02:34:53 | 00:00:00 | |
| DL1XH-west | 2026-09-06 00:52:48 | 50.88623 | 8.29926 | 176° | 35km/h | 22581m | -11.6m/s | -53.4°C | 0.8% | 39.1hPa | 2.5V | 08:20:00 | 02:34:51 | 00:00:00 | |
| AA1-15 | 2026-09-06 00:52:45 | 50.88655 | 8.29913 | 155° | 53km/h | 22616m | -11.2m/s | -53.2°C | 0.9% | 38.9hPa | 2.6V | 08:20:00 | 02:34:48 | 00:00:00 | |
| BIOWL1-15 | 2026-09-06 00:52:43 | 50.88699 | 8.29855 | 126° | 60km/h | 22660m | -11m/s | -52.9°C | 0.8% | 38.6hPa | 2.5V | 08:20:00 | 02:34:44 | 00:00:00 | |
| DO2JMG | 2026-09-06 00:52:42 | 50.88689 | 8.29873 | 134° | 60km/h | 22649m | -10.8m/s | -52.9°C | 0.8% | 0hPa | 2.5V | 08:21:42 | 02:34:45 | 00:00:00 | |
| HSKMA3-T | 2026-09-06 00:52:40 | 50.88707 | 8.29836 | 120° | 58km/h | 22671m | -10.7m/s | -52.9°C | 0.8% | 38.5hPa | 2.5V | 08:20:00 | 02:34:43 | 00:00:00 | |
| DD8BA-10 | 2026-09-06 00:52:40 | 50.88707 | 8.29836 | 120° | 42km/h | 22671m | -10.6m/s | -52.9°C | 4.1% | 38.5hPa | 2.5V | 00:00:00 | 00:00:00 | 00:00:00 | |
| DD1CC3-15 | 2026-09-06 00:52:39 | 50.88707 | 8.29836 | 120° | 58km/h | 22671m | -10.7m/s | -52.9°C | 1.2% | 38.5hPa | 2.5V | 08:20:00 | 00:00:00 | 00:00:00 | |
| DL3AQ-11 | 2026-09-06 00:52:38 | 50.88720 | 8.29775 | 97° | 47km/h | 22703m | -11.0m/s | -53.0°C | 1.2% | 38.4hPa | 2.5V | 00:00:00 | 00:00:00 | 00:00:00 | |
| DL1XH-west | 2026-09-06 00:52:38 | 50.88718 | 8.29795 | 105° | 53km/h | 22692m | -10.8m/s | -53°C | 0.9% | 38.4hPa | 2.6V | 08:20:51 | 02:34:41 | 00:00:00 | |
| DD1CC8 | 2026-09-06 00:52:37 | 50.88720 | 8.29775 | 97° | 47km/h | 22703m | -11.0m/s | -53.0°C | 1.2% | 38.4hPa | 2.5V | 00:00:00 | 00:00:00 | 00:00:00 | |
| DM0DOS-11 | 2026-09-06 00:52:36 | 50.88718 | 8.29724 | 74° | 37km/h | 22736m | -11.3m/s | -52.9°C | 4.1% | 38.2hPa | 2.5V | 08:20:05 | 02:34:37 | 00:00:00 | |
| AA1-15 | 2026-09-06 00:52:34 | 50.88718 | 8.29724 | 74° | 37km/h | 22736m | -11.3m/s | -52.9°C | 0.8% | 38.2hPa | 2.5V | 08:20:51 | 02:34:37 | 00:00:00 | |
| BIOWL1-15 | 2026-09-06 00:52:32 | 50.88711 | 8.29700 | 57° | 29km/h | 22758m | -11.6m/s | -52.9°C | 0.8% | 38hPa | 2.6V | 08:20:51 | 02:34:35 | 00:00:00 | |
| SONDE2-11 | 2026-09-06 00:52:31 | 50.88707 | 8.29691 | 47° | 24km/h | 22770m | -11.3m/s | -52.9°C | 1.2% | 38.0hPa | 2.5V | 00:00:00 | 00:00:00 | 00:00:00 | |
| DD8BA-10 | 2026-09-06 00:52:30 | 50.88703 | 8.29685 | 35° | 20km/h | 22781m | -11.2m/s | -52.8°C | 4.1% | 37.8hPa | 2.5V | 00:00:00 | 00:00:00 | 00:00:00 | |
| DM0DOS-11 | 2026-09-06 00:52:29 | 50.88694 | 8.29712 | 237° | 27km/h | 22860m | -11.9m/s | -52.8°C | 4.1% | 37.4hPa | 2.5V | 08:20:16 | 02:34:26 | 00:00:00 | |
| HSKMA3-T | 2026-09-06 00:52:29 | 50.88699 | 8.29682 | 17° | 16km/h | 22792m | -10.9m/s | -52.9°C | 0.8% | 37.8hPa | 2.5V | 08:20:51 | 02:34:32 | 00:00:00 | |
| DL1XH-west | 2026-09-06 00:52:28 | 50.88695 | 8.29682 | 350° | 13km/h | 22803m | -11.1m/s | -52.9°C | 0.8% | 37.8hPa | 2.5V | 08:20:51 | 02:34:31 | 00:00:00 | |
| AA1-15 | 2026-09-06 00:52:23 | 50.88694 | 8.29712 | 237° | 27km/h | 22860m | -11.9m/s | -52.8°C | 0.8% | 37.4hPa | 2.5V | 08:20:51 | 02:34:26 | 00:00:00 | |
| BIOWL1-15 | 2026-09-06 00:52:23 | 50.88706 | 8.29730 | 215° | 37km/h | 22883m | -11.6m/s | -52.8°C | 0.8% | 37.3hPa | 2.6V | 08:20:51 | 02:34:24 | 00:00:00 | |
| DO3DL | 2026-09-06 00:52:23 | 50.88694 | 8.29712 | 238° | 29km/h | 22860m | -11.9m/s | -52.8°C | 1.2% | 37.4hPa | 2.6V | 08:20:00 | 00:00:00 | 00:00:00 | |
| DL1XH-15 | 2026-09-06 00:52:21 | 50.88724 | 8.29743 | 194° | 44km/h | 22906m | -11.4m/s | -52.6°C | 4.1% | 37.1hPa | 2.6V | 08:20:20 | 02:34:22 | 00:00:00 | |
| DL1XH-west | 2026-09-06 00:52:18 | 50.88736 | 8.29746 | 185° | 47km/h | 22917m | -11.2m/s | -52.6°C | 0.8% | 37.1hPa | 2.5V | 08:20:51 | 02:34:21 | 00:00:00 | |
| AA1-15 | 2026-09-06 00:52:13 | 50.88798 | 8.29717 | 143° | 55km/h | 22975m | -11.8m/s | -52.4°C | 0.8% | 36.8hPa | 2.5V | 08:20:51 | 02:34:16 | 00:00:00 | |
| BIOWL1-15 | 2026-09-06 00:52:11 | 50.88817 | 8.29686 | 125° | 53km/h | 22999m | -12.2m/s | -52.4°C | 0.8% | 36.6hPa | 2.5V | 08:20:51 | 02:34:14 | 00:00:00 | |
| DJ2KF-10 | 2026-09-06 00:52:11 | 50.88817 | 8.29686 | 125° | 40km/h | 22999m | -12.2m/s | -52.3°C | 4.0% | 36.6hPa | 2.5V | 00:00:00 | 02:34:14 | 00:00:00 | |
| DD8BA-10 | 2026-09-06 00:52:10 | 50.88823 | 8.29669 | 117° | 31km/h | 23011m | -12.0m/s | -52.4°C | 4.0% | 36.5hPa | 2.5V | 00:00:00 | 00:00:00 | 00:00:00 | |
| DF3TZ-5 | 2026-09-06 00:52:09 | 50.88830 | 8.29633 | 96° | 42km/h | 23035m | -11.8m/s | -52.4°C | 1.2% | 36.4hPa | 2.5V | 00:00:00 | 00:00:00 | 00:00:00 | |
| DM0DOS-11 | 2026-09-06 00:52:08 | 50.88823 | 8.29583 | 47° | 22km/h | 23081m | -11.8m/s | -52.4°C | 4% | 36.2hPa | 2.5V | 08:20:35 | 02:34:07 | 00:00:00 | |
| HSKMA3-T | 2026-09-06 00:52:08 | 50.88830 | 8.29633 | 97° | 44km/h | 23035m | -11.8m/s | -52.4°C | 0.8% | 36.4hPa | 2.6V | 08:20:51 | 02:34:11 | 00:00:00 | |
| DL1XH-west | 2026-09-06 00:52:07 | 50.88830 | 8.29617 | 86° | 38km/h | 23047m | -11.7m/s | -52.4°C | 0.8% | 36.3hPa | 2.6V | 08:20:51 | 02:34:10 | 00:00:00 | |
| AA1-15 | 2026-09-06 00:52:03 | 50.88819 | 8.29579 | 27° | 18km/h | 23093m | -11.8m/s | -52.3°C | 0.8% | 36.1hPa | 2.6V | 08:20:51 | 02:34:06 | 00:00:00 | |
| BIOWL1-15 | 2026-09-06 00:52:00 | 50.88809 | 8.29589 | 268° | 18km/h | 23141m | -11.9m/s | -52.2°C | 0.8% | 35.8hPa | 2.5V | 08:20:51 | 02:34:02 | 00:00:00 | |
| HSKMA3-T | 2026-09-06 00:51:58 | 50.88810 | 8.29596 | 250° | 22km/h | 23152m | -11.6m/s | -52.2°C | 0.8% | 35.7hPa | 2.5V | 08:20:51 | 02:34:01 | 00:00:00 | |
| DL1XH-west | 2026-09-06 00:51:56 | 50.88818 | 8.29613 | 220° | 33km/h | 23176m | -11.7m/s | -52.1°C | 0.8% | 35.6hPa | 2.6V | 08:20:51 | 02:33:59 | 00:00:00 | |
| GOEST3-10 | 2026-09-06 00:51:56 | 50.88818 | 8.29613 | 221° | 40km/h | 23176m | -11.7m/s | -52.0°C | 4.0% | 35.6hPa | 2.6V | 00:00:00 | 00:00:00 | 00:00:00 | |
| DL1XH-15 | 2026-09-06 00:51:55 | 50.88880 | 8.29624 | 159° | 53km/h | 23246m | -11.3m/s | -51.9°C | 3.9% | 35.2hPa | 2.6V | 08:20:49 | 02:33:53 | 00:00:00 | |
| AA1-15 | 2026-09-06 00:51:52 | 50.88855 | 8.29631 | 178° | 46km/h | 23223m | -11.6m/s | -52°C | 0.7% | 35.4hPa | 2.5V | 08:20:51 | 02:33:55 | 00:00:00 | |
| BIOWL1-15 | 2026-09-06 00:51:50 | 50.88880 | 8.29624 | 160° | 53km/h | 23246m | -11.3m/s | -51.9°C | 0.7% | 35.2hPa | 2.6V | 08:20:51 | 02:33:53 | 00:00:00 | |
| DF7PN | 2026-09-06 00:51:47 | 50.88925 | 8.29570 | 128° | 58km/h | 23293m | -12.5m/s | -52.0°C | 1.1% | 35.0hPa | 2.6V | 00:00:00 | 00:00:00 | 00:00:00 | |
| HSKMA3-T | 2026-09-06 00:51:47 | 50.88915 | 8.29588 | 136° | 58km/h | 23281m | -11.9m/s | -52°C | 0.7% | 35hPa | 2.5V | 08:21:42 | 02:33:50 | 00:00:00 | |
| DL1XH1-15 | 2026-09-06 00:51:46 | 50.88940 | 8.29531 | 114° | 58km/h | 23318m | -12.3m/s | -52°C | 3.9% | 34.9hPa | 2.6V | 08:20:55 | 02:33:47 | 00:00:00 | |
| DL1XH-west | 2026-09-06 00:51:45 | 50.88933 | 8.29551 | 122° | 58km/h | 23306m | -12.3m/s | -52°C | 0.7% | 34.9hPa | 2.6V | 08:21:42 | 02:33:48 | 00:00:00 | |
| AA1-15 | 2026-09-06 00:51:42 | 50.88949 | 8.29487 | 99° | 55km/h | 23342m | -12.1m/s | -52°C | 0.7% | 34.7hPa | 2.5V | 08:21:42 | 02:33:45 | 00:00:00 | |
| BIOWL1-15 | 2026-09-06 00:51:41 | 50.88947 | 8.29430 | 74° | 42km/h | 23377m | -11.7m/s | -52.2°C | 0.8% | 34.5hPa | 2.5V | 08:21:42 | 02:33:42 | 00:00:00 | |
| DJ2KF-10 | 2026-09-06 00:51:41 | 50.88949 | 8.29466 | 91° | 37km/h | 23354m | -11.8m/s | -52.0°C | 3.9% | 34.6hPa | 2.5V | 00:00:00 | 02:33:44 | 00:00:00 | |
| DD8BA-10 | 2026-09-06 00:51:40 | 50.88949 | 8.29447 | 83° | 26km/h | 23366m | -11.7m/s | -52.1°C | 3.9% | 34.5hPa | 2.5V | 08:20:00 | 00:00:00 | 00:00:00 | |
| DD1CC3-15 | 2026-09-06 00:51:39 | 50.88947 | 8.29430 | 75° | 42km/h | 23378m | -11.7m/s | -52.2°C | 1.2% | 34.5hPa | 2.5V | 08:21:00 | 00:00:00 | 00:00:00 | |
| DF3TZ-5 | 2026-09-06 00:51:38 | 50.88940 | 8.29404 | 54° | 27km/h | 23401m | -12.0m/s | -52.2°C | 1.2% | 34.4hPa | 2.5V | 00:00:00 | 00:00:00 | 00:00:00 | |
| DM0DOS-11 | 2026-09-06 00:51:37 | 50.88928 | 8.29391 | 355° | 13km/h | 23436m | -12.1m/s | -52.2°C | 4% | 34.2hPa | 2.5V | 08:21:05 | 02:33:37 | 00:00:00 | |
| HSKMA3-T | 2026-09-06 00:51:36 | 50.88935 | 8.29396 | 42° | 22km/h | 23412m | -11.6m/s | -52.2°C | 0.8% | 34.4hPa | 2.6V | 08:21:42 | 02:33:39 | 00:00:00 | |
| DL1XH-west | 2026-09-06 00:51:34 | 50.88928 | 8.29391 | 355° | 13km/h | 23436m | -12.1m/s | -52.2°C | 0.7% | 34.2hPa | 2.5V | 08:21:42 | 02:33:37 | 00:00:00 | |
| AA1-15 | 2026-09-06 00:51:32 | 50.88924 | 8.29397 | 277° | 15km/h | 23460m | -12.3m/s | -52.2°C | 0.8% | 34.1hPa | 2.6V | 08:21:42 | 02:33:35 | 00:00:00 | |
| DO3MHA-12 | 2026-09-06 00:51:32 | 50.88924 | 8.29397 | 277° | 40km/h | 23461m | -12.3m/s | -52.1°C | 4.0% | 34.0hPa | 2.6V | 00:00:00 | 02:33:35 | 00:00:00 | |
| DC4HF-4 | 2026-09-06 00:51:31 | 50.88927 | 8.29412 | 237° | 26km/h | 23485m | -12.6m/s | -52.0°C | 1.1% | 33.9hPa | 2.6V | 00:00:00 | 00:00:00 | 00:00:00 | |
| DD8BA-10 | 2026-09-06 00:51:30 | 50.88927 | 8.29412 | 238° | 47km/h | 23485m | -12.6m/s | -52.0°C | 3.9% | 33.9hPa | 2.6V | 00:00:00 | 00:00:00 | 00:00:00 | |
| DO3MHA-11 | 2026-09-06 00:51:28 | 50.88939 | 8.29431 | 216° | 51km/h | 23510m | -12.3m/s | -52.0°C | 3.9% | 33.8hPa | 2.6V | 00:00:00 | 02:33:31 | 00:00:00 | |
| NBG1-10 | 2026-09-06 00:51:27 | 50.88948 | 8.29440 | 207° | 40km/h | 23522m | -12.1m/s | -52.1°C | 3.9% | 33.7hPa | 2.6V | 00:00:00 | 02:33:30 | 00:00:00 | |
| DL1XH1-15 | 2026-09-06 00:51:26 | 50.88985 | 8.29452 | 178° | 55km/h | 23558m | -12.2m/s | -52.4°C | 4% | 33.5hPa | 2.6V | 08:21:15 | 02:33:27 | 00:00:00 | |
| HSKMA3-T | 2026-09-06 00:51:26 | 50.88959 | 8.29447 | 197° | 49km/h | 23534m | -12.2m/s | -52.3°C | 0.8% | 33.7hPa | 2.6V | 08:21:42 | 02:33:29 | 00:00:00 | |
| HARRO8 | 2026-09-06 00:51:26 | 50.88972 | 8.29451 | 188° | 53km/h | 23546m | -12.1m/s | -52.4°C | 1.2% | 33.6hPa | 2.6V | 00:00:00 | 00:00:00 | 00:00:00 | |
| DL4XJ-10 | 2026-09-06 00:51:25 | 50.88972 | 8.29451 | 189° | 35km/h | 23545m | -12.0m/s | -54.8°C | 0% | 0hPa | 2.6V | 00:00:00 | 00:00:00 | 00:00:00 | |
| EDDB2-11 | 2026-09-06 00:51:24 | 50.88985 | 8.29452 | 178° | 55km/h | 23558m | -12.2m/s | -52.4°C | 1.2% | 33.5hPa | 2.6V | 00:00:00 | 00:00:00 | 00:00:00 | |
| DL1XH-15 | 2026-09-06 00:51:23 | 50.89054 | 8.29394 | 120° | 46km/h | 23630m | -12.2m/s | -52.3°C | 4% | 33.2hPa | 2.6V | 08:21:21 | 02:33:21 | 00:00:00 | |
| DL1XH-west | 2026-09-06 00:51:23 | 50.88999 | 8.29450 | 170° | 57km/h | 23570m | -12.1m/s | -52.5°C | 0.8% | 33.5hPa | 2.5V | 08:21:42 | 02:33:26 | 00:00:00 | |
| DO2JMG | 2026-09-06 00:51:22 | 50.89013 | 8.29444 | 160° | 57km/h | 23582m | -12.4m/s | -52.4°C | 0.8% | 0hPa | 2.5V | 08:21:42 | 02:33:25 | 00:00:00 | |
| AA1-15 | 2026-09-06 00:51:21 | 50.89026 | 8.29435 | 152° | 55km/h | 23594m | -12.4m/s | -52.2°C | 0.7% | 33.4hPa | 2.5V | 08:21:42 | 02:33:24 | 00:00:00 | |
| HSKMA3-T | 2026-09-06 00:51:16 | 50.89061 | 8.29362 | 97° | 38km/h | 23654m | -12.1m/s | -52.2°C | 0.8% | 33.1hPa | 2.5V | 08:21:42 | 02:33:19 | 00:00:00 | |
| BIOWL1-15 | 2026-09-06 00:51:13 | 50.89040 | 8.29318 | 348° | 22km/h | 23727m | -12.2m/s | -52.2°C | 0.7% | 32.7hPa | 2.5V | 08:21:42 | 02:33:13 | 00:00:00 | |
| DL1XH-west | 2026-09-06 00:51:13 | 50.89056 | 8.29327 | 50° | 26km/h | 23690m | -12.4m/s | -52.1°C | 0.8% | 32.9hPa | 2.6V | 08:21:42 | 02:33:16 | 00:00:00 | |
| DO2JMG | 2026-09-06 00:51:11 | 50.89046 | 8.29318 | 7° | 22km/h | 23715m | -12.4m/s | -52.2°C | 0.7% | 0hPa | 2.5V | 08:21:42 | 02:33:14 | 00:00:00 | |
| HSKMA3-T | 2026-09-06 00:51:06 | 50.89024 | 8.29348 | 279° | 31km/h | 23774m | -12.1m/s | -52.4°C | 0.8% | 32.5hPa | 2.6V | 08:21:42 | 02:33:09 | 00:00:00 | |
| DL1XH-west | 2026-09-06 00:51:02 | 50.89033 | 8.29406 | 239° | 44km/h | 23822m | -12m/s | -52.3°C | 0.8% | 32.2hPa | 2.5V | 08:21:42 | 02:33:05 | 00:00:00 | |
| AA1-15 | 2026-09-06 00:51:00 | 50.89048 | 8.29434 | 222° | 51km/h | 23847m | -12.4m/s | -52.2°C | 0.8% | 32.1hPa | 2.6V | 08:21:42 | 02:33:03 | 00:00:00 | |
| BIOWL1-15 | 2026-09-06 00:50:59 | 50.89058 | 8.29446 | 214° | 53km/h | 23859m | -12.6m/s | -52.2°C | 0.8% | 32hPa | 2.6V | 08:21:42 | 02:33:02 | 00:00:00 | |
| HSKMA3-T | 2026-09-06 00:50:55 | 50.89110 | 8.29472 | 181° | 55km/h | 23909m | -12.4m/s | -52.3°C | 0.7% | 31.8hPa | 2.5V | 08:22:33 | 02:32:58 | 00:00:00 | |
| DL1XH-west | 2026-09-06 00:50:52 | 50.89148 | 8.29459 | 155° | 51km/h | 23944m | -11.7m/s | -52.3°C | 0.8% | 31.6hPa | 2.6V | 08:22:33 | 02:32:55 | 00:00:00 | |
| AA1-15 | 2026-09-06 00:50:49 | 50.89175 | 8.29421 | 120° | 46km/h | 23981m | -13.2m/s | -52.2°C | 0.8% | 31.5hPa | 2.5V | 08:22:33 | 02:32:52 | 00:00:00 | |
| BIOWL1-15 | 2026-09-06 00:50:48 | 50.89180 | 8.29405 | 107° | 44km/h | 23994m | -13m/s | -52.1°C | 0.8% | 31.4hPa | 2.5V | 08:22:33 | 02:32:51 | 00:00:00 | |
| DB0NH | 2026-09-06 00:50:47 | 50.89182 | 8.29388 | 92° | 33km/h | 24007m | -13.2m/s | -51.8°C | 3.8% | 31.2hPa | 2.5V | 00:00:00 | 02:32:50 | 00:00:00 | |
| DM0DOS-11 | 2026-09-06 00:50:46 | 50.89172 | 8.29347 | 46° | 35km/h | 24045m | -12.8m/s | -51.6°C | 3.7% | 31.1hPa | 2.5V | 08:21:55 | 02:32:47 | 00:00:00 | |
| HSKMA3-T | 2026-09-06 00:50:45 | 50.89177 | 8.29359 | 63° | 37km/h | 24033m | -12.6m/s | -51.7°C | 0.6% | 31.1hPa | 2.5V | 08:22:33 | 02:32:48 | 00:00:00 | |
| DL1XH-west | 2026-09-06 00:50:41 | 50.89149 | 8.29332 | 356° | 33km/h | 24083m | -13m/s | -51.9°C | 0.7% | 30.9hPa | 2.6V | 08:22:33 | 02:32:44 | 00:00:00 | |
| AA1-15 | 2026-09-06 00:50:39 | 50.89134 | 8.29340 | 324° | 31km/h | 24110m | -13.4m/s | -52°C | 0.7% | 30.8hPa | 2.6V | 08:22:33 | 02:32:42 | 00:00:00 | |
| DO2JMG | 2026-09-06 00:50:38 | 50.89129 | 8.29348 | 307° | 27km/h | 24123m | -13m/s | 0°C | 0% | 0hPa | 2.5V | 08:22:33 | 02:32:41 | 00:00:00 | |
| BIOWL1-15 | 2026-09-06 00:50:38 | 50.89126 | 8.29367 | 261° | 24km/h | 24148m | -12.6m/s | -52.2°C | 0.8% | 30.6hPa | 2.5V | 08:22:33 | 02:32:39 | 00:00:00 | |
| DO2KSM | 2026-09-06 00:50:37 | 50.89129 | 8.29348 | 308° | 27km/h | 24123m | -13.0m/s | -52.0°C | 1.1% | 30.8hPa | 2.6V | 08:22:00 | 00:00:00 | 00:00:00 | |
| DM0DOS-11 | 2026-09-06 00:50:36 | 50.89133 | 8.29382 | 210° | 27km/h | 24173m | -12.5m/s | -52.2°C | 4% | 30.5hPa | 2.6V | 08:22:05 | 02:32:37 | 00:00:00 | |
| HSKMA3-T | 2026-09-06 00:50:35 | 50.89128 | 8.29376 | 235° | 24km/h | 24161m | -12.4m/s | -52.2°C | 0.7% | 30.5hPa | 2.5V | 08:22:33 | 02:32:38 | 00:00:00 | |
| DO9LL-15 | 2026-09-06 00:50:35 | 50.89128 | 8.29375 | 236° | 40km/h | 24161m | -12.4m/s | -52.2°C | 3.9% | 30.5hPa | 2.5V | 00:00:00 | 02:32:38 | 00:00:00 | |
| DL1XH-15 | 2026-09-06 00:50:32 | 50.89157 | 8.29385 | 166° | 42km/h | 24211m | -13m/s | -52.3°C | 3.9% | 30.4hPa | 2.5V | 08:22:08 | 02:32:34 | 00:00:00 | |
| DL1XH-west | 2026-09-06 00:50:30 | 50.89167 | 8.29379 | 154° | 44km/h | 24224m | -13.7m/s | -52.3°C | 0.7% | 30.3hPa | 2.5V | 08:22:33 | 02:32:33 | 00:00:00 | |
| AA1-15 | 2026-09-06 00:50:28 | 50.89187 | 8.29357 | 135° | 51km/h | 24250m | -13.7m/s | -52.4°C | 0.8% | 30.1hPa | 2.5V | 08:22:33 | 02:32:31 | 00:00:00 | |
| BIOWL1-15 | 2026-09-06 00:50:27 | 50.89204 | 8.29321 | 117° | 57km/h | 24277m | -13.6m/s | -52.4°C | 0.7% | 30hPa | 2.6V | 08:22:33 | 02:32:29 | 00:00:00 | |
| DO2JMG | 2026-09-06 00:50:27 | 50.89196 | 8.29340 | 129° | 57km/h | 24264m | -13.1m/s | 0°C | 0% | 0hPa | 2.6V | 08:22:33 | 02:32:30 | 00:00:00 | |
| HSKMA3-T | 2026-09-06 00:50:24 | 50.89213 | 8.29280 | 100° | 55km/h | 24303m | -12.9m/s | -52.4°C | 0.8% | 29.9hPa | 2.5V | 08:22:33 | 02:32:27 | 00:00:00 | |
| HARRO8 | 2026-09-06 00:50:24 | 50.89214 | 8.29258 | 89° | 51km/h | 24315m | -12.7m/s | -52.4°C | 1.2% | 29.8hPa | 2.6V | 00:00:00 | 00:00:00 | 00:00:00 | |
| GOEST3-10 | 2026-09-06 00:50:23 | 50.89214 | 8.29258 | 90° | 44km/h | 24316m | -12.6m/s | -52.3°C | 4.1% | 29.8hPa | 2.6V | 00:00:00 | 00:00:00 | 00:00:00 | |
| DL1XH-15 | 2026-09-06 00:50:22 | 50.89193 | 8.29184 | 31° | 31km/h | 24379m | -13.2m/s | -52.3°C | 4.1% | 29.6hPa | 2.6V | 08:22:21 | 02:32:21 | 00:00:00 | |
| DL1XH-west | 2026-09-06 00:50:20 | 50.89205 | 8.29205 | 58° | 42km/h | 24353m | -13m/s | -52.4°C | 0.8% | 29.7hPa | 2.6V | 08:22:33 | 02:32:23 | 00:00:00 | |
| AA1-15 | 2026-09-06 00:50:18 | 50.89186 | 8.29179 | 12° | 27km/h | 24393m | -13.9m/s | -52.3°C | 0.8% | 29.5hPa | 2.5V | 08:22:33 | 02:32:20 | 00:00:00 | |
| BIOWL1-15 | 2026-09-06 00:50:16 | 50.89169 | 8.29188 | 309° | 24km/h | 24434m | -13.9m/s | -52.5°C | 0.8% | 29.3hPa | 2.5V | 08:22:33 | 02:32:17 | 00:00:00 | |
| HSKMA3-T | 2026-09-06 00:50:13 | 50.89166 | 8.29196 | 288° | 26km/h | 24447m | -13.5m/s | -52.5°C | 0.8% | 29.2hPa | 2.6V | 08:22:33 | 02:32:16 | 00:00:00 | |
| DL1XH-west | 2026-09-06 00:50:09 | 50.89179 | 8.29241 | 220° | 44km/h | 24499m | -12.9m/s | -52.2°C | 0.9% | 29.1hPa | 2.5V | 08:22:33 | 02:32:12 | 00:00:00 | |
| AA1-15 | 2026-09-06 00:50:06 | 50.89212 | 8.29264 | 189° | 51km/h | 24537m | -13.4m/s | -52.1°C | 0.7% | 28.9hPa | 2.6V | 08:22:33 | 02:32:09 | 00:00:00 | |
| DM0DOS-11 | 2026-09-06 00:50:06 | 50.89239 | 8.29264 | 170° | 53km/h | 24564m | -14.3m/s | -52°C | 4% | 28.7hPa | 2.6V | 08:22:35 | 02:32:07 | 00:00:00 | |
| BIOWL1-15 | 2026-09-06 00:50:04 | 50.89239 | 8.29264 | 170° | 53km/h | 24564m | -14.3m/s | -52°C | 0.8% | 28.7hPa | 2.6V | 08:23:24 | 02:32:07 | 00:00:00 | |
| HSKMA3-T | 2026-09-06 00:50:02 | 50.89264 | 8.29250 | 153° | 53km/h | 24592m | -13.5m/s | -52°C | 0.8% | 28.6hPa | 2.5V | 08:23:24 | 02:32:05 | 00:00:00 | |
| DO1YAY-16 | 2026-09-06 00:49:59 | 50.89293 | 8.29207 | 107° | 29km/h | 24645m | -12.5m/s | -51.9°C | 1.1% | 28.4hPa | 2.5V | 00:00:00 | 00:00:00 | 00:00:00 | |
| DL1XH-west | 2026-09-06 00:49:59 | 50.89290 | 8.29218 | 120° | 35km/h | 24631m | -13.2m/s | -52°C | 0.8% | 28.4hPa | 2.6V | 08:23:24 | 02:32:02 | 00:00:00 | |
| DL3AQ-11 | 2026-09-06 00:49:58 | 50.89294 | 8.29197 | 89° | 26km/h | 24657m | -12.8m/s | -51.9°C | 1.2% | 28.3hPa | 2.5V | 00:00:00 | 00:00:00 | 00:00:00 | |
| DO3DL | 2026-09-06 00:49:57 | 50.89294 | 8.29197 | 90° | 26km/h | 24657m | -12.8m/s | -51.9°C | 1.2% | 28.3hPa | 2.5V | 08:23:00 | 00:00:00 | 00:00:00 | |
| DM0DOS-11 | 2026-09-06 00:49:56 | 50.89287 | 8.29176 | 16° | 20km/h | 24696m | -14m/s | -51.9°C | 4% | 28.2hPa | 2.5V | 08:22:45 | 02:31:57 | 00:00:00 | |
| AA1-15 | 2026-09-06 00:49:55 | 50.89291 | 8.29180 | 49° | 22km/h | 24683m | -13.2m/s | -51.9°C | 0.7% | 28.2hPa | 2.5V | 08:23:24 | 02:31:58 | 00:00:00 | |
| BIOWL1-15 | 2026-09-06 00:49:53 | 50.89282 | 8.29176 | 351° | 22km/h | 24710m | -13.6m/s | -51.9°C | 0.7% | 28.1hPa | 2.5V | 08:23:24 | 02:31:56 | 00:00:00 | |
| HSKMA3-T | 2026-09-06 00:49:51 | 50.89271 | 8.29185 | 323° | 29km/h | 24737m | -13.2m/s | -51.6°C | 0.7% | 28hPa | 2.6V | 08:23:24 | 02:31:54 | 00:00:00 | |
| DL1XH-west | 2026-09-06 00:49:48 | 50.89255 | 8.29223 | 288° | 44km/h | 24777m | -14.2m/s | -51.3°C | 0.6% | 27.8hPa | 2.5V | 08:23:24 | 02:31:51 | 00:00:00 | |
| AA1-15 | 2026-09-06 00:49:45 | 50.89255 | 8.29279 | 255° | 49km/h | 24819m | -14m/s | -51.3°C | 0.7% | 27.6hPa | 2.6V | 08:23:24 | 02:31:48 | 00:00:00 | |
| HSKMA3-T | 2026-09-06 00:49:40 | 50.89293 | 8.29349 | 202° | 47km/h | 24886m | -13.5m/s | -51.7°C | 0.7% | 27.3hPa | 2.5V | 08:23:24 | 02:31:43 | 00:00:00 | |
| DD8BA-10 | 2026-09-06 00:49:40 | 50.89293 | 8.29349 | 203° | 44km/h | 24886m | -13.5m/s | -51.6°C | 3.9% | 27.3hPa | 2.5V | 00:00:00 | 00:00:00 | 00:00:00 | |
| DO3MHA-11 | 2026-09-06 00:49:39 | 50.89304 | 8.29353 | 188° | 42km/h | 24900m | -14.0m/s | -51.6°C | 3.9% | 27.2hPa | 2.6V | 00:00:00 | 02:31:42 | 00:00:00 | |
| DL3OBA | 2026-09-06 00:49:38 | 50.89304 | 8.29353 | 189° | 46km/h | 24900m | -14.0m/s | -51.7°C | 1.1% | 27.3hPa | 2.6V | 08:23:00 | 00:00:00 | 00:00:00 | |
| DL1XH-15 | 2026-09-06 00:49:37 | 50.89337 | 8.29345 | 151° | 44km/h | 24942m | -14.4m/s | -51.6°C | 3.9% | 27.1hPa | 2.6V | 08:23:03 | 02:31:39 | 00:00:00 | |
| DL1XH-west | 2026-09-06 00:49:37 | 50.89327 | 8.29352 | 164° | 46km/h | 24928m | -14.6m/s | -51.6°C | 0.7% | 27.2hPa | 2.6V | 08:23:24 | 02:31:40 | 00:00:00 | |
| AA1-15 | 2026-09-06 00:49:34 | 50.89354 | 8.29322 | 125° | 44km/h | 24970m | -14.1m/s | -51.6°C | 0.7% | 27hPa | 2.5V | 08:23:24 | 02:31:37 | 00:00:00 | |
| HSKMA3-T | 2026-09-06 00:49:29 | 50.89359 | 8.29246 | 61° | 37km/h | 25039m | -13.7m/s | -51.7°C | 0.7% | 26.7hPa | 2.6V | 08:23:24 | 02:31:32 | 00:00:00 | |
| DL1XH-west | 2026-09-06 00:49:27 | 50.89348 | 8.29228 | 30° | 31km/h | 25067m | -14.2m/s | -51.8°C | 0.8% | 26.6hPa | 2.5V | 08:23:24 | 02:31:30 | 00:00:00 | |
| DL1XH-15 | 2026-09-06 00:49:26 | 50.89323 | 8.29238 | 306° | 31km/h | 25122m | -13.9m/s | -51.7°C | 4% | 26.4hPa | 2.6V | 08:23:16 | 02:31:26 | 00:00:00 | |
| AA1-15 | 2026-09-06 00:49:24 | 50.89323 | 8.29238 | 306° | 31km/h | 25122m | -13.9m/s | -51.7°C | 0.8% | 26.4hPa | 2.6V | 08:23:24 | 02:31:26 | 00:00:00 | |
| HSKMA3-T | 2026-09-06 00:49:19 | 50.89320 | 8.29305 | 254° | 55km/h | 25179m | -14.3m/s | -51.4°C | 0.7% | 26.1hPa | 2.5V | 08:23:24 | 02:31:22 | 00:00:00 | |
| DL3AQ-11 | 2026-09-06 00:49:18 | 50.89332 | 8.29345 | 236° | 60km/h | 25208m | -14.0m/s | -51.3°C | 1.1% | 26.0hPa | 2.6V | 00:00:00 | 00:00:00 | 00:00:00 | |
| GOEST3-10 | 2026-09-06 00:49:17 | 50.89332 | 8.29345 | 237° | 60km/h | 25208m | -13.9m/s | -51.2°C | 3.9% | 26.0hPa | 2.6V | 08:23:00 | 02:31:20 | 00:00:00 | |
| DM0DOS-11 | 2026-09-06 00:49:16 | 50.89366 | 8.29395 | 209° | 62km/h | 25250m | -14m/s | -51.3°C | 3.9% | 25.9hPa | 2.5V | 08:23:25 | 02:31:17 | 00:00:00 | |
| DL1XH-west | 2026-09-06 00:49:16 | 50.89342 | 8.29364 | 226° | 60km/h | 25222m | -14.4m/s | -51.3°C | 0.7% | 25.9hPa | 2.6V | 08:23:24 | 02:31:19 | 00:00:00 | |
| AA1-15 | 2026-09-06 00:49:12 | 50.89393 | 8.29411 | 193° | 53km/h | 25279m | -14.2m/s | -51.2°C | 0.8% | 25.7hPa | 2.5V | 08:24:15 | 02:31:15 | 00:00:00 | |
| HSKMA3-T | 2026-09-06 00:49:09 | 50.89426 | 8.29409 | 160° | 40km/h | 25321m | -13.8m/s | -51.2°C | 0.7% | 25.6hPa | 2.6V | 08:24:15 | 02:31:12 | 00:00:00 | |
| DL1XH-west | 2026-09-06 00:49:06 | 50.89441 | 8.29387 | 98° | 22km/h | 25362m | -13.9m/s | -50.9°C | 0.6% | 25.4hPa | 2.5V | 08:24:15 | 02:31:09 | 00:00:00 | |
| DL1XH1-15 | 2026-09-06 00:49:05 | 50.89438 | 8.29369 | 53° | 26km/h | 25390m | -14m/s | -50.9°C | 3.7% | 25.3hPa | 2.5V | 08:23:35 | 02:31:07 | 00:00:00 | |
| AA1-15 | 2026-09-06 00:49:02 | 50.89424 | 8.29357 | 14° | 40km/h | 25418m | -14.2m/s | -50.9°C | 0.7% | 25.2hPa | 2.6V | 08:24:15 | 02:31:05 | 00:00:00 | |
| HSKMA3-T | 2026-09-06 00:48:58 | 50.89377 | 8.29370 | 333° | 58km/h | 25475m | -14.9m/s | -50.8°C | 0.6% | 24.9hPa | 2.5V | 08:24:15 | 02:31:01 | 00:00:00 | |
| DO1YAY-16 | 2026-09-06 00:48:57 | 50.89353 | 8.29398 | 315° | 58km/h | 25504m | -14.9m/s | -50.8°C | 1.1% | 24.9hPa | 2.6V | 00:00:00 | 00:00:00 | 00:00:00 | |
| DM0DOS-11 | 2026-09-06 00:48:56 | 50.89336 | 8.29435 | 295° | 55km/h | 25532m | -14.5m/s | -50.8°C | 3.8% | 24.7hPa | 2.6V | 08:23:45 | 02:30:57 | 00:00:00 | |
| DL1XH-15 | 2026-09-06 00:48:56 | 50.89332 | 8.29455 | 282° | 53km/h | 25546m | -14.3m/s | -50.9°C | 3.8% | 24.7hPa | 2.5V | 08:23:46 | 02:30:56 | 00:00:00 | |
| DL1XH-west | 2026-09-06 00:48:55 | 50.89343 | 8.29416 | 304° | 58km/h | 25517m | -14m/s | -50.8°C | 0.7% | 24.8hPa | 2.6V | 08:24:15 | 02:30:58 | 00:00:00 | |
| AA1-15 | 2026-09-06 00:48:52 | 50.89330 | 8.29475 | 273° | 47km/h | 25560m | -14.4m/s | -50.9°C | 0.7% | 24.6hPa | 2.5V | 08:24:15 | 02:30:55 | 00:00:00 | |
| HSKMA3-T | 2026-09-06 00:48:48 | 50.89346 | 8.29532 | 214° | 37km/h | 25617m | -14.5m/s | -50.9°C | 0.7% | 24.4hPa | 2.6V | 08:24:15 | 02:30:51 | 00:00:00 | |
| DJ2DS-15 | 2026-09-06 00:48:48 | 50.89346 | 8.29532 | 215° | 38km/h | 25617m | -14.5m/s | -50.8°C | 3.8% | 24.3hPa | 2.6V | 00:00:00 | 02:30:51 | 00:00:00 | |
| DB0UT-7 | 2026-09-06 00:48:47 | 50.89353 | 8.29538 | 194° | 44km/h | 25631m | -14.3m/s | -50.9°C | 3.9% | 24.3hPa | 2.6V | 00:00:00 | 02:30:50 | 00:00:00 | |
| DL1XH-15 | 2026-09-06 00:48:46 | 50.89387 | 8.29504 | 108° | 40km/h | 25704m | -14.8m/s | -50.8°C | 3.9% | 24.1hPa | 2.6V | 08:23:57 | 02:30:45 | 00:00:00 | |
| DL1XH1-15 | 2026-09-06 00:48:45 | 50.89377 | 8.29529 | 141° | 35km/h | 25675m | -14.8m/s | -50.9°C | 3.9% | 24.2hPa | 2.5V | 08:23:55 | 02:30:47 | 00:00:00 | |
| BIOWL1-15 | 2026-09-06 00:48:45 | 50.89370 | 8.29535 | 158° | 35km/h | 25661m | -14.4m/s | -51°C | 0.7% | 24.3hPa | 2.5V | 08:24:15 | 02:30:48 | 00:00:00 | |
| DL1XH-west | 2026-09-06 00:48:44 | 50.89377 | 8.29529 | 141° | 35km/h | 25675m | -14.8m/s | -50.9°C | 0.7% | 24.2hPa | 2.5V | 08:24:15 | 02:30:47 | 00:00:00 | |
| AA1-15 | 2026-09-06 00:48:42 | 50.89387 | 8.29504 | 109° | 40km/h | 25704m | -14.8m/s | -50.8°C | 0.7% | 24.1hPa | 2.6V | 08:24:15 | 02:30:45 | 00:00:00 | |
| HSKMA3-T | 2026-09-06 00:48:37 | 50.89373 | 8.29432 | 38° | 44km/h | 25776m | -15m/s | -50.5°C | 0.6% | 23.8hPa | 2.5V | 08:24:15 | 02:30:40 | 00:00:00 | |
| DM0DOS-11 | 2026-09-06 00:48:36 | 50.89343 | 8.29419 | 350° | 40km/h | 25821m | -15m/s | -50.5°C | 3.7% | 23.7hPa | 2.6V | 08:24:05 | 02:30:37 | 00:00:00 | |
| DL1XH-15 | 2026-09-06 00:48:36 | 50.89326 | 8.29432 | 316° | 38km/h | 25851m | -15.1m/s | -50.6°C | 3.8% | 23.5hPa | 2.5V | 08:24:07 | 02:30:35 | 00:00:00 | |
| BIOWL1-15 | 2026-09-06 00:48:35 | 50.89353 | 8.29419 | 10° | 40km/h | 25806m | -14.9m/s | -50.5°C | 0.7% | 23.7hPa | 2.6V | 08:24:15 | 02:30:38 | 00:00:00 | |
| DL1XH-west | 2026-09-06 00:48:33 | 50.89334 | 8.29423 | 336° | 38km/h | 25835m | -15.2m/s | -50.5°C | 0.7% | 23.6hPa | 2.6V | 08:24:15 | 02:30:36 | 00:00:00 | |
| AA1-15 | 2026-09-06 00:48:31 | 50.89321 | 8.29443 | 302° | 37km/h | 25866m | -14.9m/s | -50.6°C | 0.7% | 23.5hPa | 2.5V | 08:24:15 | 02:30:34 | 00:00:00 | |
| DL1ZP-14 | 2026-09-06 00:48:30 | 50.89316 | 8.29473 | 264° | 38km/h | 25896m | -15.0m/s | -50.6°C | 1.1% | 23.4hPa | 2.5V | 00:00:00 | 00:00:00 | 00:00:00 | |
| DD8BA-10 | 2026-09-06 00:48:29 | 50.89316 | 8.29473 | 265° | 51km/h | 25896m | -14.9m/s | -50.6°C | 3.8% | 23.3hPa | 2.6V | 00:00:00 | 00:00:00 | 00:00:00 | |
| DJ2DS-15 | 2026-09-06 00:48:28 | 50.89319 | 8.29489 | 247° | 46km/h | 25910m | -14.7m/s | -50.5°C | 3.8% | 23.3hPa | 2.6V | 00:00:00 | 02:30:31 | 00:00:00 | |
| GOEST3-10 | 2026-09-06 00:48:27 | 50.89325 | 8.29504 | 234° | 51km/h | 25925m | -14.9m/s | -50.4°C | 3.8% | 23.2hPa | 2.5V | 00:00:00 | 02:30:30 | 00:00:00 | |
| DL1XH-15 | 2026-09-06 00:48:26 | 50.89384 | 8.29540 | 174° | 60km/h | 25999m | -15.2m/s | -50.1°C | 3.7% | 23hPa | 2.5V | 08:24:17 | 02:30:25 | 00:00:00 | |
| HSKMA3-T | 2026-09-06 00:48:26 | 50.89333 | 8.29518 | 219° | 49km/h | 25940m | -14.9m/s | -50.3°C | 0.7% | 23.2hPa | 2.6V | 08:24:15 | 02:30:29 | 00:00:00 | |
| BIOWL1-15 | 2026-09-06 00:48:24 | 50.89384 | 8.29540 | 175° | 60km/h | 25999m | -15.3m/s | -50.1°C | 0.6% | 23hPa | 2.5V | 08:25:06 | 02:30:25 | 00:00:00 | |
| DL1XH-west | 2026-09-06 00:48:23 | 50.89370 | 8.29541 | 184° | 55km/h | 25984m | -15m/s | -50.1°C | 0.6% | 23.1hPa | 2.5V | 08:25:06 | 02:30:26 | 00:00:00 | |
| AA1-15 | 2026-09-06 00:48:20 | 50.89412 | 8.29529 | 154° | 55km/h | 26030m | -15.3m/s | -50.1°C | 0.6% | 22.9hPa | 2.6V | 08:25:06 | 02:30:23 | 00:00:00 | |
| DL1LOL-11 | 2026-09-06 00:48:19 | 50.89423 | 8.29517 | 145° | 57km/h | 26045m | -15.2m/s | -50.0°C | 1.1% | 22.9hPa | 2.6V | 00:00:00 | 00:00:00 | 00:00:00 | |
| DJTTGO | 2026-09-06 00:48:18 | 50.89434 | 8.29503 | 136° | 49km/h | 26060m | -14.7m/s | -49.9°C | 1.1% | 22.8hPa | 2.6V | 08:25:00 | 00:00:00 | 00:00:00 | |
| DL1XH-15 | 2026-09-06 00:48:16 | 50.89439 | 8.29419 | 37° | 31km/h | 26148m | -15m/s | -49.8°C | 3.7% | 22.5hPa | 2.6V | 08:24:27 | 02:30:15 | 00:00:00 | |
| HSKMA3-T | 2026-09-06 00:48:16 | 50.89446 | 8.29471 | 108° | 44km/h | 26089m | -15.3m/s | -49.8°C | 0.6% | 22.7hPa | 2.5V | 08:25:06 | 02:30:19 | 00:00:00 | |
| DL1XH-west | 2026-09-06 00:48:13 | 50.89444 | 8.29428 | 58° | 31km/h | 26133m | -15.2m/s | -49.8°C | 0.6% | 22.6hPa | 2.6V | 08:25:06 | 02:30:16 | 00:00:00 | |
| BIOWL1-15 | 2026-09-06 00:48:12 | 50.89432 | 8.29413 | 20° | 29km/h | 26163m | -15.1m/s | -49.8°C | 0.6% | 22.4hPa | 2.5V | 08:25:06 | 02:30:14 | 00:00:00 | |
| AA1-15 | 2026-09-06 00:48:09 | 50.89419 | 8.29414 | 339° | 29km/h | 26193m | -15.1m/s | -49.9°C | 0.6% | 22.3hPa | 2.5V | 08:25:06 | 02:30:12 | 00:00:00 | |
| DD8BA-10 | 2026-09-06 00:48:09 | 50.89419 | 8.29414 | 339° | 42km/h | 26193m | -15.1m/s | -49.8°C | 3.7% | 22.3hPa | 2.5V | 00:00:00 | 00:00:00 | 00:00:00 | |
| DJ2DS-15 | 2026-09-06 00:48:08 | 50.89412 | 8.29421 | 318° | 49km/h | 26209m | -14.8m/s | -49.8°C | 3.7% | 22.3hPa | 2.5V | 00:00:00 | 02:30:11 | 00:00:00 | |
| GOEST3-10 | 2026-09-06 00:48:07 | 50.89407 | 8.29430 | 305° | 38km/h | 26224m | -14.7m/s | -49.8°C | 3.7% | 22.2hPa | 2.5V | 00:00:00 | 02:30:10 | 00:00:00 | |
| DL1XH-15 | 2026-09-06 00:48:06 | 50.89412 | 8.29508 | 235° | 51km/h | 26297m | -14.9m/s | -49.7°C | 3.7% | 22hPa | 2.5V | 08:24:37 | 02:30:05 | 00:00:00 | |
| DM0DOS-11 | 2026-09-06 00:48:06 | 50.89404 | 8.29474 | 258° | 46km/h | 26267m | -14.8m/s | -49.7°C | 3.6% | 22.1hPa | 2.5V | 08:24:35 | 02:30:07 | 00:00:00 | |
| HSKMA3-T | 2026-09-06 00:48:05 | 50.89402 | 8.29458 | 271° | 38km/h | 26252m | -15.2m/s | -49.8°C | 0.6% | 22.1hPa | 2.6V | 08:25:06 | 02:30:08 | 00:00:00 | |
| DL1XH-west | 2026-09-06 00:48:02 | 50.89412 | 8.29508 | 235° | 51km/h | 26297m | -15m/s | -49.7°C | 0.6% | 22hPa | 2.5V | 08:25:06 | 02:30:05 | 00:00:00 | |
| AA1-15 | 2026-09-06 00:47:59 | 50.89443 | 8.29550 | 206° | 58km/h | 26342m | -15.5m/s | -49.7°C | 0.7% | 21.9hPa | 2.6V | 08:25:06 | 02:30:02 | 00:00:00 | |
| DL3AQ-11 | 2026-09-06 00:47:58 | 50.89471 | 8.29564 | 186° | 57km/h | 26372m | -15.3m/s | -49.6°C | 1.1% | 21.8hPa | 2.5V | 00:00:00 | 00:00:00 | 00:00:00 | |
| DJTTGO | 2026-09-06 00:47:57 | 50.89471 | 8.29564 | 187° | 57km/h | 26372m | -15.3m/s | -49.6°C | 1.1% | 21.8hPa | 2.5V | 08:25:00 | 00:00:00 | 00:00:00 | |
| DM0DOS-11 | 2026-09-06 00:47:55 | 50.89513 | 8.29555 | 156° | 58km/h | 26417m | -15.2m/s | -49.4°C | 3.6% | 21.6hPa | 2.5V | 08:24:45 | 02:29:57 | 00:00:00 | |
| HSKMA3-T | 2026-09-06 00:47:54 | 50.89513 | 8.29555 | 157° | 58km/h | 26417m | -15.2m/s | -49.4°C | 0.6% | 21.6hPa | 2.5V | 08:25:06 | 02:29:57 | 00:00:00 | |
| DL1XH-west | 2026-09-06 00:47:51 | 50.89544 | 8.29514 | 126° | 51km/h | 26462m | -15.1m/s | -49.2°C | 0.6% | 21.4hPa | 2.6V | 08:25:06 | 02:29:54 | 00:00:00 | |
| AA1-15 | 2026-09-06 00:47:48 | 50.89555 | 8.29461 | 91° | 44km/h | 26507m | -15.3m/s | -48.9°C | 0.5% | 21.3hPa | 2.5V | 08:25:06 | 02:29:51 | 00:00:00 | |
| DM0DOS-11 | 2026-09-06 00:47:48 | 50.89540 | 8.29407 | 34° | 33km/h | 26567m | -15.2m/s | -48.6°C | 3.5% | 21.1hPa | 2.6V | 08:24:55 | 02:29:47 | 00:00:00 | |
| EDDB2-11 | 2026-09-06 00:47:47 | 50.89551 | 8.29428 | 67° | 37km/h | 26537m | -15.2m/s | -48.8°C | 1.0% | 21.2hPa | 2.5V | 00:00:00 | 00:00:00 | 00:00:00 | |
| HSKMA3-T | 2026-09-06 00:47:43 | 50.89533 | 8.29402 | 13° | 33km/h | 26582m | -15.1m/s | -48.5°C | 0.4% | 21.1hPa | 2.5V | 08:25:06 | 02:29:46 | 00:00:00 | |
| DL1XH-west | 2026-09-06 00:47:41 | 50.89516 | 8.29403 | 341° | 35km/h | 26611m | -14.6m/s | -48.6°C | 0.4% | 21hPa | 2.5V | 08:25:06 | 02:29:44 | 00:00:00 | |
| AA1-15 | 2026-09-06 00:47:37 | 50.89489 | 8.29445 | 296° | 42km/h | 26671m | -15.5m/s | -48.8°C | 0.5% | 20.8hPa | 2.6V | 08:25:06 | 02:29:40 | 00:00:00 | |
| GOEST3-10 | 2026-09-06 00:47:37 | 50.89489 | 8.29445 | 296° | 47km/h | 26671m | -15.5m/s | -48.7°C | 3.5% | 20.7hPa | 2.5V | 00:00:00 | 02:29:40 | 00:00:00 | |
| DL1XH1-15 | 2026-09-06 00:47:36 | 50.89482 | 8.29498 | 265° | 47km/h | 26716m | -15.8m/s | -48.8°C | 3.4% | 20.6hPa | 2.5V | 08:25:05 | 02:29:37 | 00:00:00 | |
| HSKMA3-T | 2026-09-06 00:47:33 | 50.89484 | 8.29518 | 257° | 49km/h | 26732m | -15.9m/s | -48.8°C | 0.5% | 20.6hPa | 2.5V | 08:25:06 | 02:29:36 | 00:00:00 | |
| DL1XH-west | 2026-09-06 00:47:30 | 50.89499 | 8.29566 | 228° | 44km/h | 26779m | -15.8m/s | -48.9°C | 0.5% | 20.4hPa | 2.6V | 08:25:57 | 02:29:33 | 00:00:00 | |
| AA1-15 | 2026-09-06 00:47:27 | 50.89526 | 8.29590 | 191° | 38km/h | 26826m | -15.6m/s | -48.9°C | 0.5% | 20.3hPa | 2.5V | 08:25:57 | 02:29:30 | 00:00:00 | |
| DL1XH-15 | 2026-09-06 00:47:26 | 50.89545 | 8.29588 | 164° | 40km/h | 26857m | -15.2m/s | -49°C | 3.6% | 20.2hPa | 2.6V | 08:25:14 | 02:29:28 | 00:00:00 | |
| BIOWL1-15 | 2026-09-06 00:47:23 | 50.89563 | 8.29571 | 138° | 46km/h | 26887m | -15.5m/s | -48.9°C | 0.5% | 20.1hPa | 2.6V | 08:25:57 | 02:29:26 | 00:00:00 | |
| HSKMA3-T | 2026-09-06 00:47:22 | 50.89571 | 8.29558 | 127° | 46km/h | 26902m | -15.2m/s | -48.8°C | 0.5% | 20hPa | 2.5V | 08:25:57 | 02:29:25 | 00:00:00 | |
| DL1XH-west | 2026-09-06 00:47:20 | 50.89582 | 8.29523 | 108° | 53km/h | 26932m | -15.5m/s | -48.6°C | 0.5% | 19.9hPa | 2.5V | 08:25:57 | 02:29:23 | 00:00:00 | |
| AA1-15 | 2026-09-06 00:47:16 | 50.89580 | 8.29438 | 71° | 53km/h | 26993m | -15.9m/s | -48.4°C | 0.4% | 19.8hPa | 2.6V | 08:25:57 | 02:29:19 | 00:00:00 | |
| HSKMA3-T | 2026-09-06 00:47:11 | 50.89541 | 8.29365 | 21° | 44km/h | 27071m | -15.9m/s | -48.6°C | 0.4% | 19.5hPa | 2.6V | 08:25:57 | 02:29:14 | 00:00:00 | |
| DL1XH-west | 2026-09-06 00:47:09 | 50.89521 | 8.29360 | 353° | 40km/h | 27103m | -15.8m/s | -48.5°C | 0.4% | 19.5hPa | 2.5V | 08:25:57 | 02:29:12 | 00:00:00 | |
| AA1-15 | 2026-09-06 00:47:05 | 50.89489 | 8.29394 | 298° | 40km/h | 27167m | -17m/s | -48.4°C | 0.4% | 19.2hPa | 2.5V | 08:25:57 | 02:29:08 | 00:00:00 | |
| BIOWL1-15 | 2026-09-06 00:47:02 | 50.89495 | 8.29473 | 231° | 46km/h | 27249m | -15.7m/s | -48.4°C | 0.4% | 19hPa | 2.6V | 08:25:57 | 02:29:03 | 00:00:00 | |
| HSKMA3-T | 2026-09-06 00:47:01 | 50.89489 | 8.29459 | 243° | 42km/h | 27233m | -16.4m/s | -48.4°C | 0.4% | 19.1hPa | 2.6V | 08:25:57 | 02:29:04 | 00:00:00 | |
| DL1XH-west | 2026-09-06 00:46:59 | 50.89503 | 8.29486 | 218° | 46km/h | 27265m | -16.4m/s | -48.4°C | 0.4% | 18.9hPa | 2.5V | 08:25:57 | 02:29:02 | 00:00:00 | |
| AA1-15 | 2026-09-06 00:46:54 | 50.89562 | 8.29495 | 157° | 55km/h | 27344m | -16.1m/s | -48.5°C | 0.5% | 18.7hPa | 2.6V | 08:25:57 | 02:28:57 | 00:00:00 | |
| HSKMA3-T | 2026-09-06 00:46:50 | 50.89601 | 8.29437 | 117° | 51km/h | 27408m | -16.7m/s | -48.4°C | 0.4% | 18.5hPa | 2.5V | 08:25:57 | 02:28:53 | 00:00:00 | |
| BIOWL1-15 | 2026-09-06 00:46:49 | 50.89606 | 8.29418 | 106° | 51km/h | 27424m | -16.3m/s | -48.4°C | 0.4% | 18.5hPa | 2.5V | 08:25:57 | 02:28:52 | 00:00:00 | |
| DL1XH-west | 2026-09-06 00:46:48 | 50.89609 | 8.29399 | 97° | 49km/h | 27440m | -16.7m/s | -48.4°C | 0.4% | 18.4hPa | 2.6V | 08:25:57 | 02:28:51 | 00:00:00 | |
| DJ2DS-15 | 2026-09-06 00:46:48 | 50.89608 | 8.29399 | 98° | 40km/h | 27441m | -16.6m/s | -48.4°C | 3.4% | 18.4hPa | 2.5V | 00:00:00 | 02:28:51 | 00:00:00 | |
| DL1XH-15 | 2026-09-06 00:46:46 | 50.89602 | 8.29347 | 58° | 40km/h | 27487m | -16.2m/s | -48.5°C | 3.4% | 18.3hPa | 2.5V | 08:25:54 | 02:28:48 | 00:00:00 | |
| AA1-15 | 2026-09-06 00:46:43 | 50.89587 | 8.29327 | 29° | 40km/h | 27519m | -15.9m/s | -48.6°C | 0.6% | 18.2hPa | 2.5V | 08:25:57 | 02:28:46 | 00:00:00 | |
| HSKMA3-T | 2026-09-06 00:46:40 | 50.89559 | 8.29321 | 349° | 38km/h | 27566m | -15.7m/s | -48.7°C | 0.6% | 18.1hPa | 2.6V | 08:26:48 | 02:28:43 | 00:00:00 | |
| BIOWL1-15 | 2026-09-06 00:46:39 | 50.89550 | 8.29326 | 334° | 40km/h | 27582m | -15.9m/s | -48.7°C | 0.5% | 18.1hPa | 2.6V | 08:26:48 | 02:28:42 | 00:00:00 | |
| DD8BA-10 | 2026-09-06 00:46:39 | 50.89550 | 8.29326 | 334° | 38km/h | 27582m | -15.9m/s | -48.7°C | 3.5% | 18.0hPa | 2.6V | 00:00:00 | 00:00:00 | 00:00:00 | |
| DL1XH-15 | 2026-09-06 00:46:38 | 50.89521 | 8.29373 | 296° | 42km/h | 27646m | -16.5m/s | -48.5°C | 3.5% | 17.9hPa | 2.5V | 08:26:04 | 02:28:38 | 00:00:00 | |
| DL1XH-west | 2026-09-06 00:46:37 | 50.89533 | 8.29346 | 315° | 40km/h | 27614m | -16.3m/s | -48.7°C | 0.5% | 18hPa | 2.5V | 08:26:48 | 02:28:40 | 00:00:00 | |
| AA1-15 | 2026-09-06 00:46:32 | 50.89516 | 8.29418 | 263° | 37km/h | 27694m | -16.3m/s | -48.5°C | 0.6% | 17.8hPa | 2.6V | 08:26:48 | 02:28:35 | 00:00:00 | |
| HSKMA3-T | 2026-09-06 00:46:29 | 50.89526 | 8.29451 | 221° | 27km/h | 27741m | -15.8m/s | -48.5°C | 0.5% | 17.6hPa | 2.5V | 08:26:48 | 02:28:32 | 00:00:00 | |
| BIOWL1-15 | 2026-09-06 00:46:28 | 50.89532 | 8.29458 | 209° | 31km/h | 27757m | -15.5m/s | -48.5°C | 0.5% | 17.6hPa | 2.5V | 08:26:48 | 02:28:31 | 00:00:00 | |
| DL1LOL-11 | 2026-09-06 00:46:28 | 50.89532 | 8.29458 | 210° | 31km/h | 27757m | -15.5m/s | -48.5°C | 1.0% | 17.6hPa | 2.5V | 00:00:00 | 00:00:00 | 00:00:00 | |
| DO9LL-15 | 2026-09-06 00:46:27 | 50.89538 | 8.29462 | 192° | 44km/h | 27772m | -15.5m/s | -48.4°C | 3.5% | 17.5hPa | 2.5V | 00:00:00 | 02:28:30 | 00:00:00 | |
| DM0DOS-11 | 2026-09-06 00:46:26 | 50.89564 | 8.29458 | 158° | 38km/h | 27818m | -16.2m/s | -48.3°C | 3.4% | 17.4hPa | 2.5V | 08:26:15 | 02:28:27 | 00:00:00 | |
| DL1XH-west | 2026-09-06 00:46:26 | 50.89546 | 8.29463 | 182° | 35km/h | 27787m | -15.7m/s | -48.4°C | 0.4% | 17.5hPa | 2.6V | 08:26:48 | 02:28:29 | 00:00:00 | |
| AA1-15 | 2026-09-06 00:46:21 | 50.89589 | 8.29432 | 139° | 42km/h | 27865m | -15.5m/s | -48°C | 0.4% | 17.3hPa | 2.6V | 08:26:48 | 02:28:24 | 00:00:00 | |
| HSKMA3-T | 2026-09-06 00:46:19 | 50.89603 | 8.29405 | 128° | 44km/h | 27897m | -15.7m/s | -48°C | 0.5% | 17.2hPa | 2.5V | 08:26:48 | 02:28:22 | 00:00:00 | |
| DM0DOS-11 | 2026-09-06 00:46:18 | 50.89632 | 8.29324 | 118° | 46km/h | 27975m | -15.6m/s | -48.1°C | 3.4% | 17hPa | 2.5V | 08:26:25 | 02:28:17 | 00:00:00 | |
| DL1XH-west | 2026-09-06 00:46:15 | 50.89626 | 8.29341 | 114° | 47km/h | 27960m | -15.7m/s | -48.1°C | 0.5% | 17.1hPa | 2.6V | 08:26:48 | 02:28:18 | 00:00:00 | |
| DL3AQ-11 | 2026-09-06 00:46:14 | 50.89637 | 8.29307 | 115° | 47km/h | 27990m | -15.9m/s | -48.1°C | 1.0% | 17.0hPa | 2.5V | 00:00:00 | 00:00:00 | 00:00:00 | |
| DJ2KF-10 | 2026-09-06 00:46:11 | 50.89649 | 8.29275 | 121° | 44km/h | 28021m | -15.8m/s | -48.1°C | 3.4% | 16.8hPa | 2.5V | 00:00:00 | 02:28:14 | 00:00:00 | |
| DL1XH-15 | 2026-09-06 00:46:10 | 50.89701 | 8.29196 | 156° | 49km/h | 28116m | -17m/s | -48.4°C | 3.6% | 16.6hPa | 2.5V | 08:26:34 | 02:28:08 | 00:00:00 | |
| AA1-15 | 2026-09-06 00:46:10 | 50.89656 | 8.29259 | 125° | 46km/h | 28036m | -16.3m/s | -48.2°C | 0.5% | 16.9hPa | 2.6V | 08:26:48 | 02:28:13 | 00:00:00 | |
| HSKMA3-T | 2026-09-06 00:46:08 | 50.89671 | 8.29230 | 136° | 47km/h | 28068m | -16m/s | -48.3°C | 0.5% | 16.8hPa | 2.5V | 08:26:48 | 02:28:11 | 00:00:00 | |
| BIOWL1-15 | 2026-09-06 00:46:08 | 50.89725 | 8.29185 | 169° | 49km/h | 28150m | -17.2m/s | -48.4°C | 0.6% | 16.6hPa | 2.6V | 08:26:48 | 02:28:06 | 00:00:00 | |
| DL1XH-west | 2026-09-06 00:46:04 | 50.89713 | 8.29190 | 162° | 51km/h | 28133m | -17.4m/s | -48.4°C | 0.6% | 16.6hPa | 2.6V | 08:26:48 | 02:28:07 | 00:00:00 | |
| AA1-15 | 2026-09-06 00:46:00 | 50.89760 | 8.29188 | 195° | 46km/h | 28201m | -18.1m/s | -48.5°C | 0.6% | 16.4hPa | 2.5V | 08:26:48 | 02:28:03 | 00:00:00 | |
| DL1XH1-15 | 2026-09-06 00:45:59 | 50.89788 | 8.29259 | 303° | 27km/h | 28326m | -18m/s | -47.9°C | 3.6% | 16.1hPa | 2.5V | 08:26:46 | 02:27:56 | 00:00:00 | |
| HSKMA3-T | 2026-09-06 00:45:57 | 50.89785 | 8.29213 | 231° | 37km/h | 28255m | -18.1m/s | -48.3°C | 0.6% | 16.3hPa | 2.6V | 08:26:48 | 02:28:00 | 00:00:00 | |
| DL1XH-15 | 2026-09-06 00:45:56 | 50.89792 | 8.29237 | 261° | 29km/h | 28291m | -18.1m/s | -48.1°C | 3.7% | 16.2hPa | 2.6V | 08:26:44 | 02:27:58 | 00:00:00 | |
| DL1XH-west | 2026-09-06 00:45:54 | 50.89788 | 8.29259 | 304° | 27km/h | 28327m | -18m/s | -47.9°C | 0.6% | 16.1hPa | 2.5V | 08:26:48 | 02:27:56 | 00:00:00 | |
| NBG1-10 | 2026-09-06 00:45:53 | 50.89783 | 8.29267 | 320° | 51km/h | 28345m | -18.7m/s | -47.7°C | 3.6% | 16.0hPa | 2.5V | 08:26:00 | 02:27:55 | 00:00:00 | |
| DO3DL | 2026-09-06 00:45:52 | 50.89783 | 8.29267 | 321° | 33km/h | 28345m | -18.7m/s | -47.8°C | 1.0% | 16.1hPa | 2.5V | 08:26:00 | 00:00:00 | 00:00:00 | |
| DL1XH-15 | 2026-09-06 00:45:51 | 50.89718 | 8.29248 | 46° | 51km/h | 28472m | -18.7m/s | -46.7°C | 3.4% | 15.8hPa | 2.5V | 08:26:54 | 02:27:48 | 00:00:00 | |
| AA1-15 | 2026-09-06 00:45:49 | 50.89758 | 8.29280 | 360° | 38km/h | 28399m | -18.2m/s | -47.6°C | 0.6% | 15.9hPa | 2.6V | 08:27:39 | 02:27:52 | 00:00:00 | |
| BIOWL1-15 | 2026-09-06 00:45:47 | 50.89718 | 8.29248 | 47° | 51km/h | 28472m | -18.7m/s | -46.7°C | 0.5% | 15.8hPa | 2.5V | 08:27:39 | 02:27:48 | 00:00:00 | |
| HSKMA3-T | 2026-09-06 00:45:47 | 50.89738 | 8.29272 | 26° | 47km/h | 28436m | -18.5m/s | -47.1°C | 0.5% | 15.8hPa | 2.5V | 08:27:39 | 02:27:50 | 00:00:00 | |
| WPPR-10 | 2026-09-06 00:45:46 | 50.89727 | 8.29262 | 37° | 49km/h | 28454m | -18.4m/s | -46.9°C | 1.0% | 15.8hPa | 2.6V | 00:00:00 | 00:00:00 | 00:00:00 | |
| DL1XH-west | 2026-09-06 00:45:43 | 50.89703 | 8.29210 | 69° | 60km/h | 28510m | -19.1m/s | -46.5°C | 0.4% | 15.7hPa | 2.6V | 08:27:39 | 02:27:46 | 00:00:00 | |
| AA1-15 | 2026-09-06 00:45:38 | 50.89705 | 8.29084 | 115° | 68km/h | 28602m | -19m/s | -45.9°C | 0.3% | 15.5hPa | 2.5V | 08:27:39 | 02:27:41 | 00:00:00 | |
| DM0DOS-11 | 2026-09-06 00:45:37 | 50.89766 | 8.28998 | 162° | 62km/h | 28696m | -19.6m/s | -45.5°C | 3.2% | 15.2hPa | 2.5V | 08:27:06 | 02:27:36 | 00:00:00 | |
| DL1XH-15 | 2026-09-06 00:45:36 | 50.89737 | 8.29021 | 144° | 68km/h | 28658m | -19.1m/s | -45.7°C | 3.2% | 15.3hPa | 2.6V | 08:27:04 | 02:27:38 | 00:00:00 | |
| HSKMA3-T | 2026-09-06 00:45:36 | 50.89725 | 8.29039 | 134° | 69km/h | 28640m | -18.9m/s | -45.8°C | 0.4% | 15.4hPa | 2.6V | 08:27:39 | 02:27:39 | 00:00:00 | |
| DL1XH-west | 2026-09-06 00:45:32 | 50.89781 | 8.28993 | 174° | 60km/h | 28715m | -19.4m/s | -45.4°C | 0.3% | 15.2hPa | 2.5V | 08:27:39 | 02:27:35 | 00:00:00 | |
| AA1-15 | 2026-09-06 00:45:28 | 50.89829 | 8.29019 | 228° | 46km/h | 28790m | -20m/s | -45.1°C | 0.2% | 15hPa | 2.5V | 08:27:39 | 02:27:31 | 00:00:00 | |
| DJ8HS-15 | 2026-09-06 00:45:28 | 50.89829 | 8.29019 | 228° | 51km/h | 28790m | -20.0m/s | -45.0°C | 3.1% | 15.0hPa | 2.5V | 00:00:00 | 02:27:31 | 00:00:00 | |
| DM0DOS-11 | 2026-09-06 00:45:27 | 50.89828 | 8.29095 | 315° | 42km/h | 28888m | -20.5m/s | -44.6°C | 3% | 14.8hPa | 2.5V | 08:27:16 | 02:27:26 | 00:00:00 | |
| BIOWL1-15 | 2026-09-06 00:45:26 | 50.89835 | 8.29082 | 301° | 40km/h | 28868m | -20.2m/s | -44.6°C | 0.1% | 14.8hPa | 2.6V | 08:27:39 | 02:27:27 | 00:00:00 | |
| HSKMA3-T | 2026-09-06 00:45:26 | 50.89839 | 8.29050 | 263° | 44km/h | 28829m | -19.5m/s | -44.7°C | 0.1% | 14.9hPa | 2.5V | 08:27:39 | 02:27:29 | 00:00:00 | |
| DL1XH-west | 2026-09-06 00:45:21 | 50.89809 | 8.29110 | 349° | 49km/h | 28929m | -20.5m/s | -44.3°C | 0.1% | 14.7hPa | 2.5V | 08:27:39 | 02:27:24 | 00:00:00 | |
| GOEST3-10 | 2026-09-06 00:45:21 | 50.89809 | 8.29110 | 350° | 57km/h | 28929m | -20.5m/s | -44.3°C | 2.9% | 14.7hPa | 2.6V | 00:00:00 | 00:00:00 | 00:00:00 | |
| DJ2DS-15 | 2026-09-06 00:45:20 | 50.89783 | 8.29107 | 21° | 55km/h | 28969m | -20.1m/s | -44.0°C | 0.8% | 14.6hPa | 2.6V | 00:00:00 | 00:00:00 | 00:00:00 | |
| NBG1-10 | 2026-09-06 00:45:19 | 50.89783 | 8.29106 | 22° | 57km/h | 28969m | -20.0m/s | -43.9°C | 2.9% | 14.5hPa | 2.6V | 00:00:00 | 02:27:22 | 00:00:00 | |
| WEDDY | 2026-09-06 00:45:18 | 50.89771 | 8.29096 | 36° | 60km/h | 28989m | -19.9m/s | 0°C | 0% | 14.6hPa | 2.6V | 00:00:00 | 00:00:00 | 00:00:00 | |
| AA1-15 | 2026-09-06 00:45:18 | 50.89759 | 8.29080 | 46° | 64km/h | 29008m | -19.7m/s | -43.7°C | 0% | 14.5hPa | 2.5V | 08:27:39 | 02:27:20 | 00:00:00 | |
| DM0DOS-11 | 2026-09-06 00:45:17 | 50.89733 | 8.28979 | 87° | 75km/h | 29090m | -20.2m/s | -43.4°C | 2.7% | 14.3hPa | 2.6V | 08:27:26 | 02:27:16 | 00:00:00 | |
| HSKMA3-T | 2026-09-06 00:45:15 | 50.89740 | 8.29036 | 68° | 69km/h | 29048m | -21.1m/s | -43.5°C | 0% | 14.5hPa | 2.5V | 08:27:39 | 02:27:18 | 00:00:00 | |
| BIOWL1-15 | 2026-09-06 00:45:14 | 50.89735 | 8.29008 | 79° | 75km/h | 29069m | -21.1m/s | -43.4°C | 0% | 14.4hPa | 2.5V | 08:27:39 | 02:27:17 | 00:00:00 | |
| DL1XH-west | 2026-09-06 00:45:10 | 50.89745 | 8.28897 | 120° | 66km/h | 29150m | -20.1m/s | -43.3°C | 0% | 14.2hPa | 2.5V | 08:27:39 | 02:27:13 | 00:00:00 | |
| AA1-15 | 2026-09-06 00:45:07 | 50.89790 | 8.28844 | 175° | 51km/h | 29229m | -19.7m/s | -43.6°C | 0% | 14.1hPa | 2.6V | 08:27:39 | 02:27:09 | 00:00:00 | |
| DM0DOS-11 | 2026-09-06 00:45:07 | 50.89820 | 8.28862 | 228° | 40km/h | 29288m | -21m/s | -43.8°C | 2.7% | 13.9hPa | 2.5V | 08:27:36 | 02:27:06 | 00:00:00 | |
| DL1XH-15 | 2026-09-06 00:45:07 | 50.89829 | 8.28891 | 262° | 40km/h | 29329m | -20.8m/s | -43.9°C | 2.8% | 13.9hPa | 2.5V | 08:27:38 | 02:27:04 | 00:00:00 | |
| BIOWL1-15 | 2026-09-06 00:45:05 | 50.89821 | 8.28862 | 229° | 42km/h | 29288m | -21m/s | -43.8°C | 0% | 13.9hPa | 2.5V | 08:27:39 | 02:27:06 | 00:00:00 | |
| HSKMA3-T | 2026-09-06 00:45:04 | 50.89812 | 8.28851 | 210° | 44km/h | 29268m | -19.9m/s | -43.7°C | 0% | 14hPa | 2.6V | 08:27:39 | 02:27:07 | 00:00:00 | |
| DL1XH-west | 2026-09-06 00:45:00 | 50.89828 | 8.28908 | 282° | 44km/h | 29350m | -20.3m/s | -44°C | 0% | 13.8hPa | 2.5V | 08:27:39 | 02:27:03 | 00:00:00 | |
| HEMX73-6 | 2026-09-06 00:45:00 | 50.89828 | 8.28908 | 282° | 57km/h | 29350m | -20.2m/s | 0°C | 0% | 0hPa | 2.5V | 08:27:00 | 02:27:03 | 00:00:00 | |
| DO3DL | 2026-09-06 00:44:59 | 50.89824 | 8.28924 | 303° | 46km/h | 29370m | -19.7m/s | -44.0°C | 0.8% | 13.8hPa | 2.5V | 08:28:00 | 00:00:00 | 00:00:00 | |
| DO9LL-15 | 2026-09-06 00:44:57 | 50.89806 | 8.28948 | 338° | 58km/h | 29409m | -19.4m/s | -43.8°C | 2.8% | 13.6hPa | 2.5V | 00:00:00 | 02:27:00 | 00:00:00 | |
| DM0DOS-11 | 2026-09-06 00:44:56 | 50.89750 | 8.28938 | 28° | 66km/h | 29489m | -20.4m/s | -43.9°C | 2.7% | 13.5hPa | 2.5V | 08:27:46 | 02:26:56 | 00:00:00 | |
| DL1XH-15 | 2026-09-06 00:44:56 | 50.89723 | 8.28904 | 51° | 69km/h | 29530m | -21.2m/s | -43.9°C | 2.7% | 13.4hPa | 2.6V | 08:27:48 | 02:26:54 | 00:00:00 | |
| AA1-15 | 2026-09-06 00:44:56 | 50.89793 | 8.28953 | 353° | 55km/h | 29428m | -19.7m/s | -43.8°C | 0% | 13.6hPa | 2.5V | 08:28:30 | 02:26:59 | 00:00:00 | |
| HSKMA3-T | 2026-09-06 00:44:54 | 50.89764 | 8.28948 | 19° | 62km/h | 29468m | -20.7m/s | -43.8°C | 0% | 13.6hPa | 2.5V | 08:28:30 | 02:26:57 | 00:00:00 | |
| BIOWL1-15 | 2026-09-06 00:44:52 | 50.89735 | 8.28923 | 40° | 69km/h | 29509m | -20.9m/s | -43.9°C | 0% | 13.5hPa | 2.6V | 08:28:30 | 02:26:55 | 00:00:00 | |
| DL1XH-west | 2026-09-06 00:44:49 | 50.89708 | 8.28855 | 75° | 69km/h | 29571m | -20.1m/s | -44.1°C | 0% | 13.3hPa | 2.5V | 08:28:30 | 02:26:52 | 00:00:00 | |
| DJ2DS-15 | 2026-09-06 00:44:48 | 50.89705 | 8.28828 | 87° | 55km/h | 29592m | -20.0m/s | -44.2°C | 2.8% | 13.3hPa | 2.5V | 00:00:00 | 02:26:51 | 00:00:00 | |
| DB0UT-7 | 2026-09-06 00:44:47 | 50.89705 | 8.28802 | 99° | 62km/h | 29612m | -20.3m/s | -44.3°C | 2.8% | 13.2hPa | 2.5V | 00:00:00 | 02:26:50 | 00:00:00 | |
| DL1XH-15 | 2026-09-06 00:44:46 | 50.89768 | 8.28712 | 180° | 57km/h | 29730m | -19.7m/s | -44.5°C | 2.8% | 13hPa | 2.5V | 08:27:58 | 02:26:44 | 00:00:00 | |
| AA1-15 | 2026-09-06 00:44:45 | 50.89717 | 8.28756 | 123° | 62km/h | 29652m | -20.7m/s | -44.4°C | 0% | 13.2hPa | 2.6V | 08:28:30 | 02:26:48 | 00:00:00 | |
| HSKMA3-T | 2026-09-06 00:44:43 | 50.89739 | 8.28723 | 152° | 60km/h | 29692m | -19.9m/s | -44.4°C | 0% | 13.1hPa | 2.6V | 08:28:30 | 02:26:46 | 00:00:00 | |
| BIOWL1-15 | 2026-09-06 00:44:41 | 50.89811 | 8.28748 | 240° | 46km/h | 29811m | -21.5m/s | -44.6°C | 0% | 12.9hPa | 2.6V | 08:28:30 | 02:26:40 | 00:00:00 | |
| DL1XH-west | 2026-09-06 00:44:39 | 50.89794 | 8.28722 | 209° | 49km/h | 29770m | -20.7m/s | -44.6°C | 0.1% | 13hPa | 2.5V | 08:28:30 | 02:26:42 | 00:00:00 | |
| DO3DL | 2026-09-06 00:44:39 | 50.89794 | 8.28722 | 210° | 49km/h | 29770m | -20.7m/s | -44.6°C | 0.8% | 13.0hPa | 2.6V | 08:28:00 | 00:00:00 | 00:00:00 | |
| DL3AQ-11 | 2026-09-06 00:44:38 | 50.89811 | 8.28748 | 240° | 46km/h | 29811m | -21.5m/s | -44.6°C | 0.8% | 12.9hPa | 2.6V | 00:00:00 | 00:00:00 | 00:00:00 | |
| DL1XH-15 | 2026-09-06 00:44:36 | 50.89782 | 8.28830 | 351° | 53km/h | 29936m | -20.9m/s | -44.6°C | 2.8% | 12.6hPa | 2.6V | 08:28:08 | 02:26:34 | 00:00:00 | |
| AA1-15 | 2026-09-06 00:44:34 | 50.89812 | 8.28800 | 299° | 47km/h | 29874m | -21.1m/s | -44.7°C | 0% | 12.8hPa | 2.5V | 08:28:30 | 02:26:37 | 00:00:00 | |
| HSKMA3-T | 2026-09-06 00:44:32 | 50.89795 | 8.28825 | 335° | 49km/h | 29916m | -20.6m/s | -44.6°C | 0% | 12.7hPa | 2.6V | 08:28:30 | 02:26:35 | 00:00:00 | |
| BIOWL1-15 | 2026-09-06 00:44:32 | 50.89740 | 8.28814 | 32° | 68km/h | 29999m | -21.1m/s | -44.8°C | 0.1% | 12.5hPa | 2.5V | 08:28:30 | 02:26:31 | 00:00:00 | |
| DL1XH-west | 2026-09-06 00:44:29 | 50.89755 | 8.28825 | 20° | 62km/h | 29978m | -21.1m/s | -44.6°C | 0% | 12.6hPa | 2.5V | 08:28:30 | 02:26:32 | 00:00:00 | |
| AA1-15 | 2026-09-06 00:44:24 | 50.89702 | 8.28715 | 82° | 84km/h | 30083m | -21.1m/s | -45.1°C | 0.1% | 12.4hPa | 2.5V | 08:28:30 | 02:26:27 | 00:00:00 | |
| DL1XH-15 | 2026-09-06 00:44:23 | 50.89751 | 8.28553 | 150° | 71km/h | 30207m | -21.6m/s | -45.4°C | 3% | 12.1hPa | 2.5V | 08:28:21 | 02:26:21 | 00:00:00 | |
| HSKMA3-T | 2026-09-06 00:44:22 | 50.89705 | 8.28649 | 104° | 84km/h | 30124m | -21m/s | -45.2°C | 0.1% | 12.3hPa | 2.6V | 08:28:30 | 02:26:25 | 00:00:00 | |
| BIOWL1-15 | 2026-09-06 00:44:20 | 50.89751 | 8.28553 | 151° | 71km/h | 30207m | -21.6m/s | -45.4°C | 0.2% | 12.1hPa | 2.5V | 08:28:30 | 02:26:21 | 00:00:00 | |
| DL1XH-west | 2026-09-06 00:44:19 | 50.89736 | 8.28570 | 139° | 75km/h | 30186m | -21.6m/s | -45.3°C | 0.2% | 12.2hPa | 2.5V | 08:28:30 | 02:26:22 | 00:00:00 | |
| DD8BA-10 | 2026-09-06 00:44:18 | 50.89751 | 8.28553 | 151° | 53km/h | 30208m | -21.5m/s | -45.4°C | 3.0% | 12.1hPa | 2.5V | 00:00:00 | 00:00:00 | 00:00:00 | |
| DB0UT-7 | 2026-09-06 00:44:17 | 50.89767 | 8.28543 | 163° | 64km/h | 30229m | -21.3m/s | -45.5°C | 3.0% | 12.0hPa | 2.5V | 00:00:00 | 00:00:00 | 00:00:00 | |
| DM0DOS-11 | 2026-09-06 00:44:16 | 50.89817 | 8.28560 | 230° | 47km/h | 30313m | -22.5m/s | -45.6°C | 3% | 11.9hPa | 2.6V | 08:28:26 | 02:26:16 | 00:00:00 | |
| DO3MHA-12 | 2026-09-06 00:44:16 | 50.89782 | 8.28538 | 178° | 37km/h | 30249m | -21.6m/s | -45.5°C | 3.0% | 12.0hPa | 2.6V | 00:00:00 | 02:26:19 | 00:00:00 | |
| HTAHTA | 2026-09-06 00:44:15 | 50.89808 | 8.28548 | 211° | 49km/h | 30292m | -22.1m/s | -45.6°C | 0.9% | 12.0hPa | 2.6V | 00:00:00 | 00:00:00 | 00:00:00 | |
| DL3AQ-11 | 2026-09-06 00:44:14 | 50.89817 | 8.28560 | 230° | 46km/h | 30314m | -22.5m/s | -45.6°C | 0.9% | 12.0hPa | 2.6V | 00:00:00 | 00:00:00 | 00:00:00 | |
| AA1-15 | 2026-09-06 00:44:14 | 50.89817 | 8.28560 | 231° | 47km/h | 30313m | -22.5m/s | -45.6°C | 0.2% | 12hPa | 2.6V | 08:28:30 | 02:26:16 | 00:00:00 | |
| DL1XH-15 | 2026-09-06 00:44:13 | 50.89805 | 8.28634 | 335° | 51km/h | 30423m | -21.9m/s | -45.8°C | 3.1% | 11.7hPa | 2.6V | 08:28:31 | 02:26:11 | 00:00:00 | |
| HSKMA3-T | 2026-09-06 00:44:11 | 50.89824 | 8.28592 | 273° | 44km/h | 30357m | -22.2m/s | -45.6°C | 0.2% | 11.9hPa | 2.5V | 08:28:30 | 02:26:14 | 00:00:00 | |
| DL1XH-west | 2026-09-06 00:44:08 | 50.89805 | 8.28634 | 335° | 51km/h | 30423m | -21.9m/s | -45.8°C | 0.2% | 11.7hPa | 2.6V | 08:29:21 | 02:26:11 | 00:00:00 | |
| BIOWL1-15 | 2026-09-06 00:44:07 | 50.89764 | 8.28630 | 28° | 64km/h | 30489m | -22.3m/s | -46°C | 0.3% | 11.6hPa | 2.5V | 08:29:21 | 02:26:08 | 00:00:00 | |
| HEMX73-11 | 2026-09-06 00:44:07 | 50.89792 | 8.28640 | 355° | 55km/h | 30446m | -21.9m/s | -45.9°C | 0.9% | 11.7hPa | 2.5V | 08:29:00 | 00:00:00 | 00:00:00 | |
| DM0DOS-11 | 2026-09-06 00:44:06 | 50.89739 | 8.28594 | 56° | 71km/h | 30533m | -22m/s | -45.9°C | 3.2% | 11.5hPa | 2.5V | 08:28:36 | 02:26:06 | 00:00:00 | |
| AA1-15 | 2026-09-06 00:44:02 | 50.89731 | 8.28568 | 70° | 75km/h | 30555m | -21.7m/s | -45.8°C | 0.2% | 11.5hPa | 2.5V | 08:29:21 | 02:26:05 | 00:00:00 | |
| DL1XH-15 | 2026-09-06 00:44:02 | 50.89751 | 8.28416 | 131° | 84km/h | 30663m | -21.7m/s | -46°C | 3.2% | 11.3hPa | 2.5V | 08:28:42 | 02:26:00 | 00:00:00 | |
| HSKMA3-T | 2026-09-06 00:44:01 | 50.89726 | 8.28538 | 83° | 80km/h | 30577m | -21.5m/s | -45.8°C | 0.3% | 11.5hPa | 2.6V | 08:29:21 | 02:26:04 | 00:00:00 | |
| DL1XH-west | 2026-09-06 00:43:57 | 50.89751 | 8.28416 | 132° | 84km/h | 30663m | -21.7m/s | -46°C | 0.3% | 11.3hPa | 2.5V | 08:29:21 | 02:26:00 | 00:00:00 | |
| BIOWL1-15 | 2026-09-06 00:43:56 | 50.89767 | 8.28393 | 144° | 84km/h | 30685m | -21.9m/s | -46°C | 0.3% | 11.3hPa | 2.5V | 08:29:21 | 02:25:59 | 00:00:00 | |
| DM0DOS-11 | 2026-09-06 00:43:55 | 50.89823 | 8.28365 | 183° | 75km/h | 30750m | -21.9m/s | -45.9°C | 3.2% | 11.2hPa | 2.6V | 08:28:46 | 02:25:56 | 00:00:00 | |
| BUE01 | 2026-09-06 00:43:54 | 50.89823 | 8.28365 | 183° | 75km/h | 30750m | -22.0m/s | -45.9°C | 0.9% | 11.2hPa | 2.6V | 00:00:00 | 00:00:00 | 00:00:00 | |
| DB0ND-19 | 2026-09-06 00:43:53 | 50.89823 | 8.28365 | 183° | 75km/h | 30750m | -22.0m/s | -45.9°C | 0.9% | 11.2hPa | 2.6V | 00:00:00 | 00:00:00 | 00:00:00 | |
| DL1XH-15 | 2026-09-06 00:43:52 | 50.89881 | 8.28457 | 282° | 49km/h | 30881m | -21.8m/s | -45.6°C | 3.2% | 10.9hPa | 2.6V | 08:28:52 | 02:25:50 | 00:00:00 | |
| HSKMA3-T | 2026-09-06 00:43:51 | 50.89857 | 8.28381 | 211° | 66km/h | 30794m | -21.8m/s | -45.8°C | 0.4% | 11.1hPa | 2.5V | 08:29:21 | 02:25:54 | 00:00:00 | |
| DL1ZP-14 | 2026-09-06 00:43:50 | 50.89878 | 8.28416 | 243° | 55km/h | 30838m | -22.0m/s | -45.8°C | 0.9% | 11.0hPa | 2.5V | 00:00:00 | 00:00:00 | 00:00:00 | |
| BIOWL1-15 | 2026-09-06 00:43:47 | 50.89842 | 8.28499 | 3° | 57km/h | 30966m | -21.8m/s | -45°C | 0.1% | 10.8hPa | 2.5V | 08:29:21 | 02:25:46 | 00:00:00 | |
| DL1XH-west | 2026-09-06 00:43:47 | 50.89881 | 8.28457 | 283° | 49km/h | 30881m | -21.8m/s | -45.6°C | 0.3% | 10.9hPa | 2.6V | 08:29:21 | 02:25:50 | 00:00:00 | |
| AU51GT2 | 2026-09-06 00:43:46 | 50.89868 | 8.28489 | 324° | 49km/h | 30924m | -21.3m/s | -45.2°C | 0.9% | 10.9hPa | 2.5V | 00:00:00 | 00:00:00 | 00:00:00 | |
| DM0DOS-11 | 2026-09-06 00:43:45 | 50.89842 | 8.28499 | 3° | 57km/h | 30966m | -21.8m/s | -45°C | 2.9% | 10.8hPa | 2.5V | 08:28:56 | 02:25:46 | 00:00:00 | |
| DD1CC8 | 2026-09-06 00:43:45 | 50.89856 | 8.28497 | 344° | 53km/h | 30945m | -21.3m/s | -45.1°C | 0.8% | 10.8hPa | 2.5V | 00:00:00 | 00:00:00 | 00:00:00 | |
| DD1CC3-15 | 2026-09-06 00:43:44 | 50.89856 | 8.28497 | 345° | 53km/h | 30946m | -21.3m/s | -45.1°C | 0.9% | 10.8hPa | 2.5V | 08:29:00 | 00:00:00 | 00:00:00 | |
| DO2KSM | 2026-09-06 00:43:43 | 50.89856 | 8.28497 | 345° | 53km/h | 30946m | -21.3m/s | -45.1°C | 0.8% | 10.8hPa | 2.5V | 08:29:00 | 00:00:00 | 00:00:00 | |
| DL1XH-15 | 2026-09-06 00:43:42 | 50.89787 | 8.28381 | 94° | 75km/h | 31103m | -22.7m/s | -44.9°C | 2.9% | 10.6hPa | 2.5V | 08:29:02 | 02:25:40 | 00:00:00 | |
| HSKMA3-T | 2026-09-06 00:43:40 | 50.89802 | 8.28463 | 52° | 69km/h | 31034m | -23.6m/s | -44.9°C | 0.1% | 10.7hPa | 2.6V | 08:29:21 | 02:25:43 | 00:00:00 | |
| DL1XH-west | 2026-09-06 00:43:37 | 50.89786 | 8.28381 | 95° | 75km/h | 31103m | -22.7m/s | -44.9°C | 0.1% | 10.6hPa | 2.5V | 08:29:21 | 02:25:40 | 00:00:00 | |
| BIOWL1-15 | 2026-09-06 00:43:35 | 50.89799 | 8.28326 | 125° | 73km/h | 31147m | -21.9m/s | -44.9°C | 0.2% | 10.5hPa | 2.5V | 08:29:21 | 02:25:38 | 00:00:00 | |
| DD1CC9-15 | 2026-09-06 00:43:34 | 50.89811 | 8.28304 | 143° | 73km/h | 31169m | -22.1m/s | -45.0°C | 0.9% | 10.5hPa | 2.5V | 08:29:00 | 00:00:00 | 00:00:00 | |
| KANTATE | 2026-09-06 00:43:32 | 50.89827 | 8.28289 | 158° | 75km/h | 31190m | -22.5m/s | -45.0°C | 0.8% | 10.4hPa | 2.5V | 00:00:00 | 00:00:00 | 00:00:00 | |
| DL1XH-15 | 2026-09-06 00:43:31 | 50.89920 | 8.28347 | 250° | 68km/h | 31325m | -23.4m/s | -45.2°C | 3.1% | 10.2hPa | 2.5V | 08:29:12 | 02:25:30 | 00:00:00 | |
| AA1-15 | 2026-09-06 00:43:29 | 50.89899 | 8.28304 | 219° | 73km/h | 31279m | -23.3m/s | -45.3°C | 0.2% | 10.3hPa | 2.5V | 08:29:21 | 02:25:32 | 00:00:00 | |
| DL1XH-west | 2026-09-06 00:43:27 | 50.89920 | 8.28347 | 250° | 68km/h | 31325m | -23.4m/s | -45.2°C | 0.2% | 10.2hPa | 2.5V | 08:29:21 | 02:25:30 | 00:00:00 | |
| DO3DL | 2026-09-06 00:43:27 | 50.89920 | 8.28347 | 251° | 68km/h | 31326m | -23.4m/s | -45.2°C | 0.9% | 10.2hPa | 2.5V | 08:29:00 | 00:00:00 | 00:00:00 | |
| DD8BA-10 | 2026-09-06 00:43:26 | 50.89923 | 8.28373 | 269° | 64km/h | 31348m | -23.3m/s | -45.1°C | 3.0% | 10.1hPa | 2.5V | 00:00:00 | 00:00:00 | 00:00:00 | |
| DM0DOS-11 | 2026-09-06 00:43:25 | 50.89904 | 8.28436 | 324° | 62km/h | 31417m | -23.5m/s | -45.1°C | 3.1% | 10.1hPa | 2.5V | 08:29:16 | 02:25:26 | 00:00:00 | |
| BIOWL1-15 | 2026-09-06 00:43:25 | 50.89921 | 8.28398 | 287° | 64km/h | 31371m | -23.6m/s | -45.1°C | 0.2% | 10.2hPa | 2.6V | 08:29:21 | 02:25:28 | 00:00:00 | |
| HSKMA3-T | 2026-09-06 00:43:19 | 50.89847 | 8.28431 | 41° | 64km/h | 31507m | -24m/s | -45.2°C | 0.3% | 9.9hPa | 2.6V | 08:29:21 | 02:25:22 | 00:00:00 | |
| AA1-15 | 2026-09-06 00:43:18 | 50.89836 | 8.28411 | 59° | 66km/h | 31530m | -24.5m/s | -45.1°C | 0.2% | 9.9hPa | 2.6V | 08:29:21 | 02:25:21 | 00:00:00 | |
| DL1XH-west | 2026-09-06 00:43:16 | 50.89829 | 8.28359 | 94° | 71km/h | 31578m | -25m/s | -44.9°C | 0.2% | 9.8hPa | 2.5V | 18:12:15 | 02:25:19 | 00:00:00 | |
| BIOWL1-15 | 2026-09-06 00:43:16 | 50.89841 | 8.28306 | 125° | 75km/h | 31626m | -23.7m/s | -44.7°C | 0.1% | 9.8hPa | 2.5V | 18:12:15 | 02:25:17 | 00:00:00 | |
| DM0DOS-11 | 2026-09-06 00:43:15 | 50.89854 | 8.28284 | 140° | 75km/h | 31649m | -23.3m/s | -44.6°C | 3% | 9.7hPa | 2.5V | 08:30:00 | 02:25:16 | 00:00:00 | |
| HSKMA3-T | 2026-09-06 00:43:09 | 50.89926 | 8.28268 | 205° | 78km/h | 31739m | -22.9m/s | -44.6°C | 0.2% | 9.6hPa | 2.5V | 18:12:15 | 02:25:12 | 00:00:00 | |
| BIOWL1-15 | 2026-09-06 00:43:08 | 50.89968 | 8.28391 | 284° | 71km/h | 31855m | -24.3m/s | -44.9°C | 0.3% | 9.4hPa | 2.6V | 18:12:15 | 02:25:07 | 00:00:00 | |
| DO3DL | 2026-09-06 00:43:07 | 50.89943 | 8.28285 | 222° | 78km/h | 31762m | -23.2m/s | -44.6°C | 0.9% | 9.6hPa | 2.6V | 00:00:00 | 00:00:00 | 00:00:00 | |
| AA1-15 | 2026-09-06 00:43:07 | 50.89956 | 8.28307 | 235° | 78km/h | 31785m | -23.4m/s | -44.7°C | 0.3% | 9.5hPa | 2.5V | 18:12:15 | 02:25:10 | 00:00:00 | |
| DL1XH-15 | 2026-09-06 00:43:06 | 50.89968 | 8.28391 | 283° | 71km/h | 31855m | -24.3m/s | -44.8°C | 3.1% | 9.4hPa | 2.6V | 08:30:00 | 02:25:07 | 00:00:00 | |
| DL1XH-west | 2026-09-06 00:43:06 | 50.89966 | 8.28334 | 250° | 75km/h | 31808m | -23.8m/s | -44.8°C | 0.2% | 9.5hPa | 2.5V | 18:12:15 | 02:25:09 | 00:00:00 | |
| HSKMA3-T | 2026-09-06 00:42:59 | 50.89909 | 8.28443 | 23° | 60km/h | 31974m | -23.8m/s | -44.5°C | 0.2% | 9.3hPa | 2.5V | 18:12:15 | 02:25:02 | 00:00:00 | |
| AA1-15 | 2026-09-06 00:42:57 | 50.89886 | 8.28409 | 61° | 66km/h | 32020m | -24m/s | -44.5°C | 0.3% | 9.2hPa | 2.6V | 18:12:15 | 02:25:00 | 00:00:00 | |
| DL1XH-15 | 2026-09-06 00:42:56 | 50.89884 | 8.28328 | 111° | 77km/h | 32091m | -23.4m/s | -44.4°C | 3.2% | 9.1hPa | 2.5V | 08:30:00 | 02:24:57 | 00:00:00 | |
| DM0DOS-11 | 2026-09-06 00:42:55 | 50.89893 | 8.28301 | 126° | 80km/h | 32114m | -22.7m/s | -44.3°C | 3.2% | 9.1hPa | 2.5V | 08:30:00 | 02:24:56 | 00:00:00 | |
| DL1XH-west | 2026-09-06 00:42:55 | 50.89879 | 8.28356 | 95° | 71km/h | 32067m | -24m/s | -44.4°C | 0.3% | 9.1hPa | 2.5V | 18:12:15 | 02:24:58 | 00:00:00 | |
| BIOWL1-15 | 2026-09-06 00:42:53 | 50.89908 | 8.28278 | 142° | 82km/h | 32136m | -21.7m/s | -44.2°C | 0.3% | 9.1hPa | 2.5V | 18:12:15 | 02:24:55 | 00:00:00 | |
| HSKMA3-T | 2026-09-06 00:42:48 | 50.89993 | 8.28254 | 196° | 93km/h | 32224m | -23.1m/s | -43.6°C | 0.2% | 8.9hPa | 2.5V | 18:12:15 | 02:24:51 | 00:00:00 | |
| AA1-15 | 2026-09-06 00:42:46 | 50.90033 | 8.28287 | 218° | 89km/h | 32270m | -23m/s | -43.3°C | 0.2% | 8.9hPa | 2.5V | 18:12:15 | 02:24:49 | 00:00:00 | |
| DL1XH-15 | 2026-09-06 00:42:46 | 50.90060 | 8.28336 | 243° | 75km/h | 32317m | -23.6m/s | -43.3°C | 3% | 8.8hPa | 2.6V | 08:30:00 | 02:24:47 | 00:00:00 | |
| DM0DOS-11 | 2026-09-06 00:42:45 | 50.90066 | 8.28362 | 257° | 68km/h | 32341m | -23.4m/s | -43.2°C | 3% | 8.8hPa | 2.6V | 08:30:00 | 02:24:46 | 00:00:00 | |
| DL1XH-west | 2026-09-06 00:42:44 | 50.90060 | 8.28336 | 244° | 75km/h | 32317m | -23.7m/s | -43.3°C | 0.2% | 8.8hPa | 2.6V | 18:12:15 | 02:24:47 | 00:00:00 | |
| BIOWL1-15 | 2026-09-06 00:42:42 | 50.90067 | 8.28387 | 275° | 57km/h | 32364m | -23.3m/s | -43.1°C | 0.1% | 8.7hPa | 2.6V | 18:12:15 | 02:24:45 | 00:00:00 | |
| HSKMA3-T | 2026-09-06 00:42:37 | 50.90028 | 8.28424 | 34° | 47km/h | 32482m | -25m/s | -42.4°C | 0.1% | 8.6hPa | 2.6V | 18:12:15 | 02:24:40 | 00:00:00 | |
| AA1-15 | 2026-09-06 00:42:35 | 50.90012 | 8.28390 | 74° | 60km/h | 32532m | -25.4m/s | -42.1°C | 0.1% | 8.5hPa | 2.6V | 18:12:15 | 02:24:38 | 00:00:00 | |
| DL1XH1-15 | 2026-09-06 00:42:34 | 50.90011 | 8.28339 | 100° | 71km/h | 32580m | -22.4m/s | -41.9°C | 2.9% | 8.4hPa | 2.5V | 08:30:00 | 02:24:36 | 00:00:00 | |
| DL1XH-west | 2026-09-06 00:42:34 | 50.90010 | 8.28366 | 88° | 66km/h | 32557m | -24m/s | -42°C | 0.1% | 8.5hPa | 2.5V | 18:12:15 | 02:24:37 | 00:00:00 | |
| BIOWL1-15 | 2026-09-06 00:42:31 | 50.90042 | 8.28264 | 142° | 86km/h | 32648m | -22.7m/s | -41.7°C | 0.1% | 8.4hPa | 2.6V | 18:12:15 | 02:24:33 | 00:00:00 | |
| HSKMA3-T | 2026-09-06 00:42:27 | 50.90105 | 8.28225 | 173° | 91km/h | 32721m | -24.8m/s | -41.6°C | 0.1% | 8.3hPa | 2.5V | 18:12:15 | 02:24:30 | 00:00:00 | |
| DL1XH-15 | 2026-09-06 00:42:26 | 50.90165 | 8.28237 | 205° | 64km/h | 32794m | -28.3m/s | -40.7°C | 2.6% | 8.2hPa | 2.5V | 08:30:00 | 02:24:27 | 00:00:00 | |
| AA1-15 | 2026-09-06 00:42:25 | 50.90148 | 8.28228 | 194° | 78km/h | 32768m | -23.4m/s | -41.2°C | 0% | 8.2hPa | 2.5V | 18:12:15 | 02:24:28 | 00:00:00 | |
| DL1XH-west | 2026-09-06 00:42:23 | 50.90177 | 8.28247 | 214° | 44km/h | 32831m | -43m/s | -39.9°C | 0% | 8.2hPa | 2.6V | 18:12:15 | 02:24:26 | 00:00:00 | |
| BIOWL1-15 | 2026-09-06 00:42:19 | 50.90182 | 8.28231 | 80° | 24km/h | 33117m | -70.7m/s | -38.4°C | 0% | 8hPa | 2.5V | 18:12:15 | 02:24:22 | 00:00:00 | |
| DL1ZP-14 | 2026-09-06 00:42:17 | 50.90179 | 8.28202 | 77° | 24km/h | 33295m | -48.9m/s | -39.2°C | 0.6% | 7.7hPa | 2.6V | 00:00:00 | 00:00:00 | 00:00:00 | |
| GOEST3-10 | 2026-09-06 00:42:16 | 50.90179 | 8.28202 | 78° | 20km/h | 33296m | -48.8m/s | -39.1°C | 2.2% | 7.6hPa | 2.5V | 00:00:00 | 00:00:00 | 00:00:00 | |
| DM0DOS-11 | 2026-09-06 00:42:15 | 50.90174 | 8.28175 | 67° | 20km/h | 33412m | -28.6m/s | -39.8°C | 2.4% | 7.5hPa | 2.5V | 08:30:00 | 02:24:16 | 00:00:00 | |
| AA1-15 | 2026-09-06 00:42:15 | 50.90178 | 8.28192 | 75° | 26km/h | 33341m | -42.1m/s | -39.4°C | 0% | 7.6hPa | 2.6V | 18:12:15 | 02:24:18 | 00:00:00 | |
| DL1XH-west | 2026-09-06 00:42:13 | 50.90174 | 8.28175 | 67° | 20km/h | 33412m | -28.6m/s | -39.8°C | 0% | 7.5hPa | 2.5V | 18:12:15 | 02:24:16 | 00:00:00 | |
| BIOWL1-15 | 2026-09-06 00:42:09 | 50.90163 | 8.28179 | 310° | 16km/h | 33474m | 7.1m/s | -39.9°C | 0% | 7.4hPa | 2.6V | 18:12:15 | 02:24:11 | 00:00:00 | |
| WPPR-10 | 2026-09-06 00:42:09 | 50.90163 | 8.28179 | 310° | 15km/h | 33475m | 7.1m/s | -39.9°C | 0.7% | 7.4hPa | 2.5V | 00:00:00 | 00:00:00 | 00:00:00 | |
| DJ2DS-15 | 2026-09-06 00:42:08 | 50.90162 | 8.28179 | 311° | 13km/h | 33475m | 7.0m/s | -39.8°C | 2.4% | 7.3hPa | 2.5V | 00:00:00 | 02:24:11 | 00:00:00 | |
| HARRO8 | 2026-09-06 00:42:07 | 50.90157 | 8.28184 | 6° | 13km/h | 33463m | 5.4m/s | -39.9°C | 0.7% | 7.4hPa | 2.5V | 00:00:00 | 00:00:00 | 00:00:00 | |
| DM0DOS-11 | 2026-09-06 00:42:06 | 50.90146 | 8.28173 | 47° | 20km/h | 33445m | 6.3m/s | -39.9°C | 2.4% | 7.4hPa | 2.5V | 08:30:00 | 02:24:06 | 00:00:00 | |
| DL1XH-15 | 2026-09-06 00:42:06 | 50.90150 | 8.28178 | 41° | 18km/h | 33451m | 5.9m/s | -39.9°C | 2.4% | 7.4hPa | 2.5V | 08:30:00 | 02:24:07 | 00:00:00 | |
| AA1-15 | 2026-09-06 00:42:05 | 50.90153 | 8.28182 | 30° | 16km/h | 33457m | 5.6m/s | -39.9°C | 0% | 7.4hPa | 2.5V | 18:12:15 | 02:24:08 | 00:00:00 | |
| HSKMA3-T | 2026-09-06 00:42:04 | 50.90150 | 8.28178 | 41° | 18km/h | 33451m | 5.9m/s | -39.9°C | 0% | 7.4hPa | 2.5V | 18:12:15 | 02:24:07 | 00:00:00 | |
| DL1XH-west | 2026-09-06 00:42:02 | 50.90143 | 8.28167 | 51° | 18km/h | 33439m | 5.8m/s | -39.9°C | 0% | 7.4hPa | 2.6V | 18:12:15 | 02:24:05 | 00:00:00 | |
| BIOWL1-15 | 2026-09-06 00:42:01 | 50.90137 | 8.28152 | 72° | 9km/h | 33423m | 5.2m/s | -39.9°C | 0% | 7.4hPa | 2.5V | 18:12:15 | 02:24:02 | 00:00:00 | |
| DL3AQ-11 | 2026-09-06 00:41:58 | 50.90137 | 8.28147 | 141° | 5km/h | 33412m | 6.3m/s | -39.8°C | 0.7% | 7.4hPa | 2.5V | 00:00:00 | 00:00:00 | 00:00:00 | |
| DD8BA-10 | 2026-09-06 00:41:57 | 50.90137 | 8.28147 | 142° | 11km/h | 33412m | 6.2m/s | -39.8°C | 2.4% | 7.4hPa | 2.5V | 00:00:00 | 00:00:00 | 00:00:00 | |
| DL1XH-15 | 2026-09-06 00:41:56 | 50.90142 | 8.28149 | 250° | 9km/h | 33394m | 5.1m/s | -39.8°C | 2.4% | 7.5hPa | 2.6V | 08:30:00 | 02:23:57 | 00:00:00 | |
| DL1XH1-15 | 2026-09-06 00:41:56 | 50.90142 | 8.28154 | 271° | 13km/h | 33389m | 6.5m/s | -39.8°C | 2.4% | 7.5hPa | 2.6V | 08:30:00 | 02:23:56 | 00:00:00 | |
| AA1-15 | 2026-09-06 00:41:54 | 50.90142 | 8.28149 | 251° | 9km/h | 33394m | 5.1m/s | -39.8°C | 0% | 7.5hPa | 2.6V | 18:12:15 | 02:23:57 | 00:00:00 | |
| DL1XH-west | 2026-09-06 00:41:52 | 50.90141 | 8.28160 | 287° | 16km/h | 33382m | 6.1m/s | -39.8°C | 0% | 7.5hPa | 2.5V | 18:12:15 | 02:23:55 | 00:00:00 | |
| BIOWL1-15 | 2026-09-06 00:41:49 | 50.90136 | 8.28165 | 113° | 18km/h | 33349m | 5.6m/s | -39.7°C | 0% | 7.5hPa | 2.6V | 18:12:15 | 02:23:49 | 00:00:00 | |
| DJ2DS-15 | 2026-09-06 00:41:48 | 50.90134 | 8.28173 | 54° | 13km/h | 33362m | 6.5m/s | -39.7°C | 2.4% | 7.5hPa | 2.5V | 00:00:00 | 02:23:51 | 00:00:00 | |
| DB0UT-7 | 2026-09-06 00:41:47 | 50.90134 | 8.28170 | 102° | 16km/h | 33355m | 6.4m/s | -39.7°C | 2.4% | 7.5hPa | 2.5V | 00:00:00 | 02:23:50 | 00:00:00 | |
| DL1XH-15 | 2026-09-06 00:41:46 | 50.90140 | 8.28152 | 130° | 15km/h | 33339m | 4.7m/s | -39.7°C | 2.4% | 7.5hPa | 2.5V | 08:30:00 | 02:23:47 | 00:00:00 | |
| DM0DOS-11 | 2026-09-06 00:41:46 | 50.90143 | 8.28149 | 154° | 9km/h | 33334m | 5.5m/s | -39.6°C | 2.4% | 7.5hPa | 2.5V | 08:30:00 | 02:23:46 | 00:00:00 | |
| DL1ZP-14 | 2026-09-06 00:41:46 | 50.90138 | 8.28158 | 121° | 18km/h | 33344m | 4.5m/s | -39.7°C | 0.7% | 7.5hPa | 2.5V | 00:00:00 | 00:00:00 | 00:00:00 | |
| AA1-15 | 2026-09-06 00:41:44 | 50.90140 | 8.28153 | 131° | 15km/h | 33339m | 4.7m/s | -39.7°C | 0% | 7.5hPa | 2.5V | 18:12:15 | 02:23:47 | 00:00:00 | |
| DL1XH-west | 2026-09-06 00:41:41 | 50.90145 | 8.28153 | 265° | 13km/h | 33323m | 5.9m/s | -39.6°C | 0% | 7.5hPa | 2.6V | 18:12:15 | 02:23:44 | 00:00:00 | |
| DD1CC8 | 2026-09-06 00:41:41 | 50.90145 | 8.28159 | 274° | 18km/h | 33317m | 5.6m/s | -39.6°C | 0.7% | 7.6hPa | 2.6V | 00:00:00 | 00:00:00 | 00:00:00 | |
| GOEST3-10 | 2026-09-06 00:41:40 | 50.90145 | 8.28159 | 275° | 16km/h | 33317m | 5.5m/s | -39.6°C | 2.4% | 7.5hPa | 2.6V | 00:00:00 | 02:23:43 | 08:30:00 | |
| DJ2KF-10 | 2026-09-06 00:41:39 | 50.90145 | 8.28167 | 277° | 16km/h | 33312m | 5.4m/s | -39.6°C | 2.4% | 7.5hPa | 2.6V | 00:00:00 | 02:23:42 | 00:00:00 | |
| WPPR-10 | 2026-09-06 00:41:38 | 50.90144 | 8.28182 | 260° | 16km/h | 33300m | 5.6m/s | -39.6°C | 0.7% | 7.6hPa | 2.6V | 00:00:00 | 00:00:00 | 00:00:00 | |
| DL1XH-15 | 2026-09-06 00:41:37 | 50.90150 | 8.28193 | 198° | 11km/h | 33284m | 5.4m/s | -39.7°C | 2.4% | 7.6hPa | 2.6V | 08:30:00 | 02:23:37 | 00:00:00 | |
| DL1XH1-15 | 2026-09-06 00:41:36 | 50.90153 | 8.28194 | 186° | 11km/h | 33278m | 5.7m/s | -39.7°C | 2.4% | 7.6hPa | 2.6V | 08:30:00 | 02:23:36 | 00:00:00 | |
| BIOWL1-15 | 2026-09-06 00:41:35 | 50.90148 | 8.28191 | 217° | 11km/h | 33289m | 5.4m/s | -39.7°C | 0% | 7.6hPa | 2.5V | 18:12:15 | 02:23:38 | 00:00:00 | |
| AA1-15 | 2026-09-06 00:41:33 | 50.90153 | 8.28194 | 187° | 11km/h | 33278m | 5.7m/s | -39.7°C | 0% | 7.6hPa | 2.6V | 18:12:15 | 02:23:36 | 00:00:00 | |
| DL1XH-west | 2026-09-06 00:41:31 | 50.90157 | 8.28194 | 173° | 5km/h | 33267m | 5.4m/s | -39.7°C | 0% | 7.6hPa | 2.5V | 18:12:15 | 02:23:34 | 00:00:00 | |
| GOEST3-10 | 2026-09-06 00:41:30 | 50.90158 | 8.28194 | 161° | 4km/h | 33262m | 5.4m/s | -39.7°C | 2.4% | 7.6hPa | 2.5V | 00:00:00 | 02:23:33 | 00:00:00 | |
| DO3DL | 2026-09-06 00:41:29 | 50.90159 | 8.28193 | 163° | 2km/h | 33257m | 4.9m/s | -39.7°C | 0.7% | 7.6hPa | 2.5V | 00:00:00 | 00:00:00 | 00:00:00 | |
| DJ2DS-15 | 2026-09-06 00:41:28 | 50.90159 | 8.28194 | 217° | 20km/h | 33252m | 4.5m/s | -39.6°C | 2.4% | 7.6hPa | 2.5V | 00:00:00 | 02:23:31 | 08:30:00 | |
| DD8BA-10 | 2026-09-06 00:41:27 | 50.90160 | 8.28195 | 222° | 24km/h | 33247m | 4.4m/s | -39.6°C | 2.4% | 7.6hPa | 2.6V | 00:00:00 | 00:00:00 | 00:00:00 | |
| SONCRA | 2026-09-06 00:41:26 | 50.90163 | 8.28198 | 219° | 13km/h | 33242m | 5.6m/s | -39.7°C | 0.7% | 7.7hPa | 2.5V | 00:00:00 | 00:00:00 | 00:00:00 | |
| DM0DOS-11 | 2026-09-06 00:41:25 | 50.90177 | 8.28217 | 221° | 33km/h | 33224m | 5.2m/s | -39.7°C | 2.4% | 7.7hPa | 2.5V | 08:30:00 | 02:23:26 | 00:00:00 | |
| DO2JMG | 2026-09-06 00:41:25 | 50.90166 | 8.28203 | 219° | 22km/h | 33236m | 6.5m/s | 0°C | 0% | 0hPa | 2.6V | 18:12:15 | 02:23:28 | 00:00:00 | |
| BIOWL1-15 | 2026-09-06 00:41:24 | 50.90183 | 8.28226 | 225° | 33km/h | 33219m | 4.7m/s | -39.7°C | 0% | 7.7hPa | 2.5V | 18:12:15 | 02:23:25 | 00:00:00 | |
| AA1-15 | 2026-09-06 00:41:23 | 50.90177 | 8.28217 | 221° | 33km/h | 33224m | 5.2m/s | -39.7°C | 0% | 7.7hPa | 2.5V | 18:12:15 | 02:23:26 | 00:00:00 | |
| DL1XH-west | 2026-09-06 00:41:20 | 50.90192 | 8.28244 | 240° | 26km/h | 33209m | 5.8m/s | -39.7°C | 0% | 7.7hPa | 2.6V | 18:12:15 | 02:23:23 | 00:00:00 | |
| GOEST3-10 | 2026-09-06 00:41:20 | 50.90192 | 8.28244 | 241° | 16km/h | 33209m | 5.7m/s | -39.6°C | 2.3% | 7.6hPa | 2.5V | 00:00:00 | 02:23:23 | 00:00:00 | |
| BUE01 | 2026-09-06 00:41:19 | 50.90195 | 8.28259 | 264° | 15km/h | 33198m | 5.1m/s | -39.7°C | 0.7% | 7.7hPa | 2.5V | 00:00:00 | 00:00:00 | 00:00:00 | |
| DL3AQ-11 | 2026-09-06 00:41:18 | 50.90196 | 8.28264 | 269° | 9km/h | 33193m | 4.6m/s | -39.7°C | 0.7% | 7.7hPa | 2.5V | 00:00:00 | 00:00:00 | 00:00:00 | |
| DD8BA-10 | 2026-09-06 00:41:17 | 50.90195 | 8.28264 | 270° | 18km/h | 33193m | 4.5m/s | -39.7°C | 2.4% | 7.7hPa | 2.5V | 00:00:00 | 00:00:00 | 00:00:00 | |
| DL1XH-15 | 2026-09-06 00:41:16 | 50.90200 | 8.28271 | 195° | 16km/h | 33177m | 5.8m/s | -39.7°C | 2.3% | 7.7hPa | 2.5V | 08:30:00 | 02:23:17 | 00:00:00 | |
| BIOWL1-15 | 2026-09-06 00:41:13 | 50.90211 | 8.28276 | 198° | 26km/h | 33166m | 4.9m/s | -39.8°C | 0% | 7.8hPa | 2.6V | 18:12:15 | 02:23:15 | 00:00:00 | |
| AA1-15 | 2026-09-06 00:41:13 | 50.90205 | 8.28273 | 195° | 22km/h | 33171m | 5.4m/s | -39.8°C | 0% | 7.7hPa | 2.6V | 18:12:15 | 02:23:16 | 00:00:00 | |
| DL1XH-west | 2026-09-06 00:41:09 | 50.90227 | 8.28290 | 223° | 22km/h | 33151m | 5.7m/s | -39.9°C | 0% | 7.8hPa | 2.5V | 18:12:15 | 02:23:12 | 00:00:00 | |
| BIOWL1-15 | 2026-09-06 00:41:07 | 50.90256 | 8.28319 | 202° | 27km/h | 33105m | 5.3m/s | -40°C | 0% | 7.8hPa | 2.5V | 18:12:15 | 02:23:03 | 00:00:00 | |
| DL1XH-15 | 2026-09-06 00:41:06 | 50.90236 | 8.28310 | 198° | 11km/h | 33125m | 4.8m/s | -39.9°C | 2.4% | 7.8hPa | 2.6V | 08:30:00 | 02:23:07 | 00:00:00 | |
| HSKMA3-T | 2026-09-06 00:41:03 | 50.90240 | 8.28311 | 192° | 16km/h | 33120m | 4.8m/s | -39.9°C | 0% | 7.8hPa | 2.5V | 18:12:15 | 02:23:06 | 00:00:00 | |
| DL1XH-west | 2026-09-06 00:40:58 | 50.90268 | 8.28328 | 207° | 24km/h | 33094m | 5m/s | -40.1°C | 0% | 7.8hPa | 2.6V | 18:12:15 | 02:23:01 | 00:00:00 | |
| DL1XH1-15 | 2026-09-06 00:40:57 | 50.90290 | 8.28332 | 165° | 20km/h | 33069m | 5m/s | -40.2°C | 2.4% | 7.8hPa | 2.5V | 08:30:00 | 02:22:56 | 00:00:00 | |
| DD8BA-10 | 2026-09-06 00:40:57 | 50.90273 | 8.28332 | 204° | 20km/h | 33090m | 4.8m/s | -40.0°C | 2.4% | 7.8hPa | 2.6V | 00:00:00 | 00:00:00 | 08:30:00 | |
| DL1XH-15 | 2026-09-06 00:40:56 | 50.90286 | 8.28334 | 166° | 18km/h | 33074m | 5m/s | -40.1°C | 2.4% | 7.8hPa | 2.5V | 08:30:00 | 02:22:57 | 00:00:00 | |
| AA1-15 | 2026-09-06 00:40:53 | 50.90291 | 8.28332 | 166° | 20km/h | 33070m | 5m/s | -40.2°C | 0% | 7.8hPa | 2.5V | 18:12:15 | 02:22:56 | 00:00:00 | |
| BIOWL1-15 | 2026-09-06 00:40:52 | 50.90296 | 8.28330 | 172° | 22km/h | 33064m | 4.9m/s | -40.3°C | 0% | 7.8hPa | 2.6V | 18:12:15 | 02:22:55 | 00:00:00 | |
| BIOWL9-15 | 2026-09-06 00:40:50 | 50.90307 | 8.28331 | 194° | 24km/h | 33055m | 5.0m/s | -40.5°C | 0.7% | 7.9hPa | 2.6V | 00:00:00 | 00:00:00 | 00:00:00 | |
| BUE01 | 2026-09-06 00:40:48 | 50.90322 | 8.28346 | 223° | 20km/h | 33041m | 4.3m/s | -40.6°C | 0.7% | 7.9hPa | 2.6V | 00:00:00 | 00:00:00 | 00:00:00 | |
| DL1XH-west | 2026-09-06 00:40:48 | 50.90318 | 8.28340 | 218° | 24km/h | 33045m | 4.4m/s | -40.6°C | 0% | 7.9hPa | 2.5V | 18:12:15 | 02:22:51 | 00:00:00 | |
| DD8BA-10 | 2026-09-06 00:40:47 | 50.90322 | 8.28345 | 224° | 22km/h | 33041m | 4.3m/s | -40.6°C | 2.4% | 7.8hPa | 2.6V | 00:00:00 | 00:00:00 | 00:00:00 | |
| DL1XH-15 | 2026-09-06 00:40:46 | 50.90332 | 8.28354 | 167° | 15km/h | 33026m | 5.3m/s | -40.7°C | 2.4% | 7.9hPa | 2.6V | 08:30:00 | 02:22:47 | 00:00:00 | |
| DL1XH1-15 | 2026-09-06 00:40:46 | 50.90335 | 8.28351 | 153° | 20km/h | 33021m | 5.4m/s | -40.7°C | 2.4% | 7.9hPa | 2.6V | 08:30:00 | 02:22:46 | 00:00:00 | |
| DF3TZ-5 | 2026-09-06 00:40:46 | 50.90328 | 8.28354 | 201° | 11km/h | 33031m | 4.8m/s | -40.7°C | 0.7% | 7.9hPa | 2.5V | 00:00:00 | 00:00:00 | 00:00:00 | |
| AA1-15 | 2026-09-06 00:40:42 | 50.90341 | 8.28347 | 151° | 27km/h | 33016m | 5.3m/s | -40.7°C | 0% | 7.9hPa | 2.5V | 18:12:15 | 02:22:45 | 00:00:00 | |
| BIOWL1-15 | 2026-09-06 00:40:41 | 50.90347 | 8.28342 | 156° | 31km/h | 33010m | 4.8m/s | -40.7°C | 0% | 7.9hPa | 2.5V | 18:12:15 | 02:22:44 | 00:00:00 | |
| HEMX73-11 | 2026-09-06 00:40:41 | 50.90347 | 8.28342 | 157° | 31km/h | 33011m | 4.8m/s | -40.7°C | 0.7% | 7.9hPa | 2.5V | 00:00:00 | 00:00:00 | 00:00:00 | |
| DO1YAY-16 | 2026-09-06 00:40:40 | 50.90363 | 8.28335 | 173° | 33km/h | 33002m | 4.3m/s | -40.8°C | 0.7% | 7.9hPa | 2.5V | 00:00:00 | 00:00:00 | 00:00:00 | |
| DO3MHA-11 | 2026-09-06 00:40:39 | 50.90363 | 8.28335 | 174° | 26km/h | 33002m | 4.3m/s | -40.8°C | 2.4% | 7.9hPa | 2.5V | 00:00:00 | 02:22:42 | 00:00:00 | |
| DL3AQ-11 | 2026-09-06 00:40:38 | 50.90378 | 8.28337 | 198° | 24km/h | 32992m | 5.4m/s | -41.0°C | 0.7% | 7.9hPa | 2.5V | 00:00:00 | 00:00:00 | 00:00:00 | |
| DL1XH-15 | 2026-09-06 00:40:37 | 50.90389 | 8.28348 | 215° | 11km/h | 32976m | 5m/s | -41.3°C | 2.5% | 8hPa | 2.5V | 08:30:00 | 02:22:37 | 00:00:00 | |
| DL1XH-west | 2026-09-06 00:40:37 | 50.90378 | 8.28337 | 198° | 26km/h | 32992m | 5.4m/s | -41°C | 0% | 7.9hPa | 2.6V | 18:12:15 | 02:22:40 | 00:00:00 | |
| HSKMA3-T | 2026-09-06 00:40:32 | 50.90394 | 8.28347 | 152° | 13km/h | 32966m | 4.8m/s | -41.4°C | 0% | 8hPa | 2.5V | 18:12:15 | 02:22:35 | 00:00:00 | |
| AA1-15 | 2026-09-06 00:40:31 | 50.90397 | 8.28344 | 146° | 18km/h | 32962m | 4.7m/s | -41.4°C | 0% | 8hPa | 2.6V | 18:12:15 | 02:22:34 | 00:00:00 | |
| BIOWL1-15 | 2026-09-06 00:40:30 | 50.90402 | 8.28340 | 150° | 24km/h | 32957m | 4.9m/s | -41.4°C | 0% | 8hPa | 2.6V | 18:12:15 | 02:22:33 | 00:00:00 | |
| DL1XH-west | 2026-09-06 00:40:27 | 50.90422 | 8.28329 | 171° | 31km/h | 32942m | 4.7m/s | -41.4°C | 0% | 8hPa | 2.5V | 18:12:15 | 02:22:30 | 00:00:00 | |
| DL1XH-15 | 2026-09-06 00:40:26 | 50.90441 | 8.28328 | 182° | 18km/h | 32927m | 5.4m/s | -41.4°C | 2.6% | 8hPa | 2.6V | 08:30:00 | 02:22:27 | 00:00:00 | |
| HSKMA3-T | 2026-09-06 00:40:22 | 50.90447 | 8.28327 | 159° | 9km/h | 32917m | 4.8m/s | -41.4°C | 0% | 8hPa | 2.6V | 18:12:15 | 02:22:25 | 00:00:00 | |
| AA1-15 | 2026-09-06 00:40:21 | 50.90449 | 8.28325 | 144° | 9km/h | 32912m | 4.3m/s | -41.5°C | 0% | 8.1hPa | 2.5V | 18:12:15 | 02:22:24 | 00:00:00 | |
| BIOWL1-15 | 2026-09-06 00:40:19 | 50.90459 | 8.28318 | 168° | 20km/h | 32898m | 5.2m/s | -41.5°C | 0% | 8.1hPa | 2.5V | 18:12:15 | 02:22:21 | 00:00:00 | |
| DB0UT-7 | 2026-09-06 00:40:17 | 50.90464 | 8.28317 | 180° | 18km/h | 32893m | 5.3m/s | -41.4°C | 2.5% | 8.0hPa | 2.5V | 00:00:00 | 00:00:00 | 00:00:00 | |
| DL1XH-15 | 2026-09-06 00:40:16 | 50.90480 | 8.28322 | 197° | 18km/h | 32878m | 4.6m/s | -41.4°C | 2.5% | 8.1hPa | 2.5V | 08:30:00 | 02:22:17 | 00:00:00 | |
| DL1XH-west | 2026-09-06 00:40:16 | 50.90469 | 8.28318 | 189° | 24km/h | 32888m | 4.9m/s | -41.4°C | 0% | 8.1hPa | 2.6V | 18:12:15 | 02:22:19 | 00:00:00 | |
| DM0DOS-11 | 2026-09-06 00:40:14 | 50.90484 | 8.28324 | 193° | 13km/h | 32874m | 4.8m/s | -41.5°C | 2.5% | 8.1hPa | 2.5V | 08:30:00 | 02:22:16 | 00:00:00 | |
| AA1-15 | 2026-09-06 00:40:11 | 50.90489 | 8.28322 | 139° | 9km/h | 32864m | 4.9m/s | -41.5°C | 0% | 8.1hPa | 2.5V | 18:12:15 | 02:22:14 | 00:00:00 | |
| BIOWL1-15 | 2026-09-06 00:40:08 | 50.90496 | 8.28310 | 142° | 18km/h | 32850m | 4.7m/s | -41.5°C | 0% | 8.1hPa | 2.6V | 18:12:15 | 02:22:11 | 00:00:00 | |
| DJ2DS-15 | 2026-09-06 00:40:08 | 50.90496 | 8.28310 | 142° | 18km/h | 32850m | 4.6m/s | -41.5°C | 2.5% | 8.1hPa | 2.5V | 00:00:00 | 02:22:11 | 00:00:00 | |
| DL1XH-15 | 2026-09-06 00:40:07 | 50.90514 | 8.28309 | 213° | 20km/h | 32830m | 4.9m/s | -41.6°C | 2.5% | 8.1hPa | 2.5V | 08:30:00 | 02:22:07 | 00:00:00 | |
| DL1XH1-15 | 2026-09-06 00:40:07 | 50.90517 | 8.28314 | 222° | 18km/h | 32825m | 4.7m/s | -41.6°C | 2.5% | 8.1hPa | 2.6V | 08:30:00 | 02:22:06 | 00:00:00 | |
| DL1XH-west | 2026-09-06 00:40:05 | 50.90509 | 8.28306 | 198° | 20km/h | 32835m | 5.1m/s | -41.6°C | 0% | 8.1hPa | 2.5V | 18:12:15 | 02:22:08 | 00:00:00 | |
| AA1-15 | 2026-09-06 00:40:01 | 50.90523 | 8.28322 | 208° | 13km/h | 32816m | 4.6m/s | -41.8°C | 0% | 8.2hPa | 2.6V | 18:12:15 | 02:22:04 | 00:00:00 | |
| HSKMA3-T | 2026-09-06 00:40:00 | 50.90526 | 8.28323 | 177° | 13km/h | 32811m | 4.9m/s | -41.8°C | 0% | 8.2hPa | 2.5V | 18:12:15 | 02:22:03 | 00:00:00 | |
| BIOWL1-15 | 2026-09-06 00:39:57 | 50.90546 | 8.28308 | 159° | 29km/h | 32792m | 4.5m/s | -42°C | 0% | 8.2hPa | 2.6V | 18:12:15 | 02:21:59 | 00:00:00 | |
| DL1XH-west | 2026-09-06 00:39:55 | 50.90553 | 8.28304 | 168° | 27km/h | 32787m | 4.8m/s | -42°C | 0% | 8.2hPa | 2.6V | 18:12:15 | 02:21:58 | 00:00:00 | |
| DM0DOS-11 | 2026-09-06 00:39:54 | 50.90564 | 8.28305 | 200° | 18km/h | 32777m | 5.3m/s | -42.1°C | 2.6% | 8.2hPa | 2.5V | 08:30:00 | 02:21:56 | 00:00:00 | |
| AA1-15 | 2026-09-06 00:39:51 | 50.90571 | 8.28313 | 237° | 15km/h | 32766m | 4.8m/s | -42.1°C | 0% | 8.2hPa | 2.5V | 18:12:15 | 02:21:54 | 00:00:00 | |
| HSKMA3-T | 2026-09-06 00:39:50 | 50.90572 | 8.28318 | 243° | 11km/h | 32762m | 4.5m/s | -42.1°C | 0% | 8.2hPa | 2.5V | 18:12:15 | 02:21:53 | 00:00:00 | |
| BIOWL9-15 | 2026-09-06 00:39:48 | 50.90576 | 8.28323 | 194° | 9km/h | 32752m | 5.1m/s | -42.1°C | 0.8% | 8.2hPa | 2.6V | 00:00:00 | 00:00:00 | 00:00:00 | |
| BUE01 | 2026-09-06 00:39:46 | 50.90589 | 8.28320 | 172° | 26km/h | 32737m | 4.8m/s | -42.1°C | 0.7% | 8.2hPa | 2.6V | 00:00:00 | 00:00:00 | 00:00:00 | |
| DM0DOS-11 | 2026-09-06 00:39:44 | 50.90603 | 8.28320 | 187° | 29km/h | 32727m | 5.3m/s | -42.1°C | 2.6% | 8.2hPa | 2.6V | 08:30:00 | 02:21:46 | 00:00:00 | |
| DL1XH-west | 2026-09-06 00:39:44 | 50.90596 | 8.28319 | 179° | 29km/h | 32732m | 5.1m/s | -42.1°C | 0% | 8.2hPa | 2.5V | 18:12:15 | 02:21:47 | 00:00:00 | |
| AA1-15 | 2026-09-06 00:39:41 | 50.90616 | 8.28326 | 204° | 24km/h | 32717m | 4.7m/s | -42.1°C | 0% | 8.3hPa | 2.5V | 18:12:15 | 02:21:44 | 00:00:00 | |
| HSKMA3-T | 2026-09-06 00:39:39 | 50.90624 | 8.28332 | 203° | 13km/h | 32708m | 4.7m/s | -42.1°C | 0% | 8.3hPa | 2.5V | 18:12:15 | 02:21:42 | 00:00:00 | |
| DJ2KF-10 | 2026-09-06 00:39:39 | 50.90624 | 8.28332 | 203° | 26km/h | 32708m | 4.7m/s | -42.0°C | 2.6% | 8.2hPa | 2.5V | 00:00:00 | 02:21:42 | 00:00:00 | |
| DO1YAY-16 | 2026-09-06 00:39:38 | 50.90628 | 8.28331 | 137° | 11km/h | 32697m | 5.4m/s | -42.1°C | 0.7% | 8.3hPa | 2.5V | 00:00:00 | 00:00:00 | 00:00:00 | |
| DD8BA-10 | 2026-09-06 00:39:37 | 50.90628 | 8.28331 | 138° | 22km/h | 32698m | 5.4m/s | -42.0°C | 2.6% | 8.3hPa | 2.5V | 00:00:00 | 00:00:00 | 00:00:00 | |
| DD1CC8 | 2026-09-06 00:39:36 | 50.90631 | 8.28327 | 129° | 15km/h | 32692m | 5.0m/s | -42.1°C | 0.8% | 8.3hPa | 2.5V | 00:00:00 | 00:00:00 | 00:00:00 | |
| DM0DOS-11 | 2026-09-06 00:39:34 | 50.90644 | 8.28312 | 163° | 26km/h | 32679m | 4.9m/s | -42.1°C | 2.6% | 8.3hPa | 2.5V | 08:30:00 | 02:21:36 | 00:00:00 | |
| DL1XH-west | 2026-09-06 00:39:34 | 50.90638 | 8.28316 | 148° | 24km/h | 32683m | 4.4m/s | -42.1°C | 0% | 8.3hPa | 2.5V | 18:12:15 | 02:21:37 | 00:00:00 | |
| BIOWL1-15 | 2026-09-06 00:39:33 | 50.90657 | 8.28312 | 192° | 27km/h | 32668m | 5.2m/s | -42.1°C | 0% | 8.3hPa | 2.5V | 18:12:15 | 02:21:34 | 00:00:00 | |
| AA1-15 | 2026-09-06 00:39:30 | 50.90663 | 8.28315 | 201° | 27km/h | 32663m | 4.9m/s | -42.2°C | 0% | 8.3hPa | 2.6V | 18:12:15 | 02:21:33 | 00:00:00 | |
| HSKMA3-T | 2026-09-06 00:39:29 | 50.90670 | 8.28319 | 205° | 26km/h | 32658m | 4.5m/s | -42.2°C | 0% | 8.3hPa | 2.6V | 18:12:15 | 02:21:32 | 00:00:00 | |
| DL1XH-west | 2026-09-06 00:39:23 | 50.90701 | 8.28309 | 146° | 29km/h | 32629m | 4.5m/s | -42.4°C | 0% | 8.4hPa | 2.6V | 18:12:15 | 02:21:26 | 00:00:00 | |
| BIOWL1-15 | 2026-09-06 00:39:20 | 50.90718 | 8.28296 | 169° | 22km/h | 32614m | 5.6m/s | -42.6°C | 0% | 8.4hPa | 2.5V | 18:12:15 | 02:21:23 | 00:00:00 | |
| HSKMA3-T | 2026-09-06 00:39:19 | 50.90724 | 8.28295 | 182° | 22km/h | 32608m | 5.4m/s | -42.6°C | 0% | 8.4hPa | 2.5V | 18:12:15 | 02:21:22 | 00:00:00 | |
| DD8BA-10 | 2026-09-06 00:39:18 | 50.90734 | 8.28297 | 190° | 33km/h | 32599m | 4.5m/s | -42.6°C | 2.7% | 8.4hPa | 2.5V | 00:00:00 | 00:00:00 | 00:00:00 | |
| DD1CC3-15 | 2026-09-06 00:39:15 | 50.90740 | 8.28298 | 182° | 26km/h | 32594m | 4.7m/s | -42.7°C | 0.8% | 8.4hPa | 2.5V | 00:00:00 | 00:00:00 | 00:00:00 | |
| DM0DOS-11 | 2026-09-06 00:39:14 | 50.90764 | 8.28290 | 158° | 38km/h | 32578m | 4.8m/s | -42.8°C | 2.7% | 8.4hPa | 2.5V | 08:30:00 | 02:21:16 | 00:00:00 | |
| DL1XH-west | 2026-09-06 00:39:13 | 50.90764 | 8.28290 | 159° | 38km/h | 32578m | 4.9m/s | -42.8°C | 0% | 8.5hPa | 2.5V | 18:12:15 | 02:21:16 | 00:00:00 | |
| BIOWL1-15 | 2026-09-06 00:39:10 | 50.90831 | 8.28263 | 169° | 33km/h | 32537m | 5.5m/s | -43.1°C | 0% | 8.5hPa | 2.5V | 18:12:15 | 02:21:08 | 00:00:00 | |
| HSKMA3-T | 2026-09-06 00:39:09 | 50.90799 | 8.28269 | 168° | 33km/h | 32557m | 5.6m/s | -43.1°C | 0% | 8.5hPa | 2.6V | 18:12:15 | 02:21:12 | 00:00:00 | |
| AA1-15 | 2026-09-06 00:39:08 | 50.90807 | 8.28267 | 173° | 31km/h | 32552m | 5.1m/s | -43.1°C | 0% | 8.5hPa | 2.5V | 18:12:15 | 02:21:11 | 00:00:00 | |
| DD8BA-10 | 2026-09-06 00:39:07 | 50.90815 | 8.28266 | 176° | 31km/h | 32547m | 4.4m/s | -43.1°C | 2.8% | 8.4hPa | 2.6V | 00:00:00 | 00:00:00 | 00:00:00 | |
| DL1XH-15 | 2026-09-06 00:39:06 | 50.90840 | 8.28259 | 162° | 35km/h | 32531m | 5.9m/s | -43.1°C | 2.7% | 8.5hPa | 2.6V | 08:30:00 | 02:21:07 | 00:00:00 | |
| DL1XH-west | 2026-09-06 00:39:02 | 50.90857 | 8.28249 | 156° | 37km/h | 32521m | 4.5m/s | -43.2°C | 0% | 8.5hPa | 2.6V | 18:12:15 | 02:21:05 | 00:00:00 | |
| HSKMA3-T | 2026-09-06 00:38:59 | 50.90879 | 8.28236 | 166° | 26km/h | 32505m | 5.9m/s | -43.2°C | 0% | 8.6hPa | 2.5V | 18:12:15 | 02:21:02 | 00:00:00 | |
| AA1-15 | 2026-09-06 00:38:57 | 50.90889 | 8.28232 | 168° | 18km/h | 32495m | 4.6m/s | -43.2°C | 0% | 8.6hPa | 2.6V | 18:12:15 | 02:21:00 | 00:00:00 | |
| BIOWL7-15 | 2026-09-06 00:38:57 | 50.90889 | 8.28232 | 168° | 18km/h | 32495m | 4.6m/s | -43.2°C | 0.8% | 8.6hPa | 2.5V | 00:00:00 | 00:00:00 | 00:00:00 | |
| DL1XH-15 | 2026-09-06 00:38:56 | 50.90902 | 8.28222 | 140° | 24km/h | 32479m | 5.1m/s | -43.1°C | 2.7% | 8.6hPa | 2.5V | 08:30:00 | 02:20:57 | 00:00:00 | |
| BIOWL1-15 | 2026-09-06 00:38:55 | 50.90898 | 8.28227 | 148° | 20km/h | 32485m | 5.8m/s | -43.2°C | 0% | 8.6hPa | 2.6V | 18:12:15 | 02:20:58 | 00:00:00 | |
| DL1XH-west | 2026-09-06 00:38:51 | 50.90919 | 8.28204 | 156° | 27km/h | 32465m | 5.2m/s | -43.2°C | 0% | 8.6hPa | 2.5V | 18:12:15 | 02:20:54 | 00:00:00 | |
| HSKMA3-T | 2026-09-06 00:38:49 | 50.90940 | 8.28200 | 185° | 31km/h | 32449m | 4.9m/s | -43.4°C | 0% | 8.6hPa | 2.6V | 18:12:15 | 02:20:51 | 00:00:00 | |
| DL1XH1-15 | 2026-09-06 00:38:49 | 50.90980 | 8.28192 | 150° | 33km/h | 32423m | 4.8m/s | -43.7°C | 2.8% | 8.6hPa | 2.6V | 08:30:00 | 02:20:46 | 00:00:00 | |
| DJ2DS-15 | 2026-09-06 00:38:48 | 50.90940 | 8.28200 | 186° | 33km/h | 32449m | 4.8m/s | -43.3°C | 2.7% | 8.6hPa | 2.6V | 00:00:00 | 02:20:51 | 00:00:00 | |
| DB0UT-7 | 2026-09-06 00:38:47 | 50.90948 | 8.28201 | 185° | 29km/h | 32444m | 4.3m/s | -43.4°C | 2.7% | 8.6hPa | 2.6V | 00:00:00 | 02:20:50 | 00:00:00 | |
| DL1XH-15 | 2026-09-06 00:38:46 | 50.90972 | 8.28197 | 159° | 33km/h | 32429m | 5.7m/s | -43.6°C | 2.8% | 8.6hPa | 2.6V | 08:30:00 | 02:20:47 | 00:00:00 | |
| AA1-15 | 2026-09-06 00:38:46 | 50.90956 | 8.28202 | 179° | 33km/h | 32440m | 4.7m/s | -43.5°C | 0% | 8.6hPa | 2.5V | 18:12:15 | 02:20:49 | 00:00:00 | |
| BIOWL1-15 | 2026-09-06 00:38:44 | 50.90980 | 8.28192 | 151° | 33km/h | 32423m | 4.8m/s | -43.7°C | 0% | 8.6hPa | 2.6V | 18:12:15 | 02:20:46 | 00:00:00 | |
| DL1XH-west | 2026-09-06 00:38:41 | 50.90993 | 8.28179 | 150° | 27km/h | 32415m | 3.9m/s | -43.8°C | 0% | 8.7hPa | 2.5V | 18:12:15 | 02:20:44 | 00:00:00 | |
| GOEST3-10 | 2026-09-06 00:38:40 | 50.90999 | 8.28175 | 160° | 27km/h | 32411m | 5.4m/s | -43.7°C | 2.8% | 8.6hPa | 2.5V | 00:00:00 | 02:20:43 | 08:30:00 | |
| DJ2KF-10 | 2026-09-06 00:38:39 | 50.91005 | 8.28172 | 177° | 31km/h | 32405m | 6.0m/s | -43.8°C | 2.8% | 8.6hPa | 2.5V | 00:00:00 | 02:20:42 | 00:00:00 | |
| DM0DOS-11 | 2026-09-06 00:38:38 | 50.91051 | 8.28184 | 168° | 38km/h | 32373m | 5.9m/s | -44°C | 2.8% | 8.7hPa | 2.5V | 08:30:00 | 02:20:36 | 00:00:00 | |
| HSKMA3-T | 2026-09-06 00:38:38 | 50.91011 | 8.28173 | 193° | 26km/h | 32398m | 5.7m/s | -43.9°C | 0.1% | 8.7hPa | 2.6V | 18:12:15 | 02:20:41 | 00:00:00 | |
| AA1-15 | 2026-09-06 00:38:36 | 50.91025 | 8.28181 | 199° | 33km/h | 32388m | 4.3m/s | -43.9°C | 0% | 8.7hPa | 2.6V | 18:12:15 | 02:20:39 | 00:00:00 | |
| BIOWL1-15 | 2026-09-06 00:38:34 | 50.91042 | 8.28186 | 181° | 35km/h | 32379m | 6m/s | -44°C | 0% | 8.7hPa | 2.5V | 18:12:15 | 02:20:37 | 00:00:00 | |
| DL1XH-west | 2026-09-06 00:38:30 | 50.91079 | 8.28168 | 157° | 38km/h | 32357m | 5.3m/s | -44°C | 0% | 8.7hPa | 2.6V | 18:12:15 | 02:20:33 | 00:00:00 | |
| HSKMA3-T | 2026-09-06 00:38:27 | 50.91102 | 8.28157 | 174° | 27km/h | 32341m | 5.2m/s | -44°C | 0% | 8.8hPa | 2.5V | 18:12:15 | 02:20:30 | 00:00:00 | |
| DL1XH-15 | 2026-09-06 00:38:26 | 50.91121 | 8.28156 | 175° | 24km/h | 32325m | 6.1m/s | -44°C | 2.8% | 8.8hPa | 2.6V | 08:30:00 | 02:20:27 | 00:00:00 | |
| AA1-15 | 2026-09-06 00:38:25 | 50.91115 | 8.28157 | 180° | 24km/h | 32330m | 5.4m/s | -44°C | 0% | 8.8hPa | 2.5V | 18:12:15 | 02:20:28 | 00:00:00 | |
| BIOWL1-15 | 2026-09-06 00:38:23 | 50.91126 | 8.28155 | 170° | 24km/h | 32319m | 5.7m/s | -44°C | 0% | 8.8hPa | 2.6V | 18:12:15 | 02:20:26 | 00:00:00 | |
| DL1XH-west | 2026-09-06 00:38:19 | 50.91152 | 8.28148 | 179° | 26km/h | 32299m | 5.8m/s | -44.2°C | 0% | 8.8hPa | 2.5V | 18:12:15 | 02:20:22 | 00:00:00 | |
| DL4XJ-10 | 2026-09-06 00:38:19 | 50.91152 | 8.28148 | 179° | 18km/h | 32299m | 5.8m/s | -46.6°C | 0% | 0hPa | 2.5V | 00:00:00 | 00:00:00 | 00:00:00 | |
| DM0DOS-11 | 2026-09-06 00:38:18 | 50.91194 | 8.28155 | 165° | 31km/h | 32267m | 6.3m/s | -44.6°C | 2.9% | 8.8hPa | 2.5V | 08:30:00 | 02:20:16 | 00:00:00 | |
| HSKMA3-T | 2026-09-06 00:38:16 | 50.91172 | 8.28153 | 195° | 29km/h | 32282m | 4.6m/s | -44.4°C | 0.1% | 8.8hPa | 2.5V | 18:12:15 | 02:20:19 | 00:00:00 | |
| DL1XH-15 | 2026-09-06 00:38:16 | 50.91187 | 8.28157 | 178° | 29km/h | 32273m | 4.8m/s | -44.5°C | 2.8% | 8.8hPa | 2.5V | 08:30:00 | 02:20:17 | 00:00:00 | |
| AA1-15 | 2026-09-06 00:38:14 | 50.91186 | 8.28157 | 178° | 29km/h | 32273m | 4.8m/s | -44.5°C | 0.1% | 8.8hPa | 2.5V | 18:12:15 | 02:20:17 | 00:00:00 | |
| BIOWL1-15 | 2026-09-06 00:38:12 | 50.91201 | 8.28150 | 152° | 33km/h | 32261m | 6.4m/s | -44.7°C | 0.1% | 8.9hPa | 2.6V | 18:12:15 | 02:20:15 | 00:00:00 | |
| DB0ND-19 | 2026-09-06 00:38:12 | 50.91209 | 8.28143 | 141° | 33km/h | 32255m | 5.2m/s | -44.7°C | 0.8% | 8.9hPa | 2.6V | 00:00:00 | 00:00:00 | 00:00:00 | |
| DO3DL | 2026-09-06 00:38:11 | 50.91208 | 8.28143 | 142° | 35km/h | 32255m | 5.2m/s | -44.7°C | 0.8% | 8.9hPa | 2.6V | 00:00:00 | 00:00:00 | 00:00:00 | |
| DF3TZ-5 | 2026-09-06 00:38:10 | 50.91215 | 8.28134 | 133° | 31km/h | 32251m | 4.2m/s | -44.7°C | 0.8% | 8.9hPa | 2.6V | 00:00:00 | 00:00:00 | 00:00:00 | |
| DJ2KF-10 | 2026-09-06 00:38:09 | 50.91219 | 8.28126 | 129° | 16km/h | 32247m | 4.2m/s | -44.7°C | 2.9% | 8.8hPa | 2.6V | 00:00:00 | 02:20:12 | 00:00:00 | |
| DL1XH1-15 | 2026-09-06 00:38:08 | 50.91233 | 8.28128 | 210° | 20km/h | 32213m | 6m/s | -44.9°C | 2.9% | 8.9hPa | 2.6V | 08:30:00 | 02:20:06 | 00:00:00 | |
| DL1XH-west | 2026-09-06 00:38:08 | 50.91223 | 8.28119 | 128° | 16km/h | 32241m | 5.7m/s | -44.8°C | 0.1% | 8.9hPa | 2.5V | 18:12:15 | 02:20:11 | 00:00:00 | |
| DJ2DS-15 | 2026-09-06 00:38:08 | 50.91223 | 8.28119 | 128° | 18km/h | 32241m | 5.7m/s | -44.7°C | 2.9% | 8.8hPa | 2.6V | 00:00:00 | 02:20:11 | 00:00:00 | |
| DL1CLM-18 | 2026-09-06 00:38:07 | 50.91225 | 8.28116 | 145° | 7km/h | 32235m | 6.3m/s | -44.8°C | 0.8% | 8.9hPa | 2.6V | 00:00:00 | 00:00:00 | 00:00:00 | |
| DL1XH-15 | 2026-09-06 00:38:06 | 50.91230 | 8.28124 | 227° | 16km/h | 32219m | 5.5m/s | -44.8°C | 2.9% | 8.9hPa | 2.6V | 08:30:00 | 02:20:07 | 00:00:00 | |
| HSKMA3-T | 2026-09-06 00:38:05 | 50.91227 | 8.28119 | 239° | 13km/h | 32224m | 4.9m/s | -44.8°C | 0.1% | 8.9hPa | 2.6V | 18:12:15 | 02:20:08 | 00:00:00 | |
| AA1-15 | 2026-09-06 00:38:03 | 50.91233 | 8.28128 | 210° | 20km/h | 32213m | 6m/s | -44.9°C | 0.1% | 8.9hPa | 2.6V | 18:12:15 | 02:20:06 | 00:00:00 | |
| BIOWL1-15 | 2026-09-06 00:38:01 | 50.91245 | 8.28132 | 174° | 29km/h | 32201m | 5.6m/s | -44.9°C | 0.2% | 8.9hPa | 2.5V | 18:12:15 | 02:20:04 | 00:00:00 | |
| DL1XH-west | 2026-09-06 00:37:57 | 50.91271 | 8.28108 | 125° | 26km/h | 32179m | 5.8m/s | -45.1°C | 0.2% | 9hPa | 2.6V | 18:12:15 | 02:20:00 | 00:00:00 | |
| DL1XH-15 | 2026-09-06 00:37:56 | 50.91273 | 8.28089 | 65° | 13km/h | 32162m | 5.3m/s | -45.2°C | 3% | 9hPa | 2.5V | 08:30:00 | 02:19:57 | 00:00:00 | |
| HSKMA3-T | 2026-09-06 00:37:55 | 50.91274 | 8.28094 | 86° | 15km/h | 32168m | 5.7m/s | -45.2°C | 0.2% | 9hPa | 2.5V | 18:12:15 | 02:19:58 | 00:00:00 | |
| AA1-15 | 2026-09-06 00:37:52 | 50.91271 | 8.28082 | 81° | 5km/h | 32152m | 5.4m/s | -45.2°C | 0.2% | 9hPa | 2.6V | 18:12:15 | 02:19:55 | 00:00:00 | |
| BIOWL1-15 | 2026-09-06 00:37:51 | 50.91272 | 8.28080 | 134° | 7km/h | 32146m | 5.5m/s | -45.2°C | 0.2% | 9hPa | 2.6V | 18:12:15 | 02:19:54 | 00:00:00 | |
| DO3DL | 2026-09-06 00:37:51 | 50.91272 | 8.28080 | 135° | 7km/h | 32147m | 5.5m/s | -45.2°C | 0.9% | 9.0hPa | 2.5V | 00:00:00 | 00:00:00 | 00:00:00 | |
| DB0NH | 2026-09-06 00:37:50 | 50.91274 | 8.28078 | 159° | 16km/h | 32141m | 5.2m/s | -45.1°C | 3.0% | 9.0hPa | 2.5V | 00:00:00 | 02:19:53 | 08:30:00 | |
| GOEST3-10 | 2026-09-06 00:37:49 | 50.91277 | 8.28076 | 165° | 16km/h | 32136m | 4.9m/s | -45.1°C | 3.0% | 9.0hPa | 2.5V | 00:00:00 | 02:19:52 | 00:00:00 | |
| DM0DOS-11 | 2026-09-06 00:37:48 | 50.91299 | 8.28069 | 166° | 7km/h | 32104m | 4.9m/s | -45.2°C | 3% | 9.1hPa | 2.5V | 08:30:00 | 02:19:46 | 00:00:00 | |
| DL1XH-west | 2026-09-06 00:37:46 | 50.91291 | 8.28071 | 168° | 16km/h | 32120m | 6.1m/s | -45.2°C | 0.2% | 9.1hPa | 2.6V | 18:12:15 | 02:19:49 | 00:00:00 | |
| DL1XH-15 | 2026-09-06 00:37:45 | 50.91297 | 8.28069 | 170° | 9km/h | 32109m | 5.2m/s | -45.2°C | 3% | 9.1hPa | 2.6V | 08:30:00 | 02:19:47 | 00:00:00 | |
| HSKMA3-T | 2026-09-06 00:37:45 | 50.91295 | 8.28070 | 170° | 13km/h | 32115m | 5.8m/s | -45.2°C | 0.2% | 9hPa | 2.6V | 18:12:15 | 02:19:48 | 00:00:00 | |
| AA1-15 | 2026-09-06 00:37:41 | 50.91304 | 8.28066 | 156° | 13km/h | 32094m | 5.6m/s | -45.3°C | 0.2% | 9.1hPa | 2.5V | 18:12:15 | 02:19:44 | 00:00:00 | |
| BIOWL1-15 | 2026-09-06 00:37:40 | 50.91316 | 8.28054 | 145° | 24km/h | 32076m | 5.4m/s | -45.3°C | 0.2% | 9.1hPa | 2.6V | 18:12:15 | 02:19:41 | 00:00:00 | |
| DJ2KF-10 | 2026-09-06 00:37:39 | 50.91312 | 8.28059 | 148° | 15km/h | 32082m | 5.9m/s | -45.2°C | 3.0% | 9.1hPa | 2.6V | 00:00:00 | 02:19:42 | 00:00:00 | |
| DL1XH1-15 | 2026-09-06 00:37:38 | 50.91331 | 8.28036 | 181° | 5km/h | 32049m | 5.2m/s | -45.2°C | 3% | 9.2hPa | 2.6V | 08:30:00 | 02:19:36 | 00:00:00 | |
| DL1XH-west | 2026-09-06 00:37:35 | 50.91327 | 8.28040 | 136° | 13km/h | 32060m | 6.1m/s | -45.2°C | 0.1% | 9.1hPa | 2.5V | 18:12:15 | 02:19:38 | 00:00:00 | |
| HSKMA3-T | 2026-09-06 00:37:34 | 50.91329 | 8.28037 | 145° | 7km/h | 32054m | 5.4m/s | -45.2°C | 0.2% | 9.2hPa | 2.5V | 18:12:15 | 02:19:37 | 00:00:00 | |
| AA1-15 | 2026-09-06 00:37:31 | 50.91340 | 8.28041 | 203° | 18km/h | 32031m | 5.7m/s | -45.3°C | 0.2% | 9.2hPa | 2.5V | 18:12:15 | 02:19:33 | 00:00:00 | |
| WPPR-10 | 2026-09-06 00:37:29 | 50.91344 | 8.28044 | 201° | 18km/h | 32026m | 5.3m/s | -45.3°C | 0.8% | 9.2hPa | 2.5V | 00:00:00 | 00:00:00 | 00:00:00 | |
| DL1XH1-15 | 2026-09-06 00:37:28 | 50.91367 | 8.28037 | 137° | 20km/h | 31991m | 6m/s | -45.6°C | 3.1% | 9.2hPa | 2.5V | 08:30:00 | 02:19:26 | 00:00:00 | |
| BIOWL1-15 | 2026-09-06 00:37:27 | 50.91353 | 8.28048 | 188° | 15km/h | 32014m | 5.8m/s | -45.4°C | 0.2% | 9.2hPa | 2.6V | 18:12:15 | 02:19:30 | 00:00:00 | |
| DL1XH-west | 2026-09-06 00:37:24 | 50.91363 | 8.28042 | 142° | 18km/h | 31997m | 6.3m/s | -45.5°C | 0.2% | 9.2hPa | 2.5V | 18:12:15 | 02:19:27 | 00:00:00 | |
| HSKMA3-T | 2026-09-06 00:37:23 | 50.91367 | 8.28037 | 138° | 20km/h | 31991m | 6m/s | -45.6°C | 0.2% | 9.2hPa | 2.5V | 18:12:15 | 02:19:26 | 00:00:00 | |
| AA1-15 | 2026-09-06 00:37:19 | 50.91379 | 8.28021 | 168° | 5km/h | 31969m | 6.5m/s | -45.6°C | 0.2% | 9.3hPa | 2.6V | 18:12:15 | 02:19:22 | 00:00:00 | |
| DL1XH-15 | 2026-09-06 00:37:19 | 50.91385 | 8.28033 | 196° | 13km/h | 31941m | 5.7m/s | -45.7°C | 3.1% | 9.3hPa | 2.6V | 08:30:00 | 02:19:17 | 00:00:00 | |
| BIOWL1-15 | 2026-09-06 00:37:16 | 50.91381 | 8.28028 | 243° | 9km/h | 31952m | 5.3m/s | -45.7°C | 0.3% | 9.3hPa | 2.5V | 18:12:15 | 02:19:19 | 00:00:00 | |
| DL1XH-west | 2026-09-06 00:37:14 | 50.91385 | 8.28033 | 196° | 13km/h | 31941m | 5.7m/s | -45.7°C | 0.3% | 9.3hPa | 2.6V | 18:12:15 | 02:19:17 | 00:00:00 | |
| HSKMA3-T | 2026-09-06 00:37:12 | 50.91393 | 8.28033 | 166° | 15km/h | 31931m | 4.6m/s | -45.7°C | 0.3% | 9.3hPa | 2.5V | 18:12:15 | 02:19:15 | 00:00:00 | |
| DL4BBY-15 | 2026-09-06 00:37:12 | 50.91392 | 8.28033 | 167° | 9km/h | 31931m | 4.5m/s | -48.1°C | 0% | 0hPa | 2.5V | 00:00:00 | 00:00:00 | 00:00:00 | |
| DL4XJ-10 | 2026-09-06 00:37:11 | 50.91396 | 8.28032 | 155° | 11km/h | 31926m | 5.5m/s | -48.1°C | 0% | 0hPa | 2.5V | 00:00:00 | 00:00:00 | 00:00:00 | |
| DB0ND-19 | 2026-09-06 00:37:10 | 50.91399 | 8.28028 | 105° | 4km/h | 31914m | 5.7m/s | -45.6°C | 0.9% | 9.3hPa | 2.5V | 00:00:00 | 00:00:00 | 00:00:00 | |
| DJ2KF-10 | 2026-09-06 00:37:09 | 50.91399 | 8.28027 | 106° | 9km/h | 31914m | 5.6m/s | -45.6°C | 3.1% | 9.3hPa | 2.5V | 00:00:00 | 02:19:12 | 00:00:00 | |
| AA1-15 | 2026-09-06 00:37:09 | 50.91399 | 8.28028 | 106° | 5km/h | 31914m | 5.7m/s | -45.6°C | 0.3% | 9.3hPa | 2.5V | 18:12:15 | 02:19:12 | 00:00:00 | |
| DJ2DS-15 | 2026-09-06 00:37:08 | 50.91399 | 8.28026 | 59° | 9km/h | 31909m | 5.0m/s | -45.6°C | 3.1% | 9.3hPa | 2.5V | 00:00:00 | 02:19:11 | 00:00:00 | |
| DL1XH-15 | 2026-09-06 00:37:06 | 50.91402 | 8.28025 | 185° | 13km/h | 31886m | 6.2m/s | -45.5°C | 3.1% | 9.4hPa | 2.5V | 08:30:00 | 02:19:07 | 00:00:00 | |
| BIOWL1-15 | 2026-09-06 00:37:05 | 50.91399 | 8.28025 | 182° | 5km/h | 31893m | 6.3m/s | -45.6°C | 0.3% | 9.4hPa | 2.5V | 18:12:15 | 02:19:08 | 00:00:00 | |
| DL1XH-west | 2026-09-06 00:37:03 | 50.91405 | 8.28026 | 188° | 16km/h | 31881m | 5.6m/s | -45.5°C | 0.3% | 9.4hPa | 2.5V | 18:12:15 | 02:19:06 | 00:00:00 | |
| HSKMA3-T | 2026-09-06 00:37:02 | 50.91409 | 8.28027 | 192° | 18km/h | 31875m | 5.1m/s | -45.5°C | 0.3% | 9.4hPa | 2.5V | 18:12:15 | 02:19:05 | 00:00:00 | |
| DD1CC8 | 2026-09-06 00:37:01 | 50.91414 | 8.28029 | 197° | 16km/h | 31870m | 5.1m/s | -45.5°C | 0.9% | 9.4hPa | 2.5V | 00:00:00 | 00:00:00 | 00:00:00 | |
| HTAHTA | 2026-09-06 00:37:00 | 50.91422 | 8.28036 | 196° | 0km/h | 31848m | 4.8m/s | -45.4°C | 0.9% | 9.4hPa | 2.5V | 00:00:00 | 00:00:00 | 00:00:00 | |
| DM0DOS-11 | 2026-09-06 00:36:58 | 50.91427 | 8.28027 | 138° | 13km/h | 31825m | 5.1m/s | -45.4°C | 3.1% | 9.5hPa | 2.5V | 08:30:00 | 02:18:56 | 00:00:00 | |
| AA1-15 | 2026-09-06 00:36:58 | 50.91421 | 8.28035 | 232° | 5km/h | 31853m | 5.2m/s | -45.4°C | 0.2% | 9.4hPa | 2.5V | 18:12:15 | 02:19:01 | 00:00:00 | |
| DO3DL | 2026-09-06 00:36:57 | 50.91422 | 8.28036 | 0° | 0km/h | 31848m | 4.8m/s | -45.4°C | 0.9% | 9.4hPa | 2.6V | 00:00:00 | 00:00:00 | 00:00:00 | |
| DL1XH-15 | 2026-09-06 00:36:56 | 50.91425 | 8.28031 | 134° | 11km/h | 31830m | 5.6m/s | -45.4°C | 3% | 9.5hPa | 2.6V | 08:30:00 | 02:18:57 | 00:00:00 | |
| BIOWL1-15 | 2026-09-06 00:36:54 | 50.91427 | 8.28027 | 138° | 13km/h | 31825m | 5.1m/s | -45.4°C | 0.2% | 9.5hPa | 2.5V | 18:12:15 | 02:18:56 | 00:00:00 | |
| DL1XH-west | 2026-09-06 00:36:52 | 50.91430 | 8.28024 | 143° | 13km/h | 31820m | 5.8m/s | -45.4°C | 0.2% | 9.5hPa | 2.5V | 18:12:15 | 02:18:55 | 00:00:00 | |
| HSKMA3-T | 2026-09-06 00:36:51 | 50.91432 | 8.28022 | 152° | 9km/h | 31814m | 6.4m/s | -45.4°C | 0.2% | 9.5hPa | 2.5V | 18:12:15 | 02:18:54 | 00:00:00 | |
| DO3DL | 2026-09-06 00:36:50 | 50.91434 | 8.28021 | 172° | 7km/h | 31808m | 5.6m/s | -45.4°C | 0.9% | 9.5hPa | 2.6V | 00:00:00 | 00:00:00 | 00:00:00 | |
| SP3BTT-10 | 2026-09-06 00:36:49 | 50.91436 | 8.28021 | 190° | 9km/h | 31802m | 5.4m/s | 0°C | 0% | 0hPa | 2.6V | 00:00:00 | 00:00:00 | 00:00:00 | |
| DL1XH1-15 | 2026-09-06 00:36:48 | 50.91452 | 8.28019 | 123° | 7km/h | 31767m | 6.5m/s | -45.3°C | 3% | 9.6hPa | 2.6V | 08:30:00 | 02:18:46 | 00:00:00 | |
| AA1-15 | 2026-09-06 00:36:48 | 50.91438 | 8.28021 | 192° | 9km/h | 31796m | 5.5m/s | -45.4°C | 0.2% | 9.5hPa | 2.6V | 18:12:15 | 02:18:51 | 00:00:00 | |
| DB0UT-7 | 2026-09-06 00:36:47 | 50.91440 | 8.28022 | 189° | 9km/h | 31791m | 6.4m/s | -45.3°C | 3.0% | 9.5hPa | 2.6V | 00:00:00 | 02:18:50 | 08:30:00 | |
| DL1XH-15 | 2026-09-06 00:36:46 | 50.91450 | 8.28020 | 155° | 9km/h | 31773m | 5.3m/s | -45.3°C | 3% | 9.5hPa | 2.5V | 08:30:00 | 02:18:47 | 00:00:00 | |
| DF7PN | 2026-09-06 00:36:46 | 50.91447 | 8.28022 | 169° | 11km/h | 31779m | 5.1m/s | -45.3°C | 0.9% | 9.5hPa | 2.6V | 00:00:00 | 00:00:00 | 00:00:00 | |
| BIOWL1-15 | 2026-09-06 00:36:44 | 50.91452 | 8.28016 | 74° | 7km/h | 31761m | 6.2m/s | -45.3°C | 0.2% | 9.6hPa | 2.6V | 18:12:15 | 02:18:45 | 00:00:00 | |
| HSKMA3-T | 2026-09-06 00:36:41 | 50.91451 | 8.28013 | 58° | 9km/h | 31756m | 5.1m/s | -45.3°C | 0.2% | 9.6hPa | 2.5V | 18:12:15 | 02:18:44 | 00:00:00 | |
| GOEST3-10 | 2026-09-06 00:36:40 | 50.91449 | 8.28009 | 65° | 15km/h | 31751m | 4.7m/s | -45.3°C | 3.0% | 9.5hPa | 2.5V | 00:00:00 | 00:00:00 | 00:00:00 | |
| DB0ND-19 | 2026-09-06 00:36:39 | 50.91449 | 8.28000 | 103° | 13km/h | 31739m | 6.4m/s | -45.3°C | 0.9% | 9.6hPa | 2.5V | 00:00:00 | 00:00:00 | 00:00:00 | |
| DL1XH1-15 | 2026-09-06 00:36:38 | 50.91460 | 8.27981 | 153° | 7km/h | 31711m | 6.3m/s | -45.2°C | 3% | 9.6hPa | 2.5V | 08:30:00 | 02:18:36 | 00:00:00 | |
| DL1XH-15 | 2026-09-06 00:36:37 | 50.91459 | 8.27982 | 147° | 11km/h | 31717m | 5.9m/s | -45.2°C | 3% | 9.6hPa | 2.5V | 08:30:00 | 02:18:37 | 00:00:00 | |
| AA1-15 | 2026-09-06 00:36:37 | 50.91450 | 8.27995 | 122° | 16km/h | 31733m | 5.9m/s | -45.3°C | 0.2% | 9.6hPa | 2.6V | 18:12:15 | 02:18:40 | 00:00:00 | |
| BIOWL1-15 | 2026-09-06 00:36:33 | 50.91462 | 8.27980 | 265° | 0km/h | 31700m | 5.2m/s | -45.2°C | 0.2% | 9.7hPa | 2.5V | 18:12:15 | 02:18:34 | 00:00:00 | |
| DL1XH-west | 2026-09-06 00:36:30 | 50.91462 | 8.27980 | 219° | 0km/h | 31695m | 5.6m/s | -45.2°C | 0.2% | 9.7hPa | 2.6V | 18:12:15 | 02:18:33 | 00:00:00 | |
| HTAHTA | 2026-09-06 00:36:29 | 50.91465 | 8.27978 | 140° | 7km/h | 31677m | 5.3m/s | -45.3°C | 0.9% | 9.7hPa | 2.6V | 00:00:00 | 00:00:00 | 00:00:00 | |
| DM0DOS-11 | 2026-09-06 00:36:28 | 50.91466 | 8.27967 | 61° | 7km/h | 31654m | 5.4m/s | -45.3°C | 3% | 9.7hPa | 2.6V | 08:30:00 | 02:18:26 | 00:00:00 | |
| AA1-15 | 2026-09-06 00:36:26 | 50.91466 | 8.27975 | 126° | 7km/h | 31672m | 5.1m/s | -45.3°C | 0.2% | 9.7hPa | 2.5V | 18:12:15 | 02:18:29 | 00:00:00 | |
| DL1XH-west | 2026-09-06 00:36:20 | 50.91466 | 8.27961 | 137° | 7km/h | 31638m | 6.4m/s | -45.3°C | 0.2% | 9.8hPa | 2.5V | 18:12:15 | 02:18:23 | 00:00:00 | |
| DL1XH1-15 | 2026-09-06 00:36:18 | 50.91478 | 8.27962 | 219° | 4km/h | 31598m | 5.2m/s | -45.5°C | 3.1% | 9.8hPa | 2.5V | 08:30:00 | 02:18:16 | 00:00:00 | |
| AA1-15 | 2026-09-06 00:36:16 | 50.91475 | 8.27958 | 193° | 7km/h | 31615m | 6.4m/s | -45.5°C | 0.2% | 9.8hPa | 2.6V | 18:12:15 | 02:18:19 | 00:00:00 | |
| BIOWL1-15 | 2026-09-06 00:36:12 | 50.91483 | 8.27961 | 160° | 13km/h | 31580m | 5.6m/s | -45.6°C | 0.3% | 9.8hPa | 2.6V | 18:12:15 | 02:18:13 | 00:00:00 | |
| DL1XH-west | 2026-09-06 00:36:09 | 50.91486 | 8.27959 | 154° | 15km/h | 31575m | 5.1m/s | -45.6°C | 0.2% | 9.8hPa | 2.6V | 18:12:15 | 02:18:12 | 00:00:00 | |
| DB0ND-19 | 2026-09-06 00:36:08 | 50.91491 | 8.27954 | 134° | 7km/h | 31564m | 6.3m/s | -45.7°C | 0.9% | 9.9hPa | 2.6V | 00:00:00 | 00:00:00 | 00:00:00 | |
| DL1XH-15 | 2026-09-06 00:36:06 | 50.91490 | 8.27950 | 10° | 4km/h | 31547m | 5.1m/s | -45.6°C | 3.1% | 9.9hPa | 2.6V | 08:30:00 | 02:18:07 | 00:00:00 | |
| AA1-15 | 2026-09-06 00:36:05 | 50.91491 | 8.27950 | 40° | 4km/h | 31552m | 5.2m/s | -45.7°C | 0.3% | 9.9hPa | 2.6V | 18:12:15 | 02:18:08 | 00:00:00 | |
| BIOWL1-15 | 2026-09-06 00:36:01 | 50.91496 | 8.27963 | 242° | 5km/h | 31508m | 5.5m/s | -45.7°C | 0.3% | 9.9hPa | 2.6V | 18:12:15 | 02:18:00 | 00:00:00 | |
| DL1XH-west | 2026-09-06 00:35:59 | 50.91493 | 8.27958 | 227° | 11km/h | 31519m | 5m/s | -45.7°C | 0.3% | 9.9hPa | 2.6V | 18:12:15 | 02:18:02 | 00:00:00 | |
| HTAHTA | 2026-09-06 00:35:58 | 50.91496 | 8.27963 | 242° | 5km/h | 31508m | 5.5m/s | -45.7°C | 0.9% | 9.9hPa | 2.5V | 00:00:00 | 00:00:00 | 00:00:00 | |
| DL1XH-15 | 2026-09-06 00:35:56 | 50.91499 | 8.27964 | 147° | 7km/h | 31492m | 6m/s | -45.6°C | 3.1% | 10hPa | 2.5V | 08:30:00 | 02:17:57 | 00:00:00 | |
| AA1-15 | 2026-09-06 00:35:55 | 50.91497 | 8.27965 | 168° | 4km/h | 31498m | 5m/s | -45.6°C | 0.3% | 9.9hPa | 2.5V | 18:12:15 | 02:17:58 | 00:00:00 | |
| DL1XH-west | 2026-09-06 00:35:48 | 50.91510 | 8.27940 | 74° | 11km/h | 31459m | 6.2m/s | -45.5°C | 0.3% | 10hPa | 2.5V | 18:12:15 | 02:17:51 | 00:00:00 | |
| DB0UT-7 | 2026-09-06 00:35:47 | 50.91508 | 8.27936 | 57° | 7km/h | 31453m | 5.5m/s | -45.4°C | 3.1% | 10.0hPa | 2.5V | 00:00:00 | 02:17:50 | 00:00:00 | |
| DL1XH-15 | 2026-09-06 00:35:46 | 50.91506 | 8.27926 | 109° | 9km/h | 31436m | 6.3m/s | -45.4°C | 3% | 10hPa | 2.5V | 08:30:00 | 02:17:47 | 00:00:00 | |
| BIOWL1-15 | 2026-09-06 00:35:46 | 50.91507 | 8.27933 | 59° | 11km/h | 31448m | 5m/s | -45.5°C | 0.2% | 10hPa | 2.6V | 18:12:15 | 02:17:49 | 00:00:00 | |
| AA1-15 | 2026-09-06 00:35:45 | 50.91506 | 8.27929 | 76° | 9km/h | 31442m | 5.9m/s | -45.5°C | 0.2% | 10hPa | 2.6V | 18:12:15 | 02:17:48 | 00:00:00 | |
| SONCRA | 2026-09-06 00:35:45 | 50.91506 | 8.27926 | 109° | 7km/h | 31436m | 6.3m/s | -45.4°C | 0.9% | 10.0hPa | 2.6V | 00:00:00 | 00:00:00 | 00:00:00 | |
| DF7PN | 2026-09-06 00:35:44 | 50.91508 | 8.27922 | 134° | 11km/h | 31430m | 5.4m/s | -45.4°C | 0.8% | 10.1hPa | 2.6V | 00:00:00 | 00:00:00 | 00:00:00 | |
| DJ2DS-15 | 2026-09-06 00:35:43 | 50.91510 | 8.27919 | 143° | 11km/h | 31425m | 4.9m/s | -45.4°C | 0.8% | 10.1hPa | 2.6V | 00:00:00 | 00:00:00 | 00:00:00 | |
| DL4BBY-15 | 2026-09-06 00:35:42 | 50.91510 | 8.27919 | 144° | 7km/h | 31425m | 4.8m/s | -47.8°C | 0% | 0hPa | 2.6V | 00:00:00 | 00:00:00 | 00:00:00 | |
| BIOWL9-15 | 2026-09-06 00:35:40 | 50.91515 | 8.27910 | 109° | 7km/h | 31408m | 5.7m/s | -45.4°C | 0.9% | 10.1hPa | 2.6V | 00:00:00 | 00:00:00 | 00:00:00 | |
| DJ2KF-10 | 2026-09-06 00:35:39 | 50.91515 | 8.27910 | 110° | 7km/h | 31408m | 5.7m/s | -45.3°C | 3.0% | 10.0hPa | 2.6V | 00:00:00 | 02:17:42 | 00:00:00 | |
| DM0DOS-11 | 2026-09-06 00:35:38 | 50.91518 | 8.27891 | 94° | 5km/h | 31374m | 5.4m/s | -45.5°C | 3.1% | 10.1hPa | 2.6V | 08:30:00 | 02:17:36 | 00:00:00 | |
| DL1XH-west | 2026-09-06 00:35:38 | 50.91516 | 8.27907 | 95° | 9km/h | 31402m | 5.4m/s | -45.4°C | 0.2% | 10.1hPa | 2.6V | 18:12:15 | 02:17:41 | 00:00:00 | |
| DL1XH-15 | 2026-09-06 00:35:37 | 50.91518 | 8.27893 | 112° | 7km/h | 31379m | 4.8m/s | -45.5°C | 3.1% | 10.1hPa | 2.6V | 08:30:00 | 02:17:37 | 00:00:00 | |
| BIOWL1-15 | 2026-09-06 00:35:35 | 50.91518 | 8.27893 | 113° | 7km/h | 31379m | 4.8m/s | -45.5°C | 0.2% | 10.2hPa | 2.6V | 18:12:15 | 02:17:37 | 00:00:00 | |
| AA1-15 | 2026-09-06 00:35:35 | 50.91517 | 8.27896 | 113° | 9km/h | 31385m | 5.7m/s | -45.5°C | 0.2% | 10.1hPa | 2.5V | 18:12:15 | 02:17:38 | 00:00:00 | |
| GOEST3-10 | 2026-09-06 00:35:35 | 50.91517 | 8.27896 | 114° | 5km/h | 31385m | 5.7m/s | -45.5°C | 3.1% | 10.1hPa | 2.5V | 00:00:00 | 02:17:38 | 08:30:00 | |
| DJ8HS-15 | 2026-09-06 00:35:34 | 50.91518 | 8.27893 | 113° | 5km/h | 31380m | 4.8m/s | -45.5°C | 3.1% | 10.1hPa | 2.5V | 00:00:00 | 02:17:37 | 00:00:00 | |
| DD1CC9-15 | 2026-09-06 00:35:33 | 50.91518 | 8.27893 | 114° | 7km/h | 31380m | 4.8m/s | -45.5°C | 0.9% | 10.1hPa | 2.5V | 00:00:00 | 00:00:00 | 00:00:00 | |
| KANTATE | 2026-09-06 00:35:32 | 50.91518 | 8.27890 | 95° | 5km/h | 31375m | 5.4m/s | -45.5°C | 0% | 10.1hPa | 2.5V | 00:00:00 | 00:00:00 | 00:00:00 | |
| DO2KSM | 2026-09-06 00:35:31 | 50.91518 | 8.27888 | 70° | 5km/h | 31369m | 6.3m/s | -45.5°C | 0.9% | 10.2hPa | 2.5V | 00:00:00 | 00:00:00 | 00:00:00 | |
| HEMX73-11 | 2026-09-06 00:35:30 | 50.91517 | 8.27886 | 54° | 2km/h | 31358m | 4.8m/s | -45.6°C | 0.9% | 10.2hPa | 2.5V | 00:00:00 | 00:00:00 | 00:00:00 | |
| DL4XJ-10 | 2026-09-06 00:35:29 | 50.91517 | 8.27885 | 153° | 7km/h | 31353m | 5.3m/s | -48.0°C | 0% | 0hPa | 2.5V | 00:00:00 | 00:00:00 | 00:00:00 | |
| DM0DOS-11 | 2026-09-06 00:35:28 | 50.91529 | 8.27884 | 284° | 0km/h | 31320m | 6.2m/s | -45.6°C | 3.1% | 10.2hPa | 2.5V | 08:30:00 | 02:17:26 | 00:00:00 | |
| DL1XH-west | 2026-09-06 00:35:28 | 50.91518 | 8.27885 | 179° | 7km/h | 31347m | 6.6m/s | -45.6°C | 0.2% | 10.2hPa | 2.6V | 18:12:15 | 02:17:31 | 00:00:00 | |
| DL1XH-15 | 2026-09-06 00:35:26 | 50.91528 | 8.27884 | 176° | 5km/h | 31326m | 5.2m/s | -45.6°C | 3.1% | 10.2hPa | 2.5V | 08:30:00 | 02:17:27 | 00:00:00 | |
| AA1-15 | 2026-09-06 00:35:24 | 50.91528 | 8.27884 | 177° | 5km/h | 31326m | 5.2m/s | -45.6°C | 0.3% | 10.2hPa | 2.5V | 18:12:15 | 02:17:27 | 00:00:00 | |
| BIOWL1-15 | 2026-09-06 00:35:23 | 50.91529 | 8.27884 | 285° | 0km/h | 31320m | 6.2m/s | -45.6°C | 0.3% | 10.2hPa | 2.5V | 18:12:15 | 02:17:26 | 00:00:00 | |
| DL1XH-west | 2026-09-06 00:35:17 | 50.91520 | 8.27890 | 242° | 2km/h | 31286m | 5.5m/s | -45.6°C | 0.3% | 10.3hPa | 2.5V | 18:12:15 | 02:17:20 | 00:00:00 | |
| DB0UT-7 | 2026-09-06 00:35:17 | 50.91520 | 8.27890 | 242° | 7km/h | 31287m | 5.4m/s | -45.6°C | 3.1% | 10.2hPa | 2.5V | 00:00:00 | 00:00:00 | 00:00:00 | |
| DL1XH-15 | 2026-09-06 00:35:16 | 50.91522 | 8.27891 | 181° | 4km/h | 31269m | 5.8m/s | -45.5°C | 3.2% | 10.3hPa | 2.6V | 08:30:00 | 02:17:17 | 00:00:00 | |
| DL1XH1-15 | 2026-09-06 00:35:16 | 50.91523 | 8.27891 | 168° | 4km/h | 31263m | 4.9m/s | -45.5°C | 3.1% | 10.3hPa | 2.5V | 08:30:00 | 02:17:16 | 00:00:00 | |
| AA1-15 | 2026-09-06 00:35:14 | 50.91522 | 8.27891 | 181° | 4km/h | 31269m | 5.8m/s | -45.5°C | 0.3% | 10.3hPa | 2.6V | 18:12:15 | 02:17:17 | 00:00:00 | |
| BIOWL1-15 | 2026-09-06 00:35:13 | 50.91525 | 8.27890 | 161° | 7km/h | 31253m | 6.1m/s | -45.4°C | 0.2% | 10.3hPa | 2.5V | 18:12:15 | 02:17:14 | 00:00:00 | |
| DF7PN | 2026-09-06 00:35:13 | 50.91524 | 8.27890 | 163° | 4km/h | 31259m | 4.7m/s | -45.4°C | 0.9% | 10.3hPa | 2.6V | 00:00:00 | 00:00:00 | 00:00:00 | |
| DO3DL | 2026-09-06 00:35:12 | 50.91523 | 8.27890 | 164° | 5km/h | 31259m | 4.7m/s | -45.4°C | 0.9% | 10.3hPa | 2.6V | 00:00:00 | 00:00:00 | 00:00:00 | |
| GOEST3-10 | 2026-09-06 00:35:10 | 50.91527 | 8.27888 | 164° | 7km/h | 31247m | 6.2m/s | -45.3°C | 3.1% | 10.3hPa | 2.6V | 00:00:00 | 00:00:00 | 00:00:00 | |
| BIOWL9-15 | 2026-09-06 00:35:09 | 50.91531 | 8.27886 | 153° | 5km/h | 31237m | 4.3m/s | -45.3°C | 0.9% | 10.4hPa | 2.6V | 00:00:00 | 00:00:00 | 00:00:00 | |
| DL1XH1-15 | 2026-09-06 00:35:08 | 50.91521 | 8.27882 | 9° | 15km/h | 31209m | 4.7m/s | -45.1°C | 3% | 10.4hPa | 2.6V | 08:30:00 | 02:17:06 | 00:00:00 | |
| HSKMA3-T | 2026-09-06 00:35:07 | 50.91532 | 8.27885 | 83° | 2km/h | 31232m | 5.4m/s | -45.2°C | 0.2% | 10.4hPa | 2.6V | 18:12:15 | 02:17:10 | 00:00:00 | |
| DL1XH-west | 2026-09-06 00:35:06 | 50.91531 | 8.27884 | 14° | 7km/h | 31226m | 6.6m/s | -45.2°C | 0.2% | 10.4hPa | 2.5V | 18:12:15 | 02:17:09 | 00:00:00 | |
| DL1XH-15 | 2026-09-06 00:35:05 | 50.91525 | 8.27883 | 5° | 16km/h | 31214m | 5.1m/s | -45.1°C | 3% | 10.4hPa | 2.5V | 08:30:00 | 02:17:07 | 00:00:00 | |
| AA1-15 | 2026-09-06 00:35:03 | 50.91521 | 8.27882 | 9° | 15km/h | 31209m | 4.7m/s | -45.1°C | 0.2% | 10.4hPa | 2.6V | 18:12:15 | 02:17:06 | 00:00:00 | |
| BIOWL1-15 | 2026-09-06 00:35:02 | 50.91516 | 8.27880 | 49° | 5km/h | 31198m | 5.5m/s | -45°C | 0.2% | 10.4hPa | 2.5V | 18:12:15 | 02:17:04 | 00:00:00 | |
| DJ2KF-10 | 2026-09-06 00:35:01 | 50.91516 | 8.27880 | 50° | 16km/h | 31199m | 5.4m/s | -45.0°C | 3.0% | 10.4hPa | 2.5V | 00:00:00 | 02:17:04 | 00:00:00 | |
| GOEST3-10 | 2026-09-06 00:35:00 | 50.91516 | 8.27878 | 103° | 9km/h | 31194m | 4.8m/s | -45.0°C | 3.0% | 10.4hPa | 2.5V | 00:00:00 | 00:00:00 | 00:00:00 | |
| DL1XH-15 | 2026-09-06 00:34:59 | 50.91520 | 8.27855 | 95° | 13km/h | 31161m | 4.5m/s | -44.9°C | 3% | 10.5hPa | 2.5V | 08:30:00 | 02:16:57 | 00:00:00 | |
| HSKMA3-T | 2026-09-06 00:34:56 | 50.91519 | 8.27865 | 98° | 13km/h | 31170m | 5.4m/s | -45°C | 0.2% | 10.5hPa | 2.6V | 18:12:15 | 02:16:59 | 00:00:00 | |
| DL1XH-west | 2026-09-06 00:34:55 | 50.91519 | 8.27860 | 96° | 13km/h | 31165m | 4.6m/s | -44.9°C | 0.2% | 10.5hPa | 2.6V | 18:12:15 | 02:16:58 | 00:00:00 | |
| AA1-15 | 2026-09-06 00:34:52 | 50.91521 | 8.27845 | 110° | 11km/h | 31150m | 5.9m/s | -45°C | 0.1% | 10.5hPa | 2.5V | 18:12:15 | 02:16:55 | 00:00:00 | |
| BIOWL1-15 | 2026-09-06 00:34:50 | 50.91523 | 8.27839 | 112° | 4km/h | 31139m | 5.1m/s | -45°C | 0.2% | 10.5hPa | 2.6V | 18:12:15 | 02:16:53 | 00:00:00 | |
| DO2KSM | 2026-09-06 00:34:50 | 50.91523 | 8.27839 | 113° | 5km/h | 31140m | 5.1m/s | -45.0°C | 0.9% | 10.5hPa | 2.6V | 00:00:00 | 00:00:00 | 00:00:00 | |
| DM0DOS-11 | 2026-09-06 00:34:48 | 50.91511 | 8.27824 | 96° | 20km/h | 31102m | 6.2m/s | -45°C | 3% | 10.6hPa | 2.6V | 08:30:00 | 02:16:46 | 00:00:00 | |
| HSKMA3-T | 2026-09-06 00:34:45 | 50.91513 | 8.27835 | 38° | 13km/h | 31113m | 4.5m/s | -45°C | 0.2% | 10.6hPa | 2.6V | 18:12:15 | 02:16:48 | 00:00:00 | |
| DL1XH-west | 2026-09-06 00:34:44 | 50.91511 | 8.27831 | 73° | 15km/h | 31108m | 6m/s | -45°C | 0.2% | 10.6hPa | 2.6V | 18:12:15 | 02:16:47 | 00:00:00 | |
| AA1-15 | 2026-09-06 00:34:41 | 50.91514 | 8.27805 | 110° | 29km/h | 31091m | 4.7m/s | -45°C | 0.2% | 10.6hPa | 2.5V | 18:12:15 | 02:16:44 | 00:00:00 | |
| BIOWL1-15 | 2026-09-06 00:34:39 | 50.91518 | 8.27772 | 85° | 26km/h | 31076m | 5.4m/s | -45°C | 0.2% | 10.6hPa | 2.6V | 18:12:15 | 02:16:41 | 00:00:00 | |
| DD1CC1-15 | 2026-09-06 00:34:37 | 50.91518 | 8.27772 | 86° | 26km/h | 31076m | 5.4m/s | -45.0°C | 0.9% | 10.6hPa | 2.5V | 00:00:00 | 00:00:00 | 00:00:00 | |
| DL1XH-15 | 2026-09-06 00:34:36 | 50.91511 | 8.27740 | 69° | 16km/h | 31055m | 5.7m/s | -45°C | 3% | 10.7hPa | 2.5V | 08:30:00 | 02:16:37 | 00:00:00 | |
| HSKMA3-T | 2026-09-06 00:34:35 | 50.91513 | 8.27747 | 62° | 20km/h | 31061m | 4.8m/s | -45°C | 0.2% | 10.7hPa | 2.5V | 18:12:15 | 02:16:38 | 00:00:00 | |
| DL1XH-west | 2026-09-06 00:34:34 | 50.91511 | 8.27740 | 70° | 16km/h | 31055m | 5.7m/s | -45°C | 0.2% | 10.7hPa | 2.5V | 18:12:15 | 02:16:37 | 00:00:00 | |
| AA1-15 | 2026-09-06 00:34:31 | 50.91512 | 8.27723 | 119° | 15km/h | 31038m | 5.3m/s | -45°C | 0.1% | 10.7hPa | 2.6V | 18:12:15 | 02:16:34 | 00:00:00 | |
| BIOWL1-15 | 2026-09-06 00:34:29 | 50.91516 | 8.27713 | 115° | 15km/h | 31027m | 6.2m/s | -45.1°C | 0.2% | 10.7hPa | 2.5V | 18:12:15 | 02:16:32 | 00:00:00 | |
| DM0DOS-11 | 2026-09-06 00:34:28 | 50.91525 | 8.27679 | 114° | 15km/h | 30993m | 5.1m/s | -45.2°C | 3% | 10.8hPa | 2.5V | 08:30:00 | 02:16:26 | 00:00:00 | |
| AU51GT2 | 2026-09-06 00:34:27 | 50.91518 | 8.27702 | 107° | 13km/h | 31016m | 5.0m/s | -45.2°C | 0.9% | 10.7hPa | 2.5V | 00:00:00 | 00:00:00 | 00:00:00 | |
| DL1XH-15 | 2026-09-06 00:34:26 | 50.91523 | 8.27685 | 119° | 16km/h | 30998m | 5.5m/s | -45.2°C | 3% | 10.8hPa | 2.5V | 08:30:00 | 02:16:27 | 00:00:00 | |
| DL1XH-west | 2026-09-06 00:34:24 | 50.91523 | 8.27685 | 119° | 16km/h | 30998m | 5.5m/s | -45.2°C | 0.2% | 10.8hPa | 2.5V | 18:12:15 | 02:16:27 | 00:00:00 | |
| AA1-15 | 2026-09-06 00:34:21 | 50.91526 | 8.27670 | 81° | 11km/h | 30982m | 6.4m/s | -45.2°C | 0.2% | 10.8hPa | 2.6V | 18:12:15 | 02:16:24 | 00:00:00 | |
| BIOWL1-15 | 2026-09-06 00:34:18 | 50.91523 | 8.27662 | 51° | 4km/h | 30966m | 5.2m/s | -45.2°C | 0.2% | 10.8hPa | 2.5V | 18:12:15 | 02:16:21 | 00:00:00 | |
| DL1XH1-15 | 2026-09-06 00:34:18 | 50.91535 | 8.27658 | 158° | 15km/h | 30938m | 6m/s | -45.3°C | 3% | 10.8hPa | 2.5V | 08:30:00 | 02:16:16 | 00:00:00 | |
| DD1CC1-15 | 2026-09-06 00:34:17 | 50.91523 | 8.27661 | 157° | 4km/h | 30961m | 6.3m/s | -45.2°C | 0.9% | 10.8hPa | 2.6V | 00:00:00 | 00:00:00 | 00:00:00 | |
| DL1XH-15 | 2026-09-06 00:34:16 | 50.91531 | 8.27659 | 167° | 16km/h | 30943m | 4.7m/s | -45.3°C | 3% | 10.8hPa | 2.6V | 08:30:00 | 02:16:17 | 00:00:00 | |
| HSKMA3-T | 2026-09-06 00:34:14 | 50.91531 | 8.27659 | 168° | 16km/h | 30943m | 4.7m/s | -45.3°C | 0.2% | 10.8hPa | 2.6V | 18:12:15 | 02:16:17 | 00:00:00 | |
| DL1XH-west | 2026-09-06 00:34:13 | 50.91535 | 8.27658 | 159° | 15km/h | 30938m | 6m/s | -45.3°C | 0.2% | 10.8hPa | 2.5V | 18:12:15 | 02:16:16 | 00:00:00 | |
| AA1-15 | 2026-09-06 00:34:11 | 50.91540 | 8.27651 | 123° | 15km/h | 30926m | 5.5m/s | -45.4°C | 0.2% | 10.9hPa | 2.5V | 18:12:15 | 02:16:14 | 00:00:00 | |
| BIOWL1-15 | 2026-09-06 00:34:07 | 50.91546 | 8.27626 | 97° | 18km/h | 30903m | 4.9m/s | -45.6°C | 0.2% | 10.9hPa | 2.6V | 18:12:15 | 02:16:10 | 00:00:00 | |
| DO3DL | 2026-09-06 00:34:07 | 50.91545 | 8.27626 | 98° | 18km/h | 30904m | 4.9m/s | -45.6°C | 0.9% | 10.9hPa | 2.5V | 00:00:00 | 00:00:00 | 00:00:00 | |
| DL1XH-15 | 2026-09-06 00:34:06 | 50.91544 | 8.27603 | 74° | 18km/h | 30886m | 5.3m/s | -45.7°C | 3.1% | 10.9hPa | 2.5V | 08:30:00 | 02:16:07 | 00:00:00 | |
| DL1XH1-15 | 2026-09-06 00:34:06 | 50.91543 | 8.27596 | 82° | 16km/h | 30881m | 4.8m/s | -45.8°C | 3.1% | 10.9hPa | 2.6V | 08:30:00 | 02:16:06 | 00:00:00 | |
| HSKMA3-T | 2026-09-06 00:34:03 | 50.91543 | 8.27597 | 82° | 16km/h | 30881m | 4.8m/s | -45.8°C | 0.3% | 10.9hPa | 2.6V | 18:12:15 | 02:16:06 | 00:00:00 | |
| DL1XH-west | 2026-09-06 00:34:02 | 50.91543 | 8.27591 | 103° | 13km/h | 30876m | 5.7m/s | -45.8°C | 0.3% | 10.9hPa | 2.6V | 18:12:15 | 02:16:05 | 00:00:00 | |
| AA1-15 | 2026-09-06 00:34:00 | 50.91548 | 8.27583 | 151° | 16km/h | 30864m | 5.3m/s | -45.9°C | 0.3% | 11hPa | 2.5V | 18:12:15 | 02:16:03 | 00:00:00 | |
| DL1ZP-14 | 2026-09-06 00:33:59 | 50.91552 | 8.27579 | 156° | 18km/h | 30859m | 4.5m/s | -46.0°C | 0.9% | 11.0hPa | 2.5V | 00:00:00 | 00:00:00 | 00:00:00 | |
| DM0DOS-11 | 2026-09-06 00:33:58 | 50.91563 | 8.27548 | 97° | 20km/h | 30826m | 6.1m/s | -46°C | 3.2% | 11hPa | 2.5V | 08:30:00 | 02:15:56 | 00:00:00 | |
| BIOWL1-15 | 2026-09-06 00:33:57 | 50.91562 | 8.27562 | 98° | 16km/h | 30837m | 5.2m/s | -46.1°C | 0.3% | 11hPa | 2.6V | 18:12:15 | 02:15:58 | 00:00:00 | |
| HSKMA3-T | 2026-09-06 00:33:53 | 50.91563 | 8.27548 | 98° | 20km/h | 30826m | 6.1m/s | -46.1°C | 0.3% | 11hPa | 2.5V | 18:12:15 | 02:15:56 | 00:00:00 | |
| DL1XH-west | 2026-09-06 00:33:52 | 50.91564 | 8.27540 | 107° | 20km/h | 30820m | 6m/s | -46°C | 0.3% | 11hPa | 2.5V | 18:12:15 | 02:15:55 | 00:00:00 | |
| WPPR-10 | 2026-09-06 00:33:52 | 50.91566 | 8.27532 | 114° | 22km/h | 30815m | 5.7m/s | -46.0°C | 0.9% | 11.1hPa | 2.5V | 00:00:00 | 00:00:00 | 00:00:00 | |
| HARRO8 | 2026-09-06 00:33:50 | 50.91572 | 8.27515 | 118° | 24km/h | 30804m | 5.0m/s | -45.9°C | 0.9% | 11.1hPa | 2.5V | 00:00:00 | 00:00:00 | 00:00:00 | |
| AA1-15 | 2026-09-06 00:33:50 | 50.91569 | 8.27524 | 119° | 24km/h | 30809m | 5.3m/s | -46°C | 0.3% | 11.1hPa | 2.6V | 18:12:15 | 02:15:53 | 00:00:00 | |
| EDDB2-11 | 2026-09-06 00:33:49 | 50.91575 | 8.27507 | 114° | 22km/h | 30799m | 6.0m/s | -45.9°C | 0.9% | 11.1hPa | 2.5V | 00:00:00 | 00:00:00 | 00:00:00 | |
| DO2KSM | 2026-09-06 00:33:48 | 50.91575 | 8.27506 | 116° | 24km/h | 30799m | 6.0m/s | -45.9°C | 0.9% | 11.1hPa | 2.5V | 00:00:00 | 00:00:00 | 00:00:00 | |
| BIOWL1-15 | 2026-09-06 00:33:47 | 50.91577 | 8.27498 | 108° | 22km/h | 30792m | 6.1m/s | -45.9°C | 0.3% | 11.1hPa | 2.5V | 18:12:15 | 02:15:50 | 00:00:00 | |
| DB0UT-7 | 2026-09-06 00:33:47 | 50.91577 | 8.27498 | 108° | 22km/h | 30792m | 6.0m/s | -45.8°C | 3.1% | 11.1hPa | 2.5V | 00:00:00 | 02:15:50 | 00:00:00 | |
| DL1XH-15 | 2026-09-06 00:33:46 | 50.91581 | 8.27476 | 114° | 16km/h | 30776m | 5.3m/s | -45.9°C | 3.1% | 11.1hPa | 2.6V | 08:30:00 | 02:15:47 | 00:00:00 | |
| DL3AQ-11 | 2026-09-06 00:33:46 | 50.91579 | 8.27483 | 104° | 16km/h | 30781m | 4.9m/s | -45.9°C | 0.9% | 11.1hPa | 2.5V | 00:00:00 | 00:00:00 | 00:00:00 | |
| HSKMA3-T | 2026-09-06 00:33:42 | 50.91586 | 8.27466 | 139° | 18km/h | 30764m | 5.8m/s | -46°C | 0.3% | 11.1hPa | 2.5V | 18:12:15 | 02:15:45 | 00:00:00 | |
| DL1XH-west | 2026-09-06 00:33:41 | 50.91590 | 8.27461 | 138° | 20km/h | 30759m | 4.9m/s | -46°C | 0.3% | 11.2hPa | 2.5V | 18:12:15 | 02:15:44 | 00:00:00 | |
| AA1-15 | 2026-09-06 00:33:39 | 50.91596 | 8.27447 | 113° | 22km/h | 30748m | 6.3m/s | -46°C | 0.3% | 11.2hPa | 2.6V | 18:12:15 | 02:15:42 | 00:00:00 | |
| DM0DOS-11 | 2026-09-06 00:33:37 | 50.91602 | 8.27380 | 106° | 27km/h | 30714m | 5m/s | -46°C | 3.1% | 11.2hPa | 2.6V | 08:30:00 | 02:15:36 | 00:00:00 | |
| BIOWL1-15 | 2026-09-06 00:33:36 | 50.91598 | 8.27415 | 91° | 31km/h | 30731m | 5.2m/s | -46°C | 0.3% | 11.2hPa | 2.5V | 18:12:15 | 02:15:39 | 00:00:00 | |
| HSKMA3-T | 2026-09-06 00:33:31 | 50.91605 | 8.27360 | 107° | 24km/h | 30703m | 6.2m/s | -46°C | 0.4% | 11.2hPa | 2.6V | 18:12:15 | 02:15:34 | 00:00:00 | |
| DL1XH-west | 2026-09-06 00:33:30 | 50.91607 | 8.27352 | 102° | 20km/h | 30697m | 6.4m/s | -46°C | 0.3% | 11.2hPa | 2.5V | 18:12:15 | 02:15:33 | 00:00:00 | |
| AA1-15 | 2026-09-06 00:33:28 | 50.91608 | 8.27337 | 98° | 18km/h | 30686m | 4.5m/s | -46°C | 0.3% | 11.3hPa | 2.5V | 18:12:15 | 02:15:31 | 00:00:00 | |
| DJ2DS-15 | 2026-09-06 00:33:28 | 50.91608 | 8.27337 | 98° | 22km/h | 30687m | 4.5m/s | -45.9°C | 3.1% | 11.2hPa | 2.5V | 00:00:00 | 02:15:31 | 00:00:00 | |
| DJ2KF-10 | 2026-09-06 00:33:27 | 50.91609 | 8.27330 | 104° | 20km/h | 30682m | 4.9m/s | -45.9°C | 3.2% | 11.2hPa | 2.5V | 00:00:00 | 02:15:30 | 00:00:00 | |
| DL1XH-15 | 2026-09-06 00:33:26 | 50.91615 | 8.27305 | 115° | 26km/h | 30664m | 5.1m/s | -45.9°C | 3.1% | 11.3hPa | 2.5V | 08:30:00 | 02:15:27 | 00:00:00 | |
| BIOWL1-15 | 2026-09-06 00:33:25 | 50.91613 | 8.27314 | 117° | 24km/h | 30669m | 6m/s | -45.9°C | 0.4% | 11.3hPa | 2.5V | 18:12:15 | 02:15:28 | 00:00:00 | |
| HSKMA3-T | 2026-09-06 00:33:20 | 50.91618 | 8.27268 | 71° | 24km/h | 30642m | 4.8m/s | -45.9°C | 0.3% | 11.3hPa | 2.6V | 18:12:15 | 02:15:23 | 00:00:00 | |
| DL1XH-west | 2026-09-06 00:33:19 | 50.91615 | 8.27260 | 67° | 22km/h | 30637m | 4.9m/s | -45.9°C | 0.3% | 11.3hPa | 2.6V | 18:12:15 | 02:15:22 | 00:00:00 | |
| AA1-15 | 2026-09-06 00:33:17 | 50.91612 | 8.27244 | 82° | 18km/h | 30626m | 6m/s | -45.8°C | 0.3% | 11.4hPa | 2.5V | 18:12:15 | 02:15:20 | 00:00:00 | |
| DM0DOS-11 | 2026-09-06 00:33:17 | 50.91613 | 8.27216 | 87° | 18km/h | 30603m | 6.4m/s | -45.7°C | 3.1% | 11.4hPa | 2.5V | 08:30:00 | 02:15:16 | 00:00:00 | |
| BIOWL1-15 | 2026-09-06 00:33:17 | 50.91613 | 8.27231 | 97° | 16km/h | 30614m | 5.4m/s | -45.8°C | 0.3% | 11.4hPa | 2.6V | 18:12:15 | 02:15:18 | 00:00:00 | |
| HSKMA3-T | 2026-09-06 00:33:10 | 50.91610 | 8.27191 | 81° | 24km/h | 30587m | 4.8m/s | -45.7°C | 0.2% | 11.4hPa | 2.5V | 18:12:15 | 02:15:13 | 00:00:00 | |
| DL1XH-west | 2026-09-06 00:33:08 | 50.91610 | 8.27173 | 97° | 22km/h | 30575m | 6.2m/s | -45.7°C | 0.2% | 11.5hPa | 2.6V | 18:12:15 | 02:15:11 | 00:00:00 | |
| DJ2DS-15 | 2026-09-06 00:33:08 | 50.91610 | 8.27173 | 97° | 16km/h | 30576m | 6.1m/s | -45.6°C | 3.1% | 11.4hPa | 2.6V | 00:00:00 | 02:15:11 | 00:00:00 | |
| DL1XH1-15 | 2026-09-06 00:33:07 | 50.91610 | 8.27134 | 68° | 18km/h | 30547m | 5.2m/s | -45.6°C | 3% | 11.5hPa | 2.6V | 08:30:00 | 02:15:06 | 00:00:00 | |
| AA1-15 | 2026-09-06 00:33:06 | 50.91612 | 8.27156 | 97° | 20km/h | 30565m | 4.9m/s | -45.6°C | 0.3% | 11.5hPa | 2.5V | 18:12:15 | 02:15:09 | 00:00:00 | |
| BIOWL1-15 | 2026-09-06 00:33:04 | 50.91611 | 8.27141 | 77° | 18km/h | 30553m | 6m/s | -45.7°C | 0.3% | 11.5hPa | 2.5V | 18:12:15 | 02:15:07 | 00:00:00 | |
| HSKMA3-T | 2026-09-06 00:32:59 | 50.91607 | 8.27109 | 104° | 15km/h | 30525m | 5.2m/s | -45.8°C | 0.3% | 11.6hPa | 2.5V | 18:12:15 | 02:15:02 | 00:00:00 | |
| DL1XH-west | 2026-09-06 00:32:57 | 50.91608 | 8.27098 | 95° | 15km/h | 30514m | 6.2m/s | -45.9°C | 0.3% | 11.6hPa | 2.6V | 18:12:15 | 02:15:00 | 00:00:00 | |
| DM0DOS-11 | 2026-09-06 00:32:57 | 50.91607 | 8.27073 | 93° | 16km/h | 30492m | 6.3m/s | -46°C | 3.1% | 11.6hPa | 2.5V | 08:30:00 | 02:14:56 | 00:00:00 | |
| AA1-15 | 2026-09-06 00:32:55 | 50.91608 | 8.27086 | 81° | 16km/h | 30502m | 4.8m/s | -45.9°C | 0.3% | 11.6hPa | 2.5V | 18:12:15 | 02:14:58 | 00:00:00 | |
| BIOWL1-15 | 2026-09-06 00:32:53 | 50.91607 | 8.27073 | 94° | 16km/h | 30492m | 6.3m/s | -46°C | 0.3% | 11.6hPa | 2.5V | 18:12:15 | 02:14:56 | 00:00:00 | |
| HSKMA3-T | 2026-09-06 00:32:49 | 50.91611 | 8.27046 | 93° | 18km/h | 30470m | 5.8m/s | -45.9°C | 0.3% | 11.6hPa | 2.5V | 18:12:15 | 02:14:52 | 00:00:00 | |
| DL1XH-west | 2026-09-06 00:32:47 | 50.91609 | 8.27032 | 68° | 20km/h | 30458m | 5.5m/s | -45.9°C | 0.3% | 11.7hPa | 2.5V | 18:12:15 | 02:14:50 | 00:00:00 | |
| DM0DOS-11 | 2026-09-06 00:32:47 | 50.91604 | 8.27005 | 92° | 15km/h | 30435m | 5.7m/s | -45.8°C | 3.2% | 11.7hPa | 2.5V | 08:30:00 | 02:14:46 | 00:00:00 | |
| EDDB2-11 | 2026-09-06 00:32:47 | 50.91607 | 8.27025 | 64° | 18km/h | 30453m | 5.0m/s | -45.9°C | 0.9% | 11.7hPa | 2.5V | 00:00:00 | 00:00:00 | 00:00:00 | |
| BIOWL1-15 | 2026-09-06 00:32:45 | 50.91604 | 8.27005 | 92° | 15km/h | 30435m | 5.7m/s | -45.8°C | 0.3% | 11.7hPa | 2.5V | 18:12:15 | 02:14:46 | 00:00:00 | |
| AA1-15 | 2026-09-06 00:32:44 | 50.91604 | 8.27011 | 80° | 16km/h | 30441m | 6.4m/s | -45.9°C | 0.3% | 11.7hPa | 2.5V | 18:12:15 | 02:14:47 | 00:00:00 | |
| HSKMA3-T | 2026-09-06 00:32:39 | 50.91604 | 8.26978 | 83° | 20km/h | 30413m | 5.3m/s | -45.8°C | 0.3% | 11.8hPa | 2.6V | 18:12:15 | 02:14:42 | 00:00:00 | |
| DL1XH-west | 2026-09-06 00:32:36 | 50.91603 | 8.26955 | 93° | 18km/h | 30396m | 6.4m/s | -45.7°C | 0.3% | 11.8hPa | 2.5V | 18:12:15 | 02:14:39 | 00:00:00 | |
| DL1XH-15 | 2026-09-06 00:32:36 | 50.91603 | 8.26941 | 86° | 16km/h | 30385m | 5.4m/s | -45.6°C | 3.1% | 11.8hPa | 2.6V | 08:30:00 | 02:14:37 | 00:00:00 | |
| BIOWL1-15 | 2026-09-06 00:32:33 | 50.91603 | 8.26935 | 76° | 16km/h | 30379m | 6.5m/s | -45.6°C | 0.2% | 11.8hPa | 2.6V | 18:12:15 | 02:14:36 | 00:00:00 | |
| HSKMA3-T | 2026-09-06 00:32:29 | 50.91597 | 8.26909 | 85° | 16km/h | 30357m | 6.5m/s | -45.6°C | 0.3% | 11.8hPa | 2.5V | 18:12:15 | 02:14:32 | 00:00:00 | |
| DO3MHA-12 | 2026-09-06 00:32:29 | 50.91597 | 8.26908 | 86° | 20km/h | 30357m | 6.5m/s | -45.6°C | 3.1% | 11.8hPa | 2.5V | 00:00:00 | 02:14:32 | 00:00:00 | |
| DO3DL | 2026-09-06 00:32:28 | 50.91597 | 8.26902 | 102° | 16km/h | 30351m | 5.9m/s | -45.6°C | 0.9% | 11.9hPa | 2.5V | 00:00:00 | 00:00:00 | 00:00:00 | |
| DM0DOS-11 | 2026-09-06 00:32:27 | 50.91599 | 8.26864 | 70° | 24km/h | 30323m | 5.7m/s | -45.5°C | 3.1% | 11.9hPa | 2.5V | 08:30:00 | 02:14:26 | 00:00:00 | |
| DL1XH-15 | 2026-09-06 00:32:26 | 50.91600 | 8.26873 | 81° | 22km/h | 30329m | 6.4m/s | -45.5°C | 3.1% | 11.9hPa | 2.5V | 08:30:00 | 02:14:27 | 00:00:00 | |
| DL1XH-west | 2026-09-06 00:32:26 | 50.91600 | 8.26889 | 105° | 18km/h | 30340m | 4.4m/s | -45.6°C | 0.4% | 11.9hPa | 2.6V | 18:12:15 | 02:14:29 | 00:00:00 | |
| AA1-15 | 2026-09-06 00:32:23 | 50.91599 | 8.26864 | 70° | 24km/h | 30324m | 5.7m/s | -45.5°C | 0.3% | 11.9hPa | 2.5V | 18:12:15 | 02:14:26 | 00:00:00 | |
| BIOWL1-15 | 2026-09-06 00:32:22 | 50.91594 | 8.26846 | 66° | 24km/h | 30313m | 6.1m/s | -45.4°C | 0.3% | 11.9hPa | 2.6V | 18:12:15 | 02:14:24 | 00:00:00 | |
| HSKMA3-T | 2026-09-06 00:32:18 | 50.91590 | 8.26824 | 76° | 18km/h | 30295m | 5.1m/s | -45.3°C | 0.3% | 12hPa | 2.5V | 18:12:15 | 02:14:21 | 00:00:00 | |
| DM0DOS-11 | 2026-09-06 00:32:17 | 50.91586 | 8.26782 | 96° | 22km/h | 30267m | 6.6m/s | -45.2°C | 3.1% | 12hPa | 2.5V | 08:30:00 | 02:14:16 | 00:00:00 | |
| DL1XH-west | 2026-09-06 00:32:15 | 50.91586 | 8.26800 | 80° | 24km/h | 30278m | 5m/s | -45.3°C | 0.3% | 12hPa | 2.6V | 18:12:15 | 02:14:18 | 00:00:00 | |
| AA1-15 | 2026-09-06 00:32:12 | 50.91587 | 8.26773 | 103° | 22km/h | 30261m | 6m/s | -45.2°C | 0.3% | 12hPa | 2.5V | 18:12:15 | 02:14:15 | 00:00:00 | |
| HSKMA3-T | 2026-09-06 00:32:07 | 50.91584 | 8.26725 | 64° | 27km/h | 30233m | 5m/s | -45.1°C | 0.3% | 12.1hPa | 2.5V | 18:12:15 | 02:14:10 | 00:00:00 | |
| BIOWL1-15 | 2026-09-06 00:32:06 | 50.91570 | 8.26655 | 92° | 27km/h | 30187m | 4.9m/s | -45°C | 0.3% | 12.2hPa | 2.5V | 18:12:15 | 02:14:02 | 00:00:00 | |
| DL1XH-15 | 2026-09-06 00:32:06 | 50.91576 | 8.26699 | 67° | 20km/h | 30215m | 5.5m/s | -45°C | 3.1% | 12.1hPa | 2.6V | 08:30:00 | 02:14:07 | 00:00:00 | |
| DL1XH-west | 2026-09-06 00:32:04 | 50.91576 | 8.26699 | 67° | 20km/h | 30215m | 5.6m/s | -45°C | 0.3% | 12.1hPa | 2.6V | 18:12:15 | 02:14:07 | 00:00:00 | |
| HEMX73-11 | 2026-09-06 00:32:03 | 50.91575 | 8.26699 | 68° | 20km/h | 30215m | 5.6m/s | -45.0°C | 0.9% | 12.1hPa | 2.5V | 00:00:00 | 00:00:00 | 00:00:00 | |
| BIOWL9-15 | 2026-09-06 00:32:02 | 50.91572 | 8.26684 | 74° | 20km/h | 30204m | 6.3m/s | -45.0°C | 0.9% | 12.1hPa | 2.5V | 00:00:00 | 00:00:00 | 00:00:00 | |
| AA1-15 | 2026-09-06 00:32:02 | 50.91572 | 8.26684 | 74° | 22km/h | 30204m | 6.3m/s | -45°C | 0.3% | 12.1hPa | 2.6V | 18:12:15 | 02:14:05 | 00:00:00 | |
| BUE01 | 2026-09-06 00:32:00 | 50.91570 | 8.26655 | 91° | 26km/h | 30187m | 4.9m/s | -45.0°C | 0.9% | 12.2hPa | 2.5V | 00:00:00 | 00:00:00 | 00:00:00 | |
| DB0ND-19 | 2026-09-06 00:31:59 | 50.91570 | 8.26655 | 91° | 26km/h | 30187m | 4.9m/s | -45.0°C | 0.9% | 12.2hPa | 2.5V | 00:00:00 | 00:00:00 | 00:00:00 | |
| DF3TZ-5 | 2026-09-06 00:31:58 | 50.91575 | 8.26599 | 75° | 22km/h | 30152m | 5.3m/s | -44.9°C | 0.9% | 12.2hPa | 2.5V | 00:00:00 | 00:00:00 | 00:00:00 | |
| DL1XH-15 | 2026-09-06 00:31:56 | 50.91576 | 8.26608 | 89° | 22km/h | 30158m | 6.3m/s | -44.9°C | 3.1% | 12.2hPa | 2.5V | 08:30:00 | 02:13:57 | 00:00:00 | |
| HSKMA3-T | 2026-09-06 00:31:56 | 50.91574 | 8.26625 | 110° | 24km/h | 30168m | 5.2m/s | -45°C | 0.3% | 12.2hPa | 2.5V | 18:12:15 | 02:13:59 | 00:00:00 | |
| DL1XH-west | 2026-09-06 00:31:53 | 50.91575 | 8.26599 | 75° | 24km/h | 30152m | 5.3m/s | -44.9°C | 0.2% | 12.2hPa | 2.6V | 18:12:15 | 02:13:56 | 00:00:00 | |
| AA1-15 | 2026-09-06 00:31:52 | 50.91573 | 8.26590 | 66° | 24km/h | 30147m | 4.7m/s | -44.9°C | 0.3% | 12.2hPa | 2.6V | 18:12:15 | 02:13:55 | 00:00:00 | |
| BIOWL1-15 | 2026-09-06 00:31:48 | 50.91567 | 8.26559 | 91° | 18km/h | 30124m | 5.6m/s | -44.7°C | 0.2% | 12.3hPa | 2.5V | 18:12:15 | 02:13:51 | 00:00:00 | |
| HSKMA3-T | 2026-09-06 00:31:45 | 50.91568 | 8.26531 | 91° | 29km/h | 30107m | 6.6m/s | -44.6°C | 0.2% | 12.3hPa | 2.6V | 18:12:15 | 02:13:48 | 00:00:00 | |
| DL1XH-west | 2026-09-06 00:31:42 | 50.91566 | 8.26496 | 81° | 26km/h | 30091m | 5.8m/s | -44.6°C | 0.2% | 12.4hPa | 2.5V | 18:12:15 | 02:13:45 | 00:00:00 | |
| BIOWL1-15 | 2026-09-06 00:31:38 | 50.91563 | 8.26470 | 64° | 13km/h | 30067m | 6m/s | -44.5°C | 0.2% | 12.4hPa | 2.5V | 18:12:15 | 02:13:41 | 00:00:00 | |
| HSKMA3-T | 2026-09-06 00:31:35 | 50.91557 | 8.26451 | 71° | 20km/h | 30050m | 4.8m/s | -44.4°C | 0.2% | 12.4hPa | 2.6V | 18:12:15 | 02:13:38 | 00:00:00 | |
| DL1XH-west | 2026-09-06 00:31:32 | 50.91556 | 8.26427 | 102° | 22km/h | 30033m | 5.9m/s | -44.4°C | 0.2% | 12.4hPa | 2.5V | 18:12:15 | 02:13:35 | 00:00:00 | |
| AA1-15 | 2026-09-06 00:31:31 | 50.91557 | 8.26418 | 104° | 22km/h | 30027m | 5.1m/s | -44.3°C | 0.2% | 12.4hPa | 2.5V | 18:12:15 | 02:13:34 | 00:00:00 | |
| BIOWL1-15 | 2026-09-06 00:31:30 | 50.91558 | 8.26389 | 82° | 27km/h | 30010m | 6m/s | -44.2°C | 0.1% | 12.5hPa | 2.6V | 18:12:15 | 02:13:31 | 00:00:00 | |
| GOEST3-10 | 2026-09-06 00:31:30 | 50.91558 | 8.26409 | 99° | 26km/h | 30023m | 4.9m/s | -44.2°C | 3.0% | 12.4hPa | 2.6V | 00:00:00 | 00:00:00 | 00:00:00 | |
| BUE01 | 2026-09-06 00:31:29 | 50.91558 | 8.26389 | 81° | 26km/h | 30011m | 6.0m/s | -44.2°C | 0.8% | 12.5hPa | 2.6V | 00:00:00 | 00:00:00 | 00:00:00 | |
| DJ2DS-15 | 2026-09-06 00:31:28 | 50.91558 | 8.26389 | 82° | 20km/h | 30011m | 6.0m/s | -44.2°C | 2.9% | 12.4hPa | 2.6V | 00:00:00 | 02:13:31 | 00:00:00 | |
| DF3TZ-5 | 2026-09-06 00:31:27 | 50.91555 | 8.26368 | 71° | 24km/h | 30000m | 4.7m/s | -44.2°C | 0.8% | 12.5hPa | 2.5V | 00:00:00 | 00:00:00 | 00:00:00 | |
| NBG1-10 | 2026-09-06 00:31:26 | 50.91555 | 8.26368 | 72° | 16km/h | 30000m | 4.6m/s | -44.1°C | 2.9% | 12.5hPa | 2.5V | 00:00:00 | 02:13:29 | 00:00:00 | |
| DD8BA-10 | 2026-09-06 00:31:26 | 50.91555 | 8.26368 | 72° | 18km/h | 30000m | 4.6m/s | -44.1°C | 2.9% | 12.5hPa | 2.5V | 00:00:00 | 00:00:00 | 00:00:00 | |
| DD1CC3-15 | 2026-09-06 00:31:25 | 50.91555 | 8.26368 | 72° | 26km/h | 30000m | 4.7m/s | -44.2°C | 0.9% | 12.5hPa | 2.6V | 00:00:00 | 00:00:00 | 00:00:00 | |
| DO2KSM | 2026-09-06 00:31:25 | 50.91555 | 8.26368 | 72° | 26km/h | 30000m | 4.7m/s | -44.2°C | 0.8% | 12.5hPa | 2.6V | 00:00:00 | 00:00:00 | 00:00:00 | |
| DL1XH1-15 | 2026-09-06 00:31:24 | 50.91551 | 8.26347 | 85° | 13km/h | 29982m | 5.8m/s | -44.2°C | 2.9% | 12.5hPa | 2.6V | 08:30:00 | 02:13:26 | 00:00:00 | |
| HSKMA3-T | 2026-09-06 00:31:24 | 50.91552 | 8.26352 | 76° | 16km/h | 29988m | 6.3m/s | -44.2°C | 0.1% | 12.5hPa | 2.6V | 18:12:15 | 02:13:27 | 00:00:00 | |
| DL1XH-west | 2026-09-06 00:31:22 | 50.91551 | 8.26342 | 91° | 13km/h | 29977m | 5.3m/s | -44.2°C | 0.2% | 12.6hPa | 2.5V | 18:12:15 | 02:13:25 | 00:00:00 | |
| AA1-15 | 2026-09-06 00:31:21 | 50.91551 | 8.26336 | 89° | 15km/h | 29971m | 5.4m/s | -44.1°C | 0.1% | 12.6hPa | 2.5V | 18:12:15 | 02:13:24 | 00:00:00 | |
| BIOWL1-15 | 2026-09-06 00:31:18 | 50.91549 | 8.26313 | 84° | 24km/h | 29954m | 4.9m/s | -44.1°C | 0.1% | 12.6hPa | 2.6V | 18:12:15 | 02:13:21 | 00:00:00 | |
| DM0DOS-11 | 2026-09-06 00:31:17 | 50.91550 | 8.26269 | 90° | 18km/h | 29926m | 5.2m/s | -44°C | 2.9% | 12.7hPa | 2.6V | 08:30:00 | 02:13:16 | 00:00:00 | |
| HSKMA3-T | 2026-09-06 00:31:13 | 50.91550 | 8.26269 | 91° | 18km/h | 29926m | 5.2m/s | -44°C | 0.1% | 12.7hPa | 2.6V | 18:12:15 | 02:13:16 | 00:00:00 | |
| DL1XH-west | 2026-09-06 00:31:12 | 50.91550 | 8.26261 | 78° | 20km/h | 29920m | 6.2m/s | -44°C | 0.1% | 12.6hPa | 2.5V | 18:12:15 | 02:13:15 | 00:00:00 | |
| AA1-15 | 2026-09-06 00:31:11 | 50.91548 | 8.26254 | 66° | 22km/h | 29914m | 6.3m/s | -44°C | 0.1% | 12.7hPa | 2.5V | 18:12:15 | 02:13:14 | 00:00:00 | |
| BIOWL1-15 | 2026-09-06 00:31:08 | 50.91540 | 8.26204 | 92° | 18km/h | 29868m | 5.9m/s | -44.2°C | 0.1% | 12.8hPa | 2.5V | 18:12:15 | 02:13:06 | 00:00:00 | |
| DM0DOS-11 | 2026-09-06 00:31:07 | 50.91540 | 8.26204 | 91° | 18km/h | 29868m | 5.9m/s | -44.1°C | 2.9% | 12.8hPa | 2.5V | 08:30:00 | 02:13:06 | 00:00:00 | |
| HSKMA3-T | 2026-09-06 00:31:02 | 50.91540 | 8.26196 | 91° | 20km/h | 29863m | 5.2m/s | -44.2°C | 0.2% | 12.8hPa | 2.6V | 18:12:15 | 02:13:05 | 00:00:00 | |
| DL1XH-west | 2026-09-06 00:31:01 | 50.91541 | 8.26188 | 95° | 20km/h | 29857m | 5.3m/s | -44.2°C | 0.1% | 12.8hPa | 2.6V | 18:12:15 | 02:13:04 | 00:00:00 | |
| AA1-15 | 2026-09-06 00:31:00 | 50.91541 | 8.26181 | 102° | 16km/h | 29852m | 6.5m/s | -44.2°C | 0.1% | 12.8hPa | 2.5V | 18:12:15 | 02:13:03 | 00:00:00 | |
| BUE01 | 2026-09-06 00:30:58 | 50.91546 | 8.26167 | 119° | 9km/h | 29834m | 5.0m/s | -44.2°C | 0.9% | 12.8hPa | 2.5V | 00:00:00 | 00:00:00 | 00:00:00 | |
| DM0DOS-11 | 2026-09-06 00:30:57 | 50.91545 | 8.26148 | 81° | 15km/h | 29812m | 5m/s | -44.3°C | 2.9% | 12.9hPa | 2.5V | 08:30:00 | 02:12:56 | 00:00:00 | |
| BIOWL1-15 | 2026-09-06 00:30:57 | 50.91546 | 8.26167 | 120° | 11km/h | 29834m | 5m/s | -44.2°C | 0.1% | 12.8hPa | 2.6V | 18:12:15 | 02:13:00 | 00:00:00 | |
| DL1LOL-11 | 2026-09-06 00:30:56 | 50.91547 | 8.26163 | 104° | 9km/h | 29829m | 6.2m/s | -44.2°C | 0.9% | 12.8hPa | 2.5V | 00:00:00 | 00:00:00 | 00:00:00 | |
| GOEST3-10 | 2026-09-06 00:30:55 | 50.91547 | 8.26159 | 84° | 13km/h | 29823m | 6.0m/s | -44.2°C | 2.9% | 12.8hPa | 2.5V | 00:00:00 | 02:12:58 | 00:00:00 | |
| DJ8HS-15 | 2026-09-06 00:30:54 | 50.91546 | 8.26154 | 79° | 11km/h | 29817m | 5.3m/s | -44.2°C | 2.9% | 12.8hPa | 2.5V | 00:00:00 | 02:12:57 | 00:00:00 | |
| DO9LL-15 | 2026-09-06 00:30:53 | 50.91545 | 8.26148 | 82° | 11km/h | 29812m | 4.9m/s | -44.2°C | 2.9% | 12.8hPa | 2.5V | 00:00:00 | 02:12:56 | 00:00:00 | |
| DL1XH-15 | 2026-09-06 00:30:52 | 50.91550 | 8.26115 | 89° | 16km/h | 29777m | 6.2m/s | -44.4°C | 3% | 12.9hPa | 2.5V | 08:30:00 | 02:12:50 | 00:00:00 | |
| DO2JMG | 2026-09-06 00:30:52 | 50.91545 | 8.26143 | 91° | 15km/h | 29806m | 6.4m/s | 0°C | 0% | 0hPa | 2.5V | 18:12:15 | 02:12:55 | 00:00:00 | |
| HSKMA3-T | 2026-09-06 00:30:51 | 50.91546 | 8.26137 | 106° | 13km/h | 29799m | 6m/s | -44.3°C | 0.2% | 12.9hPa | 2.6V | 18:12:15 | 02:12:54 | 00:00:00 | |
| BIOWL1-15 | 2026-09-06 00:30:51 | 50.91550 | 8.26115 | 90° | 16km/h | 29777m | 6.2m/s | -44.4°C | 0.2% | 12.9hPa | 2.5V | 18:12:15 | 02:12:50 | 00:00:00 | |
| DL1XH-west | 2026-09-06 00:30:50 | 50.91547 | 8.26132 | 113° | 15km/h | 29794m | 5m/s | -44.3°C | 0.2% | 12.9hPa | 2.6V | 18:12:15 | 02:12:53 | 00:00:00 | |
| AA1-15 | 2026-09-06 00:30:49 | 50.91548 | 8.26127 | 110° | 15km/h | 29789m | 4.9m/s | -44.4°C | 0.2% | 12.9hPa | 2.6V | 18:12:15 | 02:12:52 | 00:00:00 | |
| DD1CC8 | 2026-09-06 00:30:49 | 50.91549 | 8.26121 | 101° | 15km/h | 29784m | 6.2m/s | -44.4°C | 0.9% | 12.9hPa | 2.5V | 00:00:00 | 00:00:00 | 00:00:00 | |
| HTAHTA | 2026-09-06 00:30:47 | 50.91549 | 8.26109 | 79° | 15km/h | 29772m | 5.2m/s | -44.4°C | 0.9% | 12.9hPa | 2.5V | 00:00:00 | 00:00:00 | 00:00:00 | |
| WPPR-10 | 2026-09-06 00:30:45 | 50.91549 | 8.26104 | 74° | 11km/h | 29766m | 5.2m/s | -44.4°C | 0.9% | 12.9hPa | 2.5V | 00:00:00 | 00:00:00 | 00:00:00 | |
| DO2JMG | 2026-09-06 00:30:42 | 50.91548 | 8.26095 | 132° | 4km/h | 29748m | 5.5m/s | 0°C | 0% | 0hPa | 2.5V | 18:12:15 | 02:12:45 | 00:00:00 | |
| HSKMA3-T | 2026-09-06 00:30:41 | 50.91549 | 8.26094 | 125° | 4km/h | 29743m | 5.2m/s | -44.3°C | 0.2% | 13hPa | 2.5V | 18:12:15 | 02:12:44 | 00:00:00 | |
| AA1-15 | 2026-09-06 00:30:39 | 50.91549 | 8.26089 | 80° | 9km/h | 29730m | 6m/s | -44.3°C | 0.2% | 13hPa | 2.6V | 18:12:15 | 02:12:42 | 00:00:00 | |
| BIOWL1-15 | 2026-09-06 00:30:36 | 50.91549 | 8.26075 | 97° | 15km/h | 29713m | 6.8m/s | -44.3°C | 0.2% | 13.1hPa | 2.5V | 18:12:15 | 02:12:39 | 00:00:00 | |
| DL3AQ-11 | 2026-09-06 00:30:36 | 50.91549 | 8.26069 | 102° | 15km/h | 29707m | 5.5m/s | -44.3°C | 0.9% | 13.1hPa | 2.5V | 00:00:00 | 00:00:00 | 00:00:00 | |
| GOEST3-10 | 2026-09-06 00:30:35 | 50.91549 | 8.26069 | 103° | 15km/h | 29707m | 5.4m/s | -44.2°C | 3.0% | 13.0hPa | 2.5V | 00:00:00 | 02:12:38 | 00:00:00 | |
| DJ8HS-15 | 2026-09-06 00:30:34 | 50.91550 | 8.26063 | 100° | 11km/h | 29702m | 4.5m/s | -44.3°C | 3.0% | 13.0hPa | 2.6V | 00:00:00 | 02:12:37 | 00:00:00 | |
| DF7PN | 2026-09-06 00:30:33 | 50.91550 | 8.26058 | 88° | 13km/h | 29697m | 5.7m/s | -44.3°C | 0.9% | 13.1hPa | 2.6V | 00:00:00 | 00:00:00 | 00:00:00 | |
| DL1XH-15 | 2026-09-06 00:30:32 | 50.91542 | 8.26036 | 92° | 2km/h | 29662m | 5.2m/s | -44.3°C | 3% | 13.2hPa | 2.6V | 08:30:00 | 02:12:30 | 00:00:00 | |
| HSKMA3-T | 2026-09-06 00:30:30 | 50.91546 | 8.26042 | 48° | 13km/h | 29679m | 5.1m/s | -44.3°C | 0.2% | 13.1hPa | 2.5V | 18:12:15 | 02:12:33 | 00:00:00 | |
| DO2JMG | 2026-09-06 00:30:29 | 50.91544 | 8.26039 | 43° | 9km/h | 29674m | 5.8m/s | 0°C | 0% | 0hPa | 2.5V | 18:12:15 | 02:12:32 | 00:00:00 | |
| AA1-15 | 2026-09-06 00:30:28 | 50.91543 | 8.26037 | 42° | 4km/h | 29668m | 6.6m/s | -44.3°C | 0.2% | 13.2hPa | 2.6V | 18:12:15 | 02:12:31 | 00:00:00 | |
| BIOWL1-15 | 2026-09-06 00:30:25 | 50.91542 | 8.26019 | 76° | 18km/h | 29634m | 5.1m/s | -44.3°C | 0.2% | 13.2hPa | 2.6V | 18:12:15 | 02:12:25 | 00:00:00 | |
| GOEST3-10 | 2026-09-06 00:30:25 | 50.91543 | 8.26034 | 101° | 15km/h | 29652m | 5.3m/s | -44.3°C | 3.0% | 13.1hPa | 2.6V | 00:00:00 | 02:12:28 | 00:00:00 | |
| DF3TZ-5 | 2026-09-06 00:30:24 | 50.91543 | 8.26026 | 79° | 15km/h | 29640m | 5.9m/s | -44.3°C | 0.9% | 13.2hPa | 2.6V | 00:00:00 | 00:00:00 | 00:00:00 | |
| DL3AQ-11 | 2026-09-06 00:30:23 | 50.91542 | 8.26019 | 75° | 18km/h | 29634m | 5.1m/s | -44.3°C | 0.9% | 13.2hPa | 2.6V | 00:00:00 | 00:00:00 | 00:00:00 | |
| DL1XH-15 | 2026-09-06 00:30:22 | 50.91537 | 8.25995 | 26° | 7km/h | 29607m | 5.4m/s | -44.2°C | 2.9% | 13.3hPa | 2.6V | 08:30:00 | 02:12:20 | 00:00:00 | |
| HSKMA3-T | 2026-09-06 00:30:20 | 50.91540 | 8.26006 | 76° | 16km/h | 29624m | 6.2m/s | -44.3°C | 0.2% | 13.2hPa | 2.5V | 18:12:15 | 02:12:23 | 00:00:00 | |
| AA1-15 | 2026-09-06 00:30:18 | 50.91538 | 8.25997 | 60° | 7km/h | 29612m | 5.5m/s | -44.2°C | 0.2% | 13.3hPa | 2.5V | 18:12:15 | 02:12:21 | 00:00:00 | |
| DL1XH-west | 2026-09-06 00:30:17 | 50.91537 | 8.25995 | 26° | 7km/h | 29607m | 5.4m/s | -44.2°C | 0.1% | 13.3hPa | 2.6V | 18:12:15 | 02:12:20 | 00:00:00 | |
| GOEST3-10 | 2026-09-06 00:30:16 | 50.91532 | 8.25993 | 10° | 13km/h | 29595m | 5.8m/s | -44.1°C | 2.9% | 13.2hPa | 2.5V | 00:00:00 | 02:12:18 | 00:00:00 | |
| DO3DL | 2026-09-06 00:30:15 | 50.91532 | 8.25993 | 10° | 15km/h | 29595m | 5.9m/s | -44.2°C | 0.8% | 13.3hPa | 2.5V | 00:00:00 | 00:00:00 | 00:00:00 | |
| DJ8HS-15 | 2026-09-06 00:30:14 | 50.91528 | 8.25992 | 11° | 13km/h | 29589m | 5.0m/s | -44.1°C | 2.9% | 13.3hPa | 2.5V | 00:00:00 | 02:12:17 | 00:00:00 | |
| DL4BBY-15 | 2026-09-06 00:30:13 | 50.91522 | 8.25990 | 28° | 11km/h | 29578m | 6.2m/s | -46.6°C | 0% | 0hPa | 2.5V | 00:00:00 | 00:00:00 | 00:00:00 | |
| DL1XH-15 | 2026-09-06 00:30:12 | 50.91513 | 8.25962 | 63° | 26km/h | 29549m | 5.4m/s | -44.1°C | 2.9% | 13.4hPa | 2.5V | 08:30:00 | 02:12:10 | 00:00:00 | |
| BIOWL1-15 | 2026-09-06 00:30:11 | 50.91514 | 8.25962 | 63° | 26km/h | 29549m | 5.4m/s | -44.1°C | 0.1% | 13.4hPa | 2.5V | 18:12:15 | 02:12:10 | 00:00:00 | |
| HSKMA3-T | 2026-09-06 00:30:09 | 50.91518 | 8.25978 | 70° | 18km/h | 29561m | 6.3m/s | -44.1°C | 0.1% | 13.4hPa | 2.5V | 18:12:15 | 02:12:12 | 00:00:00 | |
| AA1-15 | 2026-09-06 00:30:08 | 50.91516 | 8.25970 | 66° | 22km/h | 29555m | 6.7m/s | -44.1°C | 0.1% | 13.4hPa | 2.5V | 18:12:15 | 02:12:11 | 00:00:00 | |
| DL1XH-west | 2026-09-06 00:30:06 | 50.91511 | 8.25953 | 62° | 24km/h | 29544m | 4.3m/s | -44.1°C | 0.1% | 13.4hPa | 2.6V | 18:12:15 | 02:12:09 | 00:00:00 | |
| AA1-15 | 2026-09-06 00:29:58 | 50.91500 | 8.25939 | 34° | 9km/h | 29501m | 5.3m/s | -44.1°C | 0.1% | 13.5hPa | 2.5V | 18:12:15 | 02:12:01 | 00:00:00 | |
| DK9SH | 2026-09-06 00:29:57 | 50.91500 | 8.25939 | 35° | 9km/h | 29501m | 5.3m/s | -44.1°C | 0.8% | 13.5hPa | 2.6V | 00:00:00 | 00:00:00 | 00:00:00 | |
| DL1XH-15 | 2026-09-06 00:29:56 | 50.91497 | 8.25924 | 91° | 18km/h | 29483m | 5.7m/s | -44.1°C | 2.9% | 13.5hPa | 2.6V | 08:30:00 | 02:11:58 | 00:00:00 | |
| DL1XH-west | 2026-09-06 00:29:56 | 50.91497 | 8.25931 | 79° | 16km/h | 29489m | 5.9m/s | -44.1°C | 0.2% | 13.5hPa | 2.6V | 18:12:15 | 02:11:59 | 00:00:00 | |
| DO2JMG | 2026-09-06 00:29:53 | 50.91499 | 8.25910 | 109° | 15km/h | 29473m | 4.6m/s | 0°C | 0% | 0hPa | 2.5V | 18:12:15 | 02:11:56 | 00:00:00 | |
| AA1-15 | 2026-09-06 00:29:48 | 50.91498 | 8.25901 | 342° | 4km/h | 29446m | 5m/s | -44.1°C | 0.2% | 13.6hPa | 2.6V | 18:12:15 | 02:11:51 | 00:00:00 | |
| DL1XH-west | 2026-09-06 00:29:46 | 50.91499 | 8.25901 | 166° | 5km/h | 29435m | 6m/s | -44.2°C | 0.2% | 13.6hPa | 2.5V | 18:12:15 | 02:11:49 | 00:00:00 | |
| DL1XH1-15 | 2026-09-06 00:29:43 | 50.91505 | 8.25898 | 156° | 7km/h | 29419m | 4.8m/s | -44.3°C | 2.9% | 13.7hPa | 2.6V | 08:30:00 | 02:11:46 | 00:00:00 | |
| AA1-15 | 2026-09-06 00:29:38 | 50.91500 | 8.25891 | 43° | 13km/h | 29390m | 6.3m/s | -44.4°C | 0.2% | 13.7hPa | 2.6V | 18:12:15 | 02:11:41 | 00:00:00 | |
| BIOWL1-15 | 2026-09-06 00:29:37 | 50.91498 | 8.25887 | 56° | 15km/h | 29384m | 5.7m/s | -44.4°C | 0.2% | 13.7hPa | 2.5V | 18:12:15 | 02:11:40 | 00:00:00 | |
| DM0DOS-11 | 2026-09-06 00:29:36 | 50.91491 | 8.25868 | 66° | 9km/h | 29360m | 5.2m/s | -44.3°C | 3% | 13.8hPa | 2.6V | 08:30:00 | 02:11:36 | 00:00:00 | |
| DL1XH-west | 2026-09-06 00:29:36 | 50.91496 | 8.25882 | 61° | 15km/h | 29378m | 5m/s | -44.4°C | 0.2% | 13.7hPa | 2.5V | 18:12:15 | 02:11:39 | 00:00:00 | |
| DD8BA-10 | 2026-09-06 00:29:36 | 50.91496 | 8.25882 | 62° | 9km/h | 29379m | 5.0m/s | -44.3°C | 3.0% | 13.7hPa | 2.5V | 00:00:00 | 00:00:00 | 00:00:00 | |
| DL1XH-15 | 2026-09-06 00:29:35 | 50.91492 | 8.25860 | 149° | 7km/h | 29343m | 5.1m/s | -44.2°C | 3% | 13.8hPa | 2.5V | 08:30:00 | 02:11:33 | 00:00:00 | |
| AA1-15 | 2026-09-06 00:29:27 | 50.91494 | 8.25858 | 16° | 7km/h | 29326m | 6.4m/s | -44.1°C | 0.2% | 13.8hPa | 2.5V | 18:12:15 | 02:11:30 | 00:00:00 | |
| BIOWL1-15 | 2026-09-06 00:29:26 | 50.91479 | 8.25844 | 54° | 22km/h | 29305m | 5.9m/s | -44°C | 0.2% | 13.9hPa | 2.6V | 18:12:15 | 02:11:26 | 00:00:00 | |
| HSKMA3-T | 2026-09-06 00:29:26 | 50.91491 | 8.25857 | 17° | 13km/h | 29321m | 5.4m/s | -44.1°C | 0.2% | 13.9hPa | 2.5V | 18:12:15 | 02:11:29 | 00:00:00 | |
| DD8BA-10 | 2026-09-06 00:29:26 | 50.91491 | 8.25856 | 18° | 20km/h | 29321m | 5.4m/s | -44.0°C | 3.0% | 13.8hPa | 2.5V | 00:00:00 | 00:00:00 | 00:00:00 | |
| DM0DOS-11 | 2026-09-06 00:29:25 | 50.91479 | 8.25844 | 53° | 22km/h | 29305m | 5.9m/s | -44°C | 3% | 13.9hPa | 2.6V | 08:30:00 | 02:11:26 | 00:00:00 | |
| DL1XH-west | 2026-09-06 00:29:25 | 50.91487 | 8.25854 | 25° | 18km/h | 29316m | 4.5m/s | -44.1°C | 0.2% | 13.9hPa | 2.5V | 18:12:15 | 02:11:28 | 00:00:00 | |
| AA1-15 | 2026-09-06 00:29:17 | 50.91477 | 8.25792 | 77° | 18km/h | 29271m | 5.6m/s | -43.9°C | 0.2% | 14hPa | 2.5V | 18:12:15 | 02:11:20 | 00:00:00 | |
| HSKMA3-T | 2026-09-06 00:29:16 | 50.91475 | 8.25786 | 67° | 15km/h | 29265m | 5m/s | -43.8°C | 0.1% | 14hPa | 2.5V | 18:12:15 | 02:11:19 | 00:00:00 | |
| DD8BA-10 | 2026-09-06 00:29:16 | 50.91475 | 8.25786 | 67° | 16km/h | 29266m | 4.9m/s | -43.8°C | 2.9% | 13.9hPa | 2.5V | 00:00:00 | 00:00:00 | 00:00:00 | |
| DL1XH-15 | 2026-09-06 00:29:15 | 50.91466 | 8.25757 | 53° | 16km/h | 29232m | 5.5m/s | -43.7°C | 2.9% | 14hPa | 2.5V | 08:30:00 | 02:11:13 | 00:00:00 | |
| DM0DOS-11 | 2026-09-06 00:29:15 | 50.91471 | 8.25772 | 65° | 13km/h | 29248m | 6.1m/s | -43.8°C | 2.9% | 14hPa | 2.6V | 08:30:00 | 02:11:16 | 00:00:00 | |
| DL1XH-west | 2026-09-06 00:29:14 | 50.91472 | 8.25777 | 60° | 13km/h | 29254m | 6.6m/s | -43.8°C | 0.1% | 14hPa | 2.6V | 18:12:15 | 02:11:17 | 00:00:00 | |
| BIOWL1-15 | 2026-09-06 00:29:12 | 50.91466 | 8.25757 | 54° | 16km/h | 29232m | 5.5m/s | -43.7°C | 0.1% | 14hPa | 2.5V | 18:12:15 | 02:11:13 | 00:00:00 | |
| AA1-15 | 2026-09-06 00:29:06 | 50.91452 | 8.25732 | 58° | 24km/h | 29209m | 5.9m/s | -43.7°C | 0.1% | 14.1hPa | 2.5V | 18:12:15 | 02:11:09 | 00:00:00 | |
| HSKMA3-T | 2026-09-06 00:29:05 | 50.91449 | 8.25723 | 72° | 22km/h | 29203m | 6.5m/s | -43.7°C | 0.1% | 14.1hPa | 2.5V | 18:12:15 | 02:11:08 | 00:00:00 | |
| DL1XH-west | 2026-09-06 00:29:04 | 50.91448 | 8.25715 | 86° | 22km/h | 29197m | 5.3m/s | -43.8°C | 0.1% | 14.1hPa | 2.6V | 18:12:15 | 02:11:07 | 00:00:00 | |
| BIOWL1-15 | 2026-09-06 00:29:00 | 50.91447 | 8.25688 | 56° | 13km/h | 29175m | 5.7m/s | -43.7°C | 0.1% | 14.2hPa | 2.5V | 18:12:15 | 02:11:03 | 00:00:00 | |
| DF8AY | 2026-09-06 00:28:59 | 50.91445 | 8.25684 | 40° | 15km/h | 29170m | 5.3m/s | 0°C | 0% | 0hPa | 2.6V | 18:12:15 | 02:11:02 | 00:00:00 | |
| DL1XH-15 | 2026-09-06 00:28:57 | 50.91431 | 8.25656 | 66° | 20km/h | 29142m | 5.3m/s | -43.7°C | 2.8% | 14.2hPa | 2.6V | 08:30:00 | 02:10:57 | 00:00:00 | |
| AA1-15 | 2026-09-06 00:28:56 | 50.91436 | 8.25670 | 55° | 18km/h | 29153m | 6.2m/s | -43.8°C | 0.1% | 14.2hPa | 2.5V | 18:12:15 | 02:10:59 | 00:00:00 | |
| DM0DOS-11 | 2026-09-06 00:28:56 | 50.91429 | 8.25649 | 65° | 20km/h | 29136m | 6.3m/s | -43.7°C | 2.8% | 14.2hPa | 2.6V | 08:30:00 | 02:10:56 | 00:00:00 | |
| HSKMA3-T | 2026-09-06 00:28:54 | 50.91431 | 8.25656 | 67° | 20km/h | 29142m | 5.3m/s | -43.7°C | 0.1% | 14.2hPa | 2.6V | 18:12:15 | 02:10:57 | 00:00:00 | |
| DL1XH-west | 2026-09-06 00:28:53 | 50.91429 | 8.25649 | 66° | 20km/h | 29136m | 6.3m/s | -43.7°C | 0.1% | 14.2hPa | 2.6V | 18:12:15 | 02:10:56 | 00:00:00 | |
| BIOWL1-15 | 2026-09-06 00:28:50 | 50.91427 | 8.25624 | 131° | 13km/h | 29107m | 5.5m/s | -43.9°C | 0.2% | 14.3hPa | 2.6V | 18:12:15 | 02:10:51 | 00:00:00 | |
| GOEST3-10 | 2026-09-06 00:28:50 | 50.91425 | 8.25632 | 90° | 11km/h | 29120m | 5.5m/s | -43.7°C | 2.8% | 14.2hPa | 2.5V | 00:00:00 | 00:00:00 | 08:30:00 | |
| DJ2DS-15 | 2026-09-06 00:28:48 | 50.91427 | 8.25623 | 131° | 11km/h | 29108m | 5.4m/s | -43.8°C | 2.9% | 14.3hPa | 2.6V | 00:00:00 | 02:10:51 | 00:00:00 | |
| DM0DOS-11 | 2026-09-06 00:28:47 | 50.91428 | 8.25614 | 356° | 13km/h | 29081m | 5.3m/s | -44°C | 2.9% | 14.4hPa | 2.6V | 08:30:00 | 02:10:46 | 00:00:00 | |
| DB0NH | 2026-09-06 00:28:47 | 50.91429 | 8.25620 | 135° | 9km/h | 29103m | 4.3m/s | -43.9°C | 2.9% | 14.3hPa | 2.5V | 00:00:00 | 02:10:50 | 08:30:00 | |
| DL1XH-15 | 2026-09-06 00:28:46 | 50.91430 | 8.25614 | 9° | 7km/h | 29087m | 6.2m/s | -44°C | 2.8% | 14.3hPa | 2.6V | 08:30:00 | 02:10:47 | 00:00:00 | |
| AA1-15 | 2026-09-06 00:28:46 | 50.91431 | 8.25617 | 127° | 7km/h | 29098m | 4.4m/s | -44°C | 0.1% | 14.3hPa | 2.5V | 18:12:15 | 02:10:49 | 00:00:00 | |
| DO1YAY-16 | 2026-09-06 00:28:46 | 50.91431 | 8.25615 | 87° | 4km/h | 29093m | 6.1m/s | -44.0°C | 0.8% | 14.3hPa | 2.6V | 00:00:00 | 00:00:00 | 00:00:00 | |
| AU51GT2 | 2026-09-06 00:28:45 | 50.91431 | 8.25615 | 87° | 4km/h | 29093m | 6.1m/s | -44.0°C | 0.8% | 14.3hPa | 2.6V | 00:00:00 | 00:00:00 | 00:00:00 | |
| HSKMA3-T | 2026-09-06 00:28:43 | 50.91428 | 8.25614 | 356° | 13km/h | 29081m | 5.3m/s | -44°C | 0.1% | 14.4hPa | 2.6V | 18:12:15 | 02:10:46 | 00:00:00 | |
| DL1XH-west | 2026-09-06 00:28:42 | 50.91425 | 8.25614 | 359° | 15km/h | 29076m | 4.3m/s | -44°C | 0.1% | 14.4hPa | 2.5V | 18:12:15 | 02:10:45 | 00:00:00 | |
| BIOWL1-15 | 2026-09-06 00:28:39 | 50.91418 | 8.25599 | 102° | 9km/h | 29043m | 6.1m/s | -44.2°C | 0.1% | 14.4hPa | 2.5V | 18:12:15 | 02:10:39 | 00:00:00 | |
| DJ3KS | 2026-09-06 00:28:38 | 50.91417 | 8.25606 | 96° | 9km/h | 29055m | 5.2m/s | -44.1°C | 0.9% | 14.4hPa | 2.6V | 00:00:00 | 00:00:00 | 00:00:00 | |
| DL1XH-15 | 2026-09-06 00:28:37 | 50.91418 | 8.25591 | 80° | 9km/h | 29032m | 4.9m/s | -44.2°C | 2.9% | 14.5hPa | 2.6V | 08:30:00 | 02:10:37 | 00:00:00 | |
| DM0DOS-11 | 2026-09-06 00:28:36 | 50.91417 | 8.25587 | 74° | 13km/h | 29027m | 5m/s | -44.3°C | 2.9% | 14.5hPa | 2.6V | 08:30:00 | 02:10:36 | 00:00:00 | |
| AA1-15 | 2026-09-06 00:28:35 | 50.91418 | 8.25595 | 93° | 9km/h | 29037m | 5.5m/s | -44.2°C | 0.1% | 14.5hPa | 2.5V | 18:12:15 | 02:10:38 | 00:00:00 | |
| HSKMA3-T | 2026-09-06 00:28:33 | 50.91417 | 8.25587 | 74° | 13km/h | 29027m | 5m/s | -44.3°C | 0.1% | 14.5hPa | 2.6V | 18:12:15 | 02:10:36 | 00:00:00 | |
| DL1XH-west | 2026-09-06 00:28:32 | 50.91416 | 8.25582 | 75° | 15km/h | 29021m | 6.4m/s | -44.3°C | 0.1% | 14.5hPa | 2.5V | 18:12:15 | 02:10:35 | 00:00:00 | |
| DO3MHA-11 | 2026-09-06 00:28:31 | 50.91415 | 8.25575 | 78° | 11km/h | 29015m | 6.4m/s | -44.3°C | 2.9% | 14.5hPa | 2.6V | 00:00:00 | 02:10:34 | 00:00:00 | |
| SONCRA | 2026-09-06 00:28:30 | 50.91413 | 8.25561 | 67° | 16km/h | 29004m | 4.6m/s | -44.4°C | 0.8% | 14.5hPa | 2.6V | 00:00:00 | 00:00:00 | 00:00:00 | |
| DF7PN | 2026-09-06 00:28:29 | 50.91411 | 8.25556 | 55° | 13km/h | 28998m | 6.1m/s | -44.4°C | 0.9% | 14.5hPa | 2.6V | 00:00:00 | 00:00:00 | 00:00:00 | |
| DJ2DS-15 | 2026-09-06 00:28:28 | 50.91411 | 8.25556 | 56° | 5km/h | 28998m | 6.0m/s | -44.4°C | 2.9% | 14.5hPa | 2.6V | 00:00:00 | 02:10:31 | 00:00:00 | |
| DL1XH-15 | 2026-09-06 00:28:26 | 50.91405 | 8.25550 | 84° | 2km/h | 28976m | 6.2m/s | -44.5°C | 3% | 14.6hPa | 2.6V | 08:30:00 | 02:10:27 | 00:00:00 | |
| AA1-15 | 2026-09-06 00:28:25 | 50.91405 | 8.25550 | 1° | 4km/h | 28982m | 5.1m/s | -44.5°C | 0.2% | 14.6hPa | 2.5V | 18:12:15 | 02:10:28 | 00:00:00 | |
| DL1XH1-15 | 2026-09-06 00:28:23 | 50.91405 | 8.25549 | 142° | 5km/h | 28970m | 5.7m/s | -44.6°C | 2.9% | 14.6hPa | 2.6V | 08:30:00 | 02:10:26 | 00:00:00 | |
| HSKMA3-T | 2026-09-06 00:28:22 | 50.91407 | 8.25548 | 149° | 7km/h | 28965m | 4.9m/s | -44.6°C | 0.2% | 14.6hPa | 2.5V | 18:12:15 | 02:10:25 | 00:00:00 | |
| DL1XH-west | 2026-09-06 00:28:21 | 50.91409 | 8.25546 | 152° | 7km/h | 28960m | 4.6m/s | -44.6°C | 0.2% | 14.6hPa | 2.5V | 18:12:15 | 02:10:24 | 00:00:00 | |
| DO3MHA-11 | 2026-09-06 00:28:21 | 50.91408 | 8.25546 | 152° | 5km/h | 28960m | 4.6m/s | -44.6°C | 3.0% | 14.6hPa | 2.5V | 00:00:00 | 02:10:24 | 00:00:00 | |
| GOEST3-10 | 2026-09-06 00:28:20 | 50.91410 | 8.25545 | 155° | 4km/h | 28955m | 5.6m/s | -44.6°C | 3.0% | 14.6hPa | 2.5V | 00:00:00 | 00:00:00 | 00:00:00 | |
| DM0DOS-11 | 2026-09-06 00:28:17 | 50.91407 | 8.25535 | 73° | 7km/h | 28916m | 5m/s | -44.8°C | 3% | 14.7hPa | 2.6V | 08:30:00 | 02:10:16 | 00:00:00 | |
| DL1XH-15 | 2026-09-06 00:28:16 | 50.91408 | 8.25538 | 70° | 9km/h | 28921m | 5.2m/s | -44.8°C | 3% | 14.7hPa | 2.6V | 08:30:00 | 02:10:17 | 00:00:00 | |
| AA1-15 | 2026-09-06 00:28:14 | 50.91408 | 8.25538 | 70° | 9km/h | 28921m | 5.2m/s | -44.8°C | 0.2% | 14.7hPa | 2.6V | 18:12:15 | 02:10:17 | 00:00:00 | |
| HSKMA3-T | 2026-09-06 00:28:12 | 50.91407 | 8.25533 | 79° | 4km/h | 28910m | 6.2m/s | -44.8°C | 0.2% | 14.8hPa | 2.5V | 18:12:15 | 02:10:15 | 00:00:00 | |
| DL1XH-west | 2026-09-06 00:28:11 | 50.91407 | 8.25532 | 163° | 0km/h | 28904m | 5.4m/s | -44.8°C | 0.2% | 14.8hPa | 2.5V | 18:12:15 | 02:10:14 | 00:00:00 | |
| DO3MHA-11 | 2026-09-06 00:28:11 | 50.91407 | 8.25532 | 164° | 11km/h | 28905m | 5.3m/s | -44.7°C | 3.0% | 14.7hPa | 2.5V | 00:00:00 | 02:10:14 | 00:00:00 | |
| DL3OBA | 2026-09-06 00:28:10 | 50.91407 | 8.25532 | 219° | 4km/h | 28900m | 4.5m/s | -44.8°C | 0.9% | 14.8hPa | 2.6V | 00:00:00 | 00:00:00 | 00:00:00 | |
| HARRO8 | 2026-09-06 00:28:09 | 50.91411 | 8.25534 | 189° | 9km/h | 28890m | 5.7m/s | -44.7°C | 0.9% | 14.8hPa | 2.6V | 00:00:00 | 00:00:00 | 00:00:00 | |
| DJ2DS-15 | 2026-09-06 00:28:08 | 50.91411 | 8.25534 | 190° | 11km/h | 28890m | 5.7m/s | -44.7°C | 3.0% | 14.7hPa | 2.6V | 00:00:00 | 02:10:11 | 00:00:00 | |
| DM0DOS-11 | 2026-09-06 00:28:07 | 50.91430 | 8.25532 | 187° | 13km/h | 28863m | 6.3m/s | -44.7°C | 2.9% | 14.8hPa | 2.6V | 08:30:00 | 02:10:06 | 00:00:00 | |
| NBG1-10 | 2026-09-06 00:28:07 | 50.91414 | 8.25534 | 177° | 11km/h | 28884m | 6.3m/s | -44.7°C | 3.0% | 14.8hPa | 2.5V | 00:00:00 | 02:10:10 | 00:00:00 | |
| DD8BA-10 | 2026-09-06 00:28:06 | 50.91418 | 8.25534 | 171° | 9km/h | 28878m | 5.2m/s | -44.7°C | 3.0% | 14.8hPa | 2.5V | 00:00:00 | 00:00:00 | 00:00:00 | |
| DL1XH-15 | 2026-09-06 00:28:05 | 50.91436 | 8.25539 | 249° | 7km/h | 28846m | 5.1m/s | -44.7°C | 2.9% | 14.9hPa | 2.5V | 08:30:00 | 02:10:03 | 00:00:00 | |
| AA1-15 | 2026-09-06 00:28:04 | 50.91426 | 8.25532 | 176° | 16km/h | 28869m | 4.7m/s | -44.8°C | 0.2% | 14.8hPa | 2.6V | 18:12:15 | 02:10:07 | 00:00:00 | |
| HSKMA3-T | 2026-09-06 00:28:02 | 50.91433 | 8.25533 | 211° | 11km/h | 28857m | 5.9m/s | -44.7°C | 0.2% | 14.8hPa | 2.5V | 18:12:15 | 02:10:05 | 00:00:00 | |
| DL1XH-west | 2026-09-06 00:28:01 | 50.91435 | 8.25536 | 238° | 9km/h | 28851m | 5.7m/s | -44.7°C | 0.2% | 14.9hPa | 2.5V | 18:12:15 | 02:10:04 | 00:00:00 | |
| SONCRA | 2026-09-06 00:27:59 | 50.91437 | 8.25541 | 147° | 2km/h | 28835m | 6.3m/s | -44.7°C | 0.8% | 14.9hPa | 2.6V | 00:00:00 | 00:00:00 | 00:00:00 | |
| DF7PN | 2026-09-06 00:27:58 | 50.91438 | 8.25539 | 117° | 7km/h | 28830m | 5.2m/s | -44.8°C | 0.9% | 14.9hPa | 2.6V | 00:00:00 | 00:00:00 | 00:00:00 | |
| DM0DOS-11 | 2026-09-06 00:27:56 | 50.91441 | 8.25528 | 154° | 4km/h | 28808m | 5.3m/s | -45°C | 3% | 15hPa | 2.6V | 08:30:00 | 02:09:56 | 00:00:00 | |
| DL3AQ-11 | 2026-09-06 00:27:56 | 50.91440 | 8.25533 | 111° | 7km/h | 28819m | 5.6m/s | -44.8°C | 0.8% | 14.9hPa | 2.5V | 00:00:00 | 00:00:00 | 00:00:00 | |
| DL1XH-15 | 2026-09-06 00:27:55 | 50.91448 | 8.25529 | 180° | 15km/h | 28792m | 6.5m/s | -45.2°C | 3% | 15hPa | 2.5V | 08:30:00 | 02:09:53 | 00:00:00 | |
| AA1-15 | 2026-09-06 00:27:53 | 50.91441 | 8.25528 | 155° | 4km/h | 28808m | 5.4m/s | -45°C | 0.2% | 15hPa | 2.6V | 18:12:15 | 02:09:56 | 00:00:00 | |
| BIOWL1-15 | 2026-09-06 00:27:52 | 50.91443 | 8.25528 | 181° | 7km/h | 28803m | 4.8m/s | -45.1°C | 0.2% | 15hPa | 2.5V | 18:12:15 | 02:09:55 | 00:00:00 | |
| DL1XH-west | 2026-09-06 00:27:50 | 50.91448 | 8.25529 | 181° | 15km/h | 28792m | 6.5m/s | -45.2°C | 0.2% | 15hPa | 2.5V | 18:12:15 | 02:09:53 | 00:00:00 | |
| DF3TZ-5 | 2026-09-06 00:27:49 | 50.91461 | 8.25528 | 181° | 15km/h | 28775m | 6.3m/s | -45.3°C | 0.9% | 15.1hPa | 2.5V | 00:00:00 | 00:00:00 | 00:00:00 | |
| DL1ZP-14 | 2026-09-06 00:27:46 | 50.91465 | 8.25529 | 185° | 11km/h | 28769m | 5.7m/s | -45.3°C | 0.9% | 15.1hPa | 2.5V | 00:00:00 | 00:00:00 | 00:00:00 | |
| DD8BA-10 | 2026-09-06 00:27:45 | 50.91467 | 8.25529 | 178° | 13km/h | 28764m | 4.6m/s | -45.2°C | 3.0% | 15.0hPa | 2.6V | 00:00:00 | 00:00:00 | 00:00:00 | |
| DL1XH-15 | 2026-09-06 00:27:44 | 50.91484 | 8.25511 | 148° | 16km/h | 28731m | 5.4m/s | -45.2°C | 3.1% | 15.2hPa | 2.6V | 08:30:00 | 02:09:42 | 00:00:00 | |
| AA1-15 | 2026-09-06 00:27:42 | 50.91474 | 8.25523 | 138° | 15km/h | 28747m | 6m/s | -45.2°C | 0.3% | 15.1hPa | 2.5V | 18:12:15 | 02:09:45 | 00:00:00 | |
| DL1XH-west | 2026-09-06 00:27:39 | 50.91484 | 8.25511 | 149° | 16km/h | 28732m | 5.4m/s | -45.2°C | 0.3% | 15.2hPa | 2.6V | 18:12:15 | 02:09:42 | 00:00:00 | |
| DD1CC9-15 | 2026-09-06 00:27:38 | 50.91484 | 8.25511 | 150° | 16km/h | 28732m | 5.4m/s | -45.2°C | 0.9% | 15.2hPa | 2.6V | 00:00:00 | 00:00:00 | 00:00:00 | |
| HARRO8 | 2026-09-06 00:27:37 | 50.91490 | 8.25507 | 166° | 9km/h | 28720m | 5.1m/s | -45.3°C | 0.9% | 15.2hPa | 2.6V | 00:00:00 | 00:00:00 | 00:00:00 | |
| DM0DOS-11 | 2026-09-06 00:27:36 | 50.91502 | 8.25503 | 167° | 18km/h | 28700m | 5.7m/s | -45.4°C | 3.1% | 15.2hPa | 2.6V | 08:30:00 | 02:09:36 | 00:00:00 | |
| DD8BA-10 | 2026-09-06 00:27:35 | 50.91495 | 8.25505 | 170° | 15km/h | 28711m | 4.9m/s | -45.2°C | 3.1% | 15.1hPa | 2.6V | 00:00:00 | 00:00:00 | 00:00:00 | |
| DL1XH-15 | 2026-09-06 00:27:34 | 50.91521 | 8.25497 | 171° | 15km/h | 28679m | 6.3m/s | -45.3°C | 3% | 15.3hPa | 2.6V | 08:30:00 | 02:09:32 | 00:00:00 | |
| AA1-15 | 2026-09-06 00:27:31 | 50.91512 | 8.25499 | 168° | 22km/h | 28690m | 4.6m/s | -45.3°C | 0.2% | 15.2hPa | 2.5V | 18:12:15 | 02:09:34 | 00:00:00 | |
| DL1XH-west | 2026-09-06 00:27:28 | 50.91524 | 8.25496 | 170° | 9km/h | 28673m | 5.6m/s | -45.4°C | 0.2% | 15.3hPa | 2.6V | 18:12:15 | 02:09:31 | 00:00:00 | |
| SONCRA | 2026-09-06 00:27:28 | 50.91526 | 8.25495 | 143° | 5km/h | 28668m | 4.6m/s | -45.4°C | 0.9% | 15.3hPa | 2.6V | 00:00:00 | 00:00:00 | 00:00:00 | |
| DM0DOS-11 | 2026-09-06 00:27:27 | 50.91533 | 8.25477 | 122° | 18km/h | 28646m | 4.4m/s | -45.5°C | 3.1% | 15.3hPa | 2.6V | 08:30:00 | 02:09:26 | 00:00:00 | |
| HEMX73-11 | 2026-09-06 00:27:26 | 50.91526 | 8.25495 | 144° | 7km/h | 28669m | 4.6m/s | -45.4°C | 0% | 0hPa | 2.5V | 00:00:00 | 00:00:00 | 00:00:00 | |
| DD8BA-10 | 2026-09-06 00:27:25 | 50.91529 | 8.25488 | 117° | 16km/h | 28658m | 6.3m/s | -45.4°C | 3.1% | 15.3hPa | 2.5V | 00:00:00 | 00:00:00 | 08:30:00 | |
| DL1XH-15 | 2026-09-06 00:27:24 | 50.91544 | 8.25463 | 169° | 13km/h | 28625m | 5.4m/s | -45.5°C | 3.1% | 15.4hPa | 2.6V | 08:30:00 | 02:09:22 | 00:00:00 | |
| AA1-15 | 2026-09-06 00:27:21 | 50.91538 | 8.25467 | 138° | 15km/h | 28636m | 5.7m/s | -45.5°C | 0.3% | 15.4hPa | 2.5V | 18:12:15 | 02:09:24 | 00:00:00 | |
| HSKMA3-T | 2026-09-06 00:27:20 | 50.91541 | 8.25464 | 153° | 11km/h | 28631m | 5.7m/s | -45.5°C | 0.3% | 15.4hPa | 2.5V | 18:12:15 | 02:09:23 | 00:00:00 | |
| BIOWL1-15 | 2026-09-06 00:27:18 | 50.91572 | 8.25454 | 167° | 18km/h | 28593m | 6.3m/s | -45.6°C | 0.3% | 15.5hPa | 2.6V | 18:12:15 | 02:09:16 | 00:00:00 | |
| DL1XH-west | 2026-09-06 00:27:18 | 50.91551 | 8.25461 | 172° | 18km/h | 28614m | 6.4m/s | -45.6°C | 0.3% | 15.4hPa | 2.5V | 18:12:15 | 02:09:20 | 00:00:00 | |
| DB0NH | 2026-09-06 00:27:18 | 50.91551 | 8.25461 | 172° | 16km/h | 28614m | 6.3m/s | -45.5°C | 3.1% | 15.4hPa | 2.5V | 00:00:00 | 02:09:20 | 00:00:00 | |
| DM0DOS-11 | 2026-09-06 00:27:16 | 50.91572 | 8.25454 | 166° | 18km/h | 28593m | 6.3m/s | -45.6°C | 3.1% | 15.5hPa | 2.6V | 08:30:00 | 02:09:16 | 00:00:00 | |
| AA1-15 | 2026-09-06 00:27:10 | 50.91582 | 8.25448 | 146° | 13km/h | 28576m | 5.9m/s | -45.6°C | 0.2% | 15.5hPa | 2.5V | 18:12:15 | 02:09:13 | 00:00:00 | |
| BIOWL1-15 | 2026-09-06 00:27:07 | 50.91594 | 8.25426 | 122° | 11km/h | 28547m | 5.7m/s | -45.6°C | 0.2% | 15.6hPa | 2.5V | 18:12:15 | 02:09:08 | 00:00:00 | |
| DL1XH-west | 2026-09-06 00:27:07 | 50.91590 | 8.25435 | 127° | 15km/h | 28559m | 4.8m/s | -45.6°C | 0.2% | 15.6hPa | 2.5V | 18:12:15 | 02:09:10 | 00:00:00 | |
| DL1XH-15 | 2026-09-06 00:27:07 | 50.91601 | 8.25415 | 147° | 18km/h | 28531m | 6.2m/s | -45.6°C | 3% | 15.6hPa | 2.5V | 08:30:00 | 02:09:05 | 00:00:00 | |
| AA1-15 | 2026-09-06 00:26:59 | 50.91616 | 8.25404 | 160° | 22km/h | 28516m | 5.1m/s | -45.6°C | 0.2% | 15.6hPa | 2.6V | 18:12:15 | 02:09:02 | 00:00:00 | |
| DL1XH-west | 2026-09-06 00:26:57 | 50.91625 | 8.25400 | 174° | 15km/h | 28504m | 5.8m/s | -45.7°C | 0.2% | 15.7hPa | 2.5V | 18:12:15 | 02:09:00 | 00:00:00 | |
| SONCRA | 2026-09-06 00:26:57 | 50.91628 | 8.25400 | 172° | 11km/h | 28499m | 4.9m/s | -45.8°C | 0.9% | 15.7hPa | 2.5V | 00:00:00 | 00:00:00 | 00:00:00 | |
| DL1XH-15 | 2026-09-06 00:26:56 | 50.91642 | 8.25383 | 131° | 16km/h | 28471m | 6.2m/s | -46.1°C | 3.1% | 15.8hPa | 2.5V | 08:30:00 | 02:08:54 | 00:00:00 | |
| BIOWL1-15 | 2026-09-06 00:26:55 | 50.91631 | 8.25399 | 159° | 11km/h | 28494m | 5.2m/s | -45.9°C | 0.3% | 15.7hPa | 2.5V | 18:12:15 | 02:08:58 | 00:00:00 | |
| HSKMA3-T | 2026-09-06 00:26:49 | 50.91647 | 8.25374 | 131° | 13km/h | 28459m | 5.1m/s | -46.2°C | 0.3% | 15.8hPa | 2.6V | 18:12:15 | 02:08:52 | 00:00:00 | |
| AA1-15 | 2026-09-06 00:26:48 | 50.91650 | 8.25370 | 133° | 15km/h | 28454m | 5.1m/s | -46.2°C | 0.3% | 15.8hPa | 2.6V | 18:12:15 | 02:08:51 | 00:00:00 | |
| SMARD9-10 | 2026-09-06 00:26:47 | 50.91652 | 8.25365 | 133° | 18km/h | 28449m | 5.9m/s | -46.1°C | 0.9% | 15.8hPa | 2.5V | 00:00:00 | 00:00:00 | 00:00:00 | |
| DL1XH-15 | 2026-09-06 00:26:46 | 50.91668 | 8.25330 | 103° | 9km/h | 28414m | 5.1m/s | -46.2°C | 3.1% | 15.9hPa | 2.5V | 08:30:00 | 02:08:44 | 00:00:00 | |
| DL1XH-west | 2026-09-06 00:26:46 | 50.91656 | 8.25359 | 129° | 20km/h | 28442m | 6.2m/s | -46.2°C | 0.2% | 15.8hPa | 2.5V | 18:12:15 | 02:08:49 | 00:00:00 | |
| BIOWL1-15 | 2026-09-06 00:26:44 | 50.91662 | 8.25346 | 126° | 22km/h | 28432m | 5m/s | -46.2°C | 0.3% | 15.9hPa | 2.6V | 18:12:15 | 02:08:47 | 00:00:00 | |
| AA1-15 | 2026-09-06 00:26:38 | 50.91669 | 8.25320 | 114° | 11km/h | 28398m | 5.7m/s | -46.4°C | 0.3% | 15.9hPa | 2.6V | 18:12:15 | 02:08:41 | 00:00:00 | |
| Es werden nur die letzten 3500 von 7862 Frames angezeigt. GPX/KML und Diagramme bleiben verfügbar. | |||||||||||||||